<?xml version='1.0' encoding='UTF-8'?><gpx version="1.1" creator="JPX - https://github.com/jenetics/jpx" xmlns="http://www.topografix.com/GPX/1/1"><trk><trkseg><trkpt lat="40.87583463460699" lon="9.628873008443941"><ele>12.0</ele><time>2026-03-28T07:56:34Z</time></trkpt><trkpt lat="40.87587133991429" lon="9.62877553591294"><ele>12.0</ele><time>2026-03-28T07:56:35Z</time></trkpt><trkpt lat="40.87594182184371" lon="9.628652510952454"><ele>12.0</ele><time>2026-03-28T07:56:37Z</time></trkpt><trkpt lat="40.875994648836354" lon="9.628561800797556"><ele>12.0</ele><time>2026-03-28T07:56:38Z</time></trkpt><trkpt lat="40.87607892339338" lon="9.62844302931033"><ele>12.0</ele><time>2026-03-28T07:56:39Z</time></trkpt><trkpt lat="40.87619866184294" lon="9.628311145463815"><ele>13.25</ele><time>2026-03-28T07:56:40Z</time></trkpt><trkpt lat="40.87634105255842" lon="9.628188798913849"><ele>14.5</ele><time>2026-03-28T07:56:41Z</time></trkpt><trkpt lat="40.876477380031055" lon="9.628082336391554"><ele>15.75</ele><time>2026-03-28T07:56:42Z</time></trkpt><trkpt lat="40.87657515604696" lon="9.62798996140124"><ele>17.0</ele><time>2026-03-28T07:56:43Z</time></trkpt><trkpt lat="40.87665308801877" lon="9.627909033540169"><ele>17.0</ele><time>2026-03-28T07:56:44Z</time></trkpt><trkpt lat="40.87672505540842" lon="9.627823359667518"><ele>17.0</ele><time>2026-03-28T07:56:45Z</time></trkpt><trkpt lat="40.876792251489434" lon="9.627714487507026"><ele>17.0</ele><time>2026-03-28T07:56:46Z</time></trkpt><trkpt lat="40.876842483553155" lon="9.627598179542792"><ele>17.0</ele><time>2026-03-28T07:56:47Z</time></trkpt><trkpt lat="40.87688521377587" lon="9.627478419428256"><ele>17.0</ele><time>2026-03-28T07:56:48Z</time></trkpt><trkpt lat="40.876916758442114" lon="9.62736175365269"><ele>17.0</ele><time>2026-03-28T07:56:49Z</time></trkpt><trkpt lat="40.876946861122825" lon="9.627214380731733"><ele>17.0</ele><time>2026-03-28T07:56:50Z</time></trkpt><trkpt lat="40.87695729254654" lon="9.627084635394601"><ele>17.0</ele><time>2026-03-28T07:56:51Z</time></trkpt><trkpt lat="40.87694708216827" lon="9.626945461822196"><ele>17.0</ele><time>2026-03-28T07:56:52Z</time></trkpt><trkpt lat="40.87691423264856" lon="9.626721499211744"><ele>17.0</ele><time>2026-03-28T07:56:53Z</time></trkpt><trkpt lat="40.87682661404726" lon="9.626500585605319"><ele>17.0</ele><time>2026-03-28T07:56:54Z</time></trkpt><trkpt lat="40.876766174646555" lon="9.626292804540675"><ele>17.0</ele><time>2026-03-28T07:56:55Z</time></trkpt><trkpt lat="40.87675559326518" lon="9.62611798227104"><ele>17.0</ele><time>2026-03-28T07:56:56Z</time></trkpt><trkpt lat="40.87675711663502" lon="9.625982370366495"><ele>17.0</ele><time>2026-03-28T07:56:57Z</time></trkpt><trkpt lat="40.87674997851546" lon="9.625854529476385"><ele>17.0</ele><time>2026-03-28T07:56:57.999Z</time></trkpt><trkpt lat="40.876803490699096" lon="9.625708224334852"><ele>17.0</ele><time>2026-03-28T07:56:58.999Z</time></trkpt><trkpt lat="40.87685171014048" lon="9.625561708936965"><ele>17.0</ele><time>2026-03-28T07:56:59.999Z</time></trkpt><trkpt lat="40.876905107105976" lon="9.625403935425776"><ele>16.0</ele><time>2026-03-28T07:57:00.999Z</time></trkpt><trkpt lat="40.87697377934278" lon="9.625201468976849"><ele>15.0</ele><time>2026-03-28T07:57:01.999Z</time></trkpt><trkpt lat="40.877053085936346" lon="9.624967752902696"><ele>14.0</ele><time>2026-03-28T07:57:02.999Z</time></trkpt><trkpt lat="40.87712892428171" lon="9.624707221161556"><ele>14.0</ele><time>2026-03-28T07:57:03.999Z</time></trkpt><trkpt lat="40.87722923827419" lon="9.624436825092015"><ele>14.0</ele><time>2026-03-28T07:57:04.999Z</time></trkpt><trkpt lat="40.87732610700756" lon="9.624156606110235"><ele>14.0</ele><time>2026-03-28T07:57:05.999Z</time></trkpt><trkpt lat="40.87742740657369" lon="9.623872180405995"><ele>14.0</ele><time>2026-03-28T07:57:06.999Z</time></trkpt><trkpt lat="40.8775271592285" lon="9.62361851041311"><ele>13.0</ele><time>2026-03-28T07:57:07.999Z</time></trkpt><trkpt lat="40.87761796190819" lon="9.623388236796576"><ele>12.0</ele><time>2026-03-28T07:57:08.999Z</time></trkpt><trkpt lat="40.87769189322179" lon="9.623140944720577"><ele>11.0</ele><time>2026-03-28T07:57:09.999Z</time></trkpt><trkpt lat="40.87774500812309" lon="9.62287081214858"><ele>11.0</ele><time>2026-03-28T07:57:10.999Z</time></trkpt><trkpt lat="40.87778615496407" lon="9.622586333429014"><ele>11.0</ele><time>2026-03-28T07:57:11.999Z</time></trkpt><trkpt lat="40.87783149367432" lon="9.622292246599088"><ele>11.0</ele><time>2026-03-28T07:57:12.999Z</time></trkpt><trkpt lat="40.877879864335156" lon="9.622007749846473"><ele>12.333333333333332</ele><time>2026-03-28T07:57:13.999Z</time></trkpt><trkpt lat="40.877927791670835" lon="9.621717610390615"><ele>13.666666666666666</ele><time>2026-03-28T07:57:14.999Z</time></trkpt><trkpt lat="40.877963045344686" lon="9.62144503858733"><ele>15.0</ele><time>2026-03-28T07:57:15.999Z</time></trkpt><trkpt lat="40.877970003306615" lon="9.621177549755563"><ele>16.0</ele><time>2026-03-28T07:57:16.999Z</time></trkpt><trkpt lat="40.87795022270878" lon="9.620907295716574"><ele>17.0</ele><time>2026-03-28T07:57:17.999Z</time></trkpt><trkpt lat="40.87791623011652" lon="9.620642833234726"><ele>18.0</ele><time>2026-03-28T07:57:18.999Z</time></trkpt><trkpt lat="40.87785794574428" lon="9.62040727138434"><ele>17.666666666666668</ele><time>2026-03-28T07:57:19.999Z</time></trkpt><trkpt lat="40.877770812255406" lon="9.620164620980926"><ele>17.333333333333336</ele><time>2026-03-28T07:57:20.999Z</time></trkpt><trkpt lat="40.87767276990884" lon="9.619908199583673"><ele>17.0</ele><time>2026-03-28T07:57:21.999Z</time></trkpt><trkpt lat="40.877588194003614" lon="9.619676854978623"><ele>18.5</ele><time>2026-03-28T07:57:22.999Z</time></trkpt><trkpt lat="40.8775313997702" lon="9.619475377207417"><ele>20.0</ele><time>2026-03-28T07:57:23.999Z</time></trkpt><trkpt lat="40.87750295358261" lon="9.619288720009338"><ele>21.5</ele><time>2026-03-28T07:57:24.999Z</time></trkpt><trkpt lat="40.877506664844134" lon="9.619104083718014"><ele>23.0</ele><time>2026-03-28T07:57:25.999Z</time></trkpt><trkpt lat="40.8775414668575" lon="9.618899344665586"><ele>23.0</ele><time>2026-03-28T07:57:26.999Z</time></trkpt><trkpt lat="40.87759283076416" lon="9.61867384577906"><ele>23.0</ele><time>2026-03-28T07:57:27.999Z</time></trkpt><trkpt lat="40.87764778453467" lon="9.618436285489192"><ele>23.0</ele><time>2026-03-28T07:57:28.999Z</time></trkpt><trkpt lat="40.877710784471674" lon="9.618197269046131"><ele>26.333333333333336</ele><time>2026-03-28T07:57:29.999Z</time></trkpt><trkpt lat="40.87779497490139" lon="9.61795677340717"><ele>29.666666666666668</ele><time>2026-03-28T07:57:30.999Z</time></trkpt><trkpt lat="40.877907798406056" lon="9.617714693712749"><ele>33.0</ele><time>2026-03-28T07:57:31.999Z</time></trkpt><trkpt lat="40.87801627204937" lon="9.617467986760255"><ele>33.333333333333336</ele><time>2026-03-28T07:57:32.999Z</time></trkpt><trkpt lat="40.8781108412394" lon="9.617195272223123"><ele>33.66666666666667</ele><time>2026-03-28T07:57:33.999Z</time></trkpt><trkpt lat="40.87818510233061" lon="9.61694132694593"><ele>34.0</ele><time>2026-03-28T07:57:34.999Z</time></trkpt><trkpt lat="40.87824566798508" lon="9.616708251627315"><ele>34.333333333333336</ele><time>2026-03-28T07:57:35.999Z</time></trkpt><trkpt lat="40.878288421165074" lon="9.616478047046803"><ele>34.666666666666664</ele><time>2026-03-28T07:57:36.999Z</time></trkpt><trkpt lat="40.87830007095177" lon="9.616231774415619"><ele>35.0</ele><time>2026-03-28T07:57:37.999Z</time></trkpt><trkpt lat="40.87830443420432" lon="9.615973210796357"><ele>35.75</ele><time>2026-03-28T07:57:38.999Z</time></trkpt><trkpt lat="40.87831376653501" lon="9.615758581391969"><ele>36.5</ele><time>2026-03-28T07:57:39.999Z</time></trkpt><trkpt lat="40.878332047922086" lon="9.615579221066023"><ele>37.25</ele><time>2026-03-28T07:57:40.999Z</time></trkpt><trkpt lat="40.878363686952625" lon="9.615412341391556"><ele>38.0</ele><time>2026-03-28T07:57:41.999Z</time></trkpt><trkpt lat="40.87842864430796" lon="9.61524754468286"><ele>40.0</ele><time>2026-03-28T07:57:42.999Z</time></trkpt><trkpt lat="40.878544392598776" lon="9.615108342094238"><ele>42.0</ele><time>2026-03-28T07:57:43.999Z</time></trkpt><trkpt lat="40.878682635090314" lon="9.61496041324314"><ele>44.0</ele><time>2026-03-28T07:57:44.999Z</time></trkpt><trkpt lat="40.87881384103817" lon="9.614799800694206"><ele>44.0</ele><time>2026-03-28T07:57:46Z</time></trkpt><trkpt lat="40.87891987241915" lon="9.614660135727732"><ele>44.0</ele><time>2026-03-28T07:57:47Z</time></trkpt><trkpt lat="40.878997339998186" lon="9.614478658829892"><ele>44.0</ele><time>2026-03-28T07:57:48Z</time></trkpt><trkpt lat="40.87906233473314" lon="9.614237323035711"><ele>45.666666666666664</ele><time>2026-03-28T07:57:49Z</time></trkpt><trkpt lat="40.87911378659286" lon="9.613984479234729"><ele>47.33333333333333</ele><time>2026-03-28T07:57:50Z</time></trkpt><trkpt lat="40.879171307887205" lon="9.613725167003388"><ele>49.0</ele><time>2026-03-28T07:57:51Z</time></trkpt><trkpt lat="40.87923735694937" lon="9.613453014836884"><ele>50.666666666666664</ele><time>2026-03-28T07:57:52Z</time></trkpt><trkpt lat="40.879298458330304" lon="9.613187834012471"><ele>52.33333333333333</ele><time>2026-03-28T07:57:53Z</time></trkpt><trkpt lat="40.87934590986259" lon="9.61292331051051"><ele>54.0</ele><time>2026-03-28T07:57:54Z</time></trkpt><trkpt lat="40.87937226814878" lon="9.612658007415074"><ele>54.0</ele><time>2026-03-28T07:57:55Z</time></trkpt><trkpt lat="40.87938728933101" lon="9.612423419859272"><ele>54.0</ele><time>2026-03-28T07:57:56Z</time></trkpt><trkpt lat="40.879436773041924" lon="9.612172441041208"><ele>54.0</ele><time>2026-03-28T07:57:57Z</time></trkpt><trkpt lat="40.879490581650295" lon="9.611919808744046"><ele>53.0</ele><time>2026-03-28T07:57:58Z</time></trkpt><trkpt lat="40.87954626279889" lon="9.611669132672535"><ele>52.0</ele><time>2026-03-28T07:57:59Z</time></trkpt><trkpt lat="40.879581224004525" lon="9.611439082527276"><ele>51.0</ele><time>2026-03-28T07:58:00Z</time></trkpt><trkpt lat="40.87963217574207" lon="9.61121919298532"><ele>50.66666666666667</ele><time>2026-03-28T07:58:01Z</time></trkpt><trkpt lat="40.87967854030038" lon="9.611009192530338"><ele>50.333333333333336</ele><time>2026-03-28T07:58:02Z</time></trkpt><trkpt lat="40.87972410370699" lon="9.61080609242729"><ele>50.0</ele><time>2026-03-28T07:58:03Z</time></trkpt><trkpt lat="40.87976698095858" lon="9.61061051773725"><ele>50.0</ele><time>2026-03-28T07:58:04Z</time></trkpt><trkpt lat="40.87981178365052" lon="9.610400263914961"><ele>50.0</ele><time>2026-03-28T07:58:05Z</time></trkpt><trkpt lat="40.879855993105636" lon="9.610183371373974"><ele>50.0</ele><time>2026-03-28T07:58:06Z</time></trkpt><trkpt lat="40.8799154940506" lon="9.609989153268012"><ele>50.333333333333336</ele><time>2026-03-28T07:58:07Z</time></trkpt><trkpt lat="40.8799573561518" lon="9.60979907760277"><ele>50.66666666666667</ele><time>2026-03-28T07:58:08Z</time></trkpt><trkpt lat="40.87999973442846" lon="9.609606658251522"><ele>51.0</ele><time>2026-03-28T07:58:09Z</time></trkpt><trkpt lat="40.880027305535656" lon="9.609410724854245"><ele>50.25</ele><time>2026-03-28T07:58:10Z</time></trkpt><trkpt lat="40.88006841825711" lon="9.609229649438086"><ele>49.5</ele><time>2026-03-28T07:58:11Z</time></trkpt><trkpt lat="40.88010958968402" lon="9.609046565430285"><ele>48.75</ele><time>2026-03-28T07:58:12Z</time></trkpt><trkpt lat="40.880153902653674" lon="9.60885570868284"><ele>48.0</ele><time>2026-03-28T07:58:13Z</time></trkpt><trkpt lat="40.88020496210465" lon="9.608678582761701"><ele>46.75</ele><time>2026-03-28T07:58:14Z</time></trkpt><trkpt lat="40.88026712217621" lon="9.608506837720867"><ele>45.5</ele><time>2026-03-28T07:58:15Z</time></trkpt><trkpt lat="40.88034159002559" lon="9.608332517193473"><ele>44.25</ele><time>2026-03-28T07:58:16Z</time></trkpt><trkpt lat="40.88041017425786" lon="9.60817550128977"><ele>43.0</ele><time>2026-03-28T07:58:17Z</time></trkpt><trkpt lat="40.880471483243" lon="9.608029836614167"><ele>43.0</ele><time>2026-03-28T07:58:18Z</time></trkpt><trkpt lat="40.880525969665705" lon="9.607895910711697"><ele>43.0</ele><time>2026-03-28T07:58:19Z</time></trkpt><trkpt lat="40.880581158680016" lon="9.607755627583998"><ele>43.0</ele><time>2026-03-28T07:58:20Z</time></trkpt><trkpt lat="40.88064013387488" lon="9.607602521539985"><ele>43.0</ele><time>2026-03-28T07:58:21Z</time></trkpt><trkpt lat="40.88068742082982" lon="9.607457685311902"><ele>42.75</ele><time>2026-03-28T07:58:22Z</time></trkpt><trkpt lat="40.880723103257395" lon="9.60729769891255"><ele>42.5</ele><time>2026-03-28T07:58:23Z</time></trkpt><trkpt lat="40.88074450027118" lon="9.607122395123998"><ele>42.25</ele><time>2026-03-28T07:58:24Z</time></trkpt><trkpt lat="40.880764376137286" lon="9.606927680634442"><ele>42.0</ele><time>2026-03-28T07:58:25Z</time></trkpt><trkpt lat="40.88076666093974" lon="9.606693914110156"><ele>41.666666666666664</ele><time>2026-03-28T07:58:26Z</time></trkpt><trkpt lat="40.88076912846348" lon="9.606429930949632"><ele>41.33333333333333</ele><time>2026-03-28T07:58:27Z</time></trkpt><trkpt lat="40.880771140659306" lon="9.606138386384652"><ele>41.0</ele><time>2026-03-28T07:58:28Z</time></trkpt><trkpt lat="40.88077325426281" lon="9.605832148903284"><ele>40.0</ele><time>2026-03-28T07:58:29Z</time></trkpt><trkpt lat="40.88077537464707" lon="9.605524929230707"><ele>39.0</ele><time>2026-03-28T07:58:30Z</time></trkpt><trkpt lat="40.880765706494294" lon="9.605225425345925"><ele>38.0</ele><time>2026-03-28T07:58:31Z</time></trkpt><trkpt lat="40.88076523063512" lon="9.60495083763197"><ele>37.0</ele><time>2026-03-28T07:58:32Z</time></trkpt><trkpt lat="40.880781589537854" lon="9.60470046172795"><ele>36.0</ele><time>2026-03-28T07:58:33Z</time></trkpt><trkpt lat="40.88076080167182" lon="9.60445350530264"><ele>35.333333333333336</ele><time>2026-03-28T07:58:34Z</time></trkpt><trkpt lat="40.88074479576057" lon="9.60421537474462"><ele>34.66666666666667</ele><time>2026-03-28T07:58:35Z</time></trkpt><trkpt lat="40.880694842103665" lon="9.603971845575424"><ele>34.0</ele><time>2026-03-28T07:58:36Z</time></trkpt><trkpt lat="40.88061343746538" lon="9.603715139769731"><ele>34.333333333333336</ele><time>2026-03-28T07:58:37Z</time></trkpt><trkpt lat="40.88053050741195" lon="9.603457976860563"><ele>34.666666666666664</ele><time>2026-03-28T07:58:38Z</time></trkpt><trkpt lat="40.880489723646996" lon="9.603214586967823"><ele>35.0</ele><time>2026-03-28T07:58:39Z</time></trkpt><trkpt lat="40.880466517362834" lon="9.602972824449676"><ele>34.666666666666664</ele><time>2026-03-28T07:58:40Z</time></trkpt><trkpt lat="40.88045951647604" lon="9.602704356352548"><ele>34.333333333333336</ele><time>2026-03-28T07:58:41Z</time></trkpt><trkpt lat="40.880456724504526" lon="9.602431574010227"><ele>34.0</ele><time>2026-03-28T07:58:42Z</time></trkpt><trkpt lat="40.880442186651045" lon="9.60220792815929"><ele>34.0</ele><time>2026-03-28T07:58:43Z</time></trkpt><trkpt lat="40.88044533103564" lon="9.602008887929525"><ele>34.0</ele><time>2026-03-28T07:58:44Z</time></trkpt><trkpt lat="40.88044312284429" lon="9.601772747028381"><ele>34.0</ele><time>2026-03-28T07:58:45Z</time></trkpt><trkpt lat="40.88044132697685" lon="9.601504529880005"><ele>34.0</ele><time>2026-03-28T07:58:46Z</time></trkpt><trkpt lat="40.880439146475645" lon="9.601215398626259"><ele>34.0</ele><time>2026-03-28T07:58:47Z</time></trkpt><trkpt lat="40.880436461390694" lon="9.600956112667369"><ele>34.0</ele><time>2026-03-28T07:58:48Z</time></trkpt><trkpt lat="40.88043814174346" lon="9.600716728782963"><ele>33.66666666666667</ele><time>2026-03-28T07:58:49Z</time></trkpt><trkpt lat="40.880456038006685" lon="9.60048124263069"><ele>33.333333333333336</ele><time>2026-03-28T07:58:50Z</time></trkpt><trkpt lat="40.88051818482673" lon="9.600229296475563"><ele>33.0</ele><time>2026-03-28T07:58:51Z</time></trkpt><trkpt lat="40.88058023006773" lon="9.599976584880208"><ele>32.333333333333336</ele><time>2026-03-28T07:58:52Z</time></trkpt><trkpt lat="40.88063390179232" lon="9.599728680251062"><ele>31.666666666666668</ele><time>2026-03-28T07:58:53Z</time></trkpt><trkpt lat="40.88070417002954" lon="9.599514650212248"><ele>31.0</ele><time>2026-03-28T07:58:54Z</time></trkpt><trkpt lat="40.88078751112212" lon="9.599308960415224"><ele>30.333333333333336</ele><time>2026-03-28T07:58:54.999Z</time></trkpt><trkpt lat="40.880892289700256" lon="9.59911578873561"><ele>29.666666666666664</ele><time>2026-03-28T07:58:55.999Z</time></trkpt><trkpt lat="40.88103721354613" lon="9.598909734129299"><ele>29.0</ele><time>2026-03-28T07:58:56.999Z</time></trkpt><trkpt lat="40.88119550197554" lon="9.598697591070927"><ele>31.5</ele><time>2026-03-28T07:58:57.999Z</time></trkpt><trkpt lat="40.881349244371286" lon="9.598478293270382"><ele>34.0</ele><time>2026-03-28T07:58:58.999Z</time></trkpt><trkpt lat="40.8815015027176" lon="9.598250399204154"><ele>34.0</ele><time>2026-03-28T07:58:59.999Z</time></trkpt><trkpt lat="40.88165857016732" lon="9.598016328855435"><ele>34.0</ele><time>2026-03-28T07:59:00.999Z</time></trkpt><trkpt lat="40.881800973106685" lon="9.597810274825324"><ele>34.0</ele><time>2026-03-28T07:59:01.999Z</time></trkpt><trkpt lat="40.88193534702745" lon="9.59761450797686"><ele>33.66666666666667</ele><time>2026-03-28T07:59:02.999Z</time></trkpt><trkpt lat="40.88205738731469" lon="9.597436398591297"><ele>33.333333333333336</ele><time>2026-03-28T07:59:03.999Z</time></trkpt><trkpt lat="40.88217054731762" lon="9.597273891644301"><ele>33.0</ele><time>2026-03-28T07:59:04.999Z</time></trkpt><trkpt lat="40.8822727911971" lon="9.59713316674074"><ele>33.0</ele><time>2026-03-28T07:59:05.999Z</time></trkpt><trkpt lat="40.882364133071476" lon="9.597019227532739"><ele>33.0</ele><time>2026-03-28T07:59:06.999Z</time></trkpt><trkpt lat="40.882454904628325" lon="9.596936588983949"><ele>33.0</ele><time>2026-03-28T07:59:07.999Z</time></trkpt><trkpt lat="40.88255138144312" lon="9.596899463452676"><ele>33.0</ele><time>2026-03-28T07:59:08.999Z</time></trkpt><trkpt lat="40.88266066792341" lon="9.59691404397491"><ele>33.0</ele><time>2026-03-28T07:59:09.999Z</time></trkpt><trkpt lat="40.882782690677786" lon="9.59698725116493"><ele>32.5</ele><time>2026-03-28T07:59:10.999Z</time></trkpt><trkpt lat="40.88290590617779" lon="9.597072033701275"><ele>32.0</ele><time>2026-03-28T07:59:11.999Z</time></trkpt><trkpt lat="40.88302598408374" lon="9.59713251195012"><ele>31.5</ele><time>2026-03-28T07:59:12.999Z</time></trkpt><trkpt lat="40.88315575838354" lon="9.59712923020079"><ele>31.0</ele><time>2026-03-28T07:59:13.999Z</time></trkpt><trkpt lat="40.88331010543889" lon="9.597058327156766"><ele>27.0</ele><time>2026-03-28T07:59:14.999Z</time></trkpt><trkpt lat="40.88348341442188" lon="9.59695385295454"><ele>23.0</ele><time>2026-03-28T07:59:15.999Z</time></trkpt><trkpt lat="40.883663073594136" lon="9.596859764605835"><ele>19.0</ele><time>2026-03-28T07:59:16.999Z</time></trkpt><trkpt lat="40.883856308473845" lon="9.596805066944457"><ele>19.0</ele><time>2026-03-28T07:59:17.999Z</time></trkpt><trkpt lat="40.88404852148825" lon="9.59678832473301"><ele>19.0</ele><time>2026-03-28T07:59:18.999Z</time></trkpt><trkpt lat="40.884229990566304" lon="9.596748490761772"><ele>19.0</ele><time>2026-03-28T07:59:19.999Z</time></trkpt><trkpt lat="40.88441210267263" lon="9.596681273168295"><ele>18.0</ele><time>2026-03-28T07:59:20.999Z</time></trkpt><trkpt lat="40.88460369849963" lon="9.59657168746192"><ele>17.0</ele><time>2026-03-28T07:59:21.999Z</time></trkpt><trkpt lat="40.88477115238976" lon="9.596473141611646"><ele>16.0</ele><time>2026-03-28T07:59:22.999Z</time></trkpt><trkpt lat="40.88490910605137" lon="9.596392103201902"><ele>16.0</ele><time>2026-03-28T07:59:23.999Z</time></trkpt><trkpt lat="40.885026514023224" lon="9.596303161907185"><ele>16.0</ele><time>2026-03-28T07:59:24.999Z</time></trkpt><trkpt lat="40.88511681798579" lon="9.596173418394715"><ele>16.0</ele><time>2026-03-28T07:59:25.999Z</time></trkpt><trkpt lat="40.885183539675396" lon="9.595963944778335"><ele>16.0</ele><time>2026-03-28T07:59:26.999Z</time></trkpt><trkpt lat="40.885244016066956" lon="9.595715889090874"><ele>15.0</ele><time>2026-03-28T07:59:27.999Z</time></trkpt><trkpt lat="40.88530925783426" lon="9.595443725686852"><ele>14.0</ele><time>2026-03-28T07:59:28.999Z</time></trkpt><trkpt lat="40.88539137895088" lon="9.595175849903958"><ele>13.0</ele><time>2026-03-28T07:59:29.999Z</time></trkpt><trkpt lat="40.88549108424311" lon="9.594932144546691"><ele>13.0</ele><time>2026-03-28T07:59:30.999Z</time></trkpt><trkpt lat="40.885603038151395" lon="9.594692923916803"><ele>13.0</ele><time>2026-03-28T07:59:31.999Z</time></trkpt><trkpt lat="40.88572286158584" lon="9.59444684802114"><ele>13.0</ele><time>2026-03-28T07:59:32.999Z</time></trkpt><trkpt lat="40.88585280119202" lon="9.594178054160848"><ele>13.5</ele><time>2026-03-28T07:59:33.999Z</time></trkpt><trkpt lat="40.88599493987309" lon="9.593888064245492"><ele>14.0</ele><time>2026-03-28T07:59:34.999Z</time></trkpt><trkpt lat="40.88613941870097" lon="9.593585096614202"><ele>14.0</ele><time>2026-03-28T07:59:35.999Z</time></trkpt><trkpt lat="40.8862838309055" lon="9.593280025278824"><ele>14.0</ele><time>2026-03-28T07:59:36.999Z</time></trkpt><trkpt lat="40.88644320913565" lon="9.59298955100528"><ele>13.5</ele><time>2026-03-28T07:59:37.999Z</time></trkpt><trkpt lat="40.88656270289552" lon="9.59270454362072"><ele>13.0</ele><time>2026-03-28T07:59:38.999Z</time></trkpt><trkpt lat="40.886697892018574" lon="9.592467849940556"><ele>12.666666666666666</ele><time>2026-03-28T07:59:39.999Z</time></trkpt><trkpt lat="40.88680016981213" lon="9.592215505437027"><ele>12.333333333333332</ele><time>2026-03-28T07:59:40.999Z</time></trkpt><trkpt lat="40.886917651688684" lon="9.591977329747746"><ele>12.0</ele><time>2026-03-28T07:59:41.999Z</time></trkpt><trkpt lat="40.88702913805219" lon="9.591751332563494"><ele>12.0</ele><time>2026-03-28T07:59:42.999Z</time></trkpt><trkpt lat="40.88712926143987" lon="9.591540533182153"><ele>12.0</ele><time>2026-03-28T07:59:43.999Z</time></trkpt><trkpt lat="40.88723258563837" lon="9.591325806856412"><ele>12.0</ele><time>2026-03-28T07:59:44.999Z</time></trkpt><trkpt lat="40.88732869935299" lon="9.591132206544918"><ele>12.333333333333332</ele><time>2026-03-28T07:59:45.999Z</time></trkpt><trkpt lat="40.8874280457396" lon="9.590926582254967"><ele>12.666666666666666</ele><time>2026-03-28T07:59:46.999Z</time></trkpt><trkpt lat="40.88753272662362" lon="9.590718309746489"><ele>13.0</ele><time>2026-03-28T07:59:47.999Z</time></trkpt><trkpt lat="40.887635956398576" lon="9.590526277891012"><ele>12.0</ele><time>2026-03-28T07:59:48.999Z</time></trkpt><trkpt lat="40.88775493388292" lon="9.59031936275906"><ele>11.0</ele><time>2026-03-28T07:59:49.999Z</time></trkpt><trkpt lat="40.88788476609052" lon="9.590116681650981"><ele>10.0</ele><time>2026-03-28T07:59:51Z</time></trkpt><trkpt lat="40.888016872713685" lon="9.58992213859819"><ele>10.0</ele><time>2026-03-28T07:59:52Z</time></trkpt><trkpt lat="40.88813391281967" lon="9.589754429808547"><ele>10.0</ele><time>2026-03-28T07:59:53Z</time></trkpt><trkpt lat="40.88824290679203" lon="9.589594687843277"><ele>10.0</ele><time>2026-03-28T07:59:54Z</time></trkpt><trkpt lat="40.88833801298168" lon="9.589457022004428"><ele>10.0</ele><time>2026-03-28T07:59:55Z</time></trkpt><trkpt lat="40.888426590197184" lon="9.589328669587566"><ele>10.0</ele><time>2026-03-28T07:59:56Z</time></trkpt><trkpt lat="40.88850108614419" lon="9.589222019651999"><ele>10.0</ele><time>2026-03-28T07:59:57Z</time></trkpt><trkpt lat="40.88856971867675" lon="9.589126969704882"><ele>10.0</ele><time>2026-03-28T07:59:58Z</time></trkpt><trkpt lat="40.88863281251974" lon="9.589057256239203"><ele>10.0</ele><time>2026-03-28T07:59:59Z</time></trkpt><trkpt lat="40.888706325377576" lon="9.589007995835235"><ele>10.0</ele><time>2026-03-28T08:00:00Z</time></trkpt><trkpt lat="40.88879741548307" lon="9.588991433535579"><ele>10.0</ele><time>2026-03-28T08:00:01Z</time></trkpt><trkpt lat="40.888880386356554" lon="9.58897508520514"><ele>10.0</ele><time>2026-03-28T08:00:02Z</time></trkpt><trkpt lat="40.8889421842914" lon="9.588921730158567"><ele>10.0</ele><time>2026-03-28T08:00:03Z</time></trkpt><trkpt lat="40.88897995785768" lon="9.588822158024591"><ele>10.0</ele><time>2026-03-28T08:00:04Z</time></trkpt><trkpt lat="40.888989806864004" lon="9.588698928605334"><ele>10.0</ele><time>2026-03-28T08:00:05Z</time></trkpt><trkpt lat="40.88899652169449" lon="9.58855066134593"><ele>10.0</ele><time>2026-03-28T08:00:06Z</time></trkpt><trkpt lat="40.88905007214626" lon="9.588444474260452"><ele>10.0</ele><time>2026-03-28T08:00:07Z</time></trkpt><trkpt lat="40.889125910180795" lon="9.588324776327617"><ele>10.0</ele><time>2026-03-28T08:00:08Z</time></trkpt><trkpt lat="40.88923042541939" lon="9.588166974313925"><ele>10.0</ele><time>2026-03-28T08:00:09Z</time></trkpt><trkpt lat="40.88934234865629" lon="9.587976711659161"><ele>10.0</ele><time>2026-03-28T08:00:10Z</time></trkpt><trkpt lat="40.889473557624534" lon="9.58777873910433"><ele>10.0</ele><time>2026-03-28T08:00:11Z</time></trkpt><trkpt lat="40.889603600465485" lon="9.58755501579114"><ele>10.0</ele><time>2026-03-28T08:00:12Z</time></trkpt><trkpt lat="40.88971772104719" lon="9.58731753351277"><ele>10.0</ele><time>2026-03-28T08:00:13Z</time></trkpt><trkpt lat="40.88982763315608" lon="9.587064866081683"><ele>10.0</ele><time>2026-03-28T08:00:14Z</time></trkpt><trkpt lat="40.8899414571883" lon="9.586805752004592"><ele>10.0</ele><time>2026-03-28T08:00:15Z</time></trkpt><trkpt lat="40.890048343382226" lon="9.586556887932552"><ele>9.666666666666668</ele><time>2026-03-28T08:00:16Z</time></trkpt><trkpt lat="40.890143514006354" lon="9.586339766054994"><ele>9.333333333333334</ele><time>2026-03-28T08:00:17Z</time></trkpt><trkpt lat="40.8902349090769" lon="9.586131352222248"><ele>9.0</ele><time>2026-03-28T08:00:18Z</time></trkpt><trkpt lat="40.890323348512254" lon="9.585925528264847"><ele>9.0</ele><time>2026-03-28T08:00:19Z</time></trkpt><trkpt lat="40.89040663061075" lon="9.585732119983609"><ele>9.0</ele><time>2026-03-28T08:00:20Z</time></trkpt><trkpt lat="40.890479342023816" lon="9.58555014027856"><ele>9.0</ele><time>2026-03-28T08:00:21Z</time></trkpt><trkpt lat="40.890555646232066" lon="9.585356432624275"><ele>9.0</ele><time>2026-03-28T08:00:22Z</time></trkpt><trkpt lat="40.89062945878205" lon="9.585163252127176"><ele>9.0</ele><time>2026-03-28T08:00:23Z</time></trkpt><trkpt lat="40.89069814125857" lon="9.584975188082176"><ele>9.0</ele><time>2026-03-28T08:00:24Z</time></trkpt><trkpt lat="40.890768228152155" lon="9.584783146890397"><ele>9.0</ele><time>2026-03-28T08:00:25Z</time></trkpt><trkpt lat="40.8908419025887" lon="9.584599720614646"><ele>9.0</ele><time>2026-03-28T08:00:26Z</time></trkpt><trkpt lat="40.8909032034788" lon="9.584431581318686"><ele>9.0</ele><time>2026-03-28T08:00:27Z</time></trkpt><trkpt lat="40.890961518001205" lon="9.584270100543034"><ele>9.0</ele><time>2026-03-28T08:00:28Z</time></trkpt><trkpt lat="40.891024417236395" lon="9.584105696511747"><ele>9.0</ele><time>2026-03-28T08:00:29Z</time></trkpt><trkpt lat="40.89108291911574" lon="9.58395308745781"><ele>9.0</ele><time>2026-03-28T08:00:30Z</time></trkpt><trkpt lat="40.89113703149698" lon="9.583809684757542"><ele>9.0</ele><time>2026-03-28T08:00:31Z</time></trkpt><trkpt lat="40.891194408984404" lon="9.583661871876432"><ele>9.0</ele><time>2026-03-28T08:00:32Z</time></trkpt><trkpt lat="40.891254509771926" lon="9.583507787988495"><ele>8.5</ele><time>2026-03-28T08:00:33Z</time></trkpt><trkpt lat="40.89131795518978" lon="9.58333305245445"><ele>8.0</ele><time>2026-03-28T08:00:34Z</time></trkpt><trkpt lat="40.89137723185532" lon="9.583158438793442"><ele>7.5</ele><time>2026-03-28T08:00:35Z</time></trkpt><trkpt lat="40.8914216122102" lon="9.582984126695665"><ele>7.0</ele><time>2026-03-28T08:00:36Z</time></trkpt><trkpt lat="40.89145095355414" lon="9.582785240643599"><ele>6.333333333333334</ele><time>2026-03-28T08:00:37Z</time></trkpt><trkpt lat="40.891464530490474" lon="9.582584771518437"><ele>5.666666666666667</ele><time>2026-03-28T08:00:38Z</time></trkpt><trkpt lat="40.89147230554623" lon="9.582381835627498"><ele>5.0</ele><time>2026-03-28T08:00:39Z</time></trkpt><trkpt lat="40.89149635963267" lon="9.582173346057024"><ele>4.666666666666667</ele><time>2026-03-28T08:00:40Z</time></trkpt><trkpt lat="40.891491222528785" lon="9.581955050409798"><ele>4.333333333333333</ele><time>2026-03-28T08:00:41Z</time></trkpt><trkpt lat="40.891502068402936" lon="9.581744365984683"><ele>4.0</ele><time>2026-03-28T08:00:42Z</time></trkpt><trkpt lat="40.89151333606498" lon="9.581531952420544"><ele>4.0</ele><time>2026-03-28T08:00:43Z</time></trkpt><trkpt lat="40.89152371127152" lon="9.581332172562826"><ele>4.0</ele><time>2026-03-28T08:00:44Z</time></trkpt><trkpt lat="40.89153252631123" lon="9.581142368514278"><ele>4.0</ele><time>2026-03-28T08:00:45Z</time></trkpt><trkpt lat="40.89155917467953" lon="9.580938866897617"><ele>3.6666666666666665</ele><time>2026-03-28T08:00:46Z</time></trkpt><trkpt lat="40.891570567960926" lon="9.580711968963442"><ele>3.333333333333333</ele><time>2026-03-28T08:00:47Z</time></trkpt><trkpt lat="40.89158146698974" lon="9.580495715320493"><ele>3.0</ele><time>2026-03-28T08:00:48Z</time></trkpt><trkpt lat="40.89159227349306" lon="9.580282123221364"><ele>3.0</ele><time>2026-03-28T08:00:49Z</time></trkpt><trkpt lat="40.891603355690684" lon="9.580062826630384"><ele>3.0</ele><time>2026-03-28T08:00:50Z</time></trkpt><trkpt lat="40.891614136898596" lon="9.57984643234911"><ele>3.0</ele><time>2026-03-28T08:00:51Z</time></trkpt><trkpt lat="40.89162526058288" lon="9.579623164160463"><ele>3.666666666666667</ele><time>2026-03-28T08:00:52Z</time></trkpt><trkpt lat="40.89163621371121" lon="9.579402157878024"><ele>4.333333333333334</ele><time>2026-03-28T08:00:53Z</time></trkpt><trkpt lat="40.891646560189216" lon="9.579191688932196"><ele>5.0</ele><time>2026-03-28T08:00:54Z</time></trkpt><trkpt lat="40.89165722653392" lon="9.578974713008359"><ele>5.0</ele><time>2026-03-28T08:00:55Z</time></trkpt><trkpt lat="40.891668518585064" lon="9.578759527714734"><ele>5.0</ele><time>2026-03-28T08:00:56Z</time></trkpt><trkpt lat="40.89168082766101" lon="9.578548333565646"><ele>5.0</ele><time>2026-03-28T08:00:57Z</time></trkpt><trkpt lat="40.89169778055921" lon="9.578343441154088"><ele>5.0</ele><time>2026-03-28T08:00:58Z</time></trkpt><trkpt lat="40.89172655043564" lon="9.578136932622371"><ele>5.0</ele><time>2026-03-28T08:00:58.999Z</time></trkpt><trkpt lat="40.89176749516142" lon="9.577928214709143"><ele>5.0</ele><time>2026-03-28T08:00:59.999Z</time></trkpt><trkpt lat="40.89181723038828" lon="9.577704221873187"><ele>4.0</ele><time>2026-03-28T08:01:00.999Z</time></trkpt><trkpt lat="40.89186862633009" lon="9.577482511285714"><ele>3.0</ele><time>2026-03-28T08:01:01.999Z</time></trkpt><trkpt lat="40.89191959952833" lon="9.577262624089741"><ele>2.0</ele><time>2026-03-28T08:01:02.999Z</time></trkpt><trkpt lat="40.891970976855504" lon="9.577040993361193"><ele>2.0</ele><time>2026-03-28T08:01:03.999Z</time></trkpt><trkpt lat="40.89202112356429" lon="9.576824671606294"><ele>2.0</ele><time>2026-03-28T08:01:04.999Z</time></trkpt><trkpt lat="40.89206925040449" lon="9.576617062992115"><ele>2.0</ele><time>2026-03-28T08:01:05.999Z</time></trkpt><trkpt lat="40.89211803597861" lon="9.576406612738724"><ele>2.0</ele><time>2026-03-28T08:01:06.999Z</time></trkpt><trkpt lat="40.89216646641606" lon="9.576197694410748"><ele>2.0</ele><time>2026-03-28T08:01:07.999Z</time></trkpt><trkpt lat="40.89221338815835" lon="9.575995430146936"><ele>2.0</ele><time>2026-03-28T08:01:08.999Z</time></trkpt><trkpt lat="40.89224674017924" lon="9.575777400705336"><ele>2.333333333333333</ele><time>2026-03-28T08:01:09.999Z</time></trkpt><trkpt lat="40.89231106016599" lon="9.575575630976958"><ele>2.6666666666666665</ele><time>2026-03-28T08:01:10.999Z</time></trkpt><trkpt lat="40.892359520349345" lon="9.575367346830605"><ele>3.0</ele><time>2026-03-28T08:01:11.999Z</time></trkpt><trkpt lat="40.89240455502632" lon="9.575173785497164"><ele>3.0</ele><time>2026-03-28T08:01:12.999Z</time></trkpt><trkpt lat="40.892450189323874" lon="9.574977647037572"><ele>3.0</ele><time>2026-03-28T08:01:13.999Z</time></trkpt><trkpt lat="40.89249918532613" lon="9.574766668770371"><ele>3.0</ele><time>2026-03-28T08:01:14.999Z</time></trkpt><trkpt lat="40.89255551859941" lon="9.574523339469389"><ele>3.0</ele><time>2026-03-28T08:01:15.999Z</time></trkpt><trkpt lat="40.892606418097536" lon="9.57430348045164"><ele>3.0</ele><time>2026-03-28T08:01:16.999Z</time></trkpt><trkpt lat="40.89265723217298" lon="9.574083991386493"><ele>3.0</ele><time>2026-03-28T08:01:17.999Z</time></trkpt><trkpt lat="40.89270906888992" lon="9.573860083629134"><ele>2.3333333333333335</ele><time>2026-03-28T08:01:18.999Z</time></trkpt><trkpt lat="40.89276082549241" lon="9.573636423590056"><ele>1.6666666666666665</ele><time>2026-03-28T08:01:19.999Z</time></trkpt><trkpt lat="40.89281257681851" lon="9.57341225946536"><ele>1.0</ele><time>2026-03-28T08:01:20.999Z</time></trkpt><trkpt lat="40.892865503384435" lon="9.57318300506696"><ele>1.0</ele><time>2026-03-28T08:01:21.999Z</time></trkpt><trkpt lat="40.89291516534103" lon="9.572967891640646"><ele>1.0</ele><time>2026-03-28T08:01:22.999Z</time></trkpt><trkpt lat="40.89296454247351" lon="9.572754011806378"><ele>1.0</ele><time>2026-03-28T08:01:23.999Z</time></trkpt><trkpt lat="40.89301783507225" lon="9.572523171528486"><ele>0.3333333333333333</ele><time>2026-03-28T08:01:24.999Z</time></trkpt><trkpt lat="40.893072251407325" lon="9.57228746418696"><ele>-0.3333333333333333</ele><time>2026-03-28T08:01:25.999Z</time></trkpt><trkpt lat="40.89312137500181" lon="9.572074683137988"><ele>-1.0</ele><time>2026-03-28T08:01:26.999Z</time></trkpt><trkpt lat="40.89316898272156" lon="9.571868467211855"><ele>-1.25</ele><time>2026-03-28T08:01:27.999Z</time></trkpt><trkpt lat="40.8932151585616" lon="9.5716684542444"><ele>-1.5</ele><time>2026-03-28T08:01:28.999Z</time></trkpt><trkpt lat="40.89325833759427" lon="9.571481417039172"><ele>-1.75</ele><time>2026-03-28T08:01:29.999Z</time></trkpt><trkpt lat="40.8932953350539" lon="9.571318810806474"><ele>-2.0</ele><time>2026-03-28T08:01:30.999Z</time></trkpt><trkpt lat="40.89332603473505" lon="9.571184518690028"><ele>-1.5</ele><time>2026-03-28T08:01:31.999Z</time></trkpt><trkpt lat="40.89335195879456" lon="9.57107111758013"><ele>-1.0</ele><time>2026-03-28T08:01:32.999Z</time></trkpt><trkpt lat="40.893370872295684" lon="9.570988382894317"><ele>-0.5</ele><time>2026-03-28T08:01:33.999Z</time></trkpt><trkpt lat="40.893382461271734" lon="9.570859722349965"><ele>0.0</ele><time>2026-03-28T08:01:35.999Z</time></trkpt><trkpt lat="40.89317130531787" lon="9.57072396803182"><ele>0.0</ele><time>2026-03-28T08:01:36.999Z</time></trkpt><trkpt lat="40.89311140655493" lon="9.57062401162682"><ele>0.0</ele><time>2026-03-28T08:01:38.999Z</time></trkpt><trkpt lat="40.893076202048306" lon="9.570540850250708"><ele>0.0</ele><time>2026-03-28T08:01:41.999Z</time></trkpt><trkpt lat="40.8931588057577" lon="9.570528459446004"><ele>0.0</ele><time>2026-03-28T08:06:42Z</time></trkpt><trkpt lat="40.893237966234096" lon="9.570711312526857"><ele>0.0</ele><time>2026-03-28T08:06:47Z</time></trkpt><trkpt lat="40.893249404638745" lon="9.570825539875711"><ele>0.0</ele><time>2026-03-28T08:06:49Z</time></trkpt><trkpt lat="40.8933228727095" lon="9.570874013595503"><ele>0.0</ele><time>2026-03-28T08:06:52Z</time></trkpt><trkpt lat="40.8933877070551" lon="9.570819924102466"><ele>0.0</ele><time>2026-03-28T08:07:27.999Z</time></trkpt><trkpt lat="40.89342027682185" lon="9.570728307557285"><ele>0.0</ele><time>2026-03-28T08:07:28.999Z</time></trkpt><trkpt lat="40.89344466801444" lon="9.57060478458988"><ele>0.0</ele><time>2026-03-28T08:07:29.999Z</time></trkpt><trkpt lat="40.89348918911692" lon="9.570468736466676"><ele>0.0</ele><time>2026-03-28T08:07:30.999Z</time></trkpt><trkpt lat="40.893515027956894" lon="9.570278337969478"><ele>0.0</ele><time>2026-03-28T08:07:31.999Z</time></trkpt><trkpt lat="40.89358861625015" lon="9.570042705001756"><ele>0.0</ele><time>2026-03-28T08:07:32.999Z</time></trkpt><trkpt lat="40.89365796940554" lon="9.569748453264532"><ele>0.0</ele><time>2026-03-28T08:07:33.999Z</time></trkpt><trkpt lat="40.893728040846455" lon="9.569394085839903"><ele>1.0</ele><time>2026-03-28T08:07:34.999Z</time></trkpt><trkpt lat="40.89384052028085" lon="9.569062047501758"><ele>2.0</ele><time>2026-03-28T08:07:35.999Z</time></trkpt><trkpt lat="40.89380048551851" lon="9.569140729598503"><ele>3.0</ele><time>2026-03-28T08:07:36.999Z</time></trkpt><trkpt lat="40.893859298740395" lon="9.568955904993533"><ele>3.0</ele><time>2026-03-28T08:07:37.999Z</time></trkpt><trkpt lat="40.89392737143946" lon="9.568766008002436"><ele>3.0</ele><time>2026-03-28T08:07:38.999Z</time></trkpt><trkpt lat="40.89401632610124" lon="9.568581962631395"><ele>3.0</ele><time>2026-03-28T08:07:39.999Z</time></trkpt><trkpt lat="40.89407204447907" lon="9.568417805768975"><ele>3.0</ele><time>2026-03-28T08:07:40.999Z</time></trkpt><trkpt lat="40.894141129226846" lon="9.56827906048054"><ele>3.0</ele><time>2026-03-28T08:07:41.999Z</time></trkpt><trkpt lat="40.89420901557718" lon="9.568151236486653"><ele>3.0</ele><time>2026-03-28T08:07:42.999Z</time></trkpt><trkpt lat="40.894280702815834" lon="9.568030094475363"><ele>3.0</ele><time>2026-03-28T08:07:43.999Z</time></trkpt><trkpt lat="40.89435134840735" lon="9.567935505329139"><ele>3.0</ele><time>2026-03-28T08:07:44.999Z</time></trkpt><trkpt lat="40.89442566302255" lon="9.567857926743654"><ele>3.0</ele><time>2026-03-28T08:07:45.999Z</time></trkpt><trkpt lat="40.89450296173941" lon="9.567796793624552"><ele>3.0</ele><time>2026-03-28T08:07:46.999Z</time></trkpt><trkpt lat="40.894581561864236" lon="9.567770986448359"><ele>3.0</ele><time>2026-03-28T08:07:47.999Z</time></trkpt><trkpt lat="40.894677005154605" lon="9.567739111626233"><ele>3.0</ele><time>2026-03-28T08:07:48.999Z</time></trkpt><trkpt lat="40.894744556369204" lon="9.567683260619164"><ele>3.0</ele><time>2026-03-28T08:07:49.999Z</time></trkpt><trkpt lat="40.89478393169232" lon="9.567610135883578"><ele>3.0</ele><time>2026-03-28T08:07:50.999Z</time></trkpt><trkpt lat="40.89479581293621" lon="9.567518168654493"><ele>3.0</ele><time>2026-03-28T08:07:51.999Z</time></trkpt><trkpt lat="40.89478473564145" lon="9.567418530554274"><ele>3.0</ele><time>2026-03-28T08:07:52.999Z</time></trkpt><trkpt lat="40.89474438598209" lon="9.567347028802297"><ele>3.0</ele><time>2026-03-28T08:07:53.999Z</time></trkpt><trkpt lat="40.89467554850696" lon="9.567281482335497"><ele>3.0</ele><time>2026-03-28T08:07:54.999Z</time></trkpt><trkpt lat="40.89458771012194" lon="9.567245302878865"><ele>3.0</ele><time>2026-03-28T08:07:55.999Z</time></trkpt><trkpt lat="40.89448648231567" lon="9.567243526933693"><ele>3.0</ele><time>2026-03-28T08:07:56.999Z</time></trkpt><trkpt lat="40.89435920651093" lon="9.567248753026357"><ele>3.0</ele><time>2026-03-28T08:07:57.999Z</time></trkpt><trkpt lat="40.89423556841556" lon="9.567204503322651"><ele>3.0</ele><time>2026-03-28T08:07:58.999Z</time></trkpt><trkpt lat="40.8940997242598" lon="9.56705338459137"><ele>3.0</ele><time>2026-03-28T08:07:59.999Z</time></trkpt><trkpt lat="40.893948943238115" lon="9.566922733820766"><ele>3.666666666666667</ele><time>2026-03-28T08:08:00.999Z</time></trkpt><trkpt lat="40.89377289215569" lon="9.566770186581563"><ele>4.333333333333334</ele><time>2026-03-28T08:08:01.999Z</time></trkpt><trkpt lat="40.893584158461266" lon="9.566607735260543"><ele>5.0</ele><time>2026-03-28T08:08:02.999Z</time></trkpt><trkpt lat="40.89337937622138" lon="9.566458582911933"><ele>5.0</ele><time>2026-03-28T08:08:03.999Z</time></trkpt><trkpt lat="40.893168704803976" lon="9.566277058440926"><ele>5.0</ele><time>2026-03-28T08:08:04.999Z</time></trkpt><trkpt lat="40.892967515656466" lon="9.566081554820625"><ele>5.0</ele><time>2026-03-28T08:08:05.999Z</time></trkpt><trkpt lat="40.89274868088793" lon="9.565893962354151"><ele>5.0</ele><time>2026-03-28T08:08:06.999Z</time></trkpt><trkpt lat="40.89252077259091" lon="9.565698434319492"><ele>5.0</ele><time>2026-03-28T08:08:07.999Z</time></trkpt><trkpt lat="40.892275736367424" lon="9.565515749525511"><ele>5.0</ele><time>2026-03-28T08:08:08.999Z</time></trkpt><trkpt lat="40.89204744408291" lon="9.565316645962625"><ele>5.0</ele><time>2026-03-28T08:08:09.999Z</time></trkpt><trkpt lat="40.891821788130066" lon="9.565122701725185"><ele>5.0</ele><time>2026-03-28T08:08:10.999Z</time></trkpt><trkpt lat="40.89159412818914" lon="9.564933792758275"><ele>6.0</ele><time>2026-03-28T08:08:11.999Z</time></trkpt><trkpt lat="40.89137935795825" lon="9.564725018563324"><ele>7.0</ele><time>2026-03-28T08:08:13Z</time></trkpt><trkpt lat="40.89115402270832" lon="9.564554020456313"><ele>6.0</ele><time>2026-03-28T08:08:14Z</time></trkpt><trkpt lat="40.89095157285953" lon="9.564377460416049"><ele>5.0</ele><time>2026-03-28T08:08:15Z</time></trkpt><trkpt lat="40.890756432109924" lon="9.56421001997811"><ele>6.666666666666667</ele><time>2026-03-28T08:08:16Z</time></trkpt><trkpt lat="40.89057122959231" lon="9.564051362408449"><ele>8.333333333333334</ele><time>2026-03-28T08:08:17Z</time></trkpt><trkpt lat="40.890394445797114" lon="9.563900670118468"><ele>10.0</ele><time>2026-03-28T08:08:18Z</time></trkpt><trkpt lat="40.89022251667961" lon="9.563760849842408"><ele>9.666666666666668</ele><time>2026-03-28T08:08:19Z</time></trkpt><trkpt lat="40.89004205643342" lon="9.563630489904783"><ele>9.333333333333334</ele><time>2026-03-28T08:08:20Z</time></trkpt><trkpt lat="40.88983893358219" lon="9.563522124582333"><ele>9.0</ele><time>2026-03-28T08:08:21Z</time></trkpt><trkpt lat="40.889614246344365" lon="9.56343844361893"><ele>9.0</ele><time>2026-03-28T08:08:22Z</time></trkpt><trkpt lat="40.88937320532166" lon="9.56335532195524"><ele>9.0</ele><time>2026-03-28T08:08:23Z</time></trkpt><trkpt lat="40.88912673644756" lon="9.563265176600433"><ele>7.5</ele><time>2026-03-28T08:08:24Z</time></trkpt><trkpt lat="40.88887518400422" lon="9.563171219174938"><ele>6.0</ele><time>2026-03-28T08:08:25Z</time></trkpt><trkpt lat="40.88862106877259" lon="9.56307682930057"><ele>7.0</ele><time>2026-03-28T08:08:26Z</time></trkpt><trkpt lat="40.88836732338936" lon="9.56298260697845"><ele>8.0</ele><time>2026-03-28T08:08:27Z</time></trkpt><trkpt lat="40.88812842227261" lon="9.56289233680791"><ele>8.0</ele><time>2026-03-28T08:08:28Z</time></trkpt><trkpt lat="40.887906472743154" lon="9.562808262830949"><ele>8.0</ele><time>2026-03-28T08:08:29Z</time></trkpt><trkpt lat="40.88769460649433" lon="9.562730112070263"><ele>8.666666666666666</ele><time>2026-03-28T08:08:30Z</time></trkpt><trkpt lat="40.88749303393613" lon="9.562658667988376"><ele>9.333333333333334</ele><time>2026-03-28T08:08:31Z</time></trkpt><trkpt lat="40.88729496610007" lon="9.562587174539056"><ele>10.0</ele><time>2026-03-28T08:08:32Z</time></trkpt><trkpt lat="40.88709761912896" lon="9.562515274131764"><ele>10.0</ele><time>2026-03-28T08:08:33Z</time></trkpt><trkpt lat="40.88690173446283" lon="9.562438576873342"><ele>10.0</ele><time>2026-03-28T08:08:34Z</time></trkpt><trkpt lat="40.88670187532317" lon="9.56235742705172"><ele>10.0</ele><time>2026-03-28T08:08:35Z</time></trkpt><trkpt lat="40.88648501233757" lon="9.562268432925437"><ele>10.333333333333334</ele><time>2026-03-28T08:08:36Z</time></trkpt><trkpt lat="40.886286043708864" lon="9.56217636130252"><ele>10.666666666666666</ele><time>2026-03-28T08:08:37Z</time></trkpt><trkpt lat="40.88608847466549" lon="9.562064297002806"><ele>11.0</ele><time>2026-03-28T08:08:38Z</time></trkpt><trkpt lat="40.88587863652307" lon="9.561962222637206"><ele>11.0</ele><time>2026-03-28T08:08:39Z</time></trkpt><trkpt lat="40.88568016948043" lon="9.561786348889992"><ele>11.0</ele><time>2026-03-28T08:08:40Z</time></trkpt><trkpt lat="40.88546964268162" lon="9.561647550703148"><ele>11.0</ele><time>2026-03-28T08:08:41Z</time></trkpt><trkpt lat="40.8852574746476" lon="9.561509165790566"><ele>11.0</ele><time>2026-03-28T08:08:42Z</time></trkpt><trkpt lat="40.88504939390344" lon="9.561367882674189"><ele>11.333333333333332</ele><time>2026-03-28T08:08:43Z</time></trkpt><trkpt lat="40.88486515410162" lon="9.561243343804069"><ele>11.666666666666666</ele><time>2026-03-28T08:08:44Z</time></trkpt><trkpt lat="40.88466690955327" lon="9.561113941388877"><ele>12.0</ele><time>2026-03-28T08:08:45Z</time></trkpt><trkpt lat="40.88447352897551" lon="9.56098709846479"><ele>12.0</ele><time>2026-03-28T08:08:46Z</time></trkpt><trkpt lat="40.884296387883765" lon="9.560863847207706"><ele>12.0</ele><time>2026-03-28T08:08:47Z</time></trkpt><trkpt lat="40.884139147551224" lon="9.560754538811521"><ele>12.0</ele><time>2026-03-28T08:08:48Z</time></trkpt><trkpt lat="40.884000637506055" lon="9.560657598677514"><ele>12.399999999999999</ele><time>2026-03-28T08:08:49Z</time></trkpt><trkpt lat="40.883879268930045" lon="9.56057212171762"><ele>12.799999999999999</ele><time>2026-03-28T08:08:50Z</time></trkpt><trkpt lat="40.88378426765888" lon="9.560497891229618"><ele>13.2</ele><time>2026-03-28T08:08:51Z</time></trkpt><trkpt lat="40.88371973687313" lon="9.560418459629592"><ele>13.6</ele><time>2026-03-28T08:08:52Z</time></trkpt><trkpt lat="40.88367353501568" lon="9.560319669041288"><ele>14.0</ele><time>2026-03-28T08:08:53Z</time></trkpt><trkpt lat="40.88363162483583" lon="9.560199838184772"><ele>14.25</ele><time>2026-03-28T08:08:54Z</time></trkpt><trkpt lat="40.88356758602089" lon="9.560115251520607"><ele>14.5</ele><time>2026-03-28T08:08:55Z</time></trkpt><trkpt lat="40.8834677771535" lon="9.560064170375712"><ele>14.75</ele><time>2026-03-28T08:08:56Z</time></trkpt><trkpt lat="40.88334156978815" lon="9.560015472648004"><ele>15.0</ele><time>2026-03-28T08:08:57Z</time></trkpt><trkpt lat="40.88323066946844" lon="9.559918813794187"><ele>15.0</ele><time>2026-03-28T08:08:58Z</time></trkpt><trkpt lat="40.883134615307" lon="9.559772043146818"><ele>15.0</ele><time>2026-03-28T08:08:59Z</time></trkpt><trkpt lat="40.883049567813025" lon="9.55957912955994"><ele>15.0</ele><time>2026-03-28T08:09:00Z</time></trkpt><trkpt lat="40.882953839843466" lon="9.559367774656303"><ele>15.0</ele><time>2026-03-28T08:09:01Z</time></trkpt><trkpt lat="40.88284799812089" lon="9.559131555411412"><ele>15.0</ele><time>2026-03-28T08:09:02Z</time></trkpt><trkpt lat="40.88276224362356" lon="9.558927845616251"><ele>15.0</ele><time>2026-03-28T08:09:03Z</time></trkpt><trkpt lat="40.88267980097885" lon="9.558716284074846"><ele>16.0</ele><time>2026-03-28T08:09:04Z</time></trkpt><trkpt lat="40.8825913353645" lon="9.558489046398257"><ele>17.0</ele><time>2026-03-28T08:09:05Z</time></trkpt><trkpt lat="40.88249077294105" lon="9.558243554909499"><ele>18.0</ele><time>2026-03-28T08:09:06Z</time></trkpt><trkpt lat="40.88238409161888" lon="9.558026982289407"><ele>17.666666666666668</ele><time>2026-03-28T08:09:07Z</time></trkpt><trkpt lat="40.88225141121667" lon="9.55782917440535"><ele>17.333333333333336</ele><time>2026-03-28T08:09:08Z</time></trkpt><trkpt lat="40.88208609044928" lon="9.557614949376514"><ele>17.0</ele><time>2026-03-28T08:09:09Z</time></trkpt><trkpt lat="40.88191240793354" lon="9.557404140040848"><ele>17.0</ele><time>2026-03-28T08:09:10Z</time></trkpt><trkpt lat="40.881722910759585" lon="9.55716801633998"><ele>17.0</ele><time>2026-03-28T08:09:11Z</time></trkpt><trkpt lat="40.88153996693809" lon="9.556932582439364"><ele>17.0</ele><time>2026-03-28T08:09:12Z</time></trkpt><trkpt lat="40.88135838868224" lon="9.55669897215125"><ele>17.0</ele><time>2026-03-28T08:09:13Z</time></trkpt><trkpt lat="40.881174946089466" lon="9.556466382258003"><ele>17.0</ele><time>2026-03-28T08:09:14Z</time></trkpt><trkpt lat="40.880991735948975" lon="9.556232695759645"><ele>17.0</ele><time>2026-03-28T08:09:15Z</time></trkpt><trkpt lat="40.88081619516148" lon="9.556003400346684"><ele>19.5</ele><time>2026-03-28T08:09:16Z</time></trkpt><trkpt lat="40.8806389681955" lon="9.55576763158963"><ele>22.0</ele><time>2026-03-28T08:09:17Z</time></trkpt><trkpt lat="40.88045907333052" lon="9.555509387040885"><ele>20.5</ele><time>2026-03-28T08:09:18Z</time></trkpt><trkpt lat="40.88029711358882" lon="9.55525636629786"><ele>19.0</ele><time>2026-03-28T08:09:19Z</time></trkpt><trkpt lat="40.88015859846441" lon="9.555019564768271"><ele>19.333333333333332</ele><time>2026-03-28T08:09:20Z</time></trkpt><trkpt lat="40.88001724171867" lon="9.554783710818151"><ele>19.666666666666668</ele><time>2026-03-28T08:09:21Z</time></trkpt><trkpt lat="40.879878699135425" lon="9.554567251819678"><ele>20.0</ele><time>2026-03-28T08:09:22Z</time></trkpt><trkpt lat="40.87974893013883" lon="9.554381690409082"><ele>20.0</ele><time>2026-03-28T08:09:23Z</time></trkpt><trkpt lat="40.879626146792795" lon="9.554227506776883"><ele>20.0</ele><time>2026-03-28T08:09:24Z</time></trkpt><trkpt lat="40.87949355939575" lon="9.554103552214444"><ele>20.0</ele><time>2026-03-28T08:09:25Z</time></trkpt><trkpt lat="40.8793246095051" lon="9.553994294872814"><ele>20.0</ele><time>2026-03-28T08:09:26Z</time></trkpt><trkpt lat="40.87913229504134" lon="9.553877348104962"><ele>20.0</ele><time>2026-03-28T08:09:27Z</time></trkpt><trkpt lat="40.87893210030508" lon="9.55374871783341"><ele>20.0</ele><time>2026-03-28T08:09:28Z</time></trkpt><trkpt lat="40.87873507850409" lon="9.553629568916605"><ele>20.0</ele><time>2026-03-28T08:09:29Z</time></trkpt><trkpt lat="40.87852488077084" lon="9.553523669385978"><ele>20.0</ele><time>2026-03-28T08:09:30Z</time></trkpt><trkpt lat="40.87831028647674" lon="9.55344918483759"><ele>20.0</ele><time>2026-03-28T08:09:31Z</time></trkpt><trkpt lat="40.87808924006114" lon="9.553385620699105"><ele>20.0</ele><time>2026-03-28T08:09:32Z</time></trkpt><trkpt lat="40.8778556462998" lon="9.55330812254524"><ele>20.0</ele><time>2026-03-28T08:09:33Z</time></trkpt><trkpt lat="40.877621331496194" lon="9.553209838520363"><ele>19.5</ele><time>2026-03-28T08:09:34Z</time></trkpt><trkpt lat="40.87738780291553" lon="9.553108353010789"><ele>19.0</ele><time>2026-03-28T08:09:35Z</time></trkpt><trkpt lat="40.87715307298071" lon="9.55300979228082"><ele>19.0</ele><time>2026-03-28T08:09:36Z</time></trkpt><trkpt lat="40.87691859444452" lon="9.552914578621426"><ele>19.0</ele><time>2026-03-28T08:09:36.999Z</time></trkpt><trkpt lat="40.8766839982469" lon="9.552821630379135"><ele>19.0</ele><time>2026-03-28T08:09:37.999Z</time></trkpt><trkpt lat="40.87645011763438" lon="9.552728143314914"><ele>19.0</ele><time>2026-03-28T08:09:38.999Z</time></trkpt><trkpt lat="40.87621760887454" lon="9.55263383055483"><ele>19.0</ele><time>2026-03-28T08:09:39.999Z</time></trkpt><trkpt lat="40.87598740663816" lon="9.552541539407157"><ele>19.0</ele><time>2026-03-28T08:09:40.999Z</time></trkpt><trkpt lat="40.875758415805464" lon="9.552450067012673"><ele>20.5</ele><time>2026-03-28T08:09:41.999Z</time></trkpt><trkpt lat="40.8755308989321" lon="9.55235828795922"><ele>22.0</ele><time>2026-03-28T08:09:42.999Z</time></trkpt><trkpt lat="40.875306213237366" lon="9.552268401662085"><ele>22.0</ele><time>2026-03-28T08:09:43.999Z</time></trkpt><trkpt lat="40.875081523679086" lon="9.552179830447116"><ele>22.0</ele><time>2026-03-28T08:09:44.999Z</time></trkpt><trkpt lat="40.87486081190509" lon="9.552095667814497"><ele>20.5</ele><time>2026-03-28T08:09:45.999Z</time></trkpt><trkpt lat="40.874641026514965" lon="9.552012154538119"><ele>19.0</ele><time>2026-03-28T08:09:46.999Z</time></trkpt><trkpt lat="40.874419253328256" lon="9.55193120317374"><ele>19.5</ele><time>2026-03-28T08:09:47.999Z</time></trkpt><trkpt lat="40.874187240955905" lon="9.55185697112076"><ele>20.0</ele><time>2026-03-28T08:09:48.999Z</time></trkpt><trkpt lat="40.873960310706615" lon="9.551789087446345"><ele>20.0</ele><time>2026-03-28T08:09:49.999Z</time></trkpt><trkpt lat="40.87374172878023" lon="9.551726950243756"><ele>20.0</ele><time>2026-03-28T08:09:50.999Z</time></trkpt><trkpt lat="40.87352397515075" lon="9.551683361364363"><ele>20.0</ele><time>2026-03-28T08:09:51.999Z</time></trkpt><trkpt lat="40.87330108695258" lon="9.551673039564635"><ele>20.0</ele><time>2026-03-28T08:09:52.999Z</time></trkpt><trkpt lat="40.87307321266438" lon="9.551678974674688"><ele>20.0</ele><time>2026-03-28T08:09:53.999Z</time></trkpt><trkpt lat="40.872843484617476" lon="9.55169348192885"><ele>20.0</ele><time>2026-03-28T08:09:54.999Z</time></trkpt><trkpt lat="40.872613645807505" lon="9.551704537522978"><ele>20.0</ele><time>2026-03-28T08:09:55.999Z</time></trkpt><trkpt lat="40.872383340586104" lon="9.551712576274527"><ele>20.5</ele><time>2026-03-28T08:09:56.999Z</time></trkpt><trkpt lat="40.87215482639612" lon="9.551722303258448"><ele>21.0</ele><time>2026-03-28T08:09:57.999Z</time></trkpt><trkpt lat="40.87191606689915" lon="9.551730912461492"><ele>20.5</ele><time>2026-03-28T08:09:58.999Z</time></trkpt><trkpt lat="40.87166393757666" lon="9.551731393506683"><ele>20.0</ele><time>2026-03-28T08:09:59.999Z</time></trkpt><trkpt lat="40.87141708516292" lon="9.551716606381591"><ele>20.0</ele><time>2026-03-28T08:10:00.999Z</time></trkpt><trkpt lat="40.87117100454916" lon="9.551684421724667"><ele>20.0</ele><time>2026-03-28T08:10:01.999Z</time></trkpt><trkpt lat="40.87092488637578" lon="9.55164847163363"><ele>22.0</ele><time>2026-03-28T08:10:02.999Z</time></trkpt><trkpt lat="40.8706880718488" lon="9.551607932497095"><ele>24.0</ele><time>2026-03-28T08:10:03.999Z</time></trkpt><trkpt lat="40.870455767564565" lon="9.551558874559401"><ele>24.0</ele><time>2026-03-28T08:10:04.999Z</time></trkpt><trkpt lat="40.87023030270377" lon="9.551499116203768"><ele>24.0</ele><time>2026-03-28T08:10:05.999Z</time></trkpt><trkpt lat="40.87000834864471" lon="9.551429260536692"><ele>24.5</ele><time>2026-03-28T08:10:06.999Z</time></trkpt><trkpt lat="40.869772460384034" lon="9.551344266862692"><ele>25.0</ele><time>2026-03-28T08:10:07.999Z</time></trkpt><trkpt lat="40.86953248175428" lon="9.551251027577814"><ele>25.0</ele><time>2026-03-28T08:10:08.999Z</time></trkpt><trkpt lat="40.86930697224202" lon="9.551159596079225"><ele>25.0</ele><time>2026-03-28T08:10:09.999Z</time></trkpt><trkpt lat="40.8690958965786" lon="9.551069960796447"><ele>25.0</ele><time>2026-03-28T08:10:10.999Z</time></trkpt><trkpt lat="40.86888755165122" lon="9.550971563553682"><ele>25.0</ele><time>2026-03-28T08:10:11.999Z</time></trkpt><trkpt lat="40.868680366527364" lon="9.550856818288668"><ele>25.0</ele><time>2026-03-28T08:10:12.999Z</time></trkpt><trkpt lat="40.86847442685307" lon="9.550715719028393"><ele>24.5</ele><time>2026-03-28T08:10:13.999Z</time></trkpt><trkpt lat="40.868266329057185" lon="9.550566806155215"><ele>24.0</ele><time>2026-03-28T08:10:14.999Z</time></trkpt><trkpt lat="40.86805431283815" lon="9.550419124871352"><ele>23.0</ele><time>2026-03-28T08:10:15.999Z</time></trkpt><trkpt lat="40.867839993858865" lon="9.550276819986774"><ele>22.0</ele><time>2026-03-28T08:10:16.999Z</time></trkpt><trkpt lat="40.86762261222162" lon="9.550139509064962"><ele>22.0</ele><time>2026-03-28T08:10:17.999Z</time></trkpt><trkpt lat="40.86740122953324" lon="9.550005859570186"><ele>22.0</ele><time>2026-03-28T08:10:19Z</time></trkpt><trkpt lat="40.867180773479134" lon="9.5498756116902"><ele>22.0</ele><time>2026-03-28T08:10:20Z</time></trkpt><trkpt lat="40.866970363611465" lon="9.549756440137232"><ele>22.0</ele><time>2026-03-28T08:10:21Z</time></trkpt><trkpt lat="40.866763320591865" lon="9.549653626260366"><ele>22.0</ele><time>2026-03-28T08:10:22Z</time></trkpt><trkpt lat="40.86654233596303" lon="9.549560822022798"><ele>22.0</ele><time>2026-03-28T08:10:23Z</time></trkpt><trkpt lat="40.866310621076764" lon="9.549473250788424"><ele>22.0</ele><time>2026-03-28T08:10:24Z</time></trkpt><trkpt lat="40.86607384002517" lon="9.549397699375776"><ele>22.0</ele><time>2026-03-28T08:10:25Z</time></trkpt><trkpt lat="40.86583557502758" lon="9.549322480526266"><ele>22.0</ele><time>2026-03-28T08:10:26Z</time></trkpt><trkpt lat="40.865599466719516" lon="9.549246765696193"><ele>22.0</ele><time>2026-03-28T08:10:27Z</time></trkpt><trkpt lat="40.865382516039006" lon="9.549181450194963"><ele>22.0</ele><time>2026-03-28T08:10:28Z</time></trkpt><trkpt lat="40.865165462643255" lon="9.549127838274309"><ele>22.0</ele><time>2026-03-28T08:10:29Z</time></trkpt><trkpt lat="40.864935671416326" lon="9.549085115777022"><ele>21.0</ele><time>2026-03-28T08:10:30Z</time></trkpt><trkpt lat="40.864689224533095" lon="9.549053775817733"><ele>20.0</ele><time>2026-03-28T08:10:31Z</time></trkpt><trkpt lat="40.86444378305416" lon="9.549029089681191"><ele>20.333333333333336</ele><time>2026-03-28T08:10:32Z</time></trkpt><trkpt lat="40.86421924155983" lon="9.549004307552448"><ele>20.666666666666668</ele><time>2026-03-28T08:10:33Z</time></trkpt><trkpt lat="40.86400700999785" lon="9.548984081934805"><ele>21.0</ele><time>2026-03-28T08:10:34Z</time></trkpt><trkpt lat="40.86379308943089" lon="9.548961277384585"><ele>21.0</ele><time>2026-03-28T08:10:35Z</time></trkpt><trkpt lat="40.86357940361724" lon="9.548935082861965"><ele>21.0</ele><time>2026-03-28T08:10:36Z</time></trkpt><trkpt lat="40.86335120274896" lon="9.548909146783727"><ele>21.0</ele><time>2026-03-28T08:10:37Z</time></trkpt><trkpt lat="40.86313541293616" lon="9.54888845602367"><ele>20.666666666666668</ele><time>2026-03-28T08:10:38Z</time></trkpt><trkpt lat="40.862956370723005" lon="9.548876904455113"><ele>20.333333333333336</ele><time>2026-03-28T08:10:39Z</time></trkpt><trkpt lat="40.862720935716645" lon="9.548850061363114"><ele>20.0</ele><time>2026-03-28T08:10:40Z</time></trkpt><trkpt lat="40.86252000430792" lon="9.548827146371751"><ele>19.666666666666668</ele><time>2026-03-28T08:10:41Z</time></trkpt><trkpt lat="40.86232803638648" lon="9.548801182518396"><ele>19.333333333333332</ele><time>2026-03-28T08:10:42Z</time></trkpt><trkpt lat="40.862149703171895" lon="9.548764783764547"><ele>19.0</ele><time>2026-03-28T08:10:43Z</time></trkpt><trkpt lat="40.861980927007174" lon="9.548717578998959"><ele>18.333333333333332</ele><time>2026-03-28T08:10:44Z</time></trkpt><trkpt lat="40.86182517797834" lon="9.548658682336482"><ele>17.666666666666668</ele><time>2026-03-28T08:10:45Z</time></trkpt><trkpt lat="40.861678410715946" lon="9.548585147399152"><ele>17.0</ele><time>2026-03-28T08:10:46Z</time></trkpt><trkpt lat="40.86155071638014" lon="9.54850413239818"><ele>16.6</ele><time>2026-03-28T08:10:47Z</time></trkpt><trkpt lat="40.86144294303636" lon="9.548425647925164"><ele>16.2</ele><time>2026-03-28T08:10:48Z</time></trkpt><trkpt lat="40.861343531686046" lon="9.54836789286472"><ele>15.8</ele><time>2026-03-28T08:10:49Z</time></trkpt><trkpt lat="40.86124638606136" lon="9.548330427738517"><ele>15.4</ele><time>2026-03-28T08:10:50Z</time></trkpt><trkpt lat="40.86118098511452" lon="9.548317072007928"><ele>15.0</ele><time>2026-03-28T08:10:51Z</time></trkpt><trkpt lat="40.861087239061796" lon="9.548285143973052"><ele>15.0</ele><time>2026-03-28T08:10:53Z</time></trkpt><trkpt lat="40.86100774507296" lon="9.548191132002142"><ele>15.0</ele><time>2026-03-28T08:11:17Z</time></trkpt><trkpt lat="40.86098418296612" lon="9.548097279223718"><ele>15.0</ele><time>2026-03-28T08:11:18Z</time></trkpt><trkpt lat="40.86097619943884" lon="9.548009656181206"><ele>15.0</ele><time>2026-03-28T08:11:19Z</time></trkpt><trkpt lat="40.8609898324571" lon="9.54788158044611"><ele>15.0</ele><time>2026-03-28T08:11:21Z</time></trkpt><trkpt lat="40.86105178428219" lon="9.547807392948306"><ele>15.0</ele><time>2026-03-28T08:11:23Z</time></trkpt><trkpt lat="40.8611145689794" lon="9.54777127256823"><ele>15.0</ele><time>2026-03-28T08:11:24Z</time></trkpt><trkpt lat="40.8612133035026" lon="9.547734496642807"><ele>15.0</ele><time>2026-03-28T08:11:25Z</time></trkpt><trkpt lat="40.861326739725534" lon="9.547701412425722"><ele>15.0</ele><time>2026-03-28T08:11:26Z</time></trkpt><trkpt lat="40.8614172878549" lon="9.547670198079937"><ele>15.0</ele><time>2026-03-28T08:11:27Z</time></trkpt><trkpt lat="40.86149106695139" lon="9.547643331929004"><ele>15.0</ele><time>2026-03-28T08:11:28Z</time></trkpt><trkpt lat="40.86159078616008" lon="9.54757052456878"><ele>15.0</ele><time>2026-03-28T08:11:29.999Z</time></trkpt><trkpt lat="40.86164034978911" lon="9.547449930815645"><ele>15.0</ele><time>2026-03-28T08:11:31.999Z</time></trkpt><trkpt lat="40.86162878254025" lon="9.547276958566071"><ele>15.0</ele><time>2026-03-28T08:11:33.999Z</time></trkpt><trkpt lat="40.86159045433354" lon="9.547170078284461"><ele>15.0</ele><time>2026-03-28T08:11:34.999Z</time></trkpt><trkpt lat="40.86153969237106" lon="9.54701210057686"><ele>14.75</ele><time>2026-03-28T08:11:35.999Z</time></trkpt><trkpt lat="40.86147938719212" lon="9.546822685846875"><ele>14.5</ele><time>2026-03-28T08:11:36.999Z</time></trkpt><trkpt lat="40.86143107291473" lon="9.546665077270692"><ele>14.25</ele><time>2026-03-28T08:11:37.999Z</time></trkpt><trkpt lat="40.861395073742756" lon="9.546538810562861"><ele>14.0</ele><time>2026-03-28T08:11:38.999Z</time></trkpt><trkpt lat="40.86135944318682" lon="9.546430488374083"><ele>14.0</ele><time>2026-03-28T08:11:39.999Z</time></trkpt><trkpt lat="40.86132564060185" lon="9.54631684492547"><ele>13.999999999999998</ele><time>2026-03-28T08:11:40.999Z</time></trkpt><trkpt lat="40.86130973263497" lon="9.546231169292772"><ele>13.999999999999998</ele><time>2026-03-28T08:11:41.999Z</time></trkpt><trkpt lat="40.86132773923465" lon="9.546059845539748"><ele>14.0</ele><time>2026-03-28T08:11:43.999Z</time></trkpt><trkpt lat="40.86137894766901" lon="9.545951502343792"><ele>14.0</ele><time>2026-03-28T08:11:44.999Z</time></trkpt><trkpt lat="40.86145900971661" lon="9.54587669622132"><ele>14.5</ele><time>2026-03-28T08:11:45.999Z</time></trkpt><trkpt lat="40.86154887890722" lon="9.545767589852415"><ele>15.0</ele><time>2026-03-28T08:11:46.999Z</time></trkpt><trkpt lat="40.86163682438743" lon="9.54563896333128"><ele>15.5</ele><time>2026-03-28T08:11:47.999Z</time></trkpt><trkpt lat="40.86174129041897" lon="9.545512912793619"><ele>16.0</ele><time>2026-03-28T08:11:48.999Z</time></trkpt><trkpt lat="40.861864521864426" lon="9.545363009909234"><ele>16.666666666666664</ele><time>2026-03-28T08:11:49.999Z</time></trkpt><trkpt lat="40.8619865469407" lon="9.545210836162711"><ele>17.333333333333332</ele><time>2026-03-28T08:11:50.999Z</time></trkpt><trkpt lat="40.86209363863145" lon="9.545073877206987"><ele>18.0</ele><time>2026-03-28T08:11:51.999Z</time></trkpt><trkpt lat="40.86222283505612" lon="9.54490549342173"><ele>18.0</ele><time>2026-03-28T08:11:52.999Z</time></trkpt><trkpt lat="40.86232270369725" lon="9.54478234950101"><ele>18.0</ele><time>2026-03-28T08:11:53.999Z</time></trkpt><trkpt lat="40.86241944511195" lon="9.544671054086002"><ele>18.0</ele><time>2026-03-28T08:11:54.999Z</time></trkpt><trkpt lat="40.86248873218305" lon="9.5445894190652"><ele>18.0</ele><time>2026-03-28T08:11:55.999Z</time></trkpt><trkpt lat="40.86255156512639" lon="9.544524799183307"><ele>18.0</ele><time>2026-03-28T08:11:56.999Z</time></trkpt><trkpt lat="40.862607652745666" lon="9.544455764209923"><ele>17.8</ele><time>2026-03-28T08:11:57.999Z</time></trkpt><trkpt lat="40.8626428760282" lon="9.544377560971963"><ele>17.6</ele><time>2026-03-28T08:11:58.999Z</time></trkpt><trkpt lat="40.86268304606516" lon="9.544238715639077"><ele>17.4</ele><time>2026-03-28T08:11:59.999Z</time></trkpt><trkpt lat="40.8627302705257" lon="9.544077148994276"><ele>17.2</ele><time>2026-03-28T08:12:00.999Z</time></trkpt><trkpt lat="40.86278430444538" lon="9.543952821479559"><ele>17.0</ele><time>2026-03-28T08:12:01.999Z</time></trkpt><trkpt lat="40.8628742055881" lon="9.5438285956726"><ele>17.0</ele><time>2026-03-28T08:12:02.999Z</time></trkpt><trkpt lat="40.862992126013225" lon="9.54370363169046"><ele>17.0</ele><time>2026-03-28T08:12:03.999Z</time></trkpt><trkpt lat="40.863054996889595" lon="9.543535980831374"><ele>17.0</ele><time>2026-03-28T08:12:04.999Z</time></trkpt><trkpt lat="40.86311835780161" lon="9.543362742714624"><ele>17.0</ele><time>2026-03-28T08:12:05.999Z</time></trkpt><trkpt lat="40.863182351243395" lon="9.543164044150185"><ele>17.0</ele><time>2026-03-28T08:12:06.999Z</time></trkpt><trkpt lat="40.86324902144913" lon="9.542983000647522"><ele>17.0</ele><time>2026-03-28T08:12:07.999Z</time></trkpt><trkpt lat="40.8633291526441" lon="9.54279777007088"><ele>17.0</ele><time>2026-03-28T08:12:08.999Z</time></trkpt><trkpt lat="40.86343230497831" lon="9.542594724931233"><ele>16.0</ele><time>2026-03-28T08:12:09.999Z</time></trkpt><trkpt lat="40.863540258919265" lon="9.542412442121872"><ele>15.0</ele><time>2026-03-28T08:12:10.999Z</time></trkpt><trkpt lat="40.86365676872772" lon="9.542238079718341"><ele>14.0</ele><time>2026-03-28T08:12:11.999Z</time></trkpt><trkpt lat="40.863764720778285" lon="9.542076695889874"><ele>14.25</ele><time>2026-03-28T08:12:12.999Z</time></trkpt><trkpt lat="40.86385235092288" lon="9.541928318669637"><ele>14.5</ele><time>2026-03-28T08:12:13.999Z</time></trkpt><trkpt lat="40.863930749041344" lon="9.541794306224652"><ele>14.75</ele><time>2026-03-28T08:12:14.999Z</time></trkpt><trkpt lat="40.86399634255532" lon="9.541689651954195"><ele>15.0</ele><time>2026-03-28T08:12:15.999Z</time></trkpt><trkpt lat="40.86404034477781" lon="9.541590707935658"><ele>15.0</ele><time>2026-03-28T08:12:16.999Z</time></trkpt><trkpt lat="40.86408295594783" lon="9.541459373120025"><ele>15.0</ele><time>2026-03-28T08:12:17.999Z</time></trkpt><trkpt lat="40.86413408614137" lon="9.541305984030354"><ele>15.0</ele><time>2026-03-28T08:12:18.999Z</time></trkpt><trkpt lat="40.86418214856753" lon="9.541183607328836"><ele>15.0</ele><time>2026-03-28T08:12:19.999Z</time></trkpt><trkpt lat="40.86425217228036" lon="9.541057716387634"><ele>14.666666666666668</ele><time>2026-03-28T08:12:20.999Z</time></trkpt><trkpt lat="40.864349083855984" lon="9.540913608952883"><ele>14.333333333333334</ele><time>2026-03-28T08:12:21.999Z</time></trkpt><trkpt lat="40.864481980317755" lon="9.540730819554653"><ele>14.0</ele><time>2026-03-28T08:12:22.999Z</time></trkpt><trkpt lat="40.86461125670626" lon="9.540544027672384"><ele>14.0</ele><time>2026-03-28T08:12:23.999Z</time></trkpt><trkpt lat="40.86470887664759" lon="9.540386366749384"><ele>14.0</ele><time>2026-03-28T08:12:25Z</time></trkpt><trkpt lat="40.864833922996034" lon="9.540232307921084"><ele>14.0</ele><time>2026-03-28T08:12:26Z</time></trkpt><trkpt lat="40.864930494236084" lon="9.540097159341686"><ele>14.399999999999999</ele><time>2026-03-28T08:12:27Z</time></trkpt><trkpt lat="40.86502015465727" lon="9.5399808710873"><ele>14.799999999999999</ele><time>2026-03-28T08:12:28Z</time></trkpt><trkpt lat="40.86508820413883" lon="9.53987536946426"><ele>15.200000000000001</ele><time>2026-03-28T08:12:29Z</time></trkpt><trkpt lat="40.865140569098855" lon="9.539774069932122"><ele>15.600000000000001</ele><time>2026-03-28T08:12:30Z</time></trkpt><trkpt lat="40.8651755902362" lon="9.53963690535425"><ele>16.0</ele><time>2026-03-28T08:12:31Z</time></trkpt><trkpt lat="40.865208998600515" lon="9.539489082649597"><ele>16.400000000000002</ele><time>2026-03-28T08:12:32Z</time></trkpt><trkpt lat="40.865248367116" lon="9.53936948609187"><ele>16.8</ele><time>2026-03-28T08:12:33Z</time></trkpt><trkpt lat="40.86530032907475" lon="9.539275015501007"><ele>17.200000000000003</ele><time>2026-03-28T08:12:34Z</time></trkpt><trkpt lat="40.86538825014145" lon="9.539188302101554"><ele>17.6</ele><time>2026-03-28T08:12:35Z</time></trkpt><trkpt lat="40.865515025453554" lon="9.539094858556917"><ele>18.0</ele><time>2026-03-28T08:12:36Z</time></trkpt><trkpt lat="40.86567177759634" lon="9.538993545303612"><ele>18.0</ele><time>2026-03-28T08:12:37Z</time></trkpt><trkpt lat="40.865854151855174" lon="9.53894394193215"><ele>18.0</ele><time>2026-03-28T08:12:38Z</time></trkpt><trkpt lat="40.86600909849573" lon="9.538838506740898"><ele>18.0</ele><time>2026-03-28T08:12:39Z</time></trkpt><trkpt lat="40.8661469291309" lon="9.538755436271533"><ele>18.0</ele><time>2026-03-28T08:12:40Z</time></trkpt><trkpt lat="40.86629206361706" lon="9.538656175805777"><ele>18.0</ele><time>2026-03-28T08:12:41Z</time></trkpt><trkpt lat="40.86644799778785" lon="9.538568353418095"><ele>18.0</ele><time>2026-03-28T08:12:42Z</time></trkpt><trkpt lat="40.866617747702435" lon="9.538487496849143"><ele>18.333333333333332</ele><time>2026-03-28T08:12:43Z</time></trkpt><trkpt lat="40.86678347531408" lon="9.538398915618538"><ele>18.666666666666664</ele><time>2026-03-28T08:12:44Z</time></trkpt><trkpt lat="40.86693011051686" lon="9.538323383212028"><ele>19.0</ele><time>2026-03-28T08:12:45Z</time></trkpt><trkpt lat="40.86706261236683" lon="9.538250060101648"><ele>19.0</ele><time>2026-03-28T08:12:46Z</time></trkpt><trkpt lat="40.86719096484792" lon="9.538191978840718"><ele>19.0</ele><time>2026-03-28T08:12:47Z</time></trkpt><trkpt lat="40.86732412819579" lon="9.538130020073854"><ele>19.0</ele><time>2026-03-28T08:12:48Z</time></trkpt><trkpt lat="40.86748013079525" lon="9.538051211534565"><ele>19.0</ele><time>2026-03-28T08:12:49Z</time></trkpt><trkpt lat="40.86763421596685" lon="9.537960897065478"><ele>18.5</ele><time>2026-03-28T08:12:50Z</time></trkpt><trkpt lat="40.8677659934092" lon="9.537884601490841"><ele>18.0</ele><time>2026-03-28T08:12:51Z</time></trkpt><trkpt lat="40.86788025833496" lon="9.537816542658975"><ele>17.5</ele><time>2026-03-28T08:12:52Z</time></trkpt><trkpt lat="40.86799277883081" lon="9.53773301550931"><ele>17.0</ele><time>2026-03-28T08:12:53Z</time></trkpt><trkpt lat="40.86812573115614" lon="9.537608033785395"><ele>17.0</ele><time>2026-03-28T08:12:54Z</time></trkpt><trkpt lat="40.86827673499584" lon="9.53746140338786"><ele>17.0</ele><time>2026-03-28T08:12:55Z</time></trkpt><trkpt lat="40.86840548558659" lon="9.537349791418176"><ele>17.0</ele><time>2026-03-28T08:12:56Z</time></trkpt><trkpt lat="40.868522606260946" lon="9.53724466515035"><ele>17.25</ele><time>2026-03-28T08:12:57Z</time></trkpt><trkpt lat="40.86861940065556" lon="9.537151199766278"><ele>17.5</ele><time>2026-03-28T08:12:58Z</time></trkpt><trkpt lat="40.868700632271626" lon="9.537056039706535"><ele>17.75</ele><time>2026-03-28T08:12:59Z</time></trkpt><trkpt lat="40.86877692857161" lon="9.536940743613604"><ele>18.0</ele><time>2026-03-28T08:13:00Z</time></trkpt><trkpt lat="40.86885696608552" lon="9.536800187565124"><ele>18.25</ele><time>2026-03-28T08:13:01Z</time></trkpt><trkpt lat="40.868985694444746" lon="9.536625428022221"><ele>18.5</ele><time>2026-03-28T08:13:02Z</time></trkpt><trkpt lat="40.86906524428947" lon="9.536473139809797"><ele>18.75</ele><time>2026-03-28T08:13:03Z</time></trkpt><trkpt lat="40.86914031158178" lon="9.536365596734449"><ele>19.0</ele><time>2026-03-28T08:13:04Z</time></trkpt><trkpt lat="40.86919973994281" lon="9.536281560002667"><ele>19.0</ele><time>2026-03-28T08:13:05Z</time></trkpt><trkpt lat="40.86927123057225" lon="9.536258448217474"><ele>19.0</ele><time>2026-03-28T08:13:06Z</time></trkpt><trkpt lat="40.86932929624899" lon="9.536144191381823"><ele>19.0</ele><time>2026-03-28T08:13:08Z</time></trkpt><trkpt lat="40.86931001465021" lon="9.535997158656306"><ele>19.0</ele><time>2026-03-28T08:13:10Z</time></trkpt><trkpt lat="40.8692878593386" lon="9.535870017552945"><ele>19.0</ele><time>2026-03-28T08:13:11Z</time></trkpt><trkpt lat="40.8692489203271" lon="9.535703838479057"><ele>18.75</ele><time>2026-03-28T08:13:12Z</time></trkpt><trkpt lat="40.86922892052128" lon="9.53559475424064"><ele>18.5</ele><time>2026-03-28T08:13:13Z</time></trkpt><trkpt lat="40.86925906328916" lon="9.535481263344945"><ele>18.25</ele><time>2026-03-28T08:13:15Z</time></trkpt><trkpt lat="40.86938461286068" lon="9.535321984839257"><ele>18.0</ele><time>2026-03-28T08:13:17Z</time></trkpt><trkpt lat="40.86947516233183" lon="9.535186179153865"><ele>18.0</ele><time>2026-03-28T08:13:18Z</time></trkpt><trkpt lat="40.86958671337261" lon="9.535018875139647"><ele>18.0</ele><time>2026-03-28T08:13:19Z</time></trkpt><trkpt lat="40.86970396362422" lon="9.534841884433614"><ele>18.0</ele><time>2026-03-28T08:13:20Z</time></trkpt><trkpt lat="40.86977442477963" lon="9.534681300256677"><ele>18.0</ele><time>2026-03-28T08:13:21Z</time></trkpt><trkpt lat="40.86985156044125" lon="9.534562882887021"><ele>18.0</ele><time>2026-03-28T08:13:22Z</time></trkpt><trkpt lat="40.86991031129954" lon="9.534488058144198"><ele>18.0</ele><time>2026-03-28T08:13:23Z</time></trkpt><trkpt lat="40.8700356442528" lon="9.534483073415249"><ele>18.0</ele><time>2026-03-28T08:13:25Z</time></trkpt><trkpt lat="40.870141178328666" lon="9.53448292414155"><ele>18.0</ele><time>2026-03-28T08:13:26Z</time></trkpt><trkpt lat="40.87029475126438" lon="9.534475273784588"><ele>18.0</ele><time>2026-03-28T08:13:27Z</time></trkpt><trkpt lat="40.87045509243078" lon="9.534477063019459"><ele>18.0</ele><time>2026-03-28T08:13:28Z</time></trkpt><trkpt lat="40.870602423324556" lon="9.534463847189425"><ele>18.0</ele><time>2026-03-28T08:13:29Z</time></trkpt><trkpt lat="40.87072939811723" lon="9.53445793094596"><ele>18.0</ele><time>2026-03-28T08:13:30Z</time></trkpt><trkpt lat="40.87085150557865" lon="9.534453385405046"><ele>18.0</ele><time>2026-03-28T08:13:31Z</time></trkpt><trkpt lat="40.870957390542515" lon="9.534444965767065"><ele>18.0</ele><time>2026-03-28T08:13:32Z</time></trkpt><trkpt lat="40.87106309413602" lon="9.534435454812808"><ele>18.0</ele><time>2026-03-28T08:13:33Z</time></trkpt><trkpt lat="40.87119933668881" lon="9.534420477390535"><ele>18.0</ele><time>2026-03-28T08:13:34Z</time></trkpt><trkpt lat="40.87132320477035" lon="9.534420047776047"><ele>18.0</ele><time>2026-03-28T08:13:35Z</time></trkpt><trkpt lat="40.871426817375344" lon="9.534438837284442"><ele>18.0</ele><time>2026-03-28T08:13:36Z</time></trkpt><trkpt lat="40.871525787331485" lon="9.534478595500723"><ele>18.0</ele><time>2026-03-28T08:13:37Z</time></trkpt><trkpt lat="40.8716265643821" lon="9.534522290776778"><ele>18.0</ele><time>2026-03-28T08:13:38Z</time></trkpt><trkpt lat="40.87173524521035" lon="9.534580458228389"><ele>18.0</ele><time>2026-03-28T08:13:39Z</time></trkpt><trkpt lat="40.87187066119515" lon="9.534655124494423"><ele>18.0</ele><time>2026-03-28T08:13:40Z</time></trkpt><trkpt lat="40.872016550749095" lon="9.534737567541521"><ele>18.0</ele><time>2026-03-28T08:13:41Z</time></trkpt><trkpt lat="40.87214842984804" lon="9.53481136641237"><ele>18.0</ele><time>2026-03-28T08:13:42Z</time></trkpt><trkpt lat="40.87227482506246" lon="9.534883858870892"><ele>18.0</ele><time>2026-03-28T08:13:43Z</time></trkpt><trkpt lat="40.872388319033924" lon="9.53494741889651"><ele>18.0</ele><time>2026-03-28T08:13:44Z</time></trkpt><trkpt lat="40.87250596242642" lon="9.535017858310141"><ele>18.0</ele><time>2026-03-28T08:13:45Z</time></trkpt><trkpt lat="40.87261917961126" lon="9.535080874675678"><ele>18.0</ele><time>2026-03-28T08:13:46Z</time></trkpt><trkpt lat="40.87272183374467" lon="9.535145357236754"><ele>18.0</ele><time>2026-03-28T08:13:47Z</time></trkpt><trkpt lat="40.8728110834677" lon="9.535202439144818"><ele>18.166666666666668</ele><time>2026-03-28T08:13:48Z</time></trkpt><trkpt lat="40.87289825143781" lon="9.535255902970968"><ele>18.333333333333332</ele><time>2026-03-28T08:13:48.999Z</time></trkpt><trkpt lat="40.872972323730025" lon="9.535299708398604"><ele>18.5</ele><time>2026-03-28T08:13:49.999Z</time></trkpt><trkpt lat="40.87303400448324" lon="9.535321959749677"><ele>18.666666666666664</ele><time>2026-03-28T08:13:50.999Z</time></trkpt><trkpt lat="40.87309952010847" lon="9.535322838247511"><ele>18.833333333333332</ele><time>2026-03-28T08:13:51.999Z</time></trkpt><trkpt lat="40.87318158463543" lon="9.535289218921132"><ele>19.0</ele><time>2026-03-28T08:13:52.999Z</time></trkpt><trkpt lat="40.873281557970955" lon="9.535233098954862"><ele>19.0</ele><time>2026-03-28T08:13:53.999Z</time></trkpt><trkpt lat="40.8733895126464" lon="9.535205267028408"><ele>19.0</ele><time>2026-03-28T08:13:54.999Z</time></trkpt><trkpt lat="40.87349990052349" lon="9.535176780400022"><ele>19.0</ele><time>2026-03-28T08:13:55.999Z</time></trkpt><trkpt lat="40.873635083695824" lon="9.535145715325804"><ele>19.0</ele><time>2026-03-28T08:13:56.999Z</time></trkpt><trkpt lat="40.87378167492089" lon="9.535157204876512"><ele>19.0</ele><time>2026-03-28T08:13:57.999Z</time></trkpt><trkpt lat="40.87393017047207" lon="9.535168984319586"><ele>19.0</ele><time>2026-03-28T08:13:58.999Z</time></trkpt><trkpt lat="40.87405429047825" lon="9.535180457848996"><ele>19.0</ele><time>2026-03-28T08:13:59.999Z</time></trkpt><trkpt lat="40.87416512760259" lon="9.535212490895425"><ele>19.0</ele><time>2026-03-28T08:14:00.999Z</time></trkpt><trkpt lat="40.87428716622911" lon="9.53520395432575"><ele>19.0</ele><time>2026-03-28T08:14:01.999Z</time></trkpt><trkpt lat="40.87441977288599" lon="9.53521742616749"><ele>19.0</ele><time>2026-03-28T08:14:02.999Z</time></trkpt><trkpt lat="40.87454102470378" lon="9.535230946052163"><ele>19.0</ele><time>2026-03-28T08:14:03.999Z</time></trkpt><trkpt lat="40.874642220197735" lon="9.535254282365207"><ele>19.0</ele><time>2026-03-28T08:14:04.999Z</time></trkpt><trkpt lat="40.87474212597869" lon="9.535277025921445"><ele>19.0</ele><time>2026-03-28T08:14:05.999Z</time></trkpt><trkpt lat="40.87485528769465" lon="9.53534105805304"><ele>19.0</ele><time>2026-03-28T08:14:06.999Z</time></trkpt><trkpt lat="40.87497408027916" lon="9.535378679463154"><ele>19.0</ele><time>2026-03-28T08:14:07.999Z</time></trkpt><trkpt lat="40.875061879832465" lon="9.535419455461355"><ele>19.0</ele><time>2026-03-28T08:14:08.999Z</time></trkpt><trkpt lat="40.87514744946857" lon="9.535439814525779"><ele>19.0</ele><time>2026-03-28T08:14:09.999Z</time></trkpt><trkpt lat="40.875278014463916" lon="9.535442036286206"><ele>18.5</ele><time>2026-03-28T08:14:10.999Z</time></trkpt><trkpt lat="40.87541951307339" lon="9.53545052496562"><ele>18.0</ele><time>2026-03-28T08:14:11.999Z</time></trkpt><trkpt lat="40.87554320658159" lon="9.535472982410662"><ele>17.5</ele><time>2026-03-28T08:14:12.999Z</time></trkpt><trkpt lat="40.875646352909946" lon="9.535502229055455"><ele>17.0</ele><time>2026-03-28T08:14:13.999Z</time></trkpt><trkpt lat="40.87576521693066" lon="9.53554835671279"><ele>17.0</ele><time>2026-03-28T08:14:14.999Z</time></trkpt><trkpt lat="40.875893521520894" lon="9.535612459456564"><ele>17.0</ele><time>2026-03-28T08:14:15.999Z</time></trkpt><trkpt lat="40.876037012071656" lon="9.535674089363342"><ele>17.0</ele><time>2026-03-28T08:14:16.999Z</time></trkpt><trkpt lat="40.87617381551989" lon="9.535716795911888"><ele>17.0</ele><time>2026-03-28T08:14:17.999Z</time></trkpt><trkpt lat="40.87628611113052" lon="9.535740858176176"><ele>16.8</ele><time>2026-03-28T08:14:18.999Z</time></trkpt><trkpt lat="40.87637726185171" lon="9.535755605112973"><ele>16.6</ele><time>2026-03-28T08:14:19.999Z</time></trkpt><trkpt lat="40.876461472162504" lon="9.535745723261426"><ele>16.400000000000002</ele><time>2026-03-28T08:14:20.999Z</time></trkpt><trkpt lat="40.876568205579105" lon="9.535710630750474"><ele>16.2</ele><time>2026-03-28T08:14:21.999Z</time></trkpt><trkpt lat="40.876671985881416" lon="9.535651127433459"><ele>16.0</ele><time>2026-03-28T08:14:22.999Z</time></trkpt><trkpt lat="40.876752027214536" lon="9.535595005633223"><ele>16.0</ele><time>2026-03-28T08:14:23.999Z</time></trkpt><trkpt lat="40.876822350191304" lon="9.535509752112127"><ele>16.0</ele><time>2026-03-28T08:14:24.999Z</time></trkpt><trkpt lat="40.876874676041695" lon="9.535412897852906"><ele>16.0</ele><time>2026-03-28T08:14:25.999Z</time></trkpt><trkpt lat="40.876920468220085" lon="9.535288991765443"><ele>16.0</ele><time>2026-03-28T08:14:26.999Z</time></trkpt><trkpt lat="40.87697354781027" lon="9.53516797829155"><ele>16.0</ele><time>2026-03-28T08:14:27.999Z</time></trkpt><trkpt lat="40.877047301695605" lon="9.535058330947844"><ele>16.0</ele><time>2026-03-28T08:14:28.999Z</time></trkpt><trkpt lat="40.87712536016348" lon="9.534960264209312"><ele>16.0</ele><time>2026-03-28T08:14:29.999Z</time></trkpt><trkpt lat="40.877204981617155" lon="9.53489585161226"><ele>16.0</ele><time>2026-03-28T08:14:31Z</time></trkpt><trkpt lat="40.87730723672871" lon="9.534806680893988"><ele>16.0</ele><time>2026-03-28T08:14:32Z</time></trkpt><trkpt lat="40.877408131656715" lon="9.534745237703087"><ele>16.0</ele><time>2026-03-28T08:14:33Z</time></trkpt><trkpt lat="40.877531417765574" lon="9.534682306586717"><ele>15.333333333333332</ele><time>2026-03-28T08:14:34Z</time></trkpt><trkpt lat="40.877699600478394" lon="9.534587181373777"><ele>14.666666666666668</ele><time>2026-03-28T08:14:35Z</time></trkpt><trkpt lat="40.87787735995466" lon="9.534514419095673"><ele>14.0</ele><time>2026-03-28T08:14:36Z</time></trkpt><trkpt lat="40.87801196924403" lon="9.534443867304587"><ele>13.75</ele><time>2026-03-28T08:14:37Z</time></trkpt><trkpt lat="40.87814451837458" lon="9.534381769547943"><ele>13.5</ele><time>2026-03-28T08:14:38Z</time></trkpt><trkpt lat="40.87827331287421" lon="9.534302162073214"><ele>13.25</ele><time>2026-03-28T08:14:39Z</time></trkpt><trkpt lat="40.878396723236975" lon="9.534234098826445"><ele>13.0</ele><time>2026-03-28T08:14:40Z</time></trkpt><trkpt lat="40.8785217502584" lon="9.53416974514072"><ele>12.8</ele><time>2026-03-28T08:14:41Z</time></trkpt><trkpt lat="40.878639001320174" lon="9.53412111129042"><ele>12.600000000000001</ele><time>2026-03-28T08:14:42Z</time></trkpt><trkpt lat="40.87875284959186" lon="9.534084327020583"><ele>12.399999999999999</ele><time>2026-03-28T08:14:43Z</time></trkpt><trkpt lat="40.878857176128335" lon="9.534056046499996"><ele>12.2</ele><time>2026-03-28T08:14:44Z</time></trkpt><trkpt lat="40.87894851310395" lon="9.534022057240845"><ele>12.0</ele><time>2026-03-28T08:14:45Z</time></trkpt><trkpt lat="40.87907695553211" lon="9.534033480870496"><ele>12.0</ele><time>2026-03-28T08:14:46Z</time></trkpt><trkpt lat="40.87924725348646" lon="9.534034172774211"><ele>12.0</ele><time>2026-03-28T08:14:47Z</time></trkpt><trkpt lat="40.879431983891486" lon="9.534027951441377"><ele>12.0</ele><time>2026-03-28T08:14:48Z</time></trkpt><trkpt lat="40.87958861325417" lon="9.53401705690088"><ele>12.75</ele><time>2026-03-28T08:14:49Z</time></trkpt><trkpt lat="40.87973982517615" lon="9.5340095386617"><ele>13.5</ele><time>2026-03-28T08:14:50Z</time></trkpt><trkpt lat="40.879860336032756" lon="9.53400688959659"><ele>14.25</ele><time>2026-03-28T08:14:51Z</time></trkpt><trkpt lat="40.879965779978214" lon="9.534014778513939"><ele>15.0</ele><time>2026-03-28T08:14:52Z</time></trkpt><trkpt lat="40.88009720080359" lon="9.53406024711199"><ele>14.333333333333332</ele><time>2026-03-28T08:14:53Z</time></trkpt><trkpt lat="40.88026722927227" lon="9.534124517215504"><ele>13.666666666666666</ele><time>2026-03-28T08:14:54Z</time></trkpt><trkpt lat="40.8804276490664" lon="9.534188105095604"><ele>13.0</ele><time>2026-03-28T08:14:55Z</time></trkpt><trkpt lat="40.88057029007038" lon="9.534250378503048"><ele>13.0</ele><time>2026-03-28T08:14:56Z</time></trkpt><trkpt lat="40.88070248092462" lon="9.534300134640079"><ele>13.0</ele><time>2026-03-28T08:14:57Z</time></trkpt><trkpt lat="40.88079258213865" lon="9.534330327823394"><ele>13.0</ele><time>2026-03-28T08:14:58Z</time></trkpt><trkpt lat="40.88086772689003" lon="9.534344986110787"><ele>13.0</ele><time>2026-03-28T08:14:59Z</time></trkpt><trkpt lat="40.88097839963003" lon="9.5343309597667"><ele>13.0</ele><time>2026-03-28T08:15:00Z</time></trkpt><trkpt lat="40.881106789443095" lon="9.534314993158656"><ele>13.0</ele><time>2026-03-28T08:15:01Z</time></trkpt><trkpt lat="40.88122530451823" lon="9.53427949085614"><ele>13.0</ele><time>2026-03-28T08:15:02Z</time></trkpt><trkpt lat="40.8813362641741" lon="9.53421933630562"><ele>13.0</ele><time>2026-03-28T08:15:03Z</time></trkpt><trkpt lat="40.88144650464048" lon="9.5341885845474"><ele>13.0</ele><time>2026-03-28T08:15:04Z</time></trkpt><trkpt lat="40.88155291676508" lon="9.534204435236578"><ele>13.0</ele><time>2026-03-28T08:15:05Z</time></trkpt><trkpt lat="40.8816295710366" lon="9.534246148626629"><ele>13.0</ele><time>2026-03-28T08:15:06Z</time></trkpt><trkpt lat="40.881745518002006" lon="9.534199428372972"><ele>13.0</ele><time>2026-03-28T08:15:08Z</time></trkpt><trkpt lat="40.881799105031746" lon="9.534098430747322"><ele>13.0</ele><time>2026-03-28T08:15:09Z</time></trkpt><trkpt lat="40.8819020336104" lon="9.533986201290574"><ele>13.0</ele><time>2026-03-28T08:15:10Z</time></trkpt><trkpt lat="40.88199956285136" lon="9.53382593265811"><ele>12.25</ele><time>2026-03-28T08:15:11Z</time></trkpt><trkpt lat="40.88209246326715" lon="9.533693786893526"><ele>11.5</ele><time>2026-03-28T08:15:12Z</time></trkpt><trkpt lat="40.88217128430333" lon="9.533579916434672"><ele>10.75</ele><time>2026-03-28T08:15:13Z</time></trkpt><trkpt lat="40.88225409695325" lon="9.533484555505165"><ele>10.0</ele><time>2026-03-28T08:15:14Z</time></trkpt><trkpt lat="40.88235505324865" lon="9.533435730140665"><ele>10.0</ele><time>2026-03-28T08:15:15Z</time></trkpt><trkpt lat="40.88247544231581" lon="9.533359271802077"><ele>10.0</ele><time>2026-03-28T08:15:16Z</time></trkpt><trkpt lat="40.88262191552485" lon="9.533247082579623"><ele>10.0</ele><time>2026-03-28T08:15:17Z</time></trkpt><trkpt lat="40.88275332361144" lon="9.533175725104408"><ele>10.0</ele><time>2026-03-28T08:15:18Z</time></trkpt><trkpt lat="40.88286606613358" lon="9.533116503567802"><ele>9.6</ele><time>2026-03-28T08:15:19Z</time></trkpt><trkpt lat="40.8829789482445" lon="9.533064694863947"><ele>9.2</ele><time>2026-03-28T08:15:20Z</time></trkpt><trkpt lat="40.88309844755532" lon="9.533029634915842"><ele>8.8</ele><time>2026-03-28T08:15:21Z</time></trkpt><trkpt lat="40.88319929957166" lon="9.533009362648109"><ele>8.4</ele><time>2026-03-28T08:15:22Z</time></trkpt><trkpt lat="40.88328850073119" lon="9.532994318629434"><ele>8.0</ele><time>2026-03-28T08:15:23Z</time></trkpt><trkpt lat="40.883350526217" lon="9.53297835421228"><ele>8.0</ele><time>2026-03-28T08:15:24Z</time></trkpt><trkpt lat="40.883415777965176" lon="9.532928726225919"><ele>8.0</ele><time>2026-03-28T08:15:25Z</time></trkpt><trkpt lat="40.88346801718786" lon="9.532838089282446"><ele>8.0</ele><time>2026-03-28T08:15:26Z</time></trkpt><trkpt lat="40.883521388609026" lon="9.532701747705037"><ele>8.0</ele><time>2026-03-28T08:15:27Z</time></trkpt><trkpt lat="40.8835602715087" lon="9.532546483086156"><ele>8.0</ele><time>2026-03-28T08:15:28Z</time></trkpt><trkpt lat="40.88356258519299" lon="9.532396406883116"><ele>7.5</ele><time>2026-03-28T08:15:29Z</time></trkpt><trkpt lat="40.883570826790525" lon="9.532268796485384"><ele>7.0</ele><time>2026-03-28T08:15:30Z</time></trkpt><trkpt lat="40.88356605571886" lon="9.532089900024092"><ele>6.5</ele><time>2026-03-28T08:15:31Z</time></trkpt><trkpt lat="40.88356583105779" lon="9.531937728273187"><ele>6.0</ele><time>2026-03-28T08:15:32Z</time></trkpt><trkpt lat="40.883560837868345" lon="9.531788327600097"><ele>6.0</ele><time>2026-03-28T08:15:34Z</time></trkpt><trkpt lat="40.883565597999336" lon="9.531634866586453"><ele>6.0</ele><time>2026-03-28T08:15:36Z</time></trkpt><trkpt lat="40.883561216669534" lon="9.531519996091797"><ele>6.0</ele><time>2026-03-28T08:15:37Z</time></trkpt><trkpt lat="40.88353818107626" lon="9.53141765400921"><ele>6.0</ele><time>2026-03-28T08:15:38Z</time></trkpt><trkpt lat="40.883507411665946" lon="9.53129704452817"><ele>6.0</ele><time>2026-03-28T08:15:39Z</time></trkpt><trkpt lat="40.88349322095652" lon="9.53118673690728"><ele>6.8</ele><time>2026-03-28T08:15:40Z</time></trkpt><trkpt lat="40.88351017949359" lon="9.531105212482458"><ele>7.6</ele><time>2026-03-28T08:15:41Z</time></trkpt><trkpt lat="40.88355404166128" lon="9.531039586386544"><ele>8.4</ele><time>2026-03-28T08:15:42Z</time></trkpt><trkpt lat="40.883628281966146" lon="9.530975034012673"><ele>9.2</ele><time>2026-03-28T08:15:43Z</time></trkpt><trkpt lat="40.883718864634915" lon="9.53090438198559"><ele>10.0</ele><time>2026-03-28T08:15:44Z</time></trkpt><trkpt lat="40.88383789656116" lon="9.530844619517326"><ele>10.0</ele><time>2026-03-28T08:15:45Z</time></trkpt><trkpt lat="40.88396956627276" lon="9.530797689437993"><ele>10.0</ele><time>2026-03-28T08:15:46Z</time></trkpt><trkpt lat="40.88408768912201" lon="9.530762126982465"><ele>10.0</ele><time>2026-03-28T08:15:46.999Z</time></trkpt><trkpt lat="40.88422074877406" lon="9.53073713968385"><ele>10.0</ele><time>2026-03-28T08:15:47.999Z</time></trkpt><trkpt lat="40.884371922801236" lon="9.5307348597758"><ele>10.0</ele><time>2026-03-28T08:15:48.999Z</time></trkpt><trkpt lat="40.8845034722161" lon="9.530741405771426"><ele>10.0</ele><time>2026-03-28T08:15:49.999Z</time></trkpt><trkpt lat="40.88461132412575" lon="9.530761702080847"><ele>10.0</ele><time>2026-03-28T08:15:50.999Z</time></trkpt><trkpt lat="40.884703897239845" lon="9.53075140534885"><ele>10.0</ele><time>2026-03-28T08:15:51.999Z</time></trkpt><trkpt lat="40.88478045453548" lon="9.530703039925198"><ele>10.0</ele><time>2026-03-28T08:15:52.999Z</time></trkpt><trkpt lat="40.88484101333775" lon="9.530632452213316"><ele>10.0</ele><time>2026-03-28T08:15:53.999Z</time></trkpt><trkpt lat="40.88490005566585" lon="9.53052850476209"><ele>10.0</ele><time>2026-03-28T08:15:54.999Z</time></trkpt><trkpt lat="40.88493751316713" lon="9.530428439747695"><ele>10.0</ele><time>2026-03-28T08:15:55.999Z</time></trkpt><trkpt lat="40.88495022065902" lon="9.530313644680417"><ele>10.0</ele><time>2026-03-28T08:15:56.999Z</time></trkpt><trkpt lat="40.8849490539079" lon="9.530145465979672"><ele>10.0</ele><time>2026-03-28T08:15:57.999Z</time></trkpt><trkpt lat="40.884942806262714" lon="9.529931249273035"><ele>10.0</ele><time>2026-03-28T08:15:58.999Z</time></trkpt><trkpt lat="40.88493969573046" lon="9.529651196395621"><ele>10.0</ele><time>2026-03-28T08:15:59.999Z</time></trkpt><trkpt lat="40.88493550377015" lon="9.529392303696232"><ele>10.0</ele><time>2026-03-28T08:16:00.999Z</time></trkpt><trkpt lat="40.884931455239574" lon="9.529157016152883"><ele>10.0</ele><time>2026-03-28T08:16:01.999Z</time></trkpt><trkpt lat="40.884921201692585" lon="9.528969362885913"><ele>10.0</ele><time>2026-03-28T08:16:02.999Z</time></trkpt><trkpt lat="40.88489070662897" lon="9.52875224138928"><ele>10.0</ele><time>2026-03-28T08:16:03.999Z</time></trkpt><trkpt lat="40.88485760045242" lon="9.528517602976132"><ele>10.5</ele><time>2026-03-28T08:16:04.999Z</time></trkpt><trkpt lat="40.884862210220795" lon="9.528297556423492"><ele>11.0</ele><time>2026-03-28T08:16:05.999Z</time></trkpt><trkpt lat="40.884847543963645" lon="9.528137931135843"><ele>11.5</ele><time>2026-03-28T08:16:06.999Z</time></trkpt><trkpt lat="40.88480267586975" lon="9.527990968064806"><ele>12.0</ele><time>2026-03-28T08:16:07.999Z</time></trkpt><trkpt lat="40.884759811553174" lon="9.527838324251752"><ele>12.0</ele><time>2026-03-28T08:16:08.999Z</time></trkpt><trkpt lat="40.884706703626804" lon="9.52768706173453"><ele>12.0</ele><time>2026-03-28T08:16:09.999Z</time></trkpt><trkpt lat="40.88467821806219" lon="9.527531220901613"><ele>12.0</ele><time>2026-03-28T08:16:10.999Z</time></trkpt><trkpt lat="40.884720206860486" lon="9.527352563483209"><ele>12.0</ele><time>2026-03-28T08:16:11.999Z</time></trkpt><trkpt lat="40.88473270300422" lon="9.527159326016022"><ele>11.0</ele><time>2026-03-28T08:16:12.999Z</time></trkpt><trkpt lat="40.88472050598024" lon="9.52690661751208"><ele>10.0</ele><time>2026-03-28T08:16:13.999Z</time></trkpt><trkpt lat="40.88472017267269" lon="9.526676778950108"><ele>9.0</ele><time>2026-03-28T08:16:14.999Z</time></trkpt><trkpt lat="40.884739461030925" lon="9.526444237086594"><ele>9.333333333333334</ele><time>2026-03-28T08:16:15.999Z</time></trkpt><trkpt lat="40.8847693660941" lon="9.52618911874213"><ele>9.666666666666668</ele><time>2026-03-28T08:16:16.999Z</time></trkpt><trkpt lat="40.88479116107777" lon="9.52598186195986"><ele>10.0</ele><time>2026-03-28T08:16:17.999Z</time></trkpt><trkpt lat="40.884807849065304" lon="9.525798497013636"><ele>10.0</ele><time>2026-03-28T08:16:18.999Z</time></trkpt><trkpt lat="40.884829606677535" lon="9.525622018245688"><ele>10.0</ele><time>2026-03-28T08:16:19.999Z</time></trkpt><trkpt lat="40.884868247447216" lon="9.525473658706165"><ele>10.0</ele><time>2026-03-28T08:16:20.999Z</time></trkpt><trkpt lat="40.88487337293333" lon="9.525324315367573"><ele>10.0</ele><time>2026-03-28T08:16:21.999Z</time></trkpt><trkpt lat="40.8848490328719" lon="9.525177467146033"><ele>10.25</ele><time>2026-03-28T08:16:22.999Z</time></trkpt><trkpt lat="40.884784769649755" lon="9.525027042100694"><ele>10.5</ele><time>2026-03-28T08:16:23.999Z</time></trkpt><trkpt lat="40.884704318034" lon="9.524856396020306"><ele>10.75</ele><time>2026-03-28T08:16:24.999Z</time></trkpt><trkpt lat="40.88460253631395" lon="9.52468595596362"><ele>11.0</ele><time>2026-03-28T08:16:25.999Z</time></trkpt><trkpt lat="40.88451001324319" lon="9.524477801578753"><ele>11.0</ele><time>2026-03-28T08:16:26.999Z</time></trkpt><trkpt lat="40.88441322036151" lon="9.524275073245937"><ele>11.0</ele><time>2026-03-28T08:16:27.999Z</time></trkpt><trkpt lat="40.8843327916859" lon="9.524092247034462"><ele>11.0</ele><time>2026-03-28T08:16:28.999Z</time></trkpt><trkpt lat="40.88424026555662" lon="9.523916548392181"><ele>11.0</ele><time>2026-03-28T08:16:29.999Z</time></trkpt><trkpt lat="40.88416530677741" lon="9.523749295661561"><ele>11.0</ele><time>2026-03-28T08:16:30.999Z</time></trkpt><trkpt lat="40.8840968465578" lon="9.523619045631728"><ele>11.0</ele><time>2026-03-28T08:16:31.999Z</time></trkpt><trkpt lat="40.88404092580253" lon="9.523488389278194"><ele>11.0</ele><time>2026-03-28T08:16:32.999Z</time></trkpt><trkpt lat="40.88402350958678" lon="9.523338412167945"><ele>11.0</ele><time>2026-03-28T08:16:33.999Z</time></trkpt><trkpt lat="40.88401204699109" lon="9.523172718433678"><ele>11.0</ele><time>2026-03-28T08:16:34.999Z</time></trkpt><trkpt lat="40.88399654112683" lon="9.522961317840211"><ele>11.0</ele><time>2026-03-28T08:16:35.999Z</time></trkpt><trkpt lat="40.88396799981765" lon="9.522781080840522"><ele>11.0</ele><time>2026-03-28T08:16:37Z</time></trkpt><trkpt lat="40.88397348227111" lon="9.522623433930619"><ele>10.75</ele><time>2026-03-28T08:16:38Z</time></trkpt><trkpt lat="40.883950749753" lon="9.522478668610429"><ele>10.5</ele><time>2026-03-28T08:16:39Z</time></trkpt><trkpt lat="40.8838962459094" lon="9.522332541819125"><ele>10.25</ele><time>2026-03-28T08:16:40Z</time></trkpt><trkpt lat="40.883815640514875" lon="9.522178040270129"><ele>10.0</ele><time>2026-03-28T08:16:41Z</time></trkpt><trkpt lat="40.883711343132155" lon="9.521999798228547"><ele>10.666666666666668</ele><time>2026-03-28T08:16:42Z</time></trkpt><trkpt lat="40.88358364827785" lon="9.521779534709959"><ele>11.333333333333334</ele><time>2026-03-28T08:16:43Z</time></trkpt><trkpt lat="40.883447346523425" lon="9.521549894772646"><ele>12.0</ele><time>2026-03-28T08:16:44Z</time></trkpt><trkpt lat="40.88332319410892" lon="9.521358788434153"><ele>12.0</ele><time>2026-03-28T08:16:45Z</time></trkpt><trkpt lat="40.88324454389706" lon="9.521141753146065"><ele>12.0</ele><time>2026-03-28T08:16:46Z</time></trkpt><trkpt lat="40.88312936451861" lon="9.520884004672357"><ele>12.0</ele><time>2026-03-28T08:16:47Z</time></trkpt><trkpt lat="40.88301211219115" lon="9.520660726794112"><ele>12.0</ele><time>2026-03-28T08:16:48Z</time></trkpt><trkpt lat="40.88292909030553" lon="9.520457049038225"><ele>12.0</ele><time>2026-03-28T08:16:49Z</time></trkpt><trkpt lat="40.88287621390516" lon="9.520250668620271"><ele>12.0</ele><time>2026-03-28T08:16:50Z</time></trkpt><trkpt lat="40.882769021721884" lon="9.52008586002221"><ele>11.333333333333334</ele><time>2026-03-28T08:16:51Z</time></trkpt><trkpt lat="40.88265959007864" lon="9.519860790107185"><ele>10.666666666666668</ele><time>2026-03-28T08:16:52Z</time></trkpt><trkpt lat="40.882584960694324" lon="9.519587399576787"><ele>10.0</ele><time>2026-03-28T08:16:53Z</time></trkpt><trkpt lat="40.882490929352684" lon="9.519322150471409"><ele>10.0</ele><time>2026-03-28T08:16:54Z</time></trkpt><trkpt lat="40.882383390037745" lon="9.519073354945553"><ele>10.0</ele><time>2026-03-28T08:16:55Z</time></trkpt><trkpt lat="40.88225625583264" lon="9.518797547929413"><ele>10.666666666666668</ele><time>2026-03-28T08:16:56Z</time></trkpt><trkpt lat="40.882144806166615" lon="9.518557203730598"><ele>11.333333333333334</ele><time>2026-03-28T08:16:57Z</time></trkpt><trkpt lat="40.882041601873105" lon="9.51833465671124"><ele>12.0</ele><time>2026-03-28T08:16:58Z</time></trkpt><trkpt lat="40.88192955846785" lon="9.518095762590997"><ele>12.0</ele><time>2026-03-28T08:16:59Z</time></trkpt><trkpt lat="40.88181456541734" lon="9.517848858737176"><ele>12.0</ele><time>2026-03-28T08:17:00Z</time></trkpt><trkpt lat="40.88171615565012" lon="9.517605243342999"><ele>12.0</ele><time>2026-03-28T08:17:01Z</time></trkpt><trkpt lat="40.881637415727695" lon="9.51735630041763"><ele>12.5</ele><time>2026-03-28T08:17:02Z</time></trkpt><trkpt lat="40.88155602282773" lon="9.517082904215806"><ele>13.0</ele><time>2026-03-28T08:17:03Z</time></trkpt><trkpt lat="40.881458310777994" lon="9.516761465711806"><ele>13.5</ele><time>2026-03-28T08:17:04Z</time></trkpt><trkpt lat="40.881369238482165" lon="9.5164840956029"><ele>14.0</ele><time>2026-03-28T08:17:05Z</time></trkpt><trkpt lat="40.8812688416951" lon="9.516158863845508"><ele>14.666666666666668</ele><time>2026-03-28T08:17:06Z</time></trkpt><trkpt lat="40.88118468828976" lon="9.515877679432169"><ele>15.333333333333332</ele><time>2026-03-28T08:17:07Z</time></trkpt><trkpt lat="40.88111089786495" lon="9.515631120601984"><ele>16.0</ele><time>2026-03-28T08:17:08Z</time></trkpt><trkpt lat="40.88104416001096" lon="9.515412233686561"><ele>15.5</ele><time>2026-03-28T08:17:09Z</time></trkpt><trkpt lat="40.88098012435098" lon="9.515207435486452"><ele>15.0</ele><time>2026-03-28T08:17:10Z</time></trkpt><trkpt lat="40.8809236203543" lon="9.51502672524243"><ele>14.5</ele><time>2026-03-28T08:17:11Z</time></trkpt><trkpt lat="40.88087515921942" lon="9.514871737312367"><ele>14.0</ele><time>2026-03-28T08:17:12Z</time></trkpt><trkpt lat="40.88084339534404" lon="9.514737865352734"><ele>14.0</ele><time>2026-03-28T08:17:13Z</time></trkpt><trkpt lat="40.88083232891793" lon="9.514622689418903"><ele>14.0</ele><time>2026-03-28T08:17:14Z</time></trkpt><trkpt lat="40.88085450550382" lon="9.514470097584958"><ele>14.0</ele><time>2026-03-28T08:17:15Z</time></trkpt><trkpt lat="40.88087555633648" lon="9.514248029104028"><ele>14.0</ele><time>2026-03-28T08:17:16Z</time></trkpt><trkpt lat="40.88089849424398" lon="9.513976430495934"><ele>14.5</ele><time>2026-03-28T08:17:17Z</time></trkpt><trkpt lat="40.880923632052344" lon="9.513667224018503"><ele>15.0</ele><time>2026-03-28T08:17:18Z</time></trkpt><trkpt lat="40.88093497200388" lon="9.513331441532607"><ele>15.0</ele><time>2026-03-28T08:17:19Z</time></trkpt><trkpt lat="40.880957270646626" lon="9.513051032425816"><ele>15.0</ele><time>2026-03-28T08:17:20Z</time></trkpt><trkpt lat="40.880981328429144" lon="9.512778365034052"><ele>15.0</ele><time>2026-03-28T08:17:21Z</time></trkpt><trkpt lat="40.881005868885126" lon="9.512453532876501"><ele>15.5</ele><time>2026-03-28T08:17:22Z</time></trkpt><trkpt lat="40.88103375476167" lon="9.512095014327977"><ele>16.0</ele><time>2026-03-28T08:17:23Z</time></trkpt><trkpt lat="40.88106187880938" lon="9.511710577418087"><ele>17.5</ele><time>2026-03-28T08:17:24Z</time></trkpt><trkpt lat="40.88109727844732" lon="9.511315828549817"><ele>19.0</ele><time>2026-03-28T08:17:25Z</time></trkpt><trkpt lat="40.88112982331221" lon="9.510913465354038"><ele>20.0</ele><time>2026-03-28T08:17:26Z</time></trkpt><trkpt lat="40.881163020624726" lon="9.510558787228426"><ele>21.0</ele><time>2026-03-28T08:17:27Z</time></trkpt><trkpt lat="40.881187600983246" lon="9.510245025143712"><ele>21.666666666666668</ele><time>2026-03-28T08:17:28Z</time></trkpt><trkpt lat="40.88121675102367" lon="9.509960968634246"><ele>22.333333333333336</ele><time>2026-03-28T08:17:29Z</time></trkpt><trkpt lat="40.881226667945896" lon="9.509728628798815"><ele>23.0</ele><time>2026-03-28T08:17:30Z</time></trkpt><trkpt lat="40.88124361681037" lon="9.509507454815868"><ele>23.666666666666668</ele><time>2026-03-28T08:17:31Z</time></trkpt><trkpt lat="40.88126270951564" lon="9.509288495417508"><ele>24.333333333333336</ele><time>2026-03-28T08:17:32Z</time></trkpt><trkpt lat="40.88128798447718" lon="9.509070906461536"><ele>25.0</ele><time>2026-03-28T08:17:33Z</time></trkpt><trkpt lat="40.88130754254241" lon="9.508815815039556"><ele>24.666666666666668</ele><time>2026-03-28T08:17:34Z</time></trkpt><trkpt lat="40.881326704430634" lon="9.508533875190684"><ele>24.333333333333336</ele><time>2026-03-28T08:17:35Z</time></trkpt><trkpt lat="40.881346699227144" lon="9.508284605282302"><ele>24.0</ele><time>2026-03-28T08:17:36Z</time></trkpt><trkpt lat="40.88136241640908" lon="9.50806695834234"><ele>23.75</ele><time>2026-03-28T08:17:37Z</time></trkpt><trkpt lat="40.881384127322626" lon="9.507853599956988"><ele>23.5</ele><time>2026-03-28T08:17:38Z</time></trkpt><trkpt lat="40.88140312513948" lon="9.507660980853558"><ele>23.25</ele><time>2026-03-28T08:17:39Z</time></trkpt><trkpt lat="40.881417981527875" lon="9.50748243420103"><ele>23.0</ele><time>2026-03-28T08:17:40Z</time></trkpt><trkpt lat="40.88143019640984" lon="9.507303069245786"><ele>23.0</ele><time>2026-03-28T08:17:41Z</time></trkpt><trkpt lat="40.8814944546839" lon="9.507140476819107"><ele>23.0</ele><time>2026-03-28T08:17:42Z</time></trkpt><trkpt lat="40.881512108923914" lon="9.506949682550301"><ele>23.0</ele><time>2026-03-28T08:17:43Z</time></trkpt><trkpt lat="40.881520022673946" lon="9.506805374697244"><ele>23.0</ele><time>2026-03-28T08:17:44Z</time></trkpt><trkpt lat="40.88152648850971" lon="9.506672613355118"><ele>23.4</ele><time>2026-03-28T08:17:45Z</time></trkpt><trkpt lat="40.88155158540817" lon="9.506568056033988"><ele>23.799999999999997</ele><time>2026-03-28T08:17:46Z</time></trkpt><trkpt lat="40.88156473329936" lon="9.506455956395307"><ele>24.2</ele><time>2026-03-28T08:17:48Z</time></trkpt><trkpt lat="40.881578519783616" lon="9.506365268218659"><ele>24.6</ele><time>2026-03-28T08:18:39.999Z</time></trkpt><trkpt lat="40.88143219590413" lon="9.506261385831854"><ele>25.0</ele><time>2026-03-28T08:18:42Z</time></trkpt><trkpt lat="40.88131160306774" lon="9.506221758151964"><ele>25.333333333333336</ele><time>2026-03-28T08:18:43Z</time></trkpt><trkpt lat="40.88116589385281" lon="9.506168422435145"><ele>25.666666666666664</ele><time>2026-03-28T08:18:44Z</time></trkpt><trkpt lat="40.88098560132939" lon="9.506098291172131"><ele>26.0</ele><time>2026-03-28T08:18:45Z</time></trkpt><trkpt lat="40.880813761724966" lon="9.506037332053111"><ele>26.0</ele><time>2026-03-28T08:18:46Z</time></trkpt><trkpt lat="40.8806161140329" lon="9.505939202421299"><ele>26.0</ele><time>2026-03-28T08:18:47Z</time></trkpt><trkpt lat="40.88039649677494" lon="9.505852247428189"><ele>26.0</ele><time>2026-03-28T08:18:48Z</time></trkpt><trkpt lat="40.88016692083341" lon="9.505761780767703"><ele>27.0</ele><time>2026-03-28T08:18:49Z</time></trkpt><trkpt lat="40.8799531564667" lon="9.505677838102834"><ele>28.0</ele><time>2026-03-28T08:18:50Z</time></trkpt><trkpt lat="40.87963883182414" lon="9.505574114552356"><ele>28.0</ele><time>2026-03-28T08:18:51Z</time></trkpt><trkpt lat="40.8793697198895" lon="9.505464352367218"><ele>28.0</ele><time>2026-03-28T08:18:52Z</time></trkpt><trkpt lat="40.87914163678989" lon="9.505381312851748"><ele>28.333333333333336</ele><time>2026-03-28T08:18:53Z</time></trkpt><trkpt lat="40.878935972137384" lon="9.505278820959894"><ele>28.666666666666664</ele><time>2026-03-28T08:18:54Z</time></trkpt><trkpt lat="40.878732135882835" lon="9.505220651972236"><ele>29.0</ele><time>2026-03-28T08:18:55Z</time></trkpt><trkpt lat="40.87850721353247" lon="9.505131298700716"><ele>29.5</ele><time>2026-03-28T08:18:56Z</time></trkpt><trkpt lat="40.87827055786666" lon="9.505047171589222"><ele>30.0</ele><time>2026-03-28T08:18:57Z</time></trkpt><trkpt lat="40.87804188677342" lon="9.504975329829776"><ele>30.0</ele><time>2026-03-28T08:18:58Z</time></trkpt><trkpt lat="40.87783981647138" lon="9.504927522485184"><ele>30.0</ele><time>2026-03-28T08:18:59Z</time></trkpt><trkpt lat="40.87764973178377" lon="9.50489646668784"><ele>30.0</ele><time>2026-03-28T08:19:00Z</time></trkpt><trkpt lat="40.877456969446364" lon="9.504853321066843"><ele>31.333333333333336</ele><time>2026-03-28T08:19:01Z</time></trkpt><trkpt lat="40.877262895433326" lon="9.504809924539288"><ele>32.66666666666667</ele><time>2026-03-28T08:19:02Z</time></trkpt><trkpt lat="40.87708448212151" lon="9.504768720334118"><ele>34.0</ele><time>2026-03-28T08:19:03Z</time></trkpt><trkpt lat="40.87692446093491" lon="9.504730966868438"><ele>35.0</ele><time>2026-03-28T08:19:04Z</time></trkpt><trkpt lat="40.876762848298505" lon="9.504699827553427"><ele>36.0</ele><time>2026-03-28T08:19:05Z</time></trkpt><trkpt lat="40.87660404140258" lon="9.504700349923711"><ele>37.0</ele><time>2026-03-28T08:19:06Z</time></trkpt><trkpt lat="40.87644233913601" lon="9.504738964187318"><ele>37.0</ele><time>2026-03-28T08:19:07Z</time></trkpt><trkpt lat="40.87627199041" lon="9.504819956829643"><ele>37.0</ele><time>2026-03-28T08:19:08Z</time></trkpt><trkpt lat="40.87607765814436" lon="9.504940963385664"><ele>37.0</ele><time>2026-03-28T08:19:09Z</time></trkpt><trkpt lat="40.875876321565784" lon="9.505089061941806"><ele>35.5</ele><time>2026-03-28T08:19:10Z</time></trkpt><trkpt lat="40.87566042415846" lon="9.505249226564626"><ele>34.0</ele><time>2026-03-28T08:19:11Z</time></trkpt><trkpt lat="40.875468560238986" lon="9.50537351888109"><ele>33.66666666666667</ele><time>2026-03-28T08:19:12Z</time></trkpt><trkpt lat="40.87529342816269" lon="9.505480109674178"><ele>33.333333333333336</ele><time>2026-03-28T08:19:13Z</time></trkpt><trkpt lat="40.875135095060934" lon="9.505578085439934"><ele>33.0</ele><time>2026-03-28T08:19:14Z</time></trkpt><trkpt lat="40.87497012102346" lon="9.50566696594031"><ele>33.0</ele><time>2026-03-28T08:19:15Z</time></trkpt><trkpt lat="40.87478525169306" lon="9.505747816461053"><ele>33.0</ele><time>2026-03-28T08:19:16Z</time></trkpt><trkpt lat="40.87458836948362" lon="9.5058044523448"><ele>33.0</ele><time>2026-03-28T08:19:17Z</time></trkpt><trkpt lat="40.87437514609279" lon="9.50583271161779"><ele>31.0</ele><time>2026-03-28T08:19:18Z</time></trkpt><trkpt lat="40.87416307094651" lon="9.505833865327235"><ele>29.0</ele><time>2026-03-28T08:19:19Z</time></trkpt><trkpt lat="40.87393187799987" lon="9.505776485809182"><ele>27.0</ele><time>2026-03-28T08:19:20Z</time></trkpt><trkpt lat="40.87368807776646" lon="9.505721110434283"><ele>23.5</ele><time>2026-03-28T08:19:21Z</time></trkpt><trkpt lat="40.87343243487743" lon="9.505662031137078"><ele>20.0</ele><time>2026-03-28T08:19:22Z</time></trkpt><trkpt lat="40.87318527908206" lon="9.505625421469826"><ele>20.0</ele><time>2026-03-28T08:19:23Z</time></trkpt><trkpt lat="40.87294978103828" lon="9.505572797208163"><ele>20.0</ele><time>2026-03-28T08:19:24Z</time></trkpt><trkpt lat="40.87272685172717" lon="9.505499088131987"><ele>19.0</ele><time>2026-03-28T08:19:25Z</time></trkpt><trkpt lat="40.87250624665177" lon="9.505448143658478"><ele>18.0</ele><time>2026-03-28T08:19:26Z</time></trkpt><trkpt lat="40.87228148739271" lon="9.505418281725095"><ele>18.0</ele><time>2026-03-28T08:19:27Z</time></trkpt><trkpt lat="40.87205487241108" lon="9.50536471382503"><ele>18.0</ele><time>2026-03-28T08:19:28Z</time></trkpt><trkpt lat="40.87182595026478" lon="9.505312692043548"><ele>19.0</ele><time>2026-03-28T08:19:29Z</time></trkpt><trkpt lat="40.87159017965657" lon="9.505258632625413"><ele>20.0</ele><time>2026-03-28T08:19:30Z</time></trkpt><trkpt lat="40.871356540668266" lon="9.50520042669962"><ele>20.0</ele><time>2026-03-28T08:19:31Z</time></trkpt><trkpt lat="40.871128940878336" lon="9.50514934981585"><ele>20.0</ele><time>2026-03-28T08:19:32Z</time></trkpt><trkpt lat="40.870903410712046" lon="9.505094797779254"><ele>19.0</ele><time>2026-03-28T08:19:33Z</time></trkpt><trkpt lat="40.87066960842249" lon="9.505041778539118"><ele>18.0</ele><time>2026-03-28T08:19:34Z</time></trkpt><trkpt lat="40.8704289433424" lon="9.504992741187769"><ele>18.0</ele><time>2026-03-28T08:19:35Z</time></trkpt><trkpt lat="40.87018150090662" lon="9.504940182400142"><ele>18.0</ele><time>2026-03-28T08:19:36Z</time></trkpt><trkpt lat="40.86994660580542" lon="9.504890079607621"><ele>18.0</ele><time>2026-03-28T08:19:37Z</time></trkpt><trkpt lat="40.86972805074517" lon="9.504846105498592"><ele>18.0</ele><time>2026-03-28T08:19:38Z</time></trkpt><trkpt lat="40.869507207839035" lon="9.5048015747091"><ele>18.0</ele><time>2026-03-28T08:19:39Z</time></trkpt><trkpt lat="40.86928432350542" lon="9.504761569310924"><ele>18.0</ele><time>2026-03-28T08:19:40Z</time></trkpt><trkpt lat="40.869057622383686" lon="9.504717157702776"><ele>18.0</ele><time>2026-03-28T08:19:41Z</time></trkpt><trkpt lat="40.86882248755077" lon="9.5046715517201"><ele>18.0</ele><time>2026-03-28T08:19:42Z</time></trkpt><trkpt lat="40.868606752719806" lon="9.504627559010594"><ele>18.0</ele><time>2026-03-28T08:19:43Z</time></trkpt><trkpt lat="40.868398551503596" lon="9.504590127826045"><ele>18.0</ele><time>2026-03-28T08:19:44Z</time></trkpt><trkpt lat="40.86818675584125" lon="9.504551986648757"><ele>17.5</ele><time>2026-03-28T08:19:45Z</time></trkpt><trkpt lat="40.86796555574036" lon="9.504504686852348"><ele>17.0</ele><time>2026-03-28T08:19:46Z</time></trkpt><trkpt lat="40.86774318543256" lon="9.504451654589756"><ele>17.0</ele><time>2026-03-28T08:19:47Z</time></trkpt><trkpt lat="40.86752286244542" lon="9.504386667841807"><ele>17.0</ele><time>2026-03-28T08:19:48Z</time></trkpt><trkpt lat="40.86730108813979" lon="9.504298410396833"><ele>17.0</ele><time>2026-03-28T08:19:49Z</time></trkpt><trkpt lat="40.86707689021779" lon="9.504194470635088"><ele>17.0</ele><time>2026-03-28T08:19:50Z</time></trkpt><trkpt lat="40.8668391861452" lon="9.504086765373888"><ele>17.0</ele><time>2026-03-28T08:19:51Z</time></trkpt><trkpt lat="40.866598161492966" lon="9.503984027753825"><ele>17.0</ele><time>2026-03-28T08:19:52Z</time></trkpt><trkpt lat="40.866370126254495" lon="9.503883651594052"><ele>17.0</ele><time>2026-03-28T08:19:53Z</time></trkpt><trkpt lat="40.866160272057904" lon="9.503793532024748"><ele>17.0</ele><time>2026-03-28T08:19:54Z</time></trkpt><trkpt lat="40.86594950972041" lon="9.503705262521"><ele>17.0</ele><time>2026-03-28T08:19:55Z</time></trkpt><trkpt lat="40.86573379576525" lon="9.503612610697298"><ele>17.0</ele><time>2026-03-28T08:19:56Z</time></trkpt><trkpt lat="40.86552134259107" lon="9.503516159007926"><ele>17.0</ele><time>2026-03-28T08:19:57Z</time></trkpt><trkpt lat="40.86530925344648" lon="9.50342074949338"><ele>17.0</ele><time>2026-03-28T08:19:58Z</time></trkpt><trkpt lat="40.8650953198812" lon="9.503327155357326"><ele>17.0</ele><time>2026-03-28T08:19:59Z</time></trkpt><trkpt lat="40.86487866552466" lon="9.503234768368825"><ele>17.0</ele><time>2026-03-28T08:20:00Z</time></trkpt><trkpt lat="40.86465520439587" lon="9.503137577532035"><ele>17.0</ele><time>2026-03-28T08:20:01Z</time></trkpt><trkpt lat="40.86443254575122" lon="9.503039313474018"><ele>17.0</ele><time>2026-03-28T08:20:02Z</time></trkpt><trkpt lat="40.86421904115386" lon="9.50294925294857"><ele>17.666666666666668</ele><time>2026-03-28T08:20:03Z</time></trkpt><trkpt lat="40.86400966405011" lon="9.502861775986414"><ele>18.333333333333332</ele><time>2026-03-28T08:20:04Z</time></trkpt><trkpt lat="40.86379886361892" lon="9.502769319441077"><ele>19.0</ele><time>2026-03-28T08:20:04.999Z</time></trkpt><trkpt lat="40.86359314421686" lon="9.50267650075779"><ele>19.666666666666664</ele><time>2026-03-28T08:20:05.999Z</time></trkpt><trkpt lat="40.86338758701087" lon="9.502581517015283"><ele>20.333333333333332</ele><time>2026-03-28T08:20:06.999Z</time></trkpt><trkpt lat="40.86317945080231" lon="9.502494563874727"><ele>21.0</ele><time>2026-03-28T08:20:07.999Z</time></trkpt><trkpt lat="40.86296935530638" lon="9.502417080458688"><ele>21.0</ele><time>2026-03-28T08:20:08.999Z</time></trkpt><trkpt lat="40.86274945186894" lon="9.502347974722149"><ele>21.0</ele><time>2026-03-28T08:20:09.999Z</time></trkpt><trkpt lat="40.862511654749575" lon="9.50230187794485"><ele>20.5</ele><time>2026-03-28T08:20:10.999Z</time></trkpt><trkpt lat="40.86227812461808" lon="9.502262079149167"><ele>20.0</ele><time>2026-03-28T08:20:11.999Z</time></trkpt><trkpt lat="40.862057915849235" lon="9.502218165540572"><ele>20.0</ele><time>2026-03-28T08:20:12.999Z</time></trkpt><trkpt lat="40.86184274180685" lon="9.50216991698391"><ele>20.0</ele><time>2026-03-28T08:20:13.999Z</time></trkpt><trkpt lat="40.861625567574606" lon="9.502121413585213"><ele>20.0</ele><time>2026-03-28T08:20:14.999Z</time></trkpt><trkpt lat="40.861405151419035" lon="9.502075569908408"><ele>20.333333333333336</ele><time>2026-03-28T08:20:15.999Z</time></trkpt><trkpt lat="40.86118343748235" lon="9.502030734918904"><ele>20.666666666666668</ele><time>2026-03-28T08:20:16.999Z</time></trkpt><trkpt lat="40.86096589032394" lon="9.50198425813097"><ele>21.0</ele><time>2026-03-28T08:20:17.999Z</time></trkpt><trkpt lat="40.860754638547505" lon="9.501935824096561"><ele>21.0</ele><time>2026-03-28T08:20:18.999Z</time></trkpt><trkpt lat="40.86054179352943" lon="9.501887919465123"><ele>21.0</ele><time>2026-03-28T08:20:19.999Z</time></trkpt><trkpt lat="40.860322123151754" lon="9.501836835949616"><ele>21.0</ele><time>2026-03-28T08:20:20.999Z</time></trkpt><trkpt lat="40.860119713140485" lon="9.501784758582874"><ele>21.666666666666668</ele><time>2026-03-28T08:20:21.999Z</time></trkpt><trkpt lat="40.85990905182153" lon="9.501710665570169"><ele>22.333333333333336</ele><time>2026-03-28T08:20:22.999Z</time></trkpt><trkpt lat="40.859695028027176" lon="9.501618960899783"><ele>23.0</ele><time>2026-03-28T08:20:23.999Z</time></trkpt><trkpt lat="40.85947295103644" lon="9.50151637472251"><ele>23.0</ele><time>2026-03-28T08:20:24.999Z</time></trkpt><trkpt lat="40.85925153507545" lon="9.501420708216777"><ele>23.0</ele><time>2026-03-28T08:20:25.999Z</time></trkpt><trkpt lat="40.85902488712363" lon="9.501324759062214"><ele>23.333333333333336</ele><time>2026-03-28T08:20:26.999Z</time></trkpt><trkpt lat="40.85880785151787" lon="9.501235150659381"><ele>23.666666666666668</ele><time>2026-03-28T08:20:27.999Z</time></trkpt><trkpt lat="40.85860208265248" lon="9.501150362947229"><ele>24.0</ele><time>2026-03-28T08:20:28.999Z</time></trkpt><trkpt lat="40.85839652057658" lon="9.50106144425759"><ele>23.333333333333332</ele><time>2026-03-28T08:20:29.999Z</time></trkpt><trkpt lat="40.85819188491143" lon="9.500960462047788"><ele>22.666666666666664</ele><time>2026-03-28T08:20:30.999Z</time></trkpt><trkpt lat="40.85799610941877" lon="9.500851567200552"><ele>22.0</ele><time>2026-03-28T08:20:31.999Z</time></trkpt><trkpt lat="40.85781275154298" lon="9.500718871418652"><ele>22.0</ele><time>2026-03-28T08:20:32.999Z</time></trkpt><trkpt lat="40.857627692646176" lon="9.500557536390323"><ele>22.0</ele><time>2026-03-28T08:20:33.999Z</time></trkpt><trkpt lat="40.85743882680944" lon="9.500357076204581"><ele>22.5</ele><time>2026-03-28T08:20:34.999Z</time></trkpt><trkpt lat="40.857253497686145" lon="9.500148325306013"><ele>23.0</ele><time>2026-03-28T08:20:35.999Z</time></trkpt><trkpt lat="40.8570647243895" lon="9.499930265590786"><ele>23.0</ele><time>2026-03-28T08:20:36.999Z</time></trkpt><trkpt lat="40.85689288597802" lon="9.499732885887555"><ele>23.0</ele><time>2026-03-28T08:20:37.999Z</time></trkpt><trkpt lat="40.85672181269446" lon="9.499542843622327"><ele>23.666666666666668</ele><time>2026-03-28T08:20:38.999Z</time></trkpt><trkpt lat="40.85654957006026" lon="9.499352165496736"><ele>24.333333333333336</ele><time>2026-03-28T08:20:39.999Z</time></trkpt><trkpt lat="40.85638323270569" lon="9.499169038178232"><ele>25.0</ele><time>2026-03-28T08:20:40.999Z</time></trkpt><trkpt lat="40.856239470325555" lon="9.498984609883758"><ele>25.0</ele><time>2026-03-28T08:20:41.999Z</time></trkpt><trkpt lat="40.85607058376334" lon="9.498839786492162"><ele>25.0</ele><time>2026-03-28T08:20:42.999Z</time></trkpt><trkpt lat="40.85588600581585" lon="9.49868108381589"><ele>25.0</ele><time>2026-03-28T08:20:43.999Z</time></trkpt><trkpt lat="40.855674178604815" lon="9.498529260367276"><ele>25.5</ele><time>2026-03-28T08:20:44.999Z</time></trkpt><trkpt lat="40.855446869891566" lon="9.498382634962722"><ele>26.0</ele><time>2026-03-28T08:20:45.999Z</time></trkpt><trkpt lat="40.8552140903469" lon="9.498235740519888"><ele>27.0</ele><time>2026-03-28T08:20:46.999Z</time></trkpt><trkpt lat="40.85499850801775" lon="9.49809540122166"><ele>28.0</ele><time>2026-03-28T08:20:48Z</time></trkpt><trkpt lat="40.85479615885729" lon="9.497966716022464"><ele>28.0</ele><time>2026-03-28T08:20:49Z</time></trkpt><trkpt lat="40.85459421428464" lon="9.497844505670363"><ele>28.0</ele><time>2026-03-28T08:20:50Z</time></trkpt><trkpt lat="40.854389585748514" lon="9.497731056395985"><ele>28.0</ele><time>2026-03-28T08:20:51Z</time></trkpt><trkpt lat="40.854173367762805" lon="9.49762874070824"><ele>29.5</ele><time>2026-03-28T08:20:52Z</time></trkpt><trkpt lat="40.85396251216146" lon="9.497508172806059"><ele>31.0</ele><time>2026-03-28T08:20:53Z</time></trkpt><trkpt lat="40.853741871199354" lon="9.497402950341645"><ele>31.0</ele><time>2026-03-28T08:20:54Z</time></trkpt><trkpt lat="40.853518241166356" lon="9.49731952615369"><ele>31.0</ele><time>2026-03-28T08:20:55Z</time></trkpt><trkpt lat="40.85330499742378" lon="9.497215131912878"><ele>31.666666666666668</ele><time>2026-03-28T08:20:56Z</time></trkpt><trkpt lat="40.853098554742395" lon="9.497115230085663"><ele>32.333333333333336</ele><time>2026-03-28T08:20:57Z</time></trkpt><trkpt lat="40.85289215295421" lon="9.497019103000145"><ele>33.0</ele><time>2026-03-28T08:20:58Z</time></trkpt><trkpt lat="40.85269235879442" lon="9.496905336698363"><ele>34.0</ele><time>2026-03-28T08:20:59Z</time></trkpt><trkpt lat="40.85248509959816" lon="9.496807905979319"><ele>35.0</ele><time>2026-03-28T08:21:00Z</time></trkpt><trkpt lat="40.85228684383817" lon="9.496712906449876"><ele>36.0</ele><time>2026-03-28T08:21:01Z</time></trkpt><trkpt lat="40.85211026831289" lon="9.496622648789735"><ele>36.0</ele><time>2026-03-28T08:21:02Z</time></trkpt><trkpt lat="40.85194966027687" lon="9.496521458954565"><ele>36.0</ele><time>2026-03-28T08:21:03Z</time></trkpt><trkpt lat="40.85181481872982" lon="9.496409014218566"><ele>36.0</ele><time>2026-03-28T08:21:04Z</time></trkpt><trkpt lat="40.851689677603275" lon="9.496257353019743"><ele>38.0</ele><time>2026-03-28T08:21:05Z</time></trkpt><trkpt lat="40.851584502582796" lon="9.496065110112257"><ele>40.0</ele><time>2026-03-28T08:21:06Z</time></trkpt><trkpt lat="40.85148089167515" lon="9.49584481589198"><ele>42.0</ele><time>2026-03-28T08:21:07Z</time></trkpt><trkpt lat="40.85137555509835" lon="9.495612049947608"><ele>42.333333333333336</ele><time>2026-03-28T08:21:08Z</time></trkpt><trkpt lat="40.85127491446074" lon="9.495376647588024"><ele>42.66666666666667</ele><time>2026-03-28T08:21:09Z</time></trkpt><trkpt lat="40.85116624345788" lon="9.495131874057986"><ele>43.0</ele><time>2026-03-28T08:21:10Z</time></trkpt><trkpt lat="40.85105652336421" lon="9.494884985785081"><ele>43.0</ele><time>2026-03-28T08:21:11Z</time></trkpt><trkpt lat="40.850960206723315" lon="9.494668568693493"><ele>43.0</ele><time>2026-03-28T08:21:12Z</time></trkpt><trkpt lat="40.85086977828827" lon="9.494474539613162"><ele>43.0</ele><time>2026-03-28T08:21:13Z</time></trkpt><trkpt lat="40.85078063133671" lon="9.494306531993908"><ele>44.333333333333336</ele><time>2026-03-28T08:21:14Z</time></trkpt><trkpt lat="40.85066335363884" lon="9.49417291677983"><ele>45.666666666666664</ele><time>2026-03-28T08:21:15Z</time></trkpt><trkpt lat="40.850531513730274" lon="9.494046079086012"><ele>47.0</ele><time>2026-03-28T08:21:16Z</time></trkpt><trkpt lat="40.850361369536046" lon="9.493947622316659"><ele>47.0</ele><time>2026-03-28T08:21:17Z</time></trkpt><trkpt lat="40.8501674145199" lon="9.493866125094753"><ele>47.0</ele><time>2026-03-28T08:21:18Z</time></trkpt><trkpt lat="40.84995025624073" lon="9.493801873247415"><ele>47.0</ele><time>2026-03-28T08:21:19Z</time></trkpt><trkpt lat="40.84973156813621" lon="9.493702226933172"><ele>49.666666666666664</ele><time>2026-03-28T08:21:20Z</time></trkpt><trkpt lat="40.84951147661314" lon="9.493623436336605"><ele>52.33333333333333</ele><time>2026-03-28T08:21:21Z</time></trkpt><trkpt lat="40.849308102268125" lon="9.493569825180087"><ele>55.0</ele><time>2026-03-28T08:21:22Z</time></trkpt><trkpt lat="40.84913082962558" lon="9.49350031955245"><ele>56.33333333333333</ele><time>2026-03-28T08:21:23Z</time></trkpt><trkpt lat="40.84896041794377" lon="9.493436221122362"><ele>57.66666666666667</ele><time>2026-03-28T08:21:24Z</time></trkpt><trkpt lat="40.848792211171435" lon="9.4933569218426"><ele>59.0</ele><time>2026-03-28T08:21:25Z</time></trkpt><trkpt lat="40.84860220136594" lon="9.493357958388792"><ele>60.66666666666667</ele><time>2026-03-28T08:21:26Z</time></trkpt><trkpt lat="40.848421452317325" lon="9.493369216688894"><ele>62.33333333333333</ele><time>2026-03-28T08:21:27Z</time></trkpt><trkpt lat="40.84821085028876" lon="9.493430201380376"><ele>64.0</ele><time>2026-03-28T08:21:28Z</time></trkpt><trkpt lat="40.84799725415349" lon="9.4935255924146"><ele>64.0</ele><time>2026-03-28T08:21:29Z</time></trkpt><trkpt lat="40.84777272654616" lon="9.49364856592915"><ele>64.0</ele><time>2026-03-28T08:21:30Z</time></trkpt><trkpt lat="40.84754137679622" lon="9.493766007879811"><ele>68.5</ele><time>2026-03-28T08:21:31Z</time></trkpt><trkpt lat="40.84731533498929" lon="9.49386487105568"><ele>73.0</ele><time>2026-03-28T08:21:32Z</time></trkpt><trkpt lat="40.84708088856265" lon="9.493957240801437"><ele>73.0</ele><time>2026-03-28T08:21:33Z</time></trkpt><trkpt lat="40.84683965758845" lon="9.494040618013281"><ele>73.0</ele><time>2026-03-28T08:21:34Z</time></trkpt><trkpt lat="40.846633759039946" lon="9.494103637097231"><ele>75.33333333333333</ele><time>2026-03-28T08:21:35Z</time></trkpt><trkpt lat="40.84645672402462" lon="9.49415761748649"><ele>77.66666666666667</ele><time>2026-03-28T08:21:36Z</time></trkpt><trkpt lat="40.84629716948646" lon="9.494209236370875"><ele>80.0</ele><time>2026-03-28T08:21:37Z</time></trkpt><trkpt lat="40.8461544863595" lon="9.494257519151782"><ele>80.0</ele><time>2026-03-28T08:21:38Z</time></trkpt><trkpt lat="40.84602943582399" lon="9.49429278009408"><ele>80.0</ele><time>2026-03-28T08:21:39Z</time></trkpt><trkpt lat="40.84590939586718" lon="9.494327463145776"><ele>80.0</ele><time>2026-03-28T08:21:40Z</time></trkpt><trkpt lat="40.84578708285614" lon="9.494352391620769"><ele>80.0</ele><time>2026-03-28T08:21:41Z</time></trkpt><trkpt lat="40.84566975131061" lon="9.494361065682586"><ele>82.25</ele><time>2026-03-28T08:21:42Z</time></trkpt><trkpt lat="40.84554490868725" lon="9.494360102215342"><ele>84.5</ele><time>2026-03-28T08:21:43Z</time></trkpt><trkpt lat="40.84541398974576" lon="9.494359214985598"><ele>86.75</ele><time>2026-03-28T08:21:44Z</time></trkpt><trkpt lat="40.8452818900699" lon="9.494353026239466"><ele>89.0</ele><time>2026-03-28T08:21:45Z</time></trkpt><trkpt lat="40.845162481797416" lon="9.494323183838457"><ele>89.0</ele><time>2026-03-28T08:21:46Z</time></trkpt><trkpt lat="40.84504323713727" lon="9.494259230099667"><ele>89.0</ele><time>2026-03-28T08:21:47Z</time></trkpt><trkpt lat="40.84491248530447" lon="9.494173626821684"><ele>89.0</ele><time>2026-03-28T08:21:48Z</time></trkpt><trkpt lat="40.84479233134362" lon="9.494076389498218"><ele>89.0</ele><time>2026-03-28T08:21:49Z</time></trkpt><trkpt lat="40.8446809968979" lon="9.493985183019415"><ele>89.0</ele><time>2026-03-28T08:21:50Z</time></trkpt><trkpt lat="40.84458215127268" lon="9.493890218817196"><ele>89.0</ele><time>2026-03-28T08:21:51Z</time></trkpt><trkpt lat="40.844502180473995" lon="9.49377736846919"><ele>89.0</ele><time>2026-03-28T08:21:52Z</time></trkpt><trkpt lat="40.844436936720506" lon="9.4936310726772"><ele>89.0</ele><time>2026-03-28T08:21:53Z</time></trkpt><trkpt lat="40.84439483236127" lon="9.493459384773097"><ele>89.66666666666667</ele><time>2026-03-28T08:21:54Z</time></trkpt><trkpt lat="40.84435789819296" lon="9.493269251146"><ele>90.33333333333333</ele><time>2026-03-28T08:21:55Z</time></trkpt><trkpt lat="40.84431980548425" lon="9.493067606882141"><ele>91.0</ele><time>2026-03-28T08:21:56Z</time></trkpt><trkpt lat="40.84428487927394" lon="9.492869437133995"><ele>87.0</ele><time>2026-03-28T08:21:57Z</time></trkpt><trkpt lat="40.844245493125285" lon="9.49266537284256"><ele>83.0</ele><time>2026-03-28T08:21:58Z</time></trkpt><trkpt lat="40.844202478300105" lon="9.492469794943165"><ele>79.0</ele><time>2026-03-28T08:21:59Z</time></trkpt><trkpt lat="40.84416328600059" lon="9.492280666475851"><ele>79.33333333333333</ele><time>2026-03-28T08:22:00Z</time></trkpt><trkpt lat="40.8441218617655" lon="9.492083070742591"><ele>79.66666666666667</ele><time>2026-03-28T08:22:01Z</time></trkpt><trkpt lat="40.84407894979043" lon="9.491881934952453"><ele>80.0</ele><time>2026-03-28T08:22:02Z</time></trkpt><trkpt lat="40.84403641322286" lon="9.491678006356832"><ele>80.0</ele><time>2026-03-28T08:22:03Z</time></trkpt><trkpt lat="40.843995173083776" lon="9.491481414990353"><ele>80.0</ele><time>2026-03-28T08:22:04Z</time></trkpt><trkpt lat="40.84395368728411" lon="9.491290757951633"><ele>80.0</ele><time>2026-03-28T08:22:05Z</time></trkpt><trkpt lat="40.84391756708737" lon="9.491111547326359"><ele>80.0</ele><time>2026-03-28T08:22:06Z</time></trkpt><trkpt lat="40.843879397251335" lon="9.490944845707574"><ele>79.25</ele><time>2026-03-28T08:22:07Z</time></trkpt><trkpt lat="40.84382550576397" lon="9.490790136743211"><ele>78.5</ele><time>2026-03-28T08:22:07.999Z</time></trkpt><trkpt lat="40.84375430439851" lon="9.490647866053765"><ele>77.75</ele><time>2026-03-28T08:22:08.999Z</time></trkpt><trkpt lat="40.8436630381226" lon="9.490533888779517"><ele>77.0</ele><time>2026-03-28T08:22:09.999Z</time></trkpt><trkpt lat="40.843541540634924" lon="9.490440805980441"><ele>75.33333333333334</ele><time>2026-03-28T08:22:10.999Z</time></trkpt><trkpt lat="40.84338874635253" lon="9.49035661815954"><ele>73.66666666666667</ele><time>2026-03-28T08:22:11.999Z</time></trkpt><trkpt lat="40.84321509409874" lon="9.490274177346286"><ele>72.0</ele><time>2026-03-28T08:22:12.999Z</time></trkpt><trkpt lat="40.84302837831894" lon="9.490185069513576"><ele>72.0</ele><time>2026-03-28T08:22:13.999Z</time></trkpt><trkpt lat="40.84284687039036" lon="9.49008363804931"><ele>72.0</ele><time>2026-03-28T08:22:14.999Z</time></trkpt><trkpt lat="40.84267281656831" lon="9.489988849741515"><ele>72.0</ele><time>2026-03-28T08:22:15.999Z</time></trkpt><trkpt lat="40.842508808749315" lon="9.489903864885575"><ele>69.0</ele><time>2026-03-28T08:22:16.999Z</time></trkpt><trkpt lat="40.84235079500325" lon="9.48982218689188"><ele>66.0</ele><time>2026-03-28T08:22:17.999Z</time></trkpt><trkpt lat="40.84218598660817" lon="9.489722760362067"><ele>63.0</ele><time>2026-03-28T08:22:18.999Z</time></trkpt><trkpt lat="40.842016538953075" lon="9.489599265120328"><ele>63.0</ele><time>2026-03-28T08:22:19.999Z</time></trkpt><trkpt lat="40.84185495955109" lon="9.489460968313702"><ele>63.0</ele><time>2026-03-28T08:22:20.999Z</time></trkpt><trkpt lat="40.841695129203" lon="9.489299788040194"><ele>63.0</ele><time>2026-03-28T08:22:21.999Z</time></trkpt><trkpt lat="40.84153505146816" lon="9.48913629924395"><ele>62.33333333333333</ele><time>2026-03-28T08:22:22.999Z</time></trkpt><trkpt lat="40.84137257325252" lon="9.488974718940186"><ele>61.666666666666664</ele><time>2026-03-28T08:22:23.999Z</time></trkpt><trkpt lat="40.84120826197047" lon="9.488815436756674"><ele>61.0</ele><time>2026-03-28T08:22:24.999Z</time></trkpt><trkpt lat="40.8410458874927" lon="9.488654215420802"><ele>60.666666666666664</ele><time>2026-03-28T08:22:25.999Z</time></trkpt><trkpt lat="40.840883132327626" lon="9.488494428024724"><ele>60.33333333333333</ele><time>2026-03-28T08:22:26.999Z</time></trkpt><trkpt lat="40.84073725363879" lon="9.488320991425502"><ele>60.0</ele><time>2026-03-28T08:22:27.999Z</time></trkpt><trkpt lat="40.84059886931659" lon="9.488180083737095"><ele>60.0</ele><time>2026-03-28T08:22:28.999Z</time></trkpt><trkpt lat="40.84048748969184" lon="9.488040097233942"><ele>60.0</ele><time>2026-03-28T08:22:29.999Z</time></trkpt><trkpt lat="40.84039451113893" lon="9.487877288644603"><ele>60.0</ele><time>2026-03-28T08:22:30.999Z</time></trkpt><trkpt lat="40.84031249325075" lon="9.487677686366242"><ele>60.0</ele><time>2026-03-28T08:22:31.999Z</time></trkpt><trkpt lat="40.84025989247107" lon="9.487449767816235"><ele>60.0</ele><time>2026-03-28T08:22:32.999Z</time></trkpt><trkpt lat="40.84022874935019" lon="9.487200219701633"><ele>60.0</ele><time>2026-03-28T08:22:33.999Z</time></trkpt><trkpt lat="40.840205288905565" lon="9.486928238572924"><ele>59.66666666666667</ele><time>2026-03-28T08:22:34.999Z</time></trkpt><trkpt lat="40.84018326565551" lon="9.486655093119289"><ele>59.333333333333336</ele><time>2026-03-28T08:22:35.999Z</time></trkpt><trkpt lat="40.840160447657524" lon="9.486376096541942"><ele>59.0</ele><time>2026-03-28T08:22:36.999Z</time></trkpt><trkpt lat="40.84013854188367" lon="9.486109071610011"><ele>60.0</ele><time>2026-03-28T08:22:37.999Z</time></trkpt><trkpt lat="40.84011925561335" lon="9.485873977633496"><ele>61.0</ele><time>2026-03-28T08:22:38.999Z</time></trkpt><trkpt lat="40.84009999777386" lon="9.485638258644606"><ele>62.0</ele><time>2026-03-28T08:22:39.999Z</time></trkpt><trkpt lat="40.840081489239466" lon="9.485411048779637"><ele>62.0</ele><time>2026-03-28T08:22:40.999Z</time></trkpt><trkpt lat="40.840061801415935" lon="9.485169361962633"><ele>62.0</ele><time>2026-03-28T08:22:41.999Z</time></trkpt><trkpt lat="40.84004066182194" lon="9.484909853314525"><ele>62.0</ele><time>2026-03-28T08:22:42.999Z</time></trkpt><trkpt lat="40.8400188085341" lon="9.484641583360773"><ele>62.333333333333336</ele><time>2026-03-28T08:22:43.999Z</time></trkpt><trkpt lat="40.83999716565799" lon="9.484375896456362"><ele>62.66666666666667</ele><time>2026-03-28T08:22:44.999Z</time></trkpt><trkpt lat="40.83997682827643" lon="9.48412623573145"><ele>63.0</ele><time>2026-03-28T08:22:45.999Z</time></trkpt><trkpt lat="40.8399555393643" lon="9.483864593880178"><ele>63.0</ele><time>2026-03-28T08:22:46.999Z</time></trkpt><trkpt lat="40.83993399054129" lon="9.48359822645958"><ele>63.0</ele><time>2026-03-28T08:22:47.999Z</time></trkpt><trkpt lat="40.839912187661916" lon="9.483331617322223"><ele>63.0</ele><time>2026-03-28T08:22:48.999Z</time></trkpt><trkpt lat="40.83989007773784" lon="9.48306712428902"><ele>63.0</ele><time>2026-03-28T08:22:49.999Z</time></trkpt><trkpt lat="40.83986881639996" lon="9.482812782599021"><ele>63.0</ele><time>2026-03-28T08:22:50.999Z</time></trkpt><trkpt lat="40.83984543734852" lon="9.482533107403482"><ele>63.0</ele><time>2026-03-28T08:22:51.999Z</time></trkpt><trkpt lat="40.83982177221243" lon="9.482250009969212"><ele>63.66666666666667</ele><time>2026-03-28T08:22:52.999Z</time></trkpt><trkpt lat="40.839799450805316" lon="9.481982987042546"><ele>64.33333333333334</ele><time>2026-03-28T08:22:54Z</time></trkpt><trkpt lat="40.83977785572069" lon="9.481725091347384"><ele>65.0</ele><time>2026-03-28T08:22:55Z</time></trkpt><trkpt lat="40.83975638186311" lon="9.481468803218114"><ele>65.0</ele><time>2026-03-28T08:22:56Z</time></trkpt><trkpt lat="40.83973471500283" lon="9.481210211574158"><ele>65.0</ele><time>2026-03-28T08:22:57Z</time></trkpt><trkpt lat="40.839713483911574" lon="9.480959514570198"><ele>65.0</ele><time>2026-03-28T08:22:58Z</time></trkpt><trkpt lat="40.83969138847241" lon="9.480702039724301"><ele>65.0</ele><time>2026-03-28T08:22:59Z</time></trkpt><trkpt lat="40.8396706099785" lon="9.48045991112557"><ele>65.0</ele><time>2026-03-28T08:23:00Z</time></trkpt><trkpt lat="40.83964869560964" lon="9.480191699702864"><ele>65.0</ele><time>2026-03-28T08:23:01Z</time></trkpt><trkpt lat="40.83962510972721" lon="9.479935395649514"><ele>65.66666666666667</ele><time>2026-03-28T08:23:02Z</time></trkpt><trkpt lat="40.83960386311748" lon="9.479701469164981"><ele>66.33333333333333</ele><time>2026-03-28T08:23:03Z</time></trkpt><trkpt lat="40.83957943798126" lon="9.479480725957787"><ele>67.0</ele><time>2026-03-28T08:23:04Z</time></trkpt><trkpt lat="40.83952207478031" lon="9.479258119680452"><ele>68.33333333333333</ele><time>2026-03-28T08:23:05Z</time></trkpt><trkpt lat="40.83947522079377" lon="9.47903475426577"><ele>69.66666666666667</ele><time>2026-03-28T08:23:06Z</time></trkpt><trkpt lat="40.8393656869412" lon="9.478844096504794"><ele>71.0</ele><time>2026-03-28T08:23:07Z</time></trkpt><trkpt lat="40.83925857690781" lon="9.478654835344274"><ele>73.0</ele><time>2026-03-28T08:23:08Z</time></trkpt><trkpt lat="40.83912370546573" lon="9.47846442315101"><ele>75.0</ele><time>2026-03-28T08:23:09Z</time></trkpt><trkpt lat="40.83896379924788" lon="9.47828125349991"><ele>77.0</ele><time>2026-03-28T08:23:10Z</time></trkpt><trkpt lat="40.838805294796046" lon="9.478071450415749"><ele>75.66666666666667</ele><time>2026-03-28T08:23:11Z</time></trkpt><trkpt lat="40.83865008151352" lon="9.477882978093735"><ele>74.33333333333333</ele><time>2026-03-28T08:23:12Z</time></trkpt><trkpt lat="40.83850556541011" lon="9.477707722989573"><ele>73.0</ele><time>2026-03-28T08:23:13Z</time></trkpt><trkpt lat="40.83837137219504" lon="9.477545296035583"><ele>75.33333333333333</ele><time>2026-03-28T08:23:14Z</time></trkpt><trkpt lat="40.83822523932384" lon="9.477368417411775"><ele>77.66666666666667</ele><time>2026-03-28T08:23:15Z</time></trkpt><trkpt lat="40.83808600650337" lon="9.477199930317235"><ele>80.0</ele><time>2026-03-28T08:23:16Z</time></trkpt><trkpt lat="40.83794188030597" lon="9.477025616266442"><ele>80.0</ele><time>2026-03-28T08:23:17Z</time></trkpt><trkpt lat="40.837803378710255" lon="9.476856773203039"><ele>80.0</ele><time>2026-03-28T08:23:18Z</time></trkpt><trkpt lat="40.837685903832536" lon="9.476694455553572"><ele>80.0</ele><time>2026-03-28T08:23:19Z</time></trkpt><trkpt lat="40.83758666268846" lon="9.476512692283418"><ele>83.33333333333334</ele><time>2026-03-28T08:23:20Z</time></trkpt><trkpt lat="40.83749679967886" lon="9.476289165244866"><ele>86.66666666666667</ele><time>2026-03-28T08:23:21Z</time></trkpt><trkpt lat="40.83741640157943" lon="9.476047191719463"><ele>90.0</ele><time>2026-03-28T08:23:22Z</time></trkpt><trkpt lat="40.837336611340774" lon="9.47580608875362"><ele>90.0</ele><time>2026-03-28T08:23:23Z</time></trkpt><trkpt lat="40.83726037588496" lon="9.475574255681554"><ele>90.0</ele><time>2026-03-28T08:23:24Z</time></trkpt><trkpt lat="40.83718097354776" lon="9.47533279206807"><ele>90.0</ele><time>2026-03-28T08:23:25Z</time></trkpt><trkpt lat="40.83710867730764" lon="9.475112938188875"><ele>89.66666666666667</ele><time>2026-03-28T08:23:26Z</time></trkpt><trkpt lat="40.83703447324692" lon="9.474887282598132"><ele>89.33333333333334</ele><time>2026-03-28T08:23:27Z</time></trkpt><trkpt lat="40.83696312267117" lon="9.474664705567323"><ele>89.0</ele><time>2026-03-28T08:23:28Z</time></trkpt><trkpt lat="40.83690916770462" lon="9.474456378208435"><ele>90.0</ele><time>2026-03-28T08:23:29Z</time></trkpt><trkpt lat="40.8368699565659" lon="9.474259273113748"><ele>91.0</ele><time>2026-03-28T08:23:30Z</time></trkpt><trkpt lat="40.83684243860065" lon="9.474068447934359"><ele>92.0</ele><time>2026-03-28T08:23:31Z</time></trkpt><trkpt lat="40.83682292909551" lon="9.473889721246838"><ele>93.0</ele><time>2026-03-28T08:23:32Z</time></trkpt><trkpt lat="40.83681805202423" lon="9.473704598641309"><ele>93.4</ele><time>2026-03-28T08:23:33Z</time></trkpt><trkpt lat="40.836808189000706" lon="9.473531419056204"><ele>93.80000000000001</ele><time>2026-03-28T08:23:34Z</time></trkpt><trkpt lat="40.8368385805274" lon="9.473398260776603"><ele>94.2</ele><time>2026-03-28T08:23:35Z</time></trkpt><trkpt lat="40.83687831230296" lon="9.473299674964942"><ele>94.6</ele><time>2026-03-28T08:23:36Z</time></trkpt><trkpt lat="40.83690238168794" lon="9.47320218496847"><ele>95.0</ele><time>2026-03-28T08:23:37Z</time></trkpt><trkpt lat="40.836892608350205" lon="9.473114612300577"><ele>95.0</ele><time>2026-03-28T08:23:38Z</time></trkpt><trkpt lat="40.83684450115248" lon="9.473014445015759"><ele>95.0</ele><time>2026-03-28T08:23:39Z</time></trkpt><trkpt lat="40.836770950675216" lon="9.472900935220911"><ele>95.0</ele><time>2026-03-28T08:23:40Z</time></trkpt><trkpt lat="40.836718358989266" lon="9.472782118506405"><ele>95.0</ele><time>2026-03-28T08:23:41Z</time></trkpt><trkpt lat="40.83670784888034" lon="9.472646329875447"><ele>95.0</ele><time>2026-03-28T08:23:42Z</time></trkpt><trkpt lat="40.83667719944925" lon="9.472502520466417"><ele>99.33333333333334</ele><time>2026-03-28T08:23:43Z</time></trkpt><trkpt lat="40.83664360915473" lon="9.472333775971808"><ele>103.66666666666667</ele><time>2026-03-28T08:23:44Z</time></trkpt><trkpt lat="40.83661461080426" lon="9.472148118094342"><ele>108.0</ele><time>2026-03-28T08:23:45Z</time></trkpt><trkpt lat="40.83658600816946" lon="9.47191151935407"><ele>109.33333333333334</ele><time>2026-03-28T08:23:46Z</time></trkpt><trkpt lat="40.83655452521999" lon="9.471649775306606"><ele>110.66666666666667</ele><time>2026-03-28T08:23:47Z</time></trkpt><trkpt lat="40.83651932854265" lon="9.471361576225712"><ele>112.0</ele><time>2026-03-28T08:23:48Z</time></trkpt><trkpt lat="40.836468774512106" lon="9.471068824482098"><ele>112.0</ele><time>2026-03-28T08:23:49Z</time></trkpt><trkpt lat="40.83643698126793" lon="9.470757793602262"><ele>112.0</ele><time>2026-03-28T08:23:50Z</time></trkpt><trkpt lat="40.836400777520794" lon="9.470467765240581"><ele>112.66666666666667</ele><time>2026-03-28T08:23:51Z</time></trkpt><trkpt lat="40.83636591275041" lon="9.470213827408044"><ele>113.33333333333334</ele><time>2026-03-28T08:23:52Z</time></trkpt><trkpt lat="40.83634268942827" lon="9.469976618479132"><ele>114.0</ele><time>2026-03-28T08:23:53Z</time></trkpt><trkpt lat="40.83625579739064" lon="9.469742314524463"><ele>114.0</ele><time>2026-03-28T08:23:54Z</time></trkpt><trkpt lat="40.83617102672916" lon="9.469490449092515"><ele>114.0</ele><time>2026-03-28T08:23:55Z</time></trkpt><trkpt lat="40.83606126235182" lon="9.469247388809881"><ele>114.0</ele><time>2026-03-28T08:23:56Z</time></trkpt><trkpt lat="40.835980924658536" lon="9.469036169515059"><ele>119.33333333333334</ele><time>2026-03-28T08:23:57Z</time></trkpt><trkpt lat="40.835952277045706" lon="9.468824373931419"><ele>124.66666666666667</ele><time>2026-03-28T08:23:58Z</time></trkpt><trkpt lat="40.83593340912265" lon="9.468596253700406"><ele>130.0</ele><time>2026-03-28T08:23:59Z</time></trkpt><trkpt lat="40.835872217295666" lon="9.468409277478273"><ele>130.66666666666669</ele><time>2026-03-28T08:24:00Z</time></trkpt><trkpt lat="40.835800604676876" lon="9.468212720424825"><ele>131.33333333333334</ele><time>2026-03-28T08:24:01Z</time></trkpt><trkpt lat="40.83568505633355" lon="9.467988035332622"><ele>132.0</ele><time>2026-03-28T08:24:02Z</time></trkpt><trkpt lat="40.83556906188302" lon="9.467731588174791"><ele>130.33333333333334</ele><time>2026-03-28T08:24:03Z</time></trkpt><trkpt lat="40.835456791575886" lon="9.467501496784545"><ele>128.66666666666669</ele><time>2026-03-28T08:24:04Z</time></trkpt><trkpt lat="40.83536006112951" lon="9.467304552573792"><ele>127.0</ele><time>2026-03-28T08:24:05Z</time></trkpt><trkpt lat="40.835251352417075" lon="9.4671584542766"><ele>125.66666666666667</ele><time>2026-03-28T08:24:06Z</time></trkpt><trkpt lat="40.835148181249046" lon="9.466998773888896"><ele>124.33333333333334</ele><time>2026-03-28T08:24:07Z</time></trkpt><trkpt lat="40.83497951257193" lon="9.46689749541891"><ele>123.0</ele><time>2026-03-28T08:24:08Z</time></trkpt><trkpt lat="40.83479234605507" lon="9.466801664387159"><ele>126.33333333333334</ele><time>2026-03-28T08:24:09Z</time></trkpt><trkpt lat="40.83458442825169" lon="9.466714733029647"><ele>129.66666666666669</ele><time>2026-03-28T08:24:10Z</time></trkpt><trkpt lat="40.834378251968516" lon="9.466618564956006"><ele>133.0</ele><time>2026-03-28T08:24:11Z</time></trkpt><trkpt lat="40.834196785715136" lon="9.466531161215176"><ele>137.75</ele><time>2026-03-28T08:24:12Z</time></trkpt><trkpt lat="40.834044604626655" lon="9.466463351455312"><ele>142.5</ele><time>2026-03-28T08:24:13Z</time></trkpt><trkpt lat="40.83390735077181" lon="9.466424848712727"><ele>147.25</ele><time>2026-03-28T08:24:14Z</time></trkpt><trkpt lat="40.8337784579917" lon="9.466424438492234"><ele>152.0</ele><time>2026-03-28T08:24:15Z</time></trkpt><trkpt lat="40.83363000157544" lon="9.466452243599694"><ele>152.0</ele><time>2026-03-28T08:24:16Z</time></trkpt><trkpt lat="40.83349555995631" lon="9.466477967129096"><ele>152.0</ele><time>2026-03-28T08:24:17Z</time></trkpt><trkpt lat="40.83339503010866" lon="9.46643214883989"><ele>152.0</ele><time>2026-03-28T08:24:18Z</time></trkpt><trkpt lat="40.83332800159717" lon="9.466347102332247"><ele>152.0</ele><time>2026-03-28T08:24:19Z</time></trkpt><trkpt lat="40.83328800956455" lon="9.466232818847034"><ele>152.0</ele><time>2026-03-28T08:24:19.999Z</time></trkpt><trkpt lat="40.83326865056648" lon="9.46608951350475"><ele>151.66666666666666</ele><time>2026-03-28T08:24:20.999Z</time></trkpt><trkpt lat="40.833246766333815" lon="9.46589721603634"><ele>151.33333333333334</ele><time>2026-03-28T08:24:21.999Z</time></trkpt><trkpt lat="40.83321651529557" lon="9.465661955147825"><ele>151.0</ele><time>2026-03-28T08:24:22.999Z</time></trkpt><trkpt lat="40.8331711170451" lon="9.46540890395146"><ele>148.0</ele><time>2026-03-28T08:24:23.999Z</time></trkpt><trkpt lat="40.83313349705463" lon="9.465120241990476"><ele>145.0</ele><time>2026-03-28T08:24:24.999Z</time></trkpt><trkpt lat="40.833103160933945" lon="9.464811277996311"><ele>143.0</ele><time>2026-03-28T08:24:25.999Z</time></trkpt><trkpt lat="40.833041836334495" lon="9.464506646848497"><ele>141.0</ele><time>2026-03-28T08:24:26.999Z</time></trkpt><trkpt lat="40.8329627413754" lon="9.464209324559192"><ele>141.0</ele><time>2026-03-28T08:24:27.999Z</time></trkpt><trkpt lat="40.832945976903744" lon="9.46391739316658"><ele>141.0</ele><time>2026-03-28T08:24:28.999Z</time></trkpt><trkpt lat="40.83287792719524" lon="9.46361920863941"><ele>141.0</ele><time>2026-03-28T08:24:29.999Z</time></trkpt><trkpt lat="40.83279743736139" lon="9.463326727652579"><ele>141.0</ele><time>2026-03-28T08:24:30.999Z</time></trkpt><trkpt lat="40.832742214301085" lon="9.463057302576596"><ele>141.0</ele><time>2026-03-28T08:24:31.999Z</time></trkpt><trkpt lat="40.832698604006524" lon="9.462818068324754"><ele>142.33333333333334</ele><time>2026-03-28T08:24:32.999Z</time></trkpt><trkpt lat="40.83266213827789" lon="9.462599984691051"><ele>143.66666666666669</ele><time>2026-03-28T08:24:33.999Z</time></trkpt><trkpt lat="40.83261707158423" lon="9.462393122484428"><ele>145.0</ele><time>2026-03-28T08:24:34.999Z</time></trkpt><trkpt lat="40.832544075655015" lon="9.462197247724793"><ele>153.33333333333334</ele><time>2026-03-28T08:24:35.999Z</time></trkpt><trkpt lat="40.83243455497902" lon="9.461983367560148"><ele>161.66666666666666</ele><time>2026-03-28T08:24:36.999Z</time></trkpt><trkpt lat="40.8323072500263" lon="9.461756839699625"><ele>170.0</ele><time>2026-03-28T08:24:37.999Z</time></trkpt><trkpt lat="40.832169680368644" lon="9.461507235873327"><ele>166.66666666666666</ele><time>2026-03-28T08:24:38.999Z</time></trkpt><trkpt lat="40.83203150418297" lon="9.461249660249033"><ele>163.33333333333334</ele><time>2026-03-28T08:24:39.999Z</time></trkpt><trkpt lat="40.83191275681683" lon="9.461022352183614"><ele>160.0</ele><time>2026-03-28T08:24:40.999Z</time></trkpt><trkpt lat="40.83180938531935" lon="9.460827956305607"><ele>162.75</ele><time>2026-03-28T08:24:41.999Z</time></trkpt><trkpt lat="40.831721835173106" lon="9.460673422030169"><ele>165.5</ele><time>2026-03-28T08:24:42.999Z</time></trkpt><trkpt lat="40.83163550798416" lon="9.460553771469485"><ele>168.25</ele><time>2026-03-28T08:24:43.999Z</time></trkpt><trkpt lat="40.831526718362895" lon="9.46045250517921"><ele>171.0</ele><time>2026-03-28T08:24:44.999Z</time></trkpt><trkpt lat="40.83138442323544" lon="9.460373501408888"><ele>171.0</ele><time>2026-03-28T08:24:45.999Z</time></trkpt><trkpt lat="40.83123186949286" lon="9.4602776611147"><ele>171.0</ele><time>2026-03-28T08:24:46.999Z</time></trkpt><trkpt lat="40.83110037796044" lon="9.460144789547822"><ele>171.0</ele><time>2026-03-28T08:24:47.999Z</time></trkpt><trkpt lat="40.83098747344735" lon="9.459972059698392"><ele>173.66666666666666</ele><time>2026-03-28T08:24:48.999Z</time></trkpt><trkpt lat="40.83087590009581" lon="9.459767937895137"><ele>176.33333333333331</ele><time>2026-03-28T08:24:49.999Z</time></trkpt><trkpt lat="40.83074581694702" lon="9.459564810601757"><ele>179.0</ele><time>2026-03-28T08:24:50.999Z</time></trkpt><trkpt lat="40.8306379726482" lon="9.459378563503021"><ele>179.0</ele><time>2026-03-28T08:24:51.999Z</time></trkpt><trkpt lat="40.83052799711589" lon="9.459234419238422"><ele>179.0</ele><time>2026-03-28T08:24:52.999Z</time></trkpt><trkpt lat="40.83039023603722" lon="9.459102527497114"><ele>179.0</ele><time>2026-03-28T08:24:53.999Z</time></trkpt><trkpt lat="40.83022263742434" lon="9.458977414297996"><ele>181.5</ele><time>2026-03-28T08:24:54.999Z</time></trkpt><trkpt lat="40.830022727251055" lon="9.458859243080699"><ele>184.0</ele><time>2026-03-28T08:24:55.999Z</time></trkpt><trkpt lat="40.829806627691234" lon="9.458748093574863"><ele>184.0</ele><time>2026-03-28T08:24:56.999Z</time></trkpt><trkpt lat="40.82960219288857" lon="9.45864710385403"><ele>184.0</ele><time>2026-03-28T08:24:57.999Z</time></trkpt><trkpt lat="40.829425114978456" lon="9.45856546360038"><ele>184.0</ele><time>2026-03-28T08:24:58.999Z</time></trkpt><trkpt lat="40.82928326724266" lon="9.458477566981646"><ele>189.75</ele><time>2026-03-28T08:25:00Z</time></trkpt><trkpt lat="40.82916918298263" lon="9.458389383485484"><ele>195.5</ele><time>2026-03-28T08:25:01Z</time></trkpt><trkpt lat="40.82908295108504" lon="9.458262522773884"><ele>201.25</ele><time>2026-03-28T08:25:02Z</time></trkpt><trkpt lat="40.82899068266844" lon="9.458112119473288"><ele>207.0</ele><time>2026-03-28T08:25:03Z</time></trkpt><trkpt lat="40.82893633445103" lon="9.45796410826723"><ele>206.0</ele><time>2026-03-28T08:25:04Z</time></trkpt><trkpt lat="40.82894135851407" lon="9.457810032701111"><ele>205.0</ele><time>2026-03-28T08:25:05Z</time></trkpt><trkpt lat="40.82896495140258" lon="9.457619005056962"><ele>204.0</ele><time>2026-03-28T08:25:06Z</time></trkpt><trkpt lat="40.82897961331899" lon="9.457426417175917"><ele>203.0</ele><time>2026-03-28T08:25:07Z</time></trkpt><trkpt lat="40.828961498726066" lon="9.457271307775747"><ele>206.0</ele><time>2026-03-28T08:25:08Z</time></trkpt><trkpt lat="40.82893185113546" lon="9.457107172629389"><ele>209.0</ele><time>2026-03-28T08:25:09Z</time></trkpt><trkpt lat="40.82883189918993" lon="9.456933103585687"><ele>212.0</ele><time>2026-03-28T08:25:10Z</time></trkpt><trkpt lat="40.828734306644876" lon="9.456744496929483"><ele>212.0</ele><time>2026-03-28T08:25:11Z</time></trkpt><trkpt lat="40.828706161647226" lon="9.456565422360578"><ele>212.0</ele><time>2026-03-28T08:25:12Z</time></trkpt><trkpt lat="40.828709592150396" lon="9.456414896724285"><ele>212.0</ele><time>2026-03-28T08:25:13Z</time></trkpt><trkpt lat="40.82870687140187" lon="9.456240548028427"><ele>212.0</ele><time>2026-03-28T08:25:14Z</time></trkpt><trkpt lat="40.828676090629266" lon="9.456099308769677"><ele>214.8</ele><time>2026-03-28T08:25:15Z</time></trkpt><trkpt lat="40.82862621815701" lon="9.455995778991355"><ele>217.6</ele><time>2026-03-28T08:25:16Z</time></trkpt><trkpt lat="40.82856130374215" lon="9.45589877379107"><ele>220.40000000000003</ele><time>2026-03-28T08:25:17Z</time></trkpt><trkpt lat="40.82844682681211" lon="9.455885199473373"><ele>223.20000000000002</ele><time>2026-03-28T08:25:18Z</time></trkpt><trkpt lat="40.82835878555768" lon="9.455909316110635"><ele>226.0</ele><time>2026-03-28T08:25:19Z</time></trkpt><trkpt lat="40.82827637569449" lon="9.455963610165325"><ele>226.0</ele><time>2026-03-28T08:25:20Z</time></trkpt><trkpt lat="40.82819605234793" lon="9.456068742063254"><ele>226.0</ele><time>2026-03-28T08:25:21Z</time></trkpt><trkpt lat="40.82814258460889" lon="9.45620667196836"><ele>226.0</ele><time>2026-03-28T08:25:22Z</time></trkpt><trkpt lat="40.82812222990498" lon="9.456374706228102"><ele>226.0</ele><time>2026-03-28T08:25:23Z</time></trkpt><trkpt lat="40.8281246111691" lon="9.456588124140989"><ele>226.0</ele><time>2026-03-28T08:25:24Z</time></trkpt><trkpt lat="40.82809515547365" lon="9.456800247772483"><ele>226.0</ele><time>2026-03-28T08:25:25Z</time></trkpt><trkpt lat="40.8280273676864" lon="9.456970596514543"><ele>226.0</ele><time>2026-03-28T08:25:26Z</time></trkpt><trkpt lat="40.827903811423425" lon="9.45708613870393"><ele>226.0</ele><time>2026-03-28T08:25:27Z</time></trkpt><trkpt lat="40.82779263741911" lon="9.457174083517147"><ele>226.0</ele><time>2026-03-28T08:25:28Z</time></trkpt><trkpt lat="40.827660142811844" lon="9.457221818099761"><ele>226.0</ele><time>2026-03-28T08:25:29Z</time></trkpt><trkpt lat="40.82751768018173" lon="9.457220239226046"><ele>226.0</ele><time>2026-03-28T08:25:30Z</time></trkpt><trkpt lat="40.82736955359176" lon="9.457167723879724"><ele>228.66666666666666</ele><time>2026-03-28T08:25:31Z</time></trkpt><trkpt lat="40.8272494974146" lon="9.457058786683394"><ele>231.33333333333331</ele><time>2026-03-28T08:25:32Z</time></trkpt><trkpt lat="40.82709620585777" lon="9.456921633625196"><ele>234.0</ele><time>2026-03-28T08:25:33Z</time></trkpt><trkpt lat="40.82692738512164" lon="9.456774093039588"><ele>237.33333333333331</ele><time>2026-03-28T08:25:34Z</time></trkpt><trkpt lat="40.82674817172681" lon="9.45664183423116"><ele>240.66666666666666</ele><time>2026-03-28T08:25:35Z</time></trkpt><trkpt lat="40.82655955625744" lon="9.456458631314263"><ele>244.0</ele><time>2026-03-28T08:25:36Z</time></trkpt><trkpt lat="40.826363601194295" lon="9.456331324240598"><ele>246.0</ele><time>2026-03-28T08:25:37Z</time></trkpt><trkpt lat="40.82620862875853" lon="9.456195997057346"><ele>248.0</ele><time>2026-03-28T08:25:38Z</time></trkpt><trkpt lat="40.82606368705102" lon="9.45608707655652"><ele>250.0</ele><time>2026-03-28T08:25:39Z</time></trkpt><trkpt lat="40.82594515226581" lon="9.456000550184314"><ele>249.99999999999997</ele><time>2026-03-28T08:25:40Z</time></trkpt><trkpt lat="40.82583354390349" lon="9.455940131036435"><ele>250.0</ele><time>2026-03-28T08:25:41Z</time></trkpt><trkpt lat="40.825749342577474" lon="9.455858892471099"><ele>250.0</ele><time>2026-03-28T08:25:42Z</time></trkpt><trkpt lat="40.8256823182981" lon="9.455791538295415"><ele>250.0</ele><time>2026-03-28T08:25:43Z</time></trkpt><trkpt lat="40.82562028872246" lon="9.455744973286919"><ele>249.99999999999997</ele><time>2026-03-28T08:25:44Z</time></trkpt><trkpt lat="40.82555939484403" lon="9.455715558352855"><ele>250.0</ele><time>2026-03-28T08:25:46Z</time></trkpt><trkpt lat="40.825465128341285" lon="9.455665116681736"><ele>249.99999999999997</ele><time>2026-03-28T08:27:11Z</time></trkpt><trkpt lat="40.82544445288655" lon="9.455534362014697"><ele>250.0</ele><time>2026-03-28T08:27:13Z</time></trkpt><trkpt lat="40.82538290288327" lon="9.455400404180567"><ele>250.0</ele><time>2026-03-28T08:27:15Z</time></trkpt><trkpt lat="40.825346179518036" lon="9.455322734029254"><ele>250.0</ele><time>2026-03-28T08:27:16Z</time></trkpt><trkpt lat="40.825309806944006" lon="9.455240661763087"><ele>249.99999999999997</ele><time>2026-03-28T08:27:17Z</time></trkpt><trkpt lat="40.82526975600955" lon="9.455145051460892"><ele>250.0</ele><time>2026-03-28T08:27:18Z</time></trkpt><trkpt lat="40.82522695626199" lon="9.455026425746066"><ele>250.6</ele><time>2026-03-28T08:27:19Z</time></trkpt><trkpt lat="40.82518565246512" lon="9.454891332190092"><ele>251.2</ele><time>2026-03-28T08:27:20Z</time></trkpt><trkpt lat="40.82515120016809" lon="9.45478383471054"><ele>251.8</ele><time>2026-03-28T08:27:21Z</time></trkpt><trkpt lat="40.82511114501226" lon="9.454683487012367"><ele>252.4</ele><time>2026-03-28T08:27:22Z</time></trkpt><trkpt lat="40.82506576527191" lon="9.45458382773421"><ele>253.0</ele><time>2026-03-28T08:27:23Z</time></trkpt><trkpt lat="40.825012239077665" lon="9.45449482738443"><ele>253.0</ele><time>2026-03-28T08:27:24Z</time></trkpt><trkpt lat="40.82493674072831" lon="9.454413533133474"><ele>253.0</ele><time>2026-03-28T08:27:25Z</time></trkpt><trkpt lat="40.8248373949639" lon="9.454365104648895"><ele>253.0</ele><time>2026-03-28T08:27:26Z</time></trkpt><trkpt lat="40.82475342962946" lon="9.454330563843692"><ele>253.0</ele><time>2026-03-28T08:27:27Z</time></trkpt><trkpt lat="40.8246480807411" lon="9.454284388787597"><ele>253.0</ele><time>2026-03-28T08:27:28Z</time></trkpt><trkpt lat="40.82454625209433" lon="9.454236545419592"><ele>253.0</ele><time>2026-03-28T08:27:29Z</time></trkpt><trkpt lat="40.824470320311626" lon="9.454188819410069"><ele>253.0</ele><time>2026-03-28T08:27:30Z</time></trkpt><trkpt lat="40.82439599093769" lon="9.454136429904377"><ele>253.0</ele><time>2026-03-28T08:27:31Z</time></trkpt><trkpt lat="40.82433200289828" lon="9.454025496980599"><ele>253.0</ele><time>2026-03-28T08:27:32Z</time></trkpt><trkpt lat="40.824249246162985" lon="9.453915399884691"><ele>253.0</ele><time>2026-03-28T08:27:33Z</time></trkpt><trkpt lat="40.82417146286601" lon="9.453829826376825"><ele>250.8</ele><time>2026-03-28T08:27:34Z</time></trkpt><trkpt lat="40.82408814716177" lon="9.453777810274753"><ele>248.60000000000002</ele><time>2026-03-28T08:27:35Z</time></trkpt><trkpt lat="40.82401613041122" lon="9.453722693043591"><ele>246.39999999999998</ele><time>2026-03-28T08:27:36Z</time></trkpt><trkpt lat="40.82394296494819" lon="9.453674825102999"><ele>244.2</ele><time>2026-03-28T08:27:37Z</time></trkpt><trkpt lat="40.82385700261183" lon="9.453632534075986"><ele>242.0</ele><time>2026-03-28T08:27:38Z</time></trkpt><trkpt lat="40.82373551616407" lon="9.453580867278443"><ele>242.0</ele><time>2026-03-28T08:27:39Z</time></trkpt><trkpt lat="40.82360571344952" lon="9.453467351846578"><ele>242.0</ele><time>2026-03-28T08:27:40Z</time></trkpt><trkpt lat="40.823481471115805" lon="9.45335926993602"><ele>242.0</ele><time>2026-03-28T08:27:41Z</time></trkpt><trkpt lat="40.82336592643796" lon="9.453269162467205"><ele>242.0</ele><time>2026-03-28T08:27:42Z</time></trkpt><trkpt lat="40.823245133532964" lon="9.453194576852757"><ele>241.2</ele><time>2026-03-28T08:27:43Z</time></trkpt><trkpt lat="40.82316901626308" lon="9.453073249569362"><ele>240.39999999999998</ele><time>2026-03-28T08:27:44Z</time></trkpt><trkpt lat="40.82310601277515" lon="9.452946652226101"><ele>239.60000000000002</ele><time>2026-03-28T08:27:45Z</time></trkpt><trkpt lat="40.82305506483694" lon="9.452813705769902"><ele>238.8</ele><time>2026-03-28T08:27:46Z</time></trkpt><trkpt lat="40.82298796769605" lon="9.452731178652687"><ele>238.0</ele><time>2026-03-28T08:27:47Z</time></trkpt><trkpt lat="40.82292995501284" lon="9.45267169293642"><ele>237.25</ele><time>2026-03-28T08:27:48Z</time></trkpt><trkpt lat="40.82282659512932" lon="9.452645641076511"><ele>236.5</ele><time>2026-03-28T08:27:49Z</time></trkpt><trkpt lat="40.82269447970833" lon="9.452647765496648"><ele>235.75</ele><time>2026-03-28T08:27:50Z</time></trkpt><trkpt lat="40.822522814861884" lon="9.4526243580881"><ele>235.0</ele><time>2026-03-28T08:27:51Z</time></trkpt><trkpt lat="40.82236144096" lon="9.45257617615766"><ele>233.33333333333331</ele><time>2026-03-28T08:27:52Z</time></trkpt><trkpt lat="40.82222024603747" lon="9.45251169651788"><ele>231.66666666666669</ele><time>2026-03-28T08:27:53Z</time></trkpt><trkpt lat="40.82206359253998" lon="9.452420992346203"><ele>230.0</ele><time>2026-03-28T08:27:54Z</time></trkpt><trkpt lat="40.821910196874335" lon="9.452312859367797"><ele>228.33333333333334</ele><time>2026-03-28T08:27:55Z</time></trkpt><trkpt lat="40.82178397108797" lon="9.452179086113883"><ele>226.66666666666669</ele><time>2026-03-28T08:27:56Z</time></trkpt><trkpt lat="40.8216620539306" lon="9.452014526191286"><ele>225.0</ele><time>2026-03-28T08:27:57Z</time></trkpt><trkpt lat="40.82153318863082" lon="9.45181987785509"><ele>225.0</ele><time>2026-03-28T08:27:58Z</time></trkpt><trkpt lat="40.821424208081" lon="9.451631682402558"><ele>225.0</ele><time>2026-03-28T08:27:59Z</time></trkpt><trkpt lat="40.821328339400374" lon="9.45145393410549"><ele>225.0</ele><time>2026-03-28T08:28:00Z</time></trkpt><trkpt lat="40.82122809548828" lon="9.451264696402895"><ele>225.33333333333331</ele><time>2026-03-28T08:28:01Z</time></trkpt><trkpt lat="40.82113119431405" lon="9.451060088221396"><ele>225.66666666666666</ele><time>2026-03-28T08:28:02Z</time></trkpt><trkpt lat="40.8210434013756" lon="9.450851015265492"><ele>226.0</ele><time>2026-03-28T08:28:03Z</time></trkpt><trkpt lat="40.82095519887641" lon="9.4506377004411"><ele>222.33333333333331</ele><time>2026-03-28T08:28:04Z</time></trkpt><trkpt lat="40.82085882512963" lon="9.45040464874409"><ele>218.66666666666669</ele><time>2026-03-28T08:28:05Z</time></trkpt><trkpt lat="40.8207677476431" lon="9.450184404136834"><ele>215.0</ele><time>2026-03-28T08:28:06Z</time></trkpt><trkpt lat="40.820684846031995" lon="9.449981728319406"><ele>215.0</ele><time>2026-03-28T08:28:07Z</time></trkpt><trkpt lat="40.820614273197684" lon="9.44979544518433"><ele>215.0</ele><time>2026-03-28T08:28:08Z</time></trkpt><trkpt lat="40.82056820246331" lon="9.449630381134028"><ele>215.0</ele><time>2026-03-28T08:28:09Z</time></trkpt><trkpt lat="40.820522224567966" lon="9.449430820298582"><ele>215.0</ele><time>2026-03-28T08:28:10Z</time></trkpt><trkpt lat="40.820480681513985" lon="9.449224157889109"><ele>215.2</ele><time>2026-03-28T08:28:11Z</time></trkpt><trkpt lat="40.82043979192621" lon="9.449035826026586"><ele>215.4</ele><time>2026-03-28T08:28:12Z</time></trkpt><trkpt lat="40.820398524045146" lon="9.448874055104566"><ele>215.60000000000002</ele><time>2026-03-28T08:28:13Z</time></trkpt><trkpt lat="40.8203643714733" lon="9.44876873628896"><ele>215.8</ele><time>2026-03-28T08:28:14Z</time></trkpt><trkpt lat="40.82030040369735" lon="9.448714918541084"><ele>216.0</ele><time>2026-03-28T08:28:16Z</time></trkpt><trkpt lat="40.820209759304966" lon="9.448724197430295"><ele>215.5</ele><time>2026-03-28T08:28:19Z</time></trkpt><trkpt lat="40.820135881661365" lon="9.448761354982663"><ele>215.0</ele><time>2026-03-28T08:28:20Z</time></trkpt><trkpt lat="40.820009866968434" lon="9.448774551501247"><ele>214.5</ele><time>2026-03-28T08:28:21Z</time></trkpt><trkpt lat="40.81987724687104" lon="9.448838476274805"><ele>214.0</ele><time>2026-03-28T08:28:22Z</time></trkpt><trkpt lat="40.81976359181996" lon="9.448875619845806"><ele>214.0</ele><time>2026-03-28T08:28:23Z</time></trkpt><trkpt lat="40.8196752218818" lon="9.448878225524783"><ele>213.99999999999997</ele><time>2026-03-28T08:28:24Z</time></trkpt><trkpt lat="40.81959032566923" lon="9.44886791643768"><ele>213.99999999999997</ele><time>2026-03-28T08:28:25Z</time></trkpt><trkpt lat="40.81949698129479" lon="9.448818363077622"><ele>214.0</ele><time>2026-03-28T08:28:26Z</time></trkpt><trkpt lat="40.819376073495086" lon="9.448743377021595"><ele>214.0</ele><time>2026-03-28T08:28:27Z</time></trkpt><trkpt lat="40.819230298842015" lon="9.448650714286037"><ele>214.0</ele><time>2026-03-28T08:28:28Z</time></trkpt><trkpt lat="40.81908832486316" lon="9.448560127645889"><ele>214.0</ele><time>2026-03-28T08:28:29Z</time></trkpt><trkpt lat="40.81896238083739" lon="9.44847011727979"><ele>214.0</ele><time>2026-03-28T08:28:30Z</time></trkpt><trkpt lat="40.818834097107406" lon="9.448345279134486"><ele>214.0</ele><time>2026-03-28T08:28:31Z</time></trkpt><trkpt lat="40.81869528447298" lon="9.448192627770883"><ele>214.0</ele><time>2026-03-28T08:28:32Z</time></trkpt><trkpt lat="40.81854513540422" lon="9.448014715289506"><ele>214.0</ele><time>2026-03-28T08:28:33Z</time></trkpt><trkpt lat="40.81840657336937" lon="9.447821217081152"><ele>216.33333333333331</ele><time>2026-03-28T08:28:34Z</time></trkpt><trkpt lat="40.818280747018655" lon="9.447616235398534"><ele>218.66666666666669</ele><time>2026-03-28T08:28:35Z</time></trkpt><trkpt lat="40.81816965171413" lon="9.447420728913205"><ele>221.0</ele><time>2026-03-28T08:28:35.999Z</time></trkpt><trkpt lat="40.818075659536774" lon="9.447245699394308"><ele>221.66666666666669</ele><time>2026-03-28T08:28:36.999Z</time></trkpt><trkpt lat="40.817988176239" lon="9.447046973427511"><ele>222.33333333333331</ele><time>2026-03-28T08:28:37.999Z</time></trkpt><trkpt lat="40.81790920395668" lon="9.44684473893499"><ele>223.0</ele><time>2026-03-28T08:28:38.999Z</time></trkpt><trkpt lat="40.817852071277294" lon="9.4466675809481"><ele>223.0</ele><time>2026-03-28T08:28:39.999Z</time></trkpt><trkpt lat="40.817795703789265" lon="9.446523082770998"><ele>223.0</ele><time>2026-03-28T08:28:40.999Z</time></trkpt><trkpt lat="40.81772693981895" lon="9.44639019673039"><ele>223.0</ele><time>2026-03-28T08:28:41.999Z</time></trkpt><trkpt lat="40.8176075567671" lon="9.446253844662769"><ele>223.0</ele><time>2026-03-28T08:28:42.999Z</time></trkpt><trkpt lat="40.81746322693464" lon="9.446092573981003"><ele>224.66666666666666</ele><time>2026-03-28T08:28:43.999Z</time></trkpt><trkpt lat="40.81731211444624" lon="9.445919757809168"><ele>226.33333333333331</ele><time>2026-03-28T08:28:44.999Z</time></trkpt><trkpt lat="40.81714350951721" lon="9.44573256122208"><ele>228.0</ele><time>2026-03-28T08:28:45.999Z</time></trkpt><trkpt lat="40.81699216522373" lon="9.445575774653848"><ele>227.25</ele><time>2026-03-28T08:28:46.999Z</time></trkpt><trkpt lat="40.81687247227843" lon="9.44545622542686"><ele>226.5</ele><time>2026-03-28T08:28:47.999Z</time></trkpt><trkpt lat="40.81677171963118" lon="9.445352551641365"><ele>225.75</ele><time>2026-03-28T08:28:48.999Z</time></trkpt><trkpt lat="40.81667899476136" lon="9.445265378560432"><ele>225.0</ele><time>2026-03-28T08:28:49.999Z</time></trkpt><trkpt lat="40.81659898274394" lon="9.445190923750797"><ele>225.0</ele><time>2026-03-28T08:28:50.999Z</time></trkpt><trkpt lat="40.8165129218923" lon="9.44514798575193"><ele>225.0</ele><time>2026-03-28T08:28:51.999Z</time></trkpt><trkpt lat="40.81641074924355" lon="9.445143953822834"><ele>225.0</ele><time>2026-03-28T08:28:52.999Z</time></trkpt><trkpt lat="40.81627425521557" lon="9.445132647101595"><ele>225.0</ele><time>2026-03-28T08:28:53.999Z</time></trkpt><trkpt lat="40.816115052950636" lon="9.44514920985754"><ele>227.33333333333331</ele><time>2026-03-28T08:28:54.999Z</time></trkpt><trkpt lat="40.81593476587019" lon="9.445184146469256"><ele>229.66666666666666</ele><time>2026-03-28T08:28:55.999Z</time></trkpt><trkpt lat="40.81577832713808" lon="9.445221303117544"><ele>232.0</ele><time>2026-03-28T08:28:56.999Z</time></trkpt><trkpt lat="40.81564556229797" lon="9.445212740327072"><ele>232.0</ele><time>2026-03-28T08:28:57.999Z</time></trkpt><trkpt lat="40.81551687657873" lon="9.445206693277266"><ele>232.0</ele><time>2026-03-28T08:28:58.999Z</time></trkpt><trkpt lat="40.81538126772346" lon="9.44520237295339"><ele>232.0</ele><time>2026-03-28T08:28:59.999Z</time></trkpt><trkpt lat="40.815229386071245" lon="9.445208134841986"><ele>232.0</ele><time>2026-03-28T08:29:00.999Z</time></trkpt><trkpt lat="40.815065439908885" lon="9.445241520152614"><ele>233.0</ele><time>2026-03-28T08:29:01.999Z</time></trkpt><trkpt lat="40.81490844053288" lon="9.445260255337022"><ele>234.0</ele><time>2026-03-28T08:29:02.999Z</time></trkpt><trkpt lat="40.814767017166005" lon="9.44528828124067"><ele>235.0</ele><time>2026-03-28T08:29:03.999Z</time></trkpt><trkpt lat="40.81460346280644" lon="9.445347103863797"><ele>235.0</ele><time>2026-03-28T08:29:04.999Z</time></trkpt><trkpt lat="40.81443792711506" lon="9.44542168589937"><ele>235.0</ele><time>2026-03-28T08:29:05.999Z</time></trkpt><trkpt lat="40.81426718484439" lon="9.445436573131095"><ele>235.0</ele><time>2026-03-28T08:29:06.999Z</time></trkpt><trkpt lat="40.8141338687748" lon="9.44547385568643"><ele>236.5</ele><time>2026-03-28T08:29:07.999Z</time></trkpt><trkpt lat="40.81402016150072" lon="9.445507938773892"><ele>238.0</ele><time>2026-03-28T08:29:08.999Z</time></trkpt><trkpt lat="40.81390701826421" lon="9.445588427686648"><ele>239.5</ele><time>2026-03-28T08:29:10Z</time></trkpt><trkpt lat="40.81376957309962" lon="9.44571422102451"><ele>241.0</ele><time>2026-03-28T08:29:11Z</time></trkpt><trkpt lat="40.813612327351606" lon="9.445825488581967"><ele>242.66666666666666</ele><time>2026-03-28T08:29:12Z</time></trkpt><trkpt lat="40.81347748478962" lon="9.445963524175781"><ele>244.33333333333331</ele><time>2026-03-28T08:29:13Z</time></trkpt><trkpt lat="40.81333988584378" lon="9.446069706979715"><ele>246.0</ele><time>2026-03-28T08:29:14Z</time></trkpt><trkpt lat="40.81321767036673" lon="9.44615975200396"><ele>246.0</ele><time>2026-03-28T08:29:15Z</time></trkpt><trkpt lat="40.813081958930056" lon="9.44620954648251"><ele>246.0</ele><time>2026-03-28T08:29:16Z</time></trkpt><trkpt lat="40.812935556106645" lon="9.446296676973665"><ele>246.0</ele><time>2026-03-28T08:29:17Z</time></trkpt><trkpt lat="40.81279134858682" lon="9.44636278715378"><ele>246.66666666666669</ele><time>2026-03-28T08:29:18Z</time></trkpt><trkpt lat="40.812657268965246" lon="9.44644914073199"><ele>247.33333333333334</ele><time>2026-03-28T08:29:19Z</time></trkpt><trkpt lat="40.812514138983" lon="9.446564150379464"><ele>248.0</ele><time>2026-03-28T08:29:20Z</time></trkpt><trkpt lat="40.8123556717836" lon="9.446695712127742"><ele>249.33333333333334</ele><time>2026-03-28T08:29:21Z</time></trkpt><trkpt lat="40.81218912695969" lon="9.4467650552867"><ele>250.66666666666669</ele><time>2026-03-28T08:29:22Z</time></trkpt><trkpt lat="40.81200417590527" lon="9.446844410098878"><ele>252.0</ele><time>2026-03-28T08:29:23Z</time></trkpt><trkpt lat="40.81184428385629" lon="9.446951868248885"><ele>253.0</ele><time>2026-03-28T08:29:24Z</time></trkpt><trkpt lat="40.811679614923925" lon="9.44707673401974"><ele>254.0</ele><time>2026-03-28T08:29:25Z</time></trkpt><trkpt lat="40.811517989306836" lon="9.44720905030269"><ele>255.0</ele><time>2026-03-28T08:29:26Z</time></trkpt><trkpt lat="40.81138379177484" lon="9.447324224516864"><ele>257.2</ele><time>2026-03-28T08:29:27Z</time></trkpt><trkpt lat="40.81126366335451" lon="9.447428067327483"><ele>259.4</ele><time>2026-03-28T08:29:28Z</time></trkpt><trkpt lat="40.811156171881926" lon="9.44751039373945"><ele>261.6</ele><time>2026-03-28T08:29:29Z</time></trkpt><trkpt lat="40.81106225837042" lon="9.447525360314389"><ele>263.8</ele><time>2026-03-28T08:29:30Z</time></trkpt><trkpt lat="40.81099729743811" lon="9.447557680296043"><ele>266.0</ele><time>2026-03-28T08:29:31Z</time></trkpt><trkpt lat="40.81094686195226" lon="9.44747264596611"><ele>266.25</ele><time>2026-03-28T08:29:32Z</time></trkpt><trkpt lat="40.810845554628955" lon="9.447399558039153"><ele>266.5</ele><time>2026-03-28T08:29:33Z</time></trkpt><trkpt lat="40.81071261797387" lon="9.447311457447462"><ele>266.75</ele><time>2026-03-28T08:29:34Z</time></trkpt><trkpt lat="40.81059261949004" lon="9.447215888415288"><ele>267.0</ele><time>2026-03-28T08:29:35Z</time></trkpt><trkpt lat="40.81050514737778" lon="9.44711021235279"><ele>265.6666666666667</ele><time>2026-03-28T08:29:36Z</time></trkpt><trkpt lat="40.81042767324408" lon="9.446983018690217"><ele>264.33333333333337</ele><time>2026-03-28T08:29:37Z</time></trkpt><trkpt lat="40.810363583571046" lon="9.446816621269248"><ele>263.0</ele><time>2026-03-28T08:29:38Z</time></trkpt><trkpt lat="40.81027389338431" lon="9.446595130948989"><ele>263.0</ele><time>2026-03-28T08:29:39Z</time></trkpt><trkpt lat="40.81017524402354" lon="9.446365779525511"><ele>263.0</ele><time>2026-03-28T08:29:40Z</time></trkpt><trkpt lat="40.810076432225195" lon="9.446158835374993"><ele>263.0</ele><time>2026-03-28T08:29:41Z</time></trkpt><trkpt lat="40.80996951515825" lon="9.445933140685634"><ele>266.6666666666667</ele><time>2026-03-28T08:29:42Z</time></trkpt><trkpt lat="40.8098705224526" lon="9.445731053351613"><ele>270.3333333333333</ele><time>2026-03-28T08:29:43Z</time></trkpt><trkpt lat="40.80978259859595" lon="9.445551562401223"><ele>274.0</ele><time>2026-03-28T08:29:44Z</time></trkpt><trkpt lat="40.80970610328621" lon="9.44539881260104"><ele>274.0</ele><time>2026-03-28T08:29:45Z</time></trkpt><trkpt lat="40.809625383282956" lon="9.44526607920015"><ele>274.0</ele><time>2026-03-28T08:29:46Z</time></trkpt><trkpt lat="40.80954057253523" lon="9.445185782749506"><ele>274.0</ele><time>2026-03-28T08:29:47Z</time></trkpt><trkpt lat="40.80945243741562" lon="9.445133318356232"><ele>274.0</ele><time>2026-03-28T08:29:48Z</time></trkpt><trkpt lat="40.80934538572926" lon="9.445095485674381"><ele>274.0</ele><time>2026-03-28T08:29:49Z</time></trkpt><trkpt lat="40.80921382717835" lon="9.445078661344546"><ele>277.0</ele><time>2026-03-28T08:29:50Z</time></trkpt><trkpt lat="40.809056365027104" lon="9.445066810469548"><ele>280.0</ele><time>2026-03-28T08:29:51Z</time></trkpt><trkpt lat="40.80890599364387" lon="9.44501547194686"><ele>283.0</ele><time>2026-03-28T08:29:52Z</time></trkpt><trkpt lat="40.80877275647773" lon="9.444968127582824"><ele>283.0</ele><time>2026-03-28T08:29:53Z</time></trkpt><trkpt lat="40.8086529703111" lon="9.444914985600734"><ele>283.0</ele><time>2026-03-28T08:29:54Z</time></trkpt><trkpt lat="40.80854430955341" lon="9.444870348284613"><ele>283.0</ele><time>2026-03-28T08:29:55Z</time></trkpt><trkpt lat="40.80844097243169" lon="9.44487355392645"><ele>283.0</ele><time>2026-03-28T08:29:56Z</time></trkpt><trkpt lat="40.808329031001165" lon="9.444875295900092"><ele>282.8</ele><time>2026-03-28T08:29:57Z</time></trkpt><trkpt lat="40.808199141947426" lon="9.444898945135876"><ele>282.6</ele><time>2026-03-28T08:29:58Z</time></trkpt><trkpt lat="40.80807963832275" lon="9.444934111709502"><ele>282.4</ele><time>2026-03-28T08:29:59Z</time></trkpt><trkpt lat="40.808015388053825" lon="9.444964179869812"><ele>282.2</ele><time>2026-03-28T08:30:00Z</time></trkpt><trkpt lat="40.80792578108928" lon="9.445000341936371"><ele>282.0</ele><time>2026-03-28T08:30:03Z</time></trkpt><trkpt lat="40.80783762498175" lon="9.445030412868336"><ele>282.0</ele><time>2026-03-28T08:30:05Z</time></trkpt><trkpt lat="40.807764564644366" lon="9.4450604514919"><ele>282.0</ele><time>2026-03-28T08:30:06Z</time></trkpt><trkpt lat="40.80767162764883" lon="9.44510327922708"><ele>282.0</ele><time>2026-03-28T08:30:07Z</time></trkpt><trkpt lat="40.80757264030226" lon="9.445140024524976"><ele>282.0</ele><time>2026-03-28T08:30:08Z</time></trkpt><trkpt lat="40.80744576153948" lon="9.445182948552347"><ele>282.0</ele><time>2026-03-28T08:30:09Z</time></trkpt><trkpt lat="40.807320343149875" lon="9.445216421668599"><ele>281.0</ele><time>2026-03-28T08:30:10Z</time></trkpt><trkpt lat="40.80717723775381" lon="9.445239939825607"><ele>280.0</ele><time>2026-03-28T08:30:11Z</time></trkpt><trkpt lat="40.8070319413417" lon="9.445253180195614"><ele>279.0</ele><time>2026-03-28T08:30:12Z</time></trkpt><trkpt lat="40.80689186583657" lon="9.44525648798188"><ele>278.0</ele><time>2026-03-28T08:30:13Z</time></trkpt><trkpt lat="40.806756905563546" lon="9.445256474597246"><ele>278.0</ele><time>2026-03-28T08:30:14Z</time></trkpt><trkpt lat="40.80663163994821" lon="9.445228577798597"><ele>278.0</ele><time>2026-03-28T08:30:15Z</time></trkpt><trkpt lat="40.80651906871297" lon="9.44521939953466"><ele>278.0</ele><time>2026-03-28T08:30:16Z</time></trkpt><trkpt lat="40.80644376671317" lon="9.445212463357118"><ele>278.0</ele><time>2026-03-28T08:30:17Z</time></trkpt><trkpt lat="40.80632951639047" lon="9.445205991381572"><ele>278.0</ele><time>2026-03-28T08:30:19Z</time></trkpt><trkpt lat="40.806247665926314" lon="9.445203523637367"><ele>278.0</ele><time>2026-03-28T08:30:20Z</time></trkpt><trkpt lat="40.806144682607545" lon="9.4452156439286"><ele>278.0</ele><time>2026-03-28T08:30:21Z</time></trkpt><trkpt lat="40.80603824749835" lon="9.445205572112528"><ele>278.0</ele><time>2026-03-28T08:30:22Z</time></trkpt><trkpt lat="40.80592690003094" lon="9.445206407807653"><ele>278.0</ele><time>2026-03-28T08:30:23Z</time></trkpt><trkpt lat="40.80580953541224" lon="9.445187097766881"><ele>278.0</ele><time>2026-03-28T08:30:24Z</time></trkpt><trkpt lat="40.80568814944312" lon="9.445198263723068"><ele>278.5</ele><time>2026-03-28T08:30:25Z</time></trkpt><trkpt lat="40.80554894339011" lon="9.445226879619264"><ele>279.0</ele><time>2026-03-28T08:30:26Z</time></trkpt><trkpt lat="40.805408866387495" lon="9.445257758754055"><ele>279.5</ele><time>2026-03-28T08:30:27Z</time></trkpt><trkpt lat="40.80528588963022" lon="9.44530592310298"><ele>280.0</ele><time>2026-03-28T08:30:28Z</time></trkpt><trkpt lat="40.80518122823804" lon="9.44532753417201"><ele>280.16666666666663</ele><time>2026-03-28T08:30:29Z</time></trkpt><trkpt lat="40.80508409735531" lon="9.445327566390201"><ele>280.3333333333333</ele><time>2026-03-28T08:30:30Z</time></trkpt><trkpt lat="40.80498469857023" lon="9.445343981151954"><ele>280.5</ele><time>2026-03-28T08:30:31Z</time></trkpt><trkpt lat="40.8048858332554" lon="9.445360307812095"><ele>280.6666666666667</ele><time>2026-03-28T08:30:32Z</time></trkpt><trkpt lat="40.80480604857812" lon="9.445373483510927"><ele>280.83333333333337</ele><time>2026-03-28T08:30:33Z</time></trkpt><trkpt lat="40.8047432570484" lon="9.445382593296165"><ele>281.0</ele><time>2026-03-28T08:30:34Z</time></trkpt><trkpt lat="40.80460539242298" lon="9.445402036434839"><ele>281.0</ele><time>2026-03-28T08:30:36Z</time></trkpt><trkpt lat="40.804517224609576" lon="9.445434576791166"><ele>281.0</ele><time>2026-03-28T08:30:37Z</time></trkpt><trkpt lat="40.80443740287726" lon="9.445432419854269"><ele>281.0</ele><time>2026-03-28T08:30:38Z</time></trkpt><trkpt lat="40.80435930332298" lon="9.445425984406988"><ele>281.0</ele><time>2026-03-28T08:30:39Z</time></trkpt><trkpt lat="40.8042937426747" lon="9.445369051146127"><ele>281.0</ele><time>2026-03-28T08:30:40Z</time></trkpt><trkpt lat="40.80422713748195" lon="9.445302127173257"><ele>281.0</ele><time>2026-03-28T08:30:40.999Z</time></trkpt><trkpt lat="40.80415558017147" lon="9.445211518099693"><ele>280.75</ele><time>2026-03-28T08:30:41.999Z</time></trkpt><trkpt lat="40.80408606109729" lon="9.445093541780356"><ele>280.5</ele><time>2026-03-28T08:30:42.999Z</time></trkpt><trkpt lat="40.804013504950206" lon="9.444967562559613"><ele>280.25</ele><time>2026-03-28T08:30:43.999Z</time></trkpt><trkpt lat="40.803941001421336" lon="9.444845876811922"><ele>280.0</ele><time>2026-03-28T08:30:44.999Z</time></trkpt><trkpt lat="40.80387096793692" lon="9.444738356651408"><ele>280.0</ele><time>2026-03-28T08:30:45.999Z</time></trkpt><trkpt lat="40.80377712451978" lon="9.444675600825851"><ele>280.0</ele><time>2026-03-28T08:30:46.999Z</time></trkpt><trkpt lat="40.80368655235379" lon="9.444622800971162"><ele>280.0</ele><time>2026-03-28T08:30:47.999Z</time></trkpt><trkpt lat="40.803576537161106" lon="9.444578974052629"><ele>280.0</ele><time>2026-03-28T08:30:48.999Z</time></trkpt><trkpt lat="40.80347016986991" lon="9.444562122803836"><ele>280.0</ele><time>2026-03-28T08:30:49.999Z</time></trkpt><trkpt lat="40.8033714833363" lon="9.444572842081657"><ele>278.8</ele><time>2026-03-28T08:30:50.999Z</time></trkpt><trkpt lat="40.803270933883546" lon="9.44460914745802"><ele>277.6</ele><time>2026-03-28T08:30:51.999Z</time></trkpt><trkpt lat="40.80317393494971" lon="9.444654993171586"><ele>276.4</ele><time>2026-03-28T08:30:52.999Z</time></trkpt><trkpt lat="40.80309482469099" lon="9.444713853145407"><ele>275.2</ele><time>2026-03-28T08:30:53.999Z</time></trkpt><trkpt lat="40.80303165023535" lon="9.444807396202528"><ele>274.0</ele><time>2026-03-28T08:30:54.999Z</time></trkpt><trkpt lat="40.802964375186995" lon="9.444914078055813"><ele>274.0</ele><time>2026-03-28T08:30:55.999Z</time></trkpt><trkpt lat="40.802913628698704" lon="9.445003545649081"><ele>274.0</ele><time>2026-03-28T08:30:56.999Z</time></trkpt><trkpt lat="40.80285890723432" lon="9.44511522067222"><ele>274.0</ele><time>2026-03-28T08:30:58.999Z</time></trkpt><trkpt lat="40.802817676979764" lon="9.445208668811103"><ele>274.0</ele><time>2026-03-28T08:31:00.999Z</time></trkpt><trkpt lat="40.802823356305524" lon="9.445396637947514"><ele>274.0</ele><time>2026-03-28T08:31:02.999Z</time></trkpt><trkpt lat="40.80281599533085" lon="9.445546801698073"><ele>273.75</ele><time>2026-03-28T08:31:03.999Z</time></trkpt><trkpt lat="40.80280558741644" lon="9.445725420943495"><ele>273.5</ele><time>2026-03-28T08:31:04.999Z</time></trkpt><trkpt lat="40.80279494917018" lon="9.445893382615923"><ele>273.25</ele><time>2026-03-28T08:31:05.999Z</time></trkpt><trkpt lat="40.80278404986595" lon="9.446037485833475"><ele>273.0</ele><time>2026-03-28T08:31:06.999Z</time></trkpt><trkpt lat="40.802765484095275" lon="9.44614339241566"><ele>273.0</ele><time>2026-03-28T08:31:07.999Z</time></trkpt><trkpt lat="40.80272915769526" lon="9.446222525274637"><ele>273.0</ele><time>2026-03-28T08:31:08.999Z</time></trkpt><trkpt lat="40.80264747040582" lon="9.44624543389222"><ele>273.0</ele><time>2026-03-28T08:31:09.999Z</time></trkpt><trkpt lat="40.80253850165592" lon="9.446271953769724"><ele>273.0</ele><time>2026-03-28T08:31:10.999Z</time></trkpt><trkpt lat="40.802417298958034" lon="9.446351698071712"><ele>273.0</ele><time>2026-03-28T08:31:11.999Z</time></trkpt><trkpt lat="40.80231044792527" lon="9.44640446795479"><ele>269.5</ele><time>2026-03-28T08:31:12.999Z</time></trkpt><trkpt lat="40.8022231205696" lon="9.446444866185075"><ele>266.0</ele><time>2026-03-28T08:31:13.999Z</time></trkpt><trkpt lat="40.80215939588169" lon="9.44646686729207"><ele>262.5</ele><time>2026-03-28T08:31:14.999Z</time></trkpt><trkpt lat="40.80210125697825" lon="9.446503081202854"><ele>259.0</ele><time>2026-03-28T08:31:41Z</time></trkpt><trkpt lat="40.802027024657974" lon="9.446556463114055"><ele>255.5</ele><time>2026-03-28T08:31:43Z</time></trkpt><trkpt lat="40.80191220390463" lon="9.446458296184034"><ele>252.0</ele><time>2026-03-28T08:31:44Z</time></trkpt><trkpt lat="40.80181735482661" lon="9.446455652889506"><ele>250.0</ele><time>2026-03-28T08:31:45Z</time></trkpt><trkpt lat="40.801724507942566" lon="9.446476420592733"><ele>248.0</ele><time>2026-03-28T08:31:46Z</time></trkpt><trkpt lat="40.80161784392145" lon="9.446452266098873"><ele>246.0</ele><time>2026-03-28T08:31:47Z</time></trkpt><trkpt lat="40.801473277866165" lon="9.446459702847973"><ele>244.0</ele><time>2026-03-28T08:31:48Z</time></trkpt><trkpt lat="40.80130378776161" lon="9.446410407902137"><ele>244.0</ele><time>2026-03-28T08:31:49Z</time></trkpt><trkpt lat="40.80115393668919" lon="9.446352397983551"><ele>244.0</ele><time>2026-03-28T08:31:50Z</time></trkpt><trkpt lat="40.80102065792742" lon="9.446264211802319"><ele>244.0</ele><time>2026-03-28T08:31:51Z</time></trkpt><trkpt lat="40.80087843565834" lon="9.44615554536676"><ele>241.0</ele><time>2026-03-28T08:31:52Z</time></trkpt><trkpt lat="40.800721730336896" lon="9.446049935347029"><ele>238.0</ele><time>2026-03-28T08:31:53Z</time></trkpt><trkpt lat="40.80054157880575" lon="9.44597759804931"><ele>235.0</ele><time>2026-03-28T08:31:54Z</time></trkpt><trkpt lat="40.800346439411264" lon="9.445898250177851"><ele>235.0</ele><time>2026-03-28T08:31:55Z</time></trkpt><trkpt lat="40.80013964120569" lon="9.445816192519331"><ele>235.0</ele><time>2026-03-28T08:31:56Z</time></trkpt><trkpt lat="40.7999441126703" lon="9.445717280145386"><ele>235.0</ele><time>2026-03-28T08:31:57Z</time></trkpt><trkpt lat="40.79976063432601" lon="9.445602575776256"><ele>235.0</ele><time>2026-03-28T08:31:58Z</time></trkpt><trkpt lat="40.79958308122837" lon="9.445480598937165"><ele>235.0</ele><time>2026-03-28T08:31:59Z</time></trkpt><trkpt lat="40.79942337063688" lon="9.44536419336866"><ele>235.0</ele><time>2026-03-28T08:32:00Z</time></trkpt><trkpt lat="40.7992883333625" lon="9.445226519051626"><ele>230.66666666666666</ele><time>2026-03-28T08:32:01Z</time></trkpt><trkpt lat="40.79915287792217" lon="9.445084656671874"><ele>226.33333333333331</ele><time>2026-03-28T08:32:02Z</time></trkpt><trkpt lat="40.79902317298704" lon="9.444910214079862"><ele>222.0</ele><time>2026-03-28T08:32:03Z</time></trkpt><trkpt lat="40.79891545280443" lon="9.444723625276213"><ele>220.0</ele><time>2026-03-28T08:32:04Z</time></trkpt><trkpt lat="40.79882428844147" lon="9.444509285844534"><ele>218.0</ele><time>2026-03-28T08:32:05Z</time></trkpt><trkpt lat="40.79873557548696" lon="9.444301335537178"><ele>216.0</ele><time>2026-03-28T08:32:06Z</time></trkpt><trkpt lat="40.798644353855906" lon="9.444104876002408"><ele>216.0</ele><time>2026-03-28T08:32:07Z</time></trkpt><trkpt lat="40.79855467474044" lon="9.443927722809763"><ele>216.0</ele><time>2026-03-28T08:32:08Z</time></trkpt><trkpt lat="40.79845226109712" lon="9.443772193569854"><ele>216.0</ele><time>2026-03-28T08:32:09Z</time></trkpt><trkpt lat="40.79833838319307" lon="9.443641237902309"><ele>212.66666666666669</ele><time>2026-03-28T08:32:10Z</time></trkpt><trkpt lat="40.79820036749461" lon="9.443513012832929"><ele>209.33333333333334</ele><time>2026-03-28T08:32:11Z</time></trkpt><trkpt lat="40.79804624154004" lon="9.443391851257637"><ele>206.0</ele><time>2026-03-28T08:32:12Z</time></trkpt><trkpt lat="40.797877877362026" lon="9.443281468284596"><ele>206.0</ele><time>2026-03-28T08:32:13Z</time></trkpt><trkpt lat="40.79771266884747" lon="9.443209417528402"><ele>206.0</ele><time>2026-03-28T08:32:14Z</time></trkpt><trkpt lat="40.797565774610085" lon="9.443113069151078"><ele>206.0</ele><time>2026-03-28T08:32:15Z</time></trkpt><trkpt lat="40.79741244486683" lon="9.443085336353082"><ele>207.33333333333334</ele><time>2026-03-28T08:32:16Z</time></trkpt><trkpt lat="40.79726887411339" lon="9.443056190720277"><ele>208.66666666666669</ele><time>2026-03-28T08:32:17Z</time></trkpt><trkpt lat="40.79711536615387" lon="9.443040751908175"><ele>210.0</ele><time>2026-03-28T08:32:18Z</time></trkpt><trkpt lat="40.79696011680413" lon="9.443051571568295"><ele>211.0</ele><time>2026-03-28T08:32:19Z</time></trkpt><trkpt lat="40.796809569643216" lon="9.44307512670102"><ele>212.0</ele><time>2026-03-28T08:32:20Z</time></trkpt><trkpt lat="40.79665797868212" lon="9.44310854823098"><ele>213.0</ele><time>2026-03-28T08:32:21Z</time></trkpt><trkpt lat="40.79650905376201" lon="9.443116505745413"><ele>213.0</ele><time>2026-03-28T08:32:22Z</time></trkpt><trkpt lat="40.796401264106336" lon="9.44315708118775"><ele>213.0</ele><time>2026-03-28T08:32:23Z</time></trkpt><trkpt lat="40.796318997840515" lon="9.443167647982314"><ele>213.0</ele><time>2026-03-28T08:32:24Z</time></trkpt><trkpt lat="40.79624381620121" lon="9.443183741193456"><ele>213.0</ele><time>2026-03-28T08:32:25Z</time></trkpt><trkpt lat="40.79617499663007" lon="9.44317564577286"><ele>213.0</ele><time>2026-03-28T08:32:26Z</time></trkpt><trkpt lat="40.79610809794677" lon="9.443187489221792"><ele>213.0</ele><time>2026-03-28T08:32:27Z</time></trkpt><trkpt lat="40.79603714081623" lon="9.443200051159007"><ele>212.60000000000002</ele><time>2026-03-28T08:32:28Z</time></trkpt><trkpt lat="40.79595557699381" lon="9.443214490863822"><ele>212.20000000000002</ele><time>2026-03-28T08:32:29Z</time></trkpt><trkpt lat="40.79585590088192" lon="9.443254230758704"><ele>211.8</ele><time>2026-03-28T08:32:30Z</time></trkpt><trkpt lat="40.795748505415965" lon="9.443251149924038"><ele>211.4</ele><time>2026-03-28T08:32:31Z</time></trkpt><trkpt lat="40.79564240613228" lon="9.443269933285691"><ele>211.0</ele><time>2026-03-28T08:32:32Z</time></trkpt><trkpt lat="40.79553440595609" lon="9.443308363301467"><ele>211.0</ele><time>2026-03-28T08:32:33Z</time></trkpt><trkpt lat="40.79541336712658" lon="9.44332791375098"><ele>211.0</ele><time>2026-03-28T08:32:34Z</time></trkpt><trkpt lat="40.79528625966326" lon="9.443349668129018"><ele>211.0</ele><time>2026-03-28T08:32:35Z</time></trkpt><trkpt lat="40.79516360575826" lon="9.443373132939966"><ele>211.0</ele><time>2026-03-28T08:32:36Z</time></trkpt><trkpt lat="40.795038100363996" lon="9.443394613441862"><ele>211.75</ele><time>2026-03-28T08:32:37Z</time></trkpt><trkpt lat="40.79490417572876" lon="9.443415318191125"><ele>212.5</ele><time>2026-03-28T08:32:38Z</time></trkpt><trkpt lat="40.79476238317383" lon="9.443440241183927"><ele>213.25</ele><time>2026-03-28T08:32:39Z</time></trkpt><trkpt lat="40.79461392115485" lon="9.443464360301466"><ele>214.0</ele><time>2026-03-28T08:32:40Z</time></trkpt><trkpt lat="40.79446599475738" lon="9.4434888721865"><ele>213.66666666666666</ele><time>2026-03-28T08:32:41Z</time></trkpt><trkpt lat="40.79431581701836" lon="9.443513414826965"><ele>213.33333333333331</ele><time>2026-03-28T08:32:42Z</time></trkpt><trkpt lat="40.79416010372011" lon="9.443538935258456"><ele>213.0</ele><time>2026-03-28T08:32:43Z</time></trkpt><trkpt lat="40.794000535704185" lon="9.443565439047479"><ele>213.0</ele><time>2026-03-28T08:32:44Z</time></trkpt><trkpt lat="40.79381510260614" lon="9.443600299511285"><ele>213.0</ele><time>2026-03-28T08:32:45Z</time></trkpt><trkpt lat="40.79362901033078" lon="9.443635436325733"><ele>213.0</ele><time>2026-03-28T08:32:46Z</time></trkpt><trkpt lat="40.79344239953116" lon="9.443666030134557"><ele>213.66666666666669</ele><time>2026-03-28T08:32:47Z</time></trkpt><trkpt lat="40.79325212586829" lon="9.443696039600379"><ele>214.33333333333334</ele><time>2026-03-28T08:32:48Z</time></trkpt><trkpt lat="40.79306687767212" lon="9.443728030263001"><ele>215.0</ele><time>2026-03-28T08:32:49Z</time></trkpt><trkpt lat="40.79287763720886" lon="9.443760396956417"><ele>215.0</ele><time>2026-03-28T08:32:50Z</time></trkpt><trkpt lat="40.79268323390118" lon="9.443795043254182"><ele>215.0</ele><time>2026-03-28T08:32:51Z</time></trkpt><trkpt lat="40.792496961403245" lon="9.443830999742014"><ele>215.0</ele><time>2026-03-28T08:32:52Z</time></trkpt><trkpt lat="40.792303621626914" lon="9.443867919756219"><ele>220.66666666666669</ele><time>2026-03-28T08:32:53Z</time></trkpt><trkpt lat="40.79209902680575" lon="9.443907706975597"><ele>226.33333333333331</ele><time>2026-03-28T08:32:54Z</time></trkpt><trkpt lat="40.79189848851147" lon="9.443943628532294"><ele>232.0</ele><time>2026-03-28T08:32:55Z</time></trkpt><trkpt lat="40.79170579164152" lon="9.443973888138101"><ele>235.33333333333331</ele><time>2026-03-28T08:32:56Z</time></trkpt><trkpt lat="40.79150217309346" lon="9.4440103464682"><ele>238.66666666666669</ele><time>2026-03-28T08:32:57Z</time></trkpt><trkpt lat="40.791304346679084" lon="9.444054166758324"><ele>242.0</ele><time>2026-03-28T08:32:58Z</time></trkpt><trkpt lat="40.79110369780055" lon="9.444114582147613"><ele>244.33333333333334</ele><time>2026-03-28T08:32:59Z</time></trkpt><trkpt lat="40.79090218226129" lon="9.444228811626944"><ele>246.66666666666669</ele><time>2026-03-28T08:33:00Z</time></trkpt><trkpt lat="40.790700197684366" lon="9.444327034977066"><ele>249.0</ele><time>2026-03-28T08:33:01Z</time></trkpt><trkpt lat="40.79051443672955" lon="9.444412953601745"><ele>249.0</ele><time>2026-03-28T08:33:02Z</time></trkpt><trkpt lat="40.79031777860552" lon="9.444487937585151"><ele>249.0</ele><time>2026-03-28T08:33:03Z</time></trkpt><trkpt lat="40.79012187107612" lon="9.444567451625195"><ele>249.0</ele><time>2026-03-28T08:33:04Z</time></trkpt><trkpt lat="40.78994148208512" lon="9.444652762705088"><ele>253.0</ele><time>2026-03-28T08:33:05Z</time></trkpt><trkpt lat="40.78977519235381" lon="9.444741527546414"><ele>257.0</ele><time>2026-03-28T08:33:06Z</time></trkpt><trkpt lat="40.78959921704433" lon="9.444841747312397"><ele>261.0</ele><time>2026-03-28T08:33:06.999Z</time></trkpt><trkpt lat="40.789446880101465" lon="9.44495015702709"><ele>259.6666666666667</ele><time>2026-03-28T08:33:07.999Z</time></trkpt><trkpt lat="40.78930346258791" lon="9.445090817073124"><ele>258.33333333333337</ele><time>2026-03-28T08:33:08.999Z</time></trkpt><trkpt lat="40.78915870149762" lon="9.445244417124663"><ele>257.0</ele><time>2026-03-28T08:33:09.999Z</time></trkpt><trkpt lat="40.78899880875757" lon="9.445422192285957"><ele>257.0</ele><time>2026-03-28T08:33:10.999Z</time></trkpt><trkpt lat="40.78883048259819" lon="9.445615029743877"><ele>257.0</ele><time>2026-03-28T08:33:11.999Z</time></trkpt><trkpt lat="40.78867053784482" lon="9.445789850471922"><ele>257.0</ele><time>2026-03-28T08:33:12.999Z</time></trkpt><trkpt lat="40.78851582947989" lon="9.445958139006226"><ele>253.66666666666669</ele><time>2026-03-28T08:33:13.999Z</time></trkpt><trkpt lat="40.78835989899094" lon="9.44613306568184"><ele>250.33333333333331</ele><time>2026-03-28T08:33:14.999Z</time></trkpt><trkpt lat="40.78820241854283" lon="9.446312335737142"><ele>247.0</ele><time>2026-03-28T08:33:15.999Z</time></trkpt><trkpt lat="40.78803796738452" lon="9.446493504799655"><ele>247.0</ele><time>2026-03-28T08:33:16.999Z</time></trkpt><trkpt lat="40.7878668958066" lon="9.446675418110539"><ele>247.0</ele><time>2026-03-28T08:33:17.999Z</time></trkpt><trkpt lat="40.78769245705841" lon="9.446859047853186"><ele>247.0</ele><time>2026-03-28T08:33:18.999Z</time></trkpt><trkpt lat="40.787524822303034" lon="9.447046316583503"><ele>247.33333333333331</ele><time>2026-03-28T08:33:19.999Z</time></trkpt><trkpt lat="40.787367394729785" lon="9.447227418189355"><ele>247.66666666666669</ele><time>2026-03-28T08:33:20.999Z</time></trkpt><trkpt lat="40.78721859247915" lon="9.447392562744314"><ele>248.0</ele><time>2026-03-28T08:33:22Z</time></trkpt><trkpt lat="40.78707702570719" lon="9.447548221177323"><ele>248.0</ele><time>2026-03-28T08:33:23Z</time></trkpt><trkpt lat="40.786932409828005" lon="9.447708280219732"><ele>248.0</ele><time>2026-03-28T08:33:24Z</time></trkpt><trkpt lat="40.78678188521017" lon="9.447875764260633"><ele>248.0</ele><time>2026-03-28T08:33:25Z</time></trkpt><trkpt lat="40.78662672151788" lon="9.448044433885478"><ele>247.66666666666669</ele><time>2026-03-28T08:33:26Z</time></trkpt><trkpt lat="40.78648098436231" lon="9.448208855775738"><ele>247.33333333333331</ele><time>2026-03-28T08:33:27Z</time></trkpt><trkpt lat="40.786374386934305" lon="9.448352442706984"><ele>247.0</ele><time>2026-03-28T08:33:28Z</time></trkpt><trkpt lat="40.7862146688535" lon="9.448549456479064"><ele>247.0</ele><time>2026-03-28T08:33:29Z</time></trkpt><trkpt lat="40.78609970114939" lon="9.448713522242688"><ele>247.0</ele><time>2026-03-28T08:33:30Z</time></trkpt><trkpt lat="40.785973352775194" lon="9.448871046530789"><ele>247.0</ele><time>2026-03-28T08:33:31Z</time></trkpt><trkpt lat="40.785836581967516" lon="9.449008540786686"><ele>248.33333333333331</ele><time>2026-03-28T08:33:32Z</time></trkpt><trkpt lat="40.78570045360543" lon="9.44913047768452"><ele>249.66666666666669</ele><time>2026-03-28T08:33:33Z</time></trkpt><trkpt lat="40.78555655780553" lon="9.449247480403868"><ele>251.0</ele><time>2026-03-28T08:33:34Z</time></trkpt><trkpt lat="40.785412877275384" lon="9.449344118675851"><ele>251.0</ele><time>2026-03-28T08:33:35Z</time></trkpt><trkpt lat="40.78528037601392" lon="9.449417995449151"><ele>251.0</ele><time>2026-03-28T08:33:36Z</time></trkpt><trkpt lat="40.78516934691159" lon="9.449471022379809"><ele>251.0</ele><time>2026-03-28T08:33:37Z</time></trkpt><trkpt lat="40.78507276333342" lon="9.449516238311897"><ele>251.0</ele><time>2026-03-28T08:33:38Z</time></trkpt><trkpt lat="40.78498636598295" lon="9.44955574967653"><ele>250.8</ele><time>2026-03-28T08:33:39Z</time></trkpt><trkpt lat="40.784920846609594" lon="9.449576877155835"><ele>250.60000000000002</ele><time>2026-03-28T08:33:40Z</time></trkpt><trkpt lat="40.78479541700731" lon="9.449596229212826"><ele>250.4</ele><time>2026-03-28T08:33:42Z</time></trkpt><trkpt lat="40.78471979534413" lon="9.449605111317153"><ele>250.2</ele><time>2026-03-28T08:33:43Z</time></trkpt><trkpt lat="40.78463005720608" lon="9.449648187731913"><ele>250.0</ele><time>2026-03-28T08:33:44Z</time></trkpt><trkpt lat="40.7845065304365" lon="9.449544738948262"><ele>249.33333333333331</ele><time>2026-03-28T08:33:45Z</time></trkpt><trkpt lat="40.78438519357572" lon="9.449455278643036"><ele>248.66666666666669</ele><time>2026-03-28T08:33:46Z</time></trkpt><trkpt lat="40.78425970632129" lon="9.449323391093191"><ele>248.0</ele><time>2026-03-28T08:33:47Z</time></trkpt><trkpt lat="40.78412099414225" lon="9.449200622184648"><ele>246.66666666666669</ele><time>2026-03-28T08:33:48Z</time></trkpt><trkpt lat="40.78397111054424" lon="9.449115468263482"><ele>245.33333333333331</ele><time>2026-03-28T08:33:49Z</time></trkpt><trkpt lat="40.78386166930119" lon="9.448981996840585"><ele>244.0</ele><time>2026-03-28T08:33:50Z</time></trkpt><trkpt lat="40.783760597458866" lon="9.448855534970347"><ele>244.0</ele><time>2026-03-28T08:33:51Z</time></trkpt><trkpt lat="40.78366573881744" lon="9.448736846905934"><ele>243.99999999999997</ele><time>2026-03-28T08:33:52Z</time></trkpt><trkpt lat="40.78356875343355" lon="9.448641547807897"><ele>243.99999999999997</ele><time>2026-03-28T08:33:53Z</time></trkpt><trkpt lat="40.78348938093575" lon="9.448556951332217"><ele>244.0</ele><time>2026-03-28T08:33:54Z</time></trkpt><trkpt lat="40.78341666860932" lon="9.448483043020744"><ele>244.0</ele><time>2026-03-28T08:33:55Z</time></trkpt><trkpt lat="40.78332154324935" lon="9.448476089822638"><ele>243.39999999999998</ele><time>2026-03-28T08:33:56Z</time></trkpt><trkpt lat="40.783237434719936" lon="9.448498616119233"><ele>242.79999999999998</ele><time>2026-03-28T08:33:57Z</time></trkpt><trkpt lat="40.783152614248024" lon="9.448552954964763"><ele>242.20000000000002</ele><time>2026-03-28T08:33:58Z</time></trkpt><trkpt lat="40.78307241335744" lon="9.448653814699803"><ele>241.60000000000002</ele><time>2026-03-28T08:33:59Z</time></trkpt><trkpt lat="40.78302341874637" lon="9.448786459120015"><ele>241.0</ele><time>2026-03-28T08:34:00Z</time></trkpt><trkpt lat="40.78297750281743" lon="9.448913627590056"><ele>241.0</ele><time>2026-03-28T08:34:01Z</time></trkpt><trkpt lat="40.78291442857992" lon="9.448989118847743"><ele>241.00000000000003</ele><time>2026-03-28T08:34:02Z</time></trkpt><trkpt lat="40.78282299315799" lon="9.448954726037453"><ele>241.00000000000003</ele><time>2026-03-28T08:34:03Z</time></trkpt><trkpt lat="40.7827086802681" lon="9.448949286293518"><ele>241.0</ele><time>2026-03-28T08:34:04Z</time></trkpt><trkpt lat="40.78259479335812" lon="9.448868521260307"><ele>241.0</ele><time>2026-03-28T08:34:05Z</time></trkpt><trkpt lat="40.78243567929292" lon="9.448787618238665"><ele>240.25</ele><time>2026-03-28T08:34:06Z</time></trkpt><trkpt lat="40.782291431669066" lon="9.448747795383428"><ele>239.5</ele><time>2026-03-28T08:34:07Z</time></trkpt><trkpt lat="40.78217024430362" lon="9.448656229903737"><ele>238.75</ele><time>2026-03-28T08:34:08Z</time></trkpt><trkpt lat="40.78204248092904" lon="9.448576956700693"><ele>238.0</ele><time>2026-03-28T08:34:09Z</time></trkpt><trkpt lat="40.78190360108219" lon="9.448501707697684"><ele>240.75</ele><time>2026-03-28T08:34:10Z</time></trkpt><trkpt lat="40.78177383174367" lon="9.448427022499066"><ele>243.5</ele><time>2026-03-28T08:34:11Z</time></trkpt><trkpt lat="40.78166074702363" lon="9.448349835107"><ele>246.25</ele><time>2026-03-28T08:34:12Z</time></trkpt><trkpt lat="40.78156882024003" lon="9.448275112043468"><ele>249.0</ele><time>2026-03-28T08:34:13Z</time></trkpt><trkpt lat="40.78148260893477" lon="9.448190589007215"><ele>249.0</ele><time>2026-03-28T08:34:14Z</time></trkpt><trkpt lat="40.78143248808552" lon="9.448083891140673"><ele>248.99999999999997</ele><time>2026-03-28T08:34:15Z</time></trkpt><trkpt lat="40.78141341679139" lon="9.447952068057779"><ele>248.99999999999997</ele><time>2026-03-28T08:34:16Z</time></trkpt><trkpt lat="40.78138490057969" lon="9.447806783007614"><ele>249.0</ele><time>2026-03-28T08:34:17Z</time></trkpt><trkpt lat="40.78133341149589" lon="9.447670231162634"><ele>249.0</ele><time>2026-03-28T08:34:18Z</time></trkpt><trkpt lat="40.7812474554398" lon="9.447567175971216"><ele>249.0</ele><time>2026-03-28T08:34:19Z</time></trkpt><trkpt lat="40.78114720383393" lon="9.447471311853018"><ele>249.0</ele><time>2026-03-28T08:34:20Z</time></trkpt><trkpt lat="40.78103348071368" lon="9.447357521524935"><ele>249.0</ele><time>2026-03-28T08:34:21Z</time></trkpt><trkpt lat="40.780909839969446" lon="9.447238402174795"><ele>249.0</ele><time>2026-03-28T08:34:22Z</time></trkpt><trkpt lat="40.78076981292481" lon="9.447099082373757"><ele>255.0</ele><time>2026-03-28T08:34:23Z</time></trkpt><trkpt lat="40.78063598216919" lon="9.446963344342155"><ele>261.0</ele><time>2026-03-28T08:34:24Z</time></trkpt><trkpt lat="40.7805130968863" lon="9.446818515819249"><ele>267.0</ele><time>2026-03-28T08:34:25Z</time></trkpt><trkpt lat="40.78041000672866" lon="9.446659957446617"><ele>267.0</ele><time>2026-03-28T08:34:26Z</time></trkpt><trkpt lat="40.7803580132258" lon="9.44650153500424"><ele>267.0</ele><time>2026-03-28T08:34:27Z</time></trkpt><trkpt lat="40.7803084649108" lon="9.446320292502767"><ele>267.0</ele><time>2026-03-28T08:34:28Z</time></trkpt><trkpt lat="40.780250460311414" lon="9.44616222033895"><ele>267.0</ele><time>2026-03-28T08:34:29Z</time></trkpt><trkpt lat="40.78015088695079" lon="9.446042276003814"><ele>270.0</ele><time>2026-03-28T08:34:30Z</time></trkpt><trkpt lat="40.78003033428391" lon="9.445883178316347"><ele>273.0</ele><time>2026-03-28T08:34:31Z</time></trkpt><trkpt lat="40.779881300821586" lon="9.445727185443989"><ele>276.0</ele><time>2026-03-28T08:34:32Z</time></trkpt><trkpt lat="40.77972176985481" lon="9.445566096800018"><ele>274.3333333333333</ele><time>2026-03-28T08:34:33Z</time></trkpt><trkpt lat="40.77954720954999" lon="9.445388262813164"><ele>272.66666666666663</ele><time>2026-03-28T08:34:34Z</time></trkpt><trkpt lat="40.77936980622412" lon="9.445206763610175"><ele>271.0</ele><time>2026-03-28T08:34:35Z</time></trkpt><trkpt lat="40.77920242461037" lon="9.44503551738339"><ele>275.66666666666663</ele><time>2026-03-28T08:34:36Z</time></trkpt><trkpt lat="40.779048116470165" lon="9.444880062619115"><ele>280.3333333333333</ele><time>2026-03-28T08:34:37Z</time></trkpt><trkpt lat="40.77888930074872" lon="9.444725732595364"><ele>285.0</ele><time>2026-03-28T08:34:38Z</time></trkpt><trkpt lat="40.77872073830175" lon="9.444591222813612"><ele>285.0</ele><time>2026-03-28T08:34:39Z</time></trkpt><trkpt lat="40.77854378919564" lon="9.444466589034146"><ele>285.0</ele><time>2026-03-28T08:34:40Z</time></trkpt><trkpt lat="40.77836456959108" lon="9.44435023268136"><ele>285.0</ele><time>2026-03-28T08:34:41Z</time></trkpt><trkpt lat="40.77821049933936" lon="9.44424040749805"><ele>288.6666666666667</ele><time>2026-03-28T08:34:42Z</time></trkpt><trkpt lat="40.77806891841742" lon="9.444117655178067"><ele>292.33333333333337</ele><time>2026-03-28T08:34:43Z</time></trkpt><trkpt lat="40.77794712143662" lon="9.443990007303329"><ele>296.0</ele><time>2026-03-28T08:34:44Z</time></trkpt><trkpt lat="40.77784156009794" lon="9.44382729039401"><ele>297.6666666666667</ele><time>2026-03-28T08:34:45Z</time></trkpt><trkpt lat="40.77771983948638" lon="9.443631987098753"><ele>299.3333333333333</ele><time>2026-03-28T08:34:46Z</time></trkpt><trkpt lat="40.777595054744125" lon="9.443427385454951"><ele>301.0</ele><time>2026-03-28T08:34:47Z</time></trkpt><trkpt lat="40.77746571560339" lon="9.443220135348053"><ele>302.0</ele><time>2026-03-28T08:34:48Z</time></trkpt><trkpt lat="40.777338232644574" lon="9.443015009769107"><ele>303.0</ele><time>2026-03-28T08:34:49Z</time></trkpt><trkpt lat="40.77721453138511" lon="9.442817225786811"><ele>304.0</ele><time>2026-03-28T08:34:50Z</time></trkpt><trkpt lat="40.77708973902256" lon="9.442618306711557"><ele>305.0</ele><time>2026-03-28T08:34:51Z</time></trkpt><trkpt lat="40.77696113743708" lon="9.442413315736228"><ele>306.0</ele><time>2026-03-28T08:34:52Z</time></trkpt><trkpt lat="40.776837478511375" lon="9.442214473421773"><ele>307.0</ele><time>2026-03-28T08:34:53Z</time></trkpt><trkpt lat="40.776725406396615" lon="9.442023009023169"><ele>309.66666666666663</ele><time>2026-03-28T08:34:54Z</time></trkpt><trkpt lat="40.776619706896845" lon="9.441827922297128"><ele>312.3333333333333</ele><time>2026-03-28T08:34:54.999Z</time></trkpt><trkpt lat="40.77652154253298" lon="9.4416153647945"><ele>315.0</ele><time>2026-03-28T08:34:55.999Z</time></trkpt><trkpt lat="40.7764373385706" lon="9.441413678059307"><ele>315.0</ele><time>2026-03-28T08:34:56.999Z</time></trkpt><trkpt lat="40.77636564118825" lon="9.44122619704067"><ele>315.0</ele><time>2026-03-28T08:34:57.999Z</time></trkpt><trkpt lat="40.77629378186913" lon="9.441053242768133"><ele>315.0</ele><time>2026-03-28T08:34:58.999Z</time></trkpt><trkpt lat="40.77619940595814" lon="9.440875538213396"><ele>315.0</ele><time>2026-03-28T08:34:59.999Z</time></trkpt><trkpt lat="40.776072496836356" lon="9.440693745460907"><ele>315.0</ele><time>2026-03-28T08:35:00.999Z</time></trkpt><trkpt lat="40.77595733784759" lon="9.440514608736823"><ele>315.0</ele><time>2026-03-28T08:35:01.999Z</time></trkpt><trkpt lat="40.77587611742783" lon="9.440352386617015"><ele>321.6666666666667</ele><time>2026-03-28T08:35:02.999Z</time></trkpt><trkpt lat="40.775807066306136" lon="9.440172067559345"><ele>328.33333333333337</ele><time>2026-03-28T08:35:03.999Z</time></trkpt><trkpt lat="40.77574995232689" lon="9.439960262030407"><ele>335.0</ele><time>2026-03-28T08:35:04.999Z</time></trkpt><trkpt lat="40.775692154337854" lon="9.439714174795649"><ele>337.0</ele><time>2026-03-28T08:35:05.999Z</time></trkpt><trkpt lat="40.77563147577778" lon="9.439468373270632"><ele>339.0</ele><time>2026-03-28T08:35:06.999Z</time></trkpt><trkpt lat="40.77557674995789" lon="9.439263257197496"><ele>341.0</ele><time>2026-03-28T08:35:07.999Z</time></trkpt><trkpt lat="40.77552019214011" lon="9.439073344840699"><ele>341.0</ele><time>2026-03-28T08:35:08.999Z</time></trkpt><trkpt lat="40.77544301391837" lon="9.438855183416548"><ele>341.0</ele><time>2026-03-28T08:35:09.999Z</time></trkpt><trkpt lat="40.77535153288434" lon="9.438644157937077"><ele>341.0</ele><time>2026-03-28T08:35:10.999Z</time></trkpt><trkpt lat="40.77525341404139" lon="9.43845030982056"><ele>344.33333333333337</ele><time>2026-03-28T08:35:11.999Z</time></trkpt><trkpt lat="40.77516019399494" lon="9.438263936815677"><ele>347.6666666666667</ele><time>2026-03-28T08:35:12.999Z</time></trkpt><trkpt lat="40.77507679558835" lon="9.438075899060165"><ele>351.0</ele><time>2026-03-28T08:35:13.999Z</time></trkpt><trkpt lat="40.77500112028304" lon="9.437853465396906"><ele>351.0</ele><time>2026-03-28T08:35:14.999Z</time></trkpt><trkpt lat="40.774938364640754" lon="9.437611479319393"><ele>351.0</ele><time>2026-03-28T08:35:15.999Z</time></trkpt><trkpt lat="40.77488515412696" lon="9.437394179562531"><ele>351.0</ele><time>2026-03-28T08:35:16.999Z</time></trkpt><trkpt lat="40.774836859004985" lon="9.43719048289677"><ele>350.75</ele><time>2026-03-28T08:35:17.999Z</time></trkpt><trkpt lat="40.77478683736377" lon="9.436968939374704"><ele>350.5</ele><time>2026-03-28T08:35:18.999Z</time></trkpt><trkpt lat="40.774751836990426" lon="9.436771878413552"><ele>350.25</ele><time>2026-03-28T08:35:19.999Z</time></trkpt><trkpt lat="40.774733169243454" lon="9.436615562782544"><ele>350.0</ele><time>2026-03-28T08:35:20.999Z</time></trkpt><trkpt lat="40.77472344089948" lon="9.436496832616836"><ele>350.0</ele><time>2026-03-28T08:35:21.999Z</time></trkpt><trkpt lat="40.7747183565391" lon="9.43641017125309"><ele>350.0</ele><time>2026-03-28T08:35:22.999Z</time></trkpt><trkpt lat="40.774713494633914" lon="9.436324390816177"><ele>350.0</ele><time>2026-03-28T08:35:23.999Z</time></trkpt><trkpt lat="40.77470873103114" lon="9.436216541430081"><ele>350.0</ele><time>2026-03-28T08:35:24.999Z</time></trkpt><trkpt lat="40.774703905385" lon="9.436107287419077"><ele>350.0</ele><time>2026-03-28T08:35:25.999Z</time></trkpt><trkpt lat="40.77469877383506" lon="9.4359911075195"><ele>350.0</ele><time>2026-03-28T08:35:26.999Z</time></trkpt><trkpt lat="40.77469341902801" lon="9.435869873074504"><ele>352.2</ele><time>2026-03-28T08:35:28Z</time></trkpt><trkpt lat="40.77468744043841" lon="9.435738753795773"><ele>354.4</ele><time>2026-03-28T08:35:29Z</time></trkpt><trkpt lat="40.77468092389418" lon="9.435606779670909"><ele>356.6</ele><time>2026-03-28T08:35:30Z</time></trkpt><trkpt lat="40.77467129333999" lon="9.435466343095296"><ele>358.8</ele><time>2026-03-28T08:35:31Z</time></trkpt><trkpt lat="40.77464654833818" lon="9.435326195326718"><ele>361.0</ele><time>2026-03-28T08:35:32Z</time></trkpt><trkpt lat="40.77459566965724" lon="9.435208400415124"><ele>365.25</ele><time>2026-03-28T08:35:33Z</time></trkpt><trkpt lat="40.774512126172404" lon="9.435111323380381"><ele>369.5</ele><time>2026-03-28T08:35:34Z</time></trkpt><trkpt lat="40.77440246627391" lon="9.435043696310206"><ele>373.75</ele><time>2026-03-28T08:35:35Z</time></trkpt><trkpt lat="40.77426493584745" lon="9.435044752580309"><ele>378.0</ele><time>2026-03-28T08:35:36Z</time></trkpt><trkpt lat="40.774115631882495" lon="9.435033666695244"><ele>381.25</ele><time>2026-03-28T08:35:37Z</time></trkpt><trkpt lat="40.773957142552334" lon="9.434994015112808"><ele>384.5</ele><time>2026-03-28T08:35:38Z</time></trkpt><trkpt lat="40.773831808237965" lon="9.43496746201438"><ele>387.75</ele><time>2026-03-28T08:35:39Z</time></trkpt><trkpt lat="40.77372088139536" lon="9.43491228738011"><ele>391.0</ele><time>2026-03-28T08:35:40Z</time></trkpt><trkpt lat="40.773594801234026" lon="9.434833750405293"><ele>395.25</ele><time>2026-03-28T08:35:41Z</time></trkpt><trkpt lat="40.77345911155172" lon="9.434727667011895"><ele>399.5</ele><time>2026-03-28T08:35:42Z</time></trkpt><trkpt lat="40.773358734184086" lon="9.434620971516766"><ele>403.75</ele><time>2026-03-28T08:35:43Z</time></trkpt><trkpt lat="40.773280091133685" lon="9.434536032628968"><ele>408.0</ele><time>2026-03-28T08:35:44Z</time></trkpt><trkpt lat="40.77320244312399" lon="9.43445178653403"><ele>408.4</ele><time>2026-03-28T08:35:45Z</time></trkpt><trkpt lat="40.77311817344537" lon="9.434366859446644"><ele>408.79999999999995</ele><time>2026-03-28T08:35:46Z</time></trkpt><trkpt lat="40.77303748882366" lon="9.434290765273248"><ele>409.2</ele><time>2026-03-28T08:35:47Z</time></trkpt><trkpt lat="40.77296593925054" lon="9.43422351184335"><ele>409.6</ele><time>2026-03-28T08:35:48Z</time></trkpt><trkpt lat="40.77289368994314" lon="9.43415788578193"><ele>410.0</ele><time>2026-03-28T08:35:49Z</time></trkpt><trkpt lat="40.772820560233335" lon="9.434087249128929"><ele>410.0</ele><time>2026-03-28T08:35:50Z</time></trkpt><trkpt lat="40.77274544012633" lon="9.434013015029365"><ele>410.0</ele><time>2026-03-28T08:35:51Z</time></trkpt><trkpt lat="40.77266487649453" lon="9.433926324165654"><ele>410.0</ele><time>2026-03-28T08:35:52Z</time></trkpt><trkpt lat="40.77258211178066" lon="9.433830104882976"><ele>410.0</ele><time>2026-03-28T08:35:53Z</time></trkpt><trkpt lat="40.7725029601644" lon="9.433738086053507"><ele>410.0</ele><time>2026-03-28T08:35:54Z</time></trkpt><trkpt lat="40.77243277119344" lon="9.433658059424367"><ele>414.0</ele><time>2026-03-28T08:35:55Z</time></trkpt><trkpt lat="40.772372660970085" lon="9.433585944482187"><ele>418.0</ele><time>2026-03-28T08:35:56Z</time></trkpt><trkpt lat="40.772312022675244" lon="9.433504849893566"><ele>422.0</ele><time>2026-03-28T08:35:57Z</time></trkpt><trkpt lat="40.77225122500069" lon="9.433406507594164"><ele>426.0</ele><time>2026-03-28T08:35:58Z</time></trkpt><trkpt lat="40.77218026787133" lon="9.433284660410797"><ele>430.0</ele><time>2026-03-28T08:35:59Z</time></trkpt><trkpt lat="40.77210584433363" lon="9.433165507764738"><ele>430.0</ele><time>2026-03-28T08:36:00Z</time></trkpt><trkpt lat="40.77201769517535" lon="9.433047853147219"><ele>430.0</ele><time>2026-03-28T08:36:01Z</time></trkpt><trkpt lat="40.77192051015688" lon="9.432934434610308"><ele>430.0</ele><time>2026-03-28T08:36:02Z</time></trkpt><trkpt lat="40.771818819134836" lon="9.4328221132243"><ele>430.0</ele><time>2026-03-28T08:36:03Z</time></trkpt><trkpt lat="40.7717120576793" lon="9.432719838907389"><ele>434.0</ele><time>2026-03-28T08:36:04Z</time></trkpt><trkpt lat="40.771603498133146" lon="9.432629576091719"><ele>438.0</ele><time>2026-03-28T08:36:05Z</time></trkpt><trkpt lat="40.77149388650771" lon="9.432544300946908"><ele>442.0</ele><time>2026-03-28T08:36:06Z</time></trkpt><trkpt lat="40.771377810769145" lon="9.432462053949743"><ele>446.0</ele><time>2026-03-28T08:36:07Z</time></trkpt><trkpt lat="40.7712565090738" lon="9.432382810452681"><ele>445.99999999999994</ele><time>2026-03-28T08:36:08Z</time></trkpt><trkpt lat="40.77115040645305" lon="9.432313096294273"><ele>446.0</ele><time>2026-03-28T08:36:09Z</time></trkpt><trkpt lat="40.77107518652162" lon="9.432254398863241"><ele>446.0</ele><time>2026-03-28T08:36:10Z</time></trkpt><trkpt lat="40.77101282360272" lon="9.432199500416381"><ele>446.0</ele><time>2026-03-28T08:36:11Z</time></trkpt><trkpt lat="40.77098042649272" lon="9.432116199911022"><ele>445.99999999999994</ele><time>2026-03-28T08:36:12Z</time></trkpt><trkpt lat="40.770985079907355" lon="9.431993737778285"><ele>446.0</ele><time>2026-03-28T08:36:13Z</time></trkpt><trkpt lat="40.77096908093004" lon="9.43184348492061"><ele>451.75</ele><time>2026-03-28T08:36:14Z</time></trkpt><trkpt lat="40.770944752203214" lon="9.431673148781927"><ele>457.5</ele><time>2026-03-28T08:36:15Z</time></trkpt><trkpt lat="40.770910011899076" lon="9.431513018405989"><ele>463.25</ele><time>2026-03-28T08:36:16Z</time></trkpt><trkpt lat="40.77085171895533" lon="9.431357089766758"><ele>469.0</ele><time>2026-03-28T08:36:17Z</time></trkpt><trkpt lat="40.77082335249075" lon="9.431193330092931"><ele>470.0</ele><time>2026-03-28T08:36:18Z</time></trkpt><trkpt lat="40.77077340543317" lon="9.431046843370016"><ele>471.0</ele><time>2026-03-28T08:36:19Z</time></trkpt><trkpt lat="40.77069843589134" lon="9.430907469615683"><ele>472.0</ele><time>2026-03-28T08:36:20Z</time></trkpt><trkpt lat="40.77059426096347" lon="9.430801100283501"><ele>473.0</ele><time>2026-03-28T08:36:21Z</time></trkpt><trkpt lat="40.770495422458865" lon="9.430704941079602"><ele>473.0</ele><time>2026-03-28T08:36:22Z</time></trkpt><trkpt lat="40.7703602838548" lon="9.430629888920139"><ele>473.0</ele><time>2026-03-28T08:36:23Z</time></trkpt><trkpt lat="40.77023965577867" lon="9.430549741019478"><ele>473.0</ele><time>2026-03-28T08:36:24Z</time></trkpt><trkpt lat="40.770118339961535" lon="9.430500633700063"><ele>473.0</ele><time>2026-03-28T08:36:25Z</time></trkpt><trkpt lat="40.770007301737124" lon="9.430458792738085"><ele>477.16666666666663</ele><time>2026-03-28T08:36:26Z</time></trkpt><trkpt lat="40.76992880657779" lon="9.430418692909452"><ele>481.3333333333333</ele><time>2026-03-28T08:36:27Z</time></trkpt><trkpt lat="40.769866414859514" lon="9.43039548793873"><ele>485.5</ele><time>2026-03-28T08:36:28Z</time></trkpt><trkpt lat="40.76983697881618" lon="9.430311981151931"><ele>489.66666666666663</ele><time>2026-03-28T08:36:29Z</time></trkpt><trkpt lat="40.76986004871253" lon="9.430201744896479"><ele>493.8333333333333</ele><time>2026-03-28T08:36:30Z</time></trkpt><trkpt lat="40.76990717986545" lon="9.43010624734841"><ele>498.0</ele><time>2026-03-28T08:36:31Z</time></trkpt><trkpt lat="40.769977856413895" lon="9.429995999250421"><ele>498.0</ele><time>2026-03-28T08:36:32Z</time></trkpt><trkpt lat="40.77003594679972" lon="9.42984242438022"><ele>498.0</ele><time>2026-03-28T08:36:33Z</time></trkpt><trkpt lat="40.770056465438735" lon="9.429661974824958"><ele>498.0</ele><time>2026-03-28T08:36:34Z</time></trkpt><trkpt lat="40.77006231061763" lon="9.429492401747432"><ele>498.0</ele><time>2026-03-28T08:36:35Z</time></trkpt><trkpt lat="40.77008669336374" lon="9.429335558562443"><ele>499.2</ele><time>2026-03-28T08:36:36Z</time></trkpt><trkpt lat="40.77011123992242" lon="9.429213726063267"><ele>500.4</ele><time>2026-03-28T08:36:37Z</time></trkpt><trkpt lat="40.77017616613298" lon="9.429106739788617"><ele>501.59999999999997</ele><time>2026-03-28T08:36:38Z</time></trkpt><trkpt lat="40.770255375322414" lon="9.428985565726217"><ele>502.79999999999995</ele><time>2026-03-28T08:36:39Z</time></trkpt><trkpt lat="40.77031313178809" lon="9.428884624696114"><ele>504.0</ele><time>2026-03-28T08:36:40Z</time></trkpt><trkpt lat="40.77033878474452" lon="9.428779025381182"><ele>506.0</ele><time>2026-03-28T08:36:41Z</time></trkpt><trkpt lat="40.770313175845565" lon="9.42866824432212"><ele>508.0</ele><time>2026-03-28T08:36:42Z</time></trkpt><trkpt lat="40.77029713225165" lon="9.428575605709364"><ele>510.0</ele><time>2026-03-28T08:36:43Z</time></trkpt><trkpt lat="40.77021655096955" lon="9.42852962971162"><ele>512.0</ele><time>2026-03-28T08:36:44Z</time></trkpt><trkpt lat="40.77011846102119" lon="9.42853206168396"><ele>514.0</ele><time>2026-03-28T08:36:45Z</time></trkpt><trkpt lat="40.77002297075787" lon="9.428639943801079"><ele>514.0</ele><time>2026-03-28T08:36:46Z</time></trkpt><trkpt lat="40.76992845869065" lon="9.42875382871425"><ele>514.0</ele><time>2026-03-28T08:36:47Z</time></trkpt><trkpt lat="40.76982000643612" lon="9.428905226070503"><ele>514.0</ele><time>2026-03-28T08:36:48Z</time></trkpt><trkpt lat="40.76971680694839" lon="9.429054163716653"><ele>514.0</ele><time>2026-03-28T08:36:49Z</time></trkpt><trkpt lat="40.76963045785552" lon="9.429223667303383"><ele>514.0</ele><time>2026-03-28T08:36:50Z</time></trkpt><trkpt lat="40.76956611436298" lon="9.429418010093519"><ele>514.0</ele><time>2026-03-28T08:36:51Z</time></trkpt><trkpt lat="40.76949873523982" lon="9.429572543003736"><ele>514.0</ele><time>2026-03-28T08:36:52Z</time></trkpt><trkpt lat="40.76938903802576" lon="9.429623802698597"><ele>514.0</ele><time>2026-03-28T08:36:53Z</time></trkpt><trkpt lat="40.76926494292905" lon="9.429688432847717"><ele>517.0</ele><time>2026-03-28T08:36:54Z</time></trkpt><trkpt lat="40.76911754046063" lon="9.4297385824855"><ele>520.0</ele><time>2026-03-28T08:36:55Z</time></trkpt><trkpt lat="40.76895818715051" lon="9.429743420518612"><ele>523.0</ele><time>2026-03-28T08:36:56Z</time></trkpt><trkpt lat="40.768810314742325" lon="9.429726064527708"><ele>523.0</ele><time>2026-03-28T08:36:57Z</time></trkpt><trkpt lat="40.76868820636062" lon="9.42967302797176"><ele>523.0</ele><time>2026-03-28T08:36:58Z</time></trkpt><trkpt lat="40.76859216225836" lon="9.429604795388602"><ele>523.0</ele><time>2026-03-28T08:36:59Z</time></trkpt><trkpt lat="40.76851477650523" lon="9.429545311583421"><ele>523.0</ele><time>2026-03-28T08:37:00Z</time></trkpt><trkpt lat="40.768451359226745" lon="9.429494687156218"><ele>523.0</ele><time>2026-03-28T08:37:01Z</time></trkpt><trkpt lat="40.768377361094295" lon="9.429435614525765"><ele>525.4</ele><time>2026-03-28T08:37:03Z</time></trkpt><trkpt lat="40.76831414759869" lon="9.429385151316136"><ele>527.8</ele><time>2026-03-28T08:37:12Z</time></trkpt><trkpt lat="40.76821776843714" lon="9.429307211512791"><ele>530.2</ele><time>2026-03-28T08:37:13.999Z</time></trkpt><trkpt lat="40.76814651882079" lon="9.429244415896981"><ele>532.6</ele><time>2026-03-28T08:37:14.999Z</time></trkpt><trkpt lat="40.768055522679596" lon="9.42916249464325"><ele>535.0</ele><time>2026-03-28T08:37:15.999Z</time></trkpt><trkpt lat="40.76794383844071" lon="9.429061948488835"><ele>535.0</ele><time>2026-03-28T08:37:16.999Z</time></trkpt><trkpt lat="40.76782058986556" lon="9.428950991284486"><ele>535.0</ele><time>2026-03-28T08:37:17.999Z</time></trkpt><trkpt lat="40.767715406243454" lon="9.428856297446936"><ele>535.0</ele><time>2026-03-28T08:37:18.999Z</time></trkpt><trkpt lat="40.7675647449835" lon="9.428720560048815"><ele>533.0</ele><time>2026-03-28T08:37:19.999Z</time></trkpt><trkpt lat="40.76740073267284" lon="9.428567005332702"><ele>531.0</ele><time>2026-03-28T08:37:20.999Z</time></trkpt><trkpt lat="40.767230376056865" lon="9.428400326879315"><ele>529.0</ele><time>2026-03-28T08:37:21.999Z</time></trkpt><trkpt lat="40.76704575703774" lon="9.428217466219163"><ele>529.0</ele><time>2026-03-28T08:37:22.999Z</time></trkpt><trkpt lat="40.76688241733427" lon="9.42805602414925"><ele>529.0</ele><time>2026-03-28T08:37:23.999Z</time></trkpt><trkpt lat="40.76673237887459" lon="9.427911168364043"><ele>529.0</ele><time>2026-03-28T08:37:24.999Z</time></trkpt><trkpt lat="40.766570341419985" lon="9.427749465223576"><ele>530.3333333333334</ele><time>2026-03-28T08:37:25.999Z</time></trkpt><trkpt lat="40.76641733566101" lon="9.427596864510251"><ele>531.6666666666666</ele><time>2026-03-28T08:37:26.999Z</time></trkpt><trkpt lat="40.76628016428451" lon="9.427464960639375"><ele>533.0</ele><time>2026-03-28T08:37:27.999Z</time></trkpt><trkpt lat="40.766129409894745" lon="9.427341947399713"><ele>533.3333333333333</ele><time>2026-03-28T08:37:28.999Z</time></trkpt><trkpt lat="40.76594679151734" lon="9.427230732796401"><ele>533.6666666666666</ele><time>2026-03-28T08:37:29.999Z</time></trkpt><trkpt lat="40.76578250066768" lon="9.427117991371489"><ele>534.0</ele><time>2026-03-28T08:37:30.999Z</time></trkpt><trkpt lat="40.765635077543244" lon="9.427022805052648"><ele>534.0</ele><time>2026-03-28T08:37:31.999Z</time></trkpt><trkpt lat="40.765506140918845" lon="9.42696573023622"><ele>534.0</ele><time>2026-03-28T08:37:33Z</time></trkpt><trkpt lat="40.76539130016833" lon="9.426942151985894"><ele>534.0</ele><time>2026-03-28T08:37:34Z</time></trkpt><trkpt lat="40.765292443980684" lon="9.426968246285293"><ele>534.0</ele><time>2026-03-28T08:37:35Z</time></trkpt><trkpt lat="40.76519579947035" lon="9.427048215806517"><ele>530.6666666666666</ele><time>2026-03-28T08:37:36Z</time></trkpt><trkpt lat="40.76510244801205" lon="9.427177352890547"><ele>527.3333333333333</ele><time>2026-03-28T08:37:37Z</time></trkpt><trkpt lat="40.76499293461957" lon="9.427344824755956"><ele>524.0</ele><time>2026-03-28T08:37:38Z</time></trkpt><trkpt lat="40.76486545920934" lon="9.42748271044177"><ele>524.0</ele><time>2026-03-28T08:37:39Z</time></trkpt><trkpt lat="40.7647129191458" lon="9.4275667417886"><ele>524.0</ele><time>2026-03-28T08:37:40Z</time></trkpt><trkpt lat="40.764545284582766" lon="9.427635530263125"><ele>524.0</ele><time>2026-03-28T08:37:41Z</time></trkpt><trkpt lat="40.76436518960001" lon="9.427685709165704"><ele>522.6666666666666</ele><time>2026-03-28T08:37:42Z</time></trkpt><trkpt lat="40.76419724141569" lon="9.427721745462987"><ele>521.3333333333334</ele><time>2026-03-28T08:37:43Z</time></trkpt><trkpt lat="40.764057907694685" lon="9.4277063023772"><ele>520.0</ele><time>2026-03-28T08:37:44Z</time></trkpt><trkpt lat="40.76392158859421" lon="9.427659438357423"><ele>520.0</ele><time>2026-03-28T08:37:45Z</time></trkpt><trkpt lat="40.76374782443497" lon="9.427606567110907"><ele>520.0</ele><time>2026-03-28T08:37:46Z</time></trkpt><trkpt lat="40.76359245561489" lon="9.427605548688769"><ele>520.0</ele><time>2026-03-28T08:37:47Z</time></trkpt><trkpt lat="40.763422310659514" lon="9.427638404054507"><ele>519.3333333333334</ele><time>2026-03-28T08:37:48Z</time></trkpt><trkpt lat="40.76323070579847" lon="9.427718867694278"><ele>518.6666666666666</ele><time>2026-03-28T08:37:49Z</time></trkpt><trkpt lat="40.7630354594725" lon="9.42781385162046"><ele>518.0</ele><time>2026-03-28T08:37:50Z</time></trkpt><trkpt lat="40.76284360059994" lon="9.42784913318789"><ele>520.0</ele><time>2026-03-28T08:37:51Z</time></trkpt><trkpt lat="40.762661120847454" lon="9.427870900504963"><ele>522.0</ele><time>2026-03-28T08:37:52Z</time></trkpt><trkpt lat="40.762487260780425" lon="9.427870561626245"><ele>524.0</ele><time>2026-03-28T08:37:53Z</time></trkpt><trkpt lat="40.76231783468434" lon="9.42787219416118"><ele>524.0</ele><time>2026-03-28T08:37:54Z</time></trkpt><trkpt lat="40.76214257746044" lon="9.427872852887804"><ele>524.0</ele><time>2026-03-28T08:37:55Z</time></trkpt><trkpt lat="40.76198345819667" lon="9.427862436895872"><ele>524.0</ele><time>2026-03-28T08:37:56Z</time></trkpt><trkpt lat="40.76182636895324" lon="9.427824006500428"><ele>524.25</ele><time>2026-03-28T08:37:57Z</time></trkpt><trkpt lat="40.76167523199991" lon="9.427768249945792"><ele>524.5</ele><time>2026-03-28T08:37:58Z</time></trkpt><trkpt lat="40.76153445885608" lon="9.427694892632244"><ele>524.75</ele><time>2026-03-28T08:37:59Z</time></trkpt><trkpt lat="40.76141003819129" lon="9.427612831119912"><ele>525.0</ele><time>2026-03-28T08:38:00Z</time></trkpt><trkpt lat="40.76130360797934" lon="9.427527514080422"><ele>525.0</ele><time>2026-03-28T08:38:01Z</time></trkpt><trkpt lat="40.76120977812247" lon="9.427431149952234"><ele>525.0</ele><time>2026-03-28T08:38:02Z</time></trkpt><trkpt lat="40.761120231819966" lon="9.427296186622936"><ele>525.0</ele><time>2026-03-28T08:38:03Z</time></trkpt><trkpt lat="40.7610124362113" lon="9.42714261460335"><ele>525.0</ele><time>2026-03-28T08:38:04Z</time></trkpt><trkpt lat="40.76090254733639" lon="9.426986059765571"><ele>524.6666666666666</ele><time>2026-03-28T08:38:05Z</time></trkpt><trkpt lat="40.7607993109573" lon="9.426820163294655"><ele>524.3333333333333</ele><time>2026-03-28T08:38:06Z</time></trkpt><trkpt lat="40.7607108272992" lon="9.426644016957622"><ele>524.0</ele><time>2026-03-28T08:38:07Z</time></trkpt><trkpt lat="40.76061990831435" lon="9.426456362047205"><ele>525.3333333333333</ele><time>2026-03-28T08:38:08Z</time></trkpt><trkpt lat="40.76052874063948" lon="9.426265054077845"><ele>526.6666666666666</ele><time>2026-03-28T08:38:09Z</time></trkpt><trkpt lat="40.76044531045446" lon="9.42608536590913"><ele>528.0</ele><time>2026-03-28T08:38:10Z</time></trkpt><trkpt lat="40.76036956428805" lon="9.425922050627019"><ele>528.0</ele><time>2026-03-28T08:38:11Z</time></trkpt><trkpt lat="40.76029959068245" lon="9.42576533358684"><ele>528.0</ele><time>2026-03-28T08:38:12Z</time></trkpt><trkpt lat="40.76022319624341" lon="9.425634961069894"><ele>528.0</ele><time>2026-03-28T08:38:13Z</time></trkpt><trkpt lat="40.76012686115821" lon="9.425548251170666"><ele>528.0</ele><time>2026-03-28T08:38:14Z</time></trkpt><trkpt lat="40.76001670310843" lon="9.425487169640025"><ele>524.0</ele><time>2026-03-28T08:38:15Z</time></trkpt><trkpt lat="40.75986423820599" lon="9.425438418460779"><ele>520.0</ele><time>2026-03-28T08:38:16Z</time></trkpt><trkpt lat="40.75973301207039" lon="9.425319708046542"><ele>516.0</ele><time>2026-03-28T08:38:17Z</time></trkpt><trkpt lat="40.759632324151035" lon="9.425196346842084"><ele>516.0</ele><time>2026-03-28T08:38:18Z</time></trkpt><trkpt lat="40.759556562537945" lon="9.425060393750185"><ele>516.0</ele><time>2026-03-28T08:38:19Z</time></trkpt><trkpt lat="40.75950892384777" lon="9.424922483007057"><ele>516.0</ele><time>2026-03-28T08:38:20Z</time></trkpt><trkpt lat="40.759451700231395" lon="9.42476959042233"><ele>516.0</ele><time>2026-03-28T08:38:21Z</time></trkpt><trkpt lat="40.75940254389158" lon="9.424602142636287"><ele>516.0</ele><time>2026-03-28T08:38:22Z</time></trkpt><trkpt lat="40.75937947657609" lon="9.42442455662917"><ele>516.0</ele><time>2026-03-28T08:38:23Z</time></trkpt><trkpt lat="40.75937710388114" lon="9.424243424164821"><ele>516.0</ele><time>2026-03-28T08:38:24Z</time></trkpt><trkpt lat="40.75937048785923" lon="9.424056323503851"><ele>516.0</ele><time>2026-03-28T08:38:25Z</time></trkpt><trkpt lat="40.759355849839594" lon="9.423888005192374"><ele>515.6666666666666</ele><time>2026-03-28T08:38:26Z</time></trkpt><trkpt lat="40.75930881318859" lon="9.423711519706414"><ele>515.3333333333333</ele><time>2026-03-28T08:38:27Z</time></trkpt><trkpt lat="40.759218751550506" lon="9.423529498263038"><ele>515.0</ele><time>2026-03-28T08:38:28Z</time></trkpt><trkpt lat="40.75915235413058" lon="9.423335329249738"><ele>515.0</ele><time>2026-03-28T08:38:29Z</time></trkpt><trkpt lat="40.75907076201385" lon="9.423172853076126"><ele>515.0</ele><time>2026-03-28T08:38:30Z</time></trkpt><trkpt lat="40.75896191429589" lon="9.423001641041932"><ele>515.0</ele><time>2026-03-28T08:38:31Z</time></trkpt><trkpt lat="40.75884257717721" lon="9.422830208619713"><ele>515.0</ele><time>2026-03-28T08:38:32Z</time></trkpt><trkpt lat="40.758722509554175" lon="9.42266233633292"><ele>515.0</ele><time>2026-03-28T08:38:33Z</time></trkpt><trkpt lat="40.75860302757337" lon="9.422495726172922"><ele>515.0</ele><time>2026-03-28T08:38:34Z</time></trkpt><trkpt lat="40.758479673701466" lon="9.422336097821123"><ele>515.0</ele><time>2026-03-28T08:38:35Z</time></trkpt><trkpt lat="40.75836328150994" lon="9.422177530266787"><ele>515.0</ele><time>2026-03-28T08:38:36Z</time></trkpt><trkpt lat="40.758256514990585" lon="9.421994391795387"><ele>515.0</ele><time>2026-03-28T08:38:37Z</time></trkpt><trkpt lat="40.75816843065552" lon="9.421813673109828"><ele>515.25</ele><time>2026-03-28T08:38:38Z</time></trkpt><trkpt lat="40.75810138112121" lon="9.421640384922368"><ele>515.5</ele><time>2026-03-28T08:38:39Z</time></trkpt><trkpt lat="40.75803469787224" lon="9.421471352133599"><ele>515.75</ele><time>2026-03-28T08:38:40Z</time></trkpt><trkpt lat="40.75796172154107" lon="9.421309631499884"><ele>516.0</ele><time>2026-03-28T08:38:41Z</time></trkpt><trkpt lat="40.757882061749775" lon="9.421162523289958"><ele>516.0</ele><time>2026-03-28T08:38:42Z</time></trkpt><trkpt lat="40.75780401929371" lon="9.421028919080259"><ele>516.0</ele><time>2026-03-28T08:38:43Z</time></trkpt><trkpt lat="40.757739721666795" lon="9.420903936350923"><ele>516.0</ele><time>2026-03-28T08:38:44Z</time></trkpt><trkpt lat="40.75769109466763" lon="9.420774080023778"><ele>516.0</ele><time>2026-03-28T08:38:45Z</time></trkpt><trkpt lat="40.75765082287883" lon="9.420617013093283"><ele>514.75</ele><time>2026-03-28T08:38:46Z</time></trkpt><trkpt lat="40.757629044693815" lon="9.420447213538"><ele>513.5</ele><time>2026-03-28T08:38:47Z</time></trkpt><trkpt lat="40.75761052064289" lon="9.420273657418976"><ele>512.25</ele><time>2026-03-28T08:38:48Z</time></trkpt><trkpt lat="40.75759006757703" lon="9.420111223907886"><ele>511.0</ele><time>2026-03-28T08:38:49Z</time></trkpt><trkpt lat="40.757540553738906" lon="9.419965336317517"><ele>511.0</ele><time>2026-03-28T08:38:50Z</time></trkpt><trkpt lat="40.75747686285041" lon="9.419840792920704"><ele>511.0</ele><time>2026-03-28T08:38:51Z</time></trkpt><trkpt lat="40.75740984689981" lon="9.419709545299833"><ele>511.0</ele><time>2026-03-28T08:38:52Z</time></trkpt><trkpt lat="40.757340829882644" lon="9.419572832432191"><ele>511.0</ele><time>2026-03-28T08:38:53Z</time></trkpt><trkpt lat="40.757271777762746" lon="9.419430871648261"><ele>512.25</ele><time>2026-03-28T08:38:54Z</time></trkpt><trkpt lat="40.75720111310131" lon="9.419285374217038"><ele>513.5</ele><time>2026-03-28T08:38:55Z</time></trkpt><trkpt lat="40.75713353224152" lon="9.419146226306337"><ele>514.75</ele><time>2026-03-28T08:38:56Z</time></trkpt><trkpt lat="40.757064910837116" lon="9.419005348533979"><ele>516.0</ele><time>2026-03-28T08:38:57Z</time></trkpt><trkpt lat="40.75699201839188" lon="9.418860522088263"><ele>515.0</ele><time>2026-03-28T08:38:58Z</time></trkpt><trkpt lat="40.75691679617372" lon="9.418716260325512"><ele>514.0</ele><time>2026-03-28T08:38:59Z</time></trkpt><trkpt lat="40.75684269530504" lon="9.418571811579744"><ele>513.0</ele><time>2026-03-28T08:39:00Z</time></trkpt><trkpt lat="40.756771323853066" lon="9.418434563917733"><ele>512.0</ele><time>2026-03-28T08:39:01Z</time></trkpt><trkpt lat="40.75670142556501" lon="9.418307081926931"><ele>512.0</ele><time>2026-03-28T08:39:02Z</time></trkpt><trkpt lat="40.75662952276043" lon="9.418177799982873"><ele>512.0</ele><time>2026-03-28T08:39:03Z</time></trkpt><trkpt lat="40.756558698638486" lon="9.418046518506701"><ele>512.0</ele><time>2026-03-28T08:39:03.999Z</time></trkpt><trkpt lat="40.75649106129074" lon="9.417918430306647"><ele>512.0</ele><time>2026-03-28T08:39:04.999Z</time></trkpt><trkpt lat="40.75642218236707" lon="9.417789066485883"><ele>512.0</ele><time>2026-03-28T08:39:05.999Z</time></trkpt><trkpt lat="40.75635252956044" lon="9.417654019036252"><ele>512.0</ele><time>2026-03-28T08:39:06.999Z</time></trkpt><trkpt lat="40.75628457535392" lon="9.4175034375808"><ele>512.0</ele><time>2026-03-28T08:39:07.999Z</time></trkpt><trkpt lat="40.756231356064205" lon="9.417337837189946"><ele>512.0</ele><time>2026-03-28T08:39:08.999Z</time></trkpt><trkpt lat="40.756189094864745" lon="9.417157690868038"><ele>511.75</ele><time>2026-03-28T08:39:09.999Z</time></trkpt><trkpt lat="40.75614832075951" lon="9.41697308980313"><ele>511.5</ele><time>2026-03-28T08:39:10.999Z</time></trkpt><trkpt lat="40.756111240966526" lon="9.416785492960335"><ele>511.25</ele><time>2026-03-28T08:39:11.999Z</time></trkpt><trkpt lat="40.75607809603672" lon="9.416597508903067"><ele>511.0</ele><time>2026-03-28T08:39:12.999Z</time></trkpt><trkpt lat="40.75604580325483" lon="9.416407750357077"><ele>510.0</ele><time>2026-03-28T08:39:13.999Z</time></trkpt><trkpt lat="40.756011721065406" lon="9.41621205444335"><ele>509.0</ele><time>2026-03-28T08:39:14.999Z</time></trkpt><trkpt lat="40.75597227201032" lon="9.416013937373318"><ele>508.0</ele><time>2026-03-28T08:39:15.999Z</time></trkpt><trkpt lat="40.755928666804294" lon="9.415807798358179"><ele>508.0</ele><time>2026-03-28T08:39:16.999Z</time></trkpt><trkpt lat="40.755883479907624" lon="9.415602051596013"><ele>508.0</ele><time>2026-03-28T08:39:17.999Z</time></trkpt><trkpt lat="40.755839152727894" lon="9.415403320173413"><ele>508.0</ele><time>2026-03-28T08:39:18.999Z</time></trkpt><trkpt lat="40.75579549466062" lon="9.415207587656221"><ele>509.33333333333337</ele><time>2026-03-28T08:39:19.999Z</time></trkpt><trkpt lat="40.75575191852104" lon="9.415012220660506"><ele>510.66666666666663</ele><time>2026-03-28T08:39:20.999Z</time></trkpt><trkpt lat="40.75570872806387" lon="9.414818582816276"><ele>512.0</ele><time>2026-03-28T08:39:21.999Z</time></trkpt><trkpt lat="40.75564137655846" lon="9.41463315194083"><ele>513.25</ele><time>2026-03-28T08:39:22.999Z</time></trkpt><trkpt lat="40.75560273028882" lon="9.41443924171251"><ele>514.5</ele><time>2026-03-28T08:39:23.999Z</time></trkpt><trkpt lat="40.75556783452893" lon="9.414242615781367"><ele>515.75</ele><time>2026-03-28T08:39:24.999Z</time></trkpt><trkpt lat="40.75554434444148" lon="9.414064846760013"><ele>517.0</ele><time>2026-03-28T08:39:25.999Z</time></trkpt><trkpt lat="40.755526631967136" lon="9.413910867119903"><ele>517.75</ele><time>2026-03-28T08:39:26.999Z</time></trkpt><trkpt lat="40.75550616040804" lon="9.41374870540677"><ele>518.5</ele><time>2026-03-28T08:39:27.999Z</time></trkpt><trkpt lat="40.75549257827572" lon="9.41359335050539"><ele>519.25</ele><time>2026-03-28T08:39:28.999Z</time></trkpt><trkpt lat="40.75548292439519" lon="9.413446726342096"><ele>520.0</ele><time>2026-03-28T08:39:29.999Z</time></trkpt><trkpt lat="40.75547652598889" lon="9.413314870235288"><ele>520.0</ele><time>2026-03-28T08:39:30.999Z</time></trkpt><trkpt lat="40.7554715745262" lon="9.413196156764961"><ele>520.0</ele><time>2026-03-28T08:39:31.999Z</time></trkpt><trkpt lat="40.75547292218488" lon="9.413042207464105"><ele>520.0</ele><time>2026-03-28T08:39:32.999Z</time></trkpt><trkpt lat="40.7554782396192" lon="9.412889923773667"><ele>520.0</ele><time>2026-03-28T08:39:33.999Z</time></trkpt><trkpt lat="40.75547823119911" lon="9.41275095146323"><ele>520.0</ele><time>2026-03-28T08:39:34.999Z</time></trkpt><trkpt lat="40.755472039789645" lon="9.412612284783567"><ele>520.0</ele><time>2026-03-28T08:39:35.999Z</time></trkpt><trkpt lat="40.75546742067774" lon="9.412465973134667"><ele>520.0</ele><time>2026-03-28T08:39:36.999Z</time></trkpt><trkpt lat="40.755463671973246" lon="9.412318935455195"><ele>520.0</ele><time>2026-03-28T08:39:37.999Z</time></trkpt><trkpt lat="40.75544840917577" lon="9.412176947724813"><ele>520.0</ele><time>2026-03-28T08:39:39Z</time></trkpt><trkpt lat="40.75540935312483" lon="9.41203449308662"><ele>520.0</ele><time>2026-03-28T08:39:40Z</time></trkpt><trkpt lat="40.75534596296483" lon="9.411906226661543"><ele>519.0</ele><time>2026-03-28T08:39:41Z</time></trkpt><trkpt lat="40.75527366280291" lon="9.411774764993346"><ele>518.0</ele><time>2026-03-28T08:39:42Z</time></trkpt><trkpt lat="40.75519691897279" lon="9.411648329595328"><ele>517.0</ele><time>2026-03-28T08:39:43Z</time></trkpt><trkpt lat="40.75511321267581" lon="9.41154238021379"><ele>516.0</ele><time>2026-03-28T08:39:44Z</time></trkpt><trkpt lat="40.75501581174164" lon="9.411440271198515"><ele>516.0</ele><time>2026-03-28T08:39:45Z</time></trkpt><trkpt lat="40.75491263777716" lon="9.411342864844434"><ele>516.0</ele><time>2026-03-28T08:39:46Z</time></trkpt><trkpt lat="40.75481177573377" lon="9.411253361575481"><ele>516.0</ele><time>2026-03-28T08:39:47Z</time></trkpt><trkpt lat="40.754714045952454" lon="9.411166717132465"><ele>516.0</ele><time>2026-03-28T08:39:48Z</time></trkpt><trkpt lat="40.75461963416919" lon="9.41107258979743"><ele>517.0</ele><time>2026-03-28T08:39:49Z</time></trkpt><trkpt lat="40.75451788570569" lon="9.4109686426254"><ele>518.0</ele><time>2026-03-28T08:39:50Z</time></trkpt><trkpt lat="40.75439979021322" lon="9.410857243814794"><ele>519.0</ele><time>2026-03-28T08:39:51Z</time></trkpt><trkpt lat="40.75429035508442" lon="9.410743911133084"><ele>520.0</ele><time>2026-03-28T08:39:52Z</time></trkpt><trkpt lat="40.7541857510103" lon="9.410627897131477"><ele>518.75</ele><time>2026-03-28T08:39:53Z</time></trkpt><trkpt lat="40.75408058589819" lon="9.410513307333487"><ele>517.5</ele><time>2026-03-28T08:39:54Z</time></trkpt><trkpt lat="40.7539746670814" lon="9.41039147375046"><ele>516.25</ele><time>2026-03-28T08:39:55Z</time></trkpt><trkpt lat="40.753877950782126" lon="9.41025319433778"><ele>515.0</ele><time>2026-03-28T08:39:56Z</time></trkpt><trkpt lat="40.753787777981714" lon="9.41008923715545"><ele>515.0</ele><time>2026-03-28T08:39:57Z</time></trkpt><trkpt lat="40.75368916759212" lon="9.409928028460138"><ele>515.0</ele><time>2026-03-28T08:39:58Z</time></trkpt><trkpt lat="40.75359170646892" lon="9.409770979917356"><ele>515.0</ele><time>2026-03-28T08:39:59Z</time></trkpt><trkpt lat="40.75349766742773" lon="9.409615585111588"><ele>514.5</ele><time>2026-03-28T08:40:00Z</time></trkpt><trkpt lat="40.75340796836478" lon="9.409466244297995"><ele>514.0</ele><time>2026-03-28T08:40:01Z</time></trkpt><trkpt lat="40.753328394528474" lon="9.409325332038021"><ele>513.5</ele><time>2026-03-28T08:40:02Z</time></trkpt><trkpt lat="40.75325498220995" lon="9.409197247662181"><ele>513.0</ele><time>2026-03-28T08:40:03Z</time></trkpt><trkpt lat="40.753177617333904" lon="9.409084616090523"><ele>513.0</ele><time>2026-03-28T08:40:04Z</time></trkpt><trkpt lat="40.75308965726336" lon="9.40898743469715"><ele>513.0</ele><time>2026-03-28T08:40:05Z</time></trkpt><trkpt lat="40.752994403207204" lon="9.408913803083298"><ele>513.0</ele><time>2026-03-28T08:40:06Z</time></trkpt><trkpt lat="40.75288911659069" lon="9.40887817165396"><ele>513.0</ele><time>2026-03-28T08:40:07Z</time></trkpt><trkpt lat="40.752762273646525" lon="9.408872637442789"><ele>510.66666666666663</ele><time>2026-03-28T08:40:08Z</time></trkpt><trkpt lat="40.75260513522854" lon="9.408876341391347"><ele>508.3333333333333</ele><time>2026-03-28T08:40:09Z</time></trkpt><trkpt lat="40.75243500440199" lon="9.408870316886407"><ele>506.0</ele><time>2026-03-28T08:40:10Z</time></trkpt><trkpt lat="40.75227398520043" lon="9.408862282403518"><ele>506.0</ele><time>2026-03-28T08:40:11Z</time></trkpt><trkpt lat="40.752124552007906" lon="9.408855314248138"><ele>506.0</ele><time>2026-03-28T08:40:12Z</time></trkpt><trkpt lat="40.75198959194313" lon="9.408839679719161"><ele>506.0</ele><time>2026-03-28T08:40:13Z</time></trkpt><trkpt lat="40.75187822099699" lon="9.40878943662338"><ele>506.0</ele><time>2026-03-28T08:40:14Z</time></trkpt><trkpt lat="40.75177472539583" lon="9.408692914196381"><ele>506.3333333333333</ele><time>2026-03-28T08:40:15Z</time></trkpt><trkpt lat="40.751672604595726" lon="9.408542884682953"><ele>506.66666666666663</ele><time>2026-03-28T08:40:16Z</time></trkpt><trkpt lat="40.75158252102488" lon="9.408365519909424"><ele>507.0</ele><time>2026-03-28T08:40:17Z</time></trkpt><trkpt lat="40.75151445734191" lon="9.408195958989044"><ele>507.0</ele><time>2026-03-28T08:40:18Z</time></trkpt><trkpt lat="40.75144824929425" lon="9.408046874297852"><ele>507.0</ele><time>2026-03-28T08:40:19Z</time></trkpt><trkpt lat="40.7513580526386" lon="9.40791975247701"><ele>507.0</ele><time>2026-03-28T08:40:20Z</time></trkpt><trkpt lat="40.75124723566565" lon="9.407799259258129"><ele>507.0</ele><time>2026-03-28T08:40:21Z</time></trkpt><trkpt lat="40.751134164561876" lon="9.407705686071976"><ele>507.75</ele><time>2026-03-28T08:40:22Z</time></trkpt><trkpt lat="40.751013743527345" lon="9.407642619803703"><ele>508.5</ele><time>2026-03-28T08:40:23Z</time></trkpt><trkpt lat="40.75086150909065" lon="9.407617778438686"><ele>509.25</ele><time>2026-03-28T08:40:24Z</time></trkpt><trkpt lat="40.750699195567464" lon="9.407603455345102"><ele>510.0</ele><time>2026-03-28T08:40:25Z</time></trkpt><trkpt lat="40.75053653389165" lon="9.407608270689428"><ele>510.0</ele><time>2026-03-28T08:40:26Z</time></trkpt><trkpt lat="40.750378029997314" lon="9.407617534608534"><ele>510.0</ele><time>2026-03-28T08:40:27Z</time></trkpt><trkpt lat="40.75022982217799" lon="9.407627525844987"><ele>510.0</ele><time>2026-03-28T08:40:28Z</time></trkpt><trkpt lat="40.75009638952891" lon="9.407628999153198"><ele>510.0</ele><time>2026-03-28T08:40:29Z</time></trkpt><trkpt lat="40.749968811154424" lon="9.407636168266466"><ele>509.4</ele><time>2026-03-28T08:40:30Z</time></trkpt><trkpt lat="40.749854871172396" lon="9.407627252808327"><ele>508.8</ele><time>2026-03-28T08:40:31Z</time></trkpt><trkpt lat="40.74975961097244" lon="9.407613401247643"><ele>508.20000000000005</ele><time>2026-03-28T08:40:32Z</time></trkpt><trkpt lat="40.74968466500895" lon="9.407588788515257"><ele>507.6</ele><time>2026-03-28T08:40:33Z</time></trkpt><trkpt lat="40.74957887223247" lon="9.407538201939468"><ele>507.0</ele><time>2026-03-28T08:40:35Z</time></trkpt><trkpt lat="40.74950165502386" lon="9.40748830900252"><ele>507.0</ele><time>2026-03-28T08:41:02Z</time></trkpt><trkpt lat="40.74961113030104" lon="9.407550762267292"><ele>507.0</ele><time>2026-03-28T08:41:29.999Z</time></trkpt><trkpt lat="40.74969077035885" lon="9.407621258296567"><ele>507.0</ele><time>2026-03-28T08:41:31.999Z</time></trkpt><trkpt lat="40.74973356588433" lon="9.407719149780963"><ele>507.0</ele><time>2026-03-28T08:41:34.999Z</time></trkpt><trkpt lat="40.749739773551525" lon="9.407807996815704"><ele>507.0</ele><time>2026-03-28T08:41:37.999Z</time></trkpt><trkpt lat="40.74968786740102" lon="9.407874904320193"><ele>507.0</ele><time>2026-03-28T08:41:54Z</time></trkpt><trkpt lat="40.74960946340388" lon="9.407887363089603"><ele>507.0</ele><time>2026-03-28T08:41:57Z</time></trkpt><trkpt lat="40.74951253258609" lon="9.407910080394274"><ele>507.00000000000006</ele><time>2026-03-28T08:41:59Z</time></trkpt><trkpt lat="40.74943829355058" lon="9.407944973010148"><ele>507.00000000000006</ele><time>2026-03-28T08:42:01Z</time></trkpt><trkpt lat="40.7493632478317" lon="9.407977985642736"><ele>507.0</ele><time>2026-03-28T08:42:05Z</time></trkpt><trkpt lat="40.74930312735463" lon="9.408015883377901"><ele>507.0</ele><time>2026-03-28T08:42:07Z</time></trkpt><trkpt lat="40.74921984164574" lon="9.40814505601891"><ele>506.71428571428567</ele><time>2026-03-28T08:42:09Z</time></trkpt><trkpt lat="40.749165783224754" lon="9.4082276543502"><ele>506.42857142857144</ele><time>2026-03-28T08:42:10Z</time></trkpt><trkpt lat="40.749118134520856" lon="9.408282078419678"><ele>506.1428571428571</ele><time>2026-03-28T08:42:11Z</time></trkpt><trkpt lat="40.74905936652196" lon="9.408317806502618"><ele>505.85714285714283</ele><time>2026-03-28T08:42:12Z</time></trkpt><trkpt lat="40.748991640099625" lon="9.408338807371507"><ele>505.57142857142856</ele><time>2026-03-28T08:42:13Z</time></trkpt><trkpt lat="40.74891306724186" lon="9.40835280647044"><ele>505.2857142857143</ele><time>2026-03-28T08:42:14Z</time></trkpt><trkpt lat="40.74882953671617" lon="9.40838128103244"><ele>505.0</ele><time>2026-03-28T08:42:15Z</time></trkpt><trkpt lat="40.748739314456515" lon="9.408433669078903"><ele>505.0</ele><time>2026-03-28T08:42:17Z</time></trkpt><trkpt lat="40.74873038377686" lon="9.408555470186014"><ele>505.0</ele><time>2026-03-28T08:42:20Z</time></trkpt><trkpt lat="40.74875543007358" lon="9.40863959315244"><ele>505.0</ele><time>2026-03-28T08:42:21Z</time></trkpt><trkpt lat="40.748780103817" lon="9.408762629133152"><ele>505.0</ele><time>2026-03-28T08:42:22Z</time></trkpt><trkpt lat="40.74879821631784" lon="9.408918735390262"><ele>505.0</ele><time>2026-03-28T08:42:23Z</time></trkpt><trkpt lat="40.74881064741813" lon="9.40905487886477"><ele>505.6</ele><time>2026-03-28T08:42:24Z</time></trkpt><trkpt lat="40.74883233881644" lon="9.40919200928455"><ele>506.2</ele><time>2026-03-28T08:42:25Z</time></trkpt><trkpt lat="40.74887621945068" lon="9.409346946696099"><ele>506.79999999999995</ele><time>2026-03-28T08:42:26Z</time></trkpt><trkpt lat="40.74891929354262" lon="9.409490913785412"><ele>507.4</ele><time>2026-03-28T08:42:27Z</time></trkpt><trkpt lat="40.7489534994523" lon="9.409612458394509"><ele>508.0</ele><time>2026-03-28T08:42:28Z</time></trkpt><trkpt lat="40.748964671752454" lon="9.409749532674489"><ele>508.4</ele><time>2026-03-28T08:42:29Z</time></trkpt><trkpt lat="40.74897449133643" lon="9.409890049963689"><ele>508.79999999999995</ele><time>2026-03-28T08:42:30Z</time></trkpt><trkpt lat="40.748970312165746" lon="9.410033846692397"><ele>509.2</ele><time>2026-03-28T08:42:31Z</time></trkpt><trkpt lat="40.74896059322543" lon="9.410135123941567"><ele>509.6</ele><time>2026-03-28T08:42:32Z</time></trkpt><trkpt lat="40.748886875531355" lon="9.41017057984183"><ele>510.0</ele><time>2026-03-28T08:42:36Z</time></trkpt><trkpt lat="40.74877260599211" lon="9.41013121318724"><ele>510.0</ele><time>2026-03-28T08:42:38Z</time></trkpt><trkpt lat="40.74868640044908" lon="9.41012604988734"><ele>510.0</ele><time>2026-03-28T08:42:39Z</time></trkpt><trkpt lat="40.74860808798389" lon="9.41009476308249"><ele>510.0</ele><time>2026-03-28T08:42:40Z</time></trkpt><trkpt lat="40.74852987928523" lon="9.410023447910277"><ele>510.0</ele><time>2026-03-28T08:42:41Z</time></trkpt><trkpt lat="40.748466155349455" lon="9.409962571135829"><ele>510.0</ele><time>2026-03-28T08:42:42Z</time></trkpt><trkpt lat="40.748362158610526" lon="9.409939438963598"><ele>510.0</ele><time>2026-03-28T08:42:44Z</time></trkpt><trkpt lat="40.74829785127745" lon="9.409999314682468"><ele>510.8333333333333</ele><time>2026-03-28T08:42:45Z</time></trkpt><trkpt lat="40.748212726079814" lon="9.410057286309254"><ele>511.66666666666663</ele><time>2026-03-28T08:42:46Z</time></trkpt><trkpt lat="40.74812092953959" lon="9.410082692601943"><ele>512.5</ele><time>2026-03-28T08:42:47Z</time></trkpt><trkpt lat="40.748036013225956" lon="9.410085389022122"><ele>513.3333333333333</ele><time>2026-03-28T08:42:48Z</time></trkpt><trkpt lat="40.74796430452888" lon="9.410054309928386"><ele>514.1666666666666</ele><time>2026-03-28T08:42:49Z</time></trkpt><trkpt lat="40.74788070908988" lon="9.409985081580523"><ele>515.0</ele><time>2026-03-28T08:42:50Z</time></trkpt><trkpt lat="40.74781088488306" lon="9.40986772768807"><ele>515.0</ele><time>2026-03-28T08:42:51Z</time></trkpt><trkpt lat="40.74772529466986" lon="9.409737790673775"><ele>515.0</ele><time>2026-03-28T08:42:52Z</time></trkpt><trkpt lat="40.747627770406226" lon="9.409645141939896"><ele>515.0</ele><time>2026-03-28T08:42:53Z</time></trkpt><trkpt lat="40.747519874341506" lon="9.409595605943453"><ele>515.0</ele><time>2026-03-28T08:42:54Z</time></trkpt><trkpt lat="40.7473912403784" lon="9.409557999797626"><ele>514.2</ele><time>2026-03-28T08:42:55Z</time></trkpt><trkpt lat="40.74727443692148" lon="9.409528661245657"><ele>513.4</ele><time>2026-03-28T08:42:56Z</time></trkpt><trkpt lat="40.74715507425267" lon="9.409513695349359"><ele>512.6</ele><time>2026-03-28T08:42:58Z</time></trkpt><trkpt lat="40.74709417927643" lon="9.409473531795053"><ele>511.8</ele><time>2026-03-28T08:42:59Z</time></trkpt><trkpt lat="40.747030962394426" lon="9.40940763035198"><ele>511.0</ele><time>2026-03-28T08:43:00Z</time></trkpt><trkpt lat="40.74697147282058" lon="9.40933772675619"><ele>511.0</ele><time>2026-03-28T08:43:01Z</time></trkpt><trkpt lat="40.746912093849275" lon="9.409289610453312"><ele>511.0</ele><time>2026-03-28T08:43:02Z</time></trkpt><trkpt lat="40.74678795541767" lon="9.40928799129145"><ele>511.0</ele><time>2026-03-28T08:43:04Z</time></trkpt><trkpt lat="40.746714277603644" lon="9.409329635440802"><ele>511.0</ele><time>2026-03-28T08:43:05Z</time></trkpt><trkpt lat="40.7466207806026" lon="9.409379011157956"><ele>511.0</ele><time>2026-03-28T08:43:06Z</time></trkpt><trkpt lat="40.746515164187244" lon="9.409405856016793"><ele>511.6</ele><time>2026-03-28T08:43:07Z</time></trkpt><trkpt lat="40.74640113074494" lon="9.409414436104548"><ele>512.2</ele><time>2026-03-28T08:43:08Z</time></trkpt><trkpt lat="40.74629139627756" lon="9.409394326689352"><ele>512.8</ele><time>2026-03-28T08:43:09Z</time></trkpt><trkpt lat="40.746209063128276" lon="9.409368926323284"><ele>513.4</ele><time>2026-03-28T08:43:10Z</time></trkpt><trkpt lat="40.74607681875239" lon="9.409382590601538"><ele>514.0</ele><time>2026-03-28T08:43:12Z</time></trkpt><trkpt lat="40.7459866749527" lon="9.409379276811983"><ele>515.4</ele><time>2026-03-28T08:43:13Z</time></trkpt><trkpt lat="40.745922167994735" lon="9.409352511003302"><ele>516.8</ele><time>2026-03-28T08:43:14Z</time></trkpt><trkpt lat="40.745736254218755" lon="9.409460195333478"><ele>518.2</ele><time>2026-03-28T08:43:18Z</time></trkpt><trkpt lat="40.74568117037982" lon="9.409524910890102"><ele>519.6</ele><time>2026-03-28T08:43:19Z</time></trkpt><trkpt lat="40.74560520978038" lon="9.409580283791"><ele>521.0</ele><time>2026-03-28T08:43:20Z</time></trkpt><trkpt lat="40.745528819895696" lon="9.409626281552976"><ele>521.0</ele><time>2026-03-28T08:43:21Z</time></trkpt><trkpt lat="40.745408919088234" lon="9.40963934953889"><ele>521.0</ele><time>2026-03-28T08:43:23Z</time></trkpt><trkpt lat="40.74534195532285" lon="9.409716085881207"><ele>521.0</ele><time>2026-03-28T08:43:25Z</time></trkpt><trkpt lat="40.74530793999108" lon="9.40981077324221"><ele>521.0</ele><time>2026-03-28T08:43:26Z</time></trkpt><trkpt lat="40.74526355048204" lon="9.409924706771925"><ele>521.0</ele><time>2026-03-28T08:43:26.999Z</time></trkpt><trkpt lat="40.74521412141521" lon="9.41003365875039"><ele>523.8</ele><time>2026-03-28T08:43:27.999Z</time></trkpt><trkpt lat="40.745203987891855" lon="9.410190948716423"><ele>526.6</ele><time>2026-03-28T08:43:29.999Z</time></trkpt><trkpt lat="40.745240428125655" lon="9.410288848554265"><ele>529.4</ele><time>2026-03-28T08:43:30.999Z</time></trkpt><trkpt lat="40.74530128002795" lon="9.410409727604971"><ele>532.2</ele><time>2026-03-28T08:43:31.999Z</time></trkpt><trkpt lat="40.745334414827404" lon="9.41051395678054"><ele>535.0</ele><time>2026-03-28T08:43:32.999Z</time></trkpt><trkpt lat="40.745349812806715" lon="9.41062472201841"><ele>537.8</ele><time>2026-03-28T08:43:33.999Z</time></trkpt><trkpt lat="40.74535082018803" lon="9.410713891789475"><ele>540.6</ele><time>2026-03-28T08:43:34.999Z</time></trkpt><trkpt lat="40.74530381222031" lon="9.41087896224458"><ele>543.4</ele><time>2026-03-28T08:43:36.999Z</time></trkpt><trkpt lat="40.745259190232254" lon="9.41095992668522"><ele>546.2</ele><time>2026-03-28T08:43:37.999Z</time></trkpt><trkpt lat="40.74517438980169" lon="9.411104004265356"><ele>549.0</ele><time>2026-03-28T08:43:39.999Z</time></trkpt><trkpt lat="40.74511636704317" lon="9.411236140057321"><ele>551.3333333333334</ele><time>2026-03-28T08:43:40.999Z</time></trkpt><trkpt lat="40.745053282139025" lon="9.411333923917205"><ele>553.6666666666666</ele><time>2026-03-28T08:43:41.999Z</time></trkpt><trkpt lat="40.74499775788636" lon="9.411402589940858"><ele>556.0</ele><time>2026-03-28T08:43:42.999Z</time></trkpt><trkpt lat="40.74493600902447" lon="9.41149060022784"><ele>558.3333333333333</ele><time>2026-03-28T08:43:43.999Z</time></trkpt><trkpt lat="40.74489138962796" lon="9.41158295941377"><ele>560.6666666666666</ele><time>2026-03-28T08:43:44.999Z</time></trkpt><trkpt lat="40.74487465516442" lon="9.411702042656477"><ele>563.0</ele><time>2026-03-28T08:43:45.999Z</time></trkpt><trkpt lat="40.74485574039401" lon="9.411813603995311"><ele>563.0</ele><time>2026-03-28T08:43:46.999Z</time></trkpt><trkpt lat="40.7448067321603" lon="9.411888926816863"><ele>563.0</ele><time>2026-03-28T08:43:47.999Z</time></trkpt><trkpt lat="40.744734890193" lon="9.411976525757096"><ele>563.0</ele><time>2026-03-28T08:43:48.999Z</time></trkpt><trkpt lat="40.74468180586621" lon="9.412036306165218"><ele>563.0</ele><time>2026-03-28T08:43:49.999Z</time></trkpt><trkpt lat="40.74462571168787" lon="9.412097360018874"><ele>563.0</ele><time>2026-03-28T08:43:51Z</time></trkpt><trkpt lat="40.74458380991393" lon="9.41221858476112"><ele>563.0</ele><time>2026-03-28T08:43:54Z</time></trkpt><trkpt lat="40.74456829329197" lon="9.412338008777311"><ele>564.0</ele><time>2026-03-28T08:43:56Z</time></trkpt><trkpt lat="40.7445473561122" lon="9.412451505879712"><ele>565.0</ele><time>2026-03-28T08:43:58Z</time></trkpt><trkpt lat="40.744513170587716" lon="9.41252550020711"><ele>566.0</ele><time>2026-03-28T08:44:01Z</time></trkpt><trkpt lat="40.74447967868658" lon="9.412632508330612"><ele>567.0</ele><time>2026-03-28T08:44:04Z</time></trkpt><trkpt lat="40.74444342492053" lon="9.412793510000663"><ele>568.0</ele><time>2026-03-28T08:44:06Z</time></trkpt><trkpt lat="40.744422971219436" lon="9.41287753329256"><ele>569.0</ele><time>2026-03-28T08:44:07Z</time></trkpt><trkpt lat="40.744399260878566" lon="9.4129732680898"><ele>570.3333333333333</ele><time>2026-03-28T08:44:09Z</time></trkpt><trkpt lat="40.744417132181354" lon="9.413090426085517"><ele>571.6666666666666</ele><time>2026-03-28T08:44:12Z</time></trkpt><trkpt lat="40.744405492573684" lon="9.413197843313924"><ele>573.0</ele><time>2026-03-28T08:44:14Z</time></trkpt><trkpt lat="40.74439963019498" lon="9.413307550231604"><ele>574.3333333333334</ele><time>2026-03-28T08:44:17Z</time></trkpt><trkpt lat="40.744461068018474" lon="9.413349224259957"><ele>575.6666666666667</ele><time>2026-03-28T08:44:19Z</time></trkpt><trkpt lat="40.744531804662145" lon="9.413338207419802"><ele>577.0</ele><time>2026-03-28T08:44:21Z</time></trkpt><trkpt lat="40.74459168006223" lon="9.413263527005531"><ele>577.0</ele><time>2026-03-28T08:44:24Z</time></trkpt><trkpt lat="40.74463300851818" lon="9.413185379601506"><ele>577.0</ele><time>2026-03-28T08:44:27Z</time></trkpt><trkpt lat="40.74458430051789" lon="9.413100030705596"><ele>577.0</ele><time>2026-03-28T08:44:30Z</time></trkpt><trkpt lat="40.74449422873083" lon="9.41306483031162"><ele>577.0</ele><time>2026-03-28T08:44:33Z</time></trkpt><trkpt lat="40.744420565466136" lon="9.412996777114392"><ele>577.0</ele><time>2026-03-28T08:44:36Z</time></trkpt><trkpt lat="40.7444262718156" lon="9.412886202938944"><ele>577.0</ele><time>2026-03-28T08:44:38Z</time></trkpt><trkpt lat="40.744463956327955" lon="9.41275167489265"><ele>575.6666666666667</ele><time>2026-03-28T08:44:40Z</time></trkpt><trkpt lat="40.74449076057147" lon="9.412620630468894"><ele>574.3333333333334</ele><time>2026-03-28T08:44:42Z</time></trkpt><trkpt lat="40.744495028426776" lon="9.412505369801028"><ele>573.0</ele><time>2026-03-28T08:44:45Z</time></trkpt><trkpt lat="40.74447389253058" lon="9.412387261773706"><ele>571.6666666666666</ele><time>2026-03-28T08:44:48Z</time></trkpt><trkpt lat="40.744436289716575" lon="9.4123074274826"><ele>570.3333333333333</ele><time>2026-03-28T08:46:34Z</time></trkpt><trkpt lat="40.74440548573954" lon="9.412202693543922"><ele>569.0</ele><time>2026-03-28T08:46:36Z</time></trkpt><trkpt lat="40.74437281484096" lon="9.412095006208576"><ele>568.2</ele><time>2026-03-28T08:46:38Z</time></trkpt><trkpt lat="40.74433779578906" lon="9.411978986876997"><ele>567.4</ele><time>2026-03-28T08:46:40Z</time></trkpt><trkpt lat="40.74437905733125" lon="9.4119005840348"><ele>566.6</ele><time>2026-03-28T08:46:43Z</time></trkpt><trkpt lat="40.74444978032595" lon="9.411877003895134"><ele>565.8</ele><time>2026-03-28T08:46:45Z</time></trkpt><trkpt lat="40.74455611149661" lon="9.41192725767096"><ele>565.0</ele><time>2026-03-28T08:46:47Z</time></trkpt><trkpt lat="40.7446537851223" lon="9.411980331779118"><ele>564.6666666666667</ele><time>2026-03-28T08:46:49Z</time></trkpt><trkpt lat="40.744730780485945" lon="9.411968749963993"><ele>564.3333333333334</ele><time>2026-03-28T08:46:51Z</time></trkpt><trkpt lat="40.74480322551064" lon="9.411919084442127"><ele>564.0</ele><time>2026-03-28T08:46:53Z</time></trkpt><trkpt lat="40.7448485553357" lon="9.41183459841556"><ele>563.6666666666666</ele><time>2026-03-28T08:46:55Z</time></trkpt><trkpt lat="40.74490669363964" lon="9.411748416856621"><ele>563.3333333333333</ele><time>2026-03-28T08:46:57Z</time></trkpt><trkpt lat="40.74492172610627" lon="9.411654437603719"><ele>563.0</ele><time>2026-03-28T08:46:59Z</time></trkpt><trkpt lat="40.744937453098416" lon="9.411494611588367"><ele>563.0</ele><time>2026-03-28T08:47:01Z</time></trkpt><trkpt lat="40.744969606427766" lon="9.411413842998792"><ele>563.0</ele><time>2026-03-28T08:47:02Z</time></trkpt><trkpt lat="40.74501097599766" lon="9.411337195635474"><ele>563.0</ele><time>2026-03-28T08:47:03Z</time></trkpt><trkpt lat="40.74505796000323" lon="9.411278123499562"><ele>563.0</ele><time>2026-03-28T08:47:04Z</time></trkpt><trkpt lat="40.745145736061026" lon="9.41117861139945"><ele>563.0</ele><time>2026-03-28T08:47:06Z</time></trkpt><trkpt lat="40.74521720524836" lon="9.411034444034547"><ele>560.1999999999999</ele><time>2026-03-28T08:47:08Z</time></trkpt><trkpt lat="40.74524434787674" lon="9.410951171080487"><ele>557.4</ele><time>2026-03-28T08:47:09Z</time></trkpt><trkpt lat="40.745280296639145" lon="9.410820534012366"><ele>554.5999999999999</ele><time>2026-03-28T08:47:11Z</time></trkpt><trkpt lat="40.745329264632076" lon="9.410683396812697"><ele>551.8</ele><time>2026-03-28T08:47:13Z</time></trkpt><trkpt lat="40.74532750997511" lon="9.410558597560597"><ele>549.0</ele><time>2026-03-28T08:47:15Z</time></trkpt><trkpt lat="40.745316681086884" lon="9.410417280193089"><ele>546.2</ele><time>2026-03-28T08:47:17Z</time></trkpt><trkpt lat="40.74528948325236" lon="9.410308818612263"><ele>543.4</ele><time>2026-03-28T08:47:19Z</time></trkpt><trkpt lat="40.74524365432862" lon="9.410228419362781"><ele>540.6</ele><time>2026-03-28T08:47:21Z</time></trkpt><trkpt lat="40.745216767411854" lon="9.41006313177251"><ele>537.8</ele><time>2026-03-28T08:47:34Z</time></trkpt><trkpt lat="40.7452629252293" lon="9.40992585414986"><ele>535.0</ele><time>2026-03-28T08:47:36Z</time></trkpt><trkpt lat="40.745300191255154" lon="9.409849683292665"><ele>535.0</ele><time>2026-03-28T08:47:37Z</time></trkpt><trkpt lat="40.745341157225376" lon="9.409780899189759"><ele>535.0</ele><time>2026-03-28T08:47:38Z</time></trkpt><trkpt lat="40.745384507388124" lon="9.409718220360913"><ele>535.0</ele><time>2026-03-28T08:47:39Z</time></trkpt><trkpt lat="40.74546993671268" lon="9.40962798527562"><ele>535.0</ele><time>2026-03-28T08:47:41Z</time></trkpt><trkpt lat="40.74558274353415" lon="9.409594933743545"><ele>535.0</ele><time>2026-03-28T08:47:43Z</time></trkpt><trkpt lat="40.745690467893255" lon="9.409553325603053"><ele>532.2</ele><time>2026-03-28T08:47:44.999Z</time></trkpt><trkpt lat="40.745782787635314" lon="9.40945065080489"><ele>529.4</ele><time>2026-03-28T08:47:46.999Z</time></trkpt><trkpt lat="40.74586137142548" lon="9.409365026151159"><ele>526.6</ele><time>2026-03-28T08:47:48.999Z</time></trkpt><trkpt lat="40.74593193804403" lon="9.409339716144792"><ele>523.8</ele><time>2026-03-28T08:47:50.999Z</time></trkpt><trkpt lat="40.74601495355333" lon="9.409386581072754"><ele>521.0</ele><time>2026-03-28T08:47:53.999Z</time></trkpt><trkpt lat="40.74611437179283" lon="9.40938331054799"><ele>519.6</ele><time>2026-03-28T08:47:55.999Z</time></trkpt><trkpt lat="40.746201910614374" lon="9.409380501956168"><ele>518.2</ele><time>2026-03-28T08:47:56.999Z</time></trkpt><trkpt lat="40.74627776891102" lon="9.409372223482954"><ele>516.8</ele><time>2026-03-28T08:47:57.999Z</time></trkpt><trkpt lat="40.74642168122323" lon="9.409402237532374"><ele>515.4</ele><time>2026-03-28T08:47:59.999Z</time></trkpt><trkpt lat="40.74650407424138" lon="9.409410825639236"><ele>514.0</ele><time>2026-03-28T08:48:00.999Z</time></trkpt><trkpt lat="40.746589266444424" lon="9.409403419597796"><ele>514.0</ele><time>2026-03-28T08:48:01.999Z</time></trkpt><trkpt lat="40.746663530940104" lon="9.409371691368278"><ele>514.0</ele><time>2026-03-28T08:48:03Z</time></trkpt><trkpt lat="40.74673877237573" lon="9.409328992156322"><ele>514.0</ele><time>2026-03-28T08:48:04Z</time></trkpt><trkpt lat="40.74681348906167" lon="9.409302003118613"><ele>514.0</ele><time>2026-03-28T08:48:05Z</time></trkpt><trkpt lat="40.746877394919935" lon="9.409296671652784"><ele>514.0</ele><time>2026-03-28T08:48:06Z</time></trkpt><trkpt lat="40.746961361714796" lon="9.409321842006756"><ele>514.0</ele><time>2026-03-28T08:48:08Z</time></trkpt><trkpt lat="40.74702050729647" lon="9.409366343704534"><ele>513.5</ele><time>2026-03-28T08:48:09Z</time></trkpt><trkpt lat="40.74708040741102" lon="9.409424969395321"><ele>513.0</ele><time>2026-03-28T08:48:10Z</time></trkpt><trkpt lat="40.74713908172804" lon="9.409512650843771"><ele>512.5</ele><time>2026-03-28T08:48:11Z</time></trkpt><trkpt lat="40.74720010105982" lon="9.409549144879108"><ele>512.0</ele><time>2026-03-28T08:48:12Z</time></trkpt><trkpt lat="40.74728034949788" lon="9.409556682652207"><ele>511.50000000000006</ele><time>2026-03-28T08:48:13Z</time></trkpt><trkpt lat="40.74737429690567" lon="9.409568985648885"><ele>511.0</ele><time>2026-03-28T08:48:14Z</time></trkpt><trkpt lat="40.74746107732184" lon="9.409590820894563"><ele>511.0</ele><time>2026-03-28T08:48:15Z</time></trkpt><trkpt lat="40.74754998632936" lon="9.409623901208827"><ele>511.0</ele><time>2026-03-28T08:48:16Z</time></trkpt><trkpt lat="40.74763728024185" lon="9.40967575113346"><ele>511.0</ele><time>2026-03-28T08:48:17Z</time></trkpt><trkpt lat="40.747715672421755" lon="9.4097377135772"><ele>511.0</ele><time>2026-03-28T08:48:18Z</time></trkpt><trkpt lat="40.74780342144106" lon="9.409833487689859"><ele>511.0</ele><time>2026-03-28T08:48:19Z</time></trkpt><trkpt lat="40.747887004963154" lon="9.40995214015853"><ele>511.8</ele><time>2026-03-28T08:48:20Z</time></trkpt><trkpt lat="40.74795228720259" lon="9.410050793204325"><ele>512.6</ele><time>2026-03-28T08:48:21Z</time></trkpt><trkpt lat="40.74806184435876" lon="9.410106064670092"><ele>513.4</ele><time>2026-03-28T08:48:23Z</time></trkpt><trkpt lat="40.748156239872415" lon="9.410099928794848"><ele>514.2</ele><time>2026-03-28T08:48:24Z</time></trkpt><trkpt lat="40.7482454691778" lon="9.410069180587472"><ele>515.0</ele><time>2026-03-28T08:48:25Z</time></trkpt><trkpt lat="40.748341026193636" lon="9.410004214717437"><ele>515.0</ele><time>2026-03-28T08:48:26Z</time></trkpt><trkpt lat="40.74841838413256" lon="9.409947611084023"><ele>515.0</ele><time>2026-03-28T08:48:27Z</time></trkpt><trkpt lat="40.74851991460741" lon="9.409996854778662"><ele>515.0</ele><time>2026-03-28T08:48:29Z</time></trkpt><trkpt lat="40.7485772008214" lon="9.410076298602053"><ele>515.0</ele><time>2026-03-28T08:48:30Z</time></trkpt><trkpt lat="40.74865743599892" lon="9.410133811595484"><ele>515.0</ele><time>2026-03-28T08:48:31Z</time></trkpt><trkpt lat="40.748727630116335" lon="9.410150261343817"><ele>515.0</ele><time>2026-03-28T08:48:32Z</time></trkpt><trkpt lat="40.748813587413586" lon="9.41015408056079"><ele>514.1666666666666</ele><time>2026-03-28T08:48:33Z</time></trkpt><trkpt lat="40.748881172121706" lon="9.410144255552332"><ele>513.3333333333333</ele><time>2026-03-28T08:48:34Z</time></trkpt><trkpt lat="40.74896087326321" lon="9.410059857398517"><ele>512.5</ele><time>2026-03-28T08:48:36Z</time></trkpt><trkpt lat="40.74897258218831" lon="9.409973422709664"><ele>511.66666666666663</ele><time>2026-03-28T08:48:37Z</time></trkpt><trkpt lat="40.74897139791106" lon="9.409857464947551"><ele>510.8333333333333</ele><time>2026-03-28T08:48:38Z</time></trkpt><trkpt lat="40.7489556299586" lon="9.409705082699293"><ele>510.0</ele><time>2026-03-28T08:48:39Z</time></trkpt><trkpt lat="40.7489351265979" lon="9.40956212997912"><ele>509.6</ele><time>2026-03-28T08:48:40Z</time></trkpt><trkpt lat="40.74890869002675" lon="9.40942738617909"><ele>509.2</ele><time>2026-03-28T08:48:41Z</time></trkpt><trkpt lat="40.74886551656166" lon="9.409282025504254"><ele>508.79999999999995</ele><time>2026-03-28T08:48:42Z</time></trkpt><trkpt lat="40.748830684071734" lon="9.409146856306489"><ele>508.4</ele><time>2026-03-28T08:48:43Z</time></trkpt><trkpt lat="40.748806992411104" lon="9.409030728596829"><ele>508.0</ele><time>2026-03-28T08:48:44Z</time></trkpt><trkpt lat="40.74877754238527" lon="9.408886887435173"><ele>507.4</ele><time>2026-03-28T08:48:45Z</time></trkpt><trkpt lat="40.748763102737286" lon="9.408734291145953"><ele>506.79999999999995</ele><time>2026-03-28T08:48:46Z</time></trkpt><trkpt lat="40.74874926032546" lon="9.40860863226585"><ele>506.2</ele><time>2026-03-28T08:48:47Z</time></trkpt><trkpt lat="40.748747844392796" lon="9.408476040503574"><ele>505.6</ele><time>2026-03-28T08:48:49Z</time></trkpt><trkpt lat="40.74881899264741" lon="9.40841074499256"><ele>505.0</ele><time>2026-03-28T08:48:51Z</time></trkpt><trkpt lat="40.74888366573099" lon="9.408385170469286"><ele>505.00000000000006</ele><time>2026-03-28T08:48:52Z</time></trkpt><trkpt lat="40.74895223562069" lon="9.408363281437941"><ele>505.0</ele><time>2026-03-28T08:48:53Z</time></trkpt><trkpt lat="40.74901502878274" lon="9.40834771683551"><ele>505.0</ele><time>2026-03-28T08:48:54Z</time></trkpt><trkpt lat="40.74912101776162" lon="9.408312060088809"><ele>505.0</ele><time>2026-03-28T08:48:56Z</time></trkpt><trkpt lat="40.749175869010934" lon="9.40827045666153"><ele>505.00000000000006</ele><time>2026-03-28T08:48:57Z</time></trkpt><trkpt lat="40.749240467109594" lon="9.408148855851847"><ele>505.0</ele><time>2026-03-28T08:48:59Z</time></trkpt><trkpt lat="40.7493060964113" lon="9.408053035348845"><ele>505.00000000000006</ele><time>2026-03-28T08:49:01Z</time></trkpt><trkpt lat="40.74936601293875" lon="9.40801255077978"><ele>505.0</ele><time>2026-03-28T08:49:03Z</time></trkpt><trkpt lat="40.749458033366395" lon="9.40796127013648"><ele>505.0</ele><time>2026-03-28T08:49:05Z</time></trkpt><trkpt lat="40.749547433352255" lon="9.40792866231404"><ele>505.0</ele><time>2026-03-28T08:49:06Z</time></trkpt><trkpt lat="40.749619820146826" lon="9.407919277270635"><ele>505.00000000000006</ele><time>2026-03-28T08:49:07Z</time></trkpt><trkpt lat="40.749684274696534" lon="9.407908069203353"><ele>505.0</ele><time>2026-03-28T08:49:08Z</time></trkpt><trkpt lat="40.749754726027966" lon="9.407806847436637"><ele>505.33333333333337</ele><time>2026-03-28T08:49:10Z</time></trkpt><trkpt lat="40.74977730630895" lon="9.407712873454045"><ele>505.6666666666667</ele><time>2026-03-28T08:49:12Z</time></trkpt><trkpt lat="40.749729524615965" lon="9.40761026476972"><ele>506.0</ele><time>2026-03-28T08:49:15Z</time></trkpt><trkpt lat="40.749669206153726" lon="9.407563428359804"><ele>506.33333333333337</ele><time>2026-03-28T08:49:16Z</time></trkpt><trkpt lat="40.749588459386835" lon="9.407528855519846"><ele>506.6666666666667</ele><time>2026-03-28T08:49:17Z</time></trkpt><trkpt lat="40.749485561207024" lon="9.40748625649316"><ele>507.0</ele><time>2026-03-28T08:49:18Z</time></trkpt><trkpt lat="40.74939078003904" lon="9.40744664881613"><ele>507.0</ele><time>2026-03-28T08:49:19Z</time></trkpt><trkpt lat="40.749286415678235" lon="9.407476433263856"><ele>507.00000000000006</ele><time>2026-03-28T08:49:20Z</time></trkpt><trkpt lat="40.74917457175578" lon="9.407450413812319"><ele>507.00000000000006</ele><time>2026-03-28T08:49:21Z</time></trkpt><trkpt lat="40.74907757466907" lon="9.407414978909802"><ele>507.0</ele><time>2026-03-28T08:49:22Z</time></trkpt><trkpt lat="40.74898623944629" lon="9.407368186495965"><ele>507.0</ele><time>2026-03-28T08:49:23Z</time></trkpt><trkpt lat="40.74886931218891" lon="9.407303660613055"><ele>507.0</ele><time>2026-03-28T08:49:24Z</time></trkpt><trkpt lat="40.748732736918086" lon="9.407225328659614"><ele>507.0</ele><time>2026-03-28T08:49:25Z</time></trkpt><trkpt lat="40.7485852424598" lon="9.407132405630945"><ele>507.0</ele><time>2026-03-28T08:49:26Z</time></trkpt><trkpt lat="40.74843023466221" lon="9.407025686648158"><ele>507.25</ele><time>2026-03-28T08:49:27Z</time></trkpt><trkpt lat="40.74830010846772" lon="9.406924694582052"><ele>507.5</ele><time>2026-03-28T08:49:28Z</time></trkpt><trkpt lat="40.74818470350436" lon="9.406824115408993"><ele>507.75</ele><time>2026-03-28T08:49:29Z</time></trkpt><trkpt lat="40.74807502149776" lon="9.406716125995455"><ele>508.0</ele><time>2026-03-28T08:49:30Z</time></trkpt><trkpt lat="40.74798450297972" lon="9.406599590807431"><ele>508.0</ele><time>2026-03-28T08:49:31Z</time></trkpt><trkpt lat="40.74791890332851" lon="9.406476622309919"><ele>507.99999999999994</ele><time>2026-03-28T08:49:31.999Z</time></trkpt><trkpt lat="40.747867257618076" lon="9.406341562190677"><ele>507.99999999999994</ele><time>2026-03-28T08:49:32.999Z</time></trkpt><trkpt lat="40.747829703413885" lon="9.406214627957402"><ele>508.0</ele><time>2026-03-28T08:49:33.999Z</time></trkpt><trkpt lat="40.74780482588965" lon="9.406117489044242"><ele>508.0</ele><time>2026-03-28T08:49:34.999Z</time></trkpt><trkpt lat="40.74776803548415" lon="9.405963557331818"><ele>508.5</ele><time>2026-03-28T08:49:36.999Z</time></trkpt><trkpt lat="40.747760376082375" lon="9.405856084503705"><ele>509.0</ele><time>2026-03-28T08:49:38.999Z</time></trkpt><trkpt lat="40.74822775766493" lon="9.405554974885936"><ele>508.5</ele><time>2026-03-28T08:49:39.999Z</time></trkpt><trkpt lat="40.748311490551785" lon="9.405446811398441"><ele>508.0</ele><time>2026-03-28T08:49:40.999Z</time></trkpt><trkpt lat="40.74839459920921" lon="9.405376103771902"><ele>507.5</ele><time>2026-03-28T08:49:41.999Z</time></trkpt><trkpt lat="40.748502264391696" lon="9.40530541934419"><ele>507.0</ele><time>2026-03-28T08:49:42.999Z</time></trkpt><trkpt lat="40.74863465702728" lon="9.405216134364224"><ele>508.0</ele><time>2026-03-28T08:49:43.999Z</time></trkpt><trkpt lat="40.7487708869537" lon="9.405128969301096"><ele>509.0</ele><time>2026-03-28T08:49:44.999Z</time></trkpt><trkpt lat="40.748890158237195" lon="9.405066781247363"><ele>510.0</ele><time>2026-03-28T08:49:45.999Z</time></trkpt><trkpt lat="40.74900151088649" lon="9.405015911924094"><ele>511.0</ele><time>2026-03-28T08:49:46.999Z</time></trkpt><trkpt lat="40.74909627381673" lon="9.404955061205555"><ele>511.0</ele><time>2026-03-28T08:49:47.999Z</time></trkpt><trkpt lat="40.74919370008972" lon="9.404874081276585"><ele>511.0</ele><time>2026-03-28T08:49:48.999Z</time></trkpt><trkpt lat="40.7493105828648" lon="9.404732447238993"><ele>511.0</ele><time>2026-03-28T08:49:49.999Z</time></trkpt><trkpt lat="40.749445942850166" lon="9.404590048404081"><ele>511.0</ele><time>2026-03-28T08:49:50.999Z</time></trkpt><trkpt lat="40.74954846311704" lon="9.40445845790562"><ele>510.75</ele><time>2026-03-28T08:49:51.999Z</time></trkpt><trkpt lat="40.749633530394235" lon="9.40434392227302"><ele>510.5</ele><time>2026-03-28T08:49:52.999Z</time></trkpt><trkpt lat="40.74971264334547" lon="9.404240847213314"><ele>510.25</ele><time>2026-03-28T08:49:53.999Z</time></trkpt><trkpt lat="40.74981237748453" lon="9.404107017617026"><ele>510.0</ele><time>2026-03-28T08:49:54.999Z</time></trkpt><trkpt lat="40.74991953404607" lon="9.403969688423057"><ele>510.0</ele><time>2026-03-28T08:49:55.999Z</time></trkpt><trkpt lat="40.750012161964115" lon="9.40387069781654"><ele>510.0</ele><time>2026-03-28T08:49:56.999Z</time></trkpt><trkpt lat="40.750105007901155" lon="9.403780146201843"><ele>510.0</ele><time>2026-03-28T08:49:57.999Z</time></trkpt><trkpt lat="40.750197682824535" lon="9.403683103354131"><ele>510.0</ele><time>2026-03-28T08:49:58.999Z</time></trkpt><trkpt lat="40.75027820450671" lon="9.403590255432308"><ele>510.2</ele><time>2026-03-28T08:49:59.999Z</time></trkpt><trkpt lat="40.750351467741446" lon="9.403483587496043"><ele>510.4</ele><time>2026-03-28T08:50:00.999Z</time></trkpt><trkpt lat="40.75041763426923" lon="9.403366501728904"><ele>510.6</ele><time>2026-03-28T08:50:01.999Z</time></trkpt><trkpt lat="40.75046768116052" lon="9.403239528960738"><ele>510.8</ele><time>2026-03-28T08:50:02.999Z</time></trkpt><trkpt lat="40.750518839564926" lon="9.403116734155148"><ele>511.0</ele><time>2026-03-28T08:50:03.999Z</time></trkpt><trkpt lat="40.75055214609156" lon="9.4029957514724"><ele>511.6</ele><time>2026-03-28T08:50:04.999Z</time></trkpt><trkpt lat="40.75056766842988" lon="9.402882769318788"><ele>512.2</ele><time>2026-03-28T08:50:05.999Z</time></trkpt><trkpt lat="40.75059274559419" lon="9.402789303623793"><ele>512.8</ele><time>2026-03-28T08:50:06.999Z</time></trkpt><trkpt lat="40.750655059371155" lon="9.402696033684762"><ele>513.4</ele><time>2026-03-28T08:50:09Z</time></trkpt><trkpt lat="40.750745496559084" lon="9.402683765064278"><ele>514.0</ele><time>2026-03-28T08:50:10Z</time></trkpt><trkpt lat="40.750869871527236" lon="9.40269213591654"><ele>514.0</ele><time>2026-03-28T08:50:11Z</time></trkpt><trkpt lat="40.75100451340296" lon="9.402680322889953"><ele>514.0</ele><time>2026-03-28T08:50:12Z</time></trkpt><trkpt lat="40.75112274626532" lon="9.40266491274209"><ele>514.0</ele><time>2026-03-28T08:50:13Z</time></trkpt><trkpt lat="40.75124557177574" lon="9.40263543227727"><ele>514.0</ele><time>2026-03-28T08:50:14Z</time></trkpt><trkpt lat="40.751356616592716" lon="9.402592270095216"><ele>514.2</ele><time>2026-03-28T08:50:15Z</time></trkpt><trkpt lat="40.751453226101255" lon="9.402534161834092"><ele>514.4</ele><time>2026-03-28T08:50:16Z</time></trkpt><trkpt lat="40.75154024205772" lon="9.402463120955131"><ele>514.6</ele><time>2026-03-28T08:50:17Z</time></trkpt><trkpt lat="40.75163507232904" lon="9.40236254956399"><ele>514.8</ele><time>2026-03-28T08:50:18Z</time></trkpt><trkpt lat="40.75169647990685" lon="9.40228964885025"><ele>515.0</ele><time>2026-03-28T08:50:19Z</time></trkpt><trkpt lat="40.75183941716011" lon="9.402284076300798"><ele>514.75</ele><time>2026-03-28T08:50:21Z</time></trkpt><trkpt lat="40.751945266310344" lon="9.402313562422776"><ele>514.5</ele><time>2026-03-28T08:50:22Z</time></trkpt><trkpt lat="40.75206050233276" lon="9.402345957944329"><ele>514.25</ele><time>2026-03-28T08:50:23Z</time></trkpt><trkpt lat="40.75212360786668" lon="9.402381812343535"><ele>514.0</ele><time>2026-03-28T08:50:24Z</time></trkpt><trkpt lat="40.75228702248733" lon="9.40240356907906"><ele>514.0</ele><time>2026-03-28T08:50:26Z</time></trkpt><trkpt lat="40.75241231211759" lon="9.402403657818475"><ele>514.0</ele><time>2026-03-28T08:50:27Z</time></trkpt><trkpt lat="40.75251820960562" lon="9.402437176338838"><ele>514.0</ele><time>2026-03-28T08:50:28Z</time></trkpt><trkpt lat="40.75261065173551" lon="9.402480312010765"><ele>514.0</ele><time>2026-03-28T08:50:29Z</time></trkpt><trkpt lat="40.752695801715156" lon="9.402501773178194"><ele>514.0</ele><time>2026-03-28T08:50:30Z</time></trkpt><trkpt lat="40.7528111977818" lon="9.402494099332845"><ele>515.0</ele><time>2026-03-28T08:50:31Z</time></trkpt><trkpt lat="40.75294712586706" lon="9.402493154136657"><ele>516.0</ele><time>2026-03-28T08:50:32Z</time></trkpt><trkpt lat="40.75306445737638" lon="9.402506573211403"><ele>517.0</ele><time>2026-03-28T08:50:33Z</time></trkpt><trkpt lat="40.753184378824415" lon="9.40255906265815"><ele>518.0</ele><time>2026-03-28T08:50:34Z</time></trkpt><trkpt lat="40.75331640187158" lon="9.40261548214588"><ele>518.0</ele><time>2026-03-28T08:50:35Z</time></trkpt><trkpt lat="40.75342061948197" lon="9.402657095399581"><ele>518.0</ele><time>2026-03-28T08:50:36Z</time></trkpt><trkpt lat="40.75351245713976" lon="9.402697533120621"><ele>518.0</ele><time>2026-03-28T08:50:37Z</time></trkpt><trkpt lat="40.75362593819209" lon="9.402741875628452"><ele>518.0</ele><time>2026-03-28T08:50:38Z</time></trkpt><trkpt lat="40.75377836417727" lon="9.402760478625897"><ele>518.75</ele><time>2026-03-28T08:50:39Z</time></trkpt><trkpt lat="40.75390880554381" lon="9.402767559659067"><ele>519.5</ele><time>2026-03-28T08:50:40Z</time></trkpt><trkpt lat="40.75402203650791" lon="9.40277320449255"><ele>520.25</ele><time>2026-03-28T08:50:41Z</time></trkpt><trkpt lat="40.75410858549703" lon="9.402779151024149"><ele>521.0</ele><time>2026-03-28T08:50:42Z</time></trkpt><trkpt lat="40.75422167299263" lon="9.402713693798383"><ele>521.0</ele><time>2026-03-28T08:50:44Z</time></trkpt><trkpt lat="40.75427626005085" lon="9.402657874694002"><ele>521.0</ele><time>2026-03-28T08:50:45Z</time></trkpt><trkpt lat="40.75433166631868" lon="9.40254540229264"><ele>521.0</ele><time>2026-03-28T08:50:47Z</time></trkpt><trkpt lat="40.7543771095938" lon="9.402463749906655"><ele>521.0</ele><time>2026-03-28T08:50:48Z</time></trkpt><trkpt lat="40.75444638227567" lon="9.402346454521156"><ele>521.0</ele><time>2026-03-28T08:50:49Z</time></trkpt><trkpt lat="40.7545111117053" lon="9.40221962997899"><ele>522.8</ele><time>2026-03-28T08:50:50Z</time></trkpt><trkpt lat="40.754546819590466" lon="9.402140240473734"><ele>524.6</ele><time>2026-03-28T08:50:51Z</time></trkpt><trkpt lat="40.75457456917267" lon="9.402035269178699"><ele>526.4</ele><time>2026-03-28T08:50:52Z</time></trkpt><trkpt lat="40.75461253161878" lon="9.401906558368728"><ele>528.2</ele><time>2026-03-28T08:50:53Z</time></trkpt><trkpt lat="40.754657690121384" lon="9.401758734823305"><ele>530.0</ele><time>2026-03-28T08:50:54Z</time></trkpt><trkpt lat="40.75469467602916" lon="9.401585244700257"><ele>530.0</ele><time>2026-03-28T08:50:55Z</time></trkpt><trkpt lat="40.75470977194334" lon="9.401428115023368"><ele>530.0</ele><time>2026-03-28T08:50:56Z</time></trkpt><trkpt lat="40.75473760510586" lon="9.401303061170827"><ele>530.0</ele><time>2026-03-28T08:50:57Z</time></trkpt><trkpt lat="40.75478346510923" lon="9.4011698727085"><ele>530.0</ele><time>2026-03-28T08:50:58Z</time></trkpt><trkpt lat="40.75485627681561" lon="9.4010601356806"><ele>530.0</ele><time>2026-03-28T08:50:59Z</time></trkpt><trkpt lat="40.754932417915526" lon="9.40088599781445"><ele>531.0</ele><time>2026-03-28T08:51:00Z</time></trkpt><trkpt lat="40.755001525026714" lon="9.400756751953129"><ele>532.0</ele><time>2026-03-28T08:51:01Z</time></trkpt><trkpt lat="40.75505832472806" lon="9.400663909913362"><ele>533.0</ele><time>2026-03-28T08:51:02Z</time></trkpt><trkpt lat="40.75510614922806" lon="9.400583800822329"><ele>534.0</ele><time>2026-03-28T08:51:03Z</time></trkpt><trkpt lat="40.75517405458374" lon="9.400509237144114"><ele>535.0</ele><time>2026-03-28T08:51:04Z</time></trkpt><trkpt lat="40.75525233086722" lon="9.400445698015968"><ele>535.0</ele><time>2026-03-28T08:51:05Z</time></trkpt><trkpt lat="40.75533226500416" lon="9.400375273783757"><ele>535.0</ele><time>2026-03-28T08:51:06Z</time></trkpt><trkpt lat="40.75540430859181" lon="9.400293259451061"><ele>535.0</ele><time>2026-03-28T08:51:07Z</time></trkpt><trkpt lat="40.75548597206757" lon="9.400166648595484"><ele>535.0</ele><time>2026-03-28T08:51:08Z</time></trkpt><trkpt lat="40.75556905019652" lon="9.39999676181759"><ele>535.0</ele><time>2026-03-28T08:51:09Z</time></trkpt><trkpt lat="40.7556368998615" lon="9.39985440228303"><ele>535.0</ele><time>2026-03-28T08:51:10Z</time></trkpt><trkpt lat="40.75569325204477" lon="9.399726620264726"><ele>535.0</ele><time>2026-03-28T08:51:11Z</time></trkpt><trkpt lat="40.755732924104315" lon="9.399604950557165"><ele>535.0</ele><time>2026-03-28T08:51:12Z</time></trkpt><trkpt lat="40.75576042801052" lon="9.399489633261133"><ele>535.0</ele><time>2026-03-28T08:51:13Z</time></trkpt><trkpt lat="40.75576632980138" lon="9.399400541558919"><ele>535.0</ele><time>2026-03-28T08:51:14Z</time></trkpt><trkpt lat="40.75574750771693" lon="9.399249907870104"><ele>535.0</ele><time>2026-03-28T08:51:15Z</time></trkpt><trkpt lat="40.75570748411482" lon="9.399044360715344"><ele>535.0</ele><time>2026-03-28T08:51:16Z</time></trkpt><trkpt lat="40.75565546694733" lon="9.398797532205299"><ele>535.25</ele><time>2026-03-28T08:51:17Z</time></trkpt><trkpt lat="40.755610797178804" lon="9.398566818557034"><ele>535.5</ele><time>2026-03-28T08:51:18Z</time></trkpt><trkpt lat="40.755578995085756" lon="9.398385834371727"><ele>535.75</ele><time>2026-03-28T08:51:19Z</time></trkpt><trkpt lat="40.75556138527722" lon="9.398257346779861"><ele>536.0</ele><time>2026-03-28T08:51:20Z</time></trkpt><trkpt lat="40.75556998488479" lon="9.398148567195635"><ele>536.0</ele><time>2026-03-28T08:51:21Z</time></trkpt><trkpt lat="40.755602690072514" lon="9.398038366295378"><ele>536.0</ele><time>2026-03-28T08:51:22Z</time></trkpt><trkpt lat="40.755592249434784" lon="9.397925535059933"><ele>536.0</ele><time>2026-03-28T08:51:23Z</time></trkpt><trkpt lat="40.75552522644836" lon="9.397802003199448"><ele>536.0</ele><time>2026-03-28T08:51:24Z</time></trkpt><trkpt lat="40.755434263185826" lon="9.397638115134628"><ele>536.0</ele><time>2026-03-28T08:51:25Z</time></trkpt><trkpt lat="40.7553479633819" lon="9.397483002863858"><ele>537.0</ele><time>2026-03-28T08:51:26Z</time></trkpt><trkpt lat="40.75525909375393" lon="9.397330203220758"><ele>538.0</ele><time>2026-03-28T08:51:27Z</time></trkpt><trkpt lat="40.7551819536511" lon="9.397218651369217"><ele>539.0</ele><time>2026-03-28T08:51:28Z</time></trkpt><trkpt lat="40.75508814670434" lon="9.397133189583126"><ele>540.0</ele><time>2026-03-28T08:51:29Z</time></trkpt><trkpt lat="40.755015385195975" lon="9.397036269791364"><ele>538.2</ele><time>2026-03-28T08:51:30Z</time></trkpt><trkpt lat="40.754950571121185" lon="9.396903103984892"><ele>536.4</ele><time>2026-03-28T08:51:31Z</time></trkpt><trkpt lat="40.75489611077612" lon="9.39677004670225"><ele>534.6</ele><time>2026-03-28T08:51:32Z</time></trkpt><trkpt lat="40.7548347067795" lon="9.396665734412446"><ele>532.8</ele><time>2026-03-28T08:51:33Z</time></trkpt><trkpt lat="40.75475616431035" lon="9.396583111631875"><ele>531.0</ele><time>2026-03-28T08:51:34Z</time></trkpt><trkpt lat="40.754675045067295" lon="9.396504090091847"><ele>531.0</ele><time>2026-03-28T08:51:35Z</time></trkpt><trkpt lat="40.75456641289637" lon="9.396381218914888"><ele>531.0</ele><time>2026-03-28T08:51:36Z</time></trkpt><trkpt lat="40.75446875685667" lon="9.39625148488455"><ele>531.0</ele><time>2026-03-28T08:51:37Z</time></trkpt><trkpt lat="40.75439058037586" lon="9.396132664921916"><ele>531.0</ele><time>2026-03-28T08:51:38Z</time></trkpt><trkpt lat="40.75431303771069" lon="9.39606367505252"><ele>530.1666666666666</ele><time>2026-03-28T08:51:39Z</time></trkpt><trkpt lat="40.75426173157628" lon="9.395986248050368"><ele>529.3333333333334</ele><time>2026-03-28T08:51:40Z</time></trkpt><trkpt lat="40.754191069834626" lon="9.395901355084236"><ele>528.5</ele><time>2026-03-28T08:51:41Z</time></trkpt><trkpt lat="40.75411359347208" lon="9.395815463507166"><ele>527.6666666666667</ele><time>2026-03-28T08:51:42Z</time></trkpt><trkpt lat="40.75404658559671" lon="9.395742274109036"><ele>526.8333333333334</ele><time>2026-03-28T08:51:43Z</time></trkpt><trkpt lat="40.753986059370355" lon="9.395662087162174"><ele>526.0</ele><time>2026-03-28T08:51:44Z</time></trkpt><trkpt lat="40.7539311123602" lon="9.395518501534738"><ele>526.6</ele><time>2026-03-28T08:51:45Z</time></trkpt><trkpt lat="40.75388821481103" lon="9.395342528990682"><ele>527.2</ele><time>2026-03-28T08:51:46Z</time></trkpt><trkpt lat="40.75385395131757" lon="9.395199488371018"><ele>527.8</ele><time>2026-03-28T08:51:47Z</time></trkpt><trkpt lat="40.75379947323487" lon="9.395087142500067"><ele>528.4</ele><time>2026-03-28T08:51:47.999Z</time></trkpt><trkpt lat="40.75375549754556" lon="9.395018603391426"><ele>529.0</ele><time>2026-03-28T08:51:48.999Z</time></trkpt><trkpt lat="40.75371020537071" lon="9.394956449565717"><ele>529.0</ele><time>2026-03-28T08:51:49.999Z</time></trkpt><trkpt lat="40.753642799284485" lon="9.39490279024558"><ele>529.0</ele><time>2026-03-28T08:51:50.999Z</time></trkpt><trkpt lat="40.753548504901694" lon="9.394859627543958"><ele>529.0</ele><time>2026-03-28T08:51:51.999Z</time></trkpt><trkpt lat="40.753470524058045" lon="9.394800251837458"><ele>529.0</ele><time>2026-03-28T08:51:52.999Z</time></trkpt><trkpt lat="40.753410005654025" lon="9.394729257123402"><ele>529.0</ele><time>2026-03-28T08:51:53.999Z</time></trkpt><trkpt lat="40.75333385946072" lon="9.394606608901713"><ele>527.75</ele><time>2026-03-28T08:51:54.999Z</time></trkpt><trkpt lat="40.75321697853302" lon="9.394475102347425"><ele>526.5</ele><time>2026-03-28T08:51:55.999Z</time></trkpt><trkpt lat="40.75311460327455" lon="9.394378928495254"><ele>525.25</ele><time>2026-03-28T08:51:56.999Z</time></trkpt><trkpt lat="40.75302534341089" lon="9.394308564376196"><ele>524.0</ele><time>2026-03-28T08:51:57.999Z</time></trkpt><trkpt lat="40.75293832268659" lon="9.394242617110327"><ele>524.0</ele><time>2026-03-28T08:51:58.999Z</time></trkpt><trkpt lat="40.75286076547048" lon="9.39415399975533"><ele>524.0</ele><time>2026-03-28T08:51:59.999Z</time></trkpt><trkpt lat="40.75276046629696" lon="9.394025751411025"><ele>524.0</ele><time>2026-03-28T08:52:00.999Z</time></trkpt><trkpt lat="40.752646161475965" lon="9.393856248082614"><ele>524.0</ele><time>2026-03-28T08:52:01.999Z</time></trkpt><trkpt lat="40.75256568295329" lon="9.3937224851122"><ele>522.0</ele><time>2026-03-28T08:52:02.999Z</time></trkpt><trkpt lat="40.752506065868516" lon="9.393588922699639"><ele>520.0</ele><time>2026-03-28T08:52:03.999Z</time></trkpt><trkpt lat="40.75242921949837" lon="9.393402293885334"><ele>518.0</ele><time>2026-03-28T08:52:04.999Z</time></trkpt><trkpt lat="40.75236445301775" lon="9.393221406046166"><ele>516.0</ele><time>2026-03-28T08:52:05.999Z</time></trkpt><trkpt lat="40.7523059322203" lon="9.393074116853885"><ele>516.0</ele><time>2026-03-28T08:52:06.999Z</time></trkpt><trkpt lat="40.752247797756446" lon="9.392950028109675"><ele>516.0</ele><time>2026-03-28T08:52:07.999Z</time></trkpt><trkpt lat="40.75218645269163" lon="9.392804062595964"><ele>516.0</ele><time>2026-03-28T08:52:08.999Z</time></trkpt><trkpt lat="40.75212464638134" lon="9.392665037825333"><ele>516.0</ele><time>2026-03-28T08:52:09.999Z</time></trkpt><trkpt lat="40.75208080568062" lon="9.392547829459836"><ele>516.0</ele><time>2026-03-28T08:52:10.999Z</time></trkpt><trkpt lat="40.752032251899614" lon="9.392463024875637"><ele>516.0</ele><time>2026-03-28T08:52:11.999Z</time></trkpt><trkpt lat="40.75194789473994" lon="9.392362048636345"><ele>516.0</ele><time>2026-03-28T08:52:12.999Z</time></trkpt><trkpt lat="40.7518256326873" lon="9.392208119777463"><ele>516.0</ele><time>2026-03-28T08:52:13.999Z</time></trkpt><trkpt lat="40.75168909139812" lon="9.39203525086737"><ele>514.75</ele><time>2026-03-28T08:52:15Z</time></trkpt><trkpt lat="40.75158887615979" lon="9.391891561884572"><ele>513.5</ele><time>2026-03-28T08:52:16Z</time></trkpt><trkpt lat="40.75150571369656" lon="9.391762782299779"><ele>512.25</ele><time>2026-03-28T08:52:17Z</time></trkpt><trkpt lat="40.75143070045641" lon="9.391647462202071"><ele>511.0</ele><time>2026-03-28T08:52:18Z</time></trkpt><trkpt lat="40.75135846346523" lon="9.391542057639322"><ele>511.0</ele><time>2026-03-28T08:52:19Z</time></trkpt><trkpt lat="40.75129014323372" lon="9.391442167315226"><ele>511.0</ele><time>2026-03-28T08:52:20Z</time></trkpt><trkpt lat="40.751203183521625" lon="9.391306152342212"><ele>511.0</ele><time>2026-03-28T08:52:21Z</time></trkpt><trkpt lat="40.75108608842795" lon="9.391176023545047"><ele>511.0</ele><time>2026-03-28T08:52:22Z</time></trkpt><trkpt lat="40.750987462828505" lon="9.391058633981988"><ele>511.4</ele><time>2026-03-28T08:52:23Z</time></trkpt><trkpt lat="40.75091203964532" lon="9.390932910472968"><ele>511.8</ele><time>2026-03-28T08:52:24Z</time></trkpt><trkpt lat="40.75083611910588" lon="9.390799152876852"><ele>512.1999999999999</ele><time>2026-03-28T08:52:25Z</time></trkpt><trkpt lat="40.7507696355692" lon="9.390694437305994"><ele>512.6</ele><time>2026-03-28T08:52:26Z</time></trkpt><trkpt lat="40.75070523534506" lon="9.390605779459005"><ele>513.0</ele><time>2026-03-28T08:52:27Z</time></trkpt><trkpt lat="40.750626850889624" lon="9.390525982670027"><ele>513.5</ele><time>2026-03-28T08:52:28Z</time></trkpt><trkpt lat="40.750506091583695" lon="9.390486023911384"><ele>514.0</ele><time>2026-03-28T08:52:29Z</time></trkpt><trkpt lat="40.750383826275595" lon="9.390424109501302"><ele>514.5</ele><time>2026-03-28T08:52:30Z</time></trkpt><trkpt lat="40.75024738627753" lon="9.39036620844887"><ele>515.0</ele><time>2026-03-28T08:52:31Z</time></trkpt><trkpt lat="40.75014656802098" lon="9.390309237013499"><ele>513.25</ele><time>2026-03-28T08:52:32Z</time></trkpt><trkpt lat="40.750053340492805" lon="9.390255229264728"><ele>511.5</ele><time>2026-03-28T08:52:33Z</time></trkpt><trkpt lat="40.749966314824235" lon="9.390186418958985"><ele>509.75</ele><time>2026-03-28T08:52:34Z</time></trkpt><trkpt lat="40.74986453697009" lon="9.390069829548427"><ele>508.0</ele><time>2026-03-28T08:52:35Z</time></trkpt><trkpt lat="40.74979156685991" lon="9.389944880717225"><ele>508.0</ele><time>2026-03-28T08:52:36Z</time></trkpt><trkpt lat="40.749706408903286" lon="9.389846907724195"><ele>508.0</ele><time>2026-03-28T08:52:37Z</time></trkpt><trkpt lat="40.74955697372799" lon="9.389739720052136"><ele>508.0</ele><time>2026-03-28T08:52:38Z</time></trkpt><trkpt lat="40.74941112447811" lon="9.389632591503913"><ele>508.0</ele><time>2026-03-28T08:52:39Z</time></trkpt><trkpt lat="40.7493039697466" lon="9.389565354345935"><ele>507.99999999999994</ele><time>2026-03-28T08:52:40Z</time></trkpt><trkpt lat="40.74920844321079" lon="9.389522626571193"><ele>507.99999999999994</ele><time>2026-03-28T08:52:41Z</time></trkpt><trkpt lat="40.74910744430724" lon="9.38949778350792"><ele>508.0</ele><time>2026-03-28T08:52:42Z</time></trkpt><trkpt lat="40.74898762152194" lon="9.389515547744782"><ele>508.0</ele><time>2026-03-28T08:52:43Z</time></trkpt><trkpt lat="40.74885794614443" lon="9.389546353420931"><ele>508.0</ele><time>2026-03-28T08:52:44Z</time></trkpt><trkpt lat="40.748745009224194" lon="9.389572549637956"><ele>507.99999999999994</ele><time>2026-03-28T08:52:45Z</time></trkpt><trkpt lat="40.74866615548593" lon="9.389604200259681"><ele>507.99999999999994</ele><time>2026-03-28T08:52:46Z</time></trkpt><trkpt lat="40.748526574959364" lon="9.389599312471473"><ele>508.0</ele><time>2026-03-28T08:52:48Z</time></trkpt><trkpt lat="40.74845204599705" lon="9.389547492743045"><ele>508.0</ele><time>2026-03-28T08:52:49Z</time></trkpt><trkpt lat="40.74836330818584" lon="9.389422658881214"><ele>506.0</ele><time>2026-03-28T08:52:50Z</time></trkpt><trkpt lat="40.748265448790235" lon="9.389258062954154"><ele>504.0</ele><time>2026-03-28T08:52:51Z</time></trkpt><trkpt lat="40.74818822618113" lon="9.389124031263238"><ele>502.0</ele><time>2026-03-28T08:52:52Z</time></trkpt><trkpt lat="40.74809465898002" lon="9.38903988127847"><ele>500.0</ele><time>2026-03-28T08:52:53Z</time></trkpt><trkpt lat="40.748016877520705" lon="9.388953137869626"><ele>500.0</ele><time>2026-03-28T08:52:54Z</time></trkpt><trkpt lat="40.7479308697203" lon="9.388867260517575"><ele>500.0</ele><time>2026-03-28T08:52:55Z</time></trkpt><trkpt lat="40.74784296270489" lon="9.38878046292383"><ele>500.0</ele><time>2026-03-28T08:52:56Z</time></trkpt><trkpt lat="40.74779028280979" lon="9.388711321402614"><ele>500.0</ele><time>2026-03-28T08:52:57Z</time></trkpt><trkpt lat="40.747738035218354" lon="9.388618856268295"><ele>500.0</ele><time>2026-03-28T08:52:58Z</time></trkpt><trkpt lat="40.747717643202684" lon="9.388505735653304"><ele>499.25</ele><time>2026-03-28T08:52:59Z</time></trkpt><trkpt lat="40.74770104363004" lon="9.388345709332645"><ele>498.5</ele><time>2026-03-28T08:53:00Z</time></trkpt><trkpt lat="40.747703248249145" lon="9.388127314333747"><ele>497.75</ele><time>2026-03-28T08:53:01Z</time></trkpt><trkpt lat="40.747681453987546" lon="9.387918352784558"><ele>497.0</ele><time>2026-03-28T08:53:02Z</time></trkpt><trkpt lat="40.74767433737191" lon="9.387762875194577"><ele>497.0</ele><time>2026-03-28T08:53:03Z</time></trkpt><trkpt lat="40.74768824665306" lon="9.387635786680848"><ele>497.0</ele><time>2026-03-28T08:53:04Z</time></trkpt><trkpt lat="40.747722254578825" lon="9.387500527502207"><ele>497.0</ele><time>2026-03-28T08:53:05Z</time></trkpt><trkpt lat="40.747757313398765" lon="9.387354218988861"><ele>497.0</ele><time>2026-03-28T08:53:06Z</time></trkpt><trkpt lat="40.7477790273909" lon="9.387163322224922"><ele>496.40000000000003</ele><time>2026-03-28T08:53:07Z</time></trkpt><trkpt lat="40.74778798650665" lon="9.386984730894333"><ele>495.80000000000007</ele><time>2026-03-28T08:53:08Z</time></trkpt><trkpt lat="40.74779156212515" lon="9.386838067553972"><ele>495.2</ele><time>2026-03-28T08:53:09Z</time></trkpt><trkpt lat="40.747796560389666" lon="9.386715231698401"><ele>494.6</ele><time>2026-03-28T08:53:10Z</time></trkpt><trkpt lat="40.747791837137015" lon="9.386592809990749"><ele>494.0</ele><time>2026-03-28T08:53:11Z</time></trkpt><trkpt lat="40.74777898026439" lon="9.386445643612639"><ele>493.6</ele><time>2026-03-28T08:53:12Z</time></trkpt><trkpt lat="40.747767027503315" lon="9.386336470206864"><ele>493.2</ele><time>2026-03-28T08:53:13Z</time></trkpt><trkpt lat="40.747740399036985" lon="9.386162966292313"><ele>492.80000000000007</ele><time>2026-03-28T08:53:15Z</time></trkpt><trkpt lat="40.747731176744125" lon="9.386029465242306"><ele>492.40000000000003</ele><time>2026-03-28T08:53:16Z</time></trkpt><trkpt lat="40.74769646744627" lon="9.385876824858528"><ele>492.0</ele><time>2026-03-28T08:53:17Z</time></trkpt><trkpt lat="40.74766677289635" lon="9.385739125016611"><ele>491.6</ele><time>2026-03-28T08:53:18Z</time></trkpt><trkpt lat="40.74762732792481" lon="9.385599954270548"><ele>491.20000000000005</ele><time>2026-03-28T08:53:19Z</time></trkpt><trkpt lat="40.74757055060446" lon="9.385457534027799"><ele>490.8</ele><time>2026-03-28T08:53:20Z</time></trkpt><trkpt lat="40.74751491548632" lon="9.385341617490056"><ele>490.4</ele><time>2026-03-28T08:53:21Z</time></trkpt><trkpt lat="40.7474639026635" lon="9.38523266527069"><ele>490.0</ele><time>2026-03-28T08:53:22Z</time></trkpt><trkpt lat="40.7474168352766" lon="9.38514782168172"><ele>489.00000000000006</ele><time>2026-03-28T08:53:23Z</time></trkpt><trkpt lat="40.74734429867254" lon="9.385063989731087"><ele>488.0</ele><time>2026-03-28T08:53:24Z</time></trkpt><trkpt lat="40.74726035391668" lon="9.384977693374157"><ele>487.0</ele><time>2026-03-28T08:53:25Z</time></trkpt><trkpt lat="40.74718917452786" lon="9.38488450975866"><ele>486.0</ele><time>2026-03-28T08:53:26Z</time></trkpt><trkpt lat="40.7471538600593" lon="9.384795113803104"><ele>485.00000000000006</ele><time>2026-03-28T08:53:27Z</time></trkpt><trkpt lat="40.74714300561618" lon="9.384709912993474"><ele>484.0</ele><time>2026-03-28T08:53:28Z</time></trkpt><trkpt lat="40.74711770952215" lon="9.384608725820513"><ele>483.2</ele><time>2026-03-28T08:53:29Z</time></trkpt><trkpt lat="40.747078024746216" lon="9.38446996790017"><ele>482.4</ele><time>2026-03-28T08:53:30Z</time></trkpt><trkpt lat="40.74705353856572" lon="9.384334039605712"><ele>481.6</ele><time>2026-03-28T08:53:31Z</time></trkpt><trkpt lat="40.74704119973948" lon="9.384211101788212"><ele>480.8</ele><time>2026-03-28T08:53:32Z</time></trkpt><trkpt lat="40.74701926336783" lon="9.384098114120388"><ele>480.0</ele><time>2026-03-28T08:53:33Z</time></trkpt><trkpt lat="40.746988535571255" lon="9.383868980471217"><ele>480.0</ele><time>2026-03-28T08:53:34Z</time></trkpt><trkpt lat="40.74696355470098" lon="9.383700088565565"><ele>480.0</ele><time>2026-03-28T08:53:35Z</time></trkpt><trkpt lat="40.74691364480937" lon="9.383523819090287"><ele>480.0</ele><time>2026-03-28T08:53:36Z</time></trkpt><trkpt lat="40.7468596165491" lon="9.383350278855639"><ele>480.0</ele><time>2026-03-28T08:53:37Z</time></trkpt><trkpt lat="40.74680203129044" lon="9.383186992319146"><ele>480.0</ele><time>2026-03-28T08:53:38Z</time></trkpt><trkpt lat="40.74675513842561" lon="9.383042801916782"><ele>480.0</ele><time>2026-03-28T08:53:39Z</time></trkpt><trkpt lat="40.74671212248377" lon="9.382921324030733"><ele>480.0</ele><time>2026-03-28T08:53:40Z</time></trkpt><trkpt lat="40.746656315489055" lon="9.382831931406278"><ele>480.0</ele><time>2026-03-28T08:53:41Z</time></trkpt><trkpt lat="40.74657236226883" lon="9.382712629991657"><ele>480.0</ele><time>2026-03-28T08:53:42Z</time></trkpt><trkpt lat="40.74644389129853" lon="9.382558873814087"><ele>481.66666666666663</ele><time>2026-03-28T08:53:43Z</time></trkpt><trkpt lat="40.74628679338016" lon="9.382380788363141"><ele>483.3333333333333</ele><time>2026-03-28T08:53:44Z</time></trkpt><trkpt lat="40.74618735056845" lon="9.382255342682267"><ele>485.0</ele><time>2026-03-28T08:53:45Z</time></trkpt><trkpt lat="40.746083497440495" lon="9.382093855493762"><ele>488.0</ele><time>2026-03-28T08:53:46Z</time></trkpt><trkpt lat="40.745993938787514" lon="9.38196040188629"><ele>491.0</ele><time>2026-03-28T08:53:47Z</time></trkpt><trkpt lat="40.745924664400384" lon="9.381853311615275"><ele>494.0</ele><time>2026-03-28T08:53:48Z</time></trkpt><trkpt lat="40.74575694526889" lon="9.381703358593045"><ele>497.0</ele><time>2026-03-28T08:53:49Z</time></trkpt><trkpt lat="40.74566766785699" lon="9.381627264954531"><ele>497.0</ele><time>2026-03-28T08:53:50Z</time></trkpt><trkpt lat="40.74557698010591" lon="9.381565053721836"><ele>497.00000000000006</ele><time>2026-03-28T08:53:51Z</time></trkpt><trkpt lat="40.74551084695501" lon="9.381542711466633"><ele>497.00000000000006</ele><time>2026-03-28T08:53:52Z</time></trkpt><trkpt lat="40.745447337967605" lon="9.381572241876329"><ele>497.0</ele><time>2026-03-28T08:53:53Z</time></trkpt><trkpt lat="40.74535724983138" lon="9.381643892789436"><ele>497.0</ele><time>2026-03-28T08:53:54Z</time></trkpt><trkpt lat="40.74524726038945" lon="9.381751488759708"><ele>499.0</ele><time>2026-03-28T08:53:55Z</time></trkpt><trkpt lat="40.74513465890678" lon="9.38187069249214"><ele>501.00000000000006</ele><time>2026-03-28T08:53:56Z</time></trkpt><trkpt lat="40.745058058543314" lon="9.381979325468786"><ele>503.00000000000006</ele><time>2026-03-28T08:53:57Z</time></trkpt><trkpt lat="40.74500442732045" lon="9.38207046995895"><ele>505.0</ele><time>2026-03-28T08:53:58Z</time></trkpt><trkpt lat="40.7449284656743" lon="9.382103636736145"><ele>507.0</ele><time>2026-03-28T08:54:00Z</time></trkpt><trkpt lat="40.74489579603273" lon="9.381989724947003"><ele>507.0</ele><time>2026-03-28T08:54:02Z</time></trkpt><trkpt lat="40.74490968439026" lon="9.381895048620219"><ele>507.0</ele><time>2026-03-28T08:54:03Z</time></trkpt><trkpt lat="40.74495028994851" lon="9.381760474444084"><ele>507.0</ele><time>2026-03-28T08:54:04Z</time></trkpt><trkpt lat="40.74500660967157" lon="9.38160414179351"><ele>507.0</ele><time>2026-03-28T08:54:04.999Z</time></trkpt><trkpt lat="40.74507609497211" lon="9.381438200606482"><ele>508.6</ele><time>2026-03-28T08:54:05.999Z</time></trkpt><trkpt lat="40.74512022992307" lon="9.381304653521681"><ele>510.20000000000005</ele><time>2026-03-28T08:54:06.999Z</time></trkpt><trkpt lat="40.74513062375873" lon="9.38117399034003"><ele>511.8</ele><time>2026-03-28T08:54:07.999Z</time></trkpt><trkpt lat="40.745112094983334" lon="9.381003633554002"><ele>513.4</ele><time>2026-03-28T08:54:08.999Z</time></trkpt><trkpt lat="40.74508806060832" lon="9.38086368445101"><ele>515.0</ele><time>2026-03-28T08:54:09.999Z</time></trkpt><trkpt lat="40.74504044794553" lon="9.380742926590042"><ele>515.0</ele><time>2026-03-28T08:54:10.999Z</time></trkpt><trkpt lat="40.74498003258016" lon="9.38061253833297"><ele>515.0</ele><time>2026-03-28T08:54:11.999Z</time></trkpt><trkpt lat="40.744930795722034" lon="9.380494597529426"><ele>515.0</ele><time>2026-03-28T08:54:12.999Z</time></trkpt><trkpt lat="40.74490553071301" lon="9.380386523869518"><ele>515.0</ele><time>2026-03-28T08:54:13.999Z</time></trkpt><trkpt lat="40.74491549016031" lon="9.380276422160584"><ele>515.0</ele><time>2026-03-28T08:54:14.999Z</time></trkpt><trkpt lat="40.74495723961636" lon="9.380120382287824"><ele>514.6666666666666</ele><time>2026-03-28T08:54:15.999Z</time></trkpt><trkpt lat="40.74500023497472" lon="9.379930330889623"><ele>514.3333333333334</ele><time>2026-03-28T08:54:16.999Z</time></trkpt><trkpt lat="40.745025800233655" lon="9.37972752158363"><ele>514.0</ele><time>2026-03-28T08:54:17.999Z</time></trkpt><trkpt lat="40.745048736512885" lon="9.37952094633827"><ele>513.25</ele><time>2026-03-28T08:54:18.999Z</time></trkpt><trkpt lat="40.74506691750551" lon="9.379340730327993"><ele>512.5</ele><time>2026-03-28T08:54:19.999Z</time></trkpt><trkpt lat="40.74508042959741" lon="9.379182809815255"><ele>511.75</ele><time>2026-03-28T08:54:21Z</time></trkpt><trkpt lat="40.74509174351453" lon="9.379036166202765"><ele>511.0</ele><time>2026-03-28T08:54:22Z</time></trkpt><trkpt lat="40.74510471781388" lon="9.378909340013532"><ele>511.83333333333337</ele><time>2026-03-28T08:54:23Z</time></trkpt><trkpt lat="40.74512208304617" lon="9.378788751474685"><ele>512.6666666666667</ele><time>2026-03-28T08:54:24Z</time></trkpt><trkpt lat="40.745134595911416" lon="9.378704507423777"><ele>513.5</ele><time>2026-03-28T08:54:25Z</time></trkpt><trkpt lat="40.74510784433327" lon="9.378621763942514"><ele>514.3333333333334</ele><time>2026-03-28T08:54:26Z</time></trkpt><trkpt lat="40.74506305172427" lon="9.378555140361925"><ele>515.1666666666666</ele><time>2026-03-28T08:54:27Z</time></trkpt><trkpt lat="40.7449805759201" lon="9.37847753562454"><ele>516.0</ele><time>2026-03-28T08:54:28Z</time></trkpt><trkpt lat="40.74489140168176" lon="9.378404080675608"><ele>516.0</ele><time>2026-03-28T08:54:29Z</time></trkpt><trkpt lat="40.74483615909744" lon="9.378319208795102"><ele>516.0</ele><time>2026-03-28T08:54:30Z</time></trkpt><trkpt lat="40.74479870726119" lon="9.378215119085434"><ele>516.0</ele><time>2026-03-28T08:54:31Z</time></trkpt><trkpt lat="40.74478553023186" lon="9.378070214585643"><ele>516.0</ele><time>2026-03-28T08:54:32Z</time></trkpt><trkpt lat="40.74477511063633" lon="9.377914717199282"><ele>516.0</ele><time>2026-03-28T08:54:33Z</time></trkpt><trkpt lat="40.744762454879954" lon="9.37776256340913"><ele>517.75</ele><time>2026-03-28T08:54:34Z</time></trkpt><trkpt lat="40.74473971446881" lon="9.377629772292387"><ele>519.5</ele><time>2026-03-28T08:54:35Z</time></trkpt><trkpt lat="40.744719773461725" lon="9.37748911146983"><ele>521.25</ele><time>2026-03-28T08:54:36Z</time></trkpt><trkpt lat="40.74468158793146" lon="9.377347505516516"><ele>523.0</ele><time>2026-03-28T08:54:37Z</time></trkpt><trkpt lat="40.74465174673244" lon="9.377183670953476"><ele>523.0</ele><time>2026-03-28T08:54:38Z</time></trkpt><trkpt lat="40.74464332494032" lon="9.377036631810666"><ele>523.0</ele><time>2026-03-28T08:54:39Z</time></trkpt><trkpt lat="40.744626948710334" lon="9.376889860595439"><ele>523.0</ele><time>2026-03-28T08:54:40Z</time></trkpt><trkpt lat="40.74460150200538" lon="9.376736198989613"><ele>523.0</ele><time>2026-03-28T08:54:41Z</time></trkpt><trkpt lat="40.744568639916" lon="9.376548146170766"><ele>523.0</ele><time>2026-03-28T08:54:42Z</time></trkpt><trkpt lat="40.74452753190967" lon="9.376370864634909"><ele>523.0</ele><time>2026-03-28T08:54:43Z</time></trkpt><trkpt lat="40.74448739362084" lon="9.376217733837873"><ele>523.0</ele><time>2026-03-28T08:54:44Z</time></trkpt><trkpt lat="40.74445225906348" lon="9.376066163476509"><ele>523.0</ele><time>2026-03-28T08:54:45Z</time></trkpt><trkpt lat="40.74443072067514" lon="9.375916979046908"><ele>522.5</ele><time>2026-03-28T08:54:46Z</time></trkpt><trkpt lat="40.74441669248687" lon="9.375768813791632"><ele>522.0</ele><time>2026-03-28T08:54:47Z</time></trkpt><trkpt lat="40.744415379171585" lon="9.375653497263539"><ele>521.5</ele><time>2026-03-28T08:54:48Z</time></trkpt><trkpt lat="40.744430374396735" lon="9.375551672275689"><ele>521.0</ele><time>2026-03-28T08:54:49Z</time></trkpt><trkpt lat="40.74446927872296" lon="9.3754488726551"><ele>520.5</ele><time>2026-03-28T08:54:50Z</time></trkpt><trkpt lat="40.74450341079437" lon="9.375373635057947"><ele>520.0</ele><time>2026-03-28T08:54:51Z</time></trkpt><trkpt lat="40.74451639760693" lon="9.375287965699151"><ele>520.0</ele><time>2026-03-28T08:54:52Z</time></trkpt><trkpt lat="40.74443465548424" lon="9.37512368739298"><ele>520.0</ele><time>2026-03-28T08:54:54Z</time></trkpt><trkpt lat="40.744339255143565" lon="9.375036739318173"><ele>520.0</ele><time>2026-03-28T08:54:55Z</time></trkpt><trkpt lat="40.74422908937476" lon="9.374924268813702"><ele>520.0</ele><time>2026-03-28T08:54:56Z</time></trkpt><trkpt lat="40.74415387085427" lon="9.374796354125648"><ele>519.2</ele><time>2026-03-28T08:54:57Z</time></trkpt><trkpt lat="40.74412844174759" lon="9.374657106798109"><ele>518.4</ele><time>2026-03-28T08:54:58Z</time></trkpt><trkpt lat="40.74412838039" lon="9.374533567558768"><ele>517.6</ele><time>2026-03-28T08:54:59Z</time></trkpt><trkpt lat="40.74413528462112" lon="9.374394122161227"><ele>516.8</ele><time>2026-03-28T08:55:00Z</time></trkpt><trkpt lat="40.74412894347793" lon="9.374247717221982"><ele>516.0</ele><time>2026-03-28T08:55:01Z</time></trkpt><trkpt lat="40.74409352860485" lon="9.37415060303102"><ele>516.0</ele><time>2026-03-28T08:55:02Z</time></trkpt><trkpt lat="40.744055381979805" lon="9.37407035072239"><ele>516.0</ele><time>2026-03-28T08:55:03Z</time></trkpt><trkpt lat="40.743992613437435" lon="9.373959715983705"><ele>516.0</ele><time>2026-03-28T08:55:04Z</time></trkpt><trkpt lat="40.743896878210656" lon="9.373808182168863"><ele>516.0</ele><time>2026-03-28T08:55:05Z</time></trkpt><trkpt lat="40.743810308962615" lon="9.37367608075745"><ele>514.0</ele><time>2026-03-28T08:55:06Z</time></trkpt><trkpt lat="40.743735418771955" lon="9.373565931334959"><ele>512.0</ele><time>2026-03-28T08:55:07Z</time></trkpt><trkpt lat="40.74364673804013" lon="9.373470130376248"><ele>510.0</ele><time>2026-03-28T08:55:08Z</time></trkpt><trkpt lat="40.74352349150767" lon="9.37338731819142"><ele>508.0</ele><time>2026-03-28T08:55:09Z</time></trkpt><trkpt lat="40.743374843589876" lon="9.373301511806524"><ele>508.00000000000006</ele><time>2026-03-28T08:55:10Z</time></trkpt><trkpt lat="40.74326187160278" lon="9.373226716442725"><ele>508.0</ele><time>2026-03-28T08:55:11Z</time></trkpt><trkpt lat="40.7432043235614" lon="9.373146400118088"><ele>508.0</ele><time>2026-03-28T08:55:12Z</time></trkpt><trkpt lat="40.74315423988743" lon="9.373074157306943"><ele>508.0</ele><time>2026-03-28T08:55:13Z</time></trkpt><trkpt lat="40.74308517637676" lon="9.372997960033844"><ele>508.00000000000006</ele><time>2026-03-28T08:55:15Z</time></trkpt><trkpt lat="40.743022502242596" lon="9.372968003384461"><ele>508.0</ele><time>2026-03-28T08:55:16Z</time></trkpt><trkpt lat="40.74294334958257" lon="9.372939345834327"><ele>508.50000000000006</ele><time>2026-03-28T08:55:17Z</time></trkpt><trkpt lat="40.74285485176383" lon="9.372958460900646"><ele>509.0</ele><time>2026-03-28T08:55:18Z</time></trkpt><trkpt lat="40.74275151945433" lon="9.3730110665908"><ele>509.5</ele><time>2026-03-28T08:55:19Z</time></trkpt><trkpt lat="40.742672196295764" lon="9.373055514086095"><ele>510.0</ele><time>2026-03-28T08:55:20Z</time></trkpt><trkpt lat="40.74258253063247" lon="9.373052206663935"><ele>510.50000000000006</ele><time>2026-03-28T08:55:22Z</time></trkpt><trkpt lat="40.742569923513045" lon="9.372969653668552"><ele>511.0</ele><time>2026-03-28T08:55:24Z</time></trkpt><trkpt lat="40.74262683029558" lon="9.372841606345558"><ele>511.00000000000006</ele><time>2026-03-28T08:55:26Z</time></trkpt><trkpt lat="40.742704011768154" lon="9.372756151893945"><ele>511.0</ele><time>2026-03-28T08:55:27Z</time></trkpt><trkpt lat="40.7427817200577" lon="9.372668901240134"><ele>511.0</ele><time>2026-03-28T08:55:28Z</time></trkpt><trkpt lat="40.742841276863096" lon="9.37257944459664"><ele>511.0</ele><time>2026-03-28T08:55:29Z</time></trkpt><trkpt lat="40.74288210255662" lon="9.372486496747849"><ele>511.00000000000006</ele><time>2026-03-28T08:55:30Z</time></trkpt><trkpt lat="40.742900639197764" lon="9.372391682030196"><ele>511.0</ele><time>2026-03-28T08:55:31Z</time></trkpt><trkpt lat="40.74290573444468" lon="9.37230790903216"><ele>511.0</ele><time>2026-03-28T08:55:32Z</time></trkpt><trkpt lat="40.742903502486016" lon="9.372190520352081"><ele>511.0</ele><time>2026-03-28T08:55:33Z</time></trkpt><trkpt lat="40.74291432105834" lon="9.372045994174972"><ele>511.0</ele><time>2026-03-28T08:55:34Z</time></trkpt><trkpt lat="40.74292320851861" lon="9.37189465054469"><ele>511.0</ele><time>2026-03-28T08:55:35Z</time></trkpt><trkpt lat="40.74291257975963" lon="9.371759567116557"><ele>511.0</ele><time>2026-03-28T08:55:36Z</time></trkpt><trkpt lat="40.742907419998325" lon="9.37162471486513"><ele>509.0</ele><time>2026-03-28T08:55:37Z</time></trkpt><trkpt lat="40.74288532321712" lon="9.371482744750239"><ele>507.0</ele><time>2026-03-28T08:55:38Z</time></trkpt><trkpt lat="40.7428402799775" lon="9.371315282365828"><ele>505.0</ele><time>2026-03-28T08:55:39Z</time></trkpt><trkpt lat="40.74278888358414" lon="9.371140067741209"><ele>503.0</ele><time>2026-03-28T08:55:40Z</time></trkpt><trkpt lat="40.74274879500319" lon="9.370957035164182"><ele>501.25</ele><time>2026-03-28T08:55:41Z</time></trkpt><trkpt lat="40.74271586456597" lon="9.37077152408007"><ele>499.5</ele><time>2026-03-28T08:55:42Z</time></trkpt><trkpt lat="40.74267266330178" lon="9.370612999255533"><ele>497.75</ele><time>2026-03-28T08:55:43Z</time></trkpt><trkpt lat="40.7426362122517" lon="9.3704596609857"><ele>496.0</ele><time>2026-03-28T08:55:44Z</time></trkpt><trkpt lat="40.742602720652535" lon="9.37030393246831"><ele>491.0</ele><time>2026-03-28T08:55:45Z</time></trkpt><trkpt lat="40.742557200193424" lon="9.3701510180008"><ele>486.0</ele><time>2026-03-28T08:55:46Z</time></trkpt><trkpt lat="40.742498782233454" lon="9.369991223145828"><ele>481.0</ele><time>2026-03-28T08:55:47Z</time></trkpt><trkpt lat="40.74242629316887" lon="9.369839393734514"><ele>476.0</ele><time>2026-03-28T08:55:48Z</time></trkpt><trkpt lat="40.74237697570273" lon="9.369718448668582"><ele>476.0</ele><time>2026-03-28T08:55:49Z</time></trkpt><trkpt lat="40.74233877941355" lon="9.369589576410144"><ele>476.0</ele><time>2026-03-28T08:55:50Z</time></trkpt><trkpt lat="40.74232202311843" lon="9.369442257929931"><ele>476.0</ele><time>2026-03-28T08:55:51Z</time></trkpt><trkpt lat="40.742322301945954" lon="9.369285040958951"><ele>476.0</ele><time>2026-03-28T08:55:52Z</time></trkpt><trkpt lat="40.7423493771837" lon="9.369136304896685"><ele>476.0</ele><time>2026-03-28T08:55:53Z</time></trkpt><trkpt lat="40.742412574186496" lon="9.368922222221252"><ele>476.0</ele><time>2026-03-28T08:55:54Z</time></trkpt><trkpt lat="40.74246990167685" lon="9.368715552110892"><ele>476.0</ele><time>2026-03-28T08:55:55Z</time></trkpt><trkpt lat="40.742503139843365" lon="9.36855308218181"><ele>475.0</ele><time>2026-03-28T08:55:56Z</time></trkpt><trkpt lat="40.74252859618393" lon="9.368406006014585"><ele>474.0</ele><time>2026-03-28T08:55:57Z</time></trkpt><trkpt lat="40.74254885837837" lon="9.368277442728864"><ele>473.0</ele><time>2026-03-28T08:55:58Z</time></trkpt><trkpt lat="40.74254645554171" lon="9.368149139195808"><ele>472.0</ele><time>2026-03-28T08:55:59Z</time></trkpt><trkpt lat="40.742535630034055" lon="9.368047501053507"><ele>471.0</ele><time>2026-03-28T08:56:00Z</time></trkpt><trkpt lat="40.74250486137877" lon="9.367922717724312"><ele>470.0</ele><time>2026-03-28T08:56:01Z</time></trkpt><trkpt lat="40.742454748212886" lon="9.367774760047038"><ele>469.0</ele><time>2026-03-28T08:56:02Z</time></trkpt><trkpt lat="40.74238700200958" lon="9.36760227210299"><ele>468.0</ele><time>2026-03-28T08:56:03Z</time></trkpt><trkpt lat="40.74234310435401" lon="9.367458575321344"><ele>467.0</ele><time>2026-03-28T08:56:04Z</time></trkpt><trkpt lat="40.742330239270565" lon="9.36732536524767"><ele>467.20000000000005</ele><time>2026-03-28T08:56:05Z</time></trkpt><trkpt lat="40.742344224723844" lon="9.367176054124078"><ele>467.40000000000003</ele><time>2026-03-28T08:56:06Z</time></trkpt><trkpt lat="40.74235808700659" lon="9.367020894471823"><ele>467.59999999999997</ele><time>2026-03-28T08:56:07Z</time></trkpt><trkpt lat="40.7423530990726" lon="9.36690436950238"><ele>467.79999999999995</ele><time>2026-03-28T08:56:07.999Z</time></trkpt><trkpt lat="40.742327549199466" lon="9.366812231943618"><ele>468.0</ele><time>2026-03-28T08:56:08.999Z</time></trkpt><trkpt lat="40.74228387952387" lon="9.366722376224471"><ele>468.0</ele><time>2026-03-28T08:56:09.999Z</time></trkpt><trkpt lat="40.742218407864904" lon="9.36661760895301"><ele>468.0</ele><time>2026-03-28T08:56:10.999Z</time></trkpt><trkpt lat="40.74215885673676" lon="9.366514826916358"><ele>468.0</ele><time>2026-03-28T08:56:11.999Z</time></trkpt><trkpt lat="40.742130880988405" lon="9.366428677894065"><ele>468.0</ele><time>2026-03-28T08:56:12.999Z</time></trkpt><trkpt lat="40.742109034676844" lon="9.366342531069929"><ele>468.0</ele><time>2026-03-28T08:56:13.999Z</time></trkpt><trkpt lat="40.74210746081125" lon="9.36625680017697"><ele>468.0</ele><time>2026-03-28T08:56:14.999Z</time></trkpt><trkpt lat="40.742113549021155" lon="9.366164601211297"><ele>468.3333333333333</ele><time>2026-03-28T08:56:15.999Z</time></trkpt><trkpt lat="40.742116248737794" lon="9.366077317798947"><ele>468.66666666666663</ele><time>2026-03-28T08:56:16.999Z</time></trkpt><trkpt lat="40.74212185684734" lon="9.36597622526066"><ele>469.0</ele><time>2026-03-28T08:56:18.999Z</time></trkpt><trkpt lat="40.7420689397447" lon="9.365874099272874"><ele>469.3333333333333</ele><time>2026-03-28T09:06:48.999Z</time></trkpt><trkpt lat="40.741997647953426" lon="9.365869791638216"><ele>469.66666666666663</ele><time>2026-03-28T09:06:49.999Z</time></trkpt><trkpt lat="40.74190330266364" lon="9.365871324129937"><ele>470.0</ele><time>2026-03-28T09:06:50.999Z</time></trkpt><trkpt lat="40.74180073144189" lon="9.365871719874303"><ele>469.0</ele><time>2026-03-28T09:06:51.999Z</time></trkpt><trkpt lat="40.74168772376287" lon="9.365854290338323"><ele>468.0</ele><time>2026-03-28T09:06:52.999Z</time></trkpt><trkpt lat="40.741568259817704" lon="9.365847765142629"><ele>467.0</ele><time>2026-03-28T09:06:53.999Z</time></trkpt><trkpt lat="40.741444208361145" lon="9.365847256904894"><ele>466.0</ele><time>2026-03-28T09:06:54.999Z</time></trkpt><trkpt lat="40.74131612562235" lon="9.365845024611216"><ele>466.0</ele><time>2026-03-28T09:06:55.999Z</time></trkpt><trkpt lat="40.74119133634504" lon="9.365840047084099"><ele>466.0</ele><time>2026-03-28T09:06:57Z</time></trkpt><trkpt lat="40.74105339590724" lon="9.365828276484187"><ele>466.0</ele><time>2026-03-28T09:06:58Z</time></trkpt><trkpt lat="40.74091654434327" lon="9.365817469278507"><ele>466.0</ele><time>2026-03-28T09:06:59Z</time></trkpt><trkpt lat="40.740792179719" lon="9.365801701157062"><ele>465.75</ele><time>2026-03-28T09:07:00Z</time></trkpt><trkpt lat="40.74066760033599" lon="9.365774188945496"><ele>465.5</ele><time>2026-03-28T09:07:01Z</time></trkpt><trkpt lat="40.74054447708139" lon="9.365731382354747"><ele>465.25</ele><time>2026-03-28T09:07:02Z</time></trkpt><trkpt lat="40.74042237409842" lon="9.365670690404826"><ele>465.0</ele><time>2026-03-28T09:07:03Z</time></trkpt><trkpt lat="40.740318052335454" lon="9.365607166810674"><ele>465.0</ele><time>2026-03-28T09:07:04Z</time></trkpt><trkpt lat="40.740241157335106" lon="9.365535537643007"><ele>465.0</ele><time>2026-03-28T09:07:05Z</time></trkpt><trkpt lat="40.7401911926446" lon="9.365458177950824"><ele>465.0</ele><time>2026-03-28T09:07:06Z</time></trkpt><trkpt lat="40.74019358361884" lon="9.365318345610058"><ele>465.0</ele><time>2026-03-28T09:07:08Z</time></trkpt><trkpt lat="40.740238198950976" lon="9.365211784045249"><ele>465.0</ele><time>2026-03-28T09:07:09Z</time></trkpt><trkpt lat="40.74028444217603" lon="9.365084878067885"><ele>464.75</ele><time>2026-03-28T09:07:10Z</time></trkpt><trkpt lat="40.740327562617175" lon="9.364940697017122"><ele>464.5</ele><time>2026-03-28T09:07:11Z</time></trkpt><trkpt lat="40.74037829851865" lon="9.364776176851407"><ele>464.25</ele><time>2026-03-28T09:07:12Z</time></trkpt><trkpt lat="40.74043924467768" lon="9.364603559939145"><ele>464.0</ele><time>2026-03-28T09:07:13Z</time></trkpt><trkpt lat="40.74050431587598" lon="9.364421105922073"><ele>463.66666666666663</ele><time>2026-03-28T09:07:14Z</time></trkpt><trkpt lat="40.74056878212078" lon="9.36422945768133"><ele>463.33333333333337</ele><time>2026-03-28T09:07:15Z</time></trkpt><trkpt lat="40.74063519536688" lon="9.364033565982544"><ele>463.0</ele><time>2026-03-28T09:07:16Z</time></trkpt><trkpt lat="40.74070291037222" lon="9.363841965277835"><ele>464.0</ele><time>2026-03-28T09:07:17Z</time></trkpt><trkpt lat="40.74076200242697" lon="9.36365717548234"><ele>465.0</ele><time>2026-03-28T09:07:18Z</time></trkpt><trkpt lat="40.74082122029591" lon="9.363472107602943"><ele>466.0</ele><time>2026-03-28T09:07:19Z</time></trkpt><trkpt lat="40.74087871845924" lon="9.363283692957634"><ele>466.0</ele><time>2026-03-28T09:07:20Z</time></trkpt><trkpt lat="40.74092531473974" lon="9.363105254660342"><ele>466.0</ele><time>2026-03-28T09:07:21Z</time></trkpt><trkpt lat="40.74096586924699" lon="9.36291407848623"><ele>466.0</ele><time>2026-03-28T09:07:22Z</time></trkpt><trkpt lat="40.74100540278264" lon="9.362714331041891"><ele>466.0</ele><time>2026-03-28T09:07:23Z</time></trkpt><trkpt lat="40.74104199402148" lon="9.362504470064035"><ele>466.0</ele><time>2026-03-28T09:07:24Z</time></trkpt><trkpt lat="40.741078782850735" lon="9.362279228772238"><ele>466.0</ele><time>2026-03-28T09:07:25Z</time></trkpt><trkpt lat="40.74111474245695" lon="9.362100254379627"><ele>464.25</ele><time>2026-03-28T09:07:26Z</time></trkpt><trkpt lat="40.74115005628786" lon="9.361905839576423"><ele>462.5</ele><time>2026-03-28T09:07:27Z</time></trkpt><trkpt lat="40.74117917850315" lon="9.361732594855408"><ele>460.75</ele><time>2026-03-28T09:07:28Z</time></trkpt><trkpt lat="40.74120127889964" lon="9.361567064714222"><ele>459.0</ele><time>2026-03-28T09:07:29Z</time></trkpt><trkpt lat="40.7412150214622" lon="9.361399651910995"><ele>458.5</ele><time>2026-03-28T09:07:30Z</time></trkpt><trkpt lat="40.74121230356893" lon="9.361213698503509"><ele>458.0</ele><time>2026-03-28T09:07:31Z</time></trkpt><trkpt lat="40.741187987179" lon="9.361035678445633"><ele>457.5</ele><time>2026-03-28T09:07:32Z</time></trkpt><trkpt lat="40.74115848020121" lon="9.360861708986363"><ele>457.0</ele><time>2026-03-28T09:07:33Z</time></trkpt><trkpt lat="40.741104327249346" lon="9.360681383988139"><ele>460.0</ele><time>2026-03-28T09:07:34Z</time></trkpt><trkpt lat="40.7410436789256" lon="9.360493634467042"><ele>463.0</ele><time>2026-03-28T09:07:35Z</time></trkpt><trkpt lat="40.74098985943648" lon="9.360303020862672"><ele>466.0</ele><time>2026-03-28T09:07:36Z</time></trkpt><trkpt lat="40.740949930409904" lon="9.360099121236484"><ele>466.0</ele><time>2026-03-28T09:07:37Z</time></trkpt><trkpt lat="40.74092492193085" lon="9.359866103982306"><ele>466.0</ele><time>2026-03-28T09:07:38Z</time></trkpt><trkpt lat="40.74090511129483" lon="9.359643262952138"><ele>466.0</ele><time>2026-03-28T09:07:39Z</time></trkpt><trkpt lat="40.74088978269615" lon="9.359451015294669"><ele>466.5</ele><time>2026-03-28T09:07:40Z</time></trkpt><trkpt lat="40.74087547497024" lon="9.35926704234853"><ele>467.0</ele><time>2026-03-28T09:07:41Z</time></trkpt><trkpt lat="40.740855737287305" lon="9.359108502637394"><ele>467.5</ele><time>2026-03-28T09:07:42Z</time></trkpt><trkpt lat="40.740815375960715" lon="9.35897726776216"><ele>468.0</ele><time>2026-03-28T09:07:43Z</time></trkpt><trkpt lat="40.74075138730452" lon="9.358843749075582"><ele>465.75</ele><time>2026-03-28T09:07:44Z</time></trkpt><trkpt lat="40.74066616944415" lon="9.35872392565688"><ele>463.5</ele><time>2026-03-28T09:07:45Z</time></trkpt><trkpt lat="40.74055763408171" lon="9.358612952151846"><ele>461.25</ele><time>2026-03-28T09:07:46Z</time></trkpt><trkpt lat="40.74043101099223" lon="9.358491682157299"><ele>459.0</ele><time>2026-03-28T09:07:47Z</time></trkpt><trkpt lat="40.740317173017154" lon="9.358362564996904"><ele>458.33333333333337</ele><time>2026-03-28T09:07:48Z</time></trkpt><trkpt lat="40.74021349546152" lon="9.358225207963434"><ele>457.6666666666667</ele><time>2026-03-28T09:07:49Z</time></trkpt><trkpt lat="40.74010769957281" lon="9.358070290590518"><ele>457.0</ele><time>2026-03-28T09:07:50Z</time></trkpt><trkpt lat="40.73999961757369" lon="9.35791016367186"><ele>457.0</ele><time>2026-03-28T09:07:51Z</time></trkpt><trkpt lat="40.739890055327926" lon="9.35773958148787"><ele>457.0</ele><time>2026-03-28T09:07:52Z</time></trkpt><trkpt lat="40.73978000326081" lon="9.357551075225548"><ele>457.0</ele><time>2026-03-28T09:07:53Z</time></trkpt><trkpt lat="40.73966956578661" lon="9.35736266597723"><ele>457.0</ele><time>2026-03-28T09:07:54Z</time></trkpt><trkpt lat="40.73955624946814" lon="9.357180135404626"><ele>457.0</ele><time>2026-03-28T09:07:55Z</time></trkpt><trkpt lat="40.73943761039646" lon="9.357005144215066"><ele>457.0</ele><time>2026-03-28T09:07:56Z</time></trkpt><trkpt lat="40.73932852962742" lon="9.356845726895408"><ele>457.0</ele><time>2026-03-28T09:07:57Z</time></trkpt><trkpt lat="40.73922985150315" lon="9.356691801923434"><ele>457.0</ele><time>2026-03-28T09:07:58Z</time></trkpt><trkpt lat="40.73914510507414" lon="9.35651765042837"><ele>457.0</ele><time>2026-03-28T09:07:59Z</time></trkpt><trkpt lat="40.739068062714324" lon="9.35632945841291"><ele>455.6666666666667</ele><time>2026-03-28T09:08:00Z</time></trkpt><trkpt lat="40.73900493994222" lon="9.356128805982218"><ele>454.33333333333337</ele><time>2026-03-28T09:08:01Z</time></trkpt><trkpt lat="40.73895229392186" lon="9.355936403189705"><ele>453.0</ele><time>2026-03-28T09:08:02Z</time></trkpt><trkpt lat="40.73891160796566" lon="9.355754865829196"><ele>453.0</ele><time>2026-03-28T09:08:03Z</time></trkpt><trkpt lat="40.738882292438014" lon="9.355566507141235"><ele>453.0</ele><time>2026-03-28T09:08:04Z</time></trkpt><trkpt lat="40.73886655805073" lon="9.35537555787837"><ele>453.0</ele><time>2026-03-28T09:08:05Z</time></trkpt><trkpt lat="40.738863863175126" lon="9.355198264673737"><ele>453.0</ele><time>2026-03-28T09:08:06Z</time></trkpt><trkpt lat="40.73884583128781" lon="9.355026042901297"><ele>453.0</ele><time>2026-03-28T09:08:07Z</time></trkpt><trkpt lat="40.73880356684112" lon="9.35485083884451"><ele>453.0</ele><time>2026-03-28T09:08:08Z</time></trkpt><trkpt lat="40.738750432644075" lon="9.354672762450132"><ele>453.0</ele><time>2026-03-28T09:08:09Z</time></trkpt><trkpt lat="40.7386992777067" lon="9.35448953189989"><ele>453.0</ele><time>2026-03-28T09:08:10Z</time></trkpt><trkpt lat="40.73865144058896" lon="9.35430511949134"><ele>453.0</ele><time>2026-03-28T09:08:11Z</time></trkpt><trkpt lat="40.738600174578174" lon="9.354114008198122"><ele>453.0</ele><time>2026-03-28T09:08:12Z</time></trkpt><trkpt lat="40.73854730348386" lon="9.353924577177162"><ele>453.0</ele><time>2026-03-28T09:08:13Z</time></trkpt><trkpt lat="40.738496355201654" lon="9.353735002916173"><ele>453.0</ele><time>2026-03-28T09:08:14Z</time></trkpt><trkpt lat="40.738444023116806" lon="9.353541001139277"><ele>453.0</ele><time>2026-03-28T09:08:15Z</time></trkpt><trkpt lat="40.73839021196759" lon="9.353344954221742"><ele>453.0</ele><time>2026-03-28T09:08:16Z</time></trkpt><trkpt lat="40.73834004443891" lon="9.353160719279254"><ele>453.0</ele><time>2026-03-28T09:08:17Z</time></trkpt><trkpt lat="40.73828954393029" lon="9.352989380551968"><ele>453.0</ele><time>2026-03-28T09:08:18Z</time></trkpt><trkpt lat="40.738233646127014" lon="9.352815423841847"><ele>453.0</ele><time>2026-03-28T09:08:19Z</time></trkpt><trkpt lat="40.738165858261894" lon="9.352641583632082"><ele>453.0</ele><time>2026-03-28T09:08:20Z</time></trkpt><trkpt lat="40.73808070866529" lon="9.352459007132857"><ele>453.0</ele><time>2026-03-28T09:08:21Z</time></trkpt><trkpt lat="40.737987762737106" lon="9.352271071943843"><ele>453.0</ele><time>2026-03-28T09:08:22Z</time></trkpt><trkpt lat="40.737894262476736" lon="9.352086842418856"><ele>453.0</ele><time>2026-03-28T09:08:23Z</time></trkpt><trkpt lat="40.73779721783918" lon="9.351897428030476"><ele>451.66666666666663</ele><time>2026-03-28T09:08:24Z</time></trkpt><trkpt lat="40.73770202768396" lon="9.351703450465058"><ele>450.3333333333333</ele><time>2026-03-28T09:08:25Z</time></trkpt><trkpt lat="40.73760322291383" lon="9.35150469264864"><ele>449.0</ele><time>2026-03-28T09:08:26Z</time></trkpt><trkpt lat="40.737504554993336" lon="9.351301199792905"><ele>449.0</ele><time>2026-03-28T09:08:27Z</time></trkpt><trkpt lat="40.737405286211036" lon="9.35109604217509"><ele>449.0</ele><time>2026-03-28T09:08:28Z</time></trkpt><trkpt lat="40.73730576811972" lon="9.350889250507176"><ele>449.0</ele><time>2026-03-28T09:08:29Z</time></trkpt><trkpt lat="40.73720658141393" lon="9.350692781306906"><ele>449.0</ele><time>2026-03-28T09:08:30Z</time></trkpt><trkpt lat="40.73710583290347" lon="9.350499260606984"><ele>449.0</ele><time>2026-03-28T09:08:31Z</time></trkpt><trkpt lat="40.73700477959327" lon="9.350302516293548"><ele>449.0</ele><time>2026-03-28T09:08:32Z</time></trkpt><trkpt lat="40.736913533388055" lon="9.350112084532714"><ele>449.0</ele><time>2026-03-28T09:08:33Z</time></trkpt><trkpt lat="40.736818164654295" lon="9.34992189760097"><ele>449.0</ele><time>2026-03-28T09:08:34Z</time></trkpt><trkpt lat="40.73672256579527" lon="9.34973382346818"><ele>449.0</ele><time>2026-03-28T09:08:35Z</time></trkpt><trkpt lat="40.73662740579991" lon="9.34954854809577"><ele>448.66666666666663</ele><time>2026-03-28T09:08:36Z</time></trkpt><trkpt lat="40.7365230853843" lon="9.349362607550596"><ele>448.33333333333337</ele><time>2026-03-28T09:08:37Z</time></trkpt><trkpt lat="40.736412716963585" lon="9.34918005406235"><ele>448.0</ele><time>2026-03-28T09:08:38Z</time></trkpt><trkpt lat="40.73629752076865" lon="9.348997926299097"><ele>448.6666666666667</ele><time>2026-03-28T09:08:39Z</time></trkpt><trkpt lat="40.73618082271318" lon="9.348817188257353"><ele>449.33333333333337</ele><time>2026-03-28T09:08:40Z</time></trkpt><trkpt lat="40.73606005675342" lon="9.348639938899163"><ele>450.0</ele><time>2026-03-28T09:08:41Z</time></trkpt><trkpt lat="40.73594329835785" lon="9.348463396652592"><ele>451.33333333333337</ele><time>2026-03-28T09:08:42Z</time></trkpt><trkpt lat="40.73582918152915" lon="9.34829266453213"><ele>452.6666666666667</ele><time>2026-03-28T09:08:43Z</time></trkpt><trkpt lat="40.7357094378461" lon="9.348127278606166"><ele>454.0</ele><time>2026-03-28T09:08:44Z</time></trkpt><trkpt lat="40.73559312234156" lon="9.347985365388045"><ele>454.6666666666667</ele><time>2026-03-28T09:08:45Z</time></trkpt><trkpt lat="40.73547195447431" lon="9.347855864268336"><ele>455.33333333333337</ele><time>2026-03-28T09:08:46Z</time></trkpt><trkpt lat="40.73533031821896" lon="9.347735854742924"><ele>456.0</ele><time>2026-03-28T09:08:47Z</time></trkpt><trkpt lat="40.73516441789052" lon="9.347623157638063"><ele>459.0</ele><time>2026-03-28T09:08:48Z</time></trkpt><trkpt lat="40.73500517013092" lon="9.347519329894942"><ele>462.0</ele><time>2026-03-28T09:08:49Z</time></trkpt><trkpt lat="40.734857680522545" lon="9.34741668896044"><ele>465.0</ele><time>2026-03-28T09:08:50Z</time></trkpt><trkpt lat="40.7347271829442" lon="9.347309734496056"><ele>465.33333333333337</ele><time>2026-03-28T09:08:51Z</time></trkpt><trkpt lat="40.73461412977608" lon="9.3471839575674"><ele>465.6666666666667</ele><time>2026-03-28T09:08:52Z</time></trkpt><trkpt lat="40.734506863734275" lon="9.347027229388445"><ele>466.0</ele><time>2026-03-28T09:08:53Z</time></trkpt><trkpt lat="40.734417079957936" lon="9.346837604118642"><ele>467.0</ele><time>2026-03-28T09:08:54Z</time></trkpt><trkpt lat="40.734338182194975" lon="9.346649515624971"><ele>468.0</ele><time>2026-03-28T09:08:55Z</time></trkpt><trkpt lat="40.73425877174365" lon="9.346500741881403"><ele>469.0</ele><time>2026-03-28T09:08:56Z</time></trkpt><trkpt lat="40.73417537964447" lon="9.346397954355222"><ele>470.0</ele><time>2026-03-28T09:08:57Z</time></trkpt><trkpt lat="40.73406125369982" lon="9.346327909403424"><ele>470.0</ele><time>2026-03-28T09:08:58Z</time></trkpt><trkpt lat="40.73391941865782" lon="9.346260854013083"><ele>470.0</ele><time>2026-03-28T09:08:59Z</time></trkpt><trkpt lat="40.73376627976062" lon="9.346181254817319"><ele>470.0</ele><time>2026-03-28T09:08:59.999Z</time></trkpt><trkpt lat="40.733602920195814" lon="9.346094422193548"><ele>471.75</ele><time>2026-03-28T09:09:00.999Z</time></trkpt><trkpt lat="40.73345631138102" lon="9.346017387104514"><ele>473.5</ele><time>2026-03-28T09:09:01.999Z</time></trkpt><trkpt lat="40.73332673011167" lon="9.345941864281325"><ele>475.25</ele><time>2026-03-28T09:09:03Z</time></trkpt><trkpt lat="40.73320236005514" lon="9.345863682719202"><ele>477.0</ele><time>2026-03-28T09:09:04Z</time></trkpt><trkpt lat="40.733074065147385" lon="9.345775991086825"><ele>477.0</ele><time>2026-03-28T09:09:05Z</time></trkpt><trkpt lat="40.7329467356226" lon="9.345684763611164"><ele>477.0</ele><time>2026-03-28T09:09:06Z</time></trkpt><trkpt lat="40.7328151575166" lon="9.345579063812787"><ele>477.0</ele><time>2026-03-28T09:09:07Z</time></trkpt><trkpt lat="40.73269441472517" lon="9.345470897592106"><ele>477.0</ele><time>2026-03-28T09:09:08Z</time></trkpt><trkpt lat="40.73257262981521" lon="9.345366406151689"><ele>476.25</ele><time>2026-03-28T09:09:09Z</time></trkpt><trkpt lat="40.732446680255975" lon="9.345267748143742"><ele>475.5</ele><time>2026-03-28T09:09:10Z</time></trkpt><trkpt lat="40.73232970516778" lon="9.345180152315155"><ele>474.75</ele><time>2026-03-28T09:09:11Z</time></trkpt><trkpt lat="40.73222310700187" lon="9.345084570894207"><ele>474.0</ele><time>2026-03-28T09:09:12Z</time></trkpt><trkpt lat="40.73211462537674" lon="9.344969497221893"><ele>474.0</ele><time>2026-03-28T09:09:13Z</time></trkpt><trkpt lat="40.73200823104784" lon="9.344836662412073"><ele>474.0</ele><time>2026-03-28T09:09:14Z</time></trkpt><trkpt lat="40.731904152200286" lon="9.344693605159177"><ele>474.0</ele><time>2026-03-28T09:09:15Z</time></trkpt><trkpt lat="40.731802634467975" lon="9.3445504926424"><ele>474.0</ele><time>2026-03-28T09:09:16Z</time></trkpt><trkpt lat="40.73167833593357" lon="9.344392244016557"><ele>473.33333333333337</ele><time>2026-03-28T09:09:17Z</time></trkpt><trkpt lat="40.731566082043535" lon="9.344226309502313"><ele>472.6666666666667</ele><time>2026-03-28T09:09:18Z</time></trkpt><trkpt lat="40.731448102779346" lon="9.344070467332338"><ele>472.0</ele><time>2026-03-28T09:09:19Z</time></trkpt><trkpt lat="40.73133157368868" lon="9.34392238195973"><ele>472.33333333333337</ele><time>2026-03-28T09:09:20Z</time></trkpt><trkpt lat="40.73121275460702" lon="9.343773405797318"><ele>472.66666666666663</ele><time>2026-03-28T09:09:21Z</time></trkpt><trkpt lat="40.73110290603638" lon="9.343620265656615"><ele>473.0</ele><time>2026-03-28T09:09:22Z</time></trkpt><trkpt lat="40.730990972415604" lon="9.343471117554387"><ele>473.0</ele><time>2026-03-28T09:09:23Z</time></trkpt><trkpt lat="40.730883213334636" lon="9.343340515024368"><ele>473.0</ele><time>2026-03-28T09:09:24Z</time></trkpt><trkpt lat="40.730766772602216" lon="9.343211316944275"><ele>473.0</ele><time>2026-03-28T09:09:25Z</time></trkpt><trkpt lat="40.730635827064226" lon="9.343085740706496"><ele>470.0</ele><time>2026-03-28T09:09:26Z</time></trkpt><trkpt lat="40.73049681631719" lon="9.342964795389474"><ele>467.0</ele><time>2026-03-28T09:09:27Z</time></trkpt><trkpt lat="40.73036726839739" lon="9.34285283856375"><ele>464.0</ele><time>2026-03-28T09:09:28Z</time></trkpt><trkpt lat="40.7302453961788" lon="9.342746024243034"><ele>466.25</ele><time>2026-03-28T09:09:29Z</time></trkpt><trkpt lat="40.730136109322025" lon="9.342639016179895"><ele>468.5</ele><time>2026-03-28T09:09:30Z</time></trkpt><trkpt lat="40.73004718342177" lon="9.342510111525398"><ele>470.75</ele><time>2026-03-28T09:09:31Z</time></trkpt><trkpt lat="40.72998313617087" lon="9.34235563550222"><ele>473.0</ele><time>2026-03-28T09:09:32Z</time></trkpt><trkpt lat="40.729908149390056" lon="9.342246592881542"><ele>473.25</ele><time>2026-03-28T09:09:33Z</time></trkpt><trkpt lat="40.72979515091704" lon="9.342183711055883"><ele>473.5</ele><time>2026-03-28T09:09:34Z</time></trkpt><trkpt lat="40.729664062501634" lon="9.342131257170575"><ele>473.75</ele><time>2026-03-28T09:09:35Z</time></trkpt><trkpt lat="40.72952421609202" lon="9.342085479533482"><ele>474.0</ele><time>2026-03-28T09:09:36Z</time></trkpt><trkpt lat="40.729373144468255" lon="9.342041793182679"><ele>474.0</ele><time>2026-03-28T09:09:37Z</time></trkpt><trkpt lat="40.72921911508272" lon="9.341999011450755"><ele>474.0</ele><time>2026-03-28T09:09:38Z</time></trkpt><trkpt lat="40.72906378457902" lon="9.341939555497982"><ele>474.0</ele><time>2026-03-28T09:09:39Z</time></trkpt><trkpt lat="40.728933020721016" lon="9.341859354251891"><ele>474.0</ele><time>2026-03-28T09:09:40Z</time></trkpt><trkpt lat="40.728816792928114" lon="9.341774435833411"><ele>474.0</ele><time>2026-03-28T09:09:41Z</time></trkpt><trkpt lat="40.72871266366032" lon="9.34168644255551"><ele>474.0</ele><time>2026-03-28T09:09:42Z</time></trkpt><trkpt lat="40.72861604902962" lon="9.341577056865166"><ele>474.0</ele><time>2026-03-28T09:09:43Z</time></trkpt><trkpt lat="40.72852786286649" lon="9.341415816058442"><ele>477.0</ele><time>2026-03-28T09:09:44Z</time></trkpt><trkpt lat="40.72845423820356" lon="9.34122198925534"><ele>480.0</ele><time>2026-03-28T09:09:45Z</time></trkpt><trkpt lat="40.72838864385126" lon="9.341020403181021"><ele>483.0</ele><time>2026-03-28T09:09:46Z</time></trkpt><trkpt lat="40.72832861012341" lon="9.340815988940223"><ele>483.0</ele><time>2026-03-28T09:09:47Z</time></trkpt><trkpt lat="40.72826989418508" lon="9.340605891011647"><ele>483.0</ele><time>2026-03-28T09:09:48Z</time></trkpt><trkpt lat="40.72821526449024" lon="9.340406809234981"><ele>483.0</ele><time>2026-03-28T09:09:49Z</time></trkpt><trkpt lat="40.72816616482004" lon="9.340218906430817"><ele>481.0</ele><time>2026-03-28T09:09:50Z</time></trkpt><trkpt lat="40.728125737322436" lon="9.34004103647267"><ele>479.0</ele><time>2026-03-28T09:09:51Z</time></trkpt><trkpt lat="40.72809247170862" lon="9.33987031099553"><ele>477.0</ele><time>2026-03-28T09:09:52Z</time></trkpt><trkpt lat="40.728065915588594" lon="9.339708637062955"><ele>475.0</ele><time>2026-03-28T09:09:53Z</time></trkpt><trkpt lat="40.72803296099197" lon="9.33955907728791"><ele>474.25</ele><time>2026-03-28T09:09:54Z</time></trkpt><trkpt lat="40.72798478521166" lon="9.339429889972104"><ele>473.5</ele><time>2026-03-28T09:09:55Z</time></trkpt><trkpt lat="40.72791100092082" lon="9.339320001289448"><ele>472.75</ele><time>2026-03-28T09:09:56Z</time></trkpt><trkpt lat="40.727809117352095" lon="9.339228456134476"><ele>472.0</ele><time>2026-03-28T09:09:57Z</time></trkpt><trkpt lat="40.72769062942596" lon="9.339163929612267"><ele>473.20000000000005</ele><time>2026-03-28T09:09:58Z</time></trkpt><trkpt lat="40.727581911795184" lon="9.339112491280272"><ele>474.40000000000003</ele><time>2026-03-28T09:09:59Z</time></trkpt><trkpt lat="40.727510461075056" lon="9.3390433445722"><ele>475.59999999999997</ele><time>2026-03-28T09:10:00Z</time></trkpt><trkpt lat="40.727475640561295" lon="9.338953341479565"><ele>476.79999999999995</ele><time>2026-03-28T09:10:01Z</time></trkpt><trkpt lat="40.72746538143042" lon="9.338819992268686"><ele>478.0</ele><time>2026-03-28T09:10:02Z</time></trkpt><trkpt lat="40.72745198112319" lon="9.338671516361863"><ele>478.0</ele><time>2026-03-28T09:10:03Z</time></trkpt><trkpt lat="40.72739953628183" lon="9.33853753023499"><ele>478.0</ele><time>2026-03-28T09:10:04Z</time></trkpt><trkpt lat="40.72730546556829" lon="9.33840103510169"><ele>478.0</ele><time>2026-03-28T09:10:05Z</time></trkpt><trkpt lat="40.72718925022737" lon="9.33826242238382"><ele>478.0</ele><time>2026-03-28T09:10:06Z</time></trkpt><trkpt lat="40.727059761954195" lon="9.338119351435251"><ele>479.33333333333337</ele><time>2026-03-28T09:10:07Z</time></trkpt><trkpt lat="40.72693414159228" lon="9.337973739215785"><ele>480.66666666666663</ele><time>2026-03-28T09:10:08Z</time></trkpt><trkpt lat="40.72682612316995" lon="9.337817035045195"><ele>482.0</ele><time>2026-03-28T09:10:09Z</time></trkpt><trkpt lat="40.72672879749015" lon="9.337637984995949"><ele>482.0</ele><time>2026-03-28T09:10:10Z</time></trkpt><trkpt lat="40.72665010355631" lon="9.337472465483566"><ele>482.0</ele><time>2026-03-28T09:10:11Z</time></trkpt><trkpt lat="40.726585928731105" lon="9.337307780117731"><ele>482.0</ele><time>2026-03-28T09:10:12Z</time></trkpt><trkpt lat="40.72653810038227" lon="9.337161112030358"><ele>482.0</ele><time>2026-03-28T09:10:13Z</time></trkpt><trkpt lat="40.72649935772076" lon="9.337028409644766"><ele>484.75</ele><time>2026-03-28T09:10:14Z</time></trkpt><trkpt lat="40.72646740108397" lon="9.336896117267946"><ele>487.5</ele><time>2026-03-28T09:10:15Z</time></trkpt><trkpt lat="40.72642034178222" lon="9.336750590238537"><ele>490.25</ele><time>2026-03-28T09:10:16Z</time></trkpt><trkpt lat="40.726359464289814" lon="9.33662230134622"><ele>493.0</ele><time>2026-03-28T09:10:17Z</time></trkpt><trkpt lat="40.72627861928472" lon="9.33651690271883"><ele>493.0</ele><time>2026-03-28T09:10:18Z</time></trkpt><trkpt lat="40.726182457997986" lon="9.33641968153221"><ele>493.0</ele><time>2026-03-28T09:10:19Z</time></trkpt><trkpt lat="40.7260736562914" lon="9.336341110303614"><ele>493.0</ele><time>2026-03-28T09:10:20Z</time></trkpt><trkpt lat="40.725948308974374" lon="9.336277281441811"><ele>493.0</ele><time>2026-03-28T09:10:21Z</time></trkpt><trkpt lat="40.725797726185746" lon="9.336224086021252"><ele>494.33333333333337</ele><time>2026-03-28T09:10:22Z</time></trkpt><trkpt lat="40.72563138219073" lon="9.336183342892529"><ele>495.66666666666663</ele><time>2026-03-28T09:10:23Z</time></trkpt><trkpt lat="40.72544688049783" lon="9.336163806204425"><ele>497.0</ele><time>2026-03-28T09:10:24Z</time></trkpt><trkpt lat="40.72525676345137" lon="9.336154546192743"><ele>495.0</ele><time>2026-03-28T09:10:25Z</time></trkpt><trkpt lat="40.72506157332744" lon="9.33614007229484"><ele>493.0</ele><time>2026-03-28T09:10:26Z</time></trkpt><trkpt lat="40.72485582893584" lon="9.336136952517018"><ele>491.0</ele><time>2026-03-28T09:10:27Z</time></trkpt><trkpt lat="40.72465852736608" lon="9.336148220650287"><ele>491.0</ele><time>2026-03-28T09:10:28Z</time></trkpt><trkpt lat="40.72447694353767" lon="9.336173863476898"><ele>491.0</ele><time>2026-03-28T09:10:29Z</time></trkpt><trkpt lat="40.72432146287139" lon="9.336200369096957"><ele>491.0</ele><time>2026-03-28T09:10:30Z</time></trkpt><trkpt lat="40.72418018223534" lon="9.33621650058405"><ele>492.25</ele><time>2026-03-28T09:10:31Z</time></trkpt><trkpt lat="40.724050074110465" lon="9.33622009853723"><ele>493.5</ele><time>2026-03-28T09:10:32Z</time></trkpt><trkpt lat="40.723920780328136" lon="9.336202699790336"><ele>494.75</ele><time>2026-03-28T09:10:33Z</time></trkpt><trkpt lat="40.723796151073316" lon="9.336141368741862"><ele>496.0</ele><time>2026-03-28T09:10:34Z</time></trkpt><trkpt lat="40.723696874878655" lon="9.336035840517582"><ele>496.0</ele><time>2026-03-28T09:10:35Z</time></trkpt><trkpt lat="40.723627494258686" lon="9.335906066579403"><ele>496.0</ele><time>2026-03-28T09:10:36Z</time></trkpt><trkpt lat="40.72356798324768" lon="9.33574875515"><ele>496.0</ele><time>2026-03-28T09:10:37Z</time></trkpt><trkpt lat="40.723515671431954" lon="9.33556752583086"><ele>496.0</ele><time>2026-03-28T09:10:38Z</time></trkpt><trkpt lat="40.723475493469294" lon="9.335380343719924"><ele>497.25</ele><time>2026-03-28T09:10:39Z</time></trkpt><trkpt lat="40.7234337972958" lon="9.335208737160672"><ele>498.5</ele><time>2026-03-28T09:10:40Z</time></trkpt><trkpt lat="40.72336845570706" lon="9.335054963677523"><ele>499.75</ele><time>2026-03-28T09:10:41Z</time></trkpt><trkpt lat="40.72328570692014" lon="9.334907587621634"><ele>501.0</ele><time>2026-03-28T09:10:42Z</time></trkpt><trkpt lat="40.7231942155161" lon="9.334774361383703"><ele>504.66666666666663</ele><time>2026-03-28T09:10:43Z</time></trkpt><trkpt lat="40.72309239883332" lon="9.334645709743288"><ele>508.3333333333333</ele><time>2026-03-28T09:10:44Z</time></trkpt><trkpt lat="40.7229691985507" lon="9.334517862361471"><ele>512.0</ele><time>2026-03-28T09:10:45Z</time></trkpt><trkpt lat="40.722828416401434" lon="9.334395073991839"><ele>508.66666666666663</ele><time>2026-03-28T09:10:46Z</time></trkpt><trkpt lat="40.72267879159756" lon="9.33427032042179"><ele>505.33333333333337</ele><time>2026-03-28T09:10:47Z</time></trkpt><trkpt lat="40.722521577851175" lon="9.334149996065507"><ele>502.0</ele><time>2026-03-28T09:10:48Z</time></trkpt><trkpt lat="40.72236981350117" lon="9.334026572295434"><ele>502.0</ele><time>2026-03-28T09:10:49Z</time></trkpt><trkpt lat="40.72222267335106" lon="9.333908106243845"><ele>502.0</ele><time>2026-03-28T09:10:50Z</time></trkpt><trkpt lat="40.722084769059904" lon="9.333791442536272"><ele>502.0</ele><time>2026-03-28T09:10:51Z</time></trkpt><trkpt lat="40.72196076063946" lon="9.333680880653537"><ele>504.33333333333337</ele><time>2026-03-28T09:10:52Z</time></trkpt><trkpt lat="40.721837882421624" lon="9.333545070461398"><ele>506.66666666666663</ele><time>2026-03-28T09:10:53Z</time></trkpt><trkpt lat="40.72171520292144" lon="9.333385011487055"><ele>509.0</ele><time>2026-03-28T09:10:54Z</time></trkpt><trkpt lat="40.72159265766259" lon="9.333213509495309"><ele>516.3333333333333</ele><time>2026-03-28T09:10:55Z</time></trkpt><trkpt lat="40.72147739989501" lon="9.33304468696058"><ele>523.6666666666666</ele><time>2026-03-28T09:10:56Z</time></trkpt><trkpt lat="40.72136765577902" lon="9.332881060182235"><ele>531.0</ele><time>2026-03-28T09:10:57Z</time></trkpt><trkpt lat="40.72126892833797" lon="9.332729861891261"><ele>531.0</ele><time>2026-03-28T09:10:58Z</time></trkpt><trkpt lat="40.72117772918985" lon="9.33256755751717"><ele>531.0</ele><time>2026-03-28T09:10:59Z</time></trkpt><trkpt lat="40.72108658644101" lon="9.332403610418408"><ele>531.0</ele><time>2026-03-28T09:11:00Z</time></trkpt><trkpt lat="40.72097803124272" lon="9.3322423894491"><ele>529.0</ele><time>2026-03-28T09:11:01Z</time></trkpt><trkpt lat="40.72084964937723" lon="9.33207571256515"><ele>527.0</ele><time>2026-03-28T09:11:02Z</time></trkpt><trkpt lat="40.72072587846893" lon="9.331919468006044"><ele>525.0</ele><time>2026-03-28T09:11:03Z</time></trkpt><trkpt lat="40.720612289032275" lon="9.331772685183664"><ele>525.0</ele><time>2026-03-28T09:11:04Z</time></trkpt><trkpt lat="40.72050504615995" lon="9.33163784440462"><ele>525.0</ele><time>2026-03-28T09:11:05Z</time></trkpt><trkpt lat="40.72039735690301" lon="9.3315134393809"><ele>525.0</ele><time>2026-03-28T09:11:06Z</time></trkpt><trkpt lat="40.720290673183676" lon="9.331399897043141"><ele>525.0</ele><time>2026-03-28T09:11:07Z</time></trkpt><trkpt lat="40.72017345728461" lon="9.331312101211187"><ele>523.75</ele><time>2026-03-28T09:11:08Z</time></trkpt><trkpt lat="40.7200300972498" lon="9.331243206357177"><ele>522.5</ele><time>2026-03-28T09:11:09Z</time></trkpt><trkpt lat="40.71989713103258" lon="9.331179315955005"><ele>521.25</ele><time>2026-03-28T09:11:10Z</time></trkpt><trkpt lat="40.71978607123707" lon="9.331107672273978"><ele>520.0</ele><time>2026-03-28T09:11:11Z</time></trkpt><trkpt lat="40.719691293023374" lon="9.331017843484533"><ele>520.0</ele><time>2026-03-28T09:11:12Z</time></trkpt><trkpt lat="40.71960982194401" lon="9.330887092298118"><ele>520.0</ele><time>2026-03-28T09:11:13Z</time></trkpt><trkpt lat="40.71954417072716" lon="9.330717364191248"><ele>520.0</ele><time>2026-03-28T09:11:14Z</time></trkpt><trkpt lat="40.7194654895014" lon="9.330556441058054"><ele>520.0</ele><time>2026-03-28T09:11:15Z</time></trkpt><trkpt lat="40.71935945732" lon="9.33041744560453"><ele>521.0</ele><time>2026-03-28T09:11:16Z</time></trkpt><trkpt lat="40.71924541113915" lon="9.3302969422557"><ele>522.0</ele><time>2026-03-28T09:11:17Z</time></trkpt><trkpt lat="40.71911644023006" lon="9.33019353124125"><ele>523.0</ele><time>2026-03-28T09:11:18Z</time></trkpt><trkpt lat="40.71897991530396" lon="9.330092295410113"><ele>523.0</ele><time>2026-03-28T09:11:19Z</time></trkpt><trkpt lat="40.718837977163254" lon="9.329976638358136"><ele>523.0</ele><time>2026-03-28T09:11:20Z</time></trkpt><trkpt lat="40.71869834758978" lon="9.329853763187955"><ele>523.0</ele><time>2026-03-28T09:11:21Z</time></trkpt><trkpt lat="40.718563596215304" lon="9.329721918445035"><ele>523.6666666666667</ele><time>2026-03-28T09:11:22Z</time></trkpt><trkpt lat="40.718430134117035" lon="9.329583229201099"><ele>524.3333333333334</ele><time>2026-03-28T09:11:23Z</time></trkpt><trkpt lat="40.71829586883228" lon="9.329434155769379"><ele>525.0</ele><time>2026-03-28T09:11:24Z</time></trkpt><trkpt lat="40.71815008904528" lon="9.32927346088737"><ele>525.0</ele><time>2026-03-28T09:11:25Z</time></trkpt><trkpt lat="40.71801848852679" lon="9.329125494721287"><ele>525.0</ele><time>2026-03-28T09:11:26Z</time></trkpt><trkpt lat="40.717906125834716" lon="9.32899989617746"><ele>525.0</ele><time>2026-03-28T09:11:27Z</time></trkpt><trkpt lat="40.71778875858508" lon="9.328884128974787"><ele>526.6666666666666</ele><time>2026-03-28T09:11:28Z</time></trkpt><trkpt lat="40.71766435150077" lon="9.328776548219532"><ele>528.3333333333333</ele><time>2026-03-28T09:11:29Z</time></trkpt><trkpt lat="40.71752452133072" lon="9.328685975739596"><ele>530.0</ele><time>2026-03-28T09:11:30Z</time></trkpt><trkpt lat="40.71736223496111" lon="9.328612268634341"><ele>530.0</ele><time>2026-03-28T09:11:31Z</time></trkpt><trkpt lat="40.71719988103875" lon="9.328553245793326"><ele>530.0</ele><time>2026-03-28T09:11:32Z</time></trkpt><trkpt lat="40.71706833055421" lon="9.328489644624279"><ele>530.0</ele><time>2026-03-28T09:11:33Z</time></trkpt><trkpt lat="40.71695937509372" lon="9.328383953794368"><ele>530.0</ele><time>2026-03-28T09:11:34Z</time></trkpt><trkpt lat="40.716847198830784" lon="9.328251305580734"><ele>531.0</ele><time>2026-03-28T09:11:35Z</time></trkpt><trkpt lat="40.71674136934618" lon="9.328130094191872"><ele>532.0</ele><time>2026-03-28T09:11:36Z</time></trkpt><trkpt lat="40.716628878767146" lon="9.32801834890946"><ele>533.0</ele><time>2026-03-28T09:11:37Z</time></trkpt><trkpt lat="40.71651238523986" lon="9.327925541922733"><ele>534.0</ele><time>2026-03-28T09:11:38Z</time></trkpt><trkpt lat="40.71639836695974" lon="9.327847548027306"><ele>534.0</ele><time>2026-03-28T09:11:39Z</time></trkpt><trkpt lat="40.71628771771324" lon="9.327776232225093"><ele>534.0</ele><time>2026-03-28T09:11:40Z</time></trkpt><trkpt lat="40.71617803355683" lon="9.327708118235458"><ele>534.0</ele><time>2026-03-28T09:11:41Z</time></trkpt><trkpt lat="40.716073570913736" lon="9.327643918578412"><ele>534.0</ele><time>2026-03-28T09:11:42Z</time></trkpt><trkpt lat="40.715983396385056" lon="9.327582933860883"><ele>536.5</ele><time>2026-03-28T09:11:43Z</time></trkpt><trkpt lat="40.715902203612224" lon="9.327527657749975"><ele>539.0</ele><time>2026-03-28T09:11:44Z</time></trkpt><trkpt lat="40.715834375049155" lon="9.32747140733931"><ele>541.5</ele><time>2026-03-28T09:11:45Z</time></trkpt><trkpt lat="40.715773138294104" lon="9.327413634408309"><ele>544.0</ele><time>2026-03-28T09:11:46Z</time></trkpt><trkpt lat="40.71571976407535" lon="9.327351393643124"><ele>546.5</ele><time>2026-03-28T09:11:47Z</time></trkpt><trkpt lat="40.71565682744772" lon="9.32730862203622"><ele>549.0</ele><time>2026-03-28T09:11:48Z</time></trkpt><trkpt lat="40.71559282235346" lon="9.327292562244049"><ele>549.0</ele><time>2026-03-28T09:11:49Z</time></trkpt><trkpt lat="40.715523870926305" lon="9.327273645545059"><ele>549.0</ele><time>2026-03-28T09:11:50Z</time></trkpt><trkpt lat="40.71545344578645" lon="9.327243144206804"><ele>549.0</ele><time>2026-03-28T09:11:51Z</time></trkpt><trkpt lat="40.715375459397094" lon="9.32719381481702"><ele>549.0</ele><time>2026-03-28T09:11:52Z</time></trkpt><trkpt lat="40.71528579485364" lon="9.327135748806276"><ele>549.0</ele><time>2026-03-28T09:11:53Z</time></trkpt><trkpt lat="40.715212298598466" lon="9.327096404818759"><ele>549.0</ele><time>2026-03-28T09:11:54Z</time></trkpt><trkpt lat="40.71515348677175" lon="9.327050650898524"><ele>550.1428571428571</ele><time>2026-03-28T09:11:55Z</time></trkpt><trkpt lat="40.715114089036035" lon="9.326977987638056"><ele>551.2857142857143</ele><time>2026-03-28T09:11:56Z</time></trkpt><trkpt lat="40.71510397389514" lon="9.326894328350814"><ele>552.4285714285714</ele><time>2026-03-28T09:11:57Z</time></trkpt><trkpt lat="40.71512087238873" lon="9.326801326703057"><ele>553.5714285714286</ele><time>2026-03-28T09:11:58Z</time></trkpt><trkpt lat="40.71515047809042" lon="9.326684830239873"><ele>554.7142857142857</ele><time>2026-03-28T09:11:59Z</time></trkpt><trkpt lat="40.71516761034414" lon="9.326596560170909"><ele>555.8571428571429</ele><time>2026-03-28T09:12:00Z</time></trkpt><trkpt lat="40.715153287843286" lon="9.326501637632472"><ele>557.0</ele><time>2026-03-28T09:12:01Z</time></trkpt><trkpt lat="40.71512093789104" lon="9.326408151975974"><ele>556.5</ele><time>2026-03-28T09:12:02Z</time></trkpt><trkpt lat="40.71507414559909" lon="9.32630661771839"><ele>556.0</ele><time>2026-03-28T09:12:03Z</time></trkpt><trkpt lat="40.71500036399631" lon="9.326199110308442"><ele>555.5</ele><time>2026-03-28T09:12:04Z</time></trkpt><trkpt lat="40.714942884381294" lon="9.326115695677833"><ele>555.0</ele><time>2026-03-28T09:12:05Z</time></trkpt><trkpt lat="40.71489046050464" lon="9.326064733132485"><ele>554.5</ele><time>2026-03-28T09:12:06Z</time></trkpt><trkpt lat="40.71480496293008" lon="9.32602489920786"><ele>554.0</ele><time>2026-03-28T09:12:07Z</time></trkpt><trkpt lat="40.7147067723008" lon="9.325999173908034"><ele>554.0</ele><time>2026-03-28T09:12:08Z</time></trkpt><trkpt lat="40.71463097757066" lon="9.325978884423002"><ele>554.0</ele><time>2026-03-28T09:12:09Z</time></trkpt><trkpt lat="40.71453729359953" lon="9.325904853981987"><ele>554.0</ele><time>2026-03-28T09:12:11Z</time></trkpt><trkpt lat="40.714462613071106" lon="9.325876013318789"><ele>554.0</ele><time>2026-03-28T09:12:12Z</time></trkpt><trkpt lat="40.71438241377337" lon="9.32581184970867"><ele>554.0</ele><time>2026-03-28T09:12:13Z</time></trkpt><trkpt lat="40.71430606991368" lon="9.325732262093103"><ele>552.8</ele><time>2026-03-28T09:12:14Z</time></trkpt><trkpt lat="40.71423665400532" lon="9.325643973387507"><ele>551.5999999999999</ele><time>2026-03-28T09:12:15Z</time></trkpt><trkpt lat="40.71415592316043" lon="9.325543379843756"><ele>550.4</ele><time>2026-03-28T09:12:16Z</time></trkpt><trkpt lat="40.7140822280636" lon="9.3254528332027"><ele>549.1999999999999</ele><time>2026-03-28T09:12:17Z</time></trkpt><trkpt lat="40.71402428325908" lon="9.325379658347066"><ele>548.0</ele><time>2026-03-28T09:12:18Z</time></trkpt><trkpt lat="40.71395701584231" lon="9.325292173198909"><ele>548.0</ele><time>2026-03-28T09:12:19Z</time></trkpt><trkpt lat="40.71389438934371" lon="9.325204826274698"><ele>548.0</ele><time>2026-03-28T09:12:20Z</time></trkpt><trkpt lat="40.7138489585276" lon="9.325120997286469"><ele>548.0</ele><time>2026-03-28T09:12:21Z</time></trkpt><trkpt lat="40.71379610324088" lon="9.325015857541024"><ele>548.0</ele><time>2026-03-28T09:12:22Z</time></trkpt><trkpt lat="40.71375145270812" lon="9.324887442615537"><ele>548.0</ele><time>2026-03-28T09:12:23Z</time></trkpt><trkpt lat="40.713715425783526" lon="9.324779757476849"><ele>549.0</ele><time>2026-03-28T09:12:24Z</time></trkpt><trkpt lat="40.713668849580564" lon="9.32467381132614"><ele>550.0</ele><time>2026-03-28T09:12:25Z</time></trkpt><trkpt lat="40.71359570288562" lon="9.324549911939648"><ele>551.0</ele><time>2026-03-28T09:12:26Z</time></trkpt><trkpt lat="40.7135094186928" lon="9.324427794857568"><ele>552.0</ele><time>2026-03-28T09:12:27Z</time></trkpt><trkpt lat="40.71342607028587" lon="9.324329775002893"><ele>553.5</ele><time>2026-03-28T09:12:28Z</time></trkpt><trkpt lat="40.713353610156666" lon="9.324206137750066"><ele>555.0</ele><time>2026-03-28T09:12:29Z</time></trkpt><trkpt lat="40.7132760191956" lon="9.324072129811523"><ele>556.5</ele><time>2026-03-28T09:12:30Z</time></trkpt><trkpt lat="40.71318153243921" lon="9.32394517727866"><ele>558.0</ele><time>2026-03-28T09:12:31Z</time></trkpt><trkpt lat="40.713062483667485" lon="9.323831647624262"><ele>558.1999999999999</ele><time>2026-03-28T09:12:32Z</time></trkpt><trkpt lat="40.712969608605235" lon="9.323744618933372"><ele>558.4</ele><time>2026-03-28T09:12:33Z</time></trkpt><trkpt lat="40.71290148888299" lon="9.323665073032219"><ele>558.5999999999999</ele><time>2026-03-28T09:12:34Z</time></trkpt><trkpt lat="40.712852291671524" lon="9.323570100631276"><ele>558.8</ele><time>2026-03-28T09:12:35Z</time></trkpt><trkpt lat="40.712807953664814" lon="9.323428589836281"><ele>559.0</ele><time>2026-03-28T09:12:36Z</time></trkpt><trkpt lat="40.712742715377644" lon="9.323293095965383"><ele>559.75</ele><time>2026-03-28T09:12:37Z</time></trkpt><trkpt lat="40.71267381762809" lon="9.323191909670003"><ele>560.5</ele><time>2026-03-28T09:12:38Z</time></trkpt><trkpt lat="40.712605535238716" lon="9.323091708209219"><ele>561.25</ele><time>2026-03-28T09:12:39Z</time></trkpt><trkpt lat="40.71250692708098" lon="9.322965609356864"><ele>562.0</ele><time>2026-03-28T09:12:40Z</time></trkpt><trkpt lat="40.71242706017719" lon="9.322852354365189"><ele>562.0</ele><time>2026-03-28T09:12:41Z</time></trkpt><trkpt lat="40.71233478080787" lon="9.322743406266499"><ele>562.0</ele><time>2026-03-28T09:12:42Z</time></trkpt><trkpt lat="40.71222900054979" lon="9.322655270296442"><ele>562.0</ele><time>2026-03-28T09:12:43Z</time></trkpt><trkpt lat="40.712131124109334" lon="9.322565249325192"><ele>562.0</ele><time>2026-03-28T09:12:44Z</time></trkpt><trkpt lat="40.71203398035053" lon="9.322490019730802"><ele>562.0</ele><time>2026-03-28T09:12:45Z</time></trkpt><trkpt lat="40.71193083667937" lon="9.322436867135936"><ele>562.0</ele><time>2026-03-28T09:12:46Z</time></trkpt><trkpt lat="40.71180807827049" lon="9.322379486091522"><ele>562.0</ele><time>2026-03-28T09:12:47Z</time></trkpt><trkpt lat="40.71168914853411" lon="9.322329710268324"><ele>562.0</ele><time>2026-03-28T09:12:48Z</time></trkpt><trkpt lat="40.711571372604396" lon="9.322299997091838"><ele>563.4</ele><time>2026-03-28T09:12:49Z</time></trkpt><trkpt lat="40.711452344634054" lon="9.32226261927076"><ele>564.8000000000001</ele><time>2026-03-28T09:12:50Z</time></trkpt><trkpt lat="40.711367002129975" lon="9.322248953438898"><ele>566.2</ele><time>2026-03-28T09:12:51Z</time></trkpt><trkpt lat="40.7112721939456" lon="9.322181203200556"><ele>567.6</ele><time>2026-03-28T09:12:53Z</time></trkpt><trkpt lat="40.711252380442915" lon="9.322020906016062"><ele>569.0</ele><time>2026-03-28T09:12:55Z</time></trkpt><trkpt lat="40.71117762577399" lon="9.321926450581127"><ele>569.8</ele><time>2026-03-28T09:12:57Z</time></trkpt><trkpt lat="40.71111052659908" lon="9.321936021479184"><ele>570.5999999999999</ele><time>2026-03-28T09:12:58Z</time></trkpt><trkpt lat="40.71101059030559" lon="9.321935167217847"><ele>571.4</ele><time>2026-03-28T09:12:59Z</time></trkpt><trkpt lat="40.71089152420157" lon="9.32192865680022"><ele>572.1999999999999</ele><time>2026-03-28T09:13:00Z</time></trkpt><trkpt lat="40.71079862681872" lon="9.321923008284053"><ele>573.0</ele><time>2026-03-28T09:13:01Z</time></trkpt><trkpt lat="40.71071696485125" lon="9.32190408276979"><ele>574.1999999999999</ele><time>2026-03-28T09:13:02Z</time></trkpt><trkpt lat="40.71066972367012" lon="9.321797507970587"><ele>575.4</ele><time>2026-03-28T09:13:04Z</time></trkpt><trkpt lat="40.71075224626577" lon="9.321712509488865"><ele>576.5999999999999</ele><time>2026-03-28T09:13:06Z</time></trkpt><trkpt lat="40.710834308795114" lon="9.321697542290845"><ele>577.8</ele><time>2026-03-28T09:13:07Z</time></trkpt><trkpt lat="40.71093194803607" lon="9.321665546866118"><ele>579.0</ele><time>2026-03-28T09:13:08Z</time></trkpt><trkpt lat="40.71102851573309" lon="9.321600661942506"><ele>577.5</ele><time>2026-03-28T09:13:09Z</time></trkpt><trkpt lat="40.71116205372576" lon="9.321531885907746"><ele>576.0</ele><time>2026-03-28T09:13:10Z</time></trkpt><trkpt lat="40.711288005686285" lon="9.321459956863498"><ele>574.5</ele><time>2026-03-28T09:13:11Z</time></trkpt><trkpt lat="40.711410440020344" lon="9.321374414767018"><ele>573.0</ele><time>2026-03-28T09:13:12Z</time></trkpt><trkpt lat="40.71151956869083" lon="9.321311116651858"><ele>580.5</ele><time>2026-03-28T09:13:13Z</time></trkpt><trkpt lat="40.711604674759556" lon="9.321253450780652"><ele>588.0</ele><time>2026-03-28T09:13:14Z</time></trkpt><trkpt lat="40.711721430817846" lon="9.321218753442663"><ele>595.5</ele><time>2026-03-28T09:13:15Z</time></trkpt><trkpt lat="40.71184306788911" lon="9.321203853697526"><ele>603.0</ele><time>2026-03-28T09:13:16Z</time></trkpt><trkpt lat="40.711958263107306" lon="9.321182103903038"><ele>603.0</ele><time>2026-03-28T09:13:17Z</time></trkpt><trkpt lat="40.712023703854186" lon="9.321191604364666"><ele>603.0</ele><time>2026-03-28T09:13:18Z</time></trkpt><trkpt lat="40.71206540804456" lon="9.321110335402127"><ele>603.0</ele><time>2026-03-28T09:13:21Z</time></trkpt><trkpt lat="40.71195241302043" lon="9.321043403324664"><ele>603.0</ele><time>2026-03-28T09:13:23Z</time></trkpt><trkpt lat="40.711857566811695" lon="9.321033228689679"><ele>603.0</ele><time>2026-03-28T09:13:24Z</time></trkpt><trkpt lat="40.71178259741916" lon="9.320998260540295"><ele>603.0</ele><time>2026-03-28T09:13:25Z</time></trkpt><trkpt lat="40.71169871075393" lon="9.32093064249227"><ele>603.0</ele><time>2026-03-28T09:13:26Z</time></trkpt><trkpt lat="40.711603062389855" lon="9.32085520181592"><ele>603.0</ele><time>2026-03-28T09:13:27Z</time></trkpt><trkpt lat="40.711499575092986" lon="9.320794190594308"><ele>603.0</ele><time>2026-03-28T09:13:28Z</time></trkpt><trkpt lat="40.71138330681983" lon="9.320767212929544"><ele>603.0</ele><time>2026-03-28T09:13:29Z</time></trkpt><trkpt lat="40.71126305123568" lon="9.320728771998606"><ele>603.0</ele><time>2026-03-28T09:13:30Z</time></trkpt><trkpt lat="40.711154621852415" lon="9.320681466492037"><ele>603.0</ele><time>2026-03-28T09:13:31Z</time></trkpt><trkpt lat="40.71104820440465" lon="9.320604490067195"><ele>603.0</ele><time>2026-03-28T09:13:32Z</time></trkpt><trkpt lat="40.710920714367575" lon="9.32051999139559"><ele>603.0</ele><time>2026-03-28T09:13:33Z</time></trkpt><trkpt lat="40.71080729112079" lon="9.320429469148845"><ele>609.0</ele><time>2026-03-28T09:13:34Z</time></trkpt><trkpt lat="40.7107056800748" lon="9.320319561245842"><ele>615.0</ele><time>2026-03-28T09:13:35Z</time></trkpt><trkpt lat="40.71062291299897" lon="9.320197030529886"><ele>621.0</ele><time>2026-03-28T09:13:36Z</time></trkpt><trkpt lat="40.71053606037398" lon="9.320082467625724"><ele>627.0</ele><time>2026-03-28T09:13:37Z</time></trkpt><trkpt lat="40.71043864361919" lon="9.319970985748704"><ele>627.0</ele><time>2026-03-28T09:13:38Z</time></trkpt><trkpt lat="40.71035516149209" lon="9.319849943681815"><ele>627.0</ele><time>2026-03-28T09:13:39Z</time></trkpt><trkpt lat="40.710279873756214" lon="9.319711402122316"><ele>627.0</ele><time>2026-03-28T09:13:40Z</time></trkpt><trkpt lat="40.710195431426065" lon="9.319558487169898"><ele>627.0</ele><time>2026-03-28T09:13:41Z</time></trkpt><trkpt lat="40.71010599505698" lon="9.319415808790767"><ele>630.75</ele><time>2026-03-28T09:13:42Z</time></trkpt><trkpt lat="40.710025406773674" lon="9.31931435247981"><ele>634.5</ele><time>2026-03-28T09:13:43Z</time></trkpt><trkpt lat="40.709934101234445" lon="9.319239276473663"><ele>638.25</ele><time>2026-03-28T09:13:44Z</time></trkpt><trkpt lat="40.70982541032346" lon="9.319191808428531"><ele>642.0</ele><time>2026-03-28T09:13:45Z</time></trkpt><trkpt lat="40.709700950156375" lon="9.319169511745415"><ele>642.0</ele><time>2026-03-28T09:13:46Z</time></trkpt><trkpt lat="40.709561998032335" lon="9.31915597877976"><ele>642.0</ele><time>2026-03-28T09:13:47Z</time></trkpt><trkpt lat="40.709421479237264" lon="9.319130680803486"><ele>642.0</ele><time>2026-03-28T09:13:48Z</time></trkpt><trkpt lat="40.70930311325062" lon="9.31911214786571"><ele>642.0</ele><time>2026-03-28T09:13:49Z</time></trkpt><trkpt lat="40.709173735014275" lon="9.319080497380359"><ele>643.75</ele><time>2026-03-28T09:13:50Z</time></trkpt><trkpt lat="40.70903738428649" lon="9.319055691097137"><ele>645.5</ele><time>2026-03-28T09:13:51Z</time></trkpt><trkpt lat="40.708918064654995" lon="9.319040780334614"><ele>647.25</ele><time>2026-03-28T09:13:52Z</time></trkpt><trkpt lat="40.708805616057816" lon="9.319023572316262"><ele>649.0</ele><time>2026-03-28T09:13:53Z</time></trkpt><trkpt lat="40.708714115773056" lon="9.318998495735089"><ele>649.0</ele><time>2026-03-28T09:13:54Z</time></trkpt><trkpt lat="40.7086257047991" lon="9.318956720711824"><ele>649.0</ele><time>2026-03-28T09:13:55Z</time></trkpt><trkpt lat="40.708523450947204" lon="9.318888944250924"><ele>649.0</ele><time>2026-03-28T09:13:56Z</time></trkpt><trkpt lat="40.708411558138536" lon="9.318792347243765"><ele>649.0</ele><time>2026-03-28T09:13:57Z</time></trkpt><trkpt lat="40.708331936468134" lon="9.31868806362158"><ele>652.4000000000001</ele><time>2026-03-28T09:13:58Z</time></trkpt><trkpt lat="40.70827111368115" lon="9.31857796540495"><ele>655.8</ele><time>2026-03-28T09:13:59Z</time></trkpt><trkpt lat="40.70822964188062" lon="9.318455048873416"><ele>659.2</ele><time>2026-03-28T09:14:00Z</time></trkpt><trkpt lat="40.70820161964256" lon="9.318327537656327"><ele>662.5999999999999</ele><time>2026-03-28T09:14:01Z</time></trkpt><trkpt lat="40.70819920558421" lon="9.318204526092531"><ele>666.0</ele><time>2026-03-28T09:14:02Z</time></trkpt><trkpt lat="40.708206863689384" lon="9.318038873473865"><ele>670.1999999999999</ele><time>2026-03-28T09:14:03Z</time></trkpt><trkpt lat="40.70820876618999" lon="9.3178771076623"><ele>674.4</ele><time>2026-03-28T09:14:04Z</time></trkpt><trkpt lat="40.708183396103706" lon="9.31777248914496"><ele>678.6</ele><time>2026-03-28T09:14:05Z</time></trkpt><trkpt lat="40.708129443408595" lon="9.31767330548268"><ele>682.8</ele><time>2026-03-28T09:14:06Z</time></trkpt><trkpt lat="40.70806439219671" lon="9.317606758606185"><ele>687.0</ele><time>2026-03-28T09:14:07Z</time></trkpt><trkpt lat="40.707996833028105" lon="9.317563655938283"><ele>687.0</ele><time>2026-03-28T09:14:08Z</time></trkpt><trkpt lat="40.70789785200121" lon="9.317523884781641"><ele>687.0</ele><time>2026-03-28T09:14:09Z</time></trkpt><trkpt lat="40.707820747525886" lon="9.317472918182403"><ele>687.0</ele><time>2026-03-28T09:14:10Z</time></trkpt><trkpt lat="40.707826393488844" lon="9.317376646721668"><ele>687.0</ele><time>2026-03-28T09:14:13Z</time></trkpt><trkpt lat="40.70794649629454" lon="9.317378991772745"><ele>687.0</ele><time>2026-03-28T09:14:15Z</time></trkpt><trkpt lat="40.708049799268814" lon="9.317428294614814"><ele>687.0</ele><time>2026-03-28T09:14:16Z</time></trkpt><trkpt lat="40.70817037462238" lon="9.31746193240321"><ele>687.0</ele><time>2026-03-28T09:14:17Z</time></trkpt><trkpt lat="40.708313235101414" lon="9.31749631899509"><ele>687.0</ele><time>2026-03-28T09:14:18Z</time></trkpt><trkpt lat="40.70846565558435" lon="9.317525874457482"><ele>687.0</ele><time>2026-03-28T09:14:19Z</time></trkpt><trkpt lat="40.70864308733616" lon="9.317559089865503"><ele>691.25</ele><time>2026-03-28T09:14:20Z</time></trkpt><trkpt lat="40.70880064890602" lon="9.317598816308616"><ele>695.5</ele><time>2026-03-28T09:14:21Z</time></trkpt><trkpt lat="40.708934001481914" lon="9.317644199740268"><ele>699.75</ele><time>2026-03-28T09:14:22Z</time></trkpt><trkpt lat="40.709036503494815" lon="9.31769184149287"><ele>704.0</ele><time>2026-03-28T09:14:23Z</time></trkpt><trkpt lat="40.709131637782676" lon="9.317733855549461"><ele>704.0</ele><time>2026-03-28T09:14:24Z</time></trkpt><trkpt lat="40.70920391994051" lon="9.317755349911993"><ele>704.0</ele><time>2026-03-28T09:14:25Z</time></trkpt><trkpt lat="40.70925817691897" lon="9.317693761436976"><ele>704.0</ele><time>2026-03-28T09:14:27Z</time></trkpt><trkpt lat="40.709204861966775" lon="9.317580342606277"><ele>704.0</ele><time>2026-03-28T09:14:29Z</time></trkpt><trkpt lat="40.70913506508838" lon="9.31755673338898"><ele>704.0</ele><time>2026-03-28T09:14:30Z</time></trkpt><trkpt lat="40.70904634080046" lon="9.317511274180715"><ele>704.0</ele><time>2026-03-28T09:14:31Z</time></trkpt><trkpt lat="40.70895106568824" lon="9.317423857126402"><ele>704.0</ele><time>2026-03-28T09:14:32Z</time></trkpt><trkpt lat="40.708855025827845" lon="9.317299134970277"><ele>704.0</ele><time>2026-03-28T09:14:33Z</time></trkpt><trkpt lat="40.708783219370254" lon="9.31716042522514"><ele>704.0</ele><time>2026-03-28T09:14:34Z</time></trkpt><trkpt lat="40.708720453115845" lon="9.316995980389319"><ele>704.0</ele><time>2026-03-28T09:14:35Z</time></trkpt><trkpt lat="40.708668782774744" lon="9.316819771443782"><ele>705.4000000000001</ele><time>2026-03-28T09:14:36Z</time></trkpt><trkpt lat="40.70861690840894" lon="9.316665461905396"><ele>706.8</ele><time>2026-03-28T09:14:37Z</time></trkpt><trkpt lat="40.70856218833506" lon="9.316546259806682"><ele>708.2</ele><time>2026-03-28T09:14:38Z</time></trkpt><trkpt lat="40.70852500695837" lon="9.31641554490313"><ele>709.5999999999999</ele><time>2026-03-28T09:14:39Z</time></trkpt><trkpt lat="40.70850927834619" lon="9.316312360937072"><ele>711.0</ele><time>2026-03-28T09:14:40Z</time></trkpt><trkpt lat="40.70852514447106" lon="9.31620787170965"><ele>714.3333333333334</ele><time>2026-03-28T09:14:41Z</time></trkpt><trkpt lat="40.708564274120015" lon="9.316102250898183"><ele>717.6666666666666</ele><time>2026-03-28T09:14:42Z</time></trkpt><trkpt lat="40.70862697470415" lon="9.315997528589772"><ele>721.0</ele><time>2026-03-28T09:14:43Z</time></trkpt><trkpt lat="40.708695319967546" lon="9.315912508367479"><ele>724.3333333333333</ele><time>2026-03-28T09:14:44Z</time></trkpt><trkpt lat="40.708746793794305" lon="9.315848838209401"><ele>727.6666666666666</ele><time>2026-03-28T09:14:45Z</time></trkpt><trkpt lat="40.70882619260036" lon="9.315806765450954"><ele>731.0</ele><time>2026-03-28T09:14:46Z</time></trkpt><trkpt lat="40.7089157444431" lon="9.315815709618"><ele>731.0</ele><time>2026-03-28T09:14:47Z</time></trkpt><trkpt lat="40.70901578184074" lon="9.315854980789057"><ele>731.0</ele><time>2026-03-28T09:14:48Z</time></trkpt><trkpt lat="40.70911664380042" lon="9.315906336786727"><ele>731.0</ele><time>2026-03-28T09:14:49Z</time></trkpt><trkpt lat="40.70917955711837" lon="9.315896627450229"><ele>731.0</ele><time>2026-03-28T09:14:50Z</time></trkpt><trkpt lat="40.70925263124727" lon="9.315765354037435"><ele>731.0</ele><time>2026-03-28T09:14:52Z</time></trkpt><trkpt lat="40.70926797096109" lon="9.315652228375585"><ele>733.4</ele><time>2026-03-28T09:14:53Z</time></trkpt><trkpt lat="40.709279179346474" lon="9.315526123982764"><ele>735.8</ele><time>2026-03-28T09:14:54Z</time></trkpt><trkpt lat="40.709269946671256" lon="9.315394216935541"><ele>738.1999999999999</ele><time>2026-03-28T09:14:55Z</time></trkpt><trkpt lat="40.70922815149753" lon="9.31531020780579"><ele>740.5999999999999</ele><time>2026-03-28T09:14:56Z</time></trkpt><trkpt lat="40.709153532130244" lon="9.31522050761815"><ele>743.0</ele><time>2026-03-28T09:14:57Z</time></trkpt><trkpt lat="40.70905520801275" lon="9.315101607063403"><ele>743.0</ele><time>2026-03-28T09:14:58Z</time></trkpt><trkpt lat="40.70895396508906" lon="9.314969094491177"><ele>743.0</ele><time>2026-03-28T09:14:59Z</time></trkpt><trkpt lat="40.70889117114933" lon="9.314870266813601"><ele>743.0</ele><time>2026-03-28T09:15:00Z</time></trkpt><trkpt lat="40.70887192477417" lon="9.314785690918303"><ele>743.0</ele><time>2026-03-28T09:15:01Z</time></trkpt><trkpt lat="40.70887825047092" lon="9.314684458190037"><ele>743.0</ele><time>2026-03-28T09:15:02Z</time></trkpt><trkpt lat="40.70891947237121" lon="9.314544429567384"><ele>743.0</ele><time>2026-03-28T09:15:03Z</time></trkpt><trkpt lat="40.70898013068734" lon="9.314387622126784"><ele>743.0</ele><time>2026-03-28T09:15:04Z</time></trkpt><trkpt lat="40.70902368203913" lon="9.314230241481113"><ele>743.0</ele><time>2026-03-28T09:15:05Z</time></trkpt><trkpt lat="40.70905200770849" lon="9.314028685431511"><ele>743.0</ele><time>2026-03-28T09:15:06Z</time></trkpt><trkpt lat="40.70906378310536" lon="9.313851701707172"><ele>741.5</ele><time>2026-03-28T09:15:07Z</time></trkpt><trkpt lat="40.70908543855387" lon="9.313726294081464"><ele>740.0</ele><time>2026-03-28T09:15:08Z</time></trkpt><trkpt lat="40.70910157830621" lon="9.313617286083108"><ele>738.5</ele><time>2026-03-28T09:15:09Z</time></trkpt><trkpt lat="40.709086820504204" lon="9.313534224341735"><ele>737.0</ele><time>2026-03-28T09:15:10Z</time></trkpt><trkpt lat="40.70903378180197" lon="9.31346175973427"><ele>735.5</ele><time>2026-03-28T09:15:11Z</time></trkpt><trkpt lat="40.70896032609426" lon="9.313403681121954"><ele>734.0</ele><time>2026-03-28T09:15:12Z</time></trkpt><trkpt lat="40.708885427283114" lon="9.313310497870846"><ele>734.0</ele><time>2026-03-28T09:15:13Z</time></trkpt><trkpt lat="40.70877681010109" lon="9.313160870527028"><ele>734.0</ele><time>2026-03-28T09:15:14Z</time></trkpt><trkpt lat="40.70868756219751" lon="9.313040764774884"><ele>734.0</ele><time>2026-03-28T09:15:15Z</time></trkpt><trkpt lat="40.70859468902547" lon="9.312937745501612"><ele>734.0</ele><time>2026-03-28T09:15:16Z</time></trkpt><trkpt lat="40.7085013052844" lon="9.31279556540867"><ele>733.6666666666666</ele><time>2026-03-28T09:15:17Z</time></trkpt><trkpt lat="40.70841127642016" lon="9.312624493004199"><ele>733.3333333333334</ele><time>2026-03-28T09:15:18Z</time></trkpt><trkpt lat="40.70830442873353" lon="9.312414669125346"><ele>733.0</ele><time>2026-03-28T09:15:19Z</time></trkpt><trkpt lat="40.70821849669218" lon="9.312230499202656"><ele>728.6666666666667</ele><time>2026-03-28T09:15:20Z</time></trkpt><trkpt lat="40.70811795317115" lon="9.312029735221241"><ele>724.3333333333334</ele><time>2026-03-28T09:15:21Z</time></trkpt><trkpt lat="40.70802135187957" lon="9.311849592487073"><ele>720.0</ele><time>2026-03-28T09:15:22Z</time></trkpt><trkpt lat="40.70791884364205" lon="9.311646440097656"><ele>720.0</ele><time>2026-03-28T09:15:23Z</time></trkpt><trkpt lat="40.7078324986691" lon="9.311460630019278"><ele>720.0</ele><time>2026-03-28T09:15:24Z</time></trkpt><trkpt lat="40.70772989893393" lon="9.311276081414741"><ele>720.0</ele><time>2026-03-28T09:15:25Z</time></trkpt><trkpt lat="40.707634136689315" lon="9.311094447139213"><ele>721.3333333333334</ele><time>2026-03-28T09:15:26Z</time></trkpt><trkpt lat="40.707527327190164" lon="9.31088107806741"><ele>722.6666666666667</ele><time>2026-03-28T09:15:27Z</time></trkpt><trkpt lat="40.70743913333125" lon="9.310699221569731"><ele>724.0</ele><time>2026-03-28T09:15:28Z</time></trkpt><trkpt lat="40.70736179858452" lon="9.31052781201281"><ele>721.75</ele><time>2026-03-28T09:15:29Z</time></trkpt><trkpt lat="40.707292598501546" lon="9.31036521252233"><ele>719.5</ele><time>2026-03-28T09:15:30Z</time></trkpt><trkpt lat="40.707230804315586" lon="9.310200410812461"><ele>717.25</ele><time>2026-03-28T09:15:31Z</time></trkpt><trkpt lat="40.70717587015709" lon="9.310049452542335"><ele>715.0</ele><time>2026-03-28T09:15:32Z</time></trkpt><trkpt lat="40.70712483080821" lon="9.309920786517722"><ele>715.0</ele><time>2026-03-28T09:15:33Z</time></trkpt><trkpt lat="40.70706760952787" lon="9.309809802124922"><ele>715.0</ele><time>2026-03-28T09:15:34Z</time></trkpt><trkpt lat="40.7069689164758" lon="9.30966834267524"><ele>715.0</ele><time>2026-03-28T09:15:35Z</time></trkpt><trkpt lat="40.70687107343109" lon="9.309530725419759"><ele>715.0</ele><time>2026-03-28T09:15:36Z</time></trkpt><trkpt lat="40.70678999976854" lon="9.309405215224334"><ele>718.25</ele><time>2026-03-28T09:15:37Z</time></trkpt><trkpt lat="40.706711225871246" lon="9.309318660582687"><ele>721.5</ele><time>2026-03-28T09:15:38Z</time></trkpt><trkpt lat="40.70659994897727" lon="9.309248005212487"><ele>724.75</ele><time>2026-03-28T09:15:39Z</time></trkpt><trkpt lat="40.706478278211314" lon="9.309113387957218"><ele>728.0</ele><time>2026-03-28T09:15:40Z</time></trkpt><trkpt lat="40.7063516999531" lon="9.308983533595441"><ele>728.0</ele><time>2026-03-28T09:15:41Z</time></trkpt><trkpt lat="40.70623410263641" lon="9.308873707152145"><ele>728.0</ele><time>2026-03-28T09:15:42Z</time></trkpt><trkpt lat="40.70611558101125" lon="9.308763556872169"><ele>728.0</ele><time>2026-03-28T09:15:43Z</time></trkpt><trkpt lat="40.70600224747211" lon="9.30866593816415"><ele>728.0</ele><time>2026-03-28T09:15:44Z</time></trkpt><trkpt lat="40.70584868114699" lon="9.30856765057629"><ele>728.0</ele><time>2026-03-28T09:15:45Z</time></trkpt><trkpt lat="40.705698156336574" lon="9.308487228027245"><ele>728.0</ele><time>2026-03-28T09:15:46Z</time></trkpt><trkpt lat="40.705566180171495" lon="9.308419481321026"><ele>728.0</ele><time>2026-03-28T09:15:47Z</time></trkpt><trkpt lat="40.70543654848957" lon="9.308371992875484"><ele>728.0</ele><time>2026-03-28T09:15:48Z</time></trkpt><trkpt lat="40.705315291049246" lon="9.30832192956943"><ele>732.0</ele><time>2026-03-28T09:15:49Z</time></trkpt><trkpt lat="40.70520502246818" lon="9.308254626227876"><ele>736.0</ele><time>2026-03-28T09:15:50Z</time></trkpt><trkpt lat="40.70511517729332" lon="9.308195126581024"><ele>740.0</ele><time>2026-03-28T09:15:51Z</time></trkpt><trkpt lat="40.70503050286283" lon="9.308166105547288"><ele>744.0</ele><time>2026-03-28T09:15:52Z</time></trkpt><trkpt lat="40.7049560986267" lon="9.308167110873054"><ele>748.0</ele><time>2026-03-28T09:15:53Z</time></trkpt><trkpt lat="40.704892275802024" lon="9.308087344495252"><ele>747.8</ele><time>2026-03-28T09:15:55Z</time></trkpt><trkpt lat="40.704887092217966" lon="9.307992897497689"><ele>747.5999999999999</ele><time>2026-03-28T09:15:56Z</time></trkpt><trkpt lat="40.70491585287974" lon="9.307883844878667"><ele>747.4000000000001</ele><time>2026-03-28T09:15:57Z</time></trkpt><trkpt lat="40.70495577988911" lon="9.30774010323991"><ele>747.2</ele><time>2026-03-28T09:15:58Z</time></trkpt><trkpt lat="40.70501467438936" lon="9.307631914143025"><ele>747.0</ele><time>2026-03-28T09:15:59Z</time></trkpt><trkpt lat="40.705104273378765" lon="9.30753484551614"><ele>747.0</ele><time>2026-03-28T09:16:00Z</time></trkpt><trkpt lat="40.70518278198802" lon="9.307421363919008"><ele>747.0</ele><time>2026-03-28T09:16:01Z</time></trkpt><trkpt lat="40.705221063768185" lon="9.307315786494167"><ele>747.0</ele><time>2026-03-28T09:16:02Z</time></trkpt><trkpt lat="40.70523769483268" lon="9.307215627559327"><ele>747.0</ele><time>2026-03-28T09:16:03Z</time></trkpt><trkpt lat="40.70522697785936" lon="9.307098781912922"><ele>747.0</ele><time>2026-03-28T09:16:04Z</time></trkpt><trkpt lat="40.705203275864186" lon="9.306940764968251"><ele>748.3333333333334</ele><time>2026-03-28T09:16:05Z</time></trkpt><trkpt lat="40.70516540248801" lon="9.306739622665289"><ele>749.6666666666667</ele><time>2026-03-28T09:16:06Z</time></trkpt><trkpt lat="40.70512678413455" lon="9.306498249728364"><ele>751.0</ele><time>2026-03-28T09:16:07Z</time></trkpt><trkpt lat="40.705108072220206" lon="9.306291366863293"><ele>751.0</ele><time>2026-03-28T09:16:08Z</time></trkpt><trkpt lat="40.70511129529076" lon="9.306129622835854"><ele>751.0</ele><time>2026-03-28T09:16:09Z</time></trkpt><trkpt lat="40.705094115225386" lon="9.305944293482993"><ele>751.0</ele><time>2026-03-28T09:16:10Z</time></trkpt><trkpt lat="40.7050665983982" lon="9.305760621881722"><ele>751.0</ele><time>2026-03-28T09:16:11Z</time></trkpt><trkpt lat="40.705062825397924" lon="9.30560570057622"><ele>750.0</ele><time>2026-03-28T09:16:12Z</time></trkpt><trkpt lat="40.70502201892266" lon="9.305437501946427"><ele>749.0</ele><time>2026-03-28T09:16:13Z</time></trkpt><trkpt lat="40.704948913753775" lon="9.305266310464871"><ele>748.0</ele><time>2026-03-28T09:16:14Z</time></trkpt><trkpt lat="40.7049063362216" lon="9.305121771764306"><ele>747.0</ele><time>2026-03-28T09:16:15Z</time></trkpt><trkpt lat="40.704842690282376" lon="9.304991939450236"><ele>747.0</ele><time>2026-03-28T09:16:16Z</time></trkpt><trkpt lat="40.70474600890299" lon="9.304827995918671"><ele>747.0</ele><time>2026-03-28T09:16:17Z</time></trkpt><trkpt lat="40.70466142541361" lon="9.3046615012635"><ele>747.0</ele><time>2026-03-28T09:16:18Z</time></trkpt><trkpt lat="40.70459357168382" lon="9.304514310823118"><ele>747.0</ele><time>2026-03-28T09:16:19Z</time></trkpt><trkpt lat="40.70452615512841" lon="9.304328336198756"><ele>745.75</ele><time>2026-03-28T09:16:20Z</time></trkpt><trkpt lat="40.7044561494738" lon="9.304175681836787"><ele>744.5</ele><time>2026-03-28T09:16:21Z</time></trkpt><trkpt lat="40.704391489325694" lon="9.304032253868064"><ele>743.25</ele><time>2026-03-28T09:16:22Z</time></trkpt><trkpt lat="40.70431957338553" lon="9.303913501602313"><ele>742.0</ele><time>2026-03-28T09:16:23Z</time></trkpt><trkpt lat="40.70426467684032" lon="9.303790254361889"><ele>746.6</ele><time>2026-03-28T09:16:24Z</time></trkpt><trkpt lat="40.704224448467755" lon="9.30365546342622"><ele>751.2</ele><time>2026-03-28T09:16:25Z</time></trkpt><trkpt lat="40.704180119545214" lon="9.303534701534009"><ele>755.8</ele><time>2026-03-28T09:16:26Z</time></trkpt><trkpt lat="40.70414771882522" lon="9.303437451991936"><ele>760.4</ele><time>2026-03-28T09:16:27Z</time></trkpt><trkpt lat="40.70415627112679" lon="9.303310338161454"><ele>765.0</ele><time>2026-03-28T09:16:29Z</time></trkpt><trkpt lat="40.70420580304013" lon="9.30325373435569"><ele>765.0</ele><time>2026-03-28T09:16:30Z</time></trkpt><trkpt lat="40.704280369058736" lon="9.303221331545188"><ele>765.0</ele><time>2026-03-28T09:16:31Z</time></trkpt><trkpt lat="40.70435735708454" lon="9.30320692731292"><ele>765.0</ele><time>2026-03-28T09:16:32Z</time></trkpt><trkpt lat="40.70443452783468" lon="9.303172486267398"><ele>765.0</ele><time>2026-03-28T09:16:33Z</time></trkpt><trkpt lat="40.70454762749703" lon="9.303132717120109"><ele>765.0</ele><time>2026-03-28T09:16:34Z</time></trkpt><trkpt lat="40.70469545064436" lon="9.303080054636945"><ele>770.25</ele><time>2026-03-28T09:16:35Z</time></trkpt><trkpt lat="40.704839079019465" lon="9.303044533478504"><ele>775.5</ele><time>2026-03-28T09:16:36Z</time></trkpt><trkpt lat="40.70495313492836" lon="9.302991305574555"><ele>780.75</ele><time>2026-03-28T09:16:37Z</time></trkpt><trkpt lat="40.70507883623759" lon="9.30296844795216"><ele>786.0</ele><time>2026-03-28T09:16:38Z</time></trkpt><trkpt lat="40.705211468959014" lon="9.302901387312676"><ele>782.5</ele><time>2026-03-28T09:16:39Z</time></trkpt><trkpt lat="40.705337334556134" lon="9.302862694988866"><ele>779.0</ele><time>2026-03-28T09:16:40Z</time></trkpt><trkpt lat="40.705454179855316" lon="9.302818213801741"><ele>775.5</ele><time>2026-03-28T09:16:41Z</time></trkpt><trkpt lat="40.705568818036085" lon="9.302766577468821"><ele>772.0</ele><time>2026-03-28T09:16:42Z</time></trkpt><trkpt lat="40.70566011795079" lon="9.30270815216701"><ele>772.0</ele><time>2026-03-28T09:16:43Z</time></trkpt><trkpt lat="40.705756997971534" lon="9.302654611903455"><ele>772.0</ele><time>2026-03-28T09:16:44Z</time></trkpt><trkpt lat="40.70585956513921" lon="9.302600440268156"><ele>772.0</ele><time>2026-03-28T09:16:45Z</time></trkpt><trkpt lat="40.7059581637022" lon="9.302493826806892"><ele>772.0</ele><time>2026-03-28T09:16:46Z</time></trkpt><trkpt lat="40.7060670874529" lon="9.302366930078428"><ele>774.25</ele><time>2026-03-28T09:16:47Z</time></trkpt><trkpt lat="40.7061955690126" lon="9.302242363708727"><ele>776.5</ele><time>2026-03-28T09:16:48Z</time></trkpt><trkpt lat="40.706299226046504" lon="9.302161233873921"><ele>778.75</ele><time>2026-03-28T09:16:49Z</time></trkpt><trkpt lat="40.706404849627816" lon="9.302101273198696"><ele>781.0</ele><time>2026-03-28T09:16:50Z</time></trkpt><trkpt lat="40.706535987736764" lon="9.302045753645434"><ele>781.0</ele><time>2026-03-28T09:16:51Z</time></trkpt><trkpt lat="40.70669310921429" lon="9.301986744548461"><ele>781.0</ele><time>2026-03-28T09:16:52Z</time></trkpt><trkpt lat="40.70687886037175" lon="9.301922530075535"><ele>781.0</ele><time>2026-03-28T09:16:53Z</time></trkpt><trkpt lat="40.70704910643594" lon="9.30187643958784"><ele>779.5</ele><time>2026-03-28T09:16:54Z</time></trkpt><trkpt lat="40.707185309960764" lon="9.301848283067432"><ele>778.0</ele><time>2026-03-28T09:16:55Z</time></trkpt><trkpt lat="40.70730073362757" lon="9.301806818580486"><ele>776.5</ele><time>2026-03-28T09:16:56Z</time></trkpt><trkpt lat="40.70741871871857" lon="9.301791543832275"><ele>775.0</ele><time>2026-03-28T09:16:57Z</time></trkpt><trkpt lat="40.7075740500081" lon="9.30175818083441"><ele>772.0</ele><time>2026-03-28T09:16:58Z</time></trkpt><trkpt lat="40.70775047125656" lon="9.301716699953062"><ele>769.0</ele><time>2026-03-28T09:16:59Z</time></trkpt><trkpt lat="40.70790940880837" lon="9.30169943656392"><ele>766.0</ele><time>2026-03-28T09:17:00Z</time></trkpt><trkpt lat="40.70806108137945" lon="9.301660830571764"><ele>766.0</ele><time>2026-03-28T09:17:01Z</time></trkpt><trkpt lat="40.70821555240415" lon="9.301611332340077"><ele>766.0</ele><time>2026-03-28T09:17:02Z</time></trkpt><trkpt lat="40.70836451346145" lon="9.301585568652133"><ele>766.0</ele><time>2026-03-28T09:17:03Z</time></trkpt><trkpt lat="40.708501848479294" lon="9.301569780958598"><ele>766.0</ele><time>2026-03-28T09:17:04Z</time></trkpt><trkpt lat="40.708629025875815" lon="9.30157643022393"><ele>766.0</ele><time>2026-03-28T09:17:05Z</time></trkpt><trkpt lat="40.70876620750645" lon="9.30164409888939"><ele>766.0</ele><time>2026-03-28T09:17:06Z</time></trkpt><trkpt lat="40.70890561026977" lon="9.301708868674849"><ele>766.0</ele><time>2026-03-28T09:17:07Z</time></trkpt><trkpt lat="40.709030896217385" lon="9.301736265590716"><ele>766.0</ele><time>2026-03-28T09:17:08Z</time></trkpt><trkpt lat="40.70914497379512" lon="9.3017607729283"><ele>766.0</ele><time>2026-03-28T09:17:09Z</time></trkpt><trkpt lat="40.70926156117048" lon="9.301762891698752"><ele>766.0</ele><time>2026-03-28T09:17:10Z</time></trkpt><trkpt lat="40.7093894512416" lon="9.301742839814994"><ele>766.0</ele><time>2026-03-28T09:17:11Z</time></trkpt><trkpt lat="40.709537749860324" lon="9.301711708958683"><ele>766.0</ele><time>2026-03-28T09:17:12Z</time></trkpt><trkpt lat="40.709697418058845" lon="9.301641405454204"><ele>765.5999999999999</ele><time>2026-03-28T09:17:13Z</time></trkpt><trkpt lat="40.70981964861871" lon="9.301580960837873"><ele>765.2</ele><time>2026-03-28T09:17:14Z</time></trkpt><trkpt lat="40.70992492076636" lon="9.301519200211958"><ele>764.8</ele><time>2026-03-28T09:17:15Z</time></trkpt><trkpt lat="40.71000184128511" lon="9.301459090108317"><ele>764.4000000000001</ele><time>2026-03-28T09:17:16Z</time></trkpt><trkpt lat="40.71007194270105" lon="9.301411347712982"><ele>764.0</ele><time>2026-03-28T09:17:17Z</time></trkpt><trkpt lat="40.71009862725644" lon="9.301278689173092"><ele>764.0</ele><time>2026-03-28T09:17:18Z</time></trkpt><trkpt lat="40.71014595013004" lon="9.301161539324559"><ele>764.0</ele><time>2026-03-28T09:17:19Z</time></trkpt><trkpt lat="40.71022209592854" lon="9.301027599652667"><ele>764.0</ele><time>2026-03-28T09:17:20Z</time></trkpt><trkpt lat="40.71032194710141" lon="9.300849004579797"><ele>764.0</ele><time>2026-03-28T09:17:21Z</time></trkpt><trkpt lat="40.710425616945635" lon="9.300667064843635"><ele>770.0</ele><time>2026-03-28T09:17:22Z</time></trkpt><trkpt lat="40.710539408440695" lon="9.300502779823821"><ele>776.0</ele><time>2026-03-28T09:17:23Z</time></trkpt><trkpt lat="40.710627019815675" lon="9.300359839691009"><ele>782.0</ele><time>2026-03-28T09:17:24Z</time></trkpt><trkpt lat="40.710725275175655" lon="9.300199668907796"><ele>782.0</ele><time>2026-03-28T09:17:25Z</time></trkpt><trkpt lat="40.71080100290418" lon="9.300050395079076"><ele>782.0</ele><time>2026-03-28T09:17:26Z</time></trkpt><trkpt lat="40.710868172882776" lon="9.299935636083237"><ele>782.0</ele><time>2026-03-28T09:17:27Z</time></trkpt><trkpt lat="40.71092083558262" lon="9.299835725511215"><ele>782.0</ele><time>2026-03-28T09:17:28Z</time></trkpt><trkpt lat="40.71095064398334" lon="9.299713011985167"><ele>782.0</ele><time>2026-03-28T09:17:29Z</time></trkpt><trkpt lat="40.71098673314691" lon="9.299574873775114"><ele>784.6</ele><time>2026-03-28T09:17:30Z</time></trkpt><trkpt lat="40.71099606843162" lon="9.299447963962518"><ele>787.2</ele><time>2026-03-28T09:17:31Z</time></trkpt><trkpt lat="40.71094809771819" lon="9.299350266938898"><ele>789.8</ele><time>2026-03-28T09:17:32Z</time></trkpt><trkpt lat="40.710904332062235" lon="9.299237969605775"><ele>792.4</ele><time>2026-03-28T09:17:33Z</time></trkpt><trkpt lat="40.71081718224407" lon="9.299126620848046"><ele>795.0</ele><time>2026-03-28T09:17:34Z</time></trkpt><trkpt lat="40.71072435811233" lon="9.299003146447046"><ele>800.0</ele><time>2026-03-28T09:17:35Z</time></trkpt><trkpt lat="40.71060650880758" lon="9.298847612219108"><ele>805.0</ele><time>2026-03-28T09:17:36Z</time></trkpt><trkpt lat="40.71047006593376" lon="9.298724296146423"><ele>810.0</ele><time>2026-03-28T09:17:37Z</time></trkpt><trkpt lat="40.710323907455" lon="9.298601369460913"><ele>811.0</ele><time>2026-03-28T09:17:38Z</time></trkpt><trkpt lat="40.71019406029357" lon="9.298456433924537"><ele>812.0</ele><time>2026-03-28T09:17:39Z</time></trkpt><trkpt lat="40.710068145004996" lon="9.2983014944192"><ele>813.0</ele><time>2026-03-28T09:17:40Z</time></trkpt><trkpt lat="40.70994923032124" lon="9.298185914812718"><ele>813.0</ele><time>2026-03-28T09:17:41Z</time></trkpt><trkpt lat="40.70982919688948" lon="9.298085175161523"><ele>813.0</ele><time>2026-03-28T09:17:42Z</time></trkpt><trkpt lat="40.70972268612305" lon="9.298007289458731"><ele>813.0</ele><time>2026-03-28T09:17:43Z</time></trkpt><trkpt lat="40.70963492852537" lon="9.29795565036323"><ele>813.0</ele><time>2026-03-28T09:17:44Z</time></trkpt><trkpt lat="40.70952745915718" lon="9.297913350537083"><ele>814.0</ele><time>2026-03-28T09:17:45Z</time></trkpt><trkpt lat="40.709395086808776" lon="9.297873910520215"><ele>815.0</ele><time>2026-03-28T09:17:46Z</time></trkpt><trkpt lat="40.70924653670656" lon="9.297848354507984"><ele>816.0</ele><time>2026-03-28T09:17:47Z</time></trkpt><trkpt lat="40.70909825853079" lon="9.297850852172292"><ele>817.0</ele><time>2026-03-28T09:17:48Z</time></trkpt><trkpt lat="40.70892449668296" lon="9.29784847804459"><ele>817.0</ele><time>2026-03-28T09:17:49Z</time></trkpt><trkpt lat="40.70873725441691" lon="9.297823963686321"><ele>817.0</ele><time>2026-03-28T09:17:50Z</time></trkpt><trkpt lat="40.70856606608857" lon="9.297789469323991"><ele>817.0</ele><time>2026-03-28T09:17:51Z</time></trkpt><trkpt lat="40.708422067976436" lon="9.297759772762538"><ele>820.5</ele><time>2026-03-28T09:17:52Z</time></trkpt><trkpt lat="40.7082864350121" lon="9.297742467383083"><ele>824.0</ele><time>2026-03-28T09:17:53Z</time></trkpt><trkpt lat="40.70813127029766" lon="9.2977381674573"><ele>827.5</ele><time>2026-03-28T09:17:54Z</time></trkpt><trkpt lat="40.70800866588997" lon="9.297775770916"><ele>831.0</ele><time>2026-03-28T09:17:55Z</time></trkpt><trkpt lat="40.70792096135606" lon="9.297799912104903"><ele>831.0</ele><time>2026-03-28T09:17:56Z</time></trkpt><trkpt lat="40.70782511996174" lon="9.297856167989316"><ele>831.0</ele><time>2026-03-28T09:17:57Z</time></trkpt><trkpt lat="40.70771220070518" lon="9.297945802944284"><ele>831.0</ele><time>2026-03-28T09:17:58Z</time></trkpt><trkpt lat="40.70760019326965" lon="9.298051077778645"><ele>831.0</ele><time>2026-03-28T09:17:59Z</time></trkpt><trkpt lat="40.707473549938946" lon="9.298112869960127"><ele>835.25</ele><time>2026-03-28T09:18:00Z</time></trkpt><trkpt lat="40.707368742108784" lon="9.298171495841464"><ele>839.5</ele><time>2026-03-28T09:18:01Z</time></trkpt><trkpt lat="40.70725859629872" lon="9.298202564986727"><ele>843.75</ele><time>2026-03-28T09:18:02Z</time></trkpt><trkpt lat="40.70712912058061" lon="9.298201409532806"><ele>848.0</ele><time>2026-03-28T09:18:03Z</time></trkpt><trkpt lat="40.707004939814134" lon="9.298180517306832"><ele>848.0</ele><time>2026-03-28T09:18:04Z</time></trkpt><trkpt lat="40.70691849453282" lon="9.29813566153249"><ele>848.0</ele><time>2026-03-28T09:18:05Z</time></trkpt><trkpt lat="40.70685419975052" lon="9.29804834834312"><ele>848.0</ele><time>2026-03-28T09:18:06Z</time></trkpt><trkpt lat="40.706807610311735" lon="9.297925699710104"><ele>848.0</ele><time>2026-03-28T09:18:07Z</time></trkpt><trkpt lat="40.706752643557735" lon="9.297774920785242"><ele>848.0</ele><time>2026-03-28T09:18:08Z</time></trkpt><trkpt lat="40.70671053071165" lon="9.297638464272644"><ele>852.0</ele><time>2026-03-28T09:18:09Z</time></trkpt><trkpt lat="40.70667224080796" lon="9.297484776873162"><ele>856.0</ele><time>2026-03-28T09:18:10Z</time></trkpt><trkpt lat="40.70664018306451" lon="9.297329786461738"><ele>860.0</ele><time>2026-03-28T09:18:11Z</time></trkpt><trkpt lat="40.70661888993112" lon="9.297185149374432"><ele>864.0</ele><time>2026-03-28T09:18:12Z</time></trkpt><trkpt lat="40.70661134001151" lon="9.297040718086558"><ele>864.6</ele><time>2026-03-28T09:18:13Z</time></trkpt><trkpt lat="40.7066243182056" lon="9.296923292782655"><ele>865.2</ele><time>2026-03-28T09:18:14Z</time></trkpt><trkpt lat="40.70665859713778" lon="9.29681274148025"><ele>865.8000000000001</ele><time>2026-03-28T09:18:15Z</time></trkpt><trkpt lat="40.70667180638405" lon="9.296683452386004"><ele>866.4000000000001</ele><time>2026-03-28T09:18:16Z</time></trkpt><trkpt lat="40.70666455075768" lon="9.296561900622047"><ele>867.0</ele><time>2026-03-28T09:18:17Z</time></trkpt><trkpt lat="40.706615731598575" lon="9.296454154443804"><ele>867.0</ele><time>2026-03-28T09:18:18Z</time></trkpt><trkpt lat="40.70654083450173" lon="9.296362152029998"><ele>867.0</ele><time>2026-03-28T09:18:19Z</time></trkpt><trkpt lat="40.70643199190979" lon="9.296336807088553"><ele>867.0</ele><time>2026-03-28T09:18:20Z</time></trkpt><trkpt lat="40.706334595506554" lon="9.296336076571054"><ele>867.0</ele><time>2026-03-28T09:18:21Z</time></trkpt><trkpt lat="40.7062420966365" lon="9.296370849267957"><ele>867.0</ele><time>2026-03-28T09:18:22Z</time></trkpt><trkpt lat="40.70616190949366" lon="9.29643274270312"><ele>867.8</ele><time>2026-03-28T09:18:23Z</time></trkpt><trkpt lat="40.706070897400046" lon="9.296489184466441"><ele>868.6</ele><time>2026-03-28T09:18:24Z</time></trkpt><trkpt lat="40.705974790158045" lon="9.296529949688827"><ele>869.3999999999999</ele><time>2026-03-28T09:18:25Z</time></trkpt><trkpt lat="40.70589390971382" lon="9.296518136809825"><ele>870.1999999999999</ele><time>2026-03-28T09:18:26Z</time></trkpt><trkpt lat="40.70582553885794" lon="9.296449337706596"><ele>871.0</ele><time>2026-03-28T09:18:27Z</time></trkpt><trkpt lat="40.70571827512396" lon="9.296367784827762"><ele>871.0</ele><time>2026-03-28T09:18:28Z</time></trkpt><trkpt lat="40.705595535148205" lon="9.296270318222119"><ele>871.0</ele><time>2026-03-28T09:18:29Z</time></trkpt><trkpt lat="40.7055052859776" lon="9.296192475242746"><ele>871.0</ele><time>2026-03-28T09:18:30Z</time></trkpt><trkpt lat="40.705387310674375" lon="9.296092307568154"><ele>871.0</ele><time>2026-03-28T09:18:31Z</time></trkpt><trkpt lat="40.7052415116281" lon="9.296016914462575"><ele>873.75</ele><time>2026-03-28T09:18:32Z</time></trkpt><trkpt lat="40.705080059749605" lon="9.295935432922962"><ele>876.5</ele><time>2026-03-28T09:18:33Z</time></trkpt><trkpt lat="40.70499084101127" lon="9.295916378099177"><ele>879.25</ele><time>2026-03-28T09:18:34Z</time></trkpt><trkpt lat="40.70487971035073" lon="9.295915218318827"><ele>882.0</ele><time>2026-03-28T09:18:35Z</time></trkpt><trkpt lat="40.70474431342386" lon="9.295874581896907"><ele>882.0</ele><time>2026-03-28T09:18:36Z</time></trkpt><trkpt lat="40.70455986669062" lon="9.295825295030191"><ele>882.0</ele><time>2026-03-28T09:18:37Z</time></trkpt><trkpt lat="40.704355058618795" lon="9.295749277593702"><ele>882.0</ele><time>2026-03-28T09:18:38Z</time></trkpt><trkpt lat="40.70414441493452" lon="9.295667194107388"><ele>883.3333333333333</ele><time>2026-03-28T09:18:39Z</time></trkpt><trkpt lat="40.703951156904395" lon="9.295594228585749"><ele>884.6666666666666</ele><time>2026-03-28T09:18:40Z</time></trkpt><trkpt lat="40.70378521103199" lon="9.295535333937753"><ele>886.0</ele><time>2026-03-28T09:18:41Z</time></trkpt><trkpt lat="40.70362568132488" lon="9.295488732604682"><ele>885.0</ele><time>2026-03-28T09:18:42Z</time></trkpt><trkpt lat="40.70344441997512" lon="9.295458773185402"><ele>884.0</ele><time>2026-03-28T09:18:43Z</time></trkpt><trkpt lat="40.703305808872194" lon="9.295478573922153"><ele>883.0</ele><time>2026-03-28T09:18:44Z</time></trkpt><trkpt lat="40.703181079056755" lon="9.295506231052036"><ele>882.0</ele><time>2026-03-28T09:18:45Z</time></trkpt><trkpt lat="40.70305886692579" lon="9.29556476645008"><ele>885.5</ele><time>2026-03-28T09:18:46Z</time></trkpt><trkpt lat="40.702982208403014" lon="9.295637217018053"><ele>889.0</ele><time>2026-03-28T09:18:47Z</time></trkpt><trkpt lat="40.70292945399982" lon="9.295757164260031"><ele>892.5</ele><time>2026-03-28T09:18:48Z</time></trkpt><trkpt lat="40.702875971144046" lon="9.295936209077075"><ele>896.0</ele><time>2026-03-28T09:18:49Z</time></trkpt><trkpt lat="40.70281313566632" lon="9.296140081224788"><ele>898.25</ele><time>2026-03-28T09:18:50Z</time></trkpt><trkpt lat="40.702724978199846" lon="9.296264767704036"><ele>900.5</ele><time>2026-03-28T09:18:51Z</time></trkpt><trkpt lat="40.702654672956704" lon="9.296347880120425"><ele>902.75</ele><time>2026-03-28T09:18:52Z</time></trkpt><trkpt lat="40.70254457421939" lon="9.296402933865508"><ele>905.0</ele><time>2026-03-28T09:18:53Z</time></trkpt><trkpt lat="40.702394110419675" lon="9.296503540290963"><ele>906.6666666666667</ele><time>2026-03-28T09:18:54Z</time></trkpt><trkpt lat="40.702239185586976" lon="9.29661070084591"><ele>908.3333333333333</ele><time>2026-03-28T09:18:55Z</time></trkpt><trkpt lat="40.70208548042175" lon="9.296671399978097"><ele>910.0</ele><time>2026-03-28T09:18:56Z</time></trkpt><trkpt lat="40.70195586906086" lon="9.296712975026038"><ele>914.3333333333333</ele><time>2026-03-28T09:18:57Z</time></trkpt><trkpt lat="40.70177847562051" lon="9.296765208257971"><ele>918.6666666666667</ele><time>2026-03-28T09:18:58Z</time></trkpt><trkpt lat="40.7015855949825" lon="9.296811588840228"><ele>923.0</ele><time>2026-03-28T09:18:59Z</time></trkpt><trkpt lat="40.70138642520021" lon="9.296827797996269"><ele>923.0</ele><time>2026-03-28T09:19:00Z</time></trkpt><trkpt lat="40.701194369335575" lon="9.296844300842986"><ele>923.0</ele><time>2026-03-28T09:19:01Z</time></trkpt><trkpt lat="40.701032750797786" lon="9.296866143397063"><ele>923.0</ele><time>2026-03-28T09:19:02Z</time></trkpt><trkpt lat="40.70087138532314" lon="9.29691660687724"><ele>928.6666666666667</ele><time>2026-03-28T09:19:03Z</time></trkpt><trkpt lat="40.700733751420884" lon="9.29691335428901"><ele>934.3333333333333</ele><time>2026-03-28T09:19:04Z</time></trkpt><trkpt lat="40.70057625242248" lon="9.296914028598351"><ele>940.0</ele><time>2026-03-28T09:19:05Z</time></trkpt><trkpt lat="40.70039260651151" lon="9.296913213679598"><ele>940.0</ele><time>2026-03-28T09:19:06Z</time></trkpt><trkpt lat="40.700260432297284" lon="9.296899510039713"><ele>940.0</ele><time>2026-03-28T09:19:07Z</time></trkpt><trkpt lat="40.70017078581052" lon="9.296871807044138"><ele>940.0</ele><time>2026-03-28T09:19:08Z</time></trkpt><trkpt lat="40.700114756131406" lon="9.296737472991914"><ele>940.0</ele><time>2026-03-28T09:19:10Z</time></trkpt><trkpt lat="40.700078379200924" lon="9.296617575076194"><ele>940.0</ele><time>2026-03-28T09:19:11Z</time></trkpt><trkpt lat="40.700024117476474" lon="9.296470660957224"><ele>941.75</ele><time>2026-03-28T09:19:12Z</time></trkpt><trkpt lat="40.699954887651906" lon="9.29630965616663"><ele>943.5</ele><time>2026-03-28T09:19:13Z</time></trkpt><trkpt lat="40.6998795692465" lon="9.2962002575929"><ele>945.25</ele><time>2026-03-28T09:19:14Z</time></trkpt><trkpt lat="40.69980075231873" lon="9.296150675580474"><ele>947.0</ele><time>2026-03-28T09:19:15Z</time></trkpt><trkpt lat="40.69970753587905" lon="9.296062342217489"><ele>947.0</ele><time>2026-03-28T09:19:16Z</time></trkpt><trkpt lat="40.699566495798805" lon="9.295956279666079"><ele>947.0</ele><time>2026-03-28T09:19:17Z</time></trkpt><trkpt lat="40.699397770101356" lon="9.295829491413915"><ele>947.0</ele><time>2026-03-28T09:19:18Z</time></trkpt><trkpt lat="40.699202999174915" lon="9.295753555205748"><ele>946.25</ele><time>2026-03-28T09:19:19Z</time></trkpt><trkpt lat="40.699051299445436" lon="9.295634908223514"><ele>945.5</ele><time>2026-03-28T09:19:20Z</time></trkpt><trkpt lat="40.69892566381323" lon="9.295549496777053"><ele>944.75</ele><time>2026-03-28T09:19:21Z</time></trkpt><trkpt lat="40.698802967087815" lon="9.29549098436846"><ele>944.0</ele><time>2026-03-28T09:19:22Z</time></trkpt><trkpt lat="40.698665436272556" lon="9.295478807952076"><ele>946.0</ele><time>2026-03-28T09:19:23Z</time></trkpt><trkpt lat="40.698503162032" lon="9.295481080665027"><ele>948.0</ele><time>2026-03-28T09:19:24Z</time></trkpt><trkpt lat="40.69835876754807" lon="9.295398994562325"><ele>950.0</ele><time>2026-03-28T09:19:25Z</time></trkpt><trkpt lat="40.69823012416956" lon="9.295354660175695"><ele>950.0</ele><time>2026-03-28T09:19:26Z</time></trkpt><trkpt lat="40.698137950061124" lon="9.295349825690629"><ele>950.0</ele><time>2026-03-28T09:19:27Z</time></trkpt><trkpt lat="40.69807707440228" lon="9.295438275161946"><ele>950.0</ele><time>2026-03-28T09:19:28Z</time></trkpt><trkpt lat="40.698000707114375" lon="9.295531487466102"><ele>950.0</ele><time>2026-03-28T09:19:29Z</time></trkpt><trkpt lat="40.697920458624885" lon="9.295670350216467"><ele>950.0</ele><time>2026-03-28T09:19:30Z</time></trkpt><trkpt lat="40.69784445268938" lon="9.295832308691342"><ele>956.25</ele><time>2026-03-28T09:19:31Z</time></trkpt><trkpt lat="40.69774667227945" lon="9.295946424488651"><ele>962.5</ele><time>2026-03-28T09:19:32Z</time></trkpt><trkpt lat="40.697660011385445" lon="9.296030088814254"><ele>968.75</ele><time>2026-03-28T09:19:33Z</time></trkpt><trkpt lat="40.69753098021924" lon="9.296078715984553"><ele>975.0</ele><time>2026-03-28T09:19:34Z</time></trkpt><trkpt lat="40.697407377392594" lon="9.296196527277207"><ele>975.0</ele><time>2026-03-28T09:19:35Z</time></trkpt><trkpt lat="40.697276004039246" lon="9.29621550484476"><ele>975.0</ele><time>2026-03-28T09:19:36Z</time></trkpt><trkpt lat="40.697128669259584" lon="9.296222634517767"><ele>975.0</ele><time>2026-03-28T09:19:37Z</time></trkpt><trkpt lat="40.697021648356106" lon="9.29622406605427"><ele>975.0</ele><time>2026-03-28T09:19:38Z</time></trkpt><trkpt lat="40.69693615776825" lon="9.296202523305082"><ele>979.0</ele><time>2026-03-28T09:19:39Z</time></trkpt><trkpt lat="40.69687623430671" lon="9.29610734139442"><ele>983.0</ele><time>2026-03-28T09:19:40Z</time></trkpt><trkpt lat="40.696776402529856" lon="9.29600094758955"><ele>987.0</ele><time>2026-03-28T09:19:41Z</time></trkpt><trkpt lat="40.69666867238696" lon="9.295943122513439"><ele>991.0</ele><time>2026-03-28T09:19:42Z</time></trkpt><trkpt lat="40.69654999586935" lon="9.295947768407387"><ele>991.0</ele><time>2026-03-28T09:19:43Z</time></trkpt><trkpt lat="40.69640110270032" lon="9.295980974118253"><ele>991.0</ele><time>2026-03-28T09:19:44Z</time></trkpt><trkpt lat="40.69622886982079" lon="9.295978824511444"><ele>991.0</ele><time>2026-03-28T09:19:45Z</time></trkpt><trkpt lat="40.696049172777656" lon="9.295936212683353"><ele>993.6666666666666</ele><time>2026-03-28T09:19:46Z</time></trkpt><trkpt lat="40.695860319132784" lon="9.29590960389054"><ele>996.3333333333333</ele><time>2026-03-28T09:19:47Z</time></trkpt><trkpt lat="40.69571832319437" lon="9.295874703899699"><ele>999.0</ele><time>2026-03-28T09:19:48Z</time></trkpt><trkpt lat="40.69557181515624" lon="9.295820120335495"><ele>999.0</ele><time>2026-03-28T09:19:49Z</time></trkpt><trkpt lat="40.69539176666294" lon="9.295772000644277"><ele>999.0</ele><time>2026-03-28T09:19:50Z</time></trkpt><trkpt lat="40.69521686999319" lon="9.295729011635807"><ele>999.0</ele><time>2026-03-28T09:19:51Z</time></trkpt><trkpt lat="40.69507241580225" lon="9.295698580200929"><ele>1000.5</ele><time>2026-03-28T09:19:52Z</time></trkpt><trkpt lat="40.69492447917086" lon="9.295665392800224"><ele>1002.0</ele><time>2026-03-28T09:19:53Z</time></trkpt><trkpt lat="40.694796830122556" lon="9.295627404320363"><ele>1003.5</ele><time>2026-03-28T09:19:54Z</time></trkpt><trkpt lat="40.69468311195685" lon="9.295584457271318"><ele>1005.0</ele><time>2026-03-28T09:19:55Z</time></trkpt><trkpt lat="40.69460263808741" lon="9.29554849001582"><ele>1005.0</ele><time>2026-03-28T09:19:56Z</time></trkpt><trkpt lat="40.69452702949137" lon="9.295513888274927"><ele>1005.0</ele><time>2026-03-28T09:19:58Z</time></trkpt><trkpt lat="40.6944949834495" lon="9.295603348409982"><ele>1005.0</ele><time>2026-03-28T09:29:05Z</time></trkpt><trkpt lat="40.694541265101684" lon="9.295663830331366"><ele>1005.0</ele><time>2026-03-28T09:29:32Z</time></trkpt><trkpt lat="40.69449448242739" lon="9.295601510353508"><ele>1005.0</ele><time>2026-03-28T09:32:39Z</time></trkpt><trkpt lat="40.694398332783436" lon="9.295510006258054"><ele>1005.0</ele><time>2026-03-28T09:39:39Z</time></trkpt><trkpt lat="40.6943430333076" lon="9.295454169356802"><ele>1005.1666666666666</ele><time>2026-03-28T09:39:40Z</time></trkpt><trkpt lat="40.69427165555879" lon="9.295419632023695"><ele>1005.3333333333333</ele><time>2026-03-28T09:39:41Z</time></trkpt><trkpt lat="40.69419530324657" lon="9.295393279306483"><ele>1005.5</ele><time>2026-03-28T09:39:42Z</time></trkpt><trkpt lat="40.694134118001855" lon="9.295341587301236"><ele>1005.6666666666666</ele><time>2026-03-28T09:39:43Z</time></trkpt><trkpt lat="40.694048345949064" lon="9.295303590797495"><ele>1005.8333333333333</ele><time>2026-03-28T09:39:44Z</time></trkpt><trkpt lat="40.69395189518025" lon="9.295248699143526"><ele>1006.0</ele><time>2026-03-28T09:39:45Z</time></trkpt><trkpt lat="40.69387186035408" lon="9.29518778198742"><ele>1006.0</ele><time>2026-03-28T09:39:46Z</time></trkpt><trkpt lat="40.69376489129755" lon="9.295139839823035"><ele>1005.9999999999999</ele><time>2026-03-28T09:39:47Z</time></trkpt><trkpt lat="40.69366256866841" lon="9.29509911729161"><ele>1005.9999999999999</ele><time>2026-03-28T09:39:48Z</time></trkpt><trkpt lat="40.69357367559319" lon="9.295050830551602"><ele>1006.0</ele><time>2026-03-28T09:39:49Z</time></trkpt><trkpt lat="40.69347735970949" lon="9.294990807861566"><ele>1006.0</ele><time>2026-03-28T09:39:50Z</time></trkpt><trkpt lat="40.69338600821222" lon="9.294936279754847"><ele>1006.1999999999999</ele><time>2026-03-28T09:39:51Z</time></trkpt><trkpt lat="40.693299087904464" lon="9.294891370270145"><ele>1006.3999999999999</ele><time>2026-03-28T09:39:52Z</time></trkpt><trkpt lat="40.69319593366975" lon="9.294852287116674"><ele>1006.6</ele><time>2026-03-28T09:39:53Z</time></trkpt><trkpt lat="40.69308506903494" lon="9.294827389337756"><ele>1006.8</ele><time>2026-03-28T09:39:54Z</time></trkpt><trkpt lat="40.692949479851514" lon="9.294814380162054"><ele>1007.0</ele><time>2026-03-28T09:39:55Z</time></trkpt><trkpt lat="40.692824986655594" lon="9.294815099655017"><ele>1007.0</ele><time>2026-03-28T09:39:56Z</time></trkpt><trkpt lat="40.69270361837124" lon="9.294784552570938"><ele>1007.0</ele><time>2026-03-28T09:39:57Z</time></trkpt><trkpt lat="40.692576532880366" lon="9.29476586656781"><ele>1007.0</ele><time>2026-03-28T09:39:58Z</time></trkpt><trkpt lat="40.69245177842617" lon="9.294746434325468"><ele>1007.0</ele><time>2026-03-28T09:39:59Z</time></trkpt><trkpt lat="40.69234013485789" lon="9.294724917079586"><ele>1006.0</ele><time>2026-03-28T09:40:00Z</time></trkpt><trkpt lat="40.692240815429464" lon="9.294700327020184"><ele>1005.0</ele><time>2026-03-28T09:40:01Z</time></trkpt><trkpt lat="40.69215403321338" lon="9.294688126752606"><ele>1004.0</ele><time>2026-03-28T09:40:02Z</time></trkpt><trkpt lat="40.69206792626431" lon="9.294628634303466"><ele>1003.0</ele><time>2026-03-28T09:40:03Z</time></trkpt><trkpt lat="40.69197229823524" lon="9.294544263109376"><ele>1002.0</ele><time>2026-03-28T09:40:04Z</time></trkpt><trkpt lat="40.691895457302635" lon="9.2944375928425"><ele>1002.0</ele><time>2026-03-28T09:40:05Z</time></trkpt><trkpt lat="40.691836774483434" lon="9.294348859365476"><ele>1002.0</ele><time>2026-03-28T09:40:06Z</time></trkpt><trkpt lat="40.69179693647945" lon="9.294264588840505"><ele>1002.0</ele><time>2026-03-28T09:40:07Z</time></trkpt><trkpt lat="40.69177833160428" lon="9.294173353340113"><ele>1002.0</ele><time>2026-03-28T09:40:08Z</time></trkpt><trkpt lat="40.69177681970993" lon="9.294075139729369"><ele>1002.0</ele><time>2026-03-28T09:40:09Z</time></trkpt><trkpt lat="40.691846604969065" lon="9.293951476154726"><ele>1002.0</ele><time>2026-03-28T09:40:11Z</time></trkpt><trkpt lat="40.691920474424684" lon="9.293878922999486"><ele>999.75</ele><time>2026-03-28T09:40:12Z</time></trkpt><trkpt lat="40.69202838262691" lon="9.293790870997967"><ele>997.5</ele><time>2026-03-28T09:40:13Z</time></trkpt><trkpt lat="40.69213523328473" lon="9.293689195146825"><ele>995.25</ele><time>2026-03-28T09:40:14Z</time></trkpt><trkpt lat="40.69220642823447" lon="9.293570643523"><ele>993.0</ele><time>2026-03-28T09:40:15Z</time></trkpt><trkpt lat="40.692277613913" lon="9.29345850561642"><ele>993.0</ele><time>2026-03-28T09:40:16Z</time></trkpt><trkpt lat="40.69234083614212" lon="9.293350498786895"><ele>993.0</ele><time>2026-03-28T09:40:17Z</time></trkpt><trkpt lat="40.69239674740291" lon="9.293245410184845"><ele>993.0</ele><time>2026-03-28T09:40:18Z</time></trkpt><trkpt lat="40.69242960904445" lon="9.293103744379463"><ele>993.0</ele><time>2026-03-28T09:40:19Z</time></trkpt><trkpt lat="40.69240460682358" lon="9.292951016021313"><ele>993.0</ele><time>2026-03-28T09:40:20Z</time></trkpt><trkpt lat="40.69238584732817" lon="9.292782408884042"><ele>992.0</ele><time>2026-03-28T09:40:21Z</time></trkpt><trkpt lat="40.69233384163202" lon="9.292607520459827"><ele>991.0</ele><time>2026-03-28T09:40:22Z</time></trkpt><trkpt lat="40.69228296999321" lon="9.292456978010751"><ele>990.0</ele><time>2026-03-28T09:40:23Z</time></trkpt><trkpt lat="40.6922285988562" lon="9.292325140407339"><ele>989.0</ele><time>2026-03-28T09:40:24Z</time></trkpt><trkpt lat="40.69216427251556" lon="9.292219665991201"><ele>989.0</ele><time>2026-03-28T09:40:25Z</time></trkpt><trkpt lat="40.692068524779145" lon="9.292138413377872"><ele>989.0</ele><time>2026-03-28T09:40:26Z</time></trkpt><trkpt lat="40.69197197876603" lon="9.292023644618324"><ele>989.0</ele><time>2026-03-28T09:40:27Z</time></trkpt><trkpt lat="40.69184565019712" lon="9.29192417051346"><ele>989.0</ele><time>2026-03-28T09:40:28Z</time></trkpt><trkpt lat="40.69174650097296" lon="9.29182589958917"><ele>988.2</ele><time>2026-03-28T09:40:29Z</time></trkpt><trkpt lat="40.69166683487516" lon="9.291709003828249"><ele>987.4000000000001</ele><time>2026-03-28T09:40:30Z</time></trkpt><trkpt lat="40.691600506465925" lon="9.291593600951373"><ele>986.6</ele><time>2026-03-28T09:40:31Z</time></trkpt><trkpt lat="40.69155024931052" lon="9.291477295180698"><ele>985.8</ele><time>2026-03-28T09:40:32Z</time></trkpt><trkpt lat="40.69149871467107" lon="9.291336951801645"><ele>985.0</ele><time>2026-03-28T09:40:33Z</time></trkpt><trkpt lat="40.69144784332919" lon="9.291203106452462"><ele>984.0</ele><time>2026-03-28T09:40:34Z</time></trkpt><trkpt lat="40.69137042704226" lon="9.291070691092942"><ele>983.0</ele><time>2026-03-28T09:40:35Z</time></trkpt><trkpt lat="40.69125427098783" lon="9.290944396383018"><ele>982.0</ele><time>2026-03-28T09:40:36Z</time></trkpt><trkpt lat="40.6911221287384" lon="9.290792704589467"><ele>980.6666666666666</ele><time>2026-03-28T09:40:37Z</time></trkpt><trkpt lat="40.69099764504052" lon="9.290625075536198"><ele>979.3333333333333</ele><time>2026-03-28T09:40:38Z</time></trkpt><trkpt lat="40.69087222923372" lon="9.29044365506565"><ele>978.0</ele><time>2026-03-28T09:40:39Z</time></trkpt><trkpt lat="40.69076637999385" lon="9.290277132017005"><ele>974.6666666666667</ele><time>2026-03-28T09:40:40Z</time></trkpt><trkpt lat="40.69067158150819" lon="9.290120313444193"><ele>971.3333333333334</ele><time>2026-03-28T09:40:41Z</time></trkpt><trkpt lat="40.690572210461674" lon="9.289972408447225"><ele>968.0</ele><time>2026-03-28T09:40:42Z</time></trkpt><trkpt lat="40.69046704617631" lon="9.289826156461046"><ele>966.6666666666667</ele><time>2026-03-28T09:40:43Z</time></trkpt><trkpt lat="40.69035204783684" lon="9.289674470815436"><ele>965.3333333333333</ele><time>2026-03-28T09:40:44Z</time></trkpt><trkpt lat="40.690236258917174" lon="9.28953401075254"><ele>964.0</ele><time>2026-03-28T09:40:45Z</time></trkpt><trkpt lat="40.69013417898923" lon="9.289422983875863"><ele>962.0</ele><time>2026-03-28T09:40:46Z</time></trkpt><trkpt lat="40.69002000762313" lon="9.289305851849132"><ele>960.0</ele><time>2026-03-28T09:40:47Z</time></trkpt><trkpt lat="40.68988873304732" lon="9.289171187594961"><ele>958.0</ele><time>2026-03-28T09:40:48Z</time></trkpt><trkpt lat="40.68976159925163" lon="9.28904132838273"><ele>958.0</ele><time>2026-03-28T09:40:49Z</time></trkpt><trkpt lat="40.68963610911912" lon="9.28894100957301"><ele>958.0</ele><time>2026-03-28T09:40:50Z</time></trkpt><trkpt lat="40.689521797530425" lon="9.288855337940674"><ele>958.0</ele><time>2026-03-28T09:40:51Z</time></trkpt><trkpt lat="40.68942143209193" lon="9.288773332152891"><ele>958.0</ele><time>2026-03-28T09:40:52Z</time></trkpt><trkpt lat="40.68933510836908" lon="9.288693826040662"><ele>956.5999999999999</ele><time>2026-03-28T09:40:53Z</time></trkpt><trkpt lat="40.68926780048011" lon="9.288600341989717"><ele>955.1999999999999</ele><time>2026-03-28T09:40:54Z</time></trkpt><trkpt lat="40.68923521242027" lon="9.288493074247514"><ele>953.8</ele><time>2026-03-28T09:40:55Z</time></trkpt><trkpt lat="40.68920772132894" lon="9.288343635618311"><ele>952.4</ele><time>2026-03-28T09:40:56Z</time></trkpt><trkpt lat="40.68916771627277" lon="9.288181429745746"><ele>951.0</ele><time>2026-03-28T09:40:57Z</time></trkpt><trkpt lat="40.689095206167565" lon="9.288028358625473"><ele>950.0</ele><time>2026-03-28T09:40:58Z</time></trkpt><trkpt lat="40.68898566299156" lon="9.28786608713528"><ele>949.0</ele><time>2026-03-28T09:40:59Z</time></trkpt><trkpt lat="40.6888666360565" lon="9.287704802329973"><ele>948.0</ele><time>2026-03-28T09:41:00Z</time></trkpt><trkpt lat="40.68876378765567" lon="9.287573919919257"><ele>948.0</ele><time>2026-03-28T09:41:01Z</time></trkpt><trkpt lat="40.6886688458823" lon="9.287493335198604"><ele>948.0</ele><time>2026-03-28T09:41:02Z</time></trkpt><trkpt lat="40.68857592609144" lon="9.28743744542543"><ele>948.0</ele><time>2026-03-28T09:41:03Z</time></trkpt><trkpt lat="40.68848006704996" lon="9.287413863977244"><ele>948.0</ele><time>2026-03-28T09:41:04Z</time></trkpt><trkpt lat="40.68839634670809" lon="9.287400626476089"><ele>948.0</ele><time>2026-03-28T09:41:05Z</time></trkpt><trkpt lat="40.688324498059885" lon="9.287397423838174"><ele>948.5999999999999</ele><time>2026-03-28T09:41:06Z</time></trkpt><trkpt lat="40.68819754069616" lon="9.287394216935974"><ele>949.1999999999999</ele><time>2026-03-28T09:41:08Z</time></trkpt><trkpt lat="40.6881217898208" lon="9.287400996618855"><ele>949.8</ele><time>2026-03-28T09:41:09Z</time></trkpt><trkpt lat="40.688016759527514" lon="9.287439371286967"><ele>950.4</ele><time>2026-03-28T09:41:10Z</time></trkpt><trkpt lat="40.6879173860773" lon="9.287457723654173"><ele>951.0</ele><time>2026-03-28T09:41:11Z</time></trkpt><trkpt lat="40.687832399031" lon="9.287437090371865"><ele>950.8</ele><time>2026-03-28T09:41:12Z</time></trkpt><trkpt lat="40.687755473417134" lon="9.287393801121132"><ele>950.5999999999999</ele><time>2026-03-28T09:41:13Z</time></trkpt><trkpt lat="40.68765311097593" lon="9.287329760868055"><ele>950.4</ele><time>2026-03-28T09:41:14Z</time></trkpt><trkpt lat="40.68755306250616" lon="9.287300230466299"><ele>950.2</ele><time>2026-03-28T09:41:15Z</time></trkpt><trkpt lat="40.68746412670688" lon="9.287279235112354"><ele>950.0</ele><time>2026-03-28T09:41:16Z</time></trkpt><trkpt lat="40.68734908411174" lon="9.287358506377032"><ele>950.0</ele><time>2026-03-28T09:41:17Z</time></trkpt><trkpt lat="40.68727492775502" lon="9.287471949579977"><ele>950.0</ele><time>2026-03-28T09:41:18Z</time></trkpt><trkpt lat="40.6872059508682" lon="9.287602157891165"><ele>950.0</ele><time>2026-03-28T09:41:19Z</time></trkpt><trkpt lat="40.68714389380079" lon="9.287776159248544"><ele>950.0</ele><time>2026-03-28T09:41:20Z</time></trkpt><trkpt lat="40.687073056158084" lon="9.287989156082997"><ele>950.6666666666667</ele><time>2026-03-28T09:41:21Z</time></trkpt><trkpt lat="40.68699260564678" lon="9.288190655059093"><ele>951.3333333333333</ele><time>2026-03-28T09:41:22Z</time></trkpt><trkpt lat="40.68690819189286" lon="9.2883800414476"><ele>952.0</ele><time>2026-03-28T09:41:23Z</time></trkpt><trkpt lat="40.686835935021094" lon="9.288541500130805"><ele>950.6666666666666</ele><time>2026-03-28T09:41:24Z</time></trkpt><trkpt lat="40.68677660469306" lon="9.288694685596152"><ele>949.3333333333333</ele><time>2026-03-28T09:41:25Z</time></trkpt><trkpt lat="40.68672996122727" lon="9.28888228727286"><ele>948.0</ele><time>2026-03-28T09:41:26Z</time></trkpt><trkpt lat="40.68668659231941" lon="9.28910863356943"><ele>948.0</ele><time>2026-03-28T09:41:27Z</time></trkpt><trkpt lat="40.68666440579145" lon="9.28932295699911"><ele>948.0</ele><time>2026-03-28T09:41:28Z</time></trkpt><trkpt lat="40.686645711498876" lon="9.289538024815236"><ele>948.0</ele><time>2026-03-28T09:41:29Z</time></trkpt><trkpt lat="40.68662992317425" lon="9.289710949007569"><ele>947.75</ele><time>2026-03-28T09:41:30Z</time></trkpt><trkpt lat="40.6866470820023" lon="9.289865301167412"><ele>947.5</ele><time>2026-03-28T09:41:31Z</time></trkpt><trkpt lat="40.68665968418025" lon="9.290052656127534"><ele>947.25</ele><time>2026-03-28T09:41:32Z</time></trkpt><trkpt lat="40.68669148431066" lon="9.290238134733551"><ele>947.0</ele><time>2026-03-28T09:41:33Z</time></trkpt><trkpt lat="40.68670874826517" lon="9.290423506563487"><ele>946.75</ele><time>2026-03-28T09:41:34Z</time></trkpt><trkpt lat="40.686714194212236" lon="9.290596708642697"><ele>946.5</ele><time>2026-03-28T09:41:35Z</time></trkpt><trkpt lat="40.68670530460708" lon="9.290759263803631"><ele>946.25</ele><time>2026-03-28T09:41:36Z</time></trkpt><trkpt lat="40.68667382248887" lon="9.29093663615211"><ele>946.0</ele><time>2026-03-28T09:41:37Z</time></trkpt><trkpt lat="40.68663172550796" lon="9.291099497959534"><ele>946.0</ele><time>2026-03-28T09:41:38Z</time></trkpt><trkpt lat="40.68656128067035" lon="9.291243148542447"><ele>946.0</ele><time>2026-03-28T09:41:39Z</time></trkpt><trkpt lat="40.6864938461431" lon="9.291378484973432"><ele>946.0</ele><time>2026-03-28T09:41:40Z</time></trkpt><trkpt lat="40.68642351123844" lon="9.291489099549727"><ele>946.0</ele><time>2026-03-28T09:41:41Z</time></trkpt><trkpt lat="40.686347733072054" lon="9.29156700916066"><ele>945.3333333333333</ele><time>2026-03-28T09:41:42Z</time></trkpt><trkpt lat="40.68626498662657" lon="9.29159677739127"><ele>944.6666666666666</ele><time>2026-03-28T09:41:43Z</time></trkpt><trkpt lat="40.68617935301204" lon="9.291638765107423"><ele>944.0</ele><time>2026-03-28T09:41:44Z</time></trkpt><trkpt lat="40.68610800155008" lon="9.291692438484256"><ele>943.3333333333333</ele><time>2026-03-28T09:41:45Z</time></trkpt><trkpt lat="40.68603221030859" lon="9.291723825278028"><ele>942.6666666666666</ele><time>2026-03-28T09:41:46Z</time></trkpt><trkpt lat="40.685961488384486" lon="9.291757728737291"><ele>942.0</ele><time>2026-03-28T09:41:47Z</time></trkpt><trkpt lat="40.68587823063874" lon="9.291771447126193"><ele>942.0</ele><time>2026-03-28T09:41:48Z</time></trkpt><trkpt lat="40.6858038538053" lon="9.291824588695459"><ele>942.0</ele><time>2026-03-28T09:41:49Z</time></trkpt><trkpt lat="40.685737685533866" lon="9.291848837975275"><ele>942.0</ele><time>2026-03-28T09:41:50Z</time></trkpt><trkpt lat="40.68562233028845" lon="9.291891175203807"><ele>942.0</ele><time>2026-03-28T09:41:52Z</time></trkpt><trkpt lat="40.685551600006676" lon="9.291948107316172"><ele>942.0</ele><time>2026-03-28T09:41:55Z</time></trkpt><trkpt lat="40.685454157929165" lon="9.29196106659462"><ele>942.0</ele><time>2026-03-28T09:41:57Z</time></trkpt><trkpt lat="40.68536173795538" lon="9.291982568320272"><ele>942.0</ele><time>2026-03-28T09:41:58Z</time></trkpt><trkpt lat="40.68525818618208" lon="9.292030964911714"><ele>942.0</ele><time>2026-03-28T09:41:59Z</time></trkpt><trkpt lat="40.68515080941648" lon="9.292055545189989"><ele>942.0</ele><time>2026-03-28T09:42:00Z</time></trkpt><trkpt lat="40.68503906623493" lon="9.29207122462059"><ele>942.0</ele><time>2026-03-28T09:42:01Z</time></trkpt><trkpt lat="40.684915679288714" lon="9.292059630071849"><ele>942.0</ele><time>2026-03-28T09:42:02Z</time></trkpt><trkpt lat="40.684779427497" lon="9.292043297049513"><ele>942.0</ele><time>2026-03-28T09:42:03Z</time></trkpt><trkpt lat="40.68466236972188" lon="9.292034293238899"><ele>942.0</ele><time>2026-03-28T09:42:04Z</time></trkpt><trkpt lat="40.68455069209767" lon="9.29204027104747"><ele>942.0</ele><time>2026-03-28T09:42:05Z</time></trkpt><trkpt lat="40.68443215298132" lon="9.292053671986498"><ele>940.25</ele><time>2026-03-28T09:42:06Z</time></trkpt><trkpt lat="40.68430925878476" lon="9.292053449744483"><ele>938.5</ele><time>2026-03-28T09:42:07Z</time></trkpt><trkpt lat="40.68418748333272" lon="9.292052330597807"><ele>936.75</ele><time>2026-03-28T09:42:08Z</time></trkpt><trkpt lat="40.68407652110336" lon="9.29204204775922"><ele>935.0</ele><time>2026-03-28T09:42:09Z</time></trkpt><trkpt lat="40.6839762657224" lon="9.292023879332024"><ele>935.0000000000001</ele><time>2026-03-28T09:42:10Z</time></trkpt><trkpt lat="40.68388504630767" lon="9.291995695419622"><ele>935.0</ele><time>2026-03-28T09:42:11Z</time></trkpt><trkpt lat="40.68381279871885" lon="9.291959898370344"><ele>935.0</ele><time>2026-03-28T09:42:12Z</time></trkpt><trkpt lat="40.6837370847373" lon="9.291919726375573"><ele>935.0</ele><time>2026-03-28T09:42:13Z</time></trkpt><trkpt lat="40.68366230391883" lon="9.291880049531365"><ele>935.0000000000001</ele><time>2026-03-28T09:42:14Z</time></trkpt><trkpt lat="40.68355916153046" lon="9.291839555920514"><ele>935.0</ele><time>2026-03-28T09:42:15Z</time></trkpt><trkpt lat="40.68343102639513" lon="9.291821825046629"><ele>931.75</ele><time>2026-03-28T09:42:16Z</time></trkpt><trkpt lat="40.68331871202967" lon="9.291779852591457"><ele>928.5</ele><time>2026-03-28T09:42:17Z</time></trkpt><trkpt lat="40.68321037852052" lon="9.291755497360663"><ele>925.25</ele><time>2026-03-28T09:42:18Z</time></trkpt><trkpt lat="40.683089942665106" lon="9.291770377292051"><ele>922.0</ele><time>2026-03-28T09:42:19Z</time></trkpt><trkpt lat="40.68295295678794" lon="9.291779335371146"><ele>922.0</ele><time>2026-03-28T09:42:20Z</time></trkpt><trkpt lat="40.682820675953494" lon="9.291796528351743"><ele>922.0</ele><time>2026-03-28T09:42:21Z</time></trkpt><trkpt lat="40.68269326755681" lon="9.291788234735073"><ele>922.0</ele><time>2026-03-28T09:42:22Z</time></trkpt><trkpt lat="40.68257437618661" lon="9.291795311587704"><ele>922.0</ele><time>2026-03-28T09:42:23Z</time></trkpt><trkpt lat="40.68244434464623" lon="9.29181802180754"><ele>919.25</ele><time>2026-03-28T09:42:24Z</time></trkpt><trkpt lat="40.68229517032646" lon="9.291849827087876"><ele>916.5</ele><time>2026-03-28T09:42:25Z</time></trkpt><trkpt lat="40.68215849499904" lon="9.291846297441353"><ele>913.75</ele><time>2026-03-28T09:42:26Z</time></trkpt><trkpt lat="40.682037588298584" lon="9.291854573659567"><ele>911.0</ele><time>2026-03-28T09:42:27Z</time></trkpt><trkpt lat="40.68192180659591" lon="9.291853609462159"><ele>910.25</ele><time>2026-03-28T09:42:28Z</time></trkpt><trkpt lat="40.68179161816534" lon="9.291828854779538"><ele>909.5</ele><time>2026-03-28T09:42:29Z</time></trkpt><trkpt lat="40.68165399197539" lon="9.29179971062385"><ele>908.75</ele><time>2026-03-28T09:42:30Z</time></trkpt><trkpt lat="40.68151624377707" lon="9.291765382719394"><ele>908.0</ele><time>2026-03-28T09:42:31Z</time></trkpt><trkpt lat="40.681402311321456" lon="9.291733116329567"><ele>908.0</ele><time>2026-03-28T09:42:32Z</time></trkpt><trkpt lat="40.68128502138126" lon="9.291716630545135"><ele>908.0</ele><time>2026-03-28T09:42:33Z</time></trkpt><trkpt lat="40.68118573450488" lon="9.291673762902585"><ele>908.0</ele><time>2026-03-28T09:42:34Z</time></trkpt><trkpt lat="40.681092695927845" lon="9.291649124753462"><ele>908.0</ele><time>2026-03-28T09:42:35Z</time></trkpt><trkpt lat="40.68101291889212" lon="9.291627443248293"><ele>908.0</ele><time>2026-03-28T09:42:36Z</time></trkpt><trkpt lat="40.680942191509025" lon="9.291605810820071"><ele>908.0</ele><time>2026-03-28T09:42:37.001Z</time></trkpt><trkpt lat="40.68085906871244" lon="9.291577903318853"><ele>908.0</ele><time>2026-03-28T09:42:38.001Z</time></trkpt><trkpt lat="40.68076157431532" lon="9.291535677605356"><ele>908.0</ele><time>2026-03-28T09:42:39.001Z</time></trkpt><trkpt lat="40.68066155497298" lon="9.291473135260143"><ele>908.0</ele><time>2026-03-28T09:42:40.001Z</time></trkpt><trkpt lat="40.68056296858256" lon="9.291389146482567"><ele>908.0</ele><time>2026-03-28T09:42:41.001Z</time></trkpt><trkpt lat="40.68044342957953" lon="9.29130496451884"><ele>907.25</ele><time>2026-03-28T09:42:42.001Z</time></trkpt><trkpt lat="40.68031445393595" lon="9.29118852122655"><ele>906.5</ele><time>2026-03-28T09:42:43.001Z</time></trkpt><trkpt lat="40.680181745942534" lon="9.291115054732147"><ele>905.75</ele><time>2026-03-28T09:42:44.001Z</time></trkpt><trkpt lat="40.68006977231699" lon="9.291024182164584"><ele>905.0</ele><time>2026-03-28T09:42:45.001Z</time></trkpt><trkpt lat="40.67995236714117" lon="9.290964188020531"><ele>903.0</ele><time>2026-03-28T09:42:46.001Z</time></trkpt><trkpt lat="40.67982835625687" lon="9.290927713921281"><ele>901.0</ele><time>2026-03-28T09:42:47.001Z</time></trkpt><trkpt lat="40.67969042831064" lon="9.290884960843247"><ele>899.0</ele><time>2026-03-28T09:42:48.001Z</time></trkpt><trkpt lat="40.6795542150028" lon="9.290855629554626"><ele>897.0</ele><time>2026-03-28T09:42:49.001Z</time></trkpt><trkpt lat="40.67944194881828" lon="9.290813781407811"><ele>896.6666666666666</ele><time>2026-03-28T09:42:50.001Z</time></trkpt><trkpt lat="40.67933765790328" lon="9.2908119733021"><ele>896.3333333333333</ele><time>2026-03-28T09:42:51.001Z</time></trkpt><trkpt lat="40.67925917676245" lon="9.290789101469546"><ele>896.0</ele><time>2026-03-28T09:42:52.001Z</time></trkpt><trkpt lat="40.679179326193925" lon="9.290781797324808"><ele>895.6666666666666</ele><time>2026-03-28T09:42:54.001Z</time></trkpt><trkpt lat="40.67910487821726" lon="9.290756094587795"><ele>895.3333333333333</ele><time>2026-03-28T09:43:10Z</time></trkpt><trkpt lat="40.679112571400516" lon="9.290670016425025"><ele>895.0</ele><time>2026-03-28T09:44:32Z</time></trkpt><trkpt lat="40.679176503727106" lon="9.290667261161843"><ele>895.0</ele><time>2026-03-28T09:44:33Z</time></trkpt><trkpt lat="40.67928459447758" lon="9.290679558620859"><ele>895.0</ele><time>2026-03-28T09:44:34Z</time></trkpt><trkpt lat="40.67939951118025" lon="9.290695500639178"><ele>895.0</ele><time>2026-03-28T09:44:35Z</time></trkpt><trkpt lat="40.67949915535824" lon="9.290686564556886"><ele>895.0</ele><time>2026-03-28T09:44:36Z</time></trkpt><trkpt lat="40.67960743190296" lon="9.290667692177465"><ele>895.0</ele><time>2026-03-28T09:44:37Z</time></trkpt><trkpt lat="40.67974102172943" lon="9.29063298421816"><ele>893.0</ele><time>2026-03-28T09:44:38Z</time></trkpt><trkpt lat="40.67986543386639" lon="9.290579912751163"><ele>891.0</ele><time>2026-03-28T09:44:39Z</time></trkpt><trkpt lat="40.6799900357719" lon="9.290500872204744"><ele>889.0</ele><time>2026-03-28T09:44:40Z</time></trkpt><trkpt lat="40.680099078427396" lon="9.290389277114887"><ele>887.0</ele><time>2026-03-28T09:44:41Z</time></trkpt><trkpt lat="40.68021138564753" lon="9.290234539478709"><ele>891.0</ele><time>2026-03-28T09:44:42Z</time></trkpt><trkpt lat="40.680327960398806" lon="9.290060985879556"><ele>895.0</ele><time>2026-03-28T09:44:43.001Z</time></trkpt><trkpt lat="40.68043968105084" lon="9.289919333916238"><ele>899.0</ele><time>2026-03-28T09:44:44.001Z</time></trkpt><trkpt lat="40.68056125135569" lon="9.289794706920432"><ele>896.3333333333334</ele><time>2026-03-28T09:44:45.001Z</time></trkpt><trkpt lat="40.680703776675536" lon="9.289667694654412"><ele>893.6666666666667</ele><time>2026-03-28T09:44:46.001Z</time></trkpt><trkpt lat="40.68084557703944" lon="9.289531794004814"><ele>891.0</ele><time>2026-03-28T09:44:47.001Z</time></trkpt><trkpt lat="40.68099727258255" lon="9.28939631039106"><ele>893.0</ele><time>2026-03-28T09:44:48.001Z</time></trkpt><trkpt lat="40.68113570841505" lon="9.289255686339084"><ele>895.0</ele><time>2026-03-28T09:44:49.001Z</time></trkpt><trkpt lat="40.68126254458608" lon="9.289136886116625"><ele>897.0</ele><time>2026-03-28T09:44:50.001Z</time></trkpt><trkpt lat="40.68139808687182" lon="9.289006177296292"><ele>896.3333333333333</ele><time>2026-03-28T09:44:51.001Z</time></trkpt><trkpt lat="40.68151349865899" lon="9.288878771630436"><ele>895.6666666666666</ele><time>2026-03-28T09:44:52.001Z</time></trkpt><trkpt lat="40.68161439861843" lon="9.288749629754424"><ele>895.0</ele><time>2026-03-28T09:44:53.001Z</time></trkpt><trkpt lat="40.681718292010046" lon="9.28857591898552"><ele>895.0</ele><time>2026-03-28T09:44:54.001Z</time></trkpt><trkpt lat="40.681811827609096" lon="9.288389695525767"><ele>895.0</ele><time>2026-03-28T09:44:55.001Z</time></trkpt><trkpt lat="40.68190377265757" lon="9.288233206272507"><ele>895.0</ele><time>2026-03-28T09:44:56.001Z</time></trkpt><trkpt lat="40.682008528015736" lon="9.288075625581452"><ele>896.6666666666666</ele><time>2026-03-28T09:44:57.001Z</time></trkpt><trkpt lat="40.68212767570861" lon="9.287969813364954"><ele>898.3333333333333</ele><time>2026-03-28T09:44:58.001Z</time></trkpt><trkpt lat="40.68222760346179" lon="9.287815453010031"><ele>900.0</ele><time>2026-03-28T09:44:59.001Z</time></trkpt><trkpt lat="40.68232573731247" lon="9.287649312018596"><ele>900.0</ele><time>2026-03-28T09:45:00.001Z</time></trkpt><trkpt lat="40.68241453109762" lon="9.28745476997065"><ele>900.0</ele><time>2026-03-28T09:45:01.001Z</time></trkpt><trkpt lat="40.682485893034496" lon="9.287287689461659"><ele>900.0</ele><time>2026-03-28T09:45:02.001Z</time></trkpt><trkpt lat="40.682550023416425" lon="9.287136100230843"><ele>900.0</ele><time>2026-03-28T09:45:03.001Z</time></trkpt><trkpt lat="40.68261571549581" lon="9.286964663565998"><ele>900.1666666666666</ele><time>2026-03-28T09:45:04.001Z</time></trkpt><trkpt lat="40.68267467423355" lon="9.286851460388547"><ele>900.3333333333333</ele><time>2026-03-28T09:45:05.001Z</time></trkpt><trkpt lat="40.68267319518714" lon="9.286736748846593"><ele>900.5</ele><time>2026-03-28T09:45:06.001Z</time></trkpt><trkpt lat="40.682635151191704" lon="9.286615386500507"><ele>900.6666666666666</ele><time>2026-03-28T09:45:08.001Z</time></trkpt><trkpt lat="40.68260972585913" lon="9.286511977494184"><ele>900.8333333333333</ele><time>2026-03-28T09:45:10.001Z</time></trkpt><trkpt lat="40.68256816587506" lon="9.286443507387263"><ele>901.0</ele><time>2026-03-28T09:45:13.001Z</time></trkpt><trkpt lat="40.68237396413165" lon="9.286517253053413"><ele>900.9999999999999</ele><time>2026-03-28T09:45:16.001Z</time></trkpt><trkpt lat="40.682439959203336" lon="9.286593211263904"><ele>901.0</ele><time>2026-03-28T09:45:20Z</time></trkpt><trkpt lat="40.6825033282186" lon="9.286524548213904"><ele>901.0</ele><time>2026-03-28T09:45:22Z</time></trkpt><trkpt lat="40.682483652873444" lon="9.286437977209417"><ele>901.0</ele><time>2026-03-28T09:45:48Z</time></trkpt><trkpt lat="40.682424260647274" lon="9.286477564880133"><ele>900.9999999999999</ele><time>2026-03-28T09:45:50Z</time></trkpt><trkpt lat="40.68236619301489" lon="9.286510685515363"><ele>901.0</ele><time>2026-03-28T09:45:51Z</time></trkpt><trkpt lat="40.68226466841355" lon="9.286552389098663"><ele>901.0</ele><time>2026-03-28T09:45:52Z</time></trkpt><trkpt lat="40.68216180050765" lon="9.286564918832768"><ele>901.0</ele><time>2026-03-28T09:45:53Z</time></trkpt><trkpt lat="40.682038370179555" lon="9.286555107748532"><ele>901.0</ele><time>2026-03-28T09:45:54Z</time></trkpt><trkpt lat="40.68188062907796" lon="9.286527084562994"><ele>901.0</ele><time>2026-03-28T09:45:55Z</time></trkpt><trkpt lat="40.68173385129696" lon="9.286490033926832"><ele>900.75</ele><time>2026-03-28T09:45:56Z</time></trkpt><trkpt lat="40.681598569781656" lon="9.286481197230163"><ele>900.5</ele><time>2026-03-28T09:45:57Z</time></trkpt><trkpt lat="40.68142657993952" lon="9.286492327685538"><ele>900.25</ele><time>2026-03-28T09:45:58Z</time></trkpt><trkpt lat="40.6812876105724" lon="9.28649922087988"><ele>900.0</ele><time>2026-03-28T09:45:59Z</time></trkpt><trkpt lat="40.681153306088646" lon="9.286502772290449"><ele>901.6666666666667</ele><time>2026-03-28T09:46:00Z</time></trkpt><trkpt lat="40.68100865156923" lon="9.286491557039332"><ele>903.3333333333334</ele><time>2026-03-28T09:46:01Z</time></trkpt><trkpt lat="40.68083841838321" lon="9.286455551002044"><ele>905.0</ele><time>2026-03-28T09:46:02Z</time></trkpt><trkpt lat="40.6806591652546" lon="9.286419192317357"><ele>909.6666666666667</ele><time>2026-03-28T09:46:03Z</time></trkpt><trkpt lat="40.680504657428834" lon="9.286384692843447"><ele>914.3333333333333</ele><time>2026-03-28T09:46:04Z</time></trkpt><trkpt lat="40.680346506783415" lon="9.286360145102963"><ele>919.0</ele><time>2026-03-28T09:46:05Z</time></trkpt><trkpt lat="40.680180087114" lon="9.286342877747051"><ele>920.0</ele><time>2026-03-28T09:46:06Z</time></trkpt><trkpt lat="40.68004865435381" lon="9.286324731328678"><ele>921.0000000000001</ele><time>2026-03-28T09:46:07Z</time></trkpt><trkpt lat="40.679945641779796" lon="9.286307076170987"><ele>922.0000000000001</ele><time>2026-03-28T09:46:08Z</time></trkpt><trkpt lat="40.6798609880306" lon="9.286281907450316"><ele>923.0</ele><time>2026-03-28T09:46:09Z</time></trkpt><trkpt lat="40.679767736736004" lon="9.286247021599173"><ele>924.0</ele><time>2026-03-28T09:46:10Z</time></trkpt><trkpt lat="40.67965720424984" lon="9.28619813754324"><ele>924.0</ele><time>2026-03-28T09:46:11Z</time></trkpt><trkpt lat="40.67954714943507" lon="9.286150223523087"><ele>924.0000000000001</ele><time>2026-03-28T09:46:12Z</time></trkpt><trkpt lat="40.67944464881782" lon="9.28611607225264"><ele>924.0000000000001</ele><time>2026-03-28T09:46:13Z</time></trkpt><trkpt lat="40.67935578259999" lon="9.286092776270726"><ele>924.0</ele><time>2026-03-28T09:46:14Z</time></trkpt><trkpt lat="40.67926087459762" lon="9.286055521564924"><ele>924.0</ele><time>2026-03-28T09:46:15Z</time></trkpt><trkpt lat="40.67916707043972" lon="9.286004574071821"><ele>922.8000000000001</ele><time>2026-03-28T09:46:16Z</time></trkpt><trkpt lat="40.67908094375336" lon="9.285928000962661"><ele>921.6000000000001</ele><time>2026-03-28T09:46:17Z</time></trkpt><trkpt lat="40.678989205035926" lon="9.285847457239795"><ele>920.4</ele><time>2026-03-28T09:46:18Z</time></trkpt><trkpt lat="40.67891343756292" lon="9.285771666838588"><ele>919.2</ele><time>2026-03-28T09:46:19Z</time></trkpt><trkpt lat="40.678842465405396" lon="9.285705610202063"><ele>918.0</ele><time>2026-03-28T09:46:20Z</time></trkpt><trkpt lat="40.6787771533675" lon="9.285643012566728"><ele>917.1666666666666</ele><time>2026-03-28T09:46:21Z</time></trkpt><trkpt lat="40.678723527608796" lon="9.285585007857465"><ele>916.3333333333333</ele><time>2026-03-28T09:46:22Z</time></trkpt><trkpt lat="40.67866823060284" lon="9.285542493023348"><ele>915.5</ele><time>2026-03-28T09:46:23Z</time></trkpt><trkpt lat="40.67857073200728" lon="9.285447943963524"><ele>914.6666666666666</ele><time>2026-03-28T09:46:25Z</time></trkpt><trkpt lat="40.67851676893125" lon="9.28539738511338"><ele>913.8333333333333</ele><time>2026-03-28T09:46:26Z</time></trkpt><trkpt lat="40.67847446117896" lon="9.285334648993778"><ele>913.0</ele><time>2026-03-28T09:46:27Z</time></trkpt><trkpt lat="40.678405805631236" lon="9.285221171960567"><ele>912.9999999999999</ele><time>2026-03-28T09:46:29Z</time></trkpt><trkpt lat="40.67837303391026" lon="9.285144884576908"><ele>913.0</ele><time>2026-03-28T09:46:31Z</time></trkpt><trkpt lat="40.67831305955729" lon="9.28510150365463"><ele>913.0</ele><time>2026-03-28T09:46:33Z</time></trkpt><trkpt lat="40.67824779903066" lon="9.28516975104509"><ele>913.0</ele><time>2026-03-28T09:46:36Z</time></trkpt><trkpt lat="40.67828662440305" lon="9.285279411237486"><ele>912.9999999999999</ele><time>2026-03-28T09:46:39Z</time></trkpt><trkpt lat="40.678388724906455" lon="9.28534927097679"><ele>913.0</ele><time>2026-03-28T09:46:41Z</time></trkpt><trkpt lat="40.67852409426623" lon="9.285442447101554"><ele>914.0</ele><time>2026-03-28T09:46:43Z</time></trkpt><trkpt lat="40.67860188754836" lon="9.285494993559466"><ele>915.0</ele><time>2026-03-28T09:46:44Z</time></trkpt><trkpt lat="40.67866822879639" lon="9.285543873536728"><ele>916.0</ele><time>2026-03-28T09:46:45Z</time></trkpt><trkpt lat="40.678749580399064" lon="9.285609405734817"><ele>917.0</ele><time>2026-03-28T09:46:46Z</time></trkpt><trkpt lat="40.67883961513715" lon="9.285695219053324"><ele>918.0</ele><time>2026-03-28T09:46:47Z</time></trkpt><trkpt lat="40.67892023472831" lon="9.285774540324727"><ele>918.0</ele><time>2026-03-28T09:46:48Z</time></trkpt><trkpt lat="40.67899817816158" lon="9.285855666539453"><ele>918.0</ele><time>2026-03-28T09:46:49.001Z</time></trkpt><trkpt lat="40.67907829314263" lon="9.285933800458109"><ele>918.0</ele><time>2026-03-28T09:46:50.001Z</time></trkpt><trkpt lat="40.67916739187697" lon="9.286011779399251"><ele>918.0</ele><time>2026-03-28T09:46:51.001Z</time></trkpt><trkpt lat="40.67925874359042" lon="9.2860737903133"><ele>918.0</ele><time>2026-03-28T09:46:52.001Z</time></trkpt><trkpt lat="40.679347324430516" lon="9.286113582629872"><ele>919.5</ele><time>2026-03-28T09:46:53.001Z</time></trkpt><trkpt lat="40.679456378024" lon="9.286139810779437"><ele>921.0</ele><time>2026-03-28T09:46:54.001Z</time></trkpt><trkpt lat="40.67957934792246" lon="9.286166877176985"><ele>922.5</ele><time>2026-03-28T09:46:55.001Z</time></trkpt><trkpt lat="40.67969791730574" lon="9.286205476630574"><ele>924.0</ele><time>2026-03-28T09:46:56.001Z</time></trkpt><trkpt lat="40.67982555757796" lon="9.286268366065844"><ele>924.0</ele><time>2026-03-28T09:46:57.001Z</time></trkpt><trkpt lat="40.679941201024214" lon="9.286314690225662"><ele>924.0</ele><time>2026-03-28T09:46:58.001Z</time></trkpt><trkpt lat="40.680049117506655" lon="9.286328811226788"><ele>924.0</ele><time>2026-03-28T09:46:59.001Z</time></trkpt><trkpt lat="40.68018703595554" lon="9.286335483756545"><ele>924.0</ele><time>2026-03-28T09:47:00.001Z</time></trkpt><trkpt lat="40.680352750907126" lon="9.286357292304817"><ele>922.3333333333333</ele><time>2026-03-28T09:47:01.001Z</time></trkpt><trkpt lat="40.6805367699756" lon="9.286390214352036"><ele>920.6666666666666</ele><time>2026-03-28T09:47:02.001Z</time></trkpt><trkpt lat="40.68069726838866" lon="9.286422170453784"><ele>919.0</ele><time>2026-03-28T09:47:03.001Z</time></trkpt><trkpt lat="40.68085149828797" lon="9.286460728097614"><ele>915.5</ele><time>2026-03-28T09:47:04.001Z</time></trkpt><trkpt lat="40.68098429651144" lon="9.286481197709643"><ele>912.0</ele><time>2026-03-28T09:47:05.001Z</time></trkpt><trkpt lat="40.68112345206102" lon="9.286497850905738"><ele>908.5</ele><time>2026-03-28T09:47:06.001Z</time></trkpt><trkpt lat="40.68126414836797" lon="9.286509426323784"><ele>905.0</ele><time>2026-03-28T09:47:07.001Z</time></trkpt><trkpt lat="40.68141402870512" lon="9.286496303420398"><ele>904.0</ele><time>2026-03-28T09:47:08.001Z</time></trkpt><trkpt lat="40.68157639404314" lon="9.286479703458962"><ele>903.0</ele><time>2026-03-28T09:47:09.001Z</time></trkpt><trkpt lat="40.68171587362139" lon="9.286481171356327"><ele>902.0</ele><time>2026-03-28T09:47:10.001Z</time></trkpt><trkpt lat="40.68183854625427" lon="9.286500895568437"><ele>901.0</ele><time>2026-03-28T09:47:11.001Z</time></trkpt><trkpt lat="40.6819544328869" lon="9.286530738106437"><ele>901.0</ele><time>2026-03-28T09:47:12.001Z</time></trkpt><trkpt lat="40.68206161625866" lon="9.286559655059357"><ele>900.9999999999999</ele><time>2026-03-28T09:47:13.001Z</time></trkpt><trkpt lat="40.68217200783166" lon="9.286570492575636"><ele>900.9999999999999</ele><time>2026-03-28T09:47:14.001Z</time></trkpt><trkpt lat="40.68228257984515" lon="9.286561711152345"><ele>901.0</ele><time>2026-03-28T09:47:15.001Z</time></trkpt><trkpt lat="40.682388327778284" lon="9.286552687566292"><ele>901.0</ele><time>2026-03-28T09:47:16.001Z</time></trkpt><trkpt lat="40.68247620624315" lon="9.286564034481396"><ele>900.9999999999999</ele><time>2026-03-28T09:47:17.001Z</time></trkpt><trkpt lat="40.682556959105504" lon="9.286594868005627"><ele>901.0</ele><time>2026-03-28T09:47:18.001Z</time></trkpt><trkpt lat="40.68261511786994" lon="9.286641440073582"><ele>901.0</ele><time>2026-03-28T09:47:19.001Z</time></trkpt><trkpt lat="40.68265554795793" lon="9.28677353026468"><ele>901.0</ele><time>2026-03-28T09:47:21.001Z</time></trkpt><trkpt lat="40.68264777311541" lon="9.286879312489829"><ele>900.9999999999999</ele><time>2026-03-28T09:47:22.001Z</time></trkpt><trkpt lat="40.68260531706234" lon="9.286998199361037"><ele>901.0</ele><time>2026-03-28T09:47:23.001Z</time></trkpt><trkpt lat="40.68253315241196" lon="9.287143696058108"><ele>900.6666666666666</ele><time>2026-03-28T09:47:24.001Z</time></trkpt><trkpt lat="40.68245022442936" lon="9.28733609306764"><ele>900.3333333333333</ele><time>2026-03-28T09:47:25.001Z</time></trkpt><trkpt lat="40.68237252200406" lon="9.287509709224832"><ele>900.0</ele><time>2026-03-28T09:47:26.001Z</time></trkpt><trkpt lat="40.68229657262477" lon="9.28766177538636"><ele>900.0</ele><time>2026-03-28T09:47:27.001Z</time></trkpt><trkpt lat="40.68222965675134" lon="9.287799759217734"><ele>900.0</ele><time>2026-03-28T09:47:28.001Z</time></trkpt><trkpt lat="40.682155214264235" lon="9.287917847773388"><ele>900.0</ele><time>2026-03-28T09:47:29.001Z</time></trkpt><trkpt lat="40.68203457438992" lon="9.288011801253647"><ele>900.0</ele><time>2026-03-28T09:47:30.001Z</time></trkpt><trkpt lat="40.68195138750748" lon="9.288144187307712"><ele>898.3333333333333</ele><time>2026-03-28T09:47:31Z</time></trkpt><trkpt lat="40.681844598691214" lon="9.288298369417532"><ele>896.6666666666666</ele><time>2026-03-28T09:47:32Z</time></trkpt><trkpt lat="40.681717248248226" lon="9.288514856085849"><ele>895.0</ele><time>2026-03-28T09:47:33Z</time></trkpt><trkpt lat="40.6816383095102" lon="9.288687830851213"><ele>895.0</ele><time>2026-03-28T09:47:34Z</time></trkpt><trkpt lat="40.68153382557617" lon="9.288816591341522"><ele>895.0</ele><time>2026-03-28T09:47:35Z</time></trkpt><trkpt lat="40.681421252922846" lon="9.288942611080463"><ele>895.0</ele><time>2026-03-28T09:47:36Z</time></trkpt><trkpt lat="40.68127838852131" lon="9.28910350427622"><ele>895.6666666666666</ele><time>2026-03-28T09:47:37Z</time></trkpt><trkpt lat="40.68112212156909" lon="9.289252670866476"><ele>896.3333333333333</ele><time>2026-03-28T09:47:38Z</time></trkpt><trkpt lat="40.68097323731662" lon="9.289371779945585"><ele>897.0</ele><time>2026-03-28T09:47:39Z</time></trkpt><trkpt lat="40.68084654969222" lon="9.289489834893837"><ele>897.6666666666667</ele><time>2026-03-28T09:47:40Z</time></trkpt><trkpt lat="40.68071366562626" lon="9.289613664097125"><ele>898.3333333333334</ele><time>2026-03-28T09:47:41Z</time></trkpt><trkpt lat="40.68056676976082" lon="9.289751440323837"><ele>899.0</ele><time>2026-03-28T09:47:42Z</time></trkpt><trkpt lat="40.68043399962585" lon="9.28988000505226"><ele>899.0</ele><time>2026-03-28T09:47:43Z</time></trkpt><trkpt lat="40.68030387933778" lon="9.29004155665675"><ele>899.0</ele><time>2026-03-28T09:47:44Z</time></trkpt><trkpt lat="40.680198020630776" lon="9.290227806497436"><ele>899.0</ele><time>2026-03-28T09:47:45Z</time></trkpt><trkpt lat="40.680090344445325" lon="9.290368165335881"><ele>898.5</ele><time>2026-03-28T09:47:46Z</time></trkpt><trkpt lat="40.679983904757144" lon="9.29047920874858"><ele>898.0</ele><time>2026-03-28T09:47:47Z</time></trkpt><trkpt lat="40.67985550653607" lon="9.290531615401791"><ele>897.5</ele><time>2026-03-28T09:47:48Z</time></trkpt><trkpt lat="40.67970880134322" lon="9.290589543200207"><ele>897.0</ele><time>2026-03-28T09:47:49Z</time></trkpt><trkpt lat="40.67954527366105" lon="9.290633856614162"><ele>896.3333333333333</ele><time>2026-03-28T09:47:50Z</time></trkpt><trkpt lat="40.679371392566665" lon="9.290641420535446"><ele>895.6666666666666</ele><time>2026-03-28T09:47:51Z</time></trkpt><trkpt lat="40.679198535213" lon="9.290642705416872"><ele>895.0</ele><time>2026-03-28T09:47:52Z</time></trkpt><trkpt lat="40.67907218055073" lon="9.29067129035028"><ele>895.0</ele><time>2026-03-28T09:47:53Z</time></trkpt><trkpt lat="40.678966705748394" lon="9.29069960722914"><ele>895.0</ele><time>2026-03-28T09:47:54Z</time></trkpt><trkpt lat="40.67883655705144" lon="9.29074849980703"><ele>895.0</ele><time>2026-03-28T09:47:55Z</time></trkpt><trkpt lat="40.67867165570595" lon="9.290707548484596"><ele>895.0</ele><time>2026-03-28T09:47:56Z</time></trkpt><trkpt lat="40.678503386959555" lon="9.290714277140024"><ele>895.25</ele><time>2026-03-28T09:47:57Z</time></trkpt><trkpt lat="40.678362047629214" lon="9.290735101419822"><ele>895.5</ele><time>2026-03-28T09:47:58Z</time></trkpt><trkpt lat="40.678242433332294" lon="9.290792495189699"><ele>895.75</ele><time>2026-03-28T09:47:59Z</time></trkpt><trkpt lat="40.67812297551075" lon="9.290848329950446"><ele>896.0</ele><time>2026-03-28T09:48:00Z</time></trkpt><trkpt lat="40.67797614327051" lon="9.290943400816081"><ele>896.0</ele><time>2026-03-28T09:48:01Z</time></trkpt><trkpt lat="40.67782064792988" lon="9.291050546401591"><ele>896.0</ele><time>2026-03-28T09:48:02Z</time></trkpt><trkpt lat="40.67767130370686" lon="9.291104435530627"><ele>896.0</ele><time>2026-03-28T09:48:03Z</time></trkpt><trkpt lat="40.67752864170649" lon="9.291161508310838"><ele>895.0</ele><time>2026-03-28T09:48:04Z</time></trkpt><trkpt lat="40.67737621854146" lon="9.291245061506196"><ele>894.0</ele><time>2026-03-28T09:48:05Z</time></trkpt><trkpt lat="40.67722803534124" lon="9.29129486632321"><ele>893.0</ele><time>2026-03-28T09:48:06Z</time></trkpt><trkpt lat="40.67709987144205" lon="9.291303611502352"><ele>892.0</ele><time>2026-03-28T09:48:07Z</time></trkpt><trkpt lat="40.67699939679516" lon="9.291302620545244"><ele>891.75</ele><time>2026-03-28T09:48:08Z</time></trkpt><trkpt lat="40.67690307462003" lon="9.291271038649388"><ele>891.5</ele><time>2026-03-28T09:48:09Z</time></trkpt><trkpt lat="40.67679945776459" lon="9.291270660531564"><ele>891.25</ele><time>2026-03-28T09:48:10Z</time></trkpt><trkpt lat="40.676694031990216" lon="9.291331755516465"><ele>891.0</ele><time>2026-03-28T09:48:11Z</time></trkpt><trkpt lat="40.6765689292129" lon="9.291412300443776"><ele>890.25</ele><time>2026-03-28T09:48:12Z</time></trkpt><trkpt lat="40.67642050808136" lon="9.291474651092418"><ele>889.5</ele><time>2026-03-28T09:48:13Z</time></trkpt><trkpt lat="40.67628941019331" lon="9.291572658991829"><ele>888.75</ele><time>2026-03-28T09:48:14Z</time></trkpt><trkpt lat="40.67616547350956" lon="9.291640517357047"><ele>888.0</ele><time>2026-03-28T09:48:15Z</time></trkpt><trkpt lat="40.67605891696527" lon="9.29171406863219"><ele>888.0</ele><time>2026-03-28T09:48:16Z</time></trkpt><trkpt lat="40.6759411418316" lon="9.291769995457729"><ele>888.0</ele><time>2026-03-28T09:48:17Z</time></trkpt><trkpt lat="40.67582853157912" lon="9.291857912145378"><ele>888.0</ele><time>2026-03-28T09:48:18Z</time></trkpt><trkpt lat="40.67571816593186" lon="9.291915321544653"><ele>888.0</ele><time>2026-03-28T09:48:19Z</time></trkpt><trkpt lat="40.67561578652516" lon="9.291979024254623"><ele>888.0</ele><time>2026-03-28T09:48:20Z</time></trkpt><trkpt lat="40.67552152606716" lon="9.292005573634707"><ele>888.0</ele><time>2026-03-28T09:48:21Z</time></trkpt><trkpt lat="40.675447023954675" lon="9.292050419234247"><ele>888.0</ele><time>2026-03-28T09:48:22Z</time></trkpt><trkpt lat="40.67534679635471" lon="9.291908944522952"><ele>888.0</ele><time>2026-03-28T09:48:24Z</time></trkpt><trkpt lat="40.675297198223426" lon="9.29178906517246"><ele>888.0</ele><time>2026-03-28T09:48:25Z</time></trkpt><trkpt lat="40.67520783510375" lon="9.291656518393038"><ele>886.25</ele><time>2026-03-28T09:48:26Z</time></trkpt><trkpt lat="40.67511010790749" lon="9.291543101795606"><ele>884.5</ele><time>2026-03-28T09:48:27Z</time></trkpt><trkpt lat="40.67499523320028" lon="9.291415844861445"><ele>882.75</ele><time>2026-03-28T09:48:28Z</time></trkpt><trkpt lat="40.674874862888075" lon="9.291287500322563"><ele>881.0</ele><time>2026-03-28T09:48:29Z</time></trkpt><trkpt lat="40.67475823082511" lon="9.291172506416032"><ele>880.25</ele><time>2026-03-28T09:48:30Z</time></trkpt><trkpt lat="40.674650412522105" lon="9.29107647489605"><ele>879.5</ele><time>2026-03-28T09:48:31Z</time></trkpt><trkpt lat="40.674547333781646" lon="9.290994591017585"><ele>878.75</ele><time>2026-03-28T09:48:32Z</time></trkpt><trkpt lat="40.6744475452134" lon="9.290926201774285"><ele>878.0</ele><time>2026-03-28T09:48:33Z</time></trkpt><trkpt lat="40.67432959569605" lon="9.290878094222002"><ele>877.0</ele><time>2026-03-28T09:48:34Z</time></trkpt><trkpt lat="40.6742238535518" lon="9.29083908176169"><ele>876.0</ele><time>2026-03-28T09:48:35Z</time></trkpt><trkpt lat="40.6741278455747" lon="9.290803154300358"><ele>875.0</ele><time>2026-03-28T09:48:36Z</time></trkpt><trkpt lat="40.674043078185335" lon="9.290767222445192"><ele>874.0</ele><time>2026-03-28T09:48:37Z</time></trkpt><trkpt lat="40.67393982272962" lon="9.290742489335267"><ele>873.0</ele><time>2026-03-28T09:48:38Z</time></trkpt><trkpt lat="40.67381378830549" lon="9.290711978952546"><ele>873.0</ele><time>2026-03-28T09:48:39Z</time></trkpt><trkpt lat="40.67369720396562" lon="9.29067186911825"><ele>873.0</ele><time>2026-03-28T09:48:40Z</time></trkpt><trkpt lat="40.67359519669972" lon="9.290632019970452"><ele>873.0</ele><time>2026-03-28T09:48:41Z</time></trkpt><trkpt lat="40.67350763385481" lon="9.290594356401586"><ele>873.0</ele><time>2026-03-28T09:48:42Z</time></trkpt><trkpt lat="40.67342521199673" lon="9.290551394782195"><ele>873.0</ele><time>2026-03-28T09:48:43Z</time></trkpt><trkpt lat="40.6733573494147" lon="9.290500500453751"><ele>871.5999999999999</ele><time>2026-03-28T09:48:44Z</time></trkpt><trkpt lat="40.673282012515145" lon="9.2904379650694"><ele>870.1999999999999</ele><time>2026-03-28T09:48:45Z</time></trkpt><trkpt lat="40.67322000890191" lon="9.290375909069715"><ele>868.8</ele><time>2026-03-28T09:48:46Z</time></trkpt><trkpt lat="40.6731559753821" lon="9.290330532658892"><ele>867.4</ele><time>2026-03-28T09:48:47Z</time></trkpt><trkpt lat="40.6730871759948" lon="9.290306784536721"><ele>866.0</ele><time>2026-03-28T09:48:58.001Z</time></trkpt><trkpt lat="40.67319929808441" lon="9.290196822715723"><ele>866.0000000000001</ele><time>2026-03-28T09:49:01.001Z</time></trkpt><trkpt lat="40.67321808052051" lon="9.29011755738456"><ele>866.0</ele><time>2026-03-28T09:49:02.001Z</time></trkpt><trkpt lat="40.67322808992418" lon="9.290020390679903"><ele>866.0</ele><time>2026-03-28T09:49:03.001Z</time></trkpt><trkpt lat="40.67324234514349" lon="9.289904594901099"><ele>866.0</ele><time>2026-03-28T09:49:04.001Z</time></trkpt><trkpt lat="40.673284897942516" lon="9.289765077237853"><ele>866.0000000000001</ele><time>2026-03-28T09:49:05.001Z</time></trkpt><trkpt lat="40.67332375947211" lon="9.28965153526367"><ele>866.0</ele><time>2026-03-28T09:49:06.001Z</time></trkpt><trkpt lat="40.67337704672185" lon="9.289517483700285"><ele>865.4</ele><time>2026-03-28T09:49:07.001Z</time></trkpt><trkpt lat="40.673413243670865" lon="9.289372252184945"><ele>864.8</ele><time>2026-03-28T09:49:08.001Z</time></trkpt><trkpt lat="40.67345875042278" lon="9.289258837952797"><ele>864.1999999999999</ele><time>2026-03-28T09:49:09.001Z</time></trkpt><trkpt lat="40.673501571908425" lon="9.289151600108408"><ele>863.5999999999999</ele><time>2026-03-28T09:49:10.001Z</time></trkpt><trkpt lat="40.67356830415397" lon="9.289050337239702"><ele>863.0</ele><time>2026-03-28T09:49:11.001Z</time></trkpt><trkpt lat="40.673676252004036" lon="9.28894321007636"><ele>861.0</ele><time>2026-03-28T09:49:12.001Z</time></trkpt><trkpt lat="40.67381756447619" lon="9.288830732164897"><ele>859.0</ele><time>2026-03-28T09:49:13.001Z</time></trkpt><trkpt lat="40.673925179222294" lon="9.288760789252642"><ele>857.0</ele><time>2026-03-28T09:49:14.001Z</time></trkpt><trkpt lat="40.67401819326003" lon="9.288692564647326"><ele>855.0</ele><time>2026-03-28T09:49:15.001Z</time></trkpt><trkpt lat="40.6741214826286" lon="9.288597512796853"><ele>855.0</ele><time>2026-03-28T09:49:16.001Z</time></trkpt><trkpt lat="40.67422938131459" lon="9.2884891592124"><ele>855.0</ele><time>2026-03-28T09:49:17.001Z</time></trkpt><trkpt lat="40.67432610421407" lon="9.288399676990082"><ele>855.0</ele><time>2026-03-28T09:49:18.001Z</time></trkpt><trkpt lat="40.674404232912394" lon="9.288319683766318"><ele>855.0</ele><time>2026-03-28T09:49:19.001Z</time></trkpt><trkpt lat="40.67446712853023" lon="9.288233374379997"><ele>855.0</ele><time>2026-03-28T09:49:20.001Z</time></trkpt><trkpt lat="40.67453472738329" lon="9.288155584553053"><ele>852.8</ele><time>2026-03-28T09:49:21.001Z</time></trkpt><trkpt lat="40.67460338372076" lon="9.28807606628949"><ele>850.6</ele><time>2026-03-28T09:49:22.001Z</time></trkpt><trkpt lat="40.67467686228228" lon="9.288022356604426"><ele>848.4000000000001</ele><time>2026-03-28T09:49:23.001Z</time></trkpt><trkpt lat="40.67474339309888" lon="9.287963905416602"><ele>846.2</ele><time>2026-03-28T09:49:24Z</time></trkpt><trkpt lat="40.67483080932371" lon="9.287933315173055"><ele>844.0</ele><time>2026-03-28T09:49:25Z</time></trkpt><trkpt lat="40.674942983912054" lon="9.287902378161428"><ele>844.0</ele><time>2026-03-28T09:49:26Z</time></trkpt><trkpt lat="40.67506079696599" lon="9.287888843245321"><ele>844.0</ele><time>2026-03-28T09:49:27Z</time></trkpt><trkpt lat="40.67518058555308" lon="9.287893887880204"><ele>844.0</ele><time>2026-03-28T09:49:28Z</time></trkpt><trkpt lat="40.67529904393452" lon="9.287892081893329"><ele>844.0</ele><time>2026-03-28T09:49:29Z</time></trkpt><trkpt lat="40.67541980290104" lon="9.287879882254298"><ele>844.4000000000001</ele><time>2026-03-28T09:49:30Z</time></trkpt><trkpt lat="40.67553415376882" lon="9.287868922002465"><ele>844.8</ele><time>2026-03-28T09:49:31Z</time></trkpt><trkpt lat="40.675640739502455" lon="9.287861345468677"><ele>845.2</ele><time>2026-03-28T09:49:32Z</time></trkpt><trkpt lat="40.675741974499665" lon="9.287852912341663"><ele>845.5999999999999</ele><time>2026-03-28T09:49:33Z</time></trkpt><trkpt lat="40.67583085326346" lon="9.287847123692755"><ele>846.0</ele><time>2026-03-28T09:49:34Z</time></trkpt><trkpt lat="40.6758996677391" lon="9.287837914661946"><ele>846.0</ele><time>2026-03-28T09:49:35Z</time></trkpt><trkpt lat="40.67597858846665" lon="9.287797181489614"><ele>846.0</ele><time>2026-03-28T09:49:37Z</time></trkpt><trkpt lat="40.675998166300836" lon="9.287661963031312"><ele>846.0</ele><time>2026-03-28T09:49:39Z</time></trkpt><trkpt lat="40.67593884025141" lon="9.28753642482858"><ele>846.0</ele><time>2026-03-28T09:49:41Z</time></trkpt><trkpt lat="40.67584339555154" lon="9.287379077814423"><ele>850.0</ele><time>2026-03-28T09:49:43Z</time></trkpt><trkpt lat="40.67576287905021" lon="9.287249673842704"><ele>854.0</ele><time>2026-03-28T09:49:44Z</time></trkpt><trkpt lat="40.675653493766845" lon="9.287079217098738"><ele>858.0</ele><time>2026-03-28T09:49:45Z</time></trkpt><trkpt lat="40.67551864115409" lon="9.286911473309654"><ele>858.0</ele><time>2026-03-28T09:49:46Z</time></trkpt><trkpt lat="40.67541603182606" lon="9.28675162493747"><ele>858.0</ele><time>2026-03-28T09:49:47Z</time></trkpt><trkpt lat="40.67531112861705" lon="9.286603524358004"><ele>858.0</ele><time>2026-03-28T09:49:48Z</time></trkpt><trkpt lat="40.67522236759982" lon="9.286467783862554"><ele>858.0</ele><time>2026-03-28T09:49:49Z</time></trkpt><trkpt lat="40.675137667394715" lon="9.286317110798738"><ele>854.0</ele><time>2026-03-28T09:49:50Z</time></trkpt><trkpt lat="40.67505193421056" lon="9.28618066374896"><ele>850.0</ele><time>2026-03-28T09:49:51Z</time></trkpt><trkpt lat="40.67496677086693" lon="9.286042073548263"><ele>846.0</ele><time>2026-03-28T09:49:52Z</time></trkpt><trkpt lat="40.67489084744852" lon="9.285912236653951"><ele>842.0</ele><time>2026-03-28T09:49:53Z</time></trkpt><trkpt lat="40.67480830527777" lon="9.285794276937068"><ele>842.0</ele><time>2026-03-28T09:49:54Z</time></trkpt><trkpt lat="40.674747279001636" lon="9.285643511440881"><ele>842.0</ele><time>2026-03-28T09:49:55Z</time></trkpt><trkpt lat="40.67466691700831" lon="9.285529238982289"><ele>842.0</ele><time>2026-03-28T09:49:56Z</time></trkpt><trkpt lat="40.674608132541664" lon="9.285399029499603"><ele>842.0</ele><time>2026-03-28T09:49:57Z</time></trkpt><trkpt lat="40.674549306109206" lon="9.285294685743727"><ele>843.8</ele><time>2026-03-28T09:49:58Z</time></trkpt><trkpt lat="40.67448134272174" lon="9.285183923988"><ele>845.6</ele><time>2026-03-28T09:49:59Z</time></trkpt><trkpt lat="40.674416926599875" lon="9.285071085660487"><ele>847.4</ele><time>2026-03-28T09:50:00Z</time></trkpt><trkpt lat="40.674354065244444" lon="9.28497743833804"><ele>849.1999999999999</ele><time>2026-03-28T09:50:01Z</time></trkpt><trkpt lat="40.674295997433354" lon="9.284887150636914"><ele>851.0</ele><time>2026-03-28T09:50:02Z</time></trkpt><trkpt lat="40.674238537447756" lon="9.284786801722255"><ele>847.4</ele><time>2026-03-28T09:50:03Z</time></trkpt><trkpt lat="40.67419538508023" lon="9.284721340350016"><ele>843.8</ele><time>2026-03-28T09:50:04Z</time></trkpt><trkpt lat="40.67411297317652" lon="9.284666249471709"><ele>840.1999999999999</ele><time>2026-03-28T09:50:05Z</time></trkpt><trkpt lat="40.67399413074919" lon="9.284702828297911"><ele>836.5999999999999</ele><time>2026-03-28T09:50:06Z</time></trkpt><trkpt lat="40.67387809616299" lon="9.284709832767227"><ele>833.0</ele><time>2026-03-28T09:50:07Z</time></trkpt><trkpt lat="40.67378366357343" lon="9.284665317113888"><ele>833.0000000000001</ele><time>2026-03-28T09:50:08Z</time></trkpt><trkpt lat="40.673713870237314" lon="9.28464125995784"><ele>833.0</ele><time>2026-03-28T09:50:09Z</time></trkpt><trkpt lat="40.67365138838756" lon="9.28461150033216"><ele>833.0</ele><time>2026-03-28T09:50:10Z</time></trkpt><trkpt lat="40.673584703918756" lon="9.284564706247949"><ele>833.0</ele><time>2026-03-28T09:50:11Z</time></trkpt><trkpt lat="40.67352519676316" lon="9.284488710059394"><ele>833.0000000000001</ele><time>2026-03-28T09:50:12Z</time></trkpt><trkpt lat="40.673461634257976" lon="9.284382554619468"><ele>833.0</ele><time>2026-03-28T09:50:13Z</time></trkpt><trkpt lat="40.67340729445553" lon="9.284256750314801"><ele>831.0</ele><time>2026-03-28T09:50:14Z</time></trkpt><trkpt lat="40.6733557572371" lon="9.284121111062518"><ele>829.0</ele><time>2026-03-28T09:50:15Z</time></trkpt><trkpt lat="40.67329682826671" lon="9.283949774014632"><ele>827.0</ele><time>2026-03-28T09:50:16Z</time></trkpt><trkpt lat="40.67322710006068" lon="9.28378005922769"><ele>825.0</ele><time>2026-03-28T09:50:17Z</time></trkpt><trkpt lat="40.6731776307415" lon="9.283603204868077"><ele>829.0</ele><time>2026-03-28T09:50:18Z</time></trkpt><trkpt lat="40.67310723748816" lon="9.283466639484624"><ele>833.0</ele><time>2026-03-28T09:50:19Z</time></trkpt><trkpt lat="40.67304910464281" lon="9.283290171603378"><ele>837.0</ele><time>2026-03-28T09:50:20Z</time></trkpt><trkpt lat="40.67298163767583" lon="9.283149259833326"><ele>841.0</ele><time>2026-03-28T09:50:21Z</time></trkpt><trkpt lat="40.67295701986585" lon="9.282992221833258"><ele>842.5</ele><time>2026-03-28T09:50:22Z</time></trkpt><trkpt lat="40.67291915289887" lon="9.282806538817722"><ele>844.0</ele><time>2026-03-28T09:50:23Z</time></trkpt><trkpt lat="40.67287212534813" lon="9.28260835760023"><ele>845.5</ele><time>2026-03-28T09:50:24Z</time></trkpt><trkpt lat="40.672843844276244" lon="9.282419682554488"><ele>847.0</ele><time>2026-03-28T09:50:25Z</time></trkpt><trkpt lat="40.672827623917314" lon="9.28223790613603"><ele>848.5</ele><time>2026-03-28T09:50:26Z</time></trkpt><trkpt lat="40.672804463486514" lon="9.282063454432325"><ele>850.0</ele><time>2026-03-28T09:50:27Z</time></trkpt><trkpt lat="40.67275842381005" lon="9.28189926801337"><ele>851.5</ele><time>2026-03-28T09:50:28Z</time></trkpt><trkpt lat="40.67269898659123" lon="9.28175828741765"><ele>853.0</ele><time>2026-03-28T09:50:29Z</time></trkpt><trkpt lat="40.672637963505295" lon="9.281645074370163"><ele>849.25</ele><time>2026-03-28T09:50:30Z</time></trkpt><trkpt lat="40.67255690061935" lon="9.281563094727368"><ele>845.5</ele><time>2026-03-28T09:50:31Z</time></trkpt><trkpt lat="40.67242273274316" lon="9.281460543127322"><ele>841.75</ele><time>2026-03-28T09:50:32Z</time></trkpt><trkpt lat="40.67227927239262" lon="9.281328706411998"><ele>838.0</ele><time>2026-03-28T09:50:33Z</time></trkpt><trkpt lat="40.672156250731305" lon="9.281177932548832"><ele>838.0</ele><time>2026-03-28T09:50:34Z</time></trkpt><trkpt lat="40.672086922617126" lon="9.281053981023033"><ele>838.0</ele><time>2026-03-28T09:50:35Z</time></trkpt><trkpt lat="40.67204094724838" lon="9.280914498206377"><ele>838.0</ele><time>2026-03-28T09:50:36Z</time></trkpt><trkpt lat="40.67198871848696" lon="9.280711661775069"><ele>838.0</ele><time>2026-03-28T09:50:37Z</time></trkpt><trkpt lat="40.67194365545356" lon="9.280482394920954"><ele>832.6666666666666</ele><time>2026-03-28T09:50:38Z</time></trkpt><trkpt lat="40.67190247239695" lon="9.280295846157019"><ele>827.3333333333333</ele><time>2026-03-28T09:50:39Z</time></trkpt><trkpt lat="40.67184551108442" lon="9.280143238347868"><ele>822.0</ele><time>2026-03-28T09:50:40Z</time></trkpt><trkpt lat="40.67174016929912" lon="9.279948658880183"><ele>822.0</ele><time>2026-03-28T09:50:41Z</time></trkpt><trkpt lat="40.67163315785034" lon="9.279786005546741"><ele>822.0</ele><time>2026-03-28T09:50:42Z</time></trkpt><trkpt lat="40.67154544016531" lon="9.279639773547538"><ele>822.0</ele><time>2026-03-28T09:50:43Z</time></trkpt><trkpt lat="40.67144049717288" lon="9.279480745006639"><ele>821.75</ele><time>2026-03-28T09:50:44Z</time></trkpt><trkpt lat="40.67135064869765" lon="9.279333886181124"><ele>821.5</ele><time>2026-03-28T09:50:45Z</time></trkpt><trkpt lat="40.67127578428435" lon="9.279217437544474"><ele>821.25</ele><time>2026-03-28T09:50:46Z</time></trkpt><trkpt lat="40.67119091150251" lon="9.279163944237917"><ele>821.0</ele><time>2026-03-28T09:50:47Z</time></trkpt><trkpt lat="40.67108607440799" lon="9.279114495483007"><ele>821.0</ele><time>2026-03-28T09:50:48Z</time></trkpt><trkpt lat="40.67101504707954" lon="9.279031371330145"><ele>821.0</ele><time>2026-03-28T09:50:49Z</time></trkpt><trkpt lat="40.670962569858375" lon="9.278902694514207"><ele>821.0</ele><time>2026-03-28T09:50:50Z</time></trkpt><trkpt lat="40.670894605795965" lon="9.278728467534037"><ele>821.0</ele><time>2026-03-28T09:50:51Z</time></trkpt><trkpt lat="40.67080588106527" lon="9.278516412711369"><ele>825.3333333333334</ele><time>2026-03-28T09:50:52Z</time></trkpt><trkpt lat="40.67072548707773" lon="9.278300746343756"><ele>829.6666666666667</ele><time>2026-03-28T09:50:53Z</time></trkpt><trkpt lat="40.67064661590879" lon="9.278079328290522"><ele>834.0</ele><time>2026-03-28T09:50:54Z</time></trkpt><trkpt lat="40.670599903564785" lon="9.277892869308095"><ele>837.5</ele><time>2026-03-28T09:50:55Z</time></trkpt><trkpt lat="40.67057151462849" lon="9.277730293592498"><ele>841.0</ele><time>2026-03-28T09:50:56Z</time></trkpt><trkpt lat="40.670551869365376" lon="9.277580448802475"><ele>844.5</ele><time>2026-03-28T09:50:57Z</time></trkpt><trkpt lat="40.670523432976545" lon="9.277455585160496"><ele>848.0</ele><time>2026-03-28T09:50:58Z</time></trkpt><trkpt lat="40.670463588536535" lon="9.277330626908013"><ele>848.5</ele><time>2026-03-28T09:50:59Z</time></trkpt><trkpt lat="40.67037969176782" lon="9.277176438386064"><ele>849.0</ele><time>2026-03-28T09:51:00Z</time></trkpt><trkpt lat="40.67028978162067" lon="9.277018729254097"><ele>849.5</ele><time>2026-03-28T09:51:01.001Z</time></trkpt><trkpt lat="40.67021106400185" lon="9.276873983456628"><ele>850.0</ele><time>2026-03-28T09:51:02.001Z</time></trkpt><trkpt lat="40.6701099929261" lon="9.276747563539901"><ele>850.0</ele><time>2026-03-28T09:51:03.001Z</time></trkpt><trkpt lat="40.669973140164174" lon="9.276641219884693"><ele>850.0</ele><time>2026-03-28T09:51:04.001Z</time></trkpt><trkpt lat="40.66981493000439" lon="9.27651606508211"><ele>850.0</ele><time>2026-03-28T09:51:05.001Z</time></trkpt><trkpt lat="40.6696928234222" lon="9.27640544140616"><ele>851.0</ele><time>2026-03-28T09:51:06.001Z</time></trkpt><trkpt lat="40.669599243456645" lon="9.27631273882234"><ele>852.0</ele><time>2026-03-28T09:51:07.001Z</time></trkpt><trkpt lat="40.66951052738416" lon="9.276189455808428"><ele>853.0</ele><time>2026-03-28T09:51:08.001Z</time></trkpt><trkpt lat="40.66943610901036" lon="9.276040767918344"><ele>854.0</ele><time>2026-03-28T09:51:09.001Z</time></trkpt><trkpt lat="40.669381548026934" lon="9.275912481565845"><ele>854.0</ele><time>2026-03-28T09:51:10.001Z</time></trkpt><trkpt lat="40.66933709268363" lon="9.27578857653673"><ele>854.0000000000001</ele><time>2026-03-28T09:51:11.001Z</time></trkpt><trkpt lat="40.66930001105743" lon="9.275662259435093"><ele>854.0000000000001</ele><time>2026-03-28T09:51:12.001Z</time></trkpt><trkpt lat="40.66928918693401" lon="9.275530848507653"><ele>854.0</ele><time>2026-03-28T09:51:13.001Z</time></trkpt><trkpt lat="40.669291164286015" lon="9.275371389976234"><ele>854.0</ele><time>2026-03-28T09:51:14.001Z</time></trkpt><trkpt lat="40.66931409851793" lon="9.275178972788082"><ele>853.6666666666667</ele><time>2026-03-28T09:51:15.001Z</time></trkpt><trkpt lat="40.66935636511132" lon="9.275000230002314"><ele>853.3333333333333</ele><time>2026-03-28T09:51:16.001Z</time></trkpt><trkpt lat="40.66942777989558" lon="9.274816737123535"><ele>853.0</ele><time>2026-03-28T09:51:17.001Z</time></trkpt><trkpt lat="40.66951434540426" lon="9.27459284256115"><ele>858.0</ele><time>2026-03-28T09:51:18.001Z</time></trkpt><trkpt lat="40.66957901959884" lon="9.274373551271099"><ele>863.0</ele><time>2026-03-28T09:51:19.001Z</time></trkpt><trkpt lat="40.66961652559863" lon="9.274113105419836"><ele>868.0</ele><time>2026-03-28T09:51:20.001Z</time></trkpt><trkpt lat="40.66965853935986" lon="9.273854841425976"><ele>869.75</ele><time>2026-03-28T09:51:21.001Z</time></trkpt><trkpt lat="40.66969423054003" lon="9.273639444494666"><ele>871.5</ele><time>2026-03-28T09:51:22.001Z</time></trkpt><trkpt lat="40.66970766643071" lon="9.273468485788745"><ele>873.25</ele><time>2026-03-28T09:51:23.001Z</time></trkpt><trkpt lat="40.66971421569937" lon="9.273295710302568"><ele>875.0</ele><time>2026-03-28T09:51:24.001Z</time></trkpt><trkpt lat="40.66973715411369" lon="9.27313408702041"><ele>875.5</ele><time>2026-03-28T09:51:25.001Z</time></trkpt><trkpt lat="40.66978949040472" lon="9.272954934042337"><ele>876.0</ele><time>2026-03-28T09:51:26.001Z</time></trkpt><trkpt lat="40.66986036402579" lon="9.27275579535347"><ele>876.5</ele><time>2026-03-28T09:51:27.001Z</time></trkpt><trkpt lat="40.66991815729941" lon="9.27259830170095"><ele>877.0</ele><time>2026-03-28T09:51:28.001Z</time></trkpt><trkpt lat="40.66994742664773" lon="9.272458498216153"><ele>877.0</ele><time>2026-03-28T09:51:29.001Z</time></trkpt><trkpt lat="40.669950495096124" lon="9.272323933774317"><ele>877.0</ele><time>2026-03-28T09:51:30.001Z</time></trkpt><trkpt lat="40.669934855996445" lon="9.272169811080603"><ele>877.0</ele><time>2026-03-28T09:51:31.001Z</time></trkpt><trkpt lat="40.66989881364037" lon="9.272013129656184"><ele>877.0</ele><time>2026-03-28T09:51:32.001Z</time></trkpt><trkpt lat="40.66983543994583" lon="9.271855156247446"><ele>878.0</ele><time>2026-03-28T09:51:33.001Z</time></trkpt><trkpt lat="40.669760460636155" lon="9.271696025176064"><ele>879.0</ele><time>2026-03-28T09:51:34.001Z</time></trkpt><trkpt lat="40.66971798608532" lon="9.271565053500263"><ele>880.0</ele><time>2026-03-28T09:51:35Z</time></trkpt><trkpt lat="40.669705924165314" lon="9.271444036964649"><ele>881.0</ele><time>2026-03-28T09:51:36Z</time></trkpt><trkpt lat="40.66971990417744" lon="9.27128525763712"><ele>882.3333333333334</ele><time>2026-03-28T09:51:37Z</time></trkpt><trkpt lat="40.669737161349055" lon="9.271088442157096"><ele>883.6666666666667</ele><time>2026-03-28T09:51:38Z</time></trkpt><trkpt lat="40.66973781963584" lon="9.270859740079668"><ele>885.0</ele><time>2026-03-28T09:51:39Z</time></trkpt><trkpt lat="40.669718651843006" lon="9.270627518510924"><ele>885.5</ele><time>2026-03-28T09:51:40Z</time></trkpt><trkpt lat="40.66970389572914" lon="9.27043869793766"><ele>886.0</ele><time>2026-03-28T09:51:41Z</time></trkpt><trkpt lat="40.66966807066875" lon="9.27029224353086"><ele>886.5</ele><time>2026-03-28T09:51:42Z</time></trkpt><trkpt lat="40.6696066628077" lon="9.270148227504146"><ele>887.0</ele><time>2026-03-28T09:51:43Z</time></trkpt><trkpt lat="40.66953083089726" lon="9.269996598167358"><ele>887.0</ele><time>2026-03-28T09:51:44Z</time></trkpt><trkpt lat="40.66947846150578" lon="9.269841012101265"><ele>887.0</ele><time>2026-03-28T09:51:45Z</time></trkpt><trkpt lat="40.669457619393334" lon="9.26968065430552"><ele>887.0</ele><time>2026-03-28T09:51:46Z</time></trkpt><trkpt lat="40.66947219582942" lon="9.269503418449888"><ele>887.0</ele><time>2026-03-28T09:51:47Z</time></trkpt><trkpt lat="40.66951648727755" lon="9.269334293763938"><ele>887.25</ele><time>2026-03-28T09:51:48Z</time></trkpt><trkpt lat="40.66956477216886" lon="9.269173150128555"><ele>887.5</ele><time>2026-03-28T09:51:49Z</time></trkpt><trkpt lat="40.66958146625497" lon="9.269047958288896"><ele>887.75</ele><time>2026-03-28T09:51:50Z</time></trkpt><trkpt lat="40.66956195355532" lon="9.268923340616915"><ele>888.0</ele><time>2026-03-28T09:51:51Z</time></trkpt><trkpt lat="40.66951491734966" lon="9.26876313058818"><ele>888.75</ele><time>2026-03-28T09:51:52Z</time></trkpt><trkpt lat="40.66946771055204" lon="9.268611430620368"><ele>889.5</ele><time>2026-03-28T09:51:53Z</time></trkpt><trkpt lat="40.66945789279175" lon="9.268463684980091"><ele>890.25</ele><time>2026-03-28T09:51:54Z</time></trkpt><trkpt lat="40.6694817832159" lon="9.268276797063908"><ele>891.0</ele><time>2026-03-28T09:51:55Z</time></trkpt><trkpt lat="40.669513516762436" lon="9.268055475035586"><ele>888.25</ele><time>2026-03-28T09:51:56Z</time></trkpt><trkpt lat="40.66953650566779" lon="9.267865384076906"><ele>885.5</ele><time>2026-03-28T09:51:57Z</time></trkpt><trkpt lat="40.66955685193704" lon="9.267699028247968"><ele>882.75</ele><time>2026-03-28T09:51:58Z</time></trkpt><trkpt lat="40.66957451200036" lon="9.267550569673"><ele>880.0</ele><time>2026-03-28T09:51:59Z</time></trkpt><trkpt lat="40.66960856633676" lon="9.267418030150205"><ele>880.0</ele><time>2026-03-28T09:52:00Z</time></trkpt><trkpt lat="40.6696781294427" lon="9.267290679709586"><ele>880.0</ele><time>2026-03-28T09:52:01Z</time></trkpt><trkpt lat="40.66978469427223" lon="9.267188888479572"><ele>880.0</ele><time>2026-03-28T09:52:02Z</time></trkpt><trkpt lat="40.669917063858975" lon="9.26709340500655"><ele>880.0</ele><time>2026-03-28T09:52:03Z</time></trkpt><trkpt lat="40.670055985769885" lon="9.26698837607092"><ele>878.0</ele><time>2026-03-28T09:52:04Z</time></trkpt><trkpt lat="40.67018693343931" lon="9.266856892602789"><ele>876.0</ele><time>2026-03-28T09:52:05Z</time></trkpt><trkpt lat="40.670297549753336" lon="9.266710354701372"><ele>874.0</ele><time>2026-03-28T09:52:06Z</time></trkpt><trkpt lat="40.67039628576635" lon="9.266550430476908"><ele>875.5</ele><time>2026-03-28T09:52:07Z</time></trkpt><trkpt lat="40.6704917555927" lon="9.266360905110298"><ele>877.0</ele><time>2026-03-28T09:52:08Z</time></trkpt><trkpt lat="40.67057229743078" lon="9.266201584598406"><ele>878.5</ele><time>2026-03-28T09:52:09Z</time></trkpt><trkpt lat="40.67064321661604" lon="9.266062557570859"><ele>880.0</ele><time>2026-03-28T09:52:10Z</time></trkpt><trkpt lat="40.67069686318927" lon="9.265950304552684"><ele>879.9999999999999</ele><time>2026-03-28T09:52:11Z</time></trkpt><trkpt lat="40.670745026106296" lon="9.265858440338473"><ele>880.0</ele><time>2026-03-28T09:52:12Z</time></trkpt><trkpt lat="40.670778705337256" lon="9.265786208589967"><ele>880.0</ele><time>2026-03-28T09:52:13Z</time></trkpt><trkpt lat="40.67079930636937" lon="9.265703568627385"><ele>880.0</ele><time>2026-03-28T09:52:16Z</time></trkpt><trkpt lat="40.67075289032492" lon="9.265640484080489"><ele>879.9999999999999</ele><time>2026-03-28T09:53:16.001Z</time></trkpt><trkpt lat="40.67075897880674" lon="9.265525945729102"><ele>880.0</ele><time>2026-03-28T09:57:54.999Z</time></trkpt><trkpt lat="40.67081372260053" lon="9.265399927695281"><ele>879.4</ele><time>2026-03-28T09:57:57.999Z</time></trkpt><trkpt lat="40.67086810024879" lon="9.265305055022663"><ele>878.8</ele><time>2026-03-28T09:57:58.999Z</time></trkpt><trkpt lat="40.670924482678544" lon="9.265199049737994"><ele>878.2</ele><time>2026-03-28T09:57:59.999Z</time></trkpt><trkpt lat="40.67098127916967" lon="9.265102309622517"><ele>877.6</ele><time>2026-03-28T09:58:00.999Z</time></trkpt><trkpt lat="40.6710183431837" lon="9.265008616161758"><ele>877.0</ele><time>2026-03-28T09:58:01.999Z</time></trkpt><trkpt lat="40.67105325141501" lon="9.264897037447952"><ele>877.0</ele><time>2026-03-28T09:58:02.999Z</time></trkpt><trkpt lat="40.671079044185774" lon="9.264782905803973"><ele>877.0</ele><time>2026-03-28T09:58:03.999Z</time></trkpt><trkpt lat="40.67109139286264" lon="9.264635847348133"><ele>877.0</ele><time>2026-03-28T09:58:04.999Z</time></trkpt><trkpt lat="40.6711001382487" lon="9.264479785062951"><ele>877.0</ele><time>2026-03-28T09:58:05.999Z</time></trkpt><trkpt lat="40.6711339111975" lon="9.264337202056032"><ele>877.0</ele><time>2026-03-28T09:58:06.999Z</time></trkpt><trkpt lat="40.67115788628826" lon="9.264206488646414"><ele>876.2</ele><time>2026-03-28T09:58:07.999Z</time></trkpt><trkpt lat="40.67118313198538" lon="9.264083153980723"><ele>875.4000000000001</ele><time>2026-03-28T09:58:08.999Z</time></trkpt><trkpt lat="40.67119556685078" lon="9.263961655823334"><ele>874.5999999999999</ele><time>2026-03-28T09:58:09.999Z</time></trkpt><trkpt lat="40.67121944887182" lon="9.263843699315483"><ele>873.8</ele><time>2026-03-28T09:58:10.999Z</time></trkpt><trkpt lat="40.67125803281052" lon="9.263742173334942"><ele>873.0</ele><time>2026-03-28T09:58:11.999Z</time></trkpt><trkpt lat="40.67128653278109" lon="9.263627213081852"><ele>871.5</ele><time>2026-03-28T09:58:12.999Z</time></trkpt><trkpt lat="40.671323067976864" lon="9.263483070938976"><ele>870.0</ele><time>2026-03-28T09:58:13.999Z</time></trkpt><trkpt lat="40.671382041911684" lon="9.263340108289148"><ele>868.5</ele><time>2026-03-28T09:58:14.999Z</time></trkpt><trkpt lat="40.671450492237085" lon="9.263213319772268"><ele>867.0</ele><time>2026-03-28T09:58:15.999Z</time></trkpt><trkpt lat="40.671534507077816" lon="9.26310661164584"><ele>864.5</ele><time>2026-03-28T09:58:16.999Z</time></trkpt><trkpt lat="40.671610141185546" lon="9.262972852022935"><ele>862.0</ele><time>2026-03-28T09:58:17.999Z</time></trkpt><trkpt lat="40.67169046537215" lon="9.26284007728487"><ele>859.5</ele><time>2026-03-28T09:58:18.999Z</time></trkpt><trkpt lat="40.671761480889465" lon="9.262709421597744"><ele>857.0</ele><time>2026-03-28T09:58:19.999Z</time></trkpt><trkpt lat="40.671831796656946" lon="9.26260001353523"><ele>857.0</ele><time>2026-03-28T09:58:20.999Z</time></trkpt><trkpt lat="40.671863660146016" lon="9.2624677886058"><ele>857.0</ele><time>2026-03-28T09:58:21.999Z</time></trkpt><trkpt lat="40.67191317333957" lon="9.26234414867269"><ele>857.0</ele><time>2026-03-28T09:58:22.999Z</time></trkpt><trkpt lat="40.67193539007938" lon="9.26221205710142"><ele>857.0</ele><time>2026-03-28T09:58:23.999Z</time></trkpt><trkpt lat="40.67194036803973" lon="9.262053962023577"><ele>857.0</ele><time>2026-03-28T09:58:24.999Z</time></trkpt><trkpt lat="40.671914591955336" lon="9.261864225430115"><ele>855.0</ele><time>2026-03-28T09:58:25.999Z</time></trkpt><trkpt lat="40.67186134006896" lon="9.26167000318952"><ele>853.0</ele><time>2026-03-28T09:58:26.999Z</time></trkpt><trkpt lat="40.67185450350391" lon="9.26146131425777"><ele>851.0</ele><time>2026-03-28T09:58:27.999Z</time></trkpt><trkpt lat="40.67184341028531" lon="9.261263047747072"><ele>850.3333333333334</ele><time>2026-03-28T09:58:28.999Z</time></trkpt><trkpt lat="40.67184614977432" lon="9.261044308631131"><ele>849.6666666666667</ele><time>2026-03-28T09:58:29.999Z</time></trkpt><trkpt lat="40.67186546546837" lon="9.260834295615009"><ele>849.0</ele><time>2026-03-28T09:58:30.999Z</time></trkpt><trkpt lat="40.67189265288116" lon="9.260612997629956"><ele>849.0</ele><time>2026-03-28T09:58:31.999Z</time></trkpt><trkpt lat="40.67192503076075" lon="9.260388869341933"><ele>849.0</ele><time>2026-03-28T09:58:32.999Z</time></trkpt><trkpt lat="40.67194341795843" lon="9.260163350639933"><ele>849.0</ele><time>2026-03-28T09:58:33.999Z</time></trkpt><trkpt lat="40.67197587896643" lon="9.259958708851801"><ele>846.5</ele><time>2026-03-28T09:58:34.999Z</time></trkpt><trkpt lat="40.67201158594248" lon="9.259778334662478"><ele>844.0</ele><time>2026-03-28T09:58:35.999Z</time></trkpt><trkpt lat="40.672001447104236" lon="9.25959285528313"><ele>841.5</ele><time>2026-03-28T09:58:36.999Z</time></trkpt><trkpt lat="40.672010996481006" lon="9.25942986968234"><ele>839.0</ele><time>2026-03-28T09:58:37.999Z</time></trkpt><trkpt lat="40.67205667640139" lon="9.259295568394961"><ele>839.0</ele><time>2026-03-28T09:58:38.999Z</time></trkpt><trkpt lat="40.67213737973531" lon="9.259192886779875"><ele>839.0</ele><time>2026-03-28T09:58:39.999Z</time></trkpt><trkpt lat="40.67221408755482" lon="9.259049383344543"><ele>839.0</ele><time>2026-03-28T09:58:40.999Z</time></trkpt><trkpt lat="40.67228461335886" lon="9.258887425021522"><ele>839.0</ele><time>2026-03-28T09:58:41.999Z</time></trkpt><trkpt lat="40.672317848363434" lon="9.258696968830664"><ele>837.3333333333334</ele><time>2026-03-28T09:58:42.999Z</time></trkpt><trkpt lat="40.67232455201611" lon="9.25846816568915"><ele>835.6666666666667</ele><time>2026-03-28T09:58:43.999Z</time></trkpt><trkpt lat="40.67232403840361" lon="9.258242606868535"><ele>834.0</ele><time>2026-03-28T09:58:44.999Z</time></trkpt><trkpt lat="40.67230583097954" lon="9.258045024710198"><ele>833.4000000000001</ele><time>2026-03-28T09:58:45.999Z</time></trkpt><trkpt lat="40.67230230849081" lon="9.257881429373276"><ele>832.8</ele><time>2026-03-28T09:58:46.999Z</time></trkpt><trkpt lat="40.67227952227414" lon="9.257746086853448"><ele>832.2</ele><time>2026-03-28T09:58:47.999Z</time></trkpt><trkpt lat="40.67225835672384" lon="9.25760914265745"><ele>831.5999999999999</ele><time>2026-03-28T09:58:48.999Z</time></trkpt><trkpt lat="40.67219033522168" lon="9.257517564970343"><ele>831.0</ele><time>2026-03-28T09:58:49.999Z</time></trkpt><trkpt lat="40.67215132343082" lon="9.257450152623788"><ele>831.0</ele><time>2026-03-28T09:58:50.999Z</time></trkpt><trkpt lat="40.67209553921037" lon="9.257394169424222"><ele>831.0</ele><time>2026-03-28T09:58:52.999Z</time></trkpt><trkpt lat="40.672053389154165" lon="9.257315957751889"><ele>831.0</ele><time>2026-03-28T09:59:13.999Z</time></trkpt><trkpt lat="40.671997349355" lon="9.257253479506288"><ele>831.0</ele><time>2026-03-28T09:59:14.999Z</time></trkpt><trkpt lat="40.67192737314487" lon="9.257175463694175"><ele>831.0</ele><time>2026-03-28T09:59:15.999Z</time></trkpt><trkpt lat="40.67186102842131" lon="9.257092163988904"><ele>831.0</ele><time>2026-03-28T09:59:16.999Z</time></trkpt><trkpt lat="40.67178663818643" lon="9.256960698704653"><ele>829.0</ele><time>2026-03-28T09:59:17.999Z</time></trkpt><trkpt lat="40.67172481569782" lon="9.256796899345112"><ele>827.0</ele><time>2026-03-28T09:59:18.999Z</time></trkpt><trkpt lat="40.671640503683335" lon="9.256593343381017"><ele>825.0</ele><time>2026-03-28T09:59:19.999Z</time></trkpt><trkpt lat="40.671523205288864" lon="9.256355342162198"><ele>823.0</ele><time>2026-03-28T09:59:20.999Z</time></trkpt><trkpt lat="40.67143511301516" lon="9.25613861565202"><ele>821.0</ele><time>2026-03-28T09:59:21.999Z</time></trkpt><trkpt lat="40.671338897564254" lon="9.255919425814707"><ele>819.0</ele><time>2026-03-28T09:59:22.999Z</time></trkpt><trkpt lat="40.67124080688591" lon="9.255710830564075"><ele>819.25</ele><time>2026-03-28T09:59:24Z</time></trkpt><trkpt lat="40.67116536967252" lon="9.255545341841744"><ele>819.5</ele><time>2026-03-28T09:59:25Z</time></trkpt><trkpt lat="40.6710947609908" lon="9.25537436427205"><ele>819.75</ele><time>2026-03-28T09:59:26Z</time></trkpt><trkpt lat="40.67104825058807" lon="9.255226406264065"><ele>820.0</ele><time>2026-03-28T09:59:27Z</time></trkpt><trkpt lat="40.671023792785725" lon="9.255054141548174"><ele>821.0</ele><time>2026-03-28T09:59:28Z</time></trkpt><trkpt lat="40.6709968720451" lon="9.25492797084276"><ele>822.0</ele><time>2026-03-28T09:59:29Z</time></trkpt><trkpt lat="40.670967882026495" lon="9.254782581809499"><ele>823.0</ele><time>2026-03-28T09:59:30Z</time></trkpt><trkpt lat="40.67092824645013" lon="9.254664114503369"><ele>824.0</ele><time>2026-03-28T09:59:31Z</time></trkpt><trkpt lat="40.67091368767621" lon="9.254570479752875"><ele>825.0</ele><time>2026-03-28T09:59:32Z</time></trkpt><trkpt lat="40.67090406958639" lon="9.254471506208857"><ele>825.0</ele><time>2026-03-28T09:59:34Z</time></trkpt><trkpt lat="40.670893910493554" lon="9.254351156197247"><ele>825.0</ele><time>2026-03-28T09:59:36Z</time></trkpt><trkpt lat="40.670887984080004" lon="9.25424756328746"><ele>825.0</ele><time>2026-03-28T09:59:36.999Z</time></trkpt><trkpt lat="40.67088277766739" lon="9.254082295632934"><ele>825.0</ele><time>2026-03-28T09:59:37.999Z</time></trkpt><trkpt lat="40.6708779252368" lon="9.253839760032326"><ele>824.0</ele><time>2026-03-28T09:59:38.999Z</time></trkpt><trkpt lat="40.670880773931195" lon="9.253611212737432"><ele>823.0</ele><time>2026-03-28T09:59:39.999Z</time></trkpt><trkpt lat="40.67089304573031" lon="9.253389206115976"><ele>822.0</ele><time>2026-03-28T09:59:40.999Z</time></trkpt><trkpt lat="40.670917755694845" lon="9.253168702385146"><ele>821.6666666666667</ele><time>2026-03-28T09:59:41.999Z</time></trkpt><trkpt lat="40.67094063495212" lon="9.252949573112112"><ele>821.3333333333334</ele><time>2026-03-28T09:59:42.999Z</time></trkpt><trkpt lat="40.67097711492241" lon="9.25273421209925"><ele>821.0</ele><time>2026-03-28T09:59:43.999Z</time></trkpt><trkpt lat="40.6710511865251" lon="9.252507060109568"><ele>821.0</ele><time>2026-03-28T09:59:44.999Z</time></trkpt><trkpt lat="40.67108871742753" lon="9.2522904409843"><ele>821.0</ele><time>2026-03-28T09:59:45.999Z</time></trkpt><trkpt lat="40.6711500102957" lon="9.252092789134405"><ele>821.0</ele><time>2026-03-28T09:59:46.999Z</time></trkpt><trkpt lat="40.6712139005967" lon="9.251918222733908"><ele>821.3333333333334</ele><time>2026-03-28T09:59:47.999Z</time></trkpt><trkpt lat="40.671311107301" lon="9.251730992480983"><ele>821.6666666666667</ele><time>2026-03-28T09:59:48.999Z</time></trkpt><trkpt lat="40.671433551777426" lon="9.25152271834248"><ele>822.0</ele><time>2026-03-28T09:59:49.999Z</time></trkpt><trkpt lat="40.67156086311614" lon="9.251324325374798"><ele>822.0</ele><time>2026-03-28T09:59:50.999Z</time></trkpt><trkpt lat="40.67167293920342" lon="9.251133972702902"><ele>822.0</ele><time>2026-03-28T09:59:51.999Z</time></trkpt><trkpt lat="40.671752672016666" lon="9.250963717125119"><ele>822.0</ele><time>2026-03-28T09:59:52.999Z</time></trkpt><trkpt lat="40.671806201661305" lon="9.250771453531263"><ele>822.3333333333333</ele><time>2026-03-28T09:59:53.999Z</time></trkpt><trkpt lat="40.67186369614711" lon="9.250523287530147"><ele>822.6666666666666</ele><time>2026-03-28T09:59:54.999Z</time></trkpt><trkpt lat="40.67192633442339" lon="9.250312367160056"><ele>823.0</ele><time>2026-03-28T09:59:55.999Z</time></trkpt><trkpt lat="40.67200176509738" lon="9.250121339648267"><ele>823.25</ele><time>2026-03-28T09:59:56.999Z</time></trkpt><trkpt lat="40.67207788788584" lon="9.249963656208237"><ele>823.5</ele><time>2026-03-28T09:59:57.999Z</time></trkpt><trkpt lat="40.672152538692416" lon="9.249826257989078"><ele>823.75</ele><time>2026-03-28T09:59:58.999Z</time></trkpt><trkpt lat="40.672212039594875" lon="9.249717302887781"><ele>824.0</ele><time>2026-03-28T09:59:59.999Z</time></trkpt><trkpt lat="40.672249232179645" lon="9.249607417050834"><ele>824.1666666666667</ele><time>2026-03-28T10:00:00.999Z</time></trkpt><trkpt lat="40.67229331028864" lon="9.249534786412521"><ele>824.3333333333334</ele><time>2026-03-28T10:00:01.999Z</time></trkpt><trkpt lat="40.672320444499796" lon="9.249454263075608"><ele>824.5</ele><time>2026-03-28T10:00:03.999Z</time></trkpt><trkpt lat="40.67231045736088" lon="9.249358092474042"><ele>824.6666666666667</ele><time>2026-03-28T10:00:07.999Z</time></trkpt><trkpt lat="40.67222950276958" lon="9.249328438193531"><ele>824.8333333333334</ele><time>2026-03-28T10:00:09.999Z</time></trkpt><trkpt lat="40.67231045735898" lon="9.24923920955495"><ele>825.0</ele><time>2026-03-28T10:00:29.999Z</time></trkpt><trkpt lat="40.67241817089707" lon="9.249268482701195"><ele>825.0</ele><time>2026-03-28T10:00:31.999Z</time></trkpt><trkpt lat="40.67234454020386" lon="9.249226519730577"><ele>825.0</ele><time>2026-03-28T10:00:33.999Z</time></trkpt><trkpt lat="40.67245450991605" lon="9.249221750271651"><ele>825.0</ele><time>2026-03-28T10:00:34.999Z</time></trkpt><trkpt lat="40.67234091013732" lon="9.2491934486128"><ele>825.0</ele><time>2026-03-28T10:00:35.999Z</time></trkpt><trkpt lat="40.67250797792836" lon="9.24910577143634"><ele>825.0</ele><time>2026-03-28T10:00:36.999Z</time></trkpt><trkpt lat="40.67242376892295" lon="9.24901773015342"><ele>825.0</ele><time>2026-03-28T10:00:37.999Z</time></trkpt><trkpt lat="40.67262290691969" lon="9.2489016762269"><ele>825.0</ele><time>2026-03-28T10:00:38.999Z</time></trkpt><trkpt lat="40.672517471122674" lon="9.248762724575469"><ele>831.0</ele><time>2026-03-28T10:00:39.999Z</time></trkpt><trkpt lat="40.672987449206154" lon="9.24873227365974"><ele>831.0</ele><time>2026-03-28T10:00:40.999Z</time></trkpt><trkpt lat="40.67312233931739" lon="9.24854568624249"><ele>831.0</ele><time>2026-03-28T10:00:41.999Z</time></trkpt><trkpt lat="40.67323677187059" lon="9.248434298867739"><ele>831.0</ele><time>2026-03-28T10:00:42.999Z</time></trkpt><trkpt lat="40.673345294714096" lon="9.248319653564792"><ele>831.0</ele><time>2026-03-28T10:00:43.999Z</time></trkpt><trkpt lat="40.673441285720735" lon="9.248211645702469"><ele>831.0</ele><time>2026-03-28T10:00:44.999Z</time></trkpt><trkpt lat="40.673535401842166" lon="9.248084332430762"><ele>831.0</ele><time>2026-03-28T10:00:45.999Z</time></trkpt><trkpt lat="40.673641212153164" lon="9.247926930301457"><ele>831.0</ele><time>2026-03-28T10:00:46.999Z</time></trkpt><trkpt lat="40.67376405994222" lon="9.247749978410868"><ele>831.5</ele><time>2026-03-28T10:00:47.999Z</time></trkpt><trkpt lat="40.67387291260228" lon="9.247613596341854"><ele>832.0</ele><time>2026-03-28T10:00:48.999Z</time></trkpt><trkpt lat="40.67399385273127" lon="9.247492576116342"><ele>832.5</ele><time>2026-03-28T10:00:49.999Z</time></trkpt><trkpt lat="40.67411344390204" lon="9.247392286356527"><ele>833.0</ele><time>2026-03-28T10:00:50.999Z</time></trkpt><trkpt lat="40.67425317346075" lon="9.247319590944915"><ele>833.6666666666667</ele><time>2026-03-28T10:00:51.999Z</time></trkpt><trkpt lat="40.67442296495102" lon="9.247239920113213"><ele>834.3333333333333</ele><time>2026-03-28T10:00:52.999Z</time></trkpt><trkpt lat="40.67458396559207" lon="9.24714013299802"><ele>835.0</ele><time>2026-03-28T10:00:53.999Z</time></trkpt><trkpt lat="40.67473116831007" lon="9.247056554823805"><ele>833.0</ele><time>2026-03-28T10:00:54.999Z</time></trkpt><trkpt lat="40.6748760302958" lon="9.24696530064318"><ele>831.0</ele><time>2026-03-28T10:00:55.999Z</time></trkpt><trkpt lat="40.67504555064715" lon="9.246854613596005"><ele>829.0</ele><time>2026-03-28T10:00:56.999Z</time></trkpt><trkpt lat="40.675196915324854" lon="9.246755986400398"><ele>827.0</ele><time>2026-03-28T10:00:57.999Z</time></trkpt><trkpt lat="40.67533956247337" lon="9.246661311591572"><ele>825.0</ele><time>2026-03-28T10:00:58.999Z</time></trkpt><trkpt lat="40.675476042969514" lon="9.24657001842619"><ele>823.0</ele><time>2026-03-28T10:00:59.999Z</time></trkpt><trkpt lat="40.67560622078098" lon="9.246482315499224"><ele>822.0</ele><time>2026-03-28T10:01:00.999Z</time></trkpt><trkpt lat="40.67573681679805" lon="9.246396858941399"><ele>821.0</ele><time>2026-03-28T10:01:01.999Z</time></trkpt><trkpt lat="40.6758941738226" lon="9.246302821878437"><ele>820.0</ele><time>2026-03-28T10:01:02.999Z</time></trkpt><trkpt lat="40.67603572494305" lon="9.246208515383305"><ele>818.25</ele><time>2026-03-28T10:01:03.999Z</time></trkpt><trkpt lat="40.67616298088598" lon="9.246109358414996"><ele>816.5</ele><time>2026-03-28T10:01:04.999Z</time></trkpt><trkpt lat="40.676261191362364" lon="9.246043556670454"><ele>814.75</ele><time>2026-03-28T10:01:05.999Z</time></trkpt><trkpt lat="40.67636945355972" lon="9.245999869548687"><ele>813.0</ele><time>2026-03-28T10:01:06.999Z</time></trkpt><trkpt lat="40.67649306683281" lon="9.245985770807328"><ele>813.0</ele><time>2026-03-28T10:01:07.999Z</time></trkpt><trkpt lat="40.67662252934225" lon="9.245996823093968"><ele>813.0</ele><time>2026-03-28T10:01:08.999Z</time></trkpt><trkpt lat="40.676730608783956" lon="9.246007871433656"><ele>813.0</ele><time>2026-03-28T10:01:09.999Z</time></trkpt><trkpt lat="40.67683123074262" lon="9.245981149770994"><ele>813.0</ele><time>2026-03-28T10:01:10.999Z</time></trkpt><trkpt lat="40.67691955150378" lon="9.245904448174006"><ele>813.0</ele><time>2026-03-28T10:01:11.999Z</time></trkpt><trkpt lat="40.677018489885825" lon="9.245777722640188"><ele>812.0</ele><time>2026-03-28T10:01:12.999Z</time></trkpt><trkpt lat="40.67710503508457" lon="9.245631117338663"><ele>811.0</ele><time>2026-03-28T10:01:13.999Z</time></trkpt><trkpt lat="40.67717737293662" lon="9.245483279943535"><ele>810.0</ele><time>2026-03-28T10:01:14.999Z</time></trkpt><trkpt lat="40.67723029697983" lon="9.245319874054724"><ele>809.0</ele><time>2026-03-28T10:01:15.999Z</time></trkpt><trkpt lat="40.677270277921856" lon="9.245160381326592"><ele>808.0</ele><time>2026-03-28T10:01:16.999Z</time></trkpt><trkpt lat="40.677313677155674" lon="9.245051982273324"><ele>807.0</ele><time>2026-03-28T10:01:17.999Z</time></trkpt><trkpt lat="40.67738754540031" lon="9.244967721120167"><ele>806.0</ele><time>2026-03-28T10:01:18.999Z</time></trkpt><trkpt lat="40.67749310408199" lon="9.2449097071367"><ele>805.0</ele><time>2026-03-28T10:01:19.999Z</time></trkpt><trkpt lat="40.67764084204896" lon="9.244842620720709"><ele>803.0</ele><time>2026-03-28T10:01:20.999Z</time></trkpt><trkpt lat="40.677786903614034" lon="9.244786559023192"><ele>801.0</ele><time>2026-03-28T10:01:21.999Z</time></trkpt><trkpt lat="40.67789732841772" lon="9.244713391354829"><ele>799.0</ele><time>2026-03-28T10:01:22.999Z</time></trkpt><trkpt lat="40.67797913527093" lon="9.24462561555445"><ele>797.0</ele><time>2026-03-28T10:01:23.999Z</time></trkpt><trkpt lat="40.678070346098245" lon="9.244487930746962"><ele>797.0</ele><time>2026-03-28T10:01:24.999Z</time></trkpt><trkpt lat="40.67815388286176" lon="9.244332013153704"><ele>797.0</ele><time>2026-03-28T10:01:25.999Z</time></trkpt><trkpt lat="40.67823117640818" lon="9.244193655693046"><ele>797.0</ele><time>2026-03-28T10:01:26.999Z</time></trkpt><trkpt lat="40.67829716461716" lon="9.244083311128463"><ele>797.0</ele><time>2026-03-28T10:01:27.999Z</time></trkpt><trkpt lat="40.67835583332942" lon="9.243983333420626"><ele>797.4000000000001</ele><time>2026-03-28T10:01:28.999Z</time></trkpt><trkpt lat="40.67839972420801" lon="9.24387212857531"><ele>797.8000000000001</ele><time>2026-03-28T10:01:30Z</time></trkpt><trkpt lat="40.67841093903507" lon="9.24376876075238"><ele>798.2</ele><time>2026-03-28T10:01:31Z</time></trkpt><trkpt lat="40.67838778894105" lon="9.243654734002689"><ele>798.6</ele><time>2026-03-28T10:01:32Z</time></trkpt><trkpt lat="40.67833615147057" lon="9.243512722282608"><ele>799.0</ele><time>2026-03-28T10:01:33Z</time></trkpt><trkpt lat="40.67826239362536" lon="9.243346471398468"><ele>799.0</ele><time>2026-03-28T10:01:34Z</time></trkpt><trkpt lat="40.678172624061695" lon="9.243141821201835"><ele>799.0</ele><time>2026-03-28T10:01:35Z</time></trkpt><trkpt lat="40.67808553690205" lon="9.242918620049824"><ele>799.0</ele><time>2026-03-28T10:01:36Z</time></trkpt><trkpt lat="40.677996315335285" lon="9.242655469141672"><ele>799.3333333333333</ele><time>2026-03-28T10:01:37Z</time></trkpt><trkpt lat="40.677915156383065" lon="9.242397718474217"><ele>799.6666666666667</ele><time>2026-03-28T10:01:38Z</time></trkpt><trkpt lat="40.677849687892135" lon="9.242132928479974"><ele>800.0</ele><time>2026-03-28T10:01:39Z</time></trkpt><trkpt lat="40.6777755772617" lon="9.241881820524274"><ele>799.0</ele><time>2026-03-28T10:01:40Z</time></trkpt><trkpt lat="40.677709311018255" lon="9.241671722418012"><ele>798.0</ele><time>2026-03-28T10:01:41Z</time></trkpt><trkpt lat="40.677652383595216" lon="9.241500621715982"><ele>797.0</ele><time>2026-03-28T10:01:42Z</time></trkpt><trkpt lat="40.677603980817885" lon="9.241367557989737"><ele>796.0</ele><time>2026-03-28T10:01:43Z</time></trkpt><trkpt lat="40.67755999966033" lon="9.241239239337014"><ele>795.9999999999999</ele><time>2026-03-28T10:01:44Z</time></trkpt><trkpt lat="40.67751036334565" lon="9.241117977510127"><ele>796.0</ele><time>2026-03-28T10:01:45Z</time></trkpt><trkpt lat="40.677467373038915" lon="9.24101241925272"><ele>796.0</ele><time>2026-03-28T10:01:46Z</time></trkpt><trkpt lat="40.67743040851485" lon="9.240921674717242"><ele>796.0</ele><time>2026-03-28T10:01:47Z</time></trkpt><trkpt lat="40.67739932599447" lon="9.240845091391316"><ele>795.9999999999999</ele><time>2026-03-28T10:01:48Z</time></trkpt><trkpt lat="40.677386034452496" lon="9.24076312897097"><ele>796.0</ele><time>2026-03-28T10:01:49.999Z</time></trkpt><trkpt lat="40.67735884950472" lon="9.240670763356572"><ele>796.4</ele><time>2026-03-28T10:02:04.999Z</time></trkpt><trkpt lat="40.677341818105184" lon="9.240587730715303"><ele>796.8</ele><time>2026-03-28T10:02:05.999Z</time></trkpt><trkpt lat="40.677326730378844" lon="9.24048335434108"><ele>797.1999999999999</ele><time>2026-03-28T10:02:06.999Z</time></trkpt><trkpt lat="40.67731939047328" lon="9.240374390571695"><ele>797.5999999999999</ele><time>2026-03-28T10:02:07.999Z</time></trkpt><trkpt lat="40.677317235075535" lon="9.24022379385993"><ele>798.0</ele><time>2026-03-28T10:02:08.999Z</time></trkpt><trkpt lat="40.67732059887421" lon="9.240064568653665"><ele>798.0</ele><time>2026-03-28T10:02:09.999Z</time></trkpt><trkpt lat="40.67733250846189" lon="9.239931958267855"><ele>798.0</ele><time>2026-03-28T10:02:10.999Z</time></trkpt><trkpt lat="40.677346357935875" lon="9.239839617243367"><ele>798.0</ele><time>2026-03-28T10:02:11.999Z</time></trkpt><trkpt lat="40.67735917539439" lon="9.239757585321193"><ele>798.0</ele><time>2026-03-28T10:02:12.999Z</time></trkpt><trkpt lat="40.6774051545818" lon="9.239640415025129"><ele>798.0</ele><time>2026-03-28T10:02:14.999Z</time></trkpt><trkpt lat="40.67743510749842" lon="9.23954152967635"><ele>798.0</ele><time>2026-03-28T10:02:17.999Z</time></trkpt><trkpt lat="40.67736791123379" lon="9.239522035077146"><ele>798.0</ele><time>2026-03-28T10:02:23.999Z</time></trkpt><trkpt lat="40.677349757739826" lon="9.239605828440798"><ele>798.0</ele><time>2026-03-28T10:02:25.999Z</time></trkpt><trkpt lat="40.67736191978926" lon="9.23969992096902"><ele>798.0</ele><time>2026-03-28T10:02:26.999Z</time></trkpt><trkpt lat="40.67737715521353" lon="9.239784000771426"><ele>798.0</ele><time>2026-03-28T10:02:27.999Z</time></trkpt><trkpt lat="40.6773443916219" lon="9.239931004557056"><ele>798.0</ele><time>2026-03-28T10:02:29.999Z</time></trkpt><trkpt lat="40.67732190945759" lon="9.240021269737081"><ele>798.0</ele><time>2026-03-28T10:02:30.999Z</time></trkpt><trkpt lat="40.67731863691996" lon="9.24012960206056"><ele>798.0</ele><time>2026-03-28T10:02:31.999Z</time></trkpt><trkpt lat="40.67732409028662" lon="9.240256036923816"><ele>798.0</ele><time>2026-03-28T10:02:32.999Z</time></trkpt><trkpt lat="40.67733458233232" lon="9.240421354005576"><ele>798.0</ele><time>2026-03-28T10:02:33.999Z</time></trkpt><trkpt lat="40.67734862988299" lon="9.240604860250798"><ele>798.0</ele><time>2026-03-28T10:02:34.999Z</time></trkpt><trkpt lat="40.677376156355116" lon="9.240768216203305"><ele>797.5</ele><time>2026-03-28T10:02:35.999Z</time></trkpt><trkpt lat="40.67740982988457" lon="9.240895228083321"><ele>797.0</ele><time>2026-03-28T10:02:36.999Z</time></trkpt><trkpt lat="40.677464024601065" lon="9.241036932509532"><ele>796.5</ele><time>2026-03-28T10:02:37.999Z</time></trkpt><trkpt lat="40.67753927557575" lon="9.241198467758773"><ele>796.0</ele><time>2026-03-28T10:02:38.999Z</time></trkpt><trkpt lat="40.67759682056221" lon="9.241329452395474"><ele>796.0</ele><time>2026-03-28T10:02:39.999Z</time></trkpt><trkpt lat="40.67762701333567" lon="9.24143003024731"><ele>796.0</ele><time>2026-03-28T10:02:40.999Z</time></trkpt><trkpt lat="40.67761229985331" lon="9.241511920324642"><ele>796.0</ele><time>2026-03-28T10:02:42.999Z</time></trkpt><trkpt lat="40.67754784094541" lon="9.24149345244141"><ele>796.0</ele><time>2026-03-28T10:02:44.999Z</time></trkpt><trkpt lat="40.67743548114777" lon="9.241369710851437"><ele>796.0</ele><time>2026-03-28T10:02:46.999Z</time></trkpt><trkpt lat="40.677346922214774" lon="9.241261239348654"><ele>796.0</ele><time>2026-03-28T10:02:47.999Z</time></trkpt><trkpt lat="40.6772275781441" lon="9.241127019466486"><ele>796.0</ele><time>2026-03-28T10:02:48.999Z</time></trkpt><trkpt lat="40.67708648034721" lon="9.240952108091065"><ele>796.0</ele><time>2026-03-28T10:02:49.999Z</time></trkpt><trkpt lat="40.67695930679838" lon="9.240791380920257"><ele>795.0</ele><time>2026-03-28T10:02:50.999Z</time></trkpt><trkpt lat="40.67684907802445" lon="9.240652355000302"><ele>794.0</ele><time>2026-03-28T10:02:51.999Z</time></trkpt><trkpt lat="40.67675210737902" lon="9.240528029835236"><ele>793.0</ele><time>2026-03-28T10:02:52.999Z</time></trkpt><trkpt lat="40.67665995663158" lon="9.240405440403094"><ele>792.0</ele><time>2026-03-28T10:02:53.999Z</time></trkpt><trkpt lat="40.676563153023004" lon="9.240270129891744"><ele>792.0</ele><time>2026-03-28T10:02:54.999Z</time></trkpt><trkpt lat="40.67647409384706" lon="9.24013609403226"><ele>792.0</ele><time>2026-03-28T10:02:55.999Z</time></trkpt><trkpt lat="40.67637839524397" lon="9.239989059576642"><ele>792.0</ele><time>2026-03-28T10:02:56.999Z</time></trkpt><trkpt lat="40.6762678099799" lon="9.239838757279951"><ele>792.0</ele><time>2026-03-28T10:02:57.999Z</time></trkpt><trkpt lat="40.676170318767696" lon="9.239703552346826"><ele>790.6666666666667</ele><time>2026-03-28T10:02:58.999Z</time></trkpt><trkpt lat="40.67607718064864" lon="9.239563943947187"><ele>789.3333333333334</ele><time>2026-03-28T10:02:59.999Z</time></trkpt><trkpt lat="40.67597886076327" lon="9.239396424064358"><ele>788.0</ele><time>2026-03-28T10:03:00.999Z</time></trkpt><trkpt lat="40.675884757963736" lon="9.23923765539582"><ele>788.0</ele><time>2026-03-28T10:03:01.999Z</time></trkpt><trkpt lat="40.67577521741877" lon="9.239107331263776"><ele>788.0</ele><time>2026-03-28T10:03:02.999Z</time></trkpt><trkpt lat="40.6756307587857" lon="9.23898191101721"><ele>788.0</ele><time>2026-03-28T10:03:03.999Z</time></trkpt><trkpt lat="40.67548455892844" lon="9.238876828115568"><ele>787.25</ele><time>2026-03-28T10:03:04.999Z</time></trkpt><trkpt lat="40.67535586367918" lon="9.238771294193814"><ele>786.5</ele><time>2026-03-28T10:03:05.999Z</time></trkpt><trkpt lat="40.675247215079004" lon="9.238675792277215"><ele>785.75</ele><time>2026-03-28T10:03:06.999Z</time></trkpt><trkpt lat="40.67514746498341" lon="9.238561352404494"><ele>785.0</ele><time>2026-03-28T10:03:07.999Z</time></trkpt><trkpt lat="40.67506145252214" lon="9.238427464252904"><ele>785.0</ele><time>2026-03-28T10:03:08.999Z</time></trkpt><trkpt lat="40.67500166000837" lon="9.238275745009263"><ele>785.0</ele><time>2026-03-28T10:03:09.999Z</time></trkpt><trkpt lat="40.67494101440808" lon="9.238111091685946"><ele>785.0</ele><time>2026-03-28T10:03:10.999Z</time></trkpt><trkpt lat="40.674868991806676" lon="9.237909026510513"><ele>785.0</ele><time>2026-03-28T10:03:11.999Z</time></trkpt><trkpt lat="40.67478354034525" lon="9.237699947310517"><ele>786.5</ele><time>2026-03-28T10:03:12.999Z</time></trkpt><trkpt lat="40.67470062029481" lon="9.237534807828279"><ele>788.0</ele><time>2026-03-28T10:03:13.999Z</time></trkpt><trkpt lat="40.674631769855424" lon="9.23739939184194"><ele>789.5</ele><time>2026-03-28T10:03:14.999Z</time></trkpt><trkpt lat="40.67458208460362" lon="9.23726740393899"><ele>791.0</ele><time>2026-03-28T10:03:15.999Z</time></trkpt><trkpt lat="40.674547398584345" lon="9.237108046146915"><ele>791.3333333333334</ele><time>2026-03-28T10:03:16.999Z</time></trkpt><trkpt lat="40.67451623398635" lon="9.236896258801796"><ele>791.6666666666667</ele><time>2026-03-28T10:03:17.999Z</time></trkpt><trkpt lat="40.674504498789496" lon="9.236687356252528"><ele>792.0</ele><time>2026-03-28T10:03:18.999Z</time></trkpt><trkpt lat="40.67450651119405" lon="9.236471035632333"><ele>791.3333333333333</ele><time>2026-03-28T10:03:19.999Z</time></trkpt><trkpt lat="40.67452480978921" lon="9.23629891003876"><ele>790.6666666666666</ele><time>2026-03-28T10:03:20.999Z</time></trkpt><trkpt lat="40.67456959822568" lon="9.2361115656481"><ele>790.0</ele><time>2026-03-28T10:03:21.999Z</time></trkpt><trkpt lat="40.67462025252988" lon="9.235887741714722"><ele>790.0</ele><time>2026-03-28T10:03:22.999Z</time></trkpt><trkpt lat="40.67465771910211" lon="9.235665725282121"><ele>790.0</ele><time>2026-03-28T10:03:23.999Z</time></trkpt><trkpt lat="40.67466806119308" lon="9.23544174605599"><ele>790.0</ele><time>2026-03-28T10:03:24.999Z</time></trkpt><trkpt lat="40.67468126787492" lon="9.235229680137769"><ele>788.3333333333333</ele><time>2026-03-28T10:03:25.999Z</time></trkpt><trkpt lat="40.674693284965294" lon="9.235036540251757"><ele>786.6666666666667</ele><time>2026-03-28T10:03:26.999Z</time></trkpt><trkpt lat="40.67469323495273" lon="9.234833811322314"><ele>785.0</ele><time>2026-03-28T10:03:27.999Z</time></trkpt><trkpt lat="40.67469704592902" lon="9.23463581813537"><ele>783.5</ele><time>2026-03-28T10:03:28.999Z</time></trkpt><trkpt lat="40.67469144591157" lon="9.234476057119743"><ele>782.0</ele><time>2026-03-28T10:03:29.999Z</time></trkpt><trkpt lat="40.67467148931971" lon="9.2343368263728"><ele>780.5</ele><time>2026-03-28T10:03:30.999Z</time></trkpt><trkpt lat="40.674621767591994" lon="9.234223473649012"><ele>779.0</ele><time>2026-03-28T10:03:31.999Z</time></trkpt><trkpt lat="40.674526027166934" lon="9.234052698887481"><ele>779.3333333333334</ele><time>2026-03-28T10:03:32.999Z</time></trkpt><trkpt lat="40.67440342731783" lon="9.233852353197928"><ele>779.6666666666667</ele><time>2026-03-28T10:03:33.999Z</time></trkpt><trkpt lat="40.6743001124836" lon="9.233642717674659"><ele>780.0</ele><time>2026-03-28T10:03:34.999Z</time></trkpt><trkpt lat="40.67421722373376" lon="9.233405885997714"><ele>782.6666666666667</ele><time>2026-03-28T10:03:36Z</time></trkpt><trkpt lat="40.67414478316013" lon="9.233137322335308"><ele>785.3333333333334</ele><time>2026-03-28T10:03:37Z</time></trkpt><trkpt lat="40.674066500966795" lon="9.232901070077656"><ele>788.0</ele><time>2026-03-28T10:03:38Z</time></trkpt><trkpt lat="40.67400161590867" lon="9.232675003081072"><ele>788.0</ele><time>2026-03-28T10:03:39Z</time></trkpt><trkpt lat="40.673949394970144" lon="9.232439168537132"><ele>788.0</ele><time>2026-03-28T10:03:40Z</time></trkpt><trkpt lat="40.673888544693554" lon="9.232180775565306"><ele>788.0</ele><time>2026-03-28T10:03:41Z</time></trkpt><trkpt lat="40.673828903381846" lon="9.231918072694603"><ele>789.3333333333334</ele><time>2026-03-28T10:03:42Z</time></trkpt><trkpt lat="40.67377672216416" lon="9.231693704834171"><ele>790.6666666666667</ele><time>2026-03-28T10:03:43Z</time></trkpt><trkpt lat="40.6737284322754" lon="9.231500038288807"><ele>792.0</ele><time>2026-03-28T10:03:44Z</time></trkpt><trkpt lat="40.67364980565667" lon="9.231293131985966"><ele>793.0</ele><time>2026-03-28T10:03:45Z</time></trkpt><trkpt lat="40.67356365838216" lon="9.231074667096946"><ele>794.0</ele><time>2026-03-28T10:03:46Z</time></trkpt><trkpt lat="40.67348013786516" lon="9.230886508496424"><ele>795.0</ele><time>2026-03-28T10:03:47Z</time></trkpt><trkpt lat="40.673400882375304" lon="9.230707086280368"><ele>795.3333333333333</ele><time>2026-03-28T10:03:48Z</time></trkpt><trkpt lat="40.67332600445579" lon="9.230533313504088"><ele>795.6666666666666</ele><time>2026-03-28T10:03:49Z</time></trkpt><trkpt lat="40.67324043757705" lon="9.230346319377922"><ele>796.0</ele><time>2026-03-28T10:03:50Z</time></trkpt><trkpt lat="40.67314159550299" lon="9.230140403895973"><ele>796.0</ele><time>2026-03-28T10:03:51Z</time></trkpt><trkpt lat="40.673017881804924" lon="9.229906645721101"><ele>796.0</ele><time>2026-03-28T10:03:52Z</time></trkpt><trkpt lat="40.67289790877236" lon="9.22968336491565"><ele>796.0</ele><time>2026-03-28T10:03:53Z</time></trkpt><trkpt lat="40.672787965670565" lon="9.229489360316618"><ele>795.0</ele><time>2026-03-28T10:03:54Z</time></trkpt><trkpt lat="40.67269312728853" lon="9.229313080508254"><ele>794.0</ele><time>2026-03-28T10:03:54.999Z</time></trkpt><trkpt lat="40.67261519746155" lon="9.229151224027806"><ele>793.0</ele><time>2026-03-28T10:03:55.999Z</time></trkpt><trkpt lat="40.67254858076533" lon="9.228969723182031"><ele>792.3333333333333</ele><time>2026-03-28T10:03:56.999Z</time></trkpt><trkpt lat="40.672488485777734" lon="9.22875306823414"><ele>791.6666666666667</ele><time>2026-03-28T10:03:57.999Z</time></trkpt><trkpt lat="40.672433445219106" lon="9.2285382246424"><ele>791.0</ele><time>2026-03-28T10:03:58.999Z</time></trkpt><trkpt lat="40.67237320434025" lon="9.228351497489905"><ele>789.0</ele><time>2026-03-28T10:03:59.999Z</time></trkpt><trkpt lat="40.67228520065351" lon="9.228136428653105"><ele>787.0</ele><time>2026-03-28T10:04:00.999Z</time></trkpt><trkpt lat="40.67219705547916" lon="9.227920420681397"><ele>785.0</ele><time>2026-03-28T10:04:01.999Z</time></trkpt><trkpt lat="40.67210568578865" lon="9.22770707130401"><ele>785.0</ele><time>2026-03-28T10:04:02.999Z</time></trkpt><trkpt lat="40.67202559473602" lon="9.227547665657601"><ele>785.0</ele><time>2026-03-28T10:04:03.999Z</time></trkpt><trkpt lat="40.67194340857857" lon="9.227385707211686"><ele>785.0</ele><time>2026-03-28T10:04:04.999Z</time></trkpt><trkpt lat="40.67184463695589" lon="9.227221807701783"><ele>784.0</ele><time>2026-03-28T10:04:05.999Z</time></trkpt><trkpt lat="40.67174140169282" lon="9.227052116770423"><ele>783.0</ele><time>2026-03-28T10:04:06.999Z</time></trkpt><trkpt lat="40.67164948439978" lon="9.22685240554474"><ele>782.0</ele><time>2026-03-28T10:04:07.999Z</time></trkpt><trkpt lat="40.6715683533745" lon="9.226654248176139"><ele>782.0</ele><time>2026-03-28T10:04:08.999Z</time></trkpt><trkpt lat="40.6714943462447" lon="9.226478171149324"><ele>782.0</ele><time>2026-03-28T10:04:09.999Z</time></trkpt><trkpt lat="40.67138556755211" lon="9.22628674341213"><ele>782.0</ele><time>2026-03-28T10:04:10.999Z</time></trkpt><trkpt lat="40.67124663484323" lon="9.226089489278735"><ele>781.75</ele><time>2026-03-28T10:04:11.999Z</time></trkpt><trkpt lat="40.67114367262378" lon="9.225930367700593"><ele>781.5</ele><time>2026-03-28T10:04:12.999Z</time></trkpt><trkpt lat="40.67106314638793" lon="9.225783432294659"><ele>781.25</ele><time>2026-03-28T10:04:13.999Z</time></trkpt><trkpt lat="40.670985656489094" lon="9.225609544518676"><ele>781.0</ele><time>2026-03-28T10:04:14.999Z</time></trkpt><trkpt lat="40.670911750444596" lon="9.22539939996871"><ele>779.0</ele><time>2026-03-28T10:04:15.999Z</time></trkpt><trkpt lat="40.670844173930504" lon="9.225211783244887"><ele>777.0</ele><time>2026-03-28T10:04:16.999Z</time></trkpt><trkpt lat="40.67076755793212" lon="9.22505171361213"><ele>775.0</ele><time>2026-03-28T10:04:17.999Z</time></trkpt><trkpt lat="40.67065543679651" lon="9.224889455421643"><ele>774.3333333333333</ele><time>2026-03-28T10:04:18.999Z</time></trkpt><trkpt lat="40.67050355025634" lon="9.224708303640735"><ele>773.6666666666667</ele><time>2026-03-28T10:04:19.999Z</time></trkpt><trkpt lat="40.67036026758593" lon="9.224548386179533"><ele>773.0</ele><time>2026-03-28T10:04:20.999Z</time></trkpt><trkpt lat="40.67024827923367" lon="9.224389981556966"><ele>773.0</ele><time>2026-03-28T10:04:21.999Z</time></trkpt><trkpt lat="40.67013302090951" lon="9.224216824538964"><ele>773.0</ele><time>2026-03-28T10:04:22.999Z</time></trkpt><trkpt lat="40.669985201097404" lon="9.224032266126686"><ele>773.0</ele><time>2026-03-28T10:04:23.999Z</time></trkpt><trkpt lat="40.66982593411127" lon="9.223871635120426"><ele>773.0</ele><time>2026-03-28T10:04:24.999Z</time></trkpt><trkpt lat="40.66968850265419" lon="9.223745774936695"><ele>773.0</ele><time>2026-03-28T10:04:25.999Z</time></trkpt><trkpt lat="40.66956849734991" lon="9.223633436565688"><ele>773.0</ele><time>2026-03-28T10:04:26.999Z</time></trkpt><trkpt lat="40.66946070817726" lon="9.223511834387919"><ele>772.3333333333334</ele><time>2026-03-28T10:04:27.999Z</time></trkpt><trkpt lat="40.66934700972096" lon="9.223349112388515"><ele>771.6666666666667</ele><time>2026-03-28T10:04:28.999Z</time></trkpt><trkpt lat="40.66921040105526" lon="9.22313724359982"><ele>771.0</ele><time>2026-03-28T10:04:29.999Z</time></trkpt><trkpt lat="40.66907078155575" lon="9.222910282556962"><ele>772.3333333333333</ele><time>2026-03-28T10:04:30.999Z</time></trkpt><trkpt lat="40.66893475466498" lon="9.222702478727678"><ele>773.6666666666666</ele><time>2026-03-28T10:04:31.999Z</time></trkpt><trkpt lat="40.668824670044636" lon="9.22253527906838"><ele>775.0</ele><time>2026-03-28T10:04:32.999Z</time></trkpt><trkpt lat="40.66873016411322" lon="9.222353526364811"><ele>775.3333333333333</ele><time>2026-03-28T10:04:33.999Z</time></trkpt><trkpt lat="40.668650125224524" lon="9.222167685454417"><ele>775.6666666666667</ele><time>2026-03-28T10:04:34.999Z</time></trkpt><trkpt lat="40.66858090417339" lon="9.221969205015252"><ele>776.0</ele><time>2026-03-28T10:04:35.999Z</time></trkpt><trkpt lat="40.668510540265466" lon="9.221727382965186"><ele>775.6666666666667</ele><time>2026-03-28T10:04:36.999Z</time></trkpt><trkpt lat="40.668433149504594" lon="9.221477440734963"><ele>775.3333333333333</ele><time>2026-03-28T10:04:37.999Z</time></trkpt><trkpt lat="40.66836121272253" lon="9.22126623072085"><ele>775.0</ele><time>2026-03-28T10:04:38.999Z</time></trkpt><trkpt lat="40.668297146291565" lon="9.221078347199041"><ele>775.0</ele><time>2026-03-28T10:04:39.999Z</time></trkpt><trkpt lat="40.66821640027479" lon="9.220882608327983"><ele>775.0</ele><time>2026-03-28T10:04:40.999Z</time></trkpt><trkpt lat="40.668106438919644" lon="9.220668741530144"><ele>775.0</ele><time>2026-03-28T10:04:41.999Z</time></trkpt><trkpt lat="40.66800531918725" lon="9.220464207881363"><ele>774.75</ele><time>2026-03-28T10:04:42.999Z</time></trkpt><trkpt lat="40.66792443958568" lon="9.22028903585741"><ele>774.5</ele><time>2026-03-28T10:04:43.999Z</time></trkpt><trkpt lat="40.66783658685684" lon="9.220119596347761"><ele>774.25</ele><time>2026-03-28T10:04:44.999Z</time></trkpt><trkpt lat="40.66775791668519" lon="9.219992941263207"><ele>774.0</ele><time>2026-03-28T10:04:45.999Z</time></trkpt><trkpt lat="40.66766500152739" lon="9.21986379791573"><ele>775.25</ele><time>2026-03-28T10:04:46.999Z</time></trkpt><trkpt lat="40.66754088104267" lon="9.21973988234526"><ele>776.5</ele><time>2026-03-28T10:04:47.999Z</time></trkpt><trkpt lat="40.66741333706994" lon="9.219629133460971"><ele>777.75</ele><time>2026-03-28T10:04:48.999Z</time></trkpt><trkpt lat="40.667288144921386" lon="9.219550631843292"><ele>779.0</ele><time>2026-03-28T10:04:49.999Z</time></trkpt><trkpt lat="40.667133225761056" lon="9.21948787355381"><ele>779.0</ele><time>2026-03-28T10:04:50.999Z</time></trkpt><trkpt lat="40.66699230482086" lon="9.21942563706662"><ele>779.0</ele><time>2026-03-28T10:04:51.999Z</time></trkpt><trkpt lat="40.66687300727769" lon="9.219340670910686"><ele>779.0</ele><time>2026-03-28T10:04:52.999Z</time></trkpt><trkpt lat="40.6667665681543" lon="9.21922899148783"><ele>779.0</ele><time>2026-03-28T10:04:53.999Z</time></trkpt><trkpt lat="40.66666295800781" lon="9.219081367245098"><ele>778.5</ele><time>2026-03-28T10:04:54.999Z</time></trkpt><trkpt lat="40.66657654570485" lon="9.218930825621412"><ele>778.0</ele><time>2026-03-28T10:04:55.999Z</time></trkpt><trkpt lat="40.66649555818766" lon="9.218765418904175"><ele>777.5</ele><time>2026-03-28T10:04:56.999Z</time></trkpt><trkpt lat="40.666432108274876" lon="9.218608839161762"><ele>777.0</ele><time>2026-03-28T10:04:57.999Z</time></trkpt><trkpt lat="40.66637496454017" lon="9.218463453154413"><ele>777.0</ele><time>2026-03-28T10:04:58.999Z</time></trkpt><trkpt lat="40.66628987359736" lon="9.218322342242226"><ele>777.0</ele><time>2026-03-28T10:04:59.999Z</time></trkpt><trkpt lat="40.66620311405443" lon="9.218198440950939"><ele>777.0</ele><time>2026-03-28T10:05:00.999Z</time></trkpt><trkpt lat="40.66612574452912" lon="9.218100369738638"><ele>777.0</ele><time>2026-03-28T10:05:01.999Z</time></trkpt><trkpt lat="40.66605102030882" lon="9.218014866239278"><ele>776.6</ele><time>2026-03-28T10:05:02.999Z</time></trkpt><trkpt lat="40.66597678243691" lon="9.217938188802108"><ele>776.2</ele><time>2026-03-28T10:05:03.999Z</time></trkpt><trkpt lat="40.665898881773465" lon="9.217882670276722"><ele>775.8</ele><time>2026-03-28T10:05:04.999Z</time></trkpt><trkpt lat="40.665816318584646" lon="9.217867439038024"><ele>775.4</ele><time>2026-03-28T10:05:05.999Z</time></trkpt><trkpt lat="40.66572175981164" lon="9.21789182213164"><ele>775.0</ele><time>2026-03-28T10:05:06.999Z</time></trkpt><trkpt lat="40.665607061523986" lon="9.217961624082765"><ele>775.0</ele><time>2026-03-28T10:05:07.999Z</time></trkpt><trkpt lat="40.66548543284029" lon="9.218062286474723"><ele>775.0</ele><time>2026-03-28T10:05:08.999Z</time></trkpt><trkpt lat="40.66538450058603" lon="9.21815627033779"><ele>775.0</ele><time>2026-03-28T10:05:09.999Z</time></trkpt><trkpt lat="40.6652897505425" lon="9.218218767515948"><ele>775.0</ele><time>2026-03-28T10:05:10.999Z</time></trkpt><trkpt lat="40.665178785798716" lon="9.218261763869556"><ele>773.0</ele><time>2026-03-28T10:05:11.999Z</time></trkpt><trkpt lat="40.66501587748131" lon="9.218299532762053"><ele>771.0</ele><time>2026-03-28T10:05:12.999Z</time></trkpt><trkpt lat="40.66483470037465" lon="9.218320254199229"><ele>769.0</ele><time>2026-03-28T10:05:13.999Z</time></trkpt><trkpt lat="40.6646649734766" lon="9.218340212053493"><ele>769.0</ele><time>2026-03-28T10:05:14.999Z</time></trkpt><trkpt lat="40.66451204524177" lon="9.21835353351914"><ele>769.0</ele><time>2026-03-28T10:05:15.999Z</time></trkpt><trkpt lat="40.66437779765225" lon="9.218370308562585"><ele>769.0</ele><time>2026-03-28T10:05:16.999Z</time></trkpt><trkpt lat="40.66425901302624" lon="9.218387745521662"><ele>769.0</ele><time>2026-03-28T10:05:17.999Z</time></trkpt><trkpt lat="40.664145030583164" lon="9.218389755169957"><ele>767.5</ele><time>2026-03-28T10:05:18.999Z</time></trkpt><trkpt lat="40.664024764665406" lon="9.218363787707261"><ele>766.0</ele><time>2026-03-28T10:05:19.999Z</time></trkpt><trkpt lat="40.66390819070325" lon="9.218307392874221"><ele>764.5</ele><time>2026-03-28T10:05:20.999Z</time></trkpt><trkpt lat="40.66376541907313" lon="9.21822615282846"><ele>763.0</ele><time>2026-03-28T10:05:21.999Z</time></trkpt><trkpt lat="40.66365091475481" lon="9.218135018850669"><ele>760.0</ele><time>2026-03-28T10:05:22.999Z</time></trkpt><trkpt lat="40.66351681110191" lon="9.218005912471652"><ele>757.0</ele><time>2026-03-28T10:05:23.999Z</time></trkpt><trkpt lat="40.663356170451685" lon="9.217829875059874"><ele>754.0</ele><time>2026-03-28T10:05:24.999Z</time></trkpt><trkpt lat="40.663202513870644" lon="9.217651837533884"><ele>754.0</ele><time>2026-03-28T10:05:25.999Z</time></trkpt><trkpt lat="40.66307234894345" lon="9.217492102574464"><ele>754.0</ele><time>2026-03-28T10:05:26.999Z</time></trkpt><trkpt lat="40.662945358678634" lon="9.217337754991231"><ele>754.0</ele><time>2026-03-28T10:05:27.999Z</time></trkpt><trkpt lat="40.66281444009385" lon="9.217174869136366"><ele>751.3333333333334</ele><time>2026-03-28T10:05:28.999Z</time></trkpt><trkpt lat="40.6626909100245" lon="9.217026982722444"><ele>748.6666666666666</ele><time>2026-03-28T10:05:29.999Z</time></trkpt><trkpt lat="40.66256641394892" lon="9.21690630673366"><ele>746.0</ele><time>2026-03-28T10:05:30.999Z</time></trkpt><trkpt lat="40.662408319285554" lon="9.216789082071811"><ele>746.0</ele><time>2026-03-28T10:05:31.999Z</time></trkpt><trkpt lat="40.66225789455293" lon="9.216699354983076"><ele>746.0</ele><time>2026-03-28T10:05:32.999Z</time></trkpt><trkpt lat="40.6621176353772" lon="9.216632495168943"><ele>746.0</ele><time>2026-03-28T10:05:33.999Z</time></trkpt><trkpt lat="40.66199453950985" lon="9.216578441294978"><ele>746.0</ele><time>2026-03-28T10:05:34.999Z</time></trkpt><trkpt lat="40.66189417150479" lon="9.21651997944862"><ele>746.1666666666666</ele><time>2026-03-28T10:05:35.999Z</time></trkpt><trkpt lat="40.66183174278653" lon="9.216469710970781"><ele>746.3333333333333</ele><time>2026-03-28T10:05:36.999Z</time></trkpt><trkpt lat="40.661785639171924" lon="9.216406151614837"><ele>746.5</ele><time>2026-03-28T10:05:39.999Z</time></trkpt><trkpt lat="40.66171518934268" lon="9.216369503029712"><ele>746.6666666666666</ele><time>2026-03-28T10:05:54Z</time></trkpt><trkpt lat="40.661764509040765" lon="9.216427327261927"><ele>746.8333333333334</ele><time>2026-03-28T10:06:05.999Z</time></trkpt><trkpt lat="40.661865599878176" lon="9.216495870959307"><ele>747.0</ele><time>2026-03-28T10:06:07.999Z</time></trkpt><trkpt lat="40.66188046715641" lon="9.216607215792896"><ele>746.6</ele><time>2026-03-28T10:06:10.999Z</time></trkpt><trkpt lat="40.661824949740414" lon="9.216682506193786"><ele>746.2</ele><time>2026-03-28T10:06:12.999Z</time></trkpt><trkpt lat="40.661737716078704" lon="9.21669874990206"><ele>745.8</ele><time>2026-03-28T10:06:14.999Z</time></trkpt><trkpt lat="40.661589286617456" lon="9.216693181579133"><ele>745.4</ele><time>2026-03-28T10:06:16.999Z</time></trkpt><trkpt lat="40.661468925193155" lon="9.216637049939997"><ele>745.0</ele><time>2026-03-28T10:06:17.999Z</time></trkpt><trkpt lat="40.66133773655126" lon="9.21655116283423"><ele>744.6666666666667</ele><time>2026-03-28T10:06:18.999Z</time></trkpt><trkpt lat="40.66120304000033" lon="9.21647591083276"><ele>744.3333333333334</ele><time>2026-03-28T10:06:19.999Z</time></trkpt><trkpt lat="40.6610631664786" lon="9.216407382789237"><ele>744.0</ele><time>2026-03-28T10:06:20.999Z</time></trkpt><trkpt lat="40.66091268423123" lon="9.216338276009623"><ele>744.0</ele><time>2026-03-28T10:06:21.999Z</time></trkpt><trkpt lat="40.66076296143315" lon="9.216271046023156"><ele>744.0</ele><time>2026-03-28T10:06:22.999Z</time></trkpt><trkpt lat="40.66063464121435" lon="9.216220814229702"><ele>744.0</ele><time>2026-03-28T10:06:23.999Z</time></trkpt><trkpt lat="40.66051749367453" lon="9.216157108242966"><ele>744.0</ele><time>2026-03-28T10:06:24.999Z</time></trkpt><trkpt lat="40.66041384489175" lon="9.21608515175493"><ele>744.0</ele><time>2026-03-28T10:06:25.999Z</time></trkpt><trkpt lat="40.66030901009876" lon="9.216000678488818"><ele>744.0</ele><time>2026-03-28T10:06:26.999Z</time></trkpt><trkpt lat="40.660192045137954" lon="9.215889113519731"><ele>744.0</ele><time>2026-03-28T10:06:27.999Z</time></trkpt><trkpt lat="40.66008681137419" lon="9.215785441468455"><ele>744.0</ele><time>2026-03-28T10:06:28.999Z</time></trkpt><trkpt lat="40.65998941193086" lon="9.215706293531566"><ele>742.8000000000001</ele><time>2026-03-28T10:06:29.999Z</time></trkpt><trkpt lat="40.65989544015301" lon="9.215650944491738"><ele>741.6</ele><time>2026-03-28T10:06:30.999Z</time></trkpt><trkpt lat="40.65978999061631" lon="9.215582727083765"><ele>740.4</ele><time>2026-03-28T10:06:31.999Z</time></trkpt><trkpt lat="40.65970086968793" lon="9.215514825338678"><ele>739.2</ele><time>2026-03-28T10:06:32.999Z</time></trkpt><trkpt lat="40.65961376647294" lon="9.215446315364272"><ele>738.0</ele><time>2026-03-28T10:06:33.999Z</time></trkpt><trkpt lat="40.65951792674402" lon="9.215366582794426"><ele>735.3333333333334</ele><time>2026-03-28T10:06:34.999Z</time></trkpt><trkpt lat="40.65944335087674" lon="9.215287027650797"><ele>732.6666666666666</ele><time>2026-03-28T10:06:35.999Z</time></trkpt><trkpt lat="40.659361581920734" lon="9.215198378910584"><ele>730.0</ele><time>2026-03-28T10:06:36.999Z</time></trkpt><trkpt lat="40.65930857053075" lon="9.215133732912305"><ele>727.3333333333333</ele><time>2026-03-28T10:06:37.999Z</time></trkpt><trkpt lat="40.659249085961974" lon="9.215053075442368"><ele>724.6666666666666</ele><time>2026-03-28T10:06:38.999Z</time></trkpt><trkpt lat="40.65919711579924" lon="9.21499869495491"><ele>722.0</ele><time>2026-03-28T10:06:39.999Z</time></trkpt><trkpt lat="40.65909912902368" lon="9.214924569608687"><ele>722.0</ele><time>2026-03-28T10:06:40.999Z</time></trkpt><trkpt lat="40.65900125482884" lon="9.214861025484968"><ele>722.0</ele><time>2026-03-28T10:06:41.999Z</time></trkpt><trkpt lat="40.658922599069776" lon="9.214820910674375"><ele>722.0</ele><time>2026-03-28T10:06:42.999Z</time></trkpt><trkpt lat="40.65884186768058" lon="9.214791384434394"><ele>722.0</ele><time>2026-03-28T10:06:43.999Z</time></trkpt><trkpt lat="40.6587575906866" lon="9.214801761243177"><ele>722.0</ele><time>2026-03-28T10:06:44.999Z</time></trkpt><trkpt lat="40.658660924276816" lon="9.21487552606932"><ele>719.75</ele><time>2026-03-28T10:06:45.999Z</time></trkpt><trkpt lat="40.6585705329546" lon="9.214993308321395"><ele>717.5</ele><time>2026-03-28T10:06:46.999Z</time></trkpt><trkpt lat="40.65847930083587" lon="9.21515418763185"><ele>715.25</ele><time>2026-03-28T10:06:47.999Z</time></trkpt><trkpt lat="40.6583952485008" lon="9.215277520898738"><ele>713.0</ele><time>2026-03-28T10:06:48.999Z</time></trkpt><trkpt lat="40.65832080836412" lon="9.215384932365737"><ele>713.0</ele><time>2026-03-28T10:06:49.999Z</time></trkpt><trkpt lat="40.658261684578484" lon="9.215457013014928"><ele>713.0</ele><time>2026-03-28T10:06:50.999Z</time></trkpt><trkpt lat="40.65819941586614" lon="9.215525563089804"><ele>713.0</ele><time>2026-03-28T10:06:51.999Z</time></trkpt><trkpt lat="40.65808539732506" lon="9.215557019419355"><ele>713.0</ele><time>2026-03-28T10:06:53.999Z</time></trkpt><trkpt lat="40.658022401354344" lon="9.215561565265142"><ele>713.0</ele><time>2026-03-28T10:06:54.999Z</time></trkpt><trkpt lat="40.657939410582756" lon="9.215553353816688"><ele>713.0</ele><time>2026-03-28T10:06:55.999Z</time></trkpt><trkpt lat="40.65783358473205" lon="9.215531748262288"><ele>710.5</ele><time>2026-03-28T10:06:56.999Z</time></trkpt><trkpt lat="40.6577303560063" lon="9.21551690895749"><ele>708.0</ele><time>2026-03-28T10:06:57.999Z</time></trkpt><trkpt lat="40.657646336088526" lon="9.215509228587917"><ele>705.5</ele><time>2026-03-28T10:06:58.999Z</time></trkpt><trkpt lat="40.657578737336316" lon="9.215480767203148"><ele>703.0</ele><time>2026-03-28T10:06:59.999Z</time></trkpt><trkpt lat="40.6575172513951" lon="9.215435031575652"><ele>700.5</ele><time>2026-03-28T10:07:00.999Z</time></trkpt><trkpt lat="40.65746515479791" lon="9.215382068074485"><ele>698.0</ele><time>2026-03-28T10:07:01.999Z</time></trkpt><trkpt lat="40.657406692320805" lon="9.215329889556823"><ele>698.0</ele><time>2026-03-28T10:07:02.999Z</time></trkpt><trkpt lat="40.65733517618853" lon="9.215263411280581"><ele>698.0</ele><time>2026-03-28T10:07:03.999Z</time></trkpt><trkpt lat="40.657273581390236" lon="9.215209700333823"><ele>698.0</ele><time>2026-03-28T10:07:04.999Z</time></trkpt><trkpt lat="40.65718172740359" lon="9.215139386797807"><ele>698.0</ele><time>2026-03-28T10:07:05.999Z</time></trkpt><trkpt lat="40.657088645553735" lon="9.215081268404623"><ele>698.0</ele><time>2026-03-28T10:07:06.999Z</time></trkpt><trkpt lat="40.65701690055058" lon="9.215031091362905"><ele>694.5999999999999</ele><time>2026-03-28T10:07:07.999Z</time></trkpt><trkpt lat="40.65695022079528" lon="9.214981223536057"><ele>691.1999999999999</ele><time>2026-03-28T10:07:08.999Z</time></trkpt><trkpt lat="40.65689761976836" lon="9.214911546022487"><ele>687.8</ele><time>2026-03-28T10:07:09.999Z</time></trkpt><trkpt lat="40.656844608045326" lon="9.214817979944396"><ele>684.4</ele><time>2026-03-28T10:07:10.999Z</time></trkpt><trkpt lat="40.65678457946777" lon="9.21467535103113"><ele>681.0</ele><time>2026-03-28T10:07:11.999Z</time></trkpt><trkpt lat="40.65673154600041" lon="9.214533027218563"><ele>681.0</ele><time>2026-03-28T10:07:12.999Z</time></trkpt><trkpt lat="40.656669313656295" lon="9.214417543694614"><ele>681.0</ele><time>2026-03-28T10:07:13.999Z</time></trkpt><trkpt lat="40.65656384399934" lon="9.214293459783622"><ele>681.0</ele><time>2026-03-28T10:07:14.999Z</time></trkpt><trkpt lat="40.656482075320774" lon="9.2141851192893"><ele>681.0</ele><time>2026-03-28T10:07:15.999Z</time></trkpt><trkpt lat="40.65640355888653" lon="9.214096648864603"><ele>681.0</ele><time>2026-03-28T10:07:16.999Z</time></trkpt><trkpt lat="40.656327738335214" lon="9.2140010956994"><ele>681.0</ele><time>2026-03-28T10:07:17.999Z</time></trkpt><trkpt lat="40.656247228289814" lon="9.213904952996316"><ele>681.0</ele><time>2026-03-28T10:07:18.999Z</time></trkpt><trkpt lat="40.65617277695348" lon="9.21381605565296"><ele>681.0</ele><time>2026-03-28T10:07:19.999Z</time></trkpt><trkpt lat="40.656110822749376" lon="9.213723023496062"><ele>681.0</ele><time>2026-03-28T10:07:20.999Z</time></trkpt><trkpt lat="40.656048693680155" lon="9.213636543878271"><ele>677.4</ele><time>2026-03-28T10:07:21.999Z</time></trkpt><trkpt lat="40.65596693017386" lon="9.213569929564875"><ele>673.8</ele><time>2026-03-28T10:07:22.999Z</time></trkpt><trkpt lat="40.655869201678435" lon="9.213518730773677"><ele>670.1999999999999</ele><time>2026-03-28T10:07:23.999Z</time></trkpt><trkpt lat="40.65577817344067" lon="9.213468782462794"><ele>666.5999999999999</ele><time>2026-03-28T10:07:24.999Z</time></trkpt><trkpt lat="40.65569757061424" lon="9.213414971296208"><ele>663.0</ele><time>2026-03-28T10:07:25.999Z</time></trkpt><trkpt lat="40.65560333960522" lon="9.213288663553605"><ele>663.0</ele><time>2026-03-28T10:07:27.999Z</time></trkpt><trkpt lat="40.65550879870347" lon="9.21323199997391"><ele>663.0</ele><time>2026-03-28T10:07:29.999Z</time></trkpt><trkpt lat="40.655387665121374" lon="9.21329771721068"><ele>663.0</ele><time>2026-03-28T10:07:31.999Z</time></trkpt><trkpt lat="40.655331447013424" lon="9.213384594641768"><ele>663.0</ele><time>2026-03-28T10:07:32.999Z</time></trkpt><trkpt lat="40.655277673409785" lon="9.21348478524505"><ele>663.0</ele><time>2026-03-28T10:07:33.999Z</time></trkpt><trkpt lat="40.655235771186256" lon="9.213570172152764"><ele>659.8</ele><time>2026-03-28T10:07:34.999Z</time></trkpt><trkpt lat="40.65515391075046" lon="9.213671170140513"><ele>656.5999999999999</ele><time>2026-03-28T10:07:36.999Z</time></trkpt><trkpt lat="40.65501857852488" lon="9.21365697112702"><ele>653.4000000000001</ele><time>2026-03-28T10:07:38.999Z</time></trkpt><trkpt lat="40.65493897203218" lon="9.213665787615755"><ele>650.2</ele><time>2026-03-28T10:07:39.999Z</time></trkpt><trkpt lat="40.65487071454617" lon="9.213675512359382"><ele>647.0</ele><time>2026-03-28T10:07:40.999Z</time></trkpt><trkpt lat="40.65477873361801" lon="9.21372011760744"><ele>647.0</ele><time>2026-03-28T10:07:42.999Z</time></trkpt><trkpt lat="40.65471784516302" lon="9.213756347784523"><ele>647.0</ele><time>2026-03-28T10:07:44.999Z</time></trkpt><trkpt lat="40.654637887387416" lon="9.213737641180636"><ele>647.0</ele><time>2026-03-28T10:07:47Z</time></trkpt><trkpt lat="40.654563364632466" lon="9.213685644159716"><ele>647.0</ele><time>2026-03-28T10:07:49Z</time></trkpt><trkpt lat="40.654616315348925" lon="9.213577418335161"><ele>647.0</ele><time>2026-03-28T10:07:51Z</time></trkpt><trkpt lat="40.654646359954036" lon="9.213401134852171"><ele>647.0</ele><time>2026-03-28T10:08:04Z</time></trkpt><trkpt lat="40.654661893198714" lon="9.21328891929509"><ele>647.0</ele><time>2026-03-28T10:08:05Z</time></trkpt><trkpt lat="40.6546551059985" lon="9.213192861400378"><ele>647.0</ele><time>2026-03-28T10:08:06Z</time></trkpt><trkpt lat="40.654653959850094" lon="9.213100522720493"><ele>647.0</ele><time>2026-03-28T10:08:07Z</time></trkpt><trkpt lat="40.654665162447884" lon="9.212973214493655"><ele>647.0</ele><time>2026-03-28T10:08:08Z</time></trkpt><trkpt lat="40.65464874771375" lon="9.212872469001224"><ele>647.0</ele><time>2026-03-28T10:08:08.999Z</time></trkpt><trkpt lat="40.65459490879919" lon="9.212753698522704"><ele>647.5</ele><time>2026-03-28T10:08:09.999Z</time></trkpt><trkpt lat="40.654488784023705" lon="9.212667628064592"><ele>648.0</ele><time>2026-03-28T10:08:10.999Z</time></trkpt><trkpt lat="40.654367012910406" lon="9.212584522635794"><ele>648.5</ele><time>2026-03-28T10:08:11.999Z</time></trkpt><trkpt lat="40.654229082905005" lon="9.212487951234566"><ele>649.0</ele><time>2026-03-28T10:08:12.999Z</time></trkpt><trkpt lat="40.654060089539875" lon="9.212367501639743"><ele>648.3333333333334</ele><time>2026-03-28T10:08:13.999Z</time></trkpt><trkpt lat="40.653884141470584" lon="9.212251726498607"><ele>647.6666666666666</ele><time>2026-03-28T10:08:14.999Z</time></trkpt><trkpt lat="40.65371338902552" lon="9.212105970555001"><ele>647.0</ele><time>2026-03-28T10:08:15.999Z</time></trkpt><trkpt lat="40.65356850653509" lon="9.211974921137255"><ele>647.6</ele><time>2026-03-28T10:08:16.999Z</time></trkpt><trkpt lat="40.65345227803369" lon="9.211874801871101"><ele>648.2</ele><time>2026-03-28T10:08:17.999Z</time></trkpt><trkpt lat="40.65338422632483" lon="9.211770674029028"><ele>648.8</ele><time>2026-03-28T10:08:18.999Z</time></trkpt><trkpt lat="40.653332743676486" lon="9.211667676481508"><ele>649.4</ele><time>2026-03-28T10:08:19.999Z</time></trkpt><trkpt lat="40.653293940634406" lon="9.211542325409159"><ele>650.0</ele><time>2026-03-28T10:08:20.999Z</time></trkpt><trkpt lat="40.65326043382879" lon="9.211372531272056"><ele>650.0</ele><time>2026-03-28T10:08:21.999Z</time></trkpt><trkpt lat="40.65322712665898" lon="9.21116504678521"><ele>650.0</ele><time>2026-03-28T10:08:22.999Z</time></trkpt><trkpt lat="40.653178225203376" lon="9.210938100430479"><ele>650.0</ele><time>2026-03-28T10:08:23.999Z</time></trkpt><trkpt lat="40.65313859740923" lon="9.210768748989151"><ele>649.0</ele><time>2026-03-28T10:08:24.999Z</time></trkpt><trkpt lat="40.65311086389388" lon="9.210637535794097"><ele>648.0</ele><time>2026-03-28T10:08:25.999Z</time></trkpt><trkpt lat="40.653078366893574" lon="9.21055774644182"><ele>647.0</ele><time>2026-03-28T10:08:26.999Z</time></trkpt><trkpt lat="40.65319811299719" lon="9.210411217192293"><ele>646.0</ele><time>2026-03-28T10:08:30.999Z</time></trkpt><trkpt lat="40.65329340278384" lon="9.210343917997779"><ele>645.0</ele><time>2026-03-28T10:08:31.999Z</time></trkpt><trkpt lat="40.65340085798917" lon="9.210286537810973"><ele>645.0</ele><time>2026-03-28T10:08:32.999Z</time></trkpt><trkpt lat="40.653505556016334" lon="9.210237275678365"><ele>645.0</ele><time>2026-03-28T10:08:33.999Z</time></trkpt><trkpt lat="40.65358224881844" lon="9.21018419883205"><ele>645.0</ele><time>2026-03-28T10:08:34.999Z</time></trkpt><trkpt lat="40.65364928323479" lon="9.21011957729753"><ele>645.0</ele><time>2026-03-28T10:08:35.999Z</time></trkpt><trkpt lat="40.65370837597812" lon="9.210040453759994"><ele>645.0</ele><time>2026-03-28T10:08:36.999Z</time></trkpt><trkpt lat="40.65377109392452" lon="9.209911736657745"><ele>644.25</ele><time>2026-03-28T10:08:37.999Z</time></trkpt><trkpt lat="40.653849708528504" lon="9.209759775951433"><ele>643.5</ele><time>2026-03-28T10:08:38.999Z</time></trkpt><trkpt lat="40.65392470682261" lon="9.209635199272299"><ele>642.75</ele><time>2026-03-28T10:08:39.999Z</time></trkpt><trkpt lat="40.65400832002235" lon="9.209543673168948"><ele>642.0</ele><time>2026-03-28T10:08:40.999Z</time></trkpt><trkpt lat="40.65409417036237" lon="9.209479205191641"><ele>642.0</ele><time>2026-03-28T10:08:41.999Z</time></trkpt><trkpt lat="40.65420835643421" lon="9.209458760949573"><ele>642.0</ele><time>2026-03-28T10:08:42.999Z</time></trkpt><trkpt lat="40.65435009899223" lon="9.20938946004481"><ele>642.0</ele><time>2026-03-28T10:08:43.999Z</time></trkpt><trkpt lat="40.654498836092586" lon="9.209347724459391"><ele>642.0</ele><time>2026-03-28T10:08:44.999Z</time></trkpt><trkpt lat="40.65462708236672" lon="9.20930709051788"><ele>641.5</ele><time>2026-03-28T10:08:45.999Z</time></trkpt><trkpt lat="40.654745577022894" lon="9.209234864764818"><ele>641.0</ele><time>2026-03-28T10:08:46.999Z</time></trkpt><trkpt lat="40.65486165161035" lon="9.209140778384324"><ele>640.5</ele><time>2026-03-28T10:08:47.999Z</time></trkpt><trkpt lat="40.654942519055474" lon="9.209067607557628"><ele>640.0</ele><time>2026-03-28T10:08:48.999Z</time></trkpt><trkpt lat="40.6549968959285" lon="9.20896602059608"><ele>644.5</ele><time>2026-03-28T10:08:49.999Z</time></trkpt><trkpt lat="40.65501383753765" lon="9.208825300380692"><ele>649.0</ele><time>2026-03-28T10:08:50.999Z</time></trkpt><trkpt lat="40.65508936327582" lon="9.208668416640448"><ele>653.5</ele><time>2026-03-28T10:08:51.999Z</time></trkpt><trkpt lat="40.655192644986855" lon="9.208490059039052"><ele>658.0</ele><time>2026-03-28T10:08:52.999Z</time></trkpt><trkpt lat="40.65527600205497" lon="9.208360335784214"><ele>658.5</ele><time>2026-03-28T10:08:53.999Z</time></trkpt><trkpt lat="40.65534338505719" lon="9.208278708137538"><ele>659.0</ele><time>2026-03-28T10:08:54.999Z</time></trkpt><trkpt lat="40.655439865177975" lon="9.208225934418552"><ele>659.5</ele><time>2026-03-28T10:08:55.999Z</time></trkpt><trkpt lat="40.655569863322285" lon="9.208193262047851"><ele>660.0</ele><time>2026-03-28T10:08:56.999Z</time></trkpt><trkpt lat="40.65571846954286" lon="9.208153737901073"><ele>660.0</ele><time>2026-03-28T10:08:57.999Z</time></trkpt><trkpt lat="40.65582901942267" lon="9.20815468354753"><ele>660.0</ele><time>2026-03-28T10:08:58.999Z</time></trkpt><trkpt lat="40.65589576117353" lon="9.208098294103523"><ele>660.0</ele><time>2026-03-28T10:09:00.999Z</time></trkpt><trkpt lat="40.65592017467821" lon="9.207997009879616"><ele>660.0</ele><time>2026-03-28T10:09:01.999Z</time></trkpt><trkpt lat="40.655956240561814" lon="9.207859727197881"><ele>660.0</ele><time>2026-03-28T10:09:02.999Z</time></trkpt><trkpt lat="40.656011048349306" lon="9.207687598261812"><ele>660.0</ele><time>2026-03-28T10:09:03.999Z</time></trkpt><trkpt lat="40.6560625603479" lon="9.207514917286257"><ele>660.0</ele><time>2026-03-28T10:09:04.999Z</time></trkpt><trkpt lat="40.656158438357714" lon="9.207402339108546"><ele>660.0</ele><time>2026-03-28T10:09:05.999Z</time></trkpt><trkpt lat="40.65623576273021" lon="9.20725261344272"><ele>660.0</ele><time>2026-03-28T10:09:06.999Z</time></trkpt><trkpt lat="40.656307513841334" lon="9.207132313827595"><ele>655.5</ele><time>2026-03-28T10:09:07.999Z</time></trkpt><trkpt lat="40.65636393938263" lon="9.20698915565054"><ele>651.0</ele><time>2026-03-28T10:09:08.999Z</time></trkpt><trkpt lat="40.65645433915137" lon="9.206882271348666"><ele>646.5</ele><time>2026-03-28T10:09:09.999Z</time></trkpt><trkpt lat="40.656551439777516" lon="9.206779415954543"><ele>642.0</ele><time>2026-03-28T10:09:10.999Z</time></trkpt><trkpt lat="40.65665819044672" lon="9.206699840049035"><ele>642.0</ele><time>2026-03-28T10:09:11.999Z</time></trkpt><trkpt lat="40.656757132973375" lon="9.206615439452868"><ele>642.0</ele><time>2026-03-28T10:09:12.999Z</time></trkpt><trkpt lat="40.65685469417883" lon="9.206502131883585"><ele>642.0</ele><time>2026-03-28T10:09:13.999Z</time></trkpt><trkpt lat="40.65694582305309" lon="9.206334019166615"><ele>642.0</ele><time>2026-03-28T10:09:14.999Z</time></trkpt><trkpt lat="40.65705172102476" lon="9.206165179541578"><ele>642.75</ele><time>2026-03-28T10:09:15.999Z</time></trkpt><trkpt lat="40.657170095239856" lon="9.206052590615645"><ele>643.5</ele><time>2026-03-28T10:09:16.999Z</time></trkpt><trkpt lat="40.6572737283875" lon="9.205978537001991"><ele>644.25</ele><time>2026-03-28T10:09:17.999Z</time></trkpt><trkpt lat="40.65736706235782" lon="9.205963474870531"><ele>645.0</ele><time>2026-03-28T10:09:18.999Z</time></trkpt><trkpt lat="40.65747364255731" lon="9.205981952383127"><ele>645.0</ele><time>2026-03-28T10:09:19.999Z</time></trkpt><trkpt lat="40.65759616557591" lon="9.20604136363814"><ele>645.0</ele><time>2026-03-28T10:09:20.999Z</time></trkpt><trkpt lat="40.657677532425645" lon="9.206155279123378"><ele>645.0</ele><time>2026-03-28T10:09:21.999Z</time></trkpt><trkpt lat="40.65773899560485" lon="9.206193908561216"><ele>645.0</ele><time>2026-03-28T10:09:22.999Z</time></trkpt><trkpt lat="40.65784127608994" lon="9.206229857154995"><ele>645.0</ele><time>2026-03-28T10:09:24.999Z</time></trkpt><trkpt lat="40.65791868275922" lon="9.206164432066785"><ele>643.25</ele><time>2026-03-28T10:09:25.999Z</time></trkpt><trkpt lat="40.657977754866046" lon="9.206023998967918"><ele>641.5</ele><time>2026-03-28T10:09:26.999Z</time></trkpt><trkpt lat="40.6580631908872" lon="9.205892201665554"><ele>639.75</ele><time>2026-03-28T10:09:27.999Z</time></trkpt><trkpt lat="40.6581458569551" lon="9.205763553860645"><ele>638.0</ele><time>2026-03-28T10:09:28.999Z</time></trkpt><trkpt lat="40.65820762934223" lon="9.205641594747606"><ele>638.0</ele><time>2026-03-28T10:09:29.999Z</time></trkpt><trkpt lat="40.65825830918642" lon="9.205475271272306"><ele>638.0</ele><time>2026-03-28T10:09:30.999Z</time></trkpt><trkpt lat="40.658309207114414" lon="9.205316842292905"><ele>638.0</ele><time>2026-03-28T10:09:31.999Z</time></trkpt><trkpt lat="40.658360496828436" lon="9.205193785967552"><ele>638.0</ele><time>2026-03-28T10:09:32.999Z</time></trkpt><trkpt lat="40.658430337285445" lon="9.205103237184586"><ele>638.0</ele><time>2026-03-28T10:09:33.999Z</time></trkpt><trkpt lat="40.65853945022627" lon="9.205062046636638"><ele>638.0</ele><time>2026-03-28T10:09:34.999Z</time></trkpt><trkpt lat="40.65866780865135" lon="9.20498143564301"><ele>638.0</ele><time>2026-03-28T10:09:35.999Z</time></trkpt><trkpt lat="40.65881833834427" lon="9.204897255204523"><ele>638.0</ele><time>2026-03-28T10:09:36.999Z</time></trkpt><trkpt lat="40.658963230476715" lon="9.204865298710603"><ele>635.5</ele><time>2026-03-28T10:09:37.999Z</time></trkpt><trkpt lat="40.65911172742467" lon="9.204849054400322"><ele>633.0</ele><time>2026-03-28T10:09:38.999Z</time></trkpt><trkpt lat="40.65924367435935" lon="9.204839927509637"><ele>630.5</ele><time>2026-03-28T10:09:39.999Z</time></trkpt><trkpt lat="40.6593631744011" lon="9.20488095496346"><ele>628.0</ele><time>2026-03-28T10:09:40.999Z</time></trkpt><trkpt lat="40.65947327198227" lon="9.204936291905977"><ele>627.6</ele><time>2026-03-28T10:09:41.999Z</time></trkpt><trkpt lat="40.659548002128275" lon="9.204968726003717"><ele>627.1999999999999</ele><time>2026-03-28T10:09:42.999Z</time></trkpt><trkpt lat="40.65965984681131" lon="9.204928088677557"><ele>626.8</ele><time>2026-03-28T10:09:44.999Z</time></trkpt><trkpt lat="40.65969172892369" lon="9.204794396974616"><ele>626.4</ele><time>2026-03-28T10:09:45.999Z</time></trkpt><trkpt lat="40.659737988613564" lon="9.204659688601984"><ele>626.0</ele><time>2026-03-28T10:09:46.999Z</time></trkpt><trkpt lat="40.65981050791083" lon="9.204488473531764"><ele>626.0</ele><time>2026-03-28T10:09:47.999Z</time></trkpt><trkpt lat="40.65987185719947" lon="9.204291810219091"><ele>626.0</ele><time>2026-03-28T10:09:48.999Z</time></trkpt><trkpt lat="40.65991116453525" lon="9.204100495364"><ele>626.0</ele><time>2026-03-28T10:09:49.999Z</time></trkpt><trkpt lat="40.659956821557316" lon="9.203952733289194"><ele>626.0</ele><time>2026-03-28T10:09:50.999Z</time></trkpt><trkpt lat="40.660006863387615" lon="9.203837993993833"><ele>629.5</ele><time>2026-03-28T10:09:51.999Z</time></trkpt><trkpt lat="40.66009510230128" lon="9.203760093860955"><ele>633.0</ele><time>2026-03-28T10:09:53Z</time></trkpt><trkpt lat="40.66020436863139" lon="9.203640183391217"><ele>636.5</ele><time>2026-03-28T10:09:54Z</time></trkpt><trkpt lat="40.66031882966933" lon="9.20353125246433"><ele>640.0</ele><time>2026-03-28T10:09:55Z</time></trkpt><trkpt lat="40.66042481679488" lon="9.203418582882005"><ele>636.0</ele><time>2026-03-28T10:09:56Z</time></trkpt><trkpt lat="40.660514528296915" lon="9.203310131391461"><ele>632.0</ele><time>2026-03-28T10:09:57Z</time></trkpt><trkpt lat="40.66063240437459" lon="9.203206409459082"><ele>628.0</ele><time>2026-03-28T10:09:58Z</time></trkpt><trkpt lat="40.66078685212888" lon="9.203095307587372"><ele>624.0</ele><time>2026-03-28T10:09:59Z</time></trkpt><trkpt lat="40.660933787366645" lon="9.203006884160066"><ele>624.0</ele><time>2026-03-28T10:10:00Z</time></trkpt><trkpt lat="40.66105839669555" lon="9.20291357142676"><ele>624.0</ele><time>2026-03-28T10:10:01Z</time></trkpt><trkpt lat="40.661177266563435" lon="9.202834835907144"><ele>624.0</ele><time>2026-03-28T10:10:02Z</time></trkpt><trkpt lat="40.66129926960278" lon="9.202775583548462"><ele>624.0</ele><time>2026-03-28T10:10:03Z</time></trkpt><trkpt lat="40.66143643529003" lon="9.20270251251257"><ele>618.3333333333334</ele><time>2026-03-28T10:10:04Z</time></trkpt><trkpt lat="40.66158480842761" lon="9.202604699428926"><ele>612.6666666666667</ele><time>2026-03-28T10:10:05Z</time></trkpt><trkpt lat="40.66173993984687" lon="9.20249571935163"><ele>607.0</ele><time>2026-03-28T10:10:06Z</time></trkpt><trkpt lat="40.66189712876803" lon="9.202454121297471"><ele>609.0</ele><time>2026-03-28T10:10:07Z</time></trkpt><trkpt lat="40.662047217441476" lon="9.202395972069352"><ele>611.0</ele><time>2026-03-28T10:10:08Z</time></trkpt><trkpt lat="40.66220508216007" lon="9.202377946118872"><ele>613.0</ele><time>2026-03-28T10:10:09Z</time></trkpt><trkpt lat="40.66235820466366" lon="9.202384342459156"><ele>613.0</ele><time>2026-03-28T10:10:10Z</time></trkpt><trkpt lat="40.662516375733624" lon="9.202394962710017"><ele>613.0</ele><time>2026-03-28T10:10:11Z</time></trkpt><trkpt lat="40.66265240714574" lon="9.202425470193756"><ele>613.0</ele><time>2026-03-28T10:10:12Z</time></trkpt><trkpt lat="40.662753391068215" lon="9.202474994630043"><ele>613.0</ele><time>2026-03-28T10:10:13Z</time></trkpt><trkpt lat="40.66286713010866" lon="9.20255830328796"><ele>616.6666666666667</ele><time>2026-03-28T10:10:14Z</time></trkpt><trkpt lat="40.66300508964995" lon="9.202665478716657"><ele>620.3333333333334</ele><time>2026-03-28T10:10:15Z</time></trkpt><trkpt lat="40.66316334628274" lon="9.202739912868315"><ele>624.0</ele><time>2026-03-28T10:10:15.999Z</time></trkpt><trkpt lat="40.663301379012864" lon="9.202816534362505"><ele>624.0</ele><time>2026-03-28T10:10:16.999Z</time></trkpt><trkpt lat="40.66343225783187" lon="9.202874422443616"><ele>624.0</ele><time>2026-03-28T10:10:17.999Z</time></trkpt><trkpt lat="40.663552468311714" lon="9.202956236913696"><ele>624.0</ele><time>2026-03-28T10:10:18.999Z</time></trkpt><trkpt lat="40.66366040183858" lon="9.203062253987309"><ele>624.0</ele><time>2026-03-28T10:10:19.999Z</time></trkpt><trkpt lat="40.66378852705948" lon="9.20322054805803"><ele>621.4</ele><time>2026-03-28T10:10:20.999Z</time></trkpt><trkpt lat="40.663888215527635" lon="9.203363911172476"><ele>618.8</ele><time>2026-03-28T10:10:21.999Z</time></trkpt><trkpt lat="40.663938310621475" lon="9.203458817552352"><ele>616.2</ele><time>2026-03-28T10:10:22.999Z</time></trkpt><trkpt lat="40.6640207963171" lon="9.203534923538479"><ele>613.6</ele><time>2026-03-28T10:10:24.999Z</time></trkpt><trkpt lat="40.664087811420366" lon="9.203600607519892"><ele>611.0</ele><time>2026-03-28T10:10:25.999Z</time></trkpt><trkpt lat="40.66417599221526" lon="9.203674618272908"><ele>611.0</ele><time>2026-03-28T10:10:26.999Z</time></trkpt><trkpt lat="40.664289632533155" lon="9.203760674121835"><ele>611.0</ele><time>2026-03-28T10:10:27.999Z</time></trkpt><trkpt lat="40.664562774003535" lon="9.203496666175313"><ele>609.25</ele><time>2026-03-28T10:10:28.999Z</time></trkpt><trkpt lat="40.66469133348534" lon="9.203501217822676"><ele>607.5</ele><time>2026-03-28T10:10:29.999Z</time></trkpt><trkpt lat="40.66480181634878" lon="9.203478289288956"><ele>605.75</ele><time>2026-03-28T10:10:30.999Z</time></trkpt><trkpt lat="40.66490445228182" lon="9.203392760518387"><ele>604.0</ele><time>2026-03-28T10:10:31.999Z</time></trkpt><trkpt lat="40.665038940289215" lon="9.203303414993918"><ele>604.0</ele><time>2026-03-28T10:10:32.999Z</time></trkpt><trkpt lat="40.665184262484644" lon="9.203188722200313"><ele>604.0</ele><time>2026-03-28T10:10:33.999Z</time></trkpt><trkpt lat="40.66532935038463" lon="9.203087128308272"><ele>604.0</ele><time>2026-03-28T10:10:34.999Z</time></trkpt><trkpt lat="40.66551443094931" lon="9.202973489273223"><ele>608.3333333333334</ele><time>2026-03-28T10:10:35.999Z</time></trkpt><trkpt lat="40.66570252787129" lon="9.202856803137506"><ele>612.6666666666666</ele><time>2026-03-28T10:10:36.999Z</time></trkpt><trkpt lat="40.665849818238534" lon="9.202772542801045"><ele>617.0</ele><time>2026-03-28T10:10:37.999Z</time></trkpt><trkpt lat="40.66597295484276" lon="9.202695363370289"><ele>617.0</ele><time>2026-03-28T10:10:38.999Z</time></trkpt><trkpt lat="40.666078887219285" lon="9.202622195373063"><ele>617.0</ele><time>2026-03-28T10:10:39.999Z</time></trkpt><trkpt lat="40.66620541609901" lon="9.202539362107526"><ele>617.0</ele><time>2026-03-28T10:10:40.999Z</time></trkpt><trkpt lat="40.666368189547825" lon="9.202455685577872"><ele>617.0</ele><time>2026-03-28T10:10:41.999Z</time></trkpt><trkpt lat="40.66651542466509" lon="9.202392949481553"><ele>613.0</ele><time>2026-03-28T10:10:42.999Z</time></trkpt><trkpt lat="40.66664329437431" lon="9.202337308002564"><ele>609.0</ele><time>2026-03-28T10:10:43.999Z</time></trkpt><trkpt lat="40.66675279874855" lon="9.202302771402866"><ele>605.0</ele><time>2026-03-28T10:10:44.999Z</time></trkpt><trkpt lat="40.66686829983184" lon="9.202299146734541"><ele>601.0</ele><time>2026-03-28T10:10:45.999Z</time></trkpt><trkpt lat="40.666988250439225" lon="9.20231878078189"><ele>602.0</ele><time>2026-03-28T10:10:46.999Z</time></trkpt><trkpt lat="40.667105207504456" lon="9.202374029572159"><ele>603.0</ele><time>2026-03-28T10:10:47.999Z</time></trkpt><trkpt lat="40.66724179747861" lon="9.202474752560011"><ele>604.0</ele><time>2026-03-28T10:10:48.999Z</time></trkpt><trkpt lat="40.66740225790153" lon="9.202595401531646"><ele>604.0</ele><time>2026-03-28T10:10:49.999Z</time></trkpt><trkpt lat="40.66756609022182" lon="9.202695437948785"><ele>604.0</ele><time>2026-03-28T10:10:50.999Z</time></trkpt><trkpt lat="40.66772546619024" lon="9.202761965097054"><ele>604.0</ele><time>2026-03-28T10:10:51.999Z</time></trkpt><trkpt lat="40.66787565458822" lon="9.202808940906353"><ele>604.6666666666667</ele><time>2026-03-28T10:10:52.999Z</time></trkpt><trkpt lat="40.66802895488238" lon="9.20283003505293"><ele>605.3333333333334</ele><time>2026-03-28T10:10:53.999Z</time></trkpt><trkpt lat="40.668200822294224" lon="9.202859776650142"><ele>606.0</ele><time>2026-03-28T10:10:54.999Z</time></trkpt><trkpt lat="40.668369867029455" lon="9.202930592957722"><ele>606.0</ele><time>2026-03-28T10:10:55.999Z</time></trkpt><trkpt lat="40.66848934121298" lon="9.202996083599938"><ele>606.0</ele><time>2026-03-28T10:10:56.999Z</time></trkpt><trkpt lat="40.66858872375329" lon="9.203047693683052"><ele>606.0</ele><time>2026-03-28T10:10:57.999Z</time></trkpt><trkpt lat="40.66866608039804" lon="9.20308068579348"><ele>606.0</ele><time>2026-03-28T10:10:58.999Z</time></trkpt><trkpt lat="40.66873669062074" lon="9.203123987374283"><ele>606.0</ele><time>2026-03-28T10:11:00.999Z</time></trkpt><trkpt lat="40.66880257363054" lon="9.203187934263603"><ele>600.8</ele><time>2026-03-28T10:11:03.999Z</time></trkpt><trkpt lat="40.668881098419625" lon="9.203300081409857"><ele>595.6</ele><time>2026-03-28T10:11:05.999Z</time></trkpt><trkpt lat="40.66891581824329" lon="9.203381690030453"><ele>590.4</ele><time>2026-03-28T10:11:06.999Z</time></trkpt><trkpt lat="40.6689821146179" lon="9.203466732202932"><ele>585.2</ele><time>2026-03-28T10:11:08.999Z</time></trkpt><trkpt lat="40.6690500522362" lon="9.203535702655703"><ele>580.0</ele><time>2026-03-28T10:11:10.999Z</time></trkpt><trkpt lat="40.66914441311255" lon="9.203525864743686"><ele>580.0</ele><time>2026-03-28T10:11:12.999Z</time></trkpt><trkpt lat="40.66924915210601" lon="9.203415638551421"><ele>580.0</ele><time>2026-03-28T10:11:14.999Z</time></trkpt><trkpt lat="40.66928773635023" lon="9.203307427412842"><ele>580.0</ele><time>2026-03-28T10:11:15.999Z</time></trkpt><trkpt lat="40.6693388605788" lon="9.203153968701216"><ele>580.0</ele><time>2026-03-28T10:11:16.999Z</time></trkpt><trkpt lat="40.669395823232946" lon="9.203015217911586"><ele>578.5</ele><time>2026-03-28T10:11:17.999Z</time></trkpt><trkpt lat="40.66944511800185" lon="9.202898947013548"><ele>577.0</ele><time>2026-03-28T10:11:18.999Z</time></trkpt><trkpt lat="40.66949082837198" lon="9.202784535466218"><ele>575.5</ele><time>2026-03-28T10:11:19.999Z</time></trkpt><trkpt lat="40.669529630806764" lon="9.202679342340767"><ele>574.0</ele><time>2026-03-28T10:11:20.999Z</time></trkpt><trkpt lat="40.6695723640335" lon="9.20259864192015"><ele>572.5</ele><time>2026-03-28T10:11:21.999Z</time></trkpt><trkpt lat="40.66962065029347" lon="9.202541666532142"><ele>571.0</ele><time>2026-03-28T10:11:22.999Z</time></trkpt><trkpt lat="40.669689837269374" lon="9.202478419326711"><ele>571.0</ele><time>2026-03-28T10:11:24.999Z</time></trkpt><trkpt lat="40.669743265943346" lon="9.202394707205789"><ele>571.0</ele><time>2026-03-28T10:11:26.999Z</time></trkpt><trkpt lat="40.669785775829894" lon="9.202325123049238"><ele>571.0</ele><time>2026-03-28T10:11:29.999Z</time></trkpt><trkpt lat="40.66971386533425" lon="9.202323548232117"><ele>571.0</ele><time>2026-03-28T10:12:28Z</time></trkpt><trkpt lat="40.66976949385104" lon="9.202281311718124"><ele>571.0</ele><time>2026-03-28T10:13:11.999Z</time></trkpt><trkpt lat="40.66982856225071" lon="9.202248539015818"><ele>571.0</ele><time>2026-03-28T10:13:17.999Z</time></trkpt><trkpt lat="40.66987157621191" lon="9.2021794588973"><ele>571.0</ele><time>2026-03-28T10:13:23.999Z</time></trkpt><trkpt lat="40.669821884022646" lon="9.202241995605341"><ele>571.0</ele><time>2026-03-28T10:14:53.999Z</time></trkpt><trkpt lat="40.66976427557483" lon="9.20230030138989"><ele>571.0</ele><time>2026-03-28T10:15:36.999Z</time></trkpt><trkpt lat="40.66982630874341" lon="9.202223567842642"><ele>571.0</ele><time>2026-03-28T10:20:25Z</time></trkpt><trkpt lat="40.66989885305419" lon="9.202218029259006"><ele>571.0</ele><time>2026-03-28T10:20:28Z</time></trkpt><trkpt lat="40.66993613210701" lon="9.20230040704861"><ele>571.0</ele><time>2026-03-28T10:20:30Z</time></trkpt><trkpt lat="40.66994592266106" lon="9.202404285041112"><ele>571.0</ele><time>2026-03-28T10:20:33Z</time></trkpt><trkpt lat="40.66988826060535" lon="9.202497250588204"><ele>571.0</ele><time>2026-03-28T10:20:36Z</time></trkpt><trkpt lat="40.6698339238831" lon="9.202555363746722"><ele>571.0</ele><time>2026-03-28T10:20:38Z</time></trkpt><trkpt lat="40.66976016674946" lon="9.202603737391403"><ele>571.0</ele><time>2026-03-28T10:20:40Z</time></trkpt><trkpt lat="40.66962200558329" lon="9.202628369141623"><ele>571.0</ele><time>2026-03-28T10:20:42Z</time></trkpt><trkpt lat="40.66953304702601" lon="9.202669151202299"><ele>571.0</ele><time>2026-03-28T10:20:44Z</time></trkpt><trkpt lat="40.66945861931754" lon="9.202794747632954"><ele>572.5</ele><time>2026-03-28T10:20:46Z</time></trkpt><trkpt lat="40.66943159819623" lon="9.202892555004285"><ele>574.0</ele><time>2026-03-28T10:20:47Z</time></trkpt><trkpt lat="40.66939620396852" lon="9.20301033537039"><ele>575.5</ele><time>2026-03-28T10:20:48Z</time></trkpt><trkpt lat="40.66935690122578" lon="9.203118679323198"><ele>577.0</ele><time>2026-03-28T10:20:49Z</time></trkpt><trkpt lat="40.669311690033375" lon="9.203229892204861"><ele>578.5</ele><time>2026-03-28T10:20:50Z</time></trkpt><trkpt lat="40.66927038032954" lon="9.203326625890412"><ele>580.0</ele><time>2026-03-28T10:20:51Z</time></trkpt><trkpt lat="40.66924003376543" lon="9.203399911766478"><ele>580.0</ele><time>2026-03-28T10:20:52Z</time></trkpt><trkpt lat="40.66915580555081" lon="9.203511491861521"><ele>580.0</ele><time>2026-03-28T10:20:54Z</time></trkpt><trkpt lat="40.6690477139471" lon="9.203523020990126"><ele>580.0</ele><time>2026-03-28T10:20:56Z</time></trkpt><trkpt lat="40.66894215722462" lon="9.203431073179663"><ele>580.0</ele><time>2026-03-28T10:20:57.999Z</time></trkpt><trkpt lat="40.66889689262643" lon="9.203344902383549"><ele>580.0</ele><time>2026-03-28T10:20:58.999Z</time></trkpt><trkpt lat="40.66885346262393" lon="9.20323966800466"><ele>582.1666666666667</ele><time>2026-03-28T10:20:59.999Z</time></trkpt><trkpt lat="40.66880722435627" lon="9.203148702320542"><ele>584.3333333333334</ele><time>2026-03-28T10:21:00.999Z</time></trkpt><trkpt lat="40.66874648748297" lon="9.203105378357915"><ele>586.5</ele><time>2026-03-28T10:21:01.999Z</time></trkpt><trkpt lat="40.66868114661765" lon="9.203066531554557"><ele>588.6666666666666</ele><time>2026-03-28T10:21:02.999Z</time></trkpt><trkpt lat="40.66862163153331" lon="9.20303689583452"><ele>590.8333333333333</ele><time>2026-03-28T10:21:03.999Z</time></trkpt><trkpt lat="40.66854246511146" lon="9.203012540398596"><ele>593.0</ele><time>2026-03-28T10:21:04.999Z</time></trkpt><trkpt lat="40.6684524616852" lon="9.202976195206155"><ele>596.25</ele><time>2026-03-28T10:21:05.999Z</time></trkpt><trkpt lat="40.66834782223506" lon="9.202923602764521"><ele>599.5</ele><time>2026-03-28T10:21:06.999Z</time></trkpt><trkpt lat="40.66823533105902" lon="9.20286803894122"><ele>602.75</ele><time>2026-03-28T10:21:07.999Z</time></trkpt><trkpt lat="40.66812792520834" lon="9.202826404130912"><ele>606.0</ele><time>2026-03-28T10:21:08.999Z</time></trkpt><trkpt lat="40.668021252470304" lon="9.202807912859791"><ele>606.0</ele><time>2026-03-28T10:21:09.999Z</time></trkpt><trkpt lat="40.667894836244365" lon="9.20279020487597"><ele>606.0</ele><time>2026-03-28T10:21:10.999Z</time></trkpt><trkpt lat="40.66777219324567" lon="9.20276365837147"><ele>606.0</ele><time>2026-03-28T10:21:11.999Z</time></trkpt><trkpt lat="40.667646409667" lon="9.202717649691584"><ele>606.0</ele><time>2026-03-28T10:21:12.999Z</time></trkpt><trkpt lat="40.6675116305632" lon="9.202657569108055"><ele>605.5</ele><time>2026-03-28T10:21:13.999Z</time></trkpt><trkpt lat="40.66738336866327" lon="9.202587099567479"><ele>605.0</ele><time>2026-03-28T10:21:14.999Z</time></trkpt><trkpt lat="40.667264890753536" lon="9.20251047984093"><ele>604.5</ele><time>2026-03-28T10:21:15.999Z</time></trkpt><trkpt lat="40.66716078926164" lon="9.202432206023195"><ele>604.0</ele><time>2026-03-28T10:21:16.999Z</time></trkpt><trkpt lat="40.66705882281428" lon="9.202355166410209"><ele>603.4</ele><time>2026-03-28T10:21:17.999Z</time></trkpt><trkpt lat="40.66695837117178" lon="9.202306779768072"><ele>602.8</ele><time>2026-03-28T10:21:18.999Z</time></trkpt><trkpt lat="40.66683276975335" lon="9.202293236947133"><ele>602.2</ele><time>2026-03-28T10:21:19.999Z</time></trkpt><trkpt lat="40.666724472974664" lon="9.202294189380153"><ele>601.6</ele><time>2026-03-28T10:21:20.999Z</time></trkpt><trkpt lat="40.66662160709636" lon="9.20232572471932"><ele>601.0</ele><time>2026-03-28T10:21:21.999Z</time></trkpt><trkpt lat="40.66649817652992" lon="9.202392644235282"><ele>601.0</ele><time>2026-03-28T10:21:22.999Z</time></trkpt><trkpt lat="40.66634298429813" lon="9.202477022422839"><ele>601.0</ele><time>2026-03-28T10:21:23.999Z</time></trkpt><trkpt lat="40.66619670130084" lon="9.202544262813458"><ele>601.0</ele><time>2026-03-28T10:21:24.999Z</time></trkpt><trkpt lat="40.66606428159761" lon="9.202613848538466"><ele>605.0</ele><time>2026-03-28T10:21:25.999Z</time></trkpt><trkpt lat="40.66593869867693" lon="9.202700711012891"><ele>609.0</ele><time>2026-03-28T10:21:26.999Z</time></trkpt><trkpt lat="40.665808341828715" lon="9.202795501529632"><ele>613.0</ele><time>2026-03-28T10:21:27.999Z</time></trkpt><trkpt lat="40.66566458092372" lon="9.202880606324891"><ele>617.0</ele><time>2026-03-28T10:21:28.999Z</time></trkpt><trkpt lat="40.66553536917592" lon="9.202961162468855"><ele>617.0</ele><time>2026-03-28T10:21:29.999Z</time></trkpt><trkpt lat="40.665412798384025" lon="9.203040783519276"><ele>617.0</ele><time>2026-03-28T10:21:30.999Z</time></trkpt><trkpt lat="40.66529209455073" lon="9.20311590644511"><ele>617.0</ele><time>2026-03-28T10:21:31.999Z</time></trkpt><trkpt lat="40.66517539046793" lon="9.203184718518068"><ele>617.0</ele><time>2026-03-28T10:21:32.999Z</time></trkpt><trkpt lat="40.66507016867183" lon="9.203256203957134"><ele>613.75</ele><time>2026-03-28T10:21:33.999Z</time></trkpt><trkpt lat="40.66496424164284" lon="9.203335716818875"><ele>610.5</ele><time>2026-03-28T10:21:34.999Z</time></trkpt><trkpt lat="40.66485636899882" lon="9.203411900986927"><ele>607.25</ele><time>2026-03-28T10:21:35.999Z</time></trkpt><trkpt lat="40.66475101039744" lon="9.2034706107017"><ele>604.0</ele><time>2026-03-28T10:21:36.999Z</time></trkpt><trkpt lat="40.664651301479005" lon="9.20350554693708"><ele>604.0</ele><time>2026-03-28T10:21:37.999Z</time></trkpt><trkpt lat="40.664538784890226" lon="9.203517619657969"><ele>604.0</ele><time>2026-03-28T10:21:38.999Z</time></trkpt><trkpt lat="40.664403514381135" lon="9.203503013818846"><ele>604.0</ele><time>2026-03-28T10:21:39.999Z</time></trkpt><trkpt lat="40.66424457351625" lon="9.20350108479"><ele>604.0</ele><time>2026-03-28T10:21:40.999Z</time></trkpt><trkpt lat="40.664095870695306" lon="9.2035060287126"><ele>605.4</ele><time>2026-03-28T10:21:41.999Z</time></trkpt><trkpt lat="40.66400433427911" lon="9.203499042142555"><ele>606.8</ele><time>2026-03-28T10:21:42.999Z</time></trkpt><trkpt lat="40.66390225313255" lon="9.203433408331797"><ele>608.2</ele><time>2026-03-28T10:21:44.999Z</time></trkpt><trkpt lat="40.66384750944902" lon="9.20333244410404"><ele>609.6</ele><time>2026-03-28T10:21:45.999Z</time></trkpt><trkpt lat="40.66375549934357" lon="9.20318754911001"><ele>611.0</ele><time>2026-03-28T10:21:46.999Z</time></trkpt><trkpt lat="40.66365890434487" lon="9.203051272069981"><ele>614.25</ele><time>2026-03-28T10:21:47.999Z</time></trkpt><trkpt lat="40.66355789524302" lon="9.202940120895388"><ele>617.5</ele><time>2026-03-28T10:21:48.999Z</time></trkpt><trkpt lat="40.6634523832332" lon="9.20286331707756"><ele>620.75</ele><time>2026-03-28T10:21:49.999Z</time></trkpt><trkpt lat="40.66332455929751" lon="9.20280614198859"><ele>624.0</ele><time>2026-03-28T10:21:50.999Z</time></trkpt><trkpt lat="40.66316441890249" lon="9.202738769606977"><ele>624.0</ele><time>2026-03-28T10:21:51.999Z</time></trkpt><trkpt lat="40.66302627086638" lon="9.202669486130963"><ele>624.0</ele><time>2026-03-28T10:21:52.999Z</time></trkpt><trkpt lat="40.66291317746926" lon="9.202596709409537"><ele>624.0</ele><time>2026-03-28T10:21:53.999Z</time></trkpt><trkpt lat="40.66280999108562" lon="9.202533289509532"><ele>624.0</ele><time>2026-03-28T10:21:54.999Z</time></trkpt><trkpt lat="40.66271180625379" lon="9.202461187479795"><ele>621.25</ele><time>2026-03-28T10:21:55.999Z</time></trkpt><trkpt lat="40.66262293147378" lon="9.202408123392708"><ele>618.5</ele><time>2026-03-28T10:21:56.999Z</time></trkpt><trkpt lat="40.66249538857939" lon="9.202379205556726"><ele>615.75</ele><time>2026-03-28T10:21:57.999Z</time></trkpt><trkpt lat="40.6623456697982" lon="9.202364396123949"><ele>613.0</ele><time>2026-03-28T10:21:58.999Z</time></trkpt><trkpt lat="40.66222220261632" lon="9.202366325647919"><ele>613.0</ele><time>2026-03-28T10:21:59.999Z</time></trkpt><trkpt lat="40.66210991132326" lon="9.202380817210617"><ele>613.0</ele><time>2026-03-28T10:22:00.999Z</time></trkpt><trkpt lat="40.66197861885257" lon="9.20240402195523"><ele>613.0</ele><time>2026-03-28T10:22:01.999Z</time></trkpt><trkpt lat="40.66185573229653" lon="9.202440026938952"><ele>613.0</ele><time>2026-03-28T10:22:02.999Z</time></trkpt><trkpt lat="40.66173749649701" lon="9.20248492520498"><ele>611.5</ele><time>2026-03-28T10:22:03.999Z</time></trkpt><trkpt lat="40.661599571729546" lon="9.202554918821557"><ele>610.0</ele><time>2026-03-28T10:22:04.999Z</time></trkpt><trkpt lat="40.66147490907938" lon="9.202642789941939"><ele>608.5</ele><time>2026-03-28T10:22:05.999Z</time></trkpt><trkpt lat="40.66134211216337" lon="9.202744676118824"><ele>607.0</ele><time>2026-03-28T10:22:06.999Z</time></trkpt><trkpt lat="40.66122170824395" lon="9.202815611808095"><ele>607.75</ele><time>2026-03-28T10:22:07.999Z</time></trkpt><trkpt lat="40.66110476298213" lon="9.202874154790997"><ele>608.5</ele><time>2026-03-28T10:22:08.999Z</time></trkpt><trkpt lat="40.66097399209934" lon="9.202953701371577"><ele>609.25</ele><time>2026-03-28T10:22:09.999Z</time></trkpt><trkpt lat="40.660827914812444" lon="9.203069072994465"><ele>610.0</ele><time>2026-03-28T10:22:10.999Z</time></trkpt><trkpt lat="40.660697771395874" lon="9.203166674488731"><ele>610.0</ele><time>2026-03-28T10:22:11.999Z</time></trkpt><trkpt lat="40.66057517201594" lon="9.203257140433621"><ele>610.0</ele><time>2026-03-28T10:22:12.999Z</time></trkpt><trkpt lat="40.660461863752566" lon="9.20335720251689"><ele>610.0</ele><time>2026-03-28T10:22:13.999Z</time></trkpt><trkpt lat="40.66035913328761" lon="9.20347432654"><ele>610.0</ele><time>2026-03-28T10:22:14.999Z</time></trkpt><trkpt lat="40.6602568399479" lon="9.203597814236774"><ele>614.0</ele><time>2026-03-28T10:22:15.999Z</time></trkpt><trkpt lat="40.66014745880583" lon="9.203709916037209"><ele>618.0</ele><time>2026-03-28T10:22:16.999Z</time></trkpt><trkpt lat="40.660038801431696" lon="9.203802158967582"><ele>622.0</ele><time>2026-03-28T10:22:17.999Z</time></trkpt><trkpt lat="40.65996475369117" lon="9.203899648076087"><ele>626.0</ele><time>2026-03-28T10:22:18.999Z</time></trkpt><trkpt lat="40.65991569159397" lon="9.20401018895015"><ele>626.0</ele><time>2026-03-28T10:22:19.999Z</time></trkpt><trkpt lat="40.659891286665236" lon="9.204128248752154"><ele>626.0</ele><time>2026-03-28T10:22:20.999Z</time></trkpt><trkpt lat="40.659865988547594" lon="9.204277193383128"><ele>626.0</ele><time>2026-03-28T10:22:21.999Z</time></trkpt><trkpt lat="40.65980283604665" lon="9.20446899597721"><ele>626.0</ele><time>2026-03-28T10:22:22.999Z</time></trkpt><trkpt lat="40.65975147387444" lon="9.204628277928366"><ele>626.0</ele><time>2026-03-28T10:22:23.999Z</time></trkpt><trkpt lat="40.65970288084233" lon="9.20474512217401"><ele>626.0</ele><time>2026-03-28T10:22:24.999Z</time></trkpt><trkpt lat="40.65963946303933" lon="9.204860232264725"><ele>626.0</ele><time>2026-03-28T10:22:25.999Z</time></trkpt><trkpt lat="40.659594078963224" lon="9.204929410171307"><ele>626.0</ele><time>2026-03-28T10:22:26.999Z</time></trkpt><trkpt lat="40.65948636432892" lon="9.204962391301772"><ele>626.0</ele><time>2026-03-28T10:22:29Z</time></trkpt><trkpt lat="40.659418911691006" lon="9.204923689752688"><ele>626.4</ele><time>2026-03-28T10:22:30Z</time></trkpt><trkpt lat="40.659322711282165" lon="9.20487072731975"><ele>626.8</ele><time>2026-03-28T10:22:31Z</time></trkpt><trkpt lat="40.659219744464586" lon="9.204837804459109"><ele>627.1999999999999</ele><time>2026-03-28T10:22:32Z</time></trkpt><trkpt lat="40.65911873620933" lon="9.204798682427642"><ele>627.6</ele><time>2026-03-28T10:22:33Z</time></trkpt><trkpt lat="40.6590093773604" lon="9.204812065349863"><ele>628.0</ele><time>2026-03-28T10:22:34Z</time></trkpt><trkpt lat="40.658894748542664" lon="9.204833615610502"><ele>628.0</ele><time>2026-03-28T10:22:35Z</time></trkpt><trkpt lat="40.658774852896784" lon="9.204867809480685"><ele>628.0</ele><time>2026-03-28T10:22:36Z</time></trkpt><trkpt lat="40.65865753976149" lon="9.204924294005194"><ele>628.0</ele><time>2026-03-28T10:22:37Z</time></trkpt><trkpt lat="40.658548670730106" lon="9.205008321913565"><ele>628.0</ele><time>2026-03-28T10:22:38Z</time></trkpt><trkpt lat="40.65844214798123" lon="9.2050495121519"><ele>630.5</ele><time>2026-03-28T10:22:39Z</time></trkpt><trkpt lat="40.65836432256044" lon="9.20511113671937"><ele>633.0</ele><time>2026-03-28T10:22:40Z</time></trkpt><trkpt lat="40.65829382412007" lon="9.20522099919191"><ele>635.5</ele><time>2026-03-28T10:22:41Z</time></trkpt><trkpt lat="40.65826136233367" lon="9.20537463619175"><ele>638.0</ele><time>2026-03-28T10:22:42Z</time></trkpt><trkpt lat="40.65822212781076" lon="9.20555164910386"><ele>635.0</ele><time>2026-03-28T10:22:43Z</time></trkpt><trkpt lat="40.65814376252804" lon="9.205696329058068"><ele>632.0</ele><time>2026-03-28T10:22:44Z</time></trkpt><trkpt lat="40.65806252872965" lon="9.20582200336397"><ele>629.0</ele><time>2026-03-28T10:22:45Z</time></trkpt><trkpt lat="40.657979914893936" lon="9.205946477273335"><ele>626.0</ele><time>2026-03-28T10:22:46Z</time></trkpt><trkpt lat="40.65789914751917" lon="9.206074534155274"><ele>626.0</ele><time>2026-03-28T10:22:47Z</time></trkpt><trkpt lat="40.65784596431824" lon="9.206179754762376"><ele>626.0</ele><time>2026-03-28T10:22:48Z</time></trkpt><trkpt lat="40.65773159286096" lon="9.20619559025136"><ele>626.0</ele><time>2026-03-28T10:22:50Z</time></trkpt><trkpt lat="40.65764331180577" lon="9.20602732732655"><ele>626.0</ele><time>2026-03-28T10:22:52Z</time></trkpt><trkpt lat="40.65754492544403" lon="9.205948633955023"><ele>629.8</ele><time>2026-03-28T10:22:53Z</time></trkpt><trkpt lat="40.65743059362486" lon="9.205918716958411"><ele>633.6</ele><time>2026-03-28T10:22:54Z</time></trkpt><trkpt lat="40.657326303975786" lon="9.205913526346716"><ele>637.4</ele><time>2026-03-28T10:22:55Z</time></trkpt><trkpt lat="40.65723353402907" lon="9.205952268075528"><ele>641.2</ele><time>2026-03-28T10:22:56Z</time></trkpt><trkpt lat="40.65712719520347" lon="9.20603345916548"><ele>645.0</ele><time>2026-03-28T10:22:57Z</time></trkpt><trkpt lat="40.6570238113014" lon="9.206177848162895"><ele>644.25</ele><time>2026-03-28T10:22:58Z</time></trkpt><trkpt lat="40.656924978809506" lon="9.206329592411056"><ele>643.5</ele><time>2026-03-28T10:22:59Z</time></trkpt><trkpt lat="40.65680396926937" lon="9.206481994253394"><ele>642.75</ele><time>2026-03-28T10:23:00Z</time></trkpt><trkpt lat="40.656707610294" lon="9.206590487030045"><ele>642.0</ele><time>2026-03-28T10:23:01Z</time></trkpt><trkpt lat="40.656631806899696" lon="9.206664133140643"><ele>642.0</ele><time>2026-03-28T10:23:02Z</time></trkpt><trkpt lat="40.656497610832865" lon="9.206759294995429"><ele>642.0</ele><time>2026-03-28T10:23:03Z</time></trkpt><trkpt lat="40.65640310799473" lon="9.206873901157746"><ele>642.0</ele><time>2026-03-28T10:23:04Z</time></trkpt><trkpt lat="40.656330311921074" lon="9.207005136355699"><ele>642.0</ele><time>2026-03-28T10:23:05Z</time></trkpt><trkpt lat="40.65626330410238" lon="9.207149114851038"><ele>642.0</ele><time>2026-03-28T10:23:06Z</time></trkpt><trkpt lat="40.6561651638704" lon="9.20732136511414"><ele>642.0</ele><time>2026-03-28T10:23:07Z</time></trkpt><trkpt lat="40.65607436008435" lon="9.207460222338351"><ele>642.0</ele><time>2026-03-28T10:23:08Z</time></trkpt><trkpt lat="40.656008785435695" lon="9.207592369783859"><ele>642.0</ele><time>2026-03-28T10:23:09Z</time></trkpt><trkpt lat="40.655951750597836" lon="9.207756627857945"><ele>645.6</ele><time>2026-03-28T10:23:10Z</time></trkpt><trkpt lat="40.65590345555532" lon="9.207937985294118"><ele>649.2</ele><time>2026-03-28T10:23:11Z</time></trkpt><trkpt lat="40.6558676263163" lon="9.208050893729332"><ele>652.8</ele><time>2026-03-28T10:23:11.999Z</time></trkpt><trkpt lat="40.655796250732564" lon="9.208143127028801"><ele>656.4</ele><time>2026-03-28T10:23:13.999Z</time></trkpt><trkpt lat="40.65572467101183" lon="9.208111041774442"><ele>660.0</ele><time>2026-03-28T10:23:14.999Z</time></trkpt><trkpt lat="40.655621237810486" lon="9.208139361117421"><ele>659.5</ele><time>2026-03-28T10:23:15.999Z</time></trkpt><trkpt lat="40.6554917124834" lon="9.208178781915178"><ele>659.0</ele><time>2026-03-28T10:23:16.999Z</time></trkpt><trkpt lat="40.6553597611929" lon="9.20820925465105"><ele>658.5</ele><time>2026-03-28T10:23:17.999Z</time></trkpt><trkpt lat="40.65526263898677" lon="9.20827730058388"><ele>658.0</ele><time>2026-03-28T10:23:18.999Z</time></trkpt><trkpt lat="40.655212077301876" lon="9.208401241240187"><ele>658.0</ele><time>2026-03-28T10:23:19.999Z</time></trkpt><trkpt lat="40.65514903057609" lon="9.208537379960227"><ele>658.0</ele><time>2026-03-28T10:23:20.999Z</time></trkpt><trkpt lat="40.65504609242979" lon="9.208679064910875"><ele>658.0</ele><time>2026-03-28T10:23:21.999Z</time></trkpt><trkpt lat="40.654980671642136" lon="9.208813343621125"><ele>658.0</ele><time>2026-03-28T10:23:22.999Z</time></trkpt><trkpt lat="40.65495541179298" lon="9.208937491036584"><ele>654.4</ele><time>2026-03-28T10:23:23.999Z</time></trkpt><trkpt lat="40.65490682425499" lon="9.209052337226183"><ele>650.8</ele><time>2026-03-28T10:23:24.999Z</time></trkpt><trkpt lat="40.65482751568425" lon="9.20911565497666"><ele>647.2</ele><time>2026-03-28T10:23:25.999Z</time></trkpt><trkpt lat="40.65472776354373" lon="9.209176388596406"><ele>643.6</ele><time>2026-03-28T10:23:26.999Z</time></trkpt><trkpt lat="40.654636707603515" lon="9.209245819977282"><ele>640.0</ele><time>2026-03-28T10:23:27.999Z</time></trkpt><trkpt lat="40.65452022172665" lon="9.209303087033813"><ele>640.5</ele><time>2026-03-28T10:23:28.999Z</time></trkpt><trkpt lat="40.65438090410471" lon="9.209354429022127"><ele>641.0</ele><time>2026-03-28T10:23:29.999Z</time></trkpt><trkpt lat="40.65425940869113" lon="9.209395174884364"><ele>641.5</ele><time>2026-03-28T10:23:30.999Z</time></trkpt><trkpt lat="40.65414525874625" lon="9.209458984971983"><ele>642.0</ele><time>2026-03-28T10:23:31.999Z</time></trkpt><trkpt lat="40.654044924190295" lon="9.209481145056325"><ele>642.0</ele><time>2026-03-28T10:23:32.999Z</time></trkpt><trkpt lat="40.65397646517853" lon="9.20955815056938"><ele>642.0</ele><time>2026-03-28T10:23:33.999Z</time></trkpt><trkpt lat="40.65388961213781" lon="9.209658620859399"><ele>642.0</ele><time>2026-03-28T10:23:34.999Z</time></trkpt><trkpt lat="40.65379844448611" lon="9.209791038195673"><ele>642.0</ele><time>2026-03-28T10:23:35.999Z</time></trkpt><trkpt lat="40.653727805938104" lon="9.209932189489749"><ele>641.8</ele><time>2026-03-28T10:23:36.999Z</time></trkpt><trkpt lat="40.65367376281666" lon="9.210031511906088"><ele>641.6</ele><time>2026-03-28T10:23:37.999Z</time></trkpt><trkpt lat="40.65361306301698" lon="9.21011668374906"><ele>641.4</ele><time>2026-03-28T10:23:38.999Z</time></trkpt><trkpt lat="40.653517847489894" lon="9.21017864506459"><ele>641.1999999999999</ele><time>2026-03-28T10:23:39.999Z</time></trkpt><trkpt lat="40.65342132861747" lon="9.210234036129627"><ele>641.0</ele><time>2026-03-28T10:23:40.999Z</time></trkpt><trkpt lat="40.653329986176075" lon="9.210264501050558"><ele>641.8</ele><time>2026-03-28T10:23:41.999Z</time></trkpt><trkpt lat="40.65325210072346" lon="9.210321933192267"><ele>642.5999999999999</ele><time>2026-03-28T10:23:42.999Z</time></trkpt><trkpt lat="40.65319860991374" lon="9.210367898663543"><ele>643.4</ele><time>2026-03-28T10:23:43.999Z</time></trkpt><trkpt lat="40.65310963037553" lon="9.210453588612992"><ele>644.2</ele><time>2026-03-28T10:23:45.999Z</time></trkpt><trkpt lat="40.65305341802" lon="9.210528736111707"><ele>645.0</ele><time>2026-03-28T10:23:48.999Z</time></trkpt><trkpt lat="40.653078106192105" lon="9.210679526310248"><ele>646.0</ele><time>2026-03-28T10:23:51.999Z</time></trkpt><trkpt lat="40.65310228315146" lon="9.210782678970803"><ele>647.0</ele><time>2026-03-28T10:24:02.999Z</time></trkpt><trkpt lat="40.653147125021206" lon="9.210945168104269"><ele>648.0</ele><time>2026-03-28T10:24:04.999Z</time></trkpt><trkpt lat="40.65317420936172" lon="9.211056649408805"><ele>649.0</ele><time>2026-03-28T10:24:05.999Z</time></trkpt><trkpt lat="40.65320109477593" lon="9.21116329990514"><ele>650.0</ele><time>2026-03-28T10:24:06.999Z</time></trkpt><trkpt lat="40.65320355866786" lon="9.21125673201424"><ele>650.0</ele><time>2026-03-28T10:24:07.999Z</time></trkpt><trkpt lat="40.653238163176255" lon="9.211361797428758"><ele>650.0</ele><time>2026-03-28T10:24:08.999Z</time></trkpt><trkpt lat="40.65325762171812" lon="9.211465611172121"><ele>650.0</ele><time>2026-03-28T10:24:09.999Z</time></trkpt><trkpt lat="40.65327080421445" lon="9.211581206281192"><ele>650.0</ele><time>2026-03-28T10:24:10.999Z</time></trkpt><trkpt lat="40.65328950728448" lon="9.211691995080683"><ele>650.0</ele><time>2026-03-28T10:24:11.999Z</time></trkpt><trkpt lat="40.65335397278202" lon="9.211788575803128"><ele>650.0</ele><time>2026-03-28T10:24:12.999Z</time></trkpt><trkpt lat="40.653400978813885" lon="9.211867589891897"><ele>649.4</ele><time>2026-03-28T10:24:13.999Z</time></trkpt><trkpt lat="40.6534598587184" lon="9.211946418238007"><ele>648.8</ele><time>2026-03-28T10:24:14.999Z</time></trkpt><trkpt lat="40.653547374658274" lon="9.212008611502856"><ele>648.2</ele><time>2026-03-28T10:24:15.999Z</time></trkpt><trkpt lat="40.65363972540921" lon="9.212091287258595"><ele>647.6</ele><time>2026-03-28T10:24:16.999Z</time></trkpt><trkpt lat="40.65372322595343" lon="9.212168608399615"><ele>647.0</ele><time>2026-03-28T10:24:17.999Z</time></trkpt><trkpt lat="40.653839461416275" lon="9.21227121517545"><ele>647.5</ele><time>2026-03-28T10:24:18.999Z</time></trkpt><trkpt lat="40.65398478621029" lon="9.212367040226376"><ele>648.0</ele><time>2026-03-28T10:24:19.999Z</time></trkpt><trkpt lat="40.65412238866711" lon="9.212483547619469"><ele>648.5</ele><time>2026-03-28T10:24:20.999Z</time></trkpt><trkpt lat="40.654228393782184" lon="9.212559708863266"><ele>649.0</ele><time>2026-03-28T10:24:21.999Z</time></trkpt><trkpt lat="40.654331261886114" lon="9.212609912472093"><ele>649.0</ele><time>2026-03-28T10:24:22.999Z</time></trkpt><trkpt lat="40.65441850174752" lon="9.212667384317701"><ele>649.0</ele><time>2026-03-28T10:24:23.999Z</time></trkpt><trkpt lat="40.65450022857408" lon="9.212724879488364"><ele>649.0</ele><time>2026-03-28T10:24:24.999Z</time></trkpt><trkpt lat="40.654563435798224" lon="9.212793770682746"><ele>649.0</ele><time>2026-03-28T10:24:25.999Z</time></trkpt><trkpt lat="40.65462028517912" lon="9.212865334657325"><ele>649.0</ele><time>2026-03-28T10:24:26.999Z</time></trkpt><trkpt lat="40.65464014867977" lon="9.212956777255537"><ele>649.0</ele><time>2026-03-28T10:24:27.999Z</time></trkpt><trkpt lat="40.65464022079152" lon="9.213098141354452"><ele>648.6</ele><time>2026-03-28T10:24:28.999Z</time></trkpt><trkpt lat="40.654634381025765" lon="9.213221380423418"><ele>648.2</ele><time>2026-03-28T10:24:29.999Z</time></trkpt><trkpt lat="40.65461828545488" lon="9.213362767494386"><ele>647.8000000000001</ele><time>2026-03-28T10:24:30.999Z</time></trkpt><trkpt lat="40.65459674236038" lon="9.213502244969318"><ele>647.4000000000001</ele><time>2026-03-28T10:24:31.999Z</time></trkpt><trkpt lat="40.65458351851625" lon="9.213606890411297"><ele>647.0</ele><time>2026-03-28T10:24:32.999Z</time></trkpt><trkpt lat="40.654589242113744" lon="9.213705856970623"><ele>647.0</ele><time>2026-03-28T10:24:35Z</time></trkpt><trkpt lat="40.654639463811165" lon="9.21376124169234"><ele>647.0</ele><time>2026-03-28T10:24:38Z</time></trkpt><trkpt lat="40.6547247825844" lon="9.213782287935627"><ele>647.0</ele><time>2026-03-28T10:24:40Z</time></trkpt><trkpt lat="40.654783336882424" lon="9.21375117487351"><ele>647.0</ele><time>2026-03-28T10:24:41Z</time></trkpt><trkpt lat="40.65489954512889" lon="9.21369938852787"><ele>647.0</ele><time>2026-03-28T10:24:43Z</time></trkpt><trkpt lat="40.65497840216666" lon="9.213688176127555"><ele>647.0</ele><time>2026-03-28T10:24:44Z</time></trkpt><trkpt lat="40.65506413441199" lon="9.213690486026811"><ele>647.0</ele><time>2026-03-28T10:24:45Z</time></trkpt><trkpt lat="40.65512556472141" lon="9.21365892099563"><ele>647.0</ele><time>2026-03-28T10:24:46Z</time></trkpt><trkpt lat="40.65518923424419" lon="9.213664725128554"><ele>647.0</ele><time>2026-03-28T10:24:47Z</time></trkpt><trkpt lat="40.6552517023835" lon="9.21365133868546"><ele>647.0</ele><time>2026-03-28T10:24:48Z</time></trkpt><trkpt lat="40.655316133525915" lon="9.213637531583812"><ele>647.0</ele><time>2026-03-28T10:24:49Z</time></trkpt><trkpt lat="40.65534121413087" lon="9.213443509182966"><ele>647.0</ele><time>2026-03-28T10:24:50Z</time></trkpt><trkpt lat="40.65541316438768" lon="9.213307327066683"><ele>649.6666666666666</ele><time>2026-03-28T10:24:52Z</time></trkpt><trkpt lat="40.65547102112003" lon="9.213262994387877"><ele>652.3333333333333</ele><time>2026-03-28T10:24:53Z</time></trkpt><trkpt lat="40.65556795310872" lon="9.213239585955735"><ele>655.0</ele><time>2026-03-28T10:24:55Z</time></trkpt><trkpt lat="40.65563243070963" lon="9.21328054108174"><ele>657.6666666666666</ele><time>2026-03-28T10:24:56Z</time></trkpt><trkpt lat="40.65568015547837" lon="9.213349939047946"><ele>660.3333333333334</ele><time>2026-03-28T10:24:57Z</time></trkpt><trkpt lat="40.65572275635669" lon="9.213440232103705"><ele>663.0</ele><time>2026-03-28T10:24:58Z</time></trkpt><trkpt lat="40.65577179191272" lon="9.213494509883791"><ele>663.0</ele><time>2026-03-28T10:24:59Z</time></trkpt><trkpt lat="40.65584791597412" lon="9.213552020501528"><ele>663.0</ele><time>2026-03-28T10:25:00Z</time></trkpt><trkpt lat="40.65594177922936" lon="9.213599740540259"><ele>663.0</ele><time>2026-03-28T10:25:01Z</time></trkpt><trkpt lat="40.65604616999001" lon="9.213652687934257"><ele>663.0</ele><time>2026-03-28T10:25:02Z</time></trkpt><trkpt lat="40.65613121580265" lon="9.213722578588671"><ele>663.0</ele><time>2026-03-28T10:25:03Z</time></trkpt><trkpt lat="40.65619436235886" lon="9.213821235079855"><ele>666.5999999999999</ele><time>2026-03-28T10:25:04Z</time></trkpt><trkpt lat="40.65627241116612" lon="9.2139490306245"><ele>670.1999999999999</ele><time>2026-03-28T10:25:05Z</time></trkpt><trkpt lat="40.65633200863854" lon="9.214029991433637"><ele>673.8</ele><time>2026-03-28T10:25:06Z</time></trkpt><trkpt lat="40.65641527369603" lon="9.214136364583448"><ele>677.4</ele><time>2026-03-28T10:25:07Z</time></trkpt><trkpt lat="40.65648445046368" lon="9.21422289336006"><ele>681.0</ele><time>2026-03-28T10:25:08Z</time></trkpt><trkpt lat="40.65657653846092" lon="9.214320942204784"><ele>681.0</ele><time>2026-03-28T10:25:09Z</time></trkpt><trkpt lat="40.65668148932288" lon="9.214451243496113"><ele>681.0</ele><time>2026-03-28T10:25:09.999Z</time></trkpt><trkpt lat="40.656761170326405" lon="9.214577087157224"><ele>681.0</ele><time>2026-03-28T10:25:10.999Z</time></trkpt><trkpt lat="40.65682263614482" lon="9.214722584288127"><ele>681.0</ele><time>2026-03-28T10:25:11.999Z</time></trkpt><trkpt lat="40.656862135780884" lon="9.214849997700922"><ele>680.5</ele><time>2026-03-28T10:25:12.999Z</time></trkpt><trkpt lat="40.656908896541864" lon="9.214939676173588"><ele>680.0</ele><time>2026-03-28T10:25:13.999Z</time></trkpt><trkpt lat="40.656970122065225" lon="9.215011277096595"><ele>679.5</ele><time>2026-03-28T10:25:14.999Z</time></trkpt><trkpt lat="40.65705271746739" lon="9.215086248698492"><ele>679.0</ele><time>2026-03-28T10:25:15.999Z</time></trkpt><trkpt lat="40.65712873483925" lon="9.21514014033638"><ele>678.5</ele><time>2026-03-28T10:25:16.999Z</time></trkpt><trkpt lat="40.65721473269603" lon="9.215193469228597"><ele>678.0</ele><time>2026-03-28T10:25:17.999Z</time></trkpt><trkpt lat="40.657311320569804" lon="9.215252989162405"><ele>682.0</ele><time>2026-03-28T10:25:18.999Z</time></trkpt><trkpt lat="40.657424714659804" lon="9.215326597609856"><ele>686.0</ele><time>2026-03-28T10:25:19.999Z</time></trkpt><trkpt lat="40.657515745535314" lon="9.215407663447566"><ele>690.0</ele><time>2026-03-28T10:25:20.999Z</time></trkpt><trkpt lat="40.65757578102731" lon="9.215471663729975"><ele>694.0</ele><time>2026-03-28T10:25:21.999Z</time></trkpt><trkpt lat="40.65763844524687" lon="9.215512701950637"><ele>698.0</ele><time>2026-03-28T10:25:22.999Z</time></trkpt><trkpt lat="40.6577130463418" lon="9.215534372060734"><ele>701.0</ele><time>2026-03-28T10:25:23.999Z</time></trkpt><trkpt lat="40.657819583411666" lon="9.215542635732122"><ele>704.0</ele><time>2026-03-28T10:25:24.999Z</time></trkpt><trkpt lat="40.65794369734799" lon="9.215538156492038"><ele>707.0</ele><time>2026-03-28T10:25:25.999Z</time></trkpt><trkpt lat="40.65804795669258" lon="9.215550392567431"><ele>710.0</ele><time>2026-03-28T10:25:26.999Z</time></trkpt><trkpt lat="40.65811645565216" lon="9.21554564282383"><ele>713.0</ele><time>2026-03-28T10:25:27.999Z</time></trkpt><trkpt lat="40.65824889096956" lon="9.21547469548448"><ele>713.0</ele><time>2026-03-28T10:25:29.999Z</time></trkpt><trkpt lat="40.65833463955335" lon="9.215395817145902"><ele>713.0</ele><time>2026-03-28T10:25:30.999Z</time></trkpt><trkpt lat="40.65838417689663" lon="9.21533357752811"><ele>713.0</ele><time>2026-03-28T10:25:31.999Z</time></trkpt><trkpt lat="40.658435430743694" lon="9.215242081376319"><ele>713.0</ele><time>2026-03-28T10:25:32.999Z</time></trkpt><trkpt lat="40.65849543451932" lon="9.215123907120033"><ele>713.0</ele><time>2026-03-28T10:25:33.999Z</time></trkpt><trkpt lat="40.658566014814824" lon="9.215004683845404"><ele>714.0</ele><time>2026-03-28T10:25:34.999Z</time></trkpt><trkpt lat="40.65863937650212" lon="9.214911126151732"><ele>715.0</ele><time>2026-03-28T10:25:35.999Z</time></trkpt><trkpt lat="40.65870368784682" lon="9.214839463404223"><ele>716.0</ele><time>2026-03-28T10:25:36.999Z</time></trkpt><trkpt lat="40.65876991314961" lon="9.214793561348593"><ele>717.0</ele><time>2026-03-28T10:25:37.999Z</time></trkpt><trkpt lat="40.65884811676178" lon="9.214777653078333"><ele>718.0</ele><time>2026-03-28T10:25:38.999Z</time></trkpt><trkpt lat="40.6589318082943" lon="9.214801636129003"><ele>719.0</ele><time>2026-03-28T10:25:39.999Z</time></trkpt><trkpt lat="40.65901194583471" lon="9.21485381520093"><ele>719.75</ele><time>2026-03-28T10:25:40.999Z</time></trkpt><trkpt lat="40.65910507491058" lon="9.214926181118502"><ele>720.5</ele><time>2026-03-28T10:25:41.999Z</time></trkpt><trkpt lat="40.65920378301066" lon="9.214993148595578"><ele>721.25</ele><time>2026-03-28T10:25:42.999Z</time></trkpt><trkpt lat="40.65930752818831" lon="9.215097440142227"><ele>722.0</ele><time>2026-03-28T10:25:43.999Z</time></trkpt><trkpt lat="40.65939348340472" lon="9.215214008028179"><ele>726.0</ele><time>2026-03-28T10:25:44.999Z</time></trkpt><trkpt lat="40.659486202009184" lon="9.215329073249775"><ele>730.0</ele><time>2026-03-28T10:25:45.999Z</time></trkpt><trkpt lat="40.65956857543104" lon="9.215409869878059"><ele>734.0</ele><time>2026-03-28T10:25:46.999Z</time></trkpt><trkpt lat="40.65968502523232" lon="9.215501383981284"><ele>738.0</ele><time>2026-03-28T10:25:47.999Z</time></trkpt><trkpt lat="40.6597889574984" lon="9.215586687134032"><ele>736.75</ele><time>2026-03-28T10:25:48.999Z</time></trkpt><trkpt lat="40.65990777088014" lon="9.215662244262953"><ele>735.5</ele><time>2026-03-28T10:25:49.999Z</time></trkpt><trkpt lat="40.66000141173219" lon="9.215738699067968"><ele>734.25</ele><time>2026-03-28T10:25:50.999Z</time></trkpt><trkpt lat="40.66007020723381" lon="9.215820179207086"><ele>733.0</ele><time>2026-03-28T10:25:51.999Z</time></trkpt><trkpt lat="40.66020001802722" lon="9.215890484794926"><ele>735.75</ele><time>2026-03-28T10:25:52.999Z</time></trkpt><trkpt lat="40.66031676296069" lon="9.21600737088884"><ele>738.5</ele><time>2026-03-28T10:25:53.999Z</time></trkpt><trkpt lat="40.660425402684375" lon="9.216103981226304"><ele>741.25</ele><time>2026-03-28T10:25:54.999Z</time></trkpt><trkpt lat="40.66053090042951" lon="9.216177651807302"><ele>744.0</ele><time>2026-03-28T10:25:55.999Z</time></trkpt><trkpt lat="40.660657525476196" lon="9.216244371885331"><ele>744.0</ele><time>2026-03-28T10:25:56.999Z</time></trkpt><trkpt lat="40.66080602698791" lon="9.216312442832054"><ele>744.0</ele><time>2026-03-28T10:25:57.999Z</time></trkpt><trkpt lat="40.66096168115623" lon="9.216360589029593"><ele>744.0</ele><time>2026-03-28T10:25:58.999Z</time></trkpt><trkpt lat="40.66109386253194" lon="9.216413436752768"><ele>744.25</ele><time>2026-03-28T10:25:59.999Z</time></trkpt><trkpt lat="40.66120309405682" lon="9.216476717178466"><ele>744.5</ele><time>2026-03-28T10:26:00.999Z</time></trkpt><trkpt lat="40.66131549016968" lon="9.21653814583559"><ele>744.75</ele><time>2026-03-28T10:26:01.999Z</time></trkpt><trkpt lat="40.66142332577265" lon="9.216595735537032"><ele>745.0</ele><time>2026-03-28T10:26:02.999Z</time></trkpt><trkpt lat="40.66152989798904" lon="9.216649386944436"><ele>745.0</ele><time>2026-03-28T10:26:03.999Z</time></trkpt><trkpt lat="40.66161914809846" lon="9.216703094808834"><ele>745.0</ele><time>2026-03-28T10:26:04.999Z</time></trkpt><trkpt lat="40.661712338514405" lon="9.216730132663757"><ele>745.0</ele><time>2026-03-28T10:26:05.999Z</time></trkpt><trkpt lat="40.661811928350744" lon="9.216697378484527"><ele>745.0</ele><time>2026-03-28T10:26:06.999Z</time></trkpt><trkpt lat="40.6619088658551" lon="9.21664677609714"><ele>745.0</ele><time>2026-03-28T10:26:07.999Z</time></trkpt><trkpt lat="40.661977529211434" lon="9.216613901911026"><ele>745.25</ele><time>2026-03-28T10:26:08.999Z</time></trkpt><trkpt lat="40.66204870781257" lon="9.216622222798714"><ele>745.5</ele><time>2026-03-28T10:26:09.999Z</time></trkpt><trkpt lat="40.66215647267415" lon="9.216652823270783"><ele>745.75</ele><time>2026-03-28T10:26:10.999Z</time></trkpt><trkpt lat="40.662272436788015" lon="9.21670895750144"><ele>746.0</ele><time>2026-03-28T10:26:11.999Z</time></trkpt><trkpt lat="40.66240360364873" lon="9.21680110024908"><ele>746.0</ele><time>2026-03-28T10:26:12.999Z</time></trkpt><trkpt lat="40.66254865621594" lon="9.216913701051006"><ele>746.0</ele><time>2026-03-28T10:26:13.999Z</time></trkpt><trkpt lat="40.66268667169902" lon="9.217031684322894"><ele>746.0</ele><time>2026-03-28T10:26:14.999Z</time></trkpt><trkpt lat="40.66281552189306" lon="9.217174935431364"><ele>748.6666666666666</ele><time>2026-03-28T10:26:15.999Z</time></trkpt><trkpt lat="40.66295816959672" lon="9.217360103128776"><ele>751.3333333333334</ele><time>2026-03-28T10:26:16.999Z</time></trkpt><trkpt lat="40.663103720263805" lon="9.217545036657468"><ele>754.0</ele><time>2026-03-28T10:26:17.999Z</time></trkpt><trkpt lat="40.663228535964535" lon="9.217711475788455"><ele>754.0</ele><time>2026-03-28T10:26:18.999Z</time></trkpt><trkpt lat="40.663346700321554" lon="9.217855454656341"><ele>754.0</ele><time>2026-03-28T10:26:19.999Z</time></trkpt><trkpt lat="40.66348290578804" lon="9.217988481842173"><ele>754.0</ele><time>2026-03-28T10:26:20.999Z</time></trkpt><trkpt lat="40.66359537023824" lon="9.218099670143552"><ele>756.6666666666667</ele><time>2026-03-28T10:26:21.999Z</time></trkpt><trkpt lat="40.66373509046593" lon="9.218222434984675"><ele>759.3333333333334</ele><time>2026-03-28T10:26:22.999Z</time></trkpt><trkpt lat="40.663871574807935" lon="9.218315780019507"><ele>762.0</ele><time>2026-03-28T10:26:23.999Z</time></trkpt><trkpt lat="40.663993315159956" lon="9.218379150807179"><ele>762.0</ele><time>2026-03-28T10:26:24.999Z</time></trkpt><trkpt lat="40.66410188598716" lon="9.2184212833286"><ele>762.0</ele><time>2026-03-28T10:26:25.999Z</time></trkpt><trkpt lat="40.66421995395025" lon="9.218432805653324"><ele>762.0</ele><time>2026-03-28T10:26:26.999Z</time></trkpt><trkpt lat="40.66436804345124" lon="9.218424705615318"><ele>762.0</ele><time>2026-03-28T10:26:27.999Z</time></trkpt><trkpt lat="40.66453523513454" lon="9.2183899081387"><ele>764.3333333333333</ele><time>2026-03-28T10:26:28.999Z</time></trkpt><trkpt lat="40.66471405196233" lon="9.218337978558225"><ele>766.6666666666666</ele><time>2026-03-28T10:26:29.999Z</time></trkpt><trkpt lat="40.66490187816874" lon="9.218306518552358"><ele>769.0</ele><time>2026-03-28T10:26:30.999Z</time></trkpt><trkpt lat="40.665092578065874" lon="9.218288443762622"><ele>769.0</ele><time>2026-03-28T10:26:31.999Z</time></trkpt><trkpt lat="40.66523680402822" lon="9.218261649278245"><ele>769.0</ele><time>2026-03-28T10:26:32.999Z</time></trkpt><trkpt lat="40.665351257771185" lon="9.218225738842307"><ele>769.0</ele><time>2026-03-28T10:26:33.999Z</time></trkpt><trkpt lat="40.665452027152895" lon="9.2181804961171"><ele>769.0</ele><time>2026-03-28T10:26:34.999Z</time></trkpt><trkpt lat="40.66554839384012" lon="9.218091589202453"><ele>770.2</ele><time>2026-03-28T10:26:35.999Z</time></trkpt><trkpt lat="40.66565895222096" lon="9.21797217981141"><ele>771.4000000000001</ele><time>2026-03-28T10:26:36.999Z</time></trkpt><trkpt lat="40.665759953380196" lon="9.217895321656925"><ele>772.6</ele><time>2026-03-28T10:26:37.999Z</time></trkpt><trkpt lat="40.66585130400034" lon="9.217869599901807"><ele>773.8</ele><time>2026-03-28T10:26:38.999Z</time></trkpt><trkpt lat="40.66593290078864" lon="9.21788735672594"><ele>775.0</ele><time>2026-03-28T10:26:40Z</time></trkpt><trkpt lat="40.6660037657337" lon="9.21794353057622"><ele>775.0</ele><time>2026-03-28T10:26:41Z</time></trkpt><trkpt lat="40.66609038926531" lon="9.218037933684196"><ele>775.0</ele><time>2026-03-28T10:26:42Z</time></trkpt><trkpt lat="40.66617466701021" lon="9.218173956842053"><ele>775.0</ele><time>2026-03-28T10:26:43Z</time></trkpt><trkpt lat="40.666284044764055" lon="9.218346649432291"><ele>775.0</ele><time>2026-03-28T10:26:44Z</time></trkpt><trkpt lat="40.666410677665674" lon="9.218540574682628"><ele>775.5</ele><time>2026-03-28T10:26:45Z</time></trkpt><trkpt lat="40.66649081906578" lon="9.21872262386766"><ele>776.0</ele><time>2026-03-28T10:26:46Z</time></trkpt><trkpt lat="40.66655908377412" lon="9.218900673903747"><ele>776.5</ele><time>2026-03-28T10:26:47Z</time></trkpt><trkpt lat="40.666630137274524" lon="9.219045452829537"><ele>777.0</ele><time>2026-03-28T10:26:48Z</time></trkpt><trkpt lat="40.66671813021855" lon="9.2191758925195"><ele>777.5</ele><time>2026-03-28T10:26:49Z</time></trkpt><trkpt lat="40.666824567599626" lon="9.219304129603987"><ele>778.0</ele><time>2026-03-28T10:26:50Z</time></trkpt><trkpt lat="40.66693405709067" lon="9.219415336610313"><ele>778.5</ele><time>2026-03-28T10:26:51Z</time></trkpt><trkpt lat="40.66704119369392" lon="9.21948497623466"><ele>779.0</ele><time>2026-03-28T10:26:52Z</time></trkpt><trkpt lat="40.66718330874979" lon="9.219542774840358"><ele>779.0</ele><time>2026-03-28T10:26:53Z</time></trkpt><trkpt lat="40.66733714009892" lon="9.219599457366222"><ele>779.0</ele><time>2026-03-28T10:26:54Z</time></trkpt><trkpt lat="40.667456865835604" lon="9.219671069367562"><ele>779.0</ele><time>2026-03-28T10:26:55Z</time></trkpt><trkpt lat="40.667565831429144" lon="9.2197830172534"><ele>779.0</ele><time>2026-03-28T10:26:56Z</time></trkpt><trkpt lat="40.66768203769356" lon="9.219913546410591"><ele>777.75</ele><time>2026-03-28T10:26:57Z</time></trkpt><trkpt lat="40.667793313861985" lon="9.220057758093166"><ele>776.5</ele><time>2026-03-28T10:26:58Z</time></trkpt><trkpt lat="40.66788156549037" lon="9.220201374523501"><ele>775.25</ele><time>2026-03-28T10:26:59Z</time></trkpt><trkpt lat="40.66796029187298" lon="9.220369906195483"><ele>774.0</ele><time>2026-03-28T10:27:00Z</time></trkpt><trkpt lat="40.668059735194596" lon="9.220592199951941"><ele>774.3333333333333</ele><time>2026-03-28T10:27:01Z</time></trkpt><trkpt lat="40.66815799823927" lon="9.22080782663429"><ele>774.6666666666666</ele><time>2026-03-28T10:27:02Z</time></trkpt><trkpt lat="40.66825592881046" lon="9.221003851446483"><ele>775.0</ele><time>2026-03-28T10:27:03Z</time></trkpt><trkpt lat="40.66834079047434" lon="9.221197738243147"><ele>775.0</ele><time>2026-03-28T10:27:04Z</time></trkpt><trkpt lat="40.668400984717515" lon="9.221380649939865"><ele>775.0</ele><time>2026-03-28T10:27:05Z</time></trkpt><trkpt lat="40.66844899225223" lon="9.221560531474596"><ele>775.0</ele><time>2026-03-28T10:27:06Z</time></trkpt><trkpt lat="40.66850581455842" lon="9.221745029553704"><ele>775.0</ele><time>2026-03-28T10:27:07Z</time></trkpt><trkpt lat="40.668568259875975" lon="9.221936496856774"><ele>775.0</ele><time>2026-03-28T10:27:08Z</time></trkpt><trkpt lat="40.66862477623806" lon="9.222119062143433"><ele>775.0</ele><time>2026-03-28T10:27:09Z</time></trkpt><trkpt lat="40.66868434345411" lon="9.222287303716326"><ele>775.0</ele><time>2026-03-28T10:27:10Z</time></trkpt><trkpt lat="40.668768041343384" lon="9.222470538244778"><ele>775.0</ele><time>2026-03-28T10:27:11Z</time></trkpt><trkpt lat="40.668872831861094" lon="9.2226594258489"><ele>775.0</ele><time>2026-03-28T10:27:12Z</time></trkpt><trkpt lat="40.66897706826587" lon="9.222821598458445"><ele>775.0</ele><time>2026-03-28T10:27:13Z</time></trkpt><trkpt lat="40.66910074826893" lon="9.22299708841852"><ele>773.6666666666666</ele><time>2026-03-28T10:27:14Z</time></trkpt><trkpt lat="40.66920340192862" lon="9.22316287310072"><ele>772.3333333333333</ele><time>2026-03-28T10:27:15Z</time></trkpt><trkpt lat="40.669308240700744" lon="9.223312730675016"><ele>771.0</ele><time>2026-03-28T10:27:16Z</time></trkpt><trkpt lat="40.6693954956687" lon="9.223449961518817"><ele>771.6666666666667</ele><time>2026-03-28T10:27:17Z</time></trkpt><trkpt lat="40.6694846167857" lon="9.223576025053331"><ele>772.3333333333334</ele><time>2026-03-28T10:27:18Z</time></trkpt><trkpt lat="40.66960929749036" lon="9.223699965548784"><ele>773.0</ele><time>2026-03-28T10:27:19Z</time></trkpt><trkpt lat="40.66976873471499" lon="9.223843742484258"><ele>772.3333333333334</ele><time>2026-03-28T10:27:20Z</time></trkpt><trkpt lat="40.66991692581426" lon="9.223984758583402"><ele>771.6666666666667</ele><time>2026-03-28T10:27:21Z</time></trkpt><trkpt lat="40.67005591974907" lon="9.224132248757286"><ele>771.0</ele><time>2026-03-28T10:27:22Z</time></trkpt><trkpt lat="40.67020004620635" lon="9.224319627525498"><ele>771.6666666666667</ele><time>2026-03-28T10:27:23Z</time></trkpt><trkpt lat="40.67033602967025" lon="9.224520771119153"><ele>772.3333333333334</ele><time>2026-03-28T10:27:23.999Z</time></trkpt><trkpt lat="40.67045468399947" lon="9.224685053094946"><ele>773.0</ele><time>2026-03-28T10:27:24.999Z</time></trkpt><trkpt lat="40.67057512818775" lon="9.224825581658093"><ele>773.6666666666667</ele><time>2026-03-28T10:27:25.999Z</time></trkpt><trkpt lat="40.67068471144692" lon="9.224955400790076"><ele>774.3333333333333</ele><time>2026-03-28T10:27:26.999Z</time></trkpt><trkpt lat="40.67079025534471" lon="9.22511744839023"><ele>775.0</ele><time>2026-03-28T10:27:27.999Z</time></trkpt><trkpt lat="40.67087766425742" lon="9.22529352929289"><ele>775.0</ele><time>2026-03-28T10:27:28.999Z</time></trkpt><trkpt lat="40.67093884794571" lon="9.225472086217861"><ele>775.0</ele><time>2026-03-28T10:27:29.999Z</time></trkpt><trkpt lat="40.67099446181909" lon="9.225660885092706"><ele>775.0</ele><time>2026-03-28T10:27:30.999Z</time></trkpt><trkpt lat="40.67107170787848" lon="9.225843388247268"><ele>777.0</ele><time>2026-03-28T10:27:31.999Z</time></trkpt><trkpt lat="40.671193753197315" lon="9.226047154298028"><ele>779.0</ele><time>2026-03-28T10:27:32.999Z</time></trkpt><trkpt lat="40.67134356399606" lon="9.226261006156879"><ele>781.0</ele><time>2026-03-28T10:27:33.999Z</time></trkpt><trkpt lat="40.671469320976584" lon="9.226464674226888"><ele>781.3333333333333</ele><time>2026-03-28T10:27:34.999Z</time></trkpt><trkpt lat="40.6715711653331" lon="9.226659081083422"><ele>781.6666666666667</ele><time>2026-03-28T10:27:35.999Z</time></trkpt><trkpt lat="40.67165747710621" lon="9.226880128243364"><ele>782.0</ele><time>2026-03-28T10:27:36.999Z</time></trkpt><trkpt lat="40.67177305440222" lon="9.2271307326546"><ele>781.6666666666667</ele><time>2026-03-28T10:27:37.999Z</time></trkpt><trkpt lat="40.671902664542216" lon="9.227373108150555"><ele>781.3333333333333</ele><time>2026-03-28T10:27:38.999Z</time></trkpt><trkpt lat="40.672009875050335" lon="9.227560803889464"><ele>781.0</ele><time>2026-03-28T10:27:39.999Z</time></trkpt><trkpt lat="40.67211716628385" lon="9.22776577865848"><ele>782.3333333333333</ele><time>2026-03-28T10:27:40.999Z</time></trkpt><trkpt lat="40.67220263219156" lon="9.227976424864897"><ele>783.6666666666667</ele><time>2026-03-28T10:27:41.999Z</time></trkpt><trkpt lat="40.67227575429532" lon="9.228153042698642"><ele>785.0</ele><time>2026-03-28T10:27:42.999Z</time></trkpt><trkpt lat="40.6723572726933" lon="9.228356095108985"><ele>787.0</ele><time>2026-03-28T10:27:43.999Z</time></trkpt><trkpt lat="40.672432817347286" lon="9.22858280641061"><ele>789.0</ele><time>2026-03-28T10:27:44.999Z</time></trkpt><trkpt lat="40.67249186367768" lon="9.228794028847178"><ele>791.0</ele><time>2026-03-28T10:27:45.999Z</time></trkpt><trkpt lat="40.672540990208205" lon="9.228984763808743"><ele>791.6666666666667</ele><time>2026-03-28T10:27:46.999Z</time></trkpt><trkpt lat="40.672589270520625" lon="9.229155510526718"><ele>792.3333333333333</ele><time>2026-03-28T10:27:47.999Z</time></trkpt><trkpt lat="40.672667091759095" lon="9.229332493399687"><ele>793.0</ele><time>2026-03-28T10:27:48.999Z</time></trkpt><trkpt lat="40.67278141591455" lon="9.229530018395119"><ele>794.0</ele><time>2026-03-28T10:27:49.999Z</time></trkpt><trkpt lat="40.67291355060634" lon="9.229753881760544"><ele>795.0</ele><time>2026-03-28T10:27:50.999Z</time></trkpt><trkpt lat="40.67303030245685" lon="9.229953967849072"><ele>796.0</ele><time>2026-03-28T10:27:51.999Z</time></trkpt><trkpt lat="40.67313233470853" lon="9.23013678578391"><ele>796.0</ele><time>2026-03-28T10:27:52.999Z</time></trkpt><trkpt lat="40.67322816257746" lon="9.23034059443412"><ele>796.0</ele><time>2026-03-28T10:27:53.999Z</time></trkpt><trkpt lat="40.673324451831526" lon="9.230555173365463"><ele>796.0</ele><time>2026-03-28T10:27:54.999Z</time></trkpt><trkpt lat="40.67340417425171" lon="9.230751194706897"><ele>795.6666666666666</ele><time>2026-03-28T10:27:55.999Z</time></trkpt><trkpt lat="40.67347725940148" lon="9.230921794173799"><ele>795.3333333333333</ele><time>2026-03-28T10:27:56.999Z</time></trkpt><trkpt lat="40.673557677119305" lon="9.231100199578197"><ele>795.0</ele><time>2026-03-28T10:27:57.999Z</time></trkpt><trkpt lat="40.673634090382784" lon="9.231279161331893"><ele>795.0</ele><time>2026-03-28T10:27:58.999Z</time></trkpt><trkpt lat="40.67369942234674" lon="9.231449565266212"><ele>795.0</ele><time>2026-03-28T10:27:59.999Z</time></trkpt><trkpt lat="40.67375342128765" lon="9.231620879526206"><ele>795.0</ele><time>2026-03-28T10:28:00.999Z</time></trkpt><trkpt lat="40.673801164585576" lon="9.231827271257886"><ele>795.0</ele><time>2026-03-28T10:28:01.999Z</time></trkpt><trkpt lat="40.673845912128115" lon="9.232026346011285"><ele>794.25</ele><time>2026-03-28T10:28:02.999Z</time></trkpt><trkpt lat="40.67388624994964" lon="9.232215163040436"><ele>793.5</ele><time>2026-03-28T10:28:03.999Z</time></trkpt><trkpt lat="40.67392896268382" lon="9.23239983362441"><ele>792.75</ele><time>2026-03-28T10:28:04.999Z</time></trkpt><trkpt lat="40.67397668074958" lon="9.23259083194985"><ele>792.0</ele><time>2026-03-28T10:28:05.999Z</time></trkpt><trkpt lat="40.67402143281763" lon="9.232775659444592"><ele>790.6666666666667</ele><time>2026-03-28T10:28:06.999Z</time></trkpt><trkpt lat="40.67407066437643" lon="9.232960571267332"><ele>789.3333333333334</ele><time>2026-03-28T10:28:07.999Z</time></trkpt><trkpt lat="40.67415085586767" lon="9.233178753563113"><ele>788.0</ele><time>2026-03-28T10:28:08.999Z</time></trkpt><trkpt lat="40.6742297679953" lon="9.233411382456776"><ele>785.3333333333334</ele><time>2026-03-28T10:28:09.999Z</time></trkpt><trkpt lat="40.67429507965993" lon="9.233618918912887"><ele>782.6666666666667</ele><time>2026-03-28T10:28:10.999Z</time></trkpt><trkpt lat="40.67435788969941" lon="9.233797359933265"><ele>780.0</ele><time>2026-03-28T10:28:11.999Z</time></trkpt><trkpt lat="40.67444059890338" lon="9.233953840543201"><ele>779.75</ele><time>2026-03-28T10:28:12.999Z</time></trkpt><trkpt lat="40.674546195666295" lon="9.234118537219372"><ele>779.5</ele><time>2026-03-28T10:28:13.999Z</time></trkpt><trkpt lat="40.67463112537646" lon="9.234267551879327"><ele>779.25</ele><time>2026-03-28T10:28:14.999Z</time></trkpt><trkpt lat="40.67468491346761" lon="9.23440947513527"><ele>779.0</ele><time>2026-03-28T10:28:15.999Z</time></trkpt><trkpt lat="40.67470377106793" lon="9.23456326516276"><ele>779.0</ele><time>2026-03-28T10:28:16.999Z</time></trkpt><trkpt lat="40.67468915829036" lon="9.234737276974487"><ele>779.0</ele><time>2026-03-28T10:28:17.999Z</time></trkpt><trkpt lat="40.6746739544734" lon="9.234966913998484"><ele>779.0</ele><time>2026-03-28T10:28:18.999Z</time></trkpt><trkpt lat="40.67466343398228" lon="9.23522399925345"><ele>781.0</ele><time>2026-03-28T10:28:19.999Z</time></trkpt><trkpt lat="40.67465174570802" lon="9.235488383475248"><ele>783.0</ele><time>2026-03-28T10:28:20.999Z</time></trkpt><trkpt lat="40.67463025793977" lon="9.235726213083453"><ele>785.0</ele><time>2026-03-28T10:28:21.999Z</time></trkpt><trkpt lat="40.674604365085195" lon="9.23593106023736"><ele>786.25</ele><time>2026-03-28T10:28:22.999Z</time></trkpt><trkpt lat="40.67456636713261" lon="9.236113796236067"><ele>787.5</ele><time>2026-03-28T10:28:23.999Z</time></trkpt><trkpt lat="40.67452765838265" lon="9.23626620104114"><ele>788.75</ele><time>2026-03-28T10:28:24.999Z</time></trkpt><trkpt lat="40.674497684245104" lon="9.236413370069902"><ele>790.0</ele><time>2026-03-28T10:28:25.999Z</time></trkpt><trkpt lat="40.674485743675454" lon="9.23658616637941"><ele>790.5</ele><time>2026-03-28T10:28:26.999Z</time></trkpt><trkpt lat="40.674489568358" lon="9.236766287542071"><ele>791.0</ele><time>2026-03-28T10:28:27.999Z</time></trkpt><trkpt lat="40.67450377191819" lon="9.236922488624419"><ele>791.5</ele><time>2026-03-28T10:28:28.999Z</time></trkpt><trkpt lat="40.674525566764615" lon="9.237079502373673"><ele>792.0</ele><time>2026-03-28T10:28:29.999Z</time></trkpt><trkpt lat="40.67455598031906" lon="9.237227845214631"><ele>791.75</ele><time>2026-03-28T10:28:30.999Z</time></trkpt><trkpt lat="40.674599773581384" lon="9.237357888048692"><ele>791.5</ele><time>2026-03-28T10:28:31.999Z</time></trkpt><trkpt lat="40.67466058161526" lon="9.237495914880869"><ele>791.25</ele><time>2026-03-28T10:28:32.999Z</time></trkpt><trkpt lat="40.674746053748166" lon="9.237674995688689"><ele>791.0</ele><time>2026-03-28T10:28:33.999Z</time></trkpt><trkpt lat="40.67483218215183" lon="9.237846242340826"><ele>791.0</ele><time>2026-03-28T10:28:34.999Z</time></trkpt><trkpt lat="40.674910336390184" lon="9.238026501141276"><ele>791.0</ele><time>2026-03-28T10:28:35.999Z</time></trkpt><trkpt lat="40.67497033515862" lon="9.238196140185076"><ele>791.0</ele><time>2026-03-28T10:28:36.999Z</time></trkpt><trkpt lat="40.67503026544265" lon="9.23834682213935"><ele>791.0</ele><time>2026-03-28T10:28:37.999Z</time></trkpt><trkpt lat="40.67509027467851" lon="9.23848806535325"><ele>791.75</ele><time>2026-03-28T10:28:38.999Z</time></trkpt><trkpt lat="40.675196496219634" lon="9.238601366791494"><ele>792.5</ele><time>2026-03-28T10:28:39.999Z</time></trkpt><trkpt lat="40.67527707421364" lon="9.238736194332962"><ele>793.25</ele><time>2026-03-28T10:28:40.999Z</time></trkpt><trkpt lat="40.67541776056382" lon="9.238858348461955"><ele>794.0</ele><time>2026-03-28T10:28:41.999Z</time></trkpt><trkpt lat="40.67559376092491" lon="9.238974709467609"><ele>792.0</ele><time>2026-03-28T10:28:42.999Z</time></trkpt><trkpt lat="40.67573297409639" lon="9.239100721826636"><ele>790.0</ele><time>2026-03-28T10:28:43.999Z</time></trkpt><trkpt lat="40.675881047462134" lon="9.239228773786742"><ele>788.0</ele><time>2026-03-28T10:28:44.999Z</time></trkpt><trkpt lat="40.67600242558315" lon="9.23940152599495"><ele>789.3333333333334</ele><time>2026-03-28T10:28:46Z</time></trkpt><trkpt lat="40.67612685048076" lon="9.23962720725055"><ele>790.6666666666667</ele><time>2026-03-28T10:28:47Z</time></trkpt><trkpt lat="40.67628038445814" lon="9.239859215388245"><ele>792.0</ele><time>2026-03-28T10:28:48Z</time></trkpt><trkpt lat="40.676446500731586" lon="9.240087074789496"><ele>792.0</ele><time>2026-03-28T10:28:49Z</time></trkpt><trkpt lat="40.676585133390674" lon="9.240288938727828"><ele>792.0</ele><time>2026-03-28T10:28:50Z</time></trkpt><trkpt lat="40.676729577425654" lon="9.24050152289907"><ele>792.0</ele><time>2026-03-28T10:28:51Z</time></trkpt><trkpt lat="40.67685916911343" lon="9.24067686907485"><ele>793.3333333333333</ele><time>2026-03-28T10:28:52Z</time></trkpt><trkpt lat="40.67699552360957" lon="9.24084972445766"><ele>794.6666666666666</ele><time>2026-03-28T10:28:53Z</time></trkpt><trkpt lat="40.67714988923023" lon="9.24104069437871"><ele>796.0</ele><time>2026-03-28T10:28:54Z</time></trkpt><trkpt lat="40.677279224382985" lon="9.241203450765767"><ele>796.0</ele><time>2026-03-28T10:28:55Z</time></trkpt><trkpt lat="40.67739331772122" lon="9.241332953530708"><ele>796.0</ele><time>2026-03-28T10:28:56Z</time></trkpt><trkpt lat="40.677496706733024" lon="9.241441826219859"><ele>796.0</ele><time>2026-03-28T10:28:57Z</time></trkpt><trkpt lat="40.677592281533954" lon="9.241535413008187"><ele>796.0</ele><time>2026-03-28T10:28:58Z</time></trkpt><trkpt lat="40.677671962567814" lon="9.241625490938626"><ele>795.0</ele><time>2026-03-28T10:28:59Z</time></trkpt><trkpt lat="40.677754376569574" lon="9.241771945429269"><ele>794.0</ele><time>2026-03-28T10:29:00Z</time></trkpt><trkpt lat="40.677825027608414" lon="9.24195975628122"><ele>793.0</ele><time>2026-03-28T10:29:01Z</time></trkpt><trkpt lat="40.677877039799846" lon="9.24217864811476"><ele>795.3333333333333</ele><time>2026-03-28T10:29:02Z</time></trkpt><trkpt lat="40.67794011698757" lon="9.242440141606364"><ele>797.6666666666667</ele><time>2026-03-28T10:29:03Z</time></trkpt><trkpt lat="40.678016514941184" lon="9.242711880867766"><ele>800.0</ele><time>2026-03-28T10:29:04Z</time></trkpt><trkpt lat="40.6780930007197" lon="9.242942538186089"><ele>799.75</ele><time>2026-03-28T10:29:05Z</time></trkpt><trkpt lat="40.67816705749701" lon="9.24313777967627"><ele>799.5</ele><time>2026-03-28T10:29:06Z</time></trkpt><trkpt lat="40.6782324175232" lon="9.243312139217998"><ele>799.25</ele><time>2026-03-28T10:29:07Z</time></trkpt><trkpt lat="40.67829498728701" lon="9.243463532656095"><ele>799.0</ele><time>2026-03-28T10:29:08Z</time></trkpt><trkpt lat="40.67834668486074" lon="9.243596588251224"><ele>798.9999999999999</ele><time>2026-03-28T10:29:09Z</time></trkpt><trkpt lat="40.67838218767066" lon="9.243709863818967"><ele>799.0</ele><time>2026-03-28T10:29:10Z</time></trkpt><trkpt lat="40.67841107303473" lon="9.243824429707235"><ele>799.0</ele><time>2026-03-28T10:29:11Z</time></trkpt><trkpt lat="40.67841336267887" lon="9.243927107837845"><ele>799.0</ele><time>2026-03-28T10:29:12Z</time></trkpt><trkpt lat="40.678385842228636" lon="9.244010210805529"><ele>798.9999999999999</ele><time>2026-03-28T10:29:13Z</time></trkpt><trkpt lat="40.6783345427279" lon="9.24408559215304"><ele>799.0</ele><time>2026-03-28T10:29:14Z</time></trkpt><trkpt lat="40.678265266071065" lon="9.244161301863533"><ele>798.5</ele><time>2026-03-28T10:29:15Z</time></trkpt><trkpt lat="40.67817650175254" lon="9.244266580399009"><ele>798.0</ele><time>2026-03-28T10:29:16Z</time></trkpt><trkpt lat="40.67809078208133" lon="9.244402418963778"><ele>797.5</ele><time>2026-03-28T10:29:17Z</time></trkpt><trkpt lat="40.67801259045134" lon="9.24454672600262"><ele>797.0</ele><time>2026-03-28T10:29:18Z</time></trkpt><trkpt lat="40.67792051365994" lon="9.244671325287003"><ele>797.0</ele><time>2026-03-28T10:29:19Z</time></trkpt><trkpt lat="40.67781280745101" lon="9.244774961674848"><ele>797.0</ele><time>2026-03-28T10:29:20Z</time></trkpt><trkpt lat="40.67768450845155" lon="9.244844955461206"><ele>797.0</ele><time>2026-03-28T10:29:21Z</time></trkpt><trkpt lat="40.67752782582011" lon="9.244901313080858"><ele>797.0</ele><time>2026-03-28T10:29:22Z</time></trkpt><trkpt lat="40.67740164235617" lon="9.244952468395768"><ele>798.6</ele><time>2026-03-28T10:29:23Z</time></trkpt><trkpt lat="40.677310327949094" lon="9.245019223320808"><ele>800.2</ele><time>2026-03-28T10:29:24Z</time></trkpt><trkpt lat="40.677245850390335" lon="9.245097711703448"><ele>801.8</ele><time>2026-03-28T10:29:25Z</time></trkpt><trkpt lat="40.67720545508498" lon="9.245201342805844"><ele>803.4</ele><time>2026-03-28T10:29:26Z</time></trkpt><trkpt lat="40.677173521963894" lon="9.245344346509468"><ele>805.0</ele><time>2026-03-28T10:29:27Z</time></trkpt><trkpt lat="40.677148181993445" lon="9.245525435959633"><ele>806.0</ele><time>2026-03-28T10:29:28Z</time></trkpt><trkpt lat="40.67708663236675" lon="9.245686792409982"><ele>807.0</ele><time>2026-03-28T10:29:29Z</time></trkpt><trkpt lat="40.67697324344881" lon="9.245830975398553"><ele>808.0</ele><time>2026-03-28T10:29:29.999Z</time></trkpt><trkpt lat="40.6768722191751" lon="9.24593531585653"><ele>809.0</ele><time>2026-03-28T10:29:30.999Z</time></trkpt><trkpt lat="40.67677584512232" lon="9.246001931129555"><ele>810.0</ele><time>2026-03-28T10:29:31.999Z</time></trkpt><trkpt lat="40.676663329916934" lon="9.246034073985863"><ele>811.0</ele><time>2026-03-28T10:29:32.999Z</time></trkpt><trkpt lat="40.67654747913671" lon="9.246024248574065"><ele>812.0</ele><time>2026-03-28T10:29:33.999Z</time></trkpt><trkpt lat="40.676414804525756" lon="9.246000784183734"><ele>813.0</ele><time>2026-03-28T10:29:34.999Z</time></trkpt><trkpt lat="40.67629345027615" lon="9.245996160982825"><ele>813.0</ele><time>2026-03-28T10:29:35.999Z</time></trkpt><trkpt lat="40.67617591133712" lon="9.246036547509599"><ele>813.0</ele><time>2026-03-28T10:29:36.999Z</time></trkpt><trkpt lat="40.676067352393794" lon="9.246117505207524"><ele>813.0</ele><time>2026-03-28T10:29:37.999Z</time></trkpt><trkpt lat="40.67593533885807" lon="9.246233959199385"><ele>813.0</ele><time>2026-03-28T10:29:38.999Z</time></trkpt><trkpt lat="40.67578632481417" lon="9.246356798046735"><ele>816.3333333333333</ele><time>2026-03-28T10:29:39.999Z</time></trkpt><trkpt lat="40.67561745059823" lon="9.246470844314974"><ele>819.6666666666666</ele><time>2026-03-28T10:29:40.999Z</time></trkpt><trkpt lat="40.67543010942574" lon="9.246581839672269"><ele>823.0</ele><time>2026-03-28T10:29:41.999Z</time></trkpt><trkpt lat="40.675237191745865" lon="9.246704164667776"><ele>825.0</ele><time>2026-03-28T10:29:42.999Z</time></trkpt><trkpt lat="40.67504182663496" lon="9.246833526812146"><ele>827.0</ele><time>2026-03-28T10:29:43.999Z</time></trkpt><trkpt lat="40.67487588652361" lon="9.24694961659965"><ele>829.0</ele><time>2026-03-28T10:29:44.999Z</time></trkpt><trkpt lat="40.6747329173675" lon="9.247043588344479"><ele>829.0</ele><time>2026-03-28T10:29:45.999Z</time></trkpt><trkpt lat="40.6746020454682" lon="9.247118235713872"><ele>829.0</ele><time>2026-03-28T10:29:46.999Z</time></trkpt><trkpt lat="40.67448649598448" lon="9.247177208024327"><ele>829.0</ele><time>2026-03-28T10:29:47.999Z</time></trkpt><trkpt lat="40.674385263725796" lon="9.247233399708533"><ele>829.0</ele><time>2026-03-28T10:29:48.999Z</time></trkpt><trkpt lat="40.67429507384763" lon="9.24728802555854"><ele>829.6666666666666</ele><time>2026-03-28T10:29:49.999Z</time></trkpt><trkpt lat="40.67421051672961" lon="9.24734134779691"><ele>830.3333333333333</ele><time>2026-03-28T10:29:50.999Z</time></trkpt><trkpt lat="40.67412649684233" lon="9.247389341531171"><ele>831.0</ele><time>2026-03-28T10:29:51.999Z</time></trkpt><trkpt lat="40.67405313069299" lon="9.247427817061379"><ele>831.6666666666667</ele><time>2026-03-28T10:29:52.999Z</time></trkpt><trkpt lat="40.673974089318264" lon="9.247475142637926"><ele>832.3333333333334</ele><time>2026-03-28T10:29:53.999Z</time></trkpt><trkpt lat="40.67389396768035" lon="9.247547500662664"><ele>833.0</ele><time>2026-03-28T10:29:54.999Z</time></trkpt><trkpt lat="40.673821971184765" lon="9.247645870620913"><ele>833.0</ele><time>2026-03-28T10:29:55.999Z</time></trkpt><trkpt lat="40.67374302056829" lon="9.247747073768782"><ele>833.0</ele><time>2026-03-28T10:29:56.999Z</time></trkpt><trkpt lat="40.67367201141716" lon="9.247847892853198"><ele>833.0</ele><time>2026-03-28T10:29:57.999Z</time></trkpt><trkpt lat="40.67360332801706" lon="9.247942920084204"><ele>833.0</ele><time>2026-03-28T10:29:58.999Z</time></trkpt><trkpt lat="40.67354140627275" lon="9.248029540480934"><ele>833.0</ele><time>2026-03-28T10:29:59.999Z</time></trkpt><trkpt lat="40.67348138691272" lon="9.24811596082959"><ele>832.6666666666667</ele><time>2026-03-28T10:30:00.999Z</time></trkpt><trkpt lat="40.67342927995299" lon="9.2481923729701"><ele>832.3333333333334</ele><time>2026-03-28T10:30:01.999Z</time></trkpt><trkpt lat="40.6733770836912" lon="9.248257007961861"><ele>832.0</ele><time>2026-03-28T10:30:02.999Z</time></trkpt><trkpt lat="40.6733186630692" lon="9.248317165164915"><ele>831.6666666666667</ele><time>2026-03-28T10:30:03.999Z</time></trkpt><trkpt lat="40.673254499473416" lon="9.24838938031946"><ele>831.3333333333334</ele><time>2026-03-28T10:30:04.999Z</time></trkpt><trkpt lat="40.67318243901319" lon="9.248467775351923"><ele>831.0</ele><time>2026-03-28T10:30:05.999Z</time></trkpt><trkpt lat="40.6731182563165" lon="9.248532274885537"><ele>831.0</ele><time>2026-03-28T10:30:06.999Z</time></trkpt><trkpt lat="40.67305926840248" lon="9.2485975573255"><ele>831.0</ele><time>2026-03-28T10:30:07.999Z</time></trkpt><trkpt lat="40.672998564565646" lon="9.248672721022478"><ele>831.0</ele><time>2026-03-28T10:30:08.999Z</time></trkpt><trkpt lat="40.67293774338621" lon="9.248749337775045"><ele>831.0</ele><time>2026-03-28T10:30:09.999Z</time></trkpt><trkpt lat="40.67286920604208" lon="9.248838753207703"><ele>831.0</ele><time>2026-03-28T10:30:10.999Z</time></trkpt><trkpt lat="40.67280640552856" lon="9.248918545283255"><ele>831.0</ele><time>2026-03-28T10:30:11.999Z</time></trkpt><trkpt lat="40.67274539882657" lon="9.248998957133937"><ele>830.0</ele><time>2026-03-28T10:30:12.999Z</time></trkpt><trkpt lat="40.67269179383885" lon="9.249069338800457"><ele>829.0</ele><time>2026-03-28T10:30:13.999Z</time></trkpt><trkpt lat="40.67262273173337" lon="9.249125512129515"><ele>828.0</ele><time>2026-03-28T10:30:14.999Z</time></trkpt><trkpt lat="40.67255274846952" lon="9.249173665638672"><ele>827.0</ele><time>2026-03-28T10:30:15.999Z</time></trkpt><trkpt lat="40.672490878084794" lon="9.2492098543798"><ele>826.0</ele><time>2026-03-28T10:30:16.999Z</time></trkpt><trkpt lat="40.6724253963329" lon="9.249240767784801"><ele>825.0</ele><time>2026-03-28T10:30:18.999Z</time></trkpt><trkpt lat="40.672360677692545" lon="9.249309413769192"><ele>825.0</ele><time>2026-03-28T10:30:49.999Z</time></trkpt><trkpt lat="40.67230691502571" lon="9.249374268634899"><ele>825.0</ele><time>2026-03-28T10:30:54Z</time></trkpt><trkpt lat="40.6722591612157" lon="9.249444297720437"><ele>825.0</ele><time>2026-03-28T10:30:57Z</time></trkpt><trkpt lat="40.67222508781884" lon="9.249553699876847"><ele>825.0</ele><time>2026-03-28T10:31:00Z</time></trkpt><trkpt lat="40.6722041077434" lon="9.249658136064662"><ele>825.0</ele><time>2026-03-28T10:31:08Z</time></trkpt><trkpt lat="40.67213674784613" lon="9.24979765128713"><ele>825.0</ele><time>2026-03-28T10:31:10Z</time></trkpt><trkpt lat="40.67208950605603" lon="9.249879488240472"><ele>824.75</ele><time>2026-03-28T10:31:11Z</time></trkpt><trkpt lat="40.67204019874394" lon="9.24998395045774"><ele>824.5</ele><time>2026-03-28T10:31:12Z</time></trkpt><trkpt lat="40.671972843903816" lon="9.25012755153325"><ele>824.25</ele><time>2026-03-28T10:31:13Z</time></trkpt><trkpt lat="40.6719084749675" lon="9.25028047311133"><ele>824.0</ele><time>2026-03-28T10:31:14Z</time></trkpt><trkpt lat="40.67184817518418" lon="9.25046648438323"><ele>823.5</ele><time>2026-03-28T10:31:15Z</time></trkpt><trkpt lat="40.671806449716364" lon="9.25063799149219"><ele>823.0</ele><time>2026-03-28T10:31:16Z</time></trkpt><trkpt lat="40.67177447511036" lon="9.250804119927095"><ele>822.5</ele><time>2026-03-28T10:31:17Z</time></trkpt><trkpt lat="40.67172468392811" lon="9.25097097289109"><ele>822.0</ele><time>2026-03-28T10:31:18Z</time></trkpt><trkpt lat="40.671618675802904" lon="9.251142531400317"><ele>822.0</ele><time>2026-03-28T10:31:19Z</time></trkpt><trkpt lat="40.67149911609032" lon="9.251347548853431"><ele>822.0</ele><time>2026-03-28T10:31:20Z</time></trkpt><trkpt lat="40.671416977692495" lon="9.251486886863043"><ele>822.0</ele><time>2026-03-28T10:31:21Z</time></trkpt><trkpt lat="40.67133292024799" lon="9.251665117684512"><ele>822.0</ele><time>2026-03-28T10:31:22Z</time></trkpt><trkpt lat="40.671244006713884" lon="9.251821393354037"><ele>822.0</ele><time>2026-03-28T10:31:23Z</time></trkpt><trkpt lat="40.671160221983925" lon="9.251978932639512"><ele>822.0</ele><time>2026-03-28T10:31:24Z</time></trkpt><trkpt lat="40.67109464908123" lon="9.252150308605879"><ele>822.0</ele><time>2026-03-28T10:31:25Z</time></trkpt><trkpt lat="40.67103272245735" lon="9.252375777581888"><ele>821.75</ele><time>2026-03-28T10:31:26Z</time></trkpt><trkpt lat="40.67098343004111" lon="9.252575857200597"><ele>821.5</ele><time>2026-03-28T10:31:27Z</time></trkpt><trkpt lat="40.670940516510505" lon="9.252754052582242"><ele>821.25</ele><time>2026-03-28T10:31:28Z</time></trkpt><trkpt lat="40.67090792685942" lon="9.252920487447312"><ele>821.0</ele><time>2026-03-28T10:31:29Z</time></trkpt><trkpt lat="40.67089815189574" lon="9.253083590423024"><ele>821.25</ele><time>2026-03-28T10:31:30Z</time></trkpt><trkpt lat="40.67086729109292" lon="9.253239665787698"><ele>821.5</ele><time>2026-03-28T10:31:31Z</time></trkpt><trkpt lat="40.670883592109064" lon="9.253391610198038"><ele>821.75</ele><time>2026-03-28T10:31:32Z</time></trkpt><trkpt lat="40.67086432055619" lon="9.25353628291115"><ele>822.0</ele><time>2026-03-28T10:31:33Z</time></trkpt><trkpt lat="40.67086533027483" lon="9.253679891686145"><ele>822.0</ele><time>2026-03-28T10:31:34Z</time></trkpt><trkpt lat="40.67086126393999" lon="9.25382628031228"><ele>822.0</ele><time>2026-03-28T10:31:34.999Z</time></trkpt><trkpt lat="40.67086968440345" lon="9.253977216024861"><ele>822.0</ele><time>2026-03-28T10:31:35.999Z</time></trkpt><trkpt lat="40.67087129119101" lon="9.254125618764323"><ele>822.0</ele><time>2026-03-28T10:31:36.999Z</time></trkpt><trkpt lat="40.67087458661509" lon="9.254261278063856"><ele>822.0</ele><time>2026-03-28T10:31:37.999Z</time></trkpt><trkpt lat="40.67087064646721" lon="9.254389887439057"><ele>822.6</ele><time>2026-03-28T10:31:38.999Z</time></trkpt><trkpt lat="40.67087773968547" lon="9.25450418914357"><ele>823.2</ele><time>2026-03-28T10:31:39.999Z</time></trkpt><trkpt lat="40.67088850874899" lon="9.25461881053656"><ele>823.8</ele><time>2026-03-28T10:31:40.999Z</time></trkpt><trkpt lat="40.67091573303125" lon="9.254748497704172"><ele>824.4</ele><time>2026-03-28T10:31:41.999Z</time></trkpt><trkpt lat="40.67095095520036" lon="9.254899959614594"><ele>825.0</ele><time>2026-03-28T10:31:42.999Z</time></trkpt><trkpt lat="40.67099131086552" lon="9.255064059785248"><ele>825.25</ele><time>2026-03-28T10:31:43.999Z</time></trkpt><trkpt lat="40.67104260859016" lon="9.25525239478424"><ele>825.5</ele><time>2026-03-28T10:31:44.999Z</time></trkpt><trkpt lat="40.67108420697697" lon="9.255438699953583"><ele>825.75</ele><time>2026-03-28T10:31:45.999Z</time></trkpt><trkpt lat="40.6711453980406" lon="9.255593664305756"><ele>826.0</ele><time>2026-03-28T10:31:46.999Z</time></trkpt><trkpt lat="40.671219757700825" lon="9.255730229862593"><ele>823.6666666666666</ele><time>2026-03-28T10:31:47.999Z</time></trkpt><trkpt lat="40.67129072532974" lon="9.255884076833844"><ele>821.3333333333333</ele><time>2026-03-28T10:31:48.999Z</time></trkpt><trkpt lat="40.67139113400756" lon="9.25607677856008"><ele>819.0</ele><time>2026-03-28T10:31:49.999Z</time></trkpt><trkpt lat="40.67148799015878" lon="9.256290598027984"><ele>821.0</ele><time>2026-03-28T10:31:50.999Z</time></trkpt><trkpt lat="40.671577562579884" lon="9.256515976085383"><ele>823.0</ele><time>2026-03-28T10:31:51.999Z</time></trkpt><trkpt lat="40.67165308863904" lon="9.256724899058486"><ele>825.0</ele><time>2026-03-28T10:31:52.999Z</time></trkpt><trkpt lat="40.671731576420925" lon="9.256916630651999"><ele>825.0</ele><time>2026-03-28T10:31:53.999Z</time></trkpt><trkpt lat="40.671803076030834" lon="9.257079153825199"><ele>825.0</ele><time>2026-03-28T10:31:54.999Z</time></trkpt><trkpt lat="40.671888442722455" lon="9.257210208877687"><ele>825.0</ele><time>2026-03-28T10:31:55.999Z</time></trkpt><trkpt lat="40.67200837340102" lon="9.257338075166079"><ele>825.0</ele><time>2026-03-28T10:31:56.999Z</time></trkpt><trkpt lat="40.67211913284891" lon="9.257446114419277"><ele>826.5</ele><time>2026-03-28T10:31:57.999Z</time></trkpt><trkpt lat="40.67220151699615" lon="9.2575686978773"><ele>828.0</ele><time>2026-03-28T10:31:58.999Z</time></trkpt><trkpt lat="40.67226998922337" lon="9.25771620288345"><ele>829.5</ele><time>2026-03-28T10:31:59.999Z</time></trkpt><trkpt lat="40.67227687123262" lon="9.25787598827098"><ele>831.0</ele><time>2026-03-28T10:32:00.999Z</time></trkpt><trkpt lat="40.67228582354422" lon="9.258030403853304"><ele>832.0</ele><time>2026-03-28T10:32:01.999Z</time></trkpt><trkpt lat="40.672290264918296" lon="9.25820666297765"><ele>833.0</ele><time>2026-03-28T10:32:02.999Z</time></trkpt><trkpt lat="40.672302978317155" lon="9.258430101844015"><ele>834.0</ele><time>2026-03-28T10:32:03.999Z</time></trkpt><trkpt lat="40.67229029504818" lon="9.258624442342757"><ele>834.0</ele><time>2026-03-28T10:32:04.999Z</time></trkpt><trkpt lat="40.6722716271599" lon="9.258793398045402"><ele>834.0</ele><time>2026-03-28T10:32:05.999Z</time></trkpt><trkpt lat="40.6722344983206" lon="9.258951865411454"><ele>834.0</ele><time>2026-03-28T10:32:06.999Z</time></trkpt><trkpt lat="40.67217276625728" lon="9.259086201862868"><ele>834.0</ele><time>2026-03-28T10:32:07.999Z</time></trkpt><trkpt lat="40.67206672304968" lon="9.259208371663707"><ele>835.25</ele><time>2026-03-28T10:32:08.999Z</time></trkpt><trkpt lat="40.67201420255151" lon="9.25936664386114"><ele>836.5</ele><time>2026-03-28T10:32:09.999Z</time></trkpt><trkpt lat="40.671978217598664" lon="9.259502484636382"><ele>837.75</ele><time>2026-03-28T10:32:10.999Z</time></trkpt><trkpt lat="40.671971258590965" lon="9.259664882913846"><ele>839.0</ele><time>2026-03-28T10:32:11.999Z</time></trkpt><trkpt lat="40.67196426338717" lon="9.259874904284795"><ele>842.3333333333334</ele><time>2026-03-28T10:32:12.999Z</time></trkpt><trkpt lat="40.671931964716244" lon="9.260114298099296"><ele>845.6666666666667</ele><time>2026-03-28T10:32:13.999Z</time></trkpt><trkpt lat="40.671909102830874" lon="9.260356026695389"><ele>849.0</ele><time>2026-03-28T10:32:14.999Z</time></trkpt><trkpt lat="40.67186406003753" lon="9.260584885050806"><ele>848.3333333333333</ele><time>2026-03-28T10:32:15.999Z</time></trkpt><trkpt lat="40.6718240948581" lon="9.260898897957885"><ele>847.6666666666666</ele><time>2026-03-28T10:32:16.999Z</time></trkpt><trkpt lat="40.671806157061944" lon="9.261120984995856"><ele>847.0</ele><time>2026-03-28T10:32:17.999Z</time></trkpt><trkpt lat="40.67180766533058" lon="9.26134200043702"><ele>848.3333333333333</ele><time>2026-03-28T10:32:18.999Z</time></trkpt><trkpt lat="40.67182997312328" lon="9.26157538509573"><ele>849.6666666666667</ele><time>2026-03-28T10:32:19.999Z</time></trkpt><trkpt lat="40.671861345346464" lon="9.261786746527157"><ele>851.0</ele><time>2026-03-28T10:32:20.999Z</time></trkpt><trkpt lat="40.671893669877015" lon="9.261962205960199"><ele>851.0</ele><time>2026-03-28T10:32:21.999Z</time></trkpt><trkpt lat="40.67191033363601" lon="9.262131770811191"><ele>851.0</ele><time>2026-03-28T10:32:22.999Z</time></trkpt><trkpt lat="40.671902289753014" lon="9.262286066928844"><ele>851.0</ele><time>2026-03-28T10:32:23.999Z</time></trkpt><trkpt lat="40.67185154600133" lon="9.262437546352741"><ele>851.0</ele><time>2026-03-28T10:32:24.999Z</time></trkpt><trkpt lat="40.671792117471384" lon="9.262596560378258"><ele>853.0</ele><time>2026-03-28T10:32:25.999Z</time></trkpt><trkpt lat="40.671710447634695" lon="9.262754518240563"><ele>855.0</ele><time>2026-03-28T10:32:26.999Z</time></trkpt><trkpt lat="40.67160336672376" lon="9.262932523370964"><ele>857.0</ele><time>2026-03-28T10:32:27.999Z</time></trkpt><trkpt lat="40.671492386764754" lon="9.263133277871292"><ele>859.5</ele><time>2026-03-28T10:32:28.999Z</time></trkpt><trkpt lat="40.67138307833757" lon="9.263278022438547"><ele>862.0</ele><time>2026-03-28T10:32:29.999Z</time></trkpt><trkpt lat="40.67131531646887" lon="9.263441961214456"><ele>864.5</ele><time>2026-03-28T10:32:30.999Z</time></trkpt><trkpt lat="40.67125772652424" lon="9.263609402177623"><ele>867.0</ele><time>2026-03-28T10:32:31.999Z</time></trkpt><trkpt lat="40.671196331548195" lon="9.263824672790564"><ele>869.0</ele><time>2026-03-28T10:32:32.999Z</time></trkpt><trkpt lat="40.67115241001729" lon="9.264046588446963"><ele>871.0</ele><time>2026-03-28T10:32:33.999Z</time></trkpt><trkpt lat="40.67111896672573" lon="9.264262095366146"><ele>873.0</ele><time>2026-03-28T10:32:34.999Z</time></trkpt><trkpt lat="40.67108162211476" lon="9.26449721872266"><ele>873.0</ele><time>2026-03-28T10:32:35.999Z</time></trkpt><trkpt lat="40.67105174716323" lon="9.264702350002727"><ele>873.0</ele><time>2026-03-28T10:32:36.999Z</time></trkpt><trkpt lat="40.6710203431836" lon="9.264898459740664"><ele>873.0</ele><time>2026-03-28T10:32:37.999Z</time></trkpt><trkpt lat="40.67096944729117" lon="9.265074547333592"><ele>874.0</ele><time>2026-03-28T10:32:38.999Z</time></trkpt><trkpt lat="40.670890199471" lon="9.265256629222465"><ele>875.0</ele><time>2026-03-28T10:32:39.999Z</time></trkpt><trkpt lat="40.67081699451716" lon="9.265407918801696"><ele>876.0</ele><time>2026-03-28T10:32:40.999Z</time></trkpt><trkpt lat="40.67077143505447" lon="9.26553381818993"><ele>877.0</ele><time>2026-03-28T10:32:41.999Z</time></trkpt><trkpt lat="40.670755570753855" lon="9.265658759351197"><ele>877.75</ele><time>2026-03-28T10:32:42.999Z</time></trkpt><trkpt lat="40.6707923842689" lon="9.265780703788954"><ele>878.5</ele><time>2026-03-28T10:32:43.999Z</time></trkpt><trkpt lat="40.670796066856305" lon="9.265919170469738"><ele>879.25</ele><time>2026-03-28T10:32:44.999Z</time></trkpt><trkpt lat="40.67079564234712" lon="9.26607250101094"><ele>880.0</ele><time>2026-03-28T10:32:45.999Z</time></trkpt><trkpt lat="40.670790920679835" lon="9.266248015996764"><ele>880.0</ele><time>2026-03-28T10:32:46.999Z</time></trkpt><trkpt lat="40.67043378773475" lon="9.266431621218757"><ele>880.0</ele><time>2026-03-28T10:32:47.999Z</time></trkpt><trkpt lat="40.67035360684405" lon="9.266582589957597"><ele>878.0</ele><time>2026-03-28T10:32:48.999Z</time></trkpt><trkpt lat="40.67027218712236" lon="9.266725560118498"><ele>876.0</ele><time>2026-03-28T10:32:49.999Z</time></trkpt><trkpt lat="40.670151247437076" lon="9.266883813749773"><ele>874.0</ele><time>2026-03-28T10:32:50.999Z</time></trkpt><trkpt lat="40.67001307802609" lon="9.267017737730468"><ele>874.0</ele><time>2026-03-28T10:32:51.999Z</time></trkpt><trkpt lat="40.66988455193708" lon="9.267125568468197"><ele>874.0</ele><time>2026-03-28T10:32:52.999Z</time></trkpt><trkpt lat="40.66977085010858" lon="9.267215598890376"><ele>874.0</ele><time>2026-03-28T10:32:53.999Z</time></trkpt><trkpt lat="40.6696817329767" lon="9.267296729143844"><ele>874.0</ele><time>2026-03-28T10:32:54.999Z</time></trkpt><trkpt lat="40.66961023071565" lon="9.26739805928485"><ele>875.5</ele><time>2026-03-28T10:32:55.999Z</time></trkpt><trkpt lat="40.66955486982968" lon="9.267525656784825"><ele>877.0</ele><time>2026-03-28T10:32:56.999Z</time></trkpt><trkpt lat="40.669523692233724" lon="9.267693350357181"><ele>878.5</ele><time>2026-03-28T10:32:58Z</time></trkpt><trkpt lat="40.66951239446306" lon="9.267900835943468"><ele>880.0</ele><time>2026-03-28T10:32:59Z</time></trkpt><trkpt lat="40.66949274627599" lon="9.268127298248851"><ele>882.75</ele><time>2026-03-28T10:33:00Z</time></trkpt><trkpt lat="40.66947030219199" lon="9.268317834927341"><ele>885.5</ele><time>2026-03-28T10:33:01Z</time></trkpt><trkpt lat="40.66945081608858" lon="9.268477293667486"><ele>888.25</ele><time>2026-03-28T10:33:02Z</time></trkpt><trkpt lat="40.6694469004797" lon="9.268614741574494"><ele>891.0</ele><time>2026-03-28T10:33:03Z</time></trkpt><trkpt lat="40.669466432149896" lon="9.268760002726129"><ele>891.0</ele><time>2026-03-28T10:33:04Z</time></trkpt><trkpt lat="40.669536655445555" lon="9.268924587395547"><ele>891.0</ele><time>2026-03-28T10:33:05Z</time></trkpt><trkpt lat="40.66957778311448" lon="9.269074026643668"><ele>891.0</ele><time>2026-03-28T10:33:06Z</time></trkpt><trkpt lat="40.66957844049156" lon="9.269209342326691"><ele>891.0</ele><time>2026-03-28T10:33:07Z</time></trkpt><trkpt lat="40.66954808310063" lon="9.269353324795263"><ele>890.25</ele><time>2026-03-28T10:33:08Z</time></trkpt><trkpt lat="40.66949254852305" lon="9.269501975170671"><ele>889.5</ele><time>2026-03-28T10:33:09Z</time></trkpt><trkpt lat="40.669456517612794" lon="9.269672843816776"><ele>888.75</ele><time>2026-03-28T10:33:10Z</time></trkpt><trkpt lat="40.66946701476639" lon="9.269841505571618"><ele>888.0</ele><time>2026-03-28T10:33:11Z</time></trkpt><trkpt lat="40.66951453916951" lon="9.27000522965614"><ele>887.75</ele><time>2026-03-28T10:33:12Z</time></trkpt><trkpt lat="40.66958129287403" lon="9.270156643534861"><ele>887.5</ele><time>2026-03-28T10:33:13Z</time></trkpt><trkpt lat="40.66966432976805" lon="9.270331800213171"><ele>887.25</ele><time>2026-03-28T10:33:14Z</time></trkpt><trkpt lat="40.66970825726543" lon="9.270479280310493"><ele>887.0</ele><time>2026-03-28T10:33:15Z</time></trkpt><trkpt lat="40.669731277856734" lon="9.270667670455845"><ele>886.3333333333334</ele><time>2026-03-28T10:33:16Z</time></trkpt><trkpt lat="40.6697380101042" lon="9.270912725150644"><ele>885.6666666666667</ele><time>2026-03-28T10:33:17Z</time></trkpt><trkpt lat="40.66974374414131" lon="9.271131761778966"><ele>885.0</ele><time>2026-03-28T10:33:18Z</time></trkpt><trkpt lat="40.66973513784997" lon="9.271287436548509"><ele>885.0</ele><time>2026-03-28T10:33:19Z</time></trkpt><trkpt lat="40.669716623943444" lon="9.27143725164657"><ele>885.0</ele><time>2026-03-28T10:33:20Z</time></trkpt><trkpt lat="40.669718559985064" lon="9.271583017229643"><ele>885.0</ele><time>2026-03-28T10:33:21Z</time></trkpt><trkpt lat="40.66975083258707" lon="9.271722826675829"><ele>885.0</ele><time>2026-03-28T10:33:22Z</time></trkpt><trkpt lat="40.66981040449526" lon="9.271872204728503"><ele>884.0</ele><time>2026-03-28T10:33:23Z</time></trkpt><trkpt lat="40.6698811848148" lon="9.272036505617953"><ele>883.0</ele><time>2026-03-28T10:33:24Z</time></trkpt><trkpt lat="40.669921894512726" lon="9.272186784666529"><ele>882.0</ele><time>2026-03-28T10:33:25Z</time></trkpt><trkpt lat="40.66993991660962" lon="9.272346705154874"><ele>881.0</ele><time>2026-03-28T10:33:26Z</time></trkpt><trkpt lat="40.66994454751231" lon="9.272502906176143"><ele>880.0</ele><time>2026-03-28T10:33:27Z</time></trkpt><trkpt lat="40.66992013306251" lon="9.272640866834307"><ele>879.0</ele><time>2026-03-28T10:33:28Z</time></trkpt><trkpt lat="40.66985666977814" lon="9.272802712248618"><ele>878.0</ele><time>2026-03-28T10:33:29Z</time></trkpt><trkpt lat="40.66978207018832" lon="9.27297948817438"><ele>877.0</ele><time>2026-03-28T10:33:30Z</time></trkpt><trkpt lat="40.66972745148132" lon="9.273143371168036"><ele>876.3333333333333</ele><time>2026-03-28T10:33:31Z</time></trkpt><trkpt lat="40.66969298797208" lon="9.27334564593779"><ele>875.6666666666667</ele><time>2026-03-28T10:33:32Z</time></trkpt><trkpt lat="40.66967792953176" lon="9.27355038405376"><ele>875.0</ele><time>2026-03-28T10:33:33Z</time></trkpt><trkpt lat="40.669665959775486" lon="9.273778376299262"><ele>872.6666666666667</ele><time>2026-03-28T10:33:34Z</time></trkpt><trkpt lat="40.66963592716274" lon="9.273984750200036"><ele>870.3333333333333</ele><time>2026-03-28T10:33:35Z</time></trkpt><trkpt lat="40.66959846729973" lon="9.274176144043963"><ele>868.0</ele><time>2026-03-28T10:33:36Z</time></trkpt><trkpt lat="40.66956284732168" lon="9.274376406651564"><ele>868.0</ele><time>2026-03-28T10:33:37Z</time></trkpt><trkpt lat="40.66952087606389" lon="9.274555875239923"><ele>868.0</ele><time>2026-03-28T10:33:38Z</time></trkpt><trkpt lat="40.66946147293044" lon="9.274730921774406"><ele>868.0</ele><time>2026-03-28T10:33:38.999Z</time></trkpt><trkpt lat="40.669401202065295" lon="9.2748925124508"><ele>868.0</ele><time>2026-03-28T10:33:39.999Z</time></trkpt><trkpt lat="40.669344400245" lon="9.275049213325985"><ele>864.5</ele><time>2026-03-28T10:33:40.999Z</time></trkpt><trkpt lat="40.669303105058276" lon="9.275213023146962"><ele>861.0</ele><time>2026-03-28T10:33:41.999Z</time></trkpt><trkpt lat="40.66928143603034" lon="9.275368438728286"><ele>857.5</ele><time>2026-03-28T10:33:42.999Z</time></trkpt><trkpt lat="40.66928259677197" lon="9.275520416411348"><ele>854.0</ele><time>2026-03-28T10:33:43.999Z</time></trkpt><trkpt lat="40.66930626576387" lon="9.275676980998986"><ele>854.0</ele><time>2026-03-28T10:33:44.999Z</time></trkpt><trkpt lat="40.66935041401077" lon="9.275851854581"><ele>854.0</ele><time>2026-03-28T10:33:45.999Z</time></trkpt><trkpt lat="40.66940719447972" lon="9.276001698892587"><ele>854.0</ele><time>2026-03-28T10:33:46.999Z</time></trkpt><trkpt lat="40.669486138901306" lon="9.276157006779409"><ele>854.0</ele><time>2026-03-28T10:33:47.999Z</time></trkpt><trkpt lat="40.669571878446725" lon="9.2763004212113"><ele>855.0</ele><time>2026-03-28T10:33:48.999Z</time></trkpt><trkpt lat="40.66966417085427" lon="9.276410220871762"><ele>856.0</ele><time>2026-03-28T10:33:49.999Z</time></trkpt><trkpt lat="40.669795804985" lon="9.276518059639976"><ele>857.0</ele><time>2026-03-28T10:33:50.999Z</time></trkpt><trkpt lat="40.669943617979676" lon="9.276633962696916"><ele>857.75</ele><time>2026-03-28T10:33:51.999Z</time></trkpt><trkpt lat="40.67007553605257" lon="9.276749859702097"><ele>858.5</ele><time>2026-03-28T10:33:52.999Z</time></trkpt><trkpt lat="40.670188280403984" lon="9.276859128608276"><ele>859.25</ele><time>2026-03-28T10:33:53.999Z</time></trkpt><trkpt lat="40.670280949669504" lon="9.276987106044528"><ele>860.0</ele><time>2026-03-28T10:33:54.999Z</time></trkpt><trkpt lat="40.670360223350535" lon="9.277146021880641"><ele>857.0</ele><time>2026-03-28T10:33:55.999Z</time></trkpt><trkpt lat="40.67043073673276" lon="9.27730694395658"><ele>854.0</ele><time>2026-03-28T10:33:56.999Z</time></trkpt><trkpt lat="40.67050245063207" lon="9.277442476889819"><ele>851.0</ele><time>2026-03-28T10:33:57.999Z</time></trkpt><trkpt lat="40.67055528604336" lon="9.277559676393507"><ele>848.0</ele><time>2026-03-28T10:33:58.999Z</time></trkpt><trkpt lat="40.67058836280232" lon="9.27769860041337"><ele>848.0</ele><time>2026-03-28T10:33:59.999Z</time></trkpt><trkpt lat="40.6706216188243" lon="9.277863025514568"><ele>848.0</ele><time>2026-03-28T10:34:00.999Z</time></trkpt><trkpt lat="40.670653798829164" lon="9.27803783370967"><ele>848.0</ele><time>2026-03-28T10:34:01.999Z</time></trkpt><trkpt lat="40.67068478146165" lon="9.27820157477003"><ele>848.0</ele><time>2026-03-28T10:34:02.999Z</time></trkpt><trkpt lat="40.67073322098906" lon="9.27835810764673"><ele>844.5</ele><time>2026-03-28T10:34:03.999Z</time></trkpt><trkpt lat="40.67080340649152" lon="9.278532168146507"><ele>841.0</ele><time>2026-03-28T10:34:04.999Z</time></trkpt><trkpt lat="40.670881453546734" lon="9.278710857172706"><ele>837.5</ele><time>2026-03-28T10:34:05.999Z</time></trkpt><trkpt lat="40.67094865027531" lon="9.278873752784794"><ele>834.0</ele><time>2026-03-28T10:34:06.999Z</time></trkpt><trkpt lat="40.67101651551011" lon="9.279018954993884"><ele>835.0</ele><time>2026-03-28T10:34:07.999Z</time></trkpt><trkpt lat="40.67107813290424" lon="9.279130110326182"><ele>836.0</ele><time>2026-03-28T10:34:08.999Z</time></trkpt><trkpt lat="40.67113399570844" lon="9.279199118611414"><ele>837.0</ele><time>2026-03-28T10:34:09.999Z</time></trkpt><trkpt lat="40.67119498505762" lon="9.279243193274786"><ele>838.0</ele><time>2026-03-28T10:34:10.999Z</time></trkpt><trkpt lat="40.67128054259297" lon="9.279271010304072"><ele>839.0</ele><time>2026-03-28T10:34:11.999Z</time></trkpt><trkpt lat="40.671375623363716" lon="9.279338428443447"><ele>840.0</ele><time>2026-03-28T10:34:12.999Z</time></trkpt><trkpt lat="40.671435457007505" lon="9.27945739436505"><ele>840.0</ele><time>2026-03-28T10:34:13.999Z</time></trkpt><trkpt lat="40.671510270779926" lon="9.279621571259375"><ele>840.0</ele><time>2026-03-28T10:34:14.999Z</time></trkpt><trkpt lat="40.671616988148656" lon="9.279789294506"><ele>840.0</ele><time>2026-03-28T10:34:15.999Z</time></trkpt><trkpt lat="40.6717051568186" lon="9.279932735885016"><ele>842.5</ele><time>2026-03-28T10:34:16.999Z</time></trkpt><trkpt lat="40.67177937994405" lon="9.280073740180095"><ele>845.0</ele><time>2026-03-28T10:34:17.999Z</time></trkpt><trkpt lat="40.67185264222361" lon="9.28022079701378"><ele>847.5</ele><time>2026-03-28T10:34:18.999Z</time></trkpt><trkpt lat="40.6719109304984" lon="9.280381117875304"><ele>850.0</ele><time>2026-03-28T10:34:19.999Z</time></trkpt><trkpt lat="40.67196012819234" lon="9.28055702543887"><ele>847.0</ele><time>2026-03-28T10:34:20.999Z</time></trkpt><trkpt lat="40.67200006121508" lon="9.280749386755792"><ele>844.0</ele><time>2026-03-28T10:34:21.999Z</time></trkpt><trkpt lat="40.672054131011485" lon="9.280944203525504"><ele>841.0</ele><time>2026-03-28T10:34:22.999Z</time></trkpt><trkpt lat="40.672118437591685" lon="9.281104293039506"><ele>838.0</ele><time>2026-03-28T10:34:23.999Z</time></trkpt><trkpt lat="40.67218427342249" lon="9.281234565815945"><ele>838.0</ele><time>2026-03-28T10:34:24.999Z</time></trkpt><trkpt lat="40.67226336199943" lon="9.281340455406697"><ele>838.0</ele><time>2026-03-28T10:34:25.999Z</time></trkpt><trkpt lat="40.67237905338269" lon="9.281454634403357"><ele>838.0</ele><time>2026-03-28T10:34:26.999Z</time></trkpt><trkpt lat="40.67251489680667" lon="9.281567004365531"><ele>838.0</ele><time>2026-03-28T10:34:27.999Z</time></trkpt><trkpt lat="40.67262923145225" lon="9.281669022777239"><ele>840.25</ele><time>2026-03-28T10:34:28.999Z</time></trkpt><trkpt lat="40.67271361209133" lon="9.281797070014724"><ele>842.5</ele><time>2026-03-28T10:34:29.999Z</time></trkpt><trkpt lat="40.67276952670011" lon="9.28195922900145"><ele>844.75</ele><time>2026-03-28T10:34:30.999Z</time></trkpt><trkpt lat="40.67280942705865" lon="9.28215925524455"><ele>847.0</ele><time>2026-03-28T10:34:31.999Z</time></trkpt><trkpt lat="40.672833253879844" lon="9.282386183247013"><ele>847.0</ele><time>2026-03-28T10:34:32.999Z</time></trkpt><trkpt lat="40.672853856840824" lon="9.282602056051207"><ele>847.0</ele><time>2026-03-28T10:34:33.999Z</time></trkpt><trkpt lat="40.67289370734612" lon="9.282821616233916"><ele>847.0</ele><time>2026-03-28T10:34:34.999Z</time></trkpt><trkpt lat="40.67294330538682" lon="9.28303062780551"><ele>845.5</ele><time>2026-03-28T10:34:35.999Z</time></trkpt><trkpt lat="40.67299371569935" lon="9.283210033387713"><ele>844.0</ele><time>2026-03-28T10:34:36.999Z</time></trkpt><trkpt lat="40.67304904447953" lon="9.283380875454123"><ele>842.5</ele><time>2026-03-28T10:34:37.999Z</time></trkpt><trkpt lat="40.67310788566889" lon="9.28353612877784"><ele>841.0</ele><time>2026-03-28T10:34:38.999Z</time></trkpt><trkpt lat="40.673177207973055" lon="9.283682084028266"><ele>841.0</ele><time>2026-03-28T10:34:39.999Z</time></trkpt><trkpt lat="40.6732297137933" lon="9.283812491734805"><ele>841.0</ele><time>2026-03-28T10:34:40.999Z</time></trkpt><trkpt lat="40.6732683794556" lon="9.283940644263183"><ele>841.0</ele><time>2026-03-28T10:34:41.999Z</time></trkpt><trkpt lat="40.673299706697776" lon="9.284041542544507"><ele>841.0</ele><time>2026-03-28T10:34:42.999Z</time></trkpt><trkpt lat="40.673342809501904" lon="9.284168069641618"><ele>841.0</ele><time>2026-03-28T10:34:43.999Z</time></trkpt><trkpt lat="40.6733855339301" lon="9.284280131669188"><ele>839.4</ele><time>2026-03-28T10:34:44.999Z</time></trkpt><trkpt lat="40.673422811667436" lon="9.284389098440744"><ele>837.8</ele><time>2026-03-28T10:34:45.999Z</time></trkpt><trkpt lat="40.673475947362384" lon="9.284480875486919"><ele>836.1999999999999</ele><time>2026-03-28T10:34:46.999Z</time></trkpt><trkpt lat="40.67354723084951" lon="9.284571774894559"><ele>834.5999999999999</ele><time>2026-03-28T10:34:47.999Z</time></trkpt><trkpt lat="40.67362222871481" lon="9.284635804269916"><ele>833.0</ele><time>2026-03-28T10:34:48.999Z</time></trkpt><trkpt lat="40.67370969075257" lon="9.284673155494664"><ele>833.0</ele><time>2026-03-28T10:34:49.999Z</time></trkpt><trkpt lat="40.6738043367873" lon="9.284698272839915"><ele>833.0</ele><time>2026-03-28T10:34:50.999Z</time></trkpt><trkpt lat="40.673919085933306" lon="9.284721575564806"><ele>833.0</ele><time>2026-03-28T10:34:51.999Z</time></trkpt><trkpt lat="40.674024725753895" lon="9.284727105315486"><ele>833.0</ele><time>2026-03-28T10:34:52.999Z</time></trkpt><trkpt lat="40.67412110517546" lon="9.284729610229842"><ele>833.0</ele><time>2026-03-28T10:34:53.999Z</time></trkpt><trkpt lat="40.674194717913245" lon="9.284759740392152"><ele>830.5999999999999</ele><time>2026-03-28T10:34:54.999Z</time></trkpt><trkpt lat="40.67425050316117" lon="9.284837503971138"><ele>828.1999999999999</ele><time>2026-03-28T10:34:55.999Z</time></trkpt><trkpt lat="40.67430260408478" lon="9.284966939082395"><ele>825.8</ele><time>2026-03-28T10:34:56.999Z</time></trkpt><trkpt lat="40.67437735309233" lon="9.285075156010464"><ele>823.4</ele><time>2026-03-28T10:34:57.999Z</time></trkpt><trkpt lat="40.67445092083966" lon="9.28517421367382"><ele>821.0</ele><time>2026-03-28T10:34:58.999Z</time></trkpt><trkpt lat="40.67452355494707" lon="9.285298070632946"><ele>828.0</ele><time>2026-03-28T10:34:59.999Z</time></trkpt><trkpt lat="40.67460369330925" lon="9.285447716055147"><ele>835.0</ele><time>2026-03-28T10:35:00.999Z</time></trkpt><trkpt lat="40.6747124141727" lon="9.285617692696928"><ele>842.0</ele><time>2026-03-28T10:35:01.999Z</time></trkpt><trkpt lat="40.67480753834596" lon="9.285833644093536"><ele>842.0</ele><time>2026-03-28T10:35:02.999Z</time></trkpt><trkpt lat="40.674927445091576" lon="9.286023988693051"><ele>842.0</ele><time>2026-03-28T10:35:04Z</time></trkpt><trkpt lat="40.6750191410645" lon="9.286182381405487"><ele>842.0</ele><time>2026-03-28T10:35:05Z</time></trkpt><trkpt lat="40.67511914987923" lon="9.28637695220336"><ele>840.3333333333334</ele><time>2026-03-28T10:35:06Z</time></trkpt><trkpt lat="40.675231309390774" lon="9.286499313759059"><ele>838.6666666666667</ele><time>2026-03-28T10:35:07Z</time></trkpt><trkpt lat="40.67531744811431" lon="9.286634648228214"><ele>837.0</ele><time>2026-03-28T10:35:08Z</time></trkpt><trkpt lat="40.675430590723806" lon="9.286812497071745"><ele>844.0</ele><time>2026-03-28T10:35:09Z</time></trkpt><trkpt lat="40.6755361791292" lon="9.28697232786156"><ele>851.0</ele><time>2026-03-28T10:35:10Z</time></trkpt><trkpt lat="40.67563564494192" lon="9.287113791346124"><ele>858.0</ele><time>2026-03-28T10:35:11Z</time></trkpt><trkpt lat="40.67574187239194" lon="9.287259805590327"><ele>855.5999999999999</ele><time>2026-03-28T10:35:12Z</time></trkpt><trkpt lat="40.675821714633315" lon="9.287412876983003"><ele>853.1999999999999</ele><time>2026-03-28T10:35:13Z</time></trkpt><trkpt lat="40.675901408329025" lon="9.28751108941674"><ele>850.8</ele><time>2026-03-28T10:35:14Z</time></trkpt><trkpt lat="40.67594662497373" lon="9.287609626719808"><ele>848.4</ele><time>2026-03-28T10:35:15Z</time></trkpt><trkpt lat="40.675966100628024" lon="9.287697668075674"><ele>846.0</ele><time>2026-03-28T10:35:16Z</time></trkpt><trkpt lat="40.67592413049751" lon="9.287819863971443"><ele>846.0</ele><time>2026-03-28T10:35:18Z</time></trkpt><trkpt lat="40.6757879460854" lon="9.287821621867225"><ele>846.0</ele><time>2026-03-28T10:35:20Z</time></trkpt><trkpt lat="40.675668007214135" lon="9.28782937472729"><ele>846.0</ele><time>2026-03-28T10:35:21Z</time></trkpt><trkpt lat="40.675539683311385" lon="9.287856694739942"><ele>846.0</ele><time>2026-03-28T10:35:22Z</time></trkpt><trkpt lat="40.6753910901369" lon="9.287846575436708"><ele>845.3333333333333</ele><time>2026-03-28T10:35:23Z</time></trkpt><trkpt lat="40.675235246931166" lon="9.287851008447372"><ele>844.6666666666666</ele><time>2026-03-28T10:35:24Z</time></trkpt><trkpt lat="40.675064430133354" lon="9.287870163217935"><ele>844.0</ele><time>2026-03-28T10:35:25Z</time></trkpt><trkpt lat="40.67493293634981" lon="9.287867937918968"><ele>844.0</ele><time>2026-03-28T10:35:26Z</time></trkpt><trkpt lat="40.67483552654032" lon="9.287900024217905"><ele>844.0</ele><time>2026-03-28T10:35:27Z</time></trkpt><trkpt lat="40.674734912759114" lon="9.287937911988156"><ele>844.0</ele><time>2026-03-28T10:35:28Z</time></trkpt><trkpt lat="40.67464547707634" lon="9.287995030109489"><ele>844.0</ele><time>2026-03-28T10:35:29Z</time></trkpt><trkpt lat="40.67455066692168" lon="9.288093226453942"><ele>844.0</ele><time>2026-03-28T10:35:30Z</time></trkpt><trkpt lat="40.67444249465694" lon="9.288232188718906"><ele>847.6666666666666</ele><time>2026-03-28T10:35:31Z</time></trkpt><trkpt lat="40.67431192607749" lon="9.288371278530427"><ele>851.3333333333333</ele><time>2026-03-28T10:35:32Z</time></trkpt><trkpt lat="40.67416724592813" lon="9.288509756661872"><ele>855.0</ele><time>2026-03-28T10:35:33Z</time></trkpt><trkpt lat="40.67401820913298" lon="9.288659206321366"><ele>855.0</ele><time>2026-03-28T10:35:33.999Z</time></trkpt><trkpt lat="40.673880380117964" lon="9.288776818358244"><ele>855.0</ele><time>2026-03-28T10:35:34.999Z</time></trkpt><trkpt lat="40.67374661298787" lon="9.28885057735668"><ele>855.0</ele><time>2026-03-28T10:35:35.999Z</time></trkpt><trkpt lat="40.6736492085537" lon="9.288948623024712"><ele>855.0</ele><time>2026-03-28T10:35:36.999Z</time></trkpt><trkpt lat="40.67355468033527" lon="9.289032085678489"><ele>857.0</ele><time>2026-03-28T10:35:37.999Z</time></trkpt><trkpt lat="40.67347553154754" lon="9.289129604623554"><ele>859.0</ele><time>2026-03-28T10:35:38.999Z</time></trkpt><trkpt lat="40.67341438476833" lon="9.289267261888812"><ele>861.0</ele><time>2026-03-28T10:35:39.999Z</time></trkpt><trkpt lat="40.673365089881464" lon="9.28944408701486"><ele>863.0</ele><time>2026-03-28T10:35:40.999Z</time></trkpt><trkpt lat="40.673296614690955" lon="9.28962832013924"><ele>863.75</ele><time>2026-03-28T10:35:41.999Z</time></trkpt><trkpt lat="40.67325020494156" lon="9.28980353183186"><ele>864.5</ele><time>2026-03-28T10:35:42.999Z</time></trkpt><trkpt lat="40.67320628681292" lon="9.289941362384411"><ele>865.25</ele><time>2026-03-28T10:35:43.999Z</time></trkpt><trkpt lat="40.67318052089" lon="9.290086554722265"><ele>866.0</ele><time>2026-03-28T10:35:44.999Z</time></trkpt><trkpt lat="40.67315755259567" lon="9.290208684953448"><ele>866.0000000000001</ele><time>2026-03-28T10:35:45.999Z</time></trkpt><trkpt lat="40.673126604970264" lon="9.290300870080417"><ele>866.0</ele><time>2026-03-28T10:35:47.999Z</time></trkpt><trkpt lat="40.67311063624353" lon="9.29038858862276"><ele>866.0</ele><time>2026-03-28T10:35:52.999Z</time></trkpt><trkpt lat="40.67320018873955" lon="9.290438637119921"><ele>866.0</ele><time>2026-03-28T10:35:53.999Z</time></trkpt><trkpt lat="40.67327818411709" lon="9.2904731572775"><ele>866.0000000000001</ele><time>2026-03-28T10:35:54.999Z</time></trkpt><trkpt lat="40.67336134602927" lon="9.290536844785233"><ele>866.0</ele><time>2026-03-28T10:35:55.999Z</time></trkpt><trkpt lat="40.67344089409327" lon="9.290600730263037"><ele>866.75</ele><time>2026-03-28T10:35:56.999Z</time></trkpt><trkpt lat="40.673556692248354" lon="9.290660248910692"><ele>867.5</ele><time>2026-03-28T10:35:57.999Z</time></trkpt><trkpt lat="40.673691391752286" lon="9.290711158603678"><ele>868.25</ele><time>2026-03-28T10:35:58.999Z</time></trkpt><trkpt lat="40.6738078059759" lon="9.290747726043373"><ele>869.0</ele><time>2026-03-28T10:35:59.999Z</time></trkpt><trkpt lat="40.67389441810972" lon="9.290769694944666"><ele>869.6666666666667</ele><time>2026-03-28T10:36:00.999Z</time></trkpt><trkpt lat="40.67397139111312" lon="9.29079106161083"><ele>870.3333333333334</ele><time>2026-03-28T10:36:01.999Z</time></trkpt><trkpt lat="40.674039411973" lon="9.29080868168257"><ele>871.0</ele><time>2026-03-28T10:36:02.999Z</time></trkpt><trkpt lat="40.67415517594523" lon="9.290851606936096"><ele>871.6666666666667</ele><time>2026-03-28T10:36:04.999Z</time></trkpt><trkpt lat="40.67422382662022" lon="9.290886816325363"><ele>872.3333333333334</ele><time>2026-03-28T10:36:05.999Z</time></trkpt><trkpt lat="40.67429800798303" lon="9.29091613411057"><ele>873.0</ele><time>2026-03-28T10:36:06.999Z</time></trkpt><trkpt lat="40.67437773811711" lon="9.290944494465203"><ele>874.25</ele><time>2026-03-28T10:36:07.999Z</time></trkpt><trkpt lat="40.6744688311492" lon="9.290984558767594"><ele>875.5</ele><time>2026-03-28T10:36:08.999Z</time></trkpt><trkpt lat="40.67455963888344" lon="9.291042018828163"><ele>876.75</ele><time>2026-03-28T10:36:09.999Z</time></trkpt><trkpt lat="40.674658797078735" lon="9.29112729448265"><ele>878.0</ele><time>2026-03-28T10:36:10.999Z</time></trkpt><trkpt lat="40.67476701677554" lon="9.291233269554054"><ele>878.0</ele><time>2026-03-28T10:36:11.999Z</time></trkpt><trkpt lat="40.67489245223625" lon="9.291360966373547"><ele>878.0</ele><time>2026-03-28T10:36:12.999Z</time></trkpt><trkpt lat="40.675008744903515" lon="9.29149376452706"><ele>878.0</ele><time>2026-03-28T10:36:13.999Z</time></trkpt><trkpt lat="40.67510816321485" lon="9.291613257408672"><ele>878.0</ele><time>2026-03-28T10:36:14.999Z</time></trkpt><trkpt lat="40.67518934754336" lon="9.291713803454043"><ele>878.5000000000001</ele><time>2026-03-28T10:36:15.999Z</time></trkpt><trkpt lat="40.67525947191103" lon="9.291807215915647"><ele>879.0</ele><time>2026-03-28T10:36:16.999Z</time></trkpt><trkpt lat="40.67531457514836" lon="9.291901277369652"><ele>879.5</ele><time>2026-03-28T10:36:17.999Z</time></trkpt><trkpt lat="40.67535976878489" lon="9.29198045322082"><ele>880.0</ele><time>2026-03-28T10:36:18.999Z</time></trkpt><trkpt lat="40.67541325614863" lon="9.292037835331481"><ele>880.5000000000001</ele><time>2026-03-28T10:36:19.999Z</time></trkpt><trkpt lat="40.67547418890732" lon="9.292064766326964"><ele>881.0</ele><time>2026-03-28T10:36:20.999Z</time></trkpt><trkpt lat="40.67561146539277" lon="9.292014280226267"><ele>882.4</ele><time>2026-03-28T10:36:22.999Z</time></trkpt><trkpt lat="40.675693553613925" lon="9.291939917153929"><ele>883.8</ele><time>2026-03-28T10:36:23.999Z</time></trkpt><trkpt lat="40.67578723878719" lon="9.291908589216535"><ele>885.1999999999999</ele><time>2026-03-28T10:36:24.999Z</time></trkpt><trkpt lat="40.675891380802" lon="9.291847806491099"><ele>886.5999999999999</ele><time>2026-03-28T10:36:25.999Z</time></trkpt><trkpt lat="40.675990556860924" lon="9.291788537742368"><ele>888.0</ele><time>2026-03-28T10:36:26.999Z</time></trkpt><trkpt lat="40.67607667495017" lon="9.291715655657924"><ele>889.1666666666666</ele><time>2026-03-28T10:36:27.999Z</time></trkpt><trkpt lat="40.67614790886471" lon="9.291674289440257"><ele>890.3333333333333</ele><time>2026-03-28T10:36:28.999Z</time></trkpt><trkpt lat="40.676217715719226" lon="9.2916274572707"><ele>891.5</ele><time>2026-03-28T10:36:29.999Z</time></trkpt><trkpt lat="40.6763020717866" lon="9.29159598586635"><ele>892.6666666666666</ele><time>2026-03-28T10:36:30.999Z</time></trkpt><trkpt lat="40.67637316543111" lon="9.291550226272038"><ele>893.8333333333333</ele><time>2026-03-28T10:36:31.999Z</time></trkpt><trkpt lat="40.67643771683463" lon="9.291512448056482"><ele>895.0</ele><time>2026-03-28T10:36:32.999Z</time></trkpt><trkpt lat="40.676505517563236" lon="9.29145593903671"><ele>894.4999999999999</ele><time>2026-03-28T10:36:33.999Z</time></trkpt><trkpt lat="40.67659499405421" lon="9.291409425809295"><ele>894.0</ele><time>2026-03-28T10:36:34.999Z</time></trkpt><trkpt lat="40.67668770950706" lon="9.291360862302565"><ele>893.5</ele><time>2026-03-28T10:36:35.999Z</time></trkpt><trkpt lat="40.676771435231714" lon="9.29132515236146"><ele>893.0</ele><time>2026-03-28T10:36:36.999Z</time></trkpt><trkpt lat="40.67684289428364" lon="9.291298941922562"><ele>892.4999999999999</ele><time>2026-03-28T10:36:37.999Z</time></trkpt><trkpt lat="40.676928230739755" lon="9.291301209031953"><ele>892.0</ele><time>2026-03-28T10:36:38.999Z</time></trkpt><trkpt lat="40.67701495259948" lon="9.291330197583056"><ele>892.0</ele><time>2026-03-28T10:36:39.999Z</time></trkpt><trkpt lat="40.67709434834606" lon="9.29134041996499"><ele>892.0</ele><time>2026-03-28T10:36:40.999Z</time></trkpt><trkpt lat="40.67716871544656" lon="9.291330842824708"><ele>892.0</ele><time>2026-03-28T10:36:41.999Z</time></trkpt><trkpt lat="40.67723874933698" lon="9.29132160421505"><ele>892.0</ele><time>2026-03-28T10:36:42.999Z</time></trkpt><trkpt lat="40.67735426160806" lon="9.291277567470893"><ele>892.0</ele><time>2026-03-28T10:36:44.999Z</time></trkpt><trkpt lat="40.67746018693903" lon="9.29121400662925"><ele>892.0</ele><time>2026-03-28T10:36:46.999Z</time></trkpt><trkpt lat="40.677552723211505" lon="9.291179305013868"><ele>892.0</ele><time>2026-03-28T10:36:47.999Z</time></trkpt><trkpt lat="40.677679740038414" lon="9.291132439567464"><ele>892.0</ele><time>2026-03-28T10:36:48.999Z</time></trkpt><trkpt lat="40.677818469625926" lon="9.29106479757928"><ele>892.0</ele><time>2026-03-28T10:36:49.999Z</time></trkpt><trkpt lat="40.67795752513526" lon="9.290987953452596"><ele>893.0</ele><time>2026-03-28T10:36:50.999Z</time></trkpt><trkpt lat="40.678070386848724" lon="9.290899119656066"><ele>894.0</ele><time>2026-03-28T10:36:51.999Z</time></trkpt><trkpt lat="40.678195506128475" lon="9.290843925388753"><ele>895.0</ele><time>2026-03-28T10:36:52.999Z</time></trkpt><trkpt lat="40.678305256736905" lon="9.290785883842608"><ele>896.0</ele><time>2026-03-28T10:36:53.999Z</time></trkpt><trkpt lat="40.678437444481176" lon="9.290760025428579"><ele>896.0</ele><time>2026-03-28T10:36:54.999Z</time></trkpt><trkpt lat="40.67859540318555" lon="9.290746901991104"><ele>896.0</ele><time>2026-03-28T10:36:55.999Z</time></trkpt><trkpt lat="40.67874765612413" lon="9.290742960472805"><ele>896.0</ele><time>2026-03-28T10:36:56.999Z</time></trkpt><trkpt lat="40.67887372854356" lon="9.290752685893429"><ele>896.0</ele><time>2026-03-28T10:36:57.999Z</time></trkpt><trkpt lat="40.679009922958" lon="9.290778911596119"><ele>895.6666666666667</ele><time>2026-03-28T10:36:58.999Z</time></trkpt><trkpt lat="40.67917999376728" lon="9.290815272288139"><ele>895.3333333333333</ele><time>2026-03-28T10:36:59.999Z</time></trkpt><trkpt lat="40.67935901389644" lon="9.290850789680258"><ele>895.0</ele><time>2026-03-28T10:37:00.999Z</time></trkpt><trkpt lat="40.67951732722108" lon="9.290879762599696"><ele>895.6666666666666</ele><time>2026-03-28T10:37:01.999Z</time></trkpt><trkpt lat="40.679672940408004" lon="9.290915221821207"><ele>896.3333333333333</ele><time>2026-03-28T10:37:02.999Z</time></trkpt><trkpt lat="40.67983194811556" lon="9.290965897104744"><ele>897.0</ele><time>2026-03-28T10:37:03.999Z</time></trkpt><trkpt lat="40.67998598594339" lon="9.291027382915598"><ele>897.0</ele><time>2026-03-28T10:37:04.999Z</time></trkpt><trkpt lat="40.6801518627183" lon="9.291117496920307"><ele>897.0</ele><time>2026-03-28T10:37:05.999Z</time></trkpt><trkpt lat="40.68032744435999" lon="9.291241050138124"><ele>897.0</ele><time>2026-03-28T10:37:06.999Z</time></trkpt><trkpt lat="40.68048301870397" lon="9.29137845322495"><ele>899.75</ele><time>2026-03-28T10:37:07.999Z</time></trkpt><trkpt lat="40.6806123470483" lon="9.291489553493303"><ele>902.5</ele><time>2026-03-28T10:37:08.999Z</time></trkpt><trkpt lat="40.68072189502537" lon="9.291574204496046"><ele>905.25</ele><time>2026-03-28T10:37:10Z</time></trkpt><trkpt lat="40.68083762781913" lon="9.291635528304441"><ele>908.0</ele><time>2026-03-28T10:37:11Z</time></trkpt><trkpt lat="40.68096452624778" lon="9.291676864450515"><ele>908.0</ele><time>2026-03-28T10:37:12Z</time></trkpt><trkpt lat="40.68107048986177" lon="9.291700339033271"><ele>908.0</ele><time>2026-03-28T10:37:13Z</time></trkpt><trkpt lat="40.68117809523643" lon="9.291716379363004"><ele>908.0</ele><time>2026-03-28T10:37:14Z</time></trkpt><trkpt lat="40.68130772947871" lon="9.29173506998346"><ele>908.0</ele><time>2026-03-28T10:37:15Z</time></trkpt><trkpt lat="40.68143367299226" lon="9.291773285929178"><ele>908.0</ele><time>2026-03-28T10:37:16Z</time></trkpt><trkpt lat="40.68154604675015" lon="9.29180933211242"><ele>908.0</ele><time>2026-03-28T10:37:17Z</time></trkpt><trkpt lat="40.681645688292406" lon="9.291836035637733"><ele>908.0</ele><time>2026-03-28T10:37:18Z</time></trkpt><trkpt lat="40.68174707739794" lon="9.291851792503854"><ele>908.0</ele><time>2026-03-28T10:37:19Z</time></trkpt><trkpt lat="40.681848134482756" lon="9.291872250539637"><ele>908.0</ele><time>2026-03-28T10:37:20Z</time></trkpt><trkpt lat="40.68195629017002" lon="9.291893655807689"><ele>908.75</ele><time>2026-03-28T10:37:21Z</time></trkpt><trkpt lat="40.68207093252189" lon="9.29189313637798"><ele>909.5</ele><time>2026-03-28T10:37:22Z</time></trkpt><trkpt lat="40.682181135974574" lon="9.291879104587958"><ele>910.25</ele><time>2026-03-28T10:37:23Z</time></trkpt><trkpt lat="40.682308474102314" lon="9.291863076388495"><ele>911.0</ele><time>2026-03-28T10:37:24Z</time></trkpt><trkpt lat="40.6824402286359" lon="9.291832807614428"><ele>911.0</ele><time>2026-03-28T10:37:25Z</time></trkpt><trkpt lat="40.68256858041602" lon="9.291839463636103"><ele>910.9999999999999</ele><time>2026-03-28T10:37:26Z</time></trkpt><trkpt lat="40.68267980629824" lon="9.291821096542861"><ele>910.9999999999999</ele><time>2026-03-28T10:37:27Z</time></trkpt><trkpt lat="40.68276831403929" lon="9.291821814266262"><ele>911.0</ele><time>2026-03-28T10:37:28Z</time></trkpt><trkpt lat="40.682853790367304" lon="9.29180875943686"><ele>911.0</ele><time>2026-03-28T10:37:29Z</time></trkpt><trkpt lat="40.68294663040709" lon="9.291802264520678"><ele>912.8333333333334</ele><time>2026-03-28T10:37:30Z</time></trkpt><trkpt lat="40.68302698244057" lon="9.291794199548804"><ele>914.6666666666667</ele><time>2026-03-28T10:37:31Z</time></trkpt><trkpt lat="40.68314383880134" lon="9.291802917820354"><ele>916.5</ele><time>2026-03-28T10:37:33Z</time></trkpt><trkpt lat="40.68324267931341" lon="9.291819392263124"><ele>918.3333333333333</ele><time>2026-03-28T10:37:35Z</time></trkpt><trkpt lat="40.68331273199067" lon="9.29181557097437"><ele>920.1666666666666</ele><time>2026-03-28T10:37:36Z</time></trkpt><trkpt lat="40.68338819742599" lon="9.291851022575345"><ele>922.0</ele><time>2026-03-28T10:37:37Z</time></trkpt><trkpt lat="40.683492006489715" lon="9.29185455618765"><ele>925.25</ele><time>2026-03-28T10:37:38Z</time></trkpt><trkpt lat="40.68361257205692" lon="9.291900152492877"><ele>928.5</ele><time>2026-03-28T10:37:39Z</time></trkpt><trkpt lat="40.68374345002951" lon="9.291970300523277"><ele>931.75</ele><time>2026-03-28T10:37:40Z</time></trkpt><trkpt lat="40.68386656070629" lon="9.292016957481925"><ele>935.0</ele><time>2026-03-28T10:37:41Z</time></trkpt><trkpt lat="40.68397237005155" lon="9.292063676946476"><ele>935.0</ele><time>2026-03-28T10:37:42Z</time></trkpt><trkpt lat="40.68410922325631" lon="9.292082296592511"><ele>935.0</ele><time>2026-03-28T10:37:43Z</time></trkpt><trkpt lat="40.68425097070138" lon="9.292084490007172"><ele>935.0</ele><time>2026-03-28T10:37:44Z</time></trkpt><trkpt lat="40.684402335076534" lon="9.292088139061832"><ele>935.0</ele><time>2026-03-28T10:37:45Z</time></trkpt><trkpt lat="40.68456885588963" lon="9.292073800316171"><ele>936.75</ele><time>2026-03-28T10:37:46Z</time></trkpt><trkpt lat="40.68473630865232" lon="9.292083420465028"><ele>938.5</ele><time>2026-03-28T10:37:47Z</time></trkpt><trkpt lat="40.684882809299964" lon="9.292099633645817"><ele>940.25</ele><time>2026-03-28T10:37:48Z</time></trkpt><trkpt lat="40.685014361046214" lon="9.292106635338767"><ele>942.0</ele><time>2026-03-28T10:37:49Z</time></trkpt><trkpt lat="40.68512821193438" lon="9.292095618410285"><ele>942.0</ele><time>2026-03-28T10:37:50Z</time></trkpt><trkpt lat="40.68525390507183" lon="9.292050450660577"><ele>942.0</ele><time>2026-03-28T10:37:51Z</time></trkpt><trkpt lat="40.68538780325109" lon="9.292019510178529"><ele>942.0</ele><time>2026-03-28T10:37:52Z</time></trkpt><trkpt lat="40.68552644384846" lon="9.291975869961677"><ele>942.0</ele><time>2026-03-28T10:37:53Z</time></trkpt><trkpt lat="40.685657841049654" lon="9.291912654106179"><ele>942.0</ele><time>2026-03-28T10:37:54Z</time></trkpt><trkpt lat="40.6857854441338" lon="9.29185582763298"><ele>942.0</ele><time>2026-03-28T10:37:55Z</time></trkpt><trkpt lat="40.68589843130189" lon="9.291809038322128"><ele>942.0</ele><time>2026-03-28T10:37:55.999Z</time></trkpt><trkpt lat="40.685999122826" lon="9.291744735479837"><ele>942.0</ele><time>2026-03-28T10:37:56.999Z</time></trkpt><trkpt lat="40.6860934433986" lon="9.29170508514753"><ele>941.4000000000001</ele><time>2026-03-28T10:37:57.999Z</time></trkpt><trkpt lat="40.68618948659979" lon="9.291658139437537"><ele>940.8000000000001</ele><time>2026-03-28T10:37:58.999Z</time></trkpt><trkpt lat="40.68629331094261" lon="9.29161250429679"><ele>940.2</ele><time>2026-03-28T10:37:59.999Z</time></trkpt><trkpt lat="40.68638265299517" lon="9.291563524082909"><ele>939.6</ele><time>2026-03-28T10:38:00.999Z</time></trkpt><trkpt lat="40.68645928688229" lon="9.291481739008633"><ele>939.0</ele><time>2026-03-28T10:38:01.999Z</time></trkpt><trkpt lat="40.68652670866677" lon="9.29137873332963"><ele>940.75</ele><time>2026-03-28T10:38:02.999Z</time></trkpt><trkpt lat="40.68658908422532" lon="9.291240643638286"><ele>942.5</ele><time>2026-03-28T10:38:03.999Z</time></trkpt><trkpt lat="40.6866465428104" lon="9.291078173336107"><ele>944.25</ele><time>2026-03-28T10:38:04.999Z</time></trkpt><trkpt lat="40.686687350344904" lon="9.290904973854296"><ele>946.0</ele><time>2026-03-28T10:38:05.999Z</time></trkpt><trkpt lat="40.68672769152863" lon="9.290719616863042"><ele>946.25</ele><time>2026-03-28T10:38:06.999Z</time></trkpt><trkpt lat="40.68674001396787" lon="9.290540936296685"><ele>946.5</ele><time>2026-03-28T10:38:07.999Z</time></trkpt><trkpt lat="40.68672916117193" lon="9.29035795550419"><ele>946.75</ele><time>2026-03-28T10:38:08.999Z</time></trkpt><trkpt lat="40.686713283798795" lon="9.290186481086158"><ele>947.0</ele><time>2026-03-28T10:38:09.999Z</time></trkpt><trkpt lat="40.6866954556504" lon="9.290004162883104"><ele>947.0</ele><time>2026-03-28T10:38:10.999Z</time></trkpt><trkpt lat="40.68667442976849" lon="9.289810504195886"><ele>947.0</ele><time>2026-03-28T10:38:11.999Z</time></trkpt><trkpt lat="40.68666813234043" lon="9.289616495340061"><ele>947.0</ele><time>2026-03-28T10:38:12.999Z</time></trkpt><trkpt lat="40.6866826749847" lon="9.289433618280839"><ele>947.0</ele><time>2026-03-28T10:38:13.999Z</time></trkpt><trkpt lat="40.686700342027144" lon="9.289249900871354"><ele>947.25</ele><time>2026-03-28T10:38:14.999Z</time></trkpt><trkpt lat="40.68672261379921" lon="9.289050262236435"><ele>947.5</ele><time>2026-03-28T10:38:15.999Z</time></trkpt><trkpt lat="40.68675739293115" lon="9.288870274487897"><ele>947.75</ele><time>2026-03-28T10:38:16.999Z</time></trkpt><trkpt lat="40.68681243773869" lon="9.288690445973979"><ele>948.0</ele><time>2026-03-28T10:38:17.999Z</time></trkpt><trkpt lat="40.686884958362405" lon="9.28848488835566"><ele>948.6666666666667</ele><time>2026-03-28T10:38:18.999Z</time></trkpt><trkpt lat="40.68698476326948" lon="9.288262774507286"><ele>949.3333333333334</ele><time>2026-03-28T10:38:19.999Z</time></trkpt><trkpt lat="40.68707405582438" lon="9.288062794438932"><ele>950.0</ele><time>2026-03-28T10:38:20.999Z</time></trkpt><trkpt lat="40.68714543786818" lon="9.287879965533772"><ele>950.0</ele><time>2026-03-28T10:38:21.999Z</time></trkpt><trkpt lat="40.68719923851679" lon="9.287708877367423"><ele>950.0</ele><time>2026-03-28T10:38:22.999Z</time></trkpt><trkpt lat="40.68725951385702" lon="9.287565364770439"><ele>950.0</ele><time>2026-03-28T10:38:23.999Z</time></trkpt><trkpt lat="40.68731300095928" lon="9.287444567037456"><ele>950.0</ele><time>2026-03-28T10:38:24.999Z</time></trkpt><trkpt lat="40.68740292366883" lon="9.287362558020863"><ele>950.0</ele><time>2026-03-28T10:38:25.999Z</time></trkpt><trkpt lat="40.68749533668314" lon="9.287323894990504"><ele>950.0</ele><time>2026-03-28T10:38:26.999Z</time></trkpt><trkpt lat="40.68758557941271" lon="9.287333174831367"><ele>950.0</ele><time>2026-03-28T10:38:27.999Z</time></trkpt><trkpt lat="40.687679320845476" lon="9.287305970982997"><ele>950.0</ele><time>2026-03-28T10:38:28.999Z</time></trkpt><trkpt lat="40.68777833676147" lon="9.287282323149002"><ele>950.0</ele><time>2026-03-28T10:38:29.999Z</time></trkpt><trkpt lat="40.687864906248706" lon="9.287267645322295"><ele>950.3333333333334</ele><time>2026-03-28T10:38:30.999Z</time></trkpt><trkpt lat="40.688003919156635" lon="9.287490933516837"><ele>950.6666666666667</ele><time>2026-03-28T10:38:31.999Z</time></trkpt><trkpt lat="40.68813956401673" lon="9.287459234873955"><ele>951.0</ele><time>2026-03-28T10:38:32.999Z</time></trkpt><trkpt lat="40.688274826935945" lon="9.287447699490837"><ele>951.0</ele><time>2026-03-28T10:38:33.999Z</time></trkpt><trkpt lat="40.688388202568696" lon="9.287457794220956"><ele>950.9999999999999</ele><time>2026-03-28T10:38:34.999Z</time></trkpt><trkpt lat="40.688491945089915" lon="9.287471866700477"><ele>950.9999999999999</ele><time>2026-03-28T10:38:35.999Z</time></trkpt><trkpt lat="40.68858767464779" lon="9.287501111747252"><ele>951.0</ele><time>2026-03-28T10:38:36.999Z</time></trkpt><trkpt lat="40.68868736776639" lon="9.287563759045188"><ele>951.0</ele><time>2026-03-28T10:38:37.999Z</time></trkpt><trkpt lat="40.688793077327674" lon="9.287664363833862"><ele>951.0</ele><time>2026-03-28T10:38:38.999Z</time></trkpt><trkpt lat="40.688901732834516" lon="9.287815349199924"><ele>951.0</ele><time>2026-03-28T10:38:39.999Z</time></trkpt><trkpt lat="40.689023494162946" lon="9.288000852325085"><ele>951.0</ele><time>2026-03-28T10:38:40.999Z</time></trkpt><trkpt lat="40.68911987070195" lon="9.288166676560536"><ele>951.0</ele><time>2026-03-28T10:38:41.999Z</time></trkpt><trkpt lat="40.68918020749678" lon="9.288321116093838"><ele>951.0</ele><time>2026-03-28T10:38:42.999Z</time></trkpt><trkpt lat="40.689218355521696" lon="9.288495135368255"><ele>951.0</ele><time>2026-03-28T10:38:43.999Z</time></trkpt><trkpt lat="40.689255157765054" lon="9.288648860907692"><ele>951.0</ele><time>2026-03-28T10:38:44.999Z</time></trkpt><trkpt lat="40.689320327451256" lon="9.288764184131214"><ele>951.0</ele><time>2026-03-28T10:38:45.999Z</time></trkpt><trkpt lat="40.68941723134356" lon="9.288866827293882"><ele>951.0</ele><time>2026-03-28T10:38:46.999Z</time></trkpt><trkpt lat="40.689548648883644" lon="9.288963861651599"><ele>951.0</ele><time>2026-03-28T10:38:47.999Z</time></trkpt><trkpt lat="40.68971071135989" lon="9.289076947081583"><ele>953.3333333333333</ele><time>2026-03-28T10:38:48.999Z</time></trkpt><trkpt lat="40.689865118039485" lon="9.28920341788412"><ele>955.6666666666666</ele><time>2026-03-28T10:38:49.999Z</time></trkpt><trkpt lat="40.69001213817377" lon="9.289354897177592"><ele>958.0</ele><time>2026-03-28T10:38:50.999Z</time></trkpt><trkpt lat="40.69014580307782" lon="9.289507846909363"><ele>960.0</ele><time>2026-03-28T10:38:51.999Z</time></trkpt><trkpt lat="40.69029393653329" lon="9.289670655583283"><ele>962.0</ele><time>2026-03-28T10:38:52.999Z</time></trkpt><trkpt lat="40.69045159475268" lon="9.289862574938773"><ele>964.0</ele><time>2026-03-28T10:38:53.999Z</time></trkpt><trkpt lat="40.69058741762454" lon="9.290070076647043"><ele>966.0</ele><time>2026-03-28T10:38:54.999Z</time></trkpt><trkpt lat="40.690739074655326" lon="9.290303164219752"><ele>968.0</ele><time>2026-03-28T10:38:55.999Z</time></trkpt><trkpt lat="40.69089457455945" lon="9.29054155726544"><ele>971.3333333333334</ele><time>2026-03-28T10:38:56.999Z</time></trkpt><trkpt lat="40.69104476259181" lon="9.29075691204171"><ele>974.6666666666667</ele><time>2026-03-28T10:38:57.999Z</time></trkpt><trkpt lat="40.69117168139284" lon="9.290920585294552"><ele>978.0</ele><time>2026-03-28T10:38:58.999Z</time></trkpt><trkpt lat="40.691283543418564" lon="9.291057057733624"><ele>979.0</ele><time>2026-03-28T10:38:59.999Z</time></trkpt><trkpt lat="40.691378692692" lon="9.291178019476932"><ele>980.0</ele><time>2026-03-28T10:39:00.999Z</time></trkpt><trkpt lat="40.69145205203406" lon="9.291297833342533"><ele>981.0</ele><time>2026-03-28T10:39:01.999Z</time></trkpt><trkpt lat="40.69150719597197" lon="9.291438022533077"><ele>982.0</ele><time>2026-03-28T10:39:02.999Z</time></trkpt><trkpt lat="40.69157012456979" lon="9.291621389269658"><ele>982.75</ele><time>2026-03-28T10:39:03.999Z</time></trkpt><trkpt lat="40.69164116723676" lon="9.29177040487192"><ele>983.5</ele><time>2026-03-28T10:39:04.999Z</time></trkpt><trkpt lat="40.69173780027313" lon="9.291901786315814"><ele>984.25</ele><time>2026-03-28T10:39:05.999Z</time></trkpt><trkpt lat="40.69186116976995" lon="9.292011582622434"><ele>985.0</ele><time>2026-03-28T10:39:06.999Z</time></trkpt><trkpt lat="40.691996637099265" lon="9.292117040183205"><ele>986.0</ele><time>2026-03-28T10:39:07.999Z</time></trkpt><trkpt lat="40.69210374244835" lon="9.29221287019746"><ele>987.0</ele><time>2026-03-28T10:39:08.999Z</time></trkpt><trkpt lat="40.69219292892856" lon="9.292330759416137"><ele>988.0</ele><time>2026-03-28T10:39:09.999Z</time></trkpt><trkpt lat="40.692264778310296" lon="9.292484252791239"><ele>989.0</ele><time>2026-03-28T10:39:10.999Z</time></trkpt><trkpt lat="40.692320008999864" lon="9.292660447535825"><ele>989.0</ele><time>2026-03-28T10:39:11.999Z</time></trkpt><trkpt lat="40.692368429752875" lon="9.292874742532934"><ele>989.0</ele><time>2026-03-28T10:39:12.999Z</time></trkpt><trkpt lat="40.692393422601974" lon="9.293070339155323"><ele>989.0</ele><time>2026-03-28T10:39:13.999Z</time></trkpt><trkpt lat="40.692385162638516" lon="9.293202615914257"><ele>989.0</ele><time>2026-03-28T10:39:14.999Z</time></trkpt><trkpt lat="40.69232815901848" lon="9.29332104955384"><ele>990.0</ele><time>2026-03-28T10:39:16Z</time></trkpt><trkpt lat="40.692245462701884" lon="9.293457848112176"><ele>991.0</ele><time>2026-03-28T10:39:17Z</time></trkpt><trkpt lat="40.69214799973274" lon="9.293606348325955"><ele>992.0</ele><time>2026-03-28T10:39:18Z</time></trkpt><trkpt lat="40.69205342060183" lon="9.293724982093698"><ele>993.0</ele><time>2026-03-28T10:39:19Z</time></trkpt><trkpt lat="40.6918824434261" lon="9.293861489522344"><ele>994.8</ele><time>2026-03-28T10:39:20Z</time></trkpt><trkpt lat="40.69179310500483" lon="9.293997347910503"><ele>996.5999999999999</ele><time>2026-03-28T10:39:21Z</time></trkpt><trkpt lat="40.69172544777131" lon="9.294059454121168"><ele>998.4000000000001</ele><time>2026-03-28T10:39:22Z</time></trkpt><trkpt lat="40.69172752726598" lon="9.2942043814338"><ele>1000.2</ele><time>2026-03-28T10:39:24Z</time></trkpt><trkpt lat="40.69179090155747" lon="9.294334178075397"><ele>1002.0</ele><time>2026-03-28T10:39:26Z</time></trkpt><trkpt lat="40.69182924954866" lon="9.294403647610766"><ele>1002.0</ele><time>2026-03-28T10:39:27Z</time></trkpt><trkpt lat="40.691895933016085" lon="9.2944980609291"><ele>1002.0</ele><time>2026-03-28T10:39:28Z</time></trkpt><trkpt lat="40.691982382083104" lon="9.29459658731984"><ele>1002.0</ele><time>2026-03-28T10:39:29Z</time></trkpt><trkpt lat="40.69211269062379" lon="9.294703369994727"><ele>1002.0</ele><time>2026-03-28T10:39:30Z</time></trkpt><trkpt lat="40.69225319233432" lon="9.2947501843388"><ele>1003.6666666666667</ele><time>2026-03-28T10:39:31Z</time></trkpt><trkpt lat="40.69239172892618" lon="9.29477920993163"><ele>1005.3333333333334</ele><time>2026-03-28T10:39:32Z</time></trkpt><trkpt lat="40.692576501768855" lon="9.294809903118937"><ele>1007.0</ele><time>2026-03-28T10:39:33Z</time></trkpt><trkpt lat="40.69278311602818" lon="9.294836797070726"><ele>1007.0</ele><time>2026-03-28T10:39:34Z</time></trkpt><trkpt lat="40.692975585972356" lon="9.294857288031553"><ele>1007.0</ele><time>2026-03-28T10:39:35Z</time></trkpt><trkpt lat="40.693134018304285" lon="9.294885688824523"><ele>1007.0</ele><time>2026-03-28T10:39:36Z</time></trkpt><trkpt lat="40.69327527524727" lon="9.294923921283841"><ele>1007.0</ele><time>2026-03-28T10:39:37Z</time></trkpt><trkpt lat="40.6934024009009" lon="9.294976210301853"><ele>1007.0</ele><time>2026-03-28T10:39:38Z</time></trkpt><trkpt lat="40.69354035797612" lon="9.295065452805934"><ele>1007.0</ele><time>2026-03-28T10:39:39Z</time></trkpt><trkpt lat="40.69370355326141" lon="9.295170654196319"><ele>1006.6666666666667</ele><time>2026-03-28T10:39:40Z</time></trkpt><trkpt lat="40.69385890132199" lon="9.295238149946732"><ele>1006.3333333333333</ele><time>2026-03-28T10:39:41Z</time></trkpt><trkpt lat="40.694010875129145" lon="9.295324455284682"><ele>1006.0</ele><time>2026-03-28T10:39:42Z</time></trkpt><trkpt lat="40.69417457530128" lon="9.295403732215455"><ele>1006.0</ele><time>2026-03-28T10:39:43Z</time></trkpt><trkpt lat="40.694305285045" lon="9.29546770066706"><ele>1005.9999999999999</ele><time>2026-03-28T10:39:44Z</time></trkpt><trkpt lat="40.69440118369606" lon="9.295511279909945"><ele>1005.9999999999999</ele><time>2026-03-28T10:39:45Z</time></trkpt><trkpt lat="40.69448299245843" lon="9.295521422759876"><ele>1006.0</ele><time>2026-03-28T10:39:46Z</time></trkpt><trkpt lat="40.6945837871771" lon="9.295586422298062"><ele>1006.0</ele><time>2026-03-28T10:39:48Z</time></trkpt><trkpt lat="40.69467069352894" lon="9.295623938018105"><ele>1005.75</ele><time>2026-03-28T10:39:50Z</time></trkpt><trkpt lat="40.694760637813644" lon="9.29565924455923"><ele>1005.5</ele><time>2026-03-28T10:39:53Z</time></trkpt><trkpt lat="40.6948855612733" lon="9.295723435866856"><ele>1005.25</ele><time>2026-03-28T10:39:55Z</time></trkpt><trkpt lat="40.694997303687195" lon="9.295740150171365"><ele>1005.0</ele><time>2026-03-28T10:39:56Z</time></trkpt><trkpt lat="40.69512170504758" lon="9.295764326145312"><ele>1005.0</ele><time>2026-03-28T10:39:57Z</time></trkpt><trkpt lat="40.6952460186384" lon="9.295779632035302"><ele>1005.0</ele><time>2026-03-28T10:39:58Z</time></trkpt><trkpt lat="40.69539483509676" lon="9.295817323135365"><ele>1005.0</ele><time>2026-03-28T10:39:59Z</time></trkpt><trkpt lat="40.69553456634536" lon="9.295837983929674"><ele>1005.0</ele><time>2026-03-28T10:40:00Z</time></trkpt><trkpt lat="40.69566416414057" lon="9.295873325800558"><ele>1003.5</ele><time>2026-03-28T10:40:00.999Z</time></trkpt><trkpt lat="40.69578435879142" lon="9.29591958983686"><ele>1002.0</ele><time>2026-03-28T10:40:01.999Z</time></trkpt><trkpt lat="40.69590681369992" lon="9.295956910252661"><ele>1000.5</ele><time>2026-03-28T10:40:02.999Z</time></trkpt><trkpt lat="40.69603739201756" lon="9.295980106465889"><ele>999.0</ele><time>2026-03-28T10:40:03.999Z</time></trkpt><trkpt lat="40.696172061851996" lon="9.296006285491483"><ele>997.0</ele><time>2026-03-28T10:40:04.999Z</time></trkpt><trkpt lat="40.69630476527758" lon="9.296029023212236"><ele>995.0</ele><time>2026-03-28T10:40:05.999Z</time></trkpt><trkpt lat="40.69643293724391" lon="9.296025478072"><ele>993.0</ele><time>2026-03-28T10:40:06.999Z</time></trkpt><trkpt lat="40.69655793295362" lon="9.296008746464809"><ele>991.0</ele><time>2026-03-28T10:40:07.999Z</time></trkpt><trkpt lat="40.696678455828824" lon="9.296001581045909"><ele>991.0</ele><time>2026-03-28T10:40:08.999Z</time></trkpt><trkpt lat="40.69677608307092" lon="9.296015847956896"><ele>990.9999999999999</ele><time>2026-03-28T10:40:09.999Z</time></trkpt><trkpt lat="40.696841326043476" lon="9.296127247203696"><ele>990.9999999999999</ele><time>2026-03-28T10:40:10.999Z</time></trkpt><trkpt lat="40.696930093643175" lon="9.296222453322994"><ele>991.0</ele><time>2026-03-28T10:40:11.999Z</time></trkpt><trkpt lat="40.697020429356975" lon="9.296277506827245"><ele>991.0</ele><time>2026-03-28T10:40:12.999Z</time></trkpt><trkpt lat="40.6971059653315" lon="9.296296724006218"><ele>987.8</ele><time>2026-03-28T10:40:13.999Z</time></trkpt><trkpt lat="40.697213208397365" lon="9.296259085764753"><ele>984.5999999999999</ele><time>2026-03-28T10:40:14.999Z</time></trkpt><trkpt lat="40.69732245918344" lon="9.296256097187047"><ele>981.4</ele><time>2026-03-28T10:40:15.999Z</time></trkpt><trkpt lat="40.697406069357775" lon="9.296227131681054"><ele>978.2</ele><time>2026-03-28T10:40:16.999Z</time></trkpt><trkpt lat="40.697516200509135" lon="9.296159663349478"><ele>975.0</ele><time>2026-03-28T10:40:17.999Z</time></trkpt><trkpt lat="40.69763345756116" lon="9.29607080273228"><ele>975.0</ele><time>2026-03-28T10:40:18.999Z</time></trkpt><trkpt lat="40.69774370819118" lon="9.296002331396188"><ele>975.0</ele><time>2026-03-28T10:40:19.999Z</time></trkpt><trkpt lat="40.69782543282872" lon="9.295920642391893"><ele>975.0</ele><time>2026-03-28T10:40:20.999Z</time></trkpt><trkpt lat="40.69789887425902" lon="9.295778835638213"><ele>975.0</ele><time>2026-03-28T10:40:21.999Z</time></trkpt><trkpt lat="40.69797728663357" lon="9.29562539110654"><ele>970.0</ele><time>2026-03-28T10:40:22.999Z</time></trkpt><trkpt lat="40.69805832354813" lon="9.295497063053222"><ele>965.0</ele><time>2026-03-28T10:40:23.999Z</time></trkpt><trkpt lat="40.69813927099342" lon="9.295408907822818"><ele>960.0</ele><time>2026-03-28T10:40:24.999Z</time></trkpt><trkpt lat="40.698216385467695" lon="9.29537540646332"><ele>955.0</ele><time>2026-03-28T10:40:25.999Z</time></trkpt><trkpt lat="40.69828715619515" lon="9.295379845645483"><ele>950.0</ele><time>2026-03-28T10:40:26.999Z</time></trkpt><trkpt lat="40.698371087847796" lon="9.29543285814662"><ele>950.0</ele><time>2026-03-28T10:40:27.999Z</time></trkpt><trkpt lat="40.698488826000165" lon="9.295500945183997"><ele>950.0</ele><time>2026-03-28T10:40:28.999Z</time></trkpt><trkpt lat="40.698620854011054" lon="9.295513883185166"><ele>950.0</ele><time>2026-03-28T10:40:29.999Z</time></trkpt><trkpt lat="40.698746850288224" lon="9.295521912968573"><ele>950.0</ele><time>2026-03-28T10:40:30.999Z</time></trkpt><trkpt lat="40.69889036260717" lon="9.295577221481809"><ele>950.6666666666667</ele><time>2026-03-28T10:40:31.999Z</time></trkpt><trkpt lat="40.69902500725144" lon="9.295663731032754"><ele>951.3333333333333</ele><time>2026-03-28T10:40:32.999Z</time></trkpt><trkpt lat="40.69916708539623" lon="9.295770941475368"><ele>952.0</ele><time>2026-03-28T10:40:33.999Z</time></trkpt><trkpt lat="40.69931083699835" lon="9.295858309418374"><ele>950.3333333333333</ele><time>2026-03-28T10:40:34.999Z</time></trkpt><trkpt lat="40.69944406794802" lon="9.29592256045206"><ele>948.6666666666667</ele><time>2026-03-28T10:40:35.999Z</time></trkpt><trkpt lat="40.69957776563938" lon="9.296012650340192"><ele>947.0</ele><time>2026-03-28T10:40:36.999Z</time></trkpt><trkpt lat="40.69971292531504" lon="9.296126948867437"><ele>947.0</ele><time>2026-03-28T10:40:37.999Z</time></trkpt><trkpt lat="40.699825851771514" lon="9.296223950280355"><ele>947.0</ele><time>2026-03-28T10:40:38.999Z</time></trkpt><trkpt lat="40.69990789460582" lon="9.296307751316414"><ele>947.0</ele><time>2026-03-28T10:40:39.999Z</time></trkpt><trkpt lat="40.69996803120351" lon="9.29641203940242"><ele>947.0</ele><time>2026-03-28T10:40:40.999Z</time></trkpt><trkpt lat="40.70001955609073" lon="9.29655088505619"><ele>947.1666666666667</ele><time>2026-03-28T10:40:41.999Z</time></trkpt><trkpt lat="40.700070529717394" lon="9.296703361626431"><ele>947.3333333333334</ele><time>2026-03-28T10:40:42.999Z</time></trkpt><trkpt lat="40.700112934018556" lon="9.29681906798082"><ele>947.5</ele><time>2026-03-28T10:40:43.999Z</time></trkpt><trkpt lat="40.700157957390985" lon="9.29689583059946"><ele>947.6666666666667</ele><time>2026-03-28T10:40:44.999Z</time></trkpt><trkpt lat="40.70021776599472" lon="9.29695765773433"><ele>947.8333333333334</ele><time>2026-03-28T10:40:45.999Z</time></trkpt><trkpt lat="40.70028395663762" lon="9.296980258612114"><ele>948.0</ele><time>2026-03-28T10:40:46.999Z</time></trkpt><trkpt lat="40.700385715607666" lon="9.296957422944743"><ele>946.0</ele><time>2026-03-28T10:40:47.999Z</time></trkpt><trkpt lat="40.70052523085946" lon="9.29697466784"><ele>944.0</ele><time>2026-03-28T10:40:48.999Z</time></trkpt><trkpt lat="40.700672009216994" lon="9.296977056597129"><ele>942.0</ele><time>2026-03-28T10:40:49.999Z</time></trkpt><trkpt lat="40.70081847482603" lon="9.296942382509082"><ele>940.0</ele><time>2026-03-28T10:40:50.999Z</time></trkpt><trkpt lat="40.70097343099053" lon="9.296920478170573"><ele>934.3333333333333</ele><time>2026-03-28T10:40:51.999Z</time></trkpt><trkpt lat="40.70113032876959" lon="9.296903220904115"><ele>928.6666666666667</ele><time>2026-03-28T10:40:52.999Z</time></trkpt><trkpt lat="40.7012775613302" lon="9.296889270785549"><ele>923.0</ele><time>2026-03-28T10:40:53.999Z</time></trkpt><trkpt lat="40.70142275371519" lon="9.296876149349268"><ele>923.0</ele><time>2026-03-28T10:40:54.999Z</time></trkpt><trkpt lat="40.70155816385692" lon="9.296863451210072"><ele>923.0</ele><time>2026-03-28T10:40:55.999Z</time></trkpt><trkpt lat="40.70168755845351" lon="9.296835777481014"><ele>923.0</ele><time>2026-03-28T10:40:56.999Z</time></trkpt><trkpt lat="40.701820852529735" lon="9.29678111214906"><ele>923.0</ele><time>2026-03-28T10:40:57.999Z</time></trkpt><trkpt lat="40.70195962138114" lon="9.296745918547103"><ele>919.75</ele><time>2026-03-28T10:40:58.999Z</time></trkpt><trkpt lat="40.702091998256336" lon="9.29671308726608"><ele>916.5</ele><time>2026-03-28T10:40:59.999Z</time></trkpt><trkpt lat="40.70221891135112" lon="9.296664215314848"><ele>913.25</ele><time>2026-03-28T10:41:00.999Z</time></trkpt><trkpt lat="40.70234342671657" lon="9.296589583722156"><ele>910.0</ele><time>2026-03-28T10:41:01.999Z</time></trkpt><trkpt lat="40.70247359973537" lon="9.29649231844544"><ele>909.0</ele><time>2026-03-28T10:41:02.999Z</time></trkpt><trkpt lat="40.702586288439655" lon="9.29641416425378"><ele>908.0</ele><time>2026-03-28T10:41:03.999Z</time></trkpt><trkpt lat="40.70268329401399" lon="9.296353254164014"><ele>907.0</ele><time>2026-03-28T10:41:04.999Z</time></trkpt><trkpt lat="40.702757145420705" lon="9.296275474595275"><ele>906.0</ele><time>2026-03-28T10:41:05.999Z</time></trkpt><trkpt lat="40.702827433691084" lon="9.296154687568166"><ele>905.0</ele><time>2026-03-28T10:41:06.999Z</time></trkpt><trkpt lat="40.702902241137686" lon="9.296001993876637"><ele>903.2</ele><time>2026-03-28T10:41:07.999Z</time></trkpt><trkpt lat="40.70294279206034" lon="9.295836285159394"><ele>901.4</ele><time>2026-03-28T10:41:08.999Z</time></trkpt><trkpt lat="40.70299838872761" lon="9.295704509636117"><ele>899.5999999999999</ele><time>2026-03-28T10:41:09.999Z</time></trkpt><trkpt lat="40.703077558181484" lon="9.295611215063206"><ele>897.8</ele><time>2026-03-28T10:41:10.999Z</time></trkpt><trkpt lat="40.70315475472143" lon="9.295554902388586"><ele>896.0</ele><time>2026-03-28T10:41:11.999Z</time></trkpt><trkpt lat="40.70325493155975" lon="9.295505204036324"><ele>893.5</ele><time>2026-03-28T10:41:12.999Z</time></trkpt><trkpt lat="40.70338901457105" lon="9.295498943268022"><ele>891.0</ele><time>2026-03-28T10:41:13.999Z</time></trkpt><trkpt lat="40.70352129626117" lon="9.295509780593065"><ele>888.5</ele><time>2026-03-28T10:41:14.999Z</time></trkpt><trkpt lat="40.7036678934153" lon="9.29554796359889"><ele>886.0</ele><time>2026-03-28T10:41:15.999Z</time></trkpt><trkpt lat="40.70381609608256" lon="9.295592130485582"><ele>886.0</ele><time>2026-03-28T10:41:16.999Z</time></trkpt><trkpt lat="40.70396145411157" lon="9.295645378843824"><ele>886.0</ele><time>2026-03-28T10:41:17.999Z</time></trkpt><trkpt lat="40.70412447389868" lon="9.295719699267746"><ele>886.0</ele><time>2026-03-28T10:41:18.999Z</time></trkpt><trkpt lat="40.704276584162066" lon="9.295785585342292"><ele>884.6666666666666</ele><time>2026-03-28T10:41:19.999Z</time></trkpt><trkpt lat="40.70442389590078" lon="9.295838466926337"><ele>883.3333333333333</ele><time>2026-03-28T10:41:20.999Z</time></trkpt><trkpt lat="40.7045874839008" lon="9.295892235624917"><ele>882.0</ele><time>2026-03-28T10:41:22Z</time></trkpt><trkpt lat="40.70473896869218" lon="9.295935223616826"><ele>882.0</ele><time>2026-03-28T10:41:23Z</time></trkpt><trkpt lat="40.70487006439243" lon="9.29596026655155"><ele>882.0</ele><time>2026-03-28T10:41:24Z</time></trkpt><trkpt lat="40.70499028752071" lon="9.295977545604208"><ele>882.0</ele><time>2026-03-28T10:41:25Z</time></trkpt><trkpt lat="40.705113293796984" lon="9.296007866026072"><ele>882.0</ele><time>2026-03-28T10:41:26Z</time></trkpt><trkpt lat="40.70525015654166" lon="9.296069015039413"><ele>881.75</ele><time>2026-03-28T10:41:27Z</time></trkpt><trkpt lat="40.705367097736456" lon="9.296140353967136"><ele>881.5</ele><time>2026-03-28T10:41:28Z</time></trkpt><trkpt lat="40.70548268886352" lon="9.296231713123978"><ele>881.25</ele><time>2026-03-28T10:41:29Z</time></trkpt><trkpt lat="40.705597353846365" lon="9.296343878279195"><ele>881.0</ele><time>2026-03-28T10:41:30Z</time></trkpt><trkpt lat="40.7057200371767" lon="9.296419918258241"><ele>881.0</ele><time>2026-03-28T10:41:31Z</time></trkpt><trkpt lat="40.70582466655553" lon="9.296498917769515"><ele>880.9999999999999</ele><time>2026-03-28T10:41:32Z</time></trkpt><trkpt lat="40.705911211567425" lon="9.296551836517079"><ele>880.9999999999999</ele><time>2026-03-28T10:41:33Z</time></trkpt><trkpt lat="40.70598143346208" lon="9.29658157954847"><ele>881.0</ele><time>2026-03-28T10:41:34Z</time></trkpt><trkpt lat="40.70606661772866" lon="9.296554225524618"><ele>881.0</ele><time>2026-03-28T10:41:35Z</time></trkpt><trkpt lat="40.70615943280747" lon="9.296490143510875"><ele>878.1999999999999</ele><time>2026-03-28T10:41:36Z</time></trkpt><trkpt lat="40.70625335540115" lon="9.296406389266066"><ele>875.3999999999999</ele><time>2026-03-28T10:41:37Z</time></trkpt><trkpt lat="40.70635605652709" lon="9.296356712019646"><ele>872.6</ele><time>2026-03-28T10:41:38Z</time></trkpt><trkpt lat="40.706436859493316" lon="9.29636968791874"><ele>869.8</ele><time>2026-03-28T10:41:39Z</time></trkpt><trkpt lat="40.70651039937977" lon="9.296411292798213"><ele>867.0</ele><time>2026-03-28T10:41:40Z</time></trkpt><trkpt lat="40.70658558823634" lon="9.296484108698781"><ele>867.0</ele><time>2026-03-28T10:41:41Z</time></trkpt><trkpt lat="40.70662782451376" lon="9.296582048454368"><ele>867.0</ele><time>2026-03-28T10:41:42Z</time></trkpt><trkpt lat="40.7066527722168" lon="9.29668445835898"><ele>867.0</ele><time>2026-03-28T10:41:43Z</time></trkpt><trkpt lat="40.70662714944157" lon="9.296776067241014"><ele>867.0</ele><time>2026-03-28T10:41:46Z</time></trkpt><trkpt lat="40.70660500710428" lon="9.29690480411566"><ele>867.0</ele><time>2026-03-28T10:41:51Z</time></trkpt><trkpt lat="40.70659209055111" lon="9.296999390200043"><ele>867.0</ele><time>2026-03-28T10:41:52Z</time></trkpt><trkpt lat="40.70657778978016" lon="9.297135425504466"><ele>866.4000000000001</ele><time>2026-03-28T10:41:53Z</time></trkpt><trkpt lat="40.70658562667588" lon="9.29727040661692"><ele>865.8000000000001</ele><time>2026-03-28T10:41:54Z</time></trkpt><trkpt lat="40.70661461023731" lon="9.297425982859574"><ele>865.2</ele><time>2026-03-28T10:41:55Z</time></trkpt><trkpt lat="40.70664794396805" lon="9.297567505478977"><ele>864.6</ele><time>2026-03-28T10:41:56Z</time></trkpt><trkpt lat="40.70668416228677" lon="9.29769006659233"><ele>864.0</ele><time>2026-03-28T10:41:57Z</time></trkpt><trkpt lat="40.70672059567609" lon="9.29781213079609"><ele>864.0</ele><time>2026-03-28T10:41:58Z</time></trkpt><trkpt lat="40.7067622557471" lon="9.297919988691117"><ele>864.0</ele><time>2026-03-28T10:41:59Z</time></trkpt><trkpt lat="40.70680399702246" lon="9.298018853135423"><ele>864.0</ele><time>2026-03-28T10:42:00Z</time></trkpt><trkpt lat="40.70685052494588" lon="9.298115466737201"><ele>864.0</ele><time>2026-03-28T10:42:01Z</time></trkpt><trkpt lat="40.706914788842205" lon="9.298192876955863"><ele>864.0</ele><time>2026-03-28T10:42:02Z</time></trkpt><trkpt lat="40.70698921780709" lon="9.298234469096338"><ele>864.0</ele><time>2026-03-28T10:42:03Z</time></trkpt><trkpt lat="40.707083456808576" lon="9.298257156205558"><ele>860.0</ele><time>2026-03-28T10:42:04Z</time></trkpt><trkpt lat="40.70719961042414" lon="9.298260467066395"><ele>856.0</ele><time>2026-03-28T10:42:05Z</time></trkpt><trkpt lat="40.70731621731505" lon="9.298249857232863"><ele>852.0</ele><time>2026-03-28T10:42:06Z</time></trkpt><trkpt lat="40.70741885995303" lon="9.298210765837561"><ele>848.0</ele><time>2026-03-28T10:42:07Z</time></trkpt><trkpt lat="40.707516016123066" lon="9.298140889849476"><ele>847.8</ele><time>2026-03-28T10:42:08Z</time></trkpt><trkpt lat="40.707595488517654" lon="9.298061449668323"><ele>847.5999999999999</ele><time>2026-03-28T10:42:09Z</time></trkpt><trkpt lat="40.707677122012285" lon="9.298001875109394"><ele>847.4000000000001</ele><time>2026-03-28T10:42:10Z</time></trkpt><trkpt lat="40.707744476931154" lon="9.297926992271975"><ele>847.2</ele><time>2026-03-28T10:42:11Z</time></trkpt><trkpt lat="40.70782071182277" lon="9.297868129721884"><ele>847.0</ele><time>2026-03-28T10:42:12Z</time></trkpt><trkpt lat="40.70790677796368" lon="9.297832831954837"><ele>843.8</ele><time>2026-03-28T10:42:13Z</time></trkpt><trkpt lat="40.70798739040896" lon="9.297798928962159"><ele>840.6</ele><time>2026-03-28T10:42:13.999Z</time></trkpt><trkpt lat="40.708075038776386" lon="9.297782730446654"><ele>837.4</ele><time>2026-03-28T10:42:14.999Z</time></trkpt><trkpt lat="40.7081659300873" lon="9.297783202760616"><ele>834.1999999999999</ele><time>2026-03-28T10:42:15.999Z</time></trkpt><trkpt lat="40.7082614215799" lon="9.297793541396514"><ele>831.0</ele><time>2026-03-28T10:42:16.999Z</time></trkpt><trkpt lat="40.708358908296994" lon="9.297804208040734"><ele>831.0</ele><time>2026-03-28T10:42:17.999Z</time></trkpt><trkpt lat="40.708457536048" lon="9.297820350558448"><ele>831.0</ele><time>2026-03-28T10:42:18.999Z</time></trkpt><trkpt lat="40.708556589063605" lon="9.297838932316123"><ele>831.0</ele><time>2026-03-28T10:42:19.999Z</time></trkpt><trkpt lat="40.708660536789296" lon="9.29786174023025"><ele>831.0</ele><time>2026-03-28T10:42:20.999Z</time></trkpt><trkpt lat="40.70876839266989" lon="9.29788661745618"><ele>831.0</ele><time>2026-03-28T10:42:21.999Z</time></trkpt><trkpt lat="40.708879836921945" lon="9.297905784283024"><ele>827.5</ele><time>2026-03-28T10:42:22.999Z</time></trkpt><trkpt lat="40.70898826037805" lon="9.297876643624976"><ele>824.0</ele><time>2026-03-28T10:42:23.999Z</time></trkpt><trkpt lat="40.70911589145318" lon="9.297883236982823"><ele>820.5</ele><time>2026-03-28T10:42:24.999Z</time></trkpt><trkpt lat="40.709240169764044" lon="9.2978840826135"><ele>817.0</ele><time>2026-03-28T10:42:25.999Z</time></trkpt><trkpt lat="40.709352712948956" lon="9.29788509346133"><ele>816.4000000000001</ele><time>2026-03-28T10:42:26.999Z</time></trkpt><trkpt lat="40.709450828181645" lon="9.297934391261906"><ele>815.8000000000001</ele><time>2026-03-28T10:42:27.999Z</time></trkpt><trkpt lat="40.70955196912256" lon="9.297974770243048"><ele>815.2</ele><time>2026-03-28T10:42:28.999Z</time></trkpt><trkpt lat="40.709640317674285" lon="9.298012370274934"><ele>814.6</ele><time>2026-03-28T10:42:29.999Z</time></trkpt><trkpt lat="40.70972373071278" lon="9.298057241478627"><ele>814.0</ele><time>2026-03-28T10:42:30.999Z</time></trkpt><trkpt lat="40.709826151169416" lon="9.298134217981103"><ele>813.75</ele><time>2026-03-28T10:42:31.999Z</time></trkpt><trkpt lat="40.70992742837429" lon="9.29822536108246"><ele>813.5</ele><time>2026-03-28T10:42:32.999Z</time></trkpt><trkpt lat="40.71002823045581" lon="9.29832062366147"><ele>813.25</ele><time>2026-03-28T10:42:33.999Z</time></trkpt><trkpt lat="40.71012536342121" lon="9.298430313502656"><ele>813.0</ele><time>2026-03-28T10:42:34.999Z</time></trkpt><trkpt lat="40.71021347475051" lon="9.29854626031673"><ele>812.25</ele><time>2026-03-28T10:42:35.999Z</time></trkpt><trkpt lat="40.71030923611501" lon="9.298642076158432"><ele>811.5</ele><time>2026-03-28T10:42:36.999Z</time></trkpt><trkpt lat="40.71041502730946" lon="9.298716049071317"><ele>810.75</ele><time>2026-03-28T10:42:37.999Z</time></trkpt><trkpt lat="40.710513815139" lon="9.298800432342084"><ele>810.0</ele><time>2026-03-28T10:42:38.999Z</time></trkpt><trkpt lat="40.71061209685803" lon="9.29888482398038"><ele>807.0</ele><time>2026-03-28T10:42:39.999Z</time></trkpt><trkpt lat="40.7106820324471" lon="9.299008467186091"><ele>804.0</ele><time>2026-03-28T10:42:40.999Z</time></trkpt><trkpt lat="40.710763995042704" lon="9.299122396035209"><ele>801.0</ele><time>2026-03-28T10:42:41.999Z</time></trkpt><trkpt lat="40.71084313824232" lon="9.29921750686454"><ele>798.0</ele><time>2026-03-28T10:42:42.999Z</time></trkpt><trkpt lat="40.71090693811386" lon="9.299308202164518"><ele>795.0</ele><time>2026-03-28T10:42:43.999Z</time></trkpt><trkpt lat="40.7109558498148" lon="9.29940011857513"><ele>795.0</ele><time>2026-03-28T10:42:44.999Z</time></trkpt><trkpt lat="40.71097751614504" lon="9.299499621310655"><ele>795.0</ele><time>2026-03-28T10:42:45.999Z</time></trkpt><trkpt lat="40.71096439933592" lon="9.299606513848818"><ele>795.0</ele><time>2026-03-28T10:42:46.999Z</time></trkpt><trkpt lat="40.71093072215945" lon="9.299735795306024"><ele>795.0</ele><time>2026-03-28T10:42:47.999Z</time></trkpt><trkpt lat="40.710879917073164" lon="9.29985239685928"><ele>795.0</ele><time>2026-03-28T10:42:48.999Z</time></trkpt><trkpt lat="40.7108303542592" lon="9.299949083320122"><ele>791.75</ele><time>2026-03-28T10:42:49.999Z</time></trkpt><trkpt lat="40.71076625335949" lon="9.300090103620857"><ele>788.5</ele><time>2026-03-28T10:42:50.999Z</time></trkpt><trkpt lat="40.71067731843745" lon="9.300237552188898"><ele>785.25</ele><time>2026-03-28T10:42:51.999Z</time></trkpt><trkpt lat="40.710590702837486" lon="9.300370209944582"><ele>782.0</ele><time>2026-03-28T10:42:52.999Z</time></trkpt><trkpt lat="40.71050725753361" lon="9.3004975612785"><ele>781.25</ele><time>2026-03-28T10:42:53.999Z</time></trkpt><trkpt lat="40.710429544659775" lon="9.300639460232906"><ele>780.5</ele><time>2026-03-28T10:42:54.999Z</time></trkpt><trkpt lat="40.710355774084896" lon="9.300772584998173"><ele>779.75</ele><time>2026-03-28T10:42:55.999Z</time></trkpt><trkpt lat="40.710271160319316" lon="9.30089602665184"><ele>779.0</ele><time>2026-03-28T10:42:56.999Z</time></trkpt><trkpt lat="40.710200048479166" lon="9.301022704450435"><ele>779.0000000000001</ele><time>2026-03-28T10:42:57.999Z</time></trkpt><trkpt lat="40.71015271320717" lon="9.301141257068773"><ele>779.0</ele><time>2026-03-28T10:42:58.999Z</time></trkpt><trkpt lat="40.710094162081184" lon="9.301229986420811"><ele>779.0</ele><time>2026-03-28T10:42:59.999Z</time></trkpt><trkpt lat="40.71005537389047" lon="9.301301002740862"><ele>779.0</ele><time>2026-03-28T10:43:00.999Z</time></trkpt><trkpt lat="40.71001358118603" lon="9.301400707449751"><ele>779.0000000000001</ele><time>2026-03-28T10:43:02.999Z</time></trkpt><trkpt lat="40.70993589595306" lon="9.301469768489508"><ele>779.0</ele><time>2026-03-28T10:43:05.999Z</time></trkpt><trkpt lat="40.70987778420228" lon="9.301507573439029"><ele>775.25</ele><time>2026-03-28T10:43:06.999Z</time></trkpt><trkpt lat="40.70978501683952" lon="9.301560997699218"><ele>771.5</ele><time>2026-03-28T10:43:07.999Z</time></trkpt><trkpt lat="40.70966530993961" lon="9.301616902338035"><ele>767.75</ele><time>2026-03-28T10:43:08.999Z</time></trkpt><trkpt lat="40.7095305701847" lon="9.301670017355367"><ele>764.0</ele><time>2026-03-28T10:43:09.999Z</time></trkpt><trkpt lat="40.709412609682936" lon="9.301704118342384"><ele>764.5</ele><time>2026-03-28T10:43:10.999Z</time></trkpt><trkpt lat="40.70929962388728" lon="9.301721346216004"><ele>765.0</ele><time>2026-03-28T10:43:11.999Z</time></trkpt><trkpt lat="40.70918905024483" lon="9.301727173212553"><ele>765.5</ele><time>2026-03-28T10:43:12.999Z</time></trkpt><trkpt lat="40.70906548032411" lon="9.30170891299497"><ele>766.0</ele><time>2026-03-28T10:43:13.999Z</time></trkpt><trkpt lat="40.70894313619461" lon="9.301675788408115"><ele>766.0</ele><time>2026-03-28T10:43:14.999Z</time></trkpt><trkpt lat="40.70881542764126" lon="9.30161785072048"><ele>766.0</ele><time>2026-03-28T10:43:15.999Z</time></trkpt><trkpt lat="40.70870129064852" lon="9.301573664793485"><ele>766.0</ele><time>2026-03-28T10:43:16.999Z</time></trkpt><trkpt lat="40.708580146197065" lon="9.301538322929432"><ele>766.0</ele><time>2026-03-28T10:43:17.999Z</time></trkpt><trkpt lat="40.70845842257183" lon="9.30155176776755"><ele>766.0</ele><time>2026-03-28T10:43:18.999Z</time></trkpt><trkpt lat="40.70833241797851" lon="9.301572770475088"><ele>766.0</ele><time>2026-03-28T10:43:19.999Z</time></trkpt><trkpt lat="40.70823165924556" lon="9.301591148257199"><ele>766.0</ele><time>2026-03-28T10:43:20.999Z</time></trkpt><trkpt lat="40.70814514837507" lon="9.301610236779554"><ele>766.0</ele><time>2026-03-28T10:43:21.999Z</time></trkpt><trkpt lat="40.70807272075159" lon="9.301631725446372"><ele>766.0</ele><time>2026-03-28T10:43:22.999Z</time></trkpt><trkpt lat="40.70794916908133" lon="9.30165687379784"><ele>766.0</ele><time>2026-03-28T10:43:24.999Z</time></trkpt><trkpt lat="40.707851870183205" lon="9.301685738095697"><ele>766.0</ele><time>2026-03-28T10:43:25.999Z</time></trkpt><trkpt lat="40.7077253840127" lon="9.301715742755126"><ele>766.0</ele><time>2026-03-28T10:43:26.999Z</time></trkpt><trkpt lat="40.707626383526396" lon="9.301743490094433"><ele>766.0</ele><time>2026-03-28T10:43:28Z</time></trkpt><trkpt lat="40.70752585823831" lon="9.301742372207071"><ele>766.0</ele><time>2026-03-28T10:43:29Z</time></trkpt><trkpt lat="40.70742946840034" lon="9.301759942028513"><ele>767.8</ele><time>2026-03-28T10:43:30Z</time></trkpt><trkpt lat="40.70732492992584" lon="9.301796125611581"><ele>769.5999999999999</ele><time>2026-03-28T10:43:31Z</time></trkpt><trkpt lat="40.70721033960118" lon="9.301817490705389"><ele>771.4</ele><time>2026-03-28T10:43:32Z</time></trkpt><trkpt lat="40.70710416908338" lon="9.301839895011778"><ele>773.2</ele><time>2026-03-28T10:43:33Z</time></trkpt><trkpt lat="40.70700709619446" lon="9.30185567021992"><ele>775.0</ele><time>2026-03-28T10:43:34Z</time></trkpt><trkpt lat="40.706911534509544" lon="9.301882440750418"><ele>776.5</ele><time>2026-03-28T10:43:35Z</time></trkpt><trkpt lat="40.70680225234577" lon="9.301922741402008"><ele>778.0</ele><time>2026-03-28T10:43:36Z</time></trkpt><trkpt lat="40.70668055532337" lon="9.30196618056848"><ele>779.5</ele><time>2026-03-28T10:43:37Z</time></trkpt><trkpt lat="40.70655979497858" lon="9.302001365186854"><ele>781.0</ele><time>2026-03-28T10:43:38Z</time></trkpt><trkpt lat="40.70645692960446" lon="9.302050112473495"><ele>781.0</ele><time>2026-03-28T10:43:39Z</time></trkpt><trkpt lat="40.70635840800484" lon="9.30208673709334"><ele>781.0</ele><time>2026-03-28T10:43:40Z</time></trkpt><trkpt lat="40.7062677783575" lon="9.30212792558858"><ele>781.0</ele><time>2026-03-28T10:43:41Z</time></trkpt><trkpt lat="40.7061750297946" lon="9.30221821518769"><ele>781.0</ele><time>2026-03-28T10:43:42Z</time></trkpt><trkpt lat="40.706093777029864" lon="9.302306842838052"><ele>781.0</ele><time>2026-03-28T10:43:43Z</time></trkpt><trkpt lat="40.70601508618797" lon="9.302393195390152"><ele>779.4999999999999</ele><time>2026-03-28T10:43:44Z</time></trkpt><trkpt lat="40.70594025439586" lon="9.302476131553822"><ele>778.0</ele><time>2026-03-28T10:43:45Z</time></trkpt><trkpt lat="40.705891420757006" lon="9.302530304971775"><ele>776.5</ele><time>2026-03-28T10:43:46Z</time></trkpt><trkpt lat="40.70581523079148" lon="9.302594620318652"><ele>775.0</ele><time>2026-03-28T10:43:47Z</time></trkpt><trkpt lat="40.70574061727855" lon="9.30263087486877"><ele>773.4999999999999</ele><time>2026-03-28T10:43:48Z</time></trkpt><trkpt lat="40.705653194013664" lon="9.302681376646644"><ele>772.0</ele><time>2026-03-28T10:43:49Z</time></trkpt><trkpt lat="40.70555426616482" lon="9.302757459109145"><ele>772.0</ele><time>2026-03-28T10:43:50Z</time></trkpt><trkpt lat="40.70543227049945" lon="9.302814474043462"><ele>772.0</ele><time>2026-03-28T10:43:51Z</time></trkpt><trkpt lat="40.70533418420282" lon="9.302835405107704"><ele>772.0</ele><time>2026-03-28T10:43:52Z</time></trkpt><trkpt lat="40.70522845026503" lon="9.302872552766436"><ele>772.0</ele><time>2026-03-28T10:43:53Z</time></trkpt><trkpt lat="40.70513090922644" lon="9.302919923421241"><ele>772.0</ele><time>2026-03-28T10:43:54Z</time></trkpt><trkpt lat="40.705027151834265" lon="9.302941618248113"><ele>774.8</ele><time>2026-03-28T10:43:55Z</time></trkpt><trkpt lat="40.70491388474803" lon="9.302982273197458"><ele>777.6</ele><time>2026-03-28T10:43:56Z</time></trkpt><trkpt lat="40.70481437432668" lon="9.303017071999504"><ele>780.4</ele><time>2026-03-28T10:43:57Z</time></trkpt><trkpt lat="40.704712124608875" lon="9.303062360562958"><ele>783.1999999999999</ele><time>2026-03-28T10:43:58Z</time></trkpt><trkpt lat="40.704622092057654" lon="9.303086284354483"><ele>786.0</ele><time>2026-03-28T10:43:59Z</time></trkpt><trkpt lat="40.704538946256946" lon="9.303119099397241"><ele>782.5</ele><time>2026-03-28T10:44:00Z</time></trkpt><trkpt lat="40.70445310755328" lon="9.303152604666638"><ele>779.0</ele><time>2026-03-28T10:44:01Z</time></trkpt><trkpt lat="40.70437491403584" lon="9.303174771349497"><ele>775.5</ele><time>2026-03-28T10:44:02Z</time></trkpt><trkpt lat="40.70431098207742" lon="9.303192447253657"><ele>772.0</ele><time>2026-03-28T10:44:03Z</time></trkpt><trkpt lat="40.70422908087898" lon="9.303235616212838"><ele>768.5</ele><time>2026-03-28T10:44:05Z</time></trkpt><trkpt lat="40.70413599831924" lon="9.30332089279056"><ele>765.0</ele><time>2026-03-28T10:44:07Z</time></trkpt><trkpt lat="40.70411894027776" lon="9.303416487599266"><ele>765.0</ele><time>2026-03-28T10:44:08Z</time></trkpt><trkpt lat="40.704136379748434" lon="9.303512699701471"><ele>765.0</ele><time>2026-03-28T10:44:09Z</time></trkpt><trkpt lat="40.70417570771282" lon="9.303642675579592"><ele>765.0</ele><time>2026-03-28T10:44:10Z</time></trkpt><trkpt lat="40.70423631534378" lon="9.303771205927495"><ele>765.0</ele><time>2026-03-28T10:44:11Z</time></trkpt><trkpt lat="40.70430777513666" lon="9.303909879557507"><ele>765.0</ele><time>2026-03-28T10:44:12Z</time></trkpt><trkpt lat="40.70437095465826" lon="9.304053562613296"><ele>759.25</ele><time>2026-03-28T10:44:13Z</time></trkpt><trkpt lat="40.704436433590764" lon="9.304196706239763"><ele>753.5</ele><time>2026-03-28T10:44:14Z</time></trkpt><trkpt lat="40.70449532566914" lon="9.304318994837606"><ele>747.75</ele><time>2026-03-28T10:44:15Z</time></trkpt><trkpt lat="40.7045594861989" lon="9.304457379333966"><ele>742.0</ele><time>2026-03-28T10:44:16Z</time></trkpt><trkpt lat="40.704635496242254" lon="9.304620574043913"><ele>743.0</ele><time>2026-03-28T10:44:17Z</time></trkpt><trkpt lat="40.7046891391365" lon="9.304759984657546"><ele>744.0</ele><time>2026-03-28T10:44:17.999Z</time></trkpt><trkpt lat="40.70475894092092" lon="9.304876617821956"><ele>745.0</ele><time>2026-03-28T10:44:18.999Z</time></trkpt><trkpt lat="40.704805602371366" lon="9.30497611892262"><ele>746.0</ele><time>2026-03-28T10:44:19.999Z</time></trkpt><trkpt lat="40.704857908608545" lon="9.305073974130384"><ele>747.0</ele><time>2026-03-28T10:44:20.999Z</time></trkpt><trkpt lat="40.704911451777036" lon="9.305193443832982"><ele>747.0</ele><time>2026-03-28T10:44:21.999Z</time></trkpt><trkpt lat="40.70495322751509" lon="9.305361304274326"><ele>747.0</ele><time>2026-03-28T10:44:22.999Z</time></trkpt><trkpt lat="40.70500093385907" lon="9.305493923871424"><ele>747.0</ele><time>2026-03-28T10:44:23.999Z</time></trkpt><trkpt lat="40.70503329512689" lon="9.305626550569002"><ele>747.0</ele><time>2026-03-28T10:44:24.999Z</time></trkpt><trkpt lat="40.70506176306566" lon="9.305764088379789"><ele>748.0</ele><time>2026-03-28T10:44:25.999Z</time></trkpt><trkpt lat="40.70507491548802" lon="9.30590171361233"><ele>749.0</ele><time>2026-03-28T10:44:26.999Z</time></trkpt><trkpt lat="40.70508760202954" lon="9.306069350433091"><ele>750.0</ele><time>2026-03-28T10:44:27.999Z</time></trkpt><trkpt lat="40.70510918855251" lon="9.306238023613417"><ele>751.0</ele><time>2026-03-28T10:44:28.999Z</time></trkpt><trkpt lat="40.705120065018065" lon="9.306396924766208"><ele>751.5</ele><time>2026-03-28T10:44:29.999Z</time></trkpt><trkpt lat="40.70514294081954" lon="9.306584802894742"><ele>752.0</ele><time>2026-03-28T10:44:30.999Z</time></trkpt><trkpt lat="40.70516510002518" lon="9.30678904342562"><ele>752.5</ele><time>2026-03-28T10:44:31.999Z</time></trkpt><trkpt lat="40.705183879832695" lon="9.306966676855987"><ele>753.0</ele><time>2026-03-28T10:44:32.999Z</time></trkpt><trkpt lat="40.70521453197454" lon="9.307115374079766"><ele>753.0</ele><time>2026-03-28T10:44:33.999Z</time></trkpt><trkpt lat="40.70522292633029" lon="9.307240315916312"><ele>753.0</ele><time>2026-03-28T10:44:34.999Z</time></trkpt><trkpt lat="40.70521424461458" lon="9.307350050851483"><ele>753.0</ele><time>2026-03-28T10:44:35.999Z</time></trkpt><trkpt lat="40.70516742302472" lon="9.307417665696578"><ele>753.0</ele><time>2026-03-28T10:44:36.999Z</time></trkpt><trkpt lat="40.70509834207929" lon="9.307506006080304"><ele>753.0</ele><time>2026-03-28T10:44:37.999Z</time></trkpt><trkpt lat="40.7050193166489" lon="9.307630098552993"><ele>752.0</ele><time>2026-03-28T10:44:38.999Z</time></trkpt><trkpt lat="40.704969342414536" lon="9.307737947062309"><ele>751.0</ele><time>2026-03-28T10:44:39.999Z</time></trkpt><trkpt lat="40.704924220987465" lon="9.307818362711455"><ele>750.0</ele><time>2026-03-28T10:44:40.999Z</time></trkpt><trkpt lat="40.70489212484272" lon="9.307922428000044"><ele>749.0</ele><time>2026-03-28T10:44:41.999Z</time></trkpt><trkpt lat="40.70488467092875" lon="9.308025503232878"><ele>748.0</ele><time>2026-03-28T10:44:42.999Z</time></trkpt><trkpt lat="40.70492142991975" lon="9.308169310000642"><ele>748.0</ele><time>2026-03-28T10:44:44.999Z</time></trkpt><trkpt lat="40.704978089587826" lon="9.308212308071399"><ele>748.0</ele><time>2026-03-28T10:44:45.999Z</time></trkpt><trkpt lat="40.70504551704762" lon="9.308225593297099"><ele>748.0</ele><time>2026-03-28T10:44:46.999Z</time></trkpt><trkpt lat="40.705120010683935" lon="9.308212181636952"><ele>748.0</ele><time>2026-03-28T10:44:47.999Z</time></trkpt><trkpt lat="40.70520489876812" lon="9.308263746548828"><ele>748.0</ele><time>2026-03-28T10:44:48.999Z</time></trkpt><trkpt lat="40.70530888749278" lon="9.308291422657161"><ele>748.0</ele><time>2026-03-28T10:44:49.999Z</time></trkpt><trkpt lat="40.705398681203455" lon="9.308351303640215"><ele>743.0</ele><time>2026-03-28T10:44:50.999Z</time></trkpt><trkpt lat="40.7054983969172" lon="9.308389121905115"><ele>738.0</ele><time>2026-03-28T10:44:51.999Z</time></trkpt><trkpt lat="40.70561597920178" lon="9.308449803771614"><ele>733.0</ele><time>2026-03-28T10:44:52.999Z</time></trkpt><trkpt lat="40.70573154385922" lon="9.308533049300527"><ele>728.0</ele><time>2026-03-28T10:44:53.999Z</time></trkpt><trkpt lat="40.70585619579411" lon="9.308603006390367"><ele>728.0</ele><time>2026-03-28T10:44:54.999Z</time></trkpt><trkpt lat="40.70597752139574" lon="9.30865629508065"><ele>728.0</ele><time>2026-03-28T10:44:55.999Z</time></trkpt><trkpt lat="40.70607723546875" lon="9.308746946388203"><ele>728.0</ele><time>2026-03-28T10:44:56.999Z</time></trkpt><trkpt lat="40.7061806505158" lon="9.308808292680427"><ele>728.0</ele><time>2026-03-28T10:44:57.999Z</time></trkpt><trkpt lat="40.70628401099205" lon="9.308894978402833"><ele>728.0</ele><time>2026-03-28T10:44:58.999Z</time></trkpt><trkpt lat="40.706395730521095" lon="9.309021793587641"><ele>728.0</ele><time>2026-03-28T10:44:59.999Z</time></trkpt><trkpt lat="40.706514024650865" lon="9.309116509521047"><ele>728.0</ele><time>2026-03-28T10:45:00.999Z</time></trkpt><trkpt lat="40.706609862918384" lon="9.309218563584913"><ele>728.0</ele><time>2026-03-28T10:45:01.999Z</time></trkpt><trkpt lat="40.70669235616679" lon="9.309317411337041"><ele>728.0</ele><time>2026-03-28T10:45:02.999Z</time></trkpt><trkpt lat="40.706762135212315" lon="9.30941714610938"><ele>728.0</ele><time>2026-03-28T10:45:03.999Z</time></trkpt><trkpt lat="40.706845128667744" lon="9.309518213178192"><ele>728.0</ele><time>2026-03-28T10:45:04.999Z</time></trkpt><trkpt lat="40.70693713262159" lon="9.309642331199292"><ele>728.0</ele><time>2026-03-28T10:45:05.999Z</time></trkpt><trkpt lat="40.70700916973907" lon="9.309762580654375"><ele>724.75</ele><time>2026-03-28T10:45:06.999Z</time></trkpt><trkpt lat="40.707079131892094" lon="9.30989506626903"><ele>721.5</ele><time>2026-03-28T10:45:07.999Z</time></trkpt><trkpt lat="40.70715540386295" lon="9.310056638359054"><ele>718.25</ele><time>2026-03-28T10:45:08.999Z</time></trkpt><trkpt lat="40.707233130455826" lon="9.310243444444021"><ele>715.0</ele><time>2026-03-28T10:45:09.999Z</time></trkpt><trkpt lat="40.70732037784622" lon="9.31041735210825"><ele>718.0</ele><time>2026-03-28T10:45:10.999Z</time></trkpt><trkpt lat="40.70738997237611" lon="9.310591259287138"><ele>721.0</ele><time>2026-03-28T10:45:11.999Z</time></trkpt><trkpt lat="40.70750753327079" lon="9.310794271861738"><ele>724.0</ele><time>2026-03-28T10:45:12.999Z</time></trkpt><trkpt lat="40.7076125361155" lon="9.311031150709082"><ele>724.0</ele><time>2026-03-28T10:45:13.999Z</time></trkpt><trkpt lat="40.707742934142416" lon="9.311271184685372"><ele>724.0</ele><time>2026-03-28T10:45:14.999Z</time></trkpt><trkpt lat="40.70786251238967" lon="9.311496343116291"><ele>724.0</ele><time>2026-03-28T10:45:15.999Z</time></trkpt><trkpt lat="40.70796793038833" lon="9.311694634595238"><ele>723.0</ele><time>2026-03-28T10:45:16.999Z</time></trkpt><trkpt lat="40.7080520384052" lon="9.311865687365486"><ele>722.0</ele><time>2026-03-28T10:45:17.999Z</time></trkpt><trkpt lat="40.70813306954022" lon="9.312039167791356"><ele>721.0</ele><time>2026-03-28T10:45:18.999Z</time></trkpt><trkpt lat="40.70820725939229" lon="9.312188320262047"><ele>720.0</ele><time>2026-03-28T10:45:19.999Z</time></trkpt><trkpt lat="40.708294194442345" lon="9.312347067055892"><ele>721.5</ele><time>2026-03-28T10:45:20.999Z</time></trkpt><trkpt lat="40.70837059235929" lon="9.312500178131144"><ele>723.0</ele><time>2026-03-28T10:45:21.999Z</time></trkpt><trkpt lat="40.70844853460845" lon="9.312649392087426"><ele>724.5</ele><time>2026-03-28T10:45:22.999Z</time></trkpt><trkpt lat="40.708530848257354" lon="9.312770255330577"><ele>726.0</ele><time>2026-03-28T10:45:23.999Z</time></trkpt><trkpt lat="40.70859627941683" lon="9.312879871535765"><ele>726.0</ele><time>2026-03-28T10:45:24.999Z</time></trkpt><trkpt lat="40.70866510960582" lon="9.312992510847707"><ele>726.0</ele><time>2026-03-28T10:45:25.999Z</time></trkpt><trkpt lat="40.70873718744136" lon="9.313113011486672"><ele>726.0</ele><time>2026-03-28T10:45:26.999Z</time></trkpt><trkpt lat="40.70882549300365" lon="9.313223150981885"><ele>726.0</ele><time>2026-03-28T10:45:27.999Z</time></trkpt><trkpt lat="40.708905257308714" lon="9.31331107413973"><ele>727.5999999999999</ele><time>2026-03-28T10:45:28.999Z</time></trkpt><trkpt lat="40.708973277230925" lon="9.313398790735935"><ele>729.2</ele><time>2026-03-28T10:45:29.999Z</time></trkpt><trkpt lat="40.70903123993893" lon="9.313484487450868"><ele>730.8</ele><time>2026-03-28T10:45:30.999Z</time></trkpt><trkpt lat="40.70909432847286" lon="9.31364296853499"><ele>732.4000000000001</ele><time>2026-03-28T10:45:32.999Z</time></trkpt><trkpt lat="40.70907654131365" lon="9.313741656257855"><ele>734.0</ele><time>2026-03-28T10:45:34Z</time></trkpt><trkpt lat="40.70906714299934" lon="9.313865772484691"><ele>736.25</ele><time>2026-03-28T10:45:35Z</time></trkpt><trkpt lat="40.709029632539995" lon="9.314043682971885"><ele>738.5</ele><time>2026-03-28T10:45:36Z</time></trkpt><trkpt lat="40.709019455530594" lon="9.314222242689098"><ele>740.75</ele><time>2026-03-28T10:45:37Z</time></trkpt><trkpt lat="40.70900298804539" lon="9.314386067115285"><ele>743.0</ele><time>2026-03-28T10:45:38Z</time></trkpt><trkpt lat="40.70896627866589" lon="9.314520774059545"><ele>743.0</ele><time>2026-03-28T10:45:39Z</time></trkpt><trkpt lat="40.708925333048654" lon="9.314630915808864"><ele>743.0</ele><time>2026-03-28T10:45:40Z</time></trkpt><trkpt lat="40.708897492400695" lon="9.314719458861937"><ele>743.0</ele><time>2026-03-28T10:45:41Z</time></trkpt><trkpt lat="40.708889441431666" lon="9.314807544516675"><ele>743.0</ele><time>2026-03-28T10:45:42Z</time></trkpt><trkpt lat="40.70888724250419" lon="9.314895448069304"><ele>743.0</ele><time>2026-03-28T10:45:43Z</time></trkpt><trkpt lat="40.70894301690133" lon="9.314963818053055"><ele>743.0</ele><time>2026-03-28T10:45:44Z</time></trkpt><trkpt lat="40.70901335235519" lon="9.315052294682355"><ele>743.0</ele><time>2026-03-28T10:45:45Z</time></trkpt><trkpt lat="40.70909141474565" lon="9.315158090696551"><ele>743.0</ele><time>2026-03-28T10:45:46Z</time></trkpt><trkpt lat="40.70915812737556" lon="9.315266875186172"><ele>743.0</ele><time>2026-03-28T10:45:47Z</time></trkpt><trkpt lat="40.709205906366684" lon="9.315357300343598"><ele>743.0</ele><time>2026-03-28T10:45:48Z</time></trkpt><trkpt lat="40.70923934459992" lon="9.315443706123528"><ele>743.0</ele><time>2026-03-28T10:45:49Z</time></trkpt><trkpt lat="40.70925157311718" lon="9.315543926096735"><ele>741.0</ele><time>2026-03-28T10:45:50Z</time></trkpt><trkpt lat="40.70924142198763" lon="9.315656562095706"><ele>739.0</ele><time>2026-03-28T10:45:51Z</time></trkpt><trkpt lat="40.70921458772376" lon="9.31576861008507"><ele>737.0</ele><time>2026-03-28T10:45:52Z</time></trkpt><trkpt lat="40.70917390141601" lon="9.315833176268837"><ele>735.0</ele><time>2026-03-28T10:45:53Z</time></trkpt><trkpt lat="40.709088933030024" lon="9.315899979571656"><ele>733.0</ele><time>2026-03-28T10:45:55Z</time></trkpt><trkpt lat="40.70901252854651" lon="9.315862820402208"><ele>731.0</ele><time>2026-03-28T10:45:56Z</time></trkpt><trkpt lat="40.70895272920161" lon="9.315820394234564"><ele>731.0</ele><time>2026-03-28T10:45:57Z</time></trkpt><trkpt lat="40.708876762450984" lon="9.315812593261054"><ele>731.0</ele><time>2026-03-28T10:45:58Z</time></trkpt><trkpt lat="40.7088109164222" lon="9.315806116036786"><ele>731.0</ele><time>2026-03-28T10:45:59Z</time></trkpt><trkpt lat="40.70874059933267" lon="9.315824169287374"><ele>731.0</ele><time>2026-03-28T10:46:00Z</time></trkpt><trkpt lat="40.708635934138634" lon="9.315952530113407"><ele>731.0</ele><time>2026-03-28T10:46:02Z</time></trkpt><trkpt lat="40.70857974114812" lon="9.316057738310755"><ele>731.1666666666666</ele><time>2026-03-28T10:46:03Z</time></trkpt><trkpt lat="40.708541531623354" lon="9.316148243084458"><ele>731.3333333333333</ele><time>2026-03-28T10:46:04Z</time></trkpt><trkpt lat="40.708515138244245" lon="9.316260576521737"><ele>731.5</ele><time>2026-03-28T10:46:05Z</time></trkpt><trkpt lat="40.708521140396115" lon="9.316366356593717"><ele>731.6666666666666</ele><time>2026-03-28T10:46:06Z</time></trkpt><trkpt lat="40.70854665604438" lon="9.316476038373398"><ele>731.8333333333334</ele><time>2026-03-28T10:46:07Z</time></trkpt><trkpt lat="40.708578812135514" lon="9.316590969565489"><ele>732.0</ele><time>2026-03-28T10:46:08Z</time></trkpt><trkpt lat="40.708623817771006" lon="9.316707925488592"><ele>731.2</ele><time>2026-03-28T10:46:09Z</time></trkpt><trkpt lat="40.70868363185943" lon="9.31681654642434"><ele>730.4000000000001</ele><time>2026-03-28T10:46:10Z</time></trkpt><trkpt lat="40.708726883493306" lon="9.316929669250383"><ele>729.5999999999999</ele><time>2026-03-28T10:46:11Z</time></trkpt><trkpt lat="40.70878126707446" lon="9.317051307470457"><ele>728.8</ele><time>2026-03-28T10:46:12Z</time></trkpt><trkpt lat="40.708824902189534" lon="9.317171562261459"><ele>728.0</ele><time>2026-03-28T10:46:13Z</time></trkpt><trkpt lat="40.708876843730366" lon="9.317277586459"><ele>723.2</ele><time>2026-03-28T10:46:14Z</time></trkpt><trkpt lat="40.708959914554875" lon="9.317385709678144"><ele>718.4</ele><time>2026-03-28T10:46:15Z</time></trkpt><trkpt lat="40.709050851099" lon="9.317477278371982"><ele>713.6</ele><time>2026-03-28T10:46:16Z</time></trkpt><trkpt lat="40.70913268054155" lon="9.317540338216231"><ele>708.8000000000001</ele><time>2026-03-28T10:46:17Z</time></trkpt><trkpt lat="40.70920368507858" lon="9.317579330033455"><ele>704.0</ele><time>2026-03-28T10:46:18Z</time></trkpt><trkpt lat="40.70925673896691" lon="9.317664296334609"><ele>704.0</ele><time>2026-03-28T10:46:20Z</time></trkpt><trkpt lat="40.70917847659127" lon="9.31772577840679"><ele>704.0</ele><time>2026-03-28T10:46:22Z</time></trkpt><trkpt lat="40.70911010243009" lon="9.317657633831022"><ele>704.0</ele><time>2026-03-28T10:46:23Z</time></trkpt><trkpt lat="40.709007004246224" lon="9.317613017215674"><ele>704.0</ele><time>2026-03-28T10:46:24Z</time></trkpt><trkpt lat="40.708897425232564" lon="9.317593469227194"><ele>704.0</ele><time>2026-03-28T10:46:24.999Z</time></trkpt><trkpt lat="40.70878965417208" lon="9.317558205778388"><ele>704.0</ele><time>2026-03-28T10:46:25.999Z</time></trkpt><trkpt lat="40.70867935508284" lon="9.317531933991692"><ele>704.0</ele><time>2026-03-28T10:46:26.999Z</time></trkpt><trkpt lat="40.70855480935903" lon="9.31750683026202"><ele>704.0</ele><time>2026-03-28T10:46:27.999Z</time></trkpt><trkpt lat="40.70844403252319" lon="9.317482472013056"><ele>704.0</ele><time>2026-03-28T10:46:28.999Z</time></trkpt><trkpt lat="40.70833842923566" lon="9.317458804585733"><ele>700.6</ele><time>2026-03-28T10:46:29.999Z</time></trkpt><trkpt lat="40.708231593750824" lon="9.317434156089112"><ele>697.2</ele><time>2026-03-28T10:46:30.999Z</time></trkpt><trkpt lat="40.7081240267484" lon="9.31740549523979"><ele>693.8000000000001</ele><time>2026-03-28T10:46:31.999Z</time></trkpt><trkpt lat="40.70803372457398" lon="9.317366512858893"><ele>690.4000000000001</ele><time>2026-03-28T10:46:32.999Z</time></trkpt><trkpt lat="40.7079513240632" lon="9.317336629652807"><ele>687.0</ele><time>2026-03-28T10:46:33.999Z</time></trkpt><trkpt lat="40.70784983747969" lon="9.317329426936565"><ele>687.0</ele><time>2026-03-28T10:46:35.999Z</time></trkpt><trkpt lat="40.707819440339996" lon="9.317430017571878"><ele>687.0</ele><time>2026-03-28T10:46:38.999Z</time></trkpt><trkpt lat="40.70792638745064" lon="9.317521469726824"><ele>687.0</ele><time>2026-03-28T10:46:40.999Z</time></trkpt><trkpt lat="40.7080130821859" lon="9.317552927278856"><ele>687.0</ele><time>2026-03-28T10:46:41.999Z</time></trkpt><trkpt lat="40.70808513976915" lon="9.317630133466006"><ele>687.0</ele><time>2026-03-28T10:46:42.999Z</time></trkpt><trkpt lat="40.70815197792294" lon="9.317694384019067"><ele>687.0</ele><time>2026-03-28T10:46:43.999Z</time></trkpt><trkpt lat="40.708198592775545" lon="9.31785396222809"><ele>687.0</ele><time>2026-03-28T10:46:45.999Z</time></trkpt><trkpt lat="40.70822652883593" lon="9.317972483567251"><ele>687.0</ele><time>2026-03-28T10:46:46.999Z</time></trkpt><trkpt lat="40.70822518912272" lon="9.31812580153803"><ele>687.0</ele><time>2026-03-28T10:46:47.999Z</time></trkpt><trkpt lat="40.70822107236473" lon="9.318265027775652"><ele>687.0</ele><time>2026-03-28T10:46:48.999Z</time></trkpt><trkpt lat="40.708227530591174" lon="9.318370116492478"><ele>682.8</ele><time>2026-03-28T10:46:49.999Z</time></trkpt><trkpt lat="40.70825128392702" lon="9.31846123189714"><ele>678.6</ele><time>2026-03-28T10:46:50.999Z</time></trkpt><trkpt lat="40.708289184290535" lon="9.318555821692726"><ele>674.4</ele><time>2026-03-28T10:46:51.999Z</time></trkpt><trkpt lat="40.70834869523107" lon="9.318656641225262"><ele>670.1999999999999</ele><time>2026-03-28T10:46:52.999Z</time></trkpt><trkpt lat="40.70844522340074" lon="9.318762359251405"><ele>666.0</ele><time>2026-03-28T10:46:53.999Z</time></trkpt><trkpt lat="40.70855431998899" lon="9.318852695351978"><ele>662.5999999999999</ele><time>2026-03-28T10:46:54.999Z</time></trkpt><trkpt lat="40.70866006844626" lon="9.318928868494341"><ele>659.2</ele><time>2026-03-28T10:46:55.999Z</time></trkpt><trkpt lat="40.70875169260319" lon="9.318984725747839"><ele>655.8</ele><time>2026-03-28T10:46:56.999Z</time></trkpt><trkpt lat="40.70883679410699" lon="9.319012784755168"><ele>652.4000000000001</ele><time>2026-03-28T10:46:57.999Z</time></trkpt><trkpt lat="40.70894145303443" lon="9.319008485420452"><ele>649.0</ele><time>2026-03-28T10:46:58.999Z</time></trkpt><trkpt lat="40.70905640741489" lon="9.31901811196845"><ele>649.0</ele><time>2026-03-28T10:46:59.999Z</time></trkpt><trkpt lat="40.70917017240482" lon="9.319058168897092"><ele>649.0</ele><time>2026-03-28T10:47:00.999Z</time></trkpt><trkpt lat="40.70929729638481" lon="9.31906163133485"><ele>649.0</ele><time>2026-03-28T10:47:01.999Z</time></trkpt><trkpt lat="40.7094227550281" lon="9.319087814695141"><ele>649.0</ele><time>2026-03-28T10:47:02.999Z</time></trkpt><trkpt lat="40.70953111636786" lon="9.319129413691204"><ele>647.6</ele><time>2026-03-28T10:47:03.999Z</time></trkpt><trkpt lat="40.70964550270921" lon="9.31913779846945"><ele>646.2</ele><time>2026-03-28T10:47:04.999Z</time></trkpt><trkpt lat="40.70975780604246" lon="9.31918039900909"><ele>644.8000000000001</ele><time>2026-03-28T10:47:05.999Z</time></trkpt><trkpt lat="40.70987238249776" lon="9.319207887899497"><ele>643.4000000000001</ele><time>2026-03-28T10:47:06.999Z</time></trkpt><trkpt lat="40.70996429942781" lon="9.319251547629634"><ele>642.0</ele><time>2026-03-28T10:47:07.999Z</time></trkpt><trkpt lat="40.71006299162621" lon="9.319306319912442"><ele>642.0</ele><time>2026-03-28T10:47:08.999Z</time></trkpt><trkpt lat="40.710136908804316" lon="9.319407822318642"><ele>642.0</ele><time>2026-03-28T10:47:09.999Z</time></trkpt><trkpt lat="40.710213375518535" lon="9.319551779977331"><ele>642.0</ele><time>2026-03-28T10:47:10.999Z</time></trkpt><trkpt lat="40.71030899374098" lon="9.319691712910977"><ele>642.0</ele><time>2026-03-28T10:47:11.999Z</time></trkpt><trkpt lat="40.710386455138604" lon="9.31982612878415"><ele>638.25</ele><time>2026-03-28T10:47:12.999Z</time></trkpt><trkpt lat="40.71046350173908" lon="9.319945413889382"><ele>634.5</ele><time>2026-03-28T10:47:13.999Z</time></trkpt><trkpt lat="40.71053699953671" lon="9.320049040238981"><ele>630.75</ele><time>2026-03-28T10:47:14.999Z</time></trkpt><trkpt lat="40.71061173780018" lon="9.320166890310178"><ele>627.0</ele><time>2026-03-28T10:47:15.999Z</time></trkpt><trkpt lat="40.710708098924904" lon="9.320277720103928"><ele>627.0</ele><time>2026-03-28T10:47:16.999Z</time></trkpt><trkpt lat="40.71080617068229" lon="9.320357531728442"><ele>627.0</ele><time>2026-03-28T10:47:17.999Z</time></trkpt><trkpt lat="40.710886120919106" lon="9.320445880885034"><ele>627.0</ele><time>2026-03-28T10:47:18.999Z</time></trkpt><trkpt lat="40.71098741585962" lon="9.320519239799586"><ele>627.0</ele><time>2026-03-28T10:47:19.999Z</time></trkpt><trkpt lat="40.71109702653801" lon="9.320613508698656"><ele>622.2</ele><time>2026-03-28T10:47:20.999Z</time></trkpt><trkpt lat="40.71120085495739" lon="9.32067502896599"><ele>617.4000000000001</ele><time>2026-03-28T10:47:21.999Z</time></trkpt><trkpt lat="40.711300763878015" lon="9.32072238417424"><ele>612.5999999999999</ele><time>2026-03-28T10:47:22.999Z</time></trkpt><trkpt lat="40.71140850083535" lon="9.320752790582269"><ele>607.8</ele><time>2026-03-28T10:47:23.999Z</time></trkpt><trkpt lat="40.711520350573416" lon="9.320801012331074"><ele>603.0</ele><time>2026-03-28T10:47:24.999Z</time></trkpt><trkpt lat="40.71163108824463" lon="9.320827265837481"><ele>603.0</ele><time>2026-03-28T10:47:25.999Z</time></trkpt><trkpt lat="40.7117394074594" lon="9.320903871077325"><ele>603.0</ele><time>2026-03-28T10:47:26.999Z</time></trkpt><trkpt lat="40.71182563784706" lon="9.320964192052074"><ele>603.0</ele><time>2026-03-28T10:47:27.999Z</time></trkpt><trkpt lat="40.71190537021275" lon="9.321014023382933"><ele>603.0</ele><time>2026-03-28T10:47:28.999Z</time></trkpt><trkpt lat="40.7119895954991" lon="9.321054815624262"><ele>603.0</ele><time>2026-03-28T10:47:29.999Z</time></trkpt><trkpt lat="40.712052439598565" lon="9.321071351069753"><ele>603.0</ele><time>2026-03-28T10:47:30.999Z</time></trkpt><trkpt lat="40.712080742121636" lon="9.32117174531658"><ele>603.0</ele><time>2026-03-28T10:47:33.999Z</time></trkpt><trkpt lat="40.71195218897158" lon="9.321152967464503"><ele>603.0</ele><time>2026-03-28T10:47:35.999Z</time></trkpt><trkpt lat="40.71185076140671" lon="9.321183445616017"><ele>603.0</ele><time>2026-03-28T10:47:36.999Z</time></trkpt><trkpt lat="40.71174827770184" lon="9.321194456974228"><ele>603.0</ele><time>2026-03-28T10:47:37.999Z</time></trkpt><trkpt lat="40.71164533503164" lon="9.321231312280197"><ele>603.0</ele><time>2026-03-28T10:47:38.999Z</time></trkpt><trkpt lat="40.71153361358567" lon="9.32126301448316"><ele>603.0</ele><time>2026-03-28T10:47:40Z</time></trkpt><trkpt lat="40.711414963822484" lon="9.32132833414861"><ele>603.0</ele><time>2026-03-28T10:47:41Z</time></trkpt><trkpt lat="40.71129525863102" lon="9.321419494750229"><ele>603.0</ele><time>2026-03-28T10:47:42Z</time></trkpt><trkpt lat="40.71117278382427" lon="9.321475339609071"><ele>598.1999999999999</ele><time>2026-03-28T10:47:43Z</time></trkpt><trkpt lat="40.71107657161835" lon="9.321550053114574"><ele>593.4</ele><time>2026-03-28T10:47:44Z</time></trkpt><trkpt lat="40.7109837844667" lon="9.321605246611616"><ele>588.5999999999999</ele><time>2026-03-28T10:47:45Z</time></trkpt><trkpt lat="40.7108846836696" lon="9.321628551970479"><ele>583.8</ele><time>2026-03-28T10:47:46Z</time></trkpt><trkpt lat="40.71080520136608" lon="9.321660731029842"><ele>579.0</ele><time>2026-03-28T10:47:47Z</time></trkpt><trkpt lat="40.71073327884624" lon="9.321687468890973"><ele>579.0</ele><time>2026-03-28T10:47:48Z</time></trkpt><trkpt lat="40.71065468887173" lon="9.321749594197179"><ele>579.0</ele><time>2026-03-28T10:47:50Z</time></trkpt><trkpt lat="40.71069596022284" lon="9.321883756310012"><ele>579.0</ele><time>2026-03-28T10:47:52Z</time></trkpt><trkpt lat="40.71075849053413" lon="9.321910218749567"><ele>579.0</ele><time>2026-03-28T10:47:53Z</time></trkpt><trkpt lat="40.710841219400066" lon="9.321905937182274"><ele>579.0</ele><time>2026-03-28T10:47:54Z</time></trkpt><trkpt lat="40.710946759404116" lon="9.321904896885075"><ele>577.8</ele><time>2026-03-28T10:47:55Z</time></trkpt><trkpt lat="40.711089394053545" lon="9.32191844846465"><ele>576.5999999999999</ele><time>2026-03-28T10:47:56Z</time></trkpt><trkpt lat="40.71119131634659" lon="9.321941070821604"><ele>575.4</ele><time>2026-03-28T10:47:57Z</time></trkpt><trkpt lat="40.711253036469685" lon="9.32196227548262"><ele>574.1999999999999</ele><time>2026-03-28T10:47:58Z</time></trkpt><trkpt lat="40.71127345364279" lon="9.322043840733352"><ele>573.0</ele><time>2026-03-28T10:48:00Z</time></trkpt><trkpt lat="40.7112902418902" lon="9.322197289691006"><ele>572.0</ele><time>2026-03-28T10:48:02Z</time></trkpt><trkpt lat="40.7114203804352" lon="9.322258211881334"><ele>571.0</ele><time>2026-03-28T10:48:04Z</time></trkpt><trkpt lat="40.71154472726329" lon="9.32226838866675"><ele>570.0</ele><time>2026-03-28T10:48:05Z</time></trkpt><trkpt lat="40.7116829782455" lon="9.32230599739654"><ele>569.0</ele><time>2026-03-28T10:48:06Z</time></trkpt><trkpt lat="40.71181089483094" lon="9.32236137427899"><ele>567.6</ele><time>2026-03-28T10:48:07Z</time></trkpt><trkpt lat="40.711928123348216" lon="9.322414506846398"><ele>566.2</ele><time>2026-03-28T10:48:08Z</time></trkpt><trkpt lat="40.71202563671229" lon="9.322468275162786"><ele>564.8000000000001</ele><time>2026-03-28T10:48:09Z</time></trkpt><trkpt lat="40.712100342979866" lon="9.322517115894986"><ele>563.4</ele><time>2026-03-28T10:48:10Z</time></trkpt><trkpt lat="40.71217273294225" lon="9.322572261328403"><ele>562.0</ele><time>2026-03-28T10:48:11Z</time></trkpt><trkpt lat="40.71225398612706" lon="9.322662473160985"><ele>562.0</ele><time>2026-03-28T10:48:12Z</time></trkpt><trkpt lat="40.712366131090725" lon="9.322758147367045"><ele>562.0</ele><time>2026-03-28T10:48:13Z</time></trkpt><trkpt lat="40.71246359950471" lon="9.322892407162884"><ele>562.0</ele><time>2026-03-28T10:48:14Z</time></trkpt><trkpt lat="40.71254702098068" lon="9.32299446146763"><ele>562.0</ele><time>2026-03-28T10:48:15Z</time></trkpt><trkpt lat="40.71262437320772" lon="9.323096670080844"><ele>561.4</ele><time>2026-03-28T10:48:16Z</time></trkpt><trkpt lat="40.71270458060234" lon="9.323209047643491"><ele>560.8000000000001</ele><time>2026-03-28T10:48:17Z</time></trkpt><trkpt lat="40.71277734056724" lon="9.323291451114054"><ele>560.2</ele><time>2026-03-28T10:48:18Z</time></trkpt><trkpt lat="40.712821000710946" lon="9.32341887140033"><ele>559.6</ele><time>2026-03-28T10:48:19Z</time></trkpt><trkpt lat="40.71288245623404" lon="9.323534319695002"><ele>559.0</ele><time>2026-03-28T10:48:20Z</time></trkpt><trkpt lat="40.712918485933805" lon="9.323641393931561"><ele>559.0</ele><time>2026-03-28T10:48:21Z</time></trkpt><trkpt lat="40.71298439380647" lon="9.323742317523633"><ele>559.0</ele><time>2026-03-28T10:48:22Z</time></trkpt><trkpt lat="40.713096446333694" lon="9.323838405987818"><ele>559.0</ele><time>2026-03-28T10:48:23Z</time></trkpt><trkpt lat="40.7132162375668" lon="9.323954189663745"><ele>559.0</ele><time>2026-03-28T10:48:24Z</time></trkpt><trkpt lat="40.7132889912105" lon="9.324075897814263"><ele>558.75</ele><time>2026-03-28T10:48:25Z</time></trkpt><trkpt lat="40.71337838443094" lon="9.324203979493623"><ele>558.5</ele><time>2026-03-28T10:48:26Z</time></trkpt><trkpt lat="40.71345670618477" lon="9.324342167343362"><ele>558.25</ele><time>2026-03-28T10:48:27Z</time></trkpt><trkpt lat="40.71353879216347" lon="9.324452546852827"><ele>558.0</ele><time>2026-03-28T10:48:28Z</time></trkpt><trkpt lat="40.71361266878662" lon="9.324566278732526"><ele>556.5</ele><time>2026-03-28T10:48:29Z</time></trkpt><trkpt lat="40.71368486873686" lon="9.324655086104933"><ele>555.0</ele><time>2026-03-28T10:48:30Z</time></trkpt><trkpt lat="40.71375014857631" lon="9.324775873989745"><ele>553.5</ele><time>2026-03-28T10:48:31Z</time></trkpt><trkpt lat="40.71378588112035" lon="9.32496221002019"><ele>552.0</ele><time>2026-03-28T10:48:32Z</time></trkpt><trkpt lat="40.713857275697684" lon="9.325107884656942"><ele>551.0</ele><time>2026-03-28T10:48:33Z</time></trkpt><trkpt lat="40.71393399231756" lon="9.3252375343594"><ele>550.0</ele><time>2026-03-28T10:48:34Z</time></trkpt><trkpt lat="40.714031972674995" lon="9.325357252100682"><ele>549.0</ele><time>2026-03-28T10:48:35Z</time></trkpt><trkpt lat="40.7141241929686" lon="9.325511847748523"><ele>548.0</ele><time>2026-03-28T10:48:36Z</time></trkpt><trkpt lat="40.71423458500987" lon="9.32563108727413"><ele>549.1999999999999</ele><time>2026-03-28T10:48:37Z</time></trkpt><trkpt lat="40.71430303905263" lon="9.325733238730725"><ele>550.4</ele><time>2026-03-28T10:48:38Z</time></trkpt><trkpt lat="40.714383223705894" lon="9.325815075943408"><ele>551.5999999999999</ele><time>2026-03-28T10:48:39Z</time></trkpt><trkpt lat="40.71448994518795" lon="9.325892472835656"><ele>552.8</ele><time>2026-03-28T10:48:40Z</time></trkpt><trkpt lat="40.71458460645737" lon="9.32595139986725"><ele>554.0</ele><time>2026-03-28T10:48:41Z</time></trkpt><trkpt lat="40.71465265482426" lon="9.325981186138238"><ele>554.0</ele><time>2026-03-28T10:48:42Z</time></trkpt><trkpt lat="40.714733482860396" lon="9.326021910461874"><ele>554.0</ele><time>2026-03-28T10:48:44Z</time></trkpt><trkpt lat="40.71485752378827" lon="9.326044578790793"><ele>554.0</ele><time>2026-03-28T10:48:46Z</time></trkpt><trkpt lat="40.71492364538069" lon="9.326077671009537"><ele>554.0</ele><time>2026-03-28T10:48:47Z</time></trkpt><trkpt lat="40.71498624787501" lon="9.326161817559488"><ele>554.0</ele><time>2026-03-28T10:48:48Z</time></trkpt><trkpt lat="40.71503463723482" lon="9.32625539325336"><ele>554.0</ele><time>2026-03-28T10:48:49Z</time></trkpt><trkpt lat="40.715076867456474" lon="9.32635115117384"><ele>554.0</ele><time>2026-03-28T10:48:49.999Z</time></trkpt><trkpt lat="40.71512374369202" lon="9.326450103586875"><ele>554.0</ele><time>2026-03-28T10:48:50.999Z</time></trkpt><trkpt lat="40.71514652764239" lon="9.32654392865827"><ele>554.0</ele><time>2026-03-28T10:48:51.999Z</time></trkpt><trkpt lat="40.71513308114026" lon="9.326732285676501"><ele>554.0</ele><time>2026-03-28T10:48:53.999Z</time></trkpt><trkpt lat="40.715107825584255" lon="9.326850701522467"><ele>554.6</ele><time>2026-03-28T10:48:54.999Z</time></trkpt><trkpt lat="40.71509708471317" lon="9.32694182652232"><ele>555.2</ele><time>2026-03-28T10:48:55.999Z</time></trkpt><trkpt lat="40.71517299462177" lon="9.32708624854078"><ele>555.8000000000001</ele><time>2026-03-28T10:48:57.999Z</time></trkpt><trkpt lat="40.71526872719749" lon="9.327139603030197"><ele>556.4</ele><time>2026-03-28T10:48:58.999Z</time></trkpt><trkpt lat="40.715374230723725" lon="9.327187990714263"><ele>557.0</ele><time>2026-03-28T10:48:59.999Z</time></trkpt><trkpt lat="40.71547418129463" lon="9.32723761939371"><ele>555.4</ele><time>2026-03-28T10:49:00.999Z</time></trkpt><trkpt lat="40.7155505071297" lon="9.327270952581056"><ele>553.8000000000001</ele><time>2026-03-28T10:49:01.999Z</time></trkpt><trkpt lat="40.71565683421592" lon="9.327310397766675"><ele>552.2</ele><time>2026-03-28T10:49:03.999Z</time></trkpt><trkpt lat="40.71575836463784" lon="9.327382214328631"><ele>550.6</ele><time>2026-03-28T10:49:05.999Z</time></trkpt><trkpt lat="40.71582282213533" lon="9.327446996515915"><ele>549.0</ele><time>2026-03-28T10:49:06.999Z</time></trkpt><trkpt lat="40.7158947298838" lon="9.327521282637294"><ele>549.0</ele><time>2026-03-28T10:49:07.999Z</time></trkpt><trkpt lat="40.715973489474884" lon="9.327587407772864"><ele>549.0</ele><time>2026-03-28T10:49:08.999Z</time></trkpt><trkpt lat="40.71606128037019" lon="9.32764051523048"><ele>549.0</ele><time>2026-03-28T10:49:09.999Z</time></trkpt><trkpt lat="40.71614244799465" lon="9.327687188610541"><ele>549.0</ele><time>2026-03-28T10:49:10.999Z</time></trkpt><trkpt lat="40.71622577201976" lon="9.327739696281599"><ele>549.0</ele><time>2026-03-28T10:49:11.999Z</time></trkpt><trkpt lat="40.71632255714904" lon="9.327803665413574"><ele>548.8</ele><time>2026-03-28T10:49:12.999Z</time></trkpt><trkpt lat="40.71642063487114" lon="9.327869640290753"><ele>548.5999999999999</ele><time>2026-03-28T10:49:13.999Z</time></trkpt><trkpt lat="40.71651344759435" lon="9.327936981779047"><ele>548.4</ele><time>2026-03-28T10:49:14.999Z</time></trkpt><trkpt lat="40.716601746836055" lon="9.328006376466742"><ele>548.1999999999999</ele><time>2026-03-28T10:49:15.999Z</time></trkpt><trkpt lat="40.7166847623462" lon="9.328076490181012"><ele>548.0</ele><time>2026-03-28T10:49:16.999Z</time></trkpt><trkpt lat="40.71676440565294" lon="9.3281566552357"><ele>548.0</ele><time>2026-03-28T10:49:17.999Z</time></trkpt><trkpt lat="40.71684181913785" lon="9.328241232365059"><ele>548.0</ele><time>2026-03-28T10:49:18.999Z</time></trkpt><trkpt lat="40.71692477724573" lon="9.328325617735484"><ele>548.0</ele><time>2026-03-28T10:49:19.999Z</time></trkpt><trkpt lat="40.71700475402506" lon="9.328409057271706"><ele>548.0</ele><time>2026-03-28T10:49:20.999Z</time></trkpt><trkpt lat="40.71709090517314" lon="9.328486936729414"><ele>548.0</ele><time>2026-03-28T10:49:21.999Z</time></trkpt><trkpt lat="40.71718704640393" lon="9.328546720487473"><ele>543.5</ele><time>2026-03-28T10:49:22.999Z</time></trkpt><trkpt lat="40.7172953992124" lon="9.328592433486781"><ele>539.0</ele><time>2026-03-28T10:49:23.999Z</time></trkpt><trkpt lat="40.71740272002511" lon="9.32863941400218"><ele>534.5</ele><time>2026-03-28T10:49:24.999Z</time></trkpt><trkpt lat="40.71750655270563" lon="9.328694232989905"><ele>530.0</ele><time>2026-03-28T10:49:25.999Z</time></trkpt><trkpt lat="40.71761220089934" lon="9.328757647360726"><ele>530.0</ele><time>2026-03-28T10:49:26.999Z</time></trkpt><trkpt lat="40.71772558726405" lon="9.328843987772315"><ele>530.0</ele><time>2026-03-28T10:49:27.999Z</time></trkpt><trkpt lat="40.717839809049224" lon="9.328950604894889"><ele>530.0</ele><time>2026-03-28T10:49:28.999Z</time></trkpt><trkpt lat="40.71795218422278" lon="9.329065288739784"><ele>530.0</ele><time>2026-03-28T10:49:29.999Z</time></trkpt><trkpt lat="40.718061584228536" lon="9.329180720983878"><ele>528.75</ele><time>2026-03-28T10:49:30.999Z</time></trkpt><trkpt lat="40.718159215822425" lon="9.329298247419347"><ele>527.5</ele><time>2026-03-28T10:49:31.999Z</time></trkpt><trkpt lat="40.71824909492945" lon="9.329408881744719"><ele>526.25</ele><time>2026-03-28T10:49:32.999Z</time></trkpt><trkpt lat="40.718341049479044" lon="9.32951070150369"><ele>525.0</ele><time>2026-03-28T10:49:33.999Z</time></trkpt><trkpt lat="40.718432688596366" lon="9.329601385541011"><ele>525.0</ele><time>2026-03-28T10:49:34.999Z</time></trkpt><trkpt lat="40.718526351287466" lon="9.329686290530745"><ele>525.0</ele><time>2026-03-28T10:49:35.999Z</time></trkpt><trkpt lat="40.7186279469049" lon="9.32978395463943"><ele>525.0</ele><time>2026-03-28T10:49:36.999Z</time></trkpt><trkpt lat="40.718740707617506" lon="9.32989028745347"><ele>525.0</ele><time>2026-03-28T10:49:37.999Z</time></trkpt><trkpt lat="40.71886164931252" lon="9.329998111922773"><ele>524.5</ele><time>2026-03-28T10:49:38.999Z</time></trkpt><trkpt lat="40.71897629795779" lon="9.330095193137224"><ele>524.0</ele><time>2026-03-28T10:49:39.999Z</time></trkpt><trkpt lat="40.71908771916622" lon="9.330181045762009"><ele>523.5</ele><time>2026-03-28T10:49:40.999Z</time></trkpt><trkpt lat="40.719197532756695" lon="9.33027337205713"><ele>523.0</ele><time>2026-03-28T10:49:41.999Z</time></trkpt><trkpt lat="40.71930504888606" lon="9.330379224987855"><ele>523.0</ele><time>2026-03-28T10:49:42.999Z</time></trkpt><trkpt lat="40.719398758148664" lon="9.330489627231378"><ele>523.0</ele><time>2026-03-28T10:49:43.999Z</time></trkpt><trkpt lat="40.719482617938226" lon="9.330606837551477"><ele>523.0</ele><time>2026-03-28T10:49:45Z</time></trkpt><trkpt lat="40.71955447680666" lon="9.330734492493692"><ele>523.0</ele><time>2026-03-28T10:49:46Z</time></trkpt><trkpt lat="40.71961625726591" lon="9.330866505792214"><ele>522.25</ele><time>2026-03-28T10:49:47Z</time></trkpt><trkpt lat="40.719678537618506" lon="9.330989499787249"><ele>521.5</ele><time>2026-03-28T10:49:48Z</time></trkpt><trkpt lat="40.719750306200766" lon="9.331082188381423"><ele>520.75</ele><time>2026-03-28T10:49:49Z</time></trkpt><trkpt lat="40.7198479784497" lon="9.331153137361811"><ele>520.0</ele><time>2026-03-28T10:49:50Z</time></trkpt><trkpt lat="40.71997106416561" lon="9.331212302228135"><ele>520.0</ele><time>2026-03-28T10:49:51Z</time></trkpt><trkpt lat="40.72010274217753" lon="9.33127803042826"><ele>520.0</ele><time>2026-03-28T10:49:52Z</time></trkpt><trkpt lat="40.720227765427865" lon="9.33135672618724"><ele>520.0</ele><time>2026-03-28T10:49:53Z</time></trkpt><trkpt lat="40.72034017935546" lon="9.331453556027382"><ele>520.0</ele><time>2026-03-28T10:49:54Z</time></trkpt><trkpt lat="40.720458460957865" lon="9.331584634545647"><ele>521.6666666666667</ele><time>2026-03-28T10:49:55Z</time></trkpt><trkpt lat="40.72057286557729" lon="9.331728755106605"><ele>523.3333333333334</ele><time>2026-03-28T10:49:56Z</time></trkpt><trkpt lat="40.720690233923214" lon="9.33187408370115"><ele>525.0</ele><time>2026-03-28T10:49:57Z</time></trkpt><trkpt lat="40.72079938817424" lon="9.332008289212565"><ele>525.0</ele><time>2026-03-28T10:49:58Z</time></trkpt><trkpt lat="40.720946787274535" lon="9.33218005820085"><ele>525.0</ele><time>2026-03-28T10:49:59Z</time></trkpt><trkpt lat="40.72106805456891" lon="9.332350326071266"><ele>525.0</ele><time>2026-03-28T10:50:00Z</time></trkpt><trkpt lat="40.721173139199976" lon="9.33251901068374"><ele>526.5</ele><time>2026-03-28T10:50:01Z</time></trkpt><trkpt lat="40.72125240568298" lon="9.332672185067352"><ele>528.0</ele><time>2026-03-28T10:50:02Z</time></trkpt><trkpt lat="40.721335382832535" lon="9.33282340866522"><ele>529.5</ele><time>2026-03-28T10:50:03Z</time></trkpt><trkpt lat="40.72143815430196" lon="9.332984762950307"><ele>531.0</ele><time>2026-03-28T10:50:04Z</time></trkpt><trkpt lat="40.72155622868556" lon="9.33315268112712"><ele>523.6666666666666</ele><time>2026-03-28T10:50:05Z</time></trkpt><trkpt lat="40.72166330401487" lon="9.333306234399322"><ele>516.3333333333333</ele><time>2026-03-28T10:50:06Z</time></trkpt><trkpt lat="40.72176571437621" lon="9.333453269747153"><ele>509.0</ele><time>2026-03-28T10:50:07Z</time></trkpt><trkpt lat="40.721872105211126" lon="9.333585233621505"><ele>506.66666666666663</ele><time>2026-03-28T10:50:08Z</time></trkpt><trkpt lat="40.72199513261445" lon="9.333715549079448"><ele>504.33333333333337</ele><time>2026-03-28T10:50:09Z</time></trkpt><trkpt lat="40.722117387128066" lon="9.333840589133121"><ele>502.0</ele><time>2026-03-28T10:50:10Z</time></trkpt><trkpt lat="40.72224724025436" lon="9.333950963639786"><ele>502.0</ele><time>2026-03-28T10:50:11Z</time></trkpt><trkpt lat="40.72239533845006" lon="9.334055551233089"><ele>502.0</ele><time>2026-03-28T10:50:12Z</time></trkpt><trkpt lat="40.722555174008015" lon="9.334167868771036"><ele>502.0</ele><time>2026-03-28T10:50:13Z</time></trkpt><trkpt lat="40.722697555890804" lon="9.334281423077561"><ele>501.75</ele><time>2026-03-28T10:50:14Z</time></trkpt><trkpt lat="40.72282438656246" lon="9.334386062931658"><ele>501.5</ele><time>2026-03-28T10:50:15Z</time></trkpt><trkpt lat="40.72294254924634" lon="9.334490155655988"><ele>501.25</ele><time>2026-03-28T10:50:16Z</time></trkpt><trkpt lat="40.723053770961194" lon="9.334595248394569"><ele>501.0</ele><time>2026-03-28T10:50:17Z</time></trkpt><trkpt lat="40.72316542397187" lon="9.334725095510695"><ele>501.0</ele><time>2026-03-28T10:50:18Z</time></trkpt><trkpt lat="40.723271969150524" lon="9.334873733246013"><ele>501.0</ele><time>2026-03-28T10:50:19Z</time></trkpt><trkpt lat="40.72335454790718" lon="9.33502169269187"><ele>501.0</ele><time>2026-03-28T10:50:20Z</time></trkpt><trkpt lat="40.72341976524614" lon="9.335164609625359"><ele>501.0</ele><time>2026-03-28T10:50:21Z</time></trkpt><trkpt lat="40.72347590368002" lon="9.335316837262422"><ele>501.0</ele><time>2026-03-28T10:50:22Z</time></trkpt><trkpt lat="40.72351903954332" lon="9.335485692425292"><ele>501.0</ele><time>2026-03-28T10:50:23Z</time></trkpt><trkpt lat="40.7235522449204" lon="9.335650191254468"><ele>501.0</ele><time>2026-03-28T10:50:24Z</time></trkpt><trkpt lat="40.72359081054614" lon="9.335793045333816"><ele>501.0</ele><time>2026-03-28T10:50:25Z</time></trkpt><trkpt lat="40.72362945000532" lon="9.335922834969072"><ele>499.75</ele><time>2026-03-28T10:50:26Z</time></trkpt><trkpt lat="40.72369399008317" lon="9.33603969807021"><ele>498.5</ele><time>2026-03-28T10:50:27Z</time></trkpt><trkpt lat="40.72378189321893" lon="9.336141671258986"><ele>497.25</ele><time>2026-03-28T10:50:28Z</time></trkpt><trkpt lat="40.723886860508124" lon="9.336216980050686"><ele>496.0</ele><time>2026-03-28T10:50:29Z</time></trkpt><trkpt lat="40.72400053925561" lon="9.336256551263832"><ele>496.0</ele><time>2026-03-28T10:50:30Z</time></trkpt><trkpt lat="40.72413642849855" lon="9.336259762189561"><ele>496.0</ele><time>2026-03-28T10:50:31Z</time></trkpt><trkpt lat="40.724303844943854" lon="9.33622189785031"><ele>496.0</ele><time>2026-03-28T10:50:32Z</time></trkpt><trkpt lat="40.72448701617318" lon="9.336176489550027"><ele>494.33333333333337</ele><time>2026-03-28T10:50:33Z</time></trkpt><trkpt lat="40.724674992071535" lon="9.336155501328493"><ele>492.66666666666663</ele><time>2026-03-28T10:50:34Z</time></trkpt><trkpt lat="40.72484516873069" lon="9.336144704720406"><ele>491.0</ele><time>2026-03-28T10:50:35Z</time></trkpt><trkpt lat="40.72500793776722" lon="9.336134140288014"><ele>491.0</ele><time>2026-03-28T10:50:36Z</time></trkpt><trkpt lat="40.725179942528165" lon="9.336138052451702"><ele>491.0</ele><time>2026-03-28T10:50:37Z</time></trkpt><trkpt lat="40.72534883146622" lon="9.33614862160683"><ele>491.0</ele><time>2026-03-28T10:50:38Z</time></trkpt><trkpt lat="40.72550301322828" lon="9.336160570617187"><ele>492.5</ele><time>2026-03-28T10:50:39Z</time></trkpt><trkpt lat="40.725648697198004" lon="9.336173194959468"><ele>494.0</ele><time>2026-03-28T10:50:40Z</time></trkpt><trkpt lat="40.725775676896774" lon="9.33621380704015"><ele>495.5</ele><time>2026-03-28T10:50:41Z</time></trkpt><trkpt lat="40.725922848728096" lon="9.336267406276272"><ele>497.0</ele><time>2026-03-28T10:50:42Z</time></trkpt><trkpt lat="40.726069331813584" lon="9.336335850216345"><ele>496.0</ele><time>2026-03-28T10:50:43Z</time></trkpt><trkpt lat="40.726197753261026" lon="9.336416885505718"><ele>495.0</ele><time>2026-03-28T10:50:44Z</time></trkpt><trkpt lat="40.72630032051622" lon="9.336521832803754"><ele>494.0</ele><time>2026-03-28T10:50:45Z</time></trkpt><trkpt lat="40.726388155413616" lon="9.336659066772063"><ele>493.0</ele><time>2026-03-28T10:50:46Z</time></trkpt><trkpt lat="40.72645815803426" lon="9.336826697232882"><ele>493.0</ele><time>2026-03-28T10:50:47Z</time></trkpt><trkpt lat="40.72650505649197" lon="9.337006202368354"><ele>493.0</ele><time>2026-03-28T10:50:48Z</time></trkpt><trkpt lat="40.726541054549166" lon="9.337179189587555"><ele>493.0</ele><time>2026-03-28T10:50:49Z</time></trkpt><trkpt lat="40.72659997455715" lon="9.337360805690373"><ele>493.0</ele><time>2026-03-28T10:50:50Z</time></trkpt><trkpt lat="40.72668144628214" lon="9.337552969043388"><ele>489.33333333333337</ele><time>2026-03-28T10:50:50.999Z</time></trkpt><trkpt lat="40.72677466264187" lon="9.337739265396019"><ele>485.66666666666663</ele><time>2026-03-28T10:50:51.999Z</time></trkpt><trkpt lat="40.72687473607138" lon="9.337909478650227"><ele>482.0</ele><time>2026-03-28T10:50:52.999Z</time></trkpt><trkpt lat="40.72698322597232" lon="9.338054237404187"><ele>480.66666666666663</ele><time>2026-03-28T10:50:53.999Z</time></trkpt><trkpt lat="40.72711054771894" lon="9.338199764782381"><ele>479.33333333333337</ele><time>2026-03-28T10:50:54.999Z</time></trkpt><trkpt lat="40.72724439149451" lon="9.338336464782053"><ele>478.0</ele><time>2026-03-28T10:50:55.999Z</time></trkpt><trkpt lat="40.727354627855135" lon="9.338467860924933"><ele>478.0</ele><time>2026-03-28T10:50:56.999Z</time></trkpt><trkpt lat="40.727429904851114" lon="9.338597538443173"><ele>477.99999999999994</ele><time>2026-03-28T10:50:57.999Z</time></trkpt><trkpt lat="40.72747448263014" lon="9.33873062349359"><ele>477.99999999999994</ele><time>2026-03-28T10:50:58.999Z</time></trkpt><trkpt lat="40.727492709203005" lon="9.338865629345761"><ele>478.0</ele><time>2026-03-28T10:50:59.999Z</time></trkpt><trkpt lat="40.72750284401102" lon="9.338997568626766"><ele>478.0</ele><time>2026-03-28T10:51:00.999Z</time></trkpt><trkpt lat="40.72754268694961" lon="9.339091607550117"><ele>478.0</ele><time>2026-03-28T10:51:01.999Z</time></trkpt><trkpt lat="40.727623909476435" lon="9.339150316644568"><ele>478.0</ele><time>2026-03-28T10:51:02.999Z</time></trkpt><trkpt lat="40.72773038640999" lon="9.339212370317327"><ele>478.0</ele><time>2026-03-28T10:51:03.999Z</time></trkpt><trkpt lat="40.727846087163705" lon="9.33928559092483"><ele>478.0</ele><time>2026-03-28T10:51:04.999Z</time></trkpt><trkpt lat="40.72794162249742" lon="9.33937788070466"><ele>477.25</ele><time>2026-03-28T10:51:05.999Z</time></trkpt><trkpt lat="40.728015110052134" lon="9.33951009207027"><ele>476.5</ele><time>2026-03-28T10:51:06.999Z</time></trkpt><trkpt lat="40.72806724742412" lon="9.339688397143446"><ele>475.75</ele><time>2026-03-28T10:51:07.999Z</time></trkpt><trkpt lat="40.728107426659896" lon="9.339907194063853"><ele>475.0</ele><time>2026-03-28T10:51:08.999Z</time></trkpt><trkpt lat="40.728141463085954" lon="9.34015030461874"><ele>475.0</ele><time>2026-03-28T10:51:09.999Z</time></trkpt><trkpt lat="40.728197745371666" lon="9.340401677260498"><ele>475.0</ele><time>2026-03-28T10:51:10.999Z</time></trkpt><trkpt lat="40.728272079625754" lon="9.340657011013692"><ele>475.0</ele><time>2026-03-28T10:51:11.999Z</time></trkpt><trkpt lat="40.7283469568214" lon="9.340895491336555"><ele>477.6666666666667</ele><time>2026-03-28T10:51:12.999Z</time></trkpt><trkpt lat="40.72841730323666" lon="9.341110043645378"><ele>480.33333333333337</ele><time>2026-03-28T10:51:13.999Z</time></trkpt><trkpt lat="40.728486214278725" lon="9.3413066824097"><ele>483.0</ele><time>2026-03-28T10:51:14.999Z</time></trkpt><trkpt lat="40.728559208479936" lon="9.341484651368903"><ele>480.75</ele><time>2026-03-28T10:51:15.999Z</time></trkpt><trkpt lat="40.72864288972881" lon="9.341637387047774"><ele>478.5</ele><time>2026-03-28T10:51:16.999Z</time></trkpt><trkpt lat="40.72874916661029" lon="9.341758805519953"><ele>476.25</ele><time>2026-03-28T10:51:17.999Z</time></trkpt><trkpt lat="40.728888633641496" lon="9.341850044396674"><ele>474.0</ele><time>2026-03-28T10:51:18.999Z</time></trkpt><trkpt lat="40.729053614023066" lon="9.341943025598965"><ele>474.0</ele><time>2026-03-28T10:51:19.999Z</time></trkpt><trkpt lat="40.72920851611924" lon="9.34201224823295"><ele>474.0</ele><time>2026-03-28T10:51:20.999Z</time></trkpt><trkpt lat="40.729349889922794" lon="9.342063161909326"><ele>474.0</ele><time>2026-03-28T10:51:21.999Z</time></trkpt><trkpt lat="40.72948652785903" lon="9.34209486568965"><ele>474.0</ele><time>2026-03-28T10:51:22.999Z</time></trkpt><trkpt lat="40.729633209781504" lon="9.342139437307708"><ele>473.75</ele><time>2026-03-28T10:51:23.999Z</time></trkpt><trkpt lat="40.72977197411711" lon="9.342216168087218"><ele>473.5</ele><time>2026-03-28T10:51:24.999Z</time></trkpt><trkpt lat="40.72990470369226" lon="9.342287347363067"><ele>473.25</ele><time>2026-03-28T10:51:25.999Z</time></trkpt><trkpt lat="40.73001906428849" lon="9.342389823949576"><ele>473.0</ele><time>2026-03-28T10:51:26.999Z</time></trkpt><trkpt lat="40.73011281530205" lon="9.342546970464255"><ele>473.0</ele><time>2026-03-28T10:51:27.999Z</time></trkpt><trkpt lat="40.73020522277708" lon="9.342729787335564"><ele>473.0</ele><time>2026-03-28T10:51:28.999Z</time></trkpt><trkpt lat="40.73033743535484" lon="9.342861357977092"><ele>473.0</ele><time>2026-03-28T10:51:29.999Z</time></trkpt><trkpt lat="40.730509919567524" lon="9.342992797020568"><ele>473.0</ele><time>2026-03-28T10:51:30.999Z</time></trkpt><trkpt lat="40.73067781835296" lon="9.343128481244838"><ele>473.0</ele><time>2026-03-28T10:51:31.999Z</time></trkpt><trkpt lat="40.73083413616931" lon="9.343280932779502"><ele>473.0</ele><time>2026-03-28T10:51:32.999Z</time></trkpt><trkpt lat="40.73097166452831" lon="9.343439756311932"><ele>472.66666666666663</ele><time>2026-03-28T10:51:33.999Z</time></trkpt><trkpt lat="40.73111557251435" lon="9.343624603093946"><ele>472.33333333333337</ele><time>2026-03-28T10:51:34.999Z</time></trkpt><trkpt lat="40.73125339447425" lon="9.343821970227426"><ele>472.0</ele><time>2026-03-28T10:51:35.999Z</time></trkpt><trkpt lat="40.731396120627075" lon="9.344023048482935"><ele>472.0</ele><time>2026-03-28T10:51:36.999Z</time></trkpt><trkpt lat="40.731536383226945" lon="9.34421278902911"><ele>472.0</ele><time>2026-03-28T10:51:37.999Z</time></trkpt><trkpt lat="40.73166176180274" lon="9.34438068451814"><ele>472.0</ele><time>2026-03-28T10:51:38.999Z</time></trkpt><trkpt lat="40.73177752353304" lon="9.34454418828646"><ele>472.6666666666667</ele><time>2026-03-28T10:51:39.999Z</time></trkpt><trkpt lat="40.731890774392355" lon="9.344706796894446"><ele>473.33333333333337</ele><time>2026-03-28T10:51:40.999Z</time></trkpt><trkpt lat="40.731998962474286" lon="9.344862414479332"><ele>474.0</ele><time>2026-03-28T10:51:41.999Z</time></trkpt><trkpt lat="40.732120417660454" lon="9.345014146603685"><ele>474.0</ele><time>2026-03-28T10:51:42.999Z</time></trkpt><trkpt lat="40.73226946897761" lon="9.345156730115955"><ele>474.0</ele><time>2026-03-28T10:51:43.999Z</time></trkpt><trkpt lat="40.73244497560209" lon="9.34530255287657"><ele>474.0</ele><time>2026-03-28T10:51:44.999Z</time></trkpt><trkpt lat="40.73262458588588" lon="9.345435374272967"><ele>475.0</ele><time>2026-03-28T10:51:45.999Z</time></trkpt><trkpt lat="40.7327747479678" lon="9.345558537266522"><ele>476.0</ele><time>2026-03-28T10:51:46.999Z</time></trkpt><trkpt lat="40.73291073676781" lon="9.345676606967139"><ele>477.0</ele><time>2026-03-28T10:51:47.999Z</time></trkpt><trkpt lat="40.73304548672389" lon="9.345789277647418"><ele>477.0</ele><time>2026-03-28T10:51:48.999Z</time></trkpt><trkpt lat="40.73319439673535" lon="9.345889076592385"><ele>477.0</ele><time>2026-03-28T10:51:49.999Z</time></trkpt><trkpt lat="40.733365232921976" lon="9.345978767169909"><ele>477.0</ele><time>2026-03-28T10:51:51Z</time></trkpt><trkpt lat="40.73354105666927" lon="9.34607202706705"><ele>474.66666666666663</ele><time>2026-03-28T10:51:52Z</time></trkpt><trkpt lat="40.733704557021305" lon="9.346163818094423"><ele>472.3333333333333</ele><time>2026-03-28T10:51:53Z</time></trkpt><trkpt lat="40.73385528140948" lon="9.346248159576296"><ele>470.0</ele><time>2026-03-28T10:51:54Z</time></trkpt><trkpt lat="40.73399285828321" lon="9.346329386339955"><ele>469.0</ele><time>2026-03-28T10:51:55Z</time></trkpt><trkpt lat="40.73412354692308" lon="9.346413439592792"><ele>468.0</ele><time>2026-03-28T10:51:56Z</time></trkpt><trkpt lat="40.73423799588682" lon="9.346506229594477"><ele>467.0</ele><time>2026-03-28T10:51:57Z</time></trkpt><trkpt lat="40.73433293177826" lon="9.346637464491208"><ele>466.0</ele><time>2026-03-28T10:51:58Z</time></trkpt><trkpt lat="40.734412952888114" lon="9.346824712192914"><ele>466.0</ele><time>2026-03-28T10:51:59Z</time></trkpt><trkpt lat="40.73449517230534" lon="9.347019469901195"><ele>466.0</ele><time>2026-03-28T10:52:00Z</time></trkpt><trkpt lat="40.73458479230686" lon="9.347182897346306"><ele>466.0</ele><time>2026-03-28T10:52:01Z</time></trkpt><trkpt lat="40.7346888108271" lon="9.347315196280224"><ele>465.6666666666667</ele><time>2026-03-28T10:52:02Z</time></trkpt><trkpt lat="40.734815569207505" lon="9.347422215832461"><ele>465.33333333333337</ele><time>2026-03-28T10:52:03Z</time></trkpt><trkpt lat="40.734974453949974" lon="9.347521999994704"><ele>465.0</ele><time>2026-03-28T10:52:04Z</time></trkpt><trkpt lat="40.73514398241257" lon="9.347631706197362"><ele>462.0</ele><time>2026-03-28T10:52:05Z</time></trkpt><trkpt lat="40.73530354660926" lon="9.347747318871107"><ele>459.0</ele><time>2026-03-28T10:52:06Z</time></trkpt><trkpt lat="40.73545246313349" lon="9.347866415687744"><ele>456.0</ele><time>2026-03-28T10:52:07Z</time></trkpt><trkpt lat="40.73559286809738" lon="9.347999484081072"><ele>455.33333333333337</ele><time>2026-03-28T10:52:08Z</time></trkpt><trkpt lat="40.73571683405176" lon="9.348157241208146"><ele>454.6666666666667</ele><time>2026-03-28T10:52:09Z</time></trkpt><trkpt lat="40.73584099004724" lon="9.348340496092417"><ele>454.0</ele><time>2026-03-28T10:52:10Z</time></trkpt><trkpt lat="40.73596728622491" lon="9.348528029807127"><ele>452.6666666666667</ele><time>2026-03-28T10:52:11Z</time></trkpt><trkpt lat="40.7360980335242" lon="9.348720756515268"><ele>451.33333333333337</ele><time>2026-03-28T10:52:12Z</time></trkpt><trkpt lat="40.736211903184326" lon="9.348922382171738"><ele>450.0</ele><time>2026-03-28T10:52:13Z</time></trkpt><trkpt lat="40.73630448806332" lon="9.349111569875543"><ele>449.0</ele><time>2026-03-28T10:52:14Z</time></trkpt><trkpt lat="40.73649272013042" lon="9.349371523158528"><ele>448.0</ele><time>2026-03-28T10:52:15Z</time></trkpt><trkpt lat="40.73666725424452" lon="9.349640904995924"><ele>448.5</ele><time>2026-03-28T10:52:16Z</time></trkpt><trkpt lat="40.73684252348226" lon="9.34993238300249"><ele>449.0</ele><time>2026-03-28T10:52:17Z</time></trkpt><trkpt lat="40.73692255958589" lon="9.350143259680689"><ele>449.0</ele><time>2026-03-28T10:52:18Z</time></trkpt><trkpt lat="40.737035457542795" lon="9.35038270091638"><ele>449.0</ele><time>2026-03-28T10:52:19Z</time></trkpt><trkpt lat="40.737138856720605" lon="9.350609943176545"><ele>449.0</ele><time>2026-03-28T10:52:20Z</time></trkpt><trkpt lat="40.737245405797644" lon="9.350822076345708"><ele>449.0</ele><time>2026-03-28T10:52:21Z</time></trkpt><trkpt lat="40.73735233435424" lon="9.351033298931673"><ele>449.0</ele><time>2026-03-28T10:52:22Z</time></trkpt><trkpt lat="40.73745843193416" lon="9.351245390116826"><ele>449.0</ele><time>2026-03-28T10:52:23Z</time></trkpt><trkpt lat="40.73756300746055" lon="9.351457913116956"><ele>449.0</ele><time>2026-03-28T10:52:24Z</time></trkpt><trkpt lat="40.737658360219406" lon="9.35165481917974"><ele>449.0</ele><time>2026-03-28T10:52:25Z</time></trkpt><trkpt lat="40.737750777581255" lon="9.351840077298611"><ele>449.0</ele><time>2026-03-28T10:52:26Z</time></trkpt><trkpt lat="40.737846845816414" lon="9.352032012732815"><ele>450.3333333333333</ele><time>2026-03-28T10:52:27Z</time></trkpt><trkpt lat="40.73794116667353" lon="9.352216017078396"><ele>451.66666666666663</ele><time>2026-03-28T10:52:28Z</time></trkpt><trkpt lat="40.73802596973579" lon="9.352386764063823"><ele>453.0</ele><time>2026-03-28T10:52:29Z</time></trkpt><trkpt lat="40.73810828080216" lon="9.352554056133826"><ele>453.0</ele><time>2026-03-28T10:52:30Z</time></trkpt><trkpt lat="40.73819366192501" lon="9.352739491999735"><ele>453.0</ele><time>2026-03-28T10:52:31Z</time></trkpt><trkpt lat="40.738257135125544" lon="9.352930554334144"><ele>453.0</ele><time>2026-03-28T10:52:32Z</time></trkpt><trkpt lat="40.73831761656483" lon="9.353131005174683"><ele>453.0</ele><time>2026-03-28T10:52:33Z</time></trkpt><trkpt lat="40.73837571929302" lon="9.353350775933396"><ele>453.0</ele><time>2026-03-28T10:52:34Z</time></trkpt><trkpt lat="40.73843338274367" lon="9.353579232881119"><ele>453.0</ele><time>2026-03-28T10:52:35Z</time></trkpt><trkpt lat="40.738493403452445" lon="9.353809804962502"><ele>453.33333333333337</ele><time>2026-03-28T10:52:36Z</time></trkpt><trkpt lat="40.738560814156266" lon="9.354044539393625"><ele>453.6666666666667</ele><time>2026-03-28T10:52:37Z</time></trkpt><trkpt lat="40.738627234437914" lon="9.3542700242803"><ele>454.0</ele><time>2026-03-28T10:52:38Z</time></trkpt><trkpt lat="40.73868644391067" lon="9.35447727886785"><ele>454.0</ele><time>2026-03-28T10:52:39Z</time></trkpt><trkpt lat="40.73874193614676" lon="9.35466514102919"><ele>454.0</ele><time>2026-03-28T10:52:40Z</time></trkpt><trkpt lat="40.738794168283576" lon="9.354844455382361"><ele>454.0</ele><time>2026-03-28T10:52:41Z</time></trkpt><trkpt lat="40.73883459472988" lon="9.355012057581316"><ele>454.0</ele><time>2026-03-28T10:52:42Z</time></trkpt><trkpt lat="40.73885926130763" lon="9.355206159590152"><ele>453.6666666666667</ele><time>2026-03-28T10:52:43Z</time></trkpt><trkpt lat="40.73886787926753" lon="9.355424761634886"><ele>453.33333333333337</ele><time>2026-03-28T10:52:44Z</time></trkpt><trkpt lat="40.738873920688974" lon="9.355620487336617"><ele>453.0</ele><time>2026-03-28T10:52:45Z</time></trkpt><trkpt lat="40.73890125500009" lon="9.355801651878627"><ele>453.0</ele><time>2026-03-28T10:52:46Z</time></trkpt><trkpt lat="40.738951648423736" lon="9.355992410602145"><ele>453.0</ele><time>2026-03-28T10:52:47Z</time></trkpt><trkpt lat="40.73901196870141" lon="9.356194933371356"><ele>453.0</ele><time>2026-03-28T10:52:48Z</time></trkpt><trkpt lat="40.739076260580084" lon="9.35638998391518"><ele>453.75</ele><time>2026-03-28T10:52:49Z</time></trkpt><trkpt lat="40.73914893124337" lon="9.356565933756077"><ele>454.5</ele><time>2026-03-28T10:52:49.999Z</time></trkpt><trkpt lat="40.7392344062271" lon="9.356713847012292"><ele>455.25</ele><time>2026-03-28T10:52:50.999Z</time></trkpt><trkpt lat="40.73932514770244" lon="9.356858852823818"><ele>456.0</ele><time>2026-03-28T10:52:51.999Z</time></trkpt><trkpt lat="40.73941223592237" lon="9.356985677811416"><ele>456.0</ele><time>2026-03-28T10:52:52.999Z</time></trkpt><trkpt lat="40.73949685747827" lon="9.35711059599201"><ele>456.0</ele><time>2026-03-28T10:52:53.999Z</time></trkpt><trkpt lat="40.7395802974698" lon="9.357246378064321"><ele>456.0</ele><time>2026-03-28T10:52:54.999Z</time></trkpt><trkpt lat="40.73967007079275" lon="9.357384457821311"><ele>456.0</ele><time>2026-03-28T10:52:55.999Z</time></trkpt><trkpt lat="40.739762759913255" lon="9.357529445852114"><ele>456.33333333333337</ele><time>2026-03-28T10:52:56.999Z</time></trkpt><trkpt lat="40.73985115293913" lon="9.357683117141379"><ele>456.6666666666667</ele><time>2026-03-28T10:52:57.999Z</time></trkpt><trkpt lat="40.73994411110751" lon="9.357852676620176"><ele>457.0</ele><time>2026-03-28T10:52:58.999Z</time></trkpt><trkpt lat="40.74004613881999" lon="9.358013376935899"><ele>457.6666666666667</ele><time>2026-03-28T10:52:59.999Z</time></trkpt><trkpt lat="40.740150608659455" lon="9.358163559278022"><ele>458.33333333333337</ele><time>2026-03-28T10:53:00.999Z</time></trkpt><trkpt lat="40.740260142733476" lon="9.358305994126303"><ele>459.0</ele><time>2026-03-28T10:53:01.999Z</time></trkpt><trkpt lat="40.74037406229917" lon="9.358446157569867"><ele>459.0</ele><time>2026-03-28T10:53:02.999Z</time></trkpt><trkpt lat="40.740482299243624" lon="9.358566238396156"><ele>459.0</ele><time>2026-03-28T10:53:03.999Z</time></trkpt><trkpt lat="40.740589886344914" lon="9.358673921111858"><ele>459.0</ele><time>2026-03-28T10:53:04.999Z</time></trkpt><trkpt lat="40.740695158224696" lon="9.35879204943485"><ele>459.0</ele><time>2026-03-28T10:53:05.999Z</time></trkpt><trkpt lat="40.74078136964034" lon="9.358911606170135"><ele>461.25</ele><time>2026-03-28T10:53:06.999Z</time></trkpt><trkpt lat="40.74085184819116" lon="9.359046163005184"><ele>463.5</ele><time>2026-03-28T10:53:07.999Z</time></trkpt><trkpt lat="40.74088544591159" lon="9.359202843383029"><ele>465.75</ele><time>2026-03-28T10:53:08.999Z</time></trkpt><trkpt lat="40.74089770187363" lon="9.35942108579934"><ele>468.0</ele><time>2026-03-28T10:53:09.999Z</time></trkpt><trkpt lat="40.740895969601766" lon="9.35965524619944"><ele>467.33333333333337</ele><time>2026-03-28T10:53:10.999Z</time></trkpt><trkpt lat="40.740906973844105" lon="9.359887132636159"><ele>466.6666666666667</ele><time>2026-03-28T10:53:11.999Z</time></trkpt><trkpt lat="40.740932072234706" lon="9.360119400591161"><ele>466.0</ele><time>2026-03-28T10:53:12.999Z</time></trkpt><trkpt lat="40.740972275936116" lon="9.3603435776337"><ele>466.6666666666667</ele><time>2026-03-28T10:53:13.999Z</time></trkpt><trkpt lat="40.74103689254231" lon="9.360582105729609"><ele>467.33333333333337</ele><time>2026-03-28T10:53:14.999Z</time></trkpt><trkpt lat="40.741104085288676" lon="9.360807771822074"><ele>468.0</ele><time>2026-03-28T10:53:15.999Z</time></trkpt><trkpt lat="40.74115884031072" lon="9.361013422708494"><ele>465.0</ele><time>2026-03-28T10:53:16.999Z</time></trkpt><trkpt lat="40.741196699234315" lon="9.361209728729515"><ele>462.0</ele><time>2026-03-28T10:53:17.999Z</time></trkpt><trkpt lat="40.74120607857808" lon="9.361415872939558"><ele>459.0</ele><time>2026-03-28T10:53:18.999Z</time></trkpt><trkpt lat="40.74119721753933" lon="9.361650191348955"><ele>459.0</ele><time>2026-03-28T10:53:19.999Z</time></trkpt><trkpt lat="40.74115957382206" lon="9.361886943398517"><ele>459.0</ele><time>2026-03-28T10:53:20.999Z</time></trkpt><trkpt lat="40.74110240290563" lon="9.362145224824324"><ele>459.0</ele><time>2026-03-28T10:53:21.999Z</time></trkpt><trkpt lat="40.741046153995654" lon="9.36240369918477"><ele>461.33333333333337</ele><time>2026-03-28T10:53:22.999Z</time></trkpt><trkpt lat="40.74100035224809" lon="9.362664712783367"><ele>463.6666666666667</ele><time>2026-03-28T10:53:23.999Z</time></trkpt><trkpt lat="40.740961568123126" lon="9.36289307917602"><ele>466.0</ele><time>2026-03-28T10:53:24.999Z</time></trkpt><trkpt lat="40.74091884054653" lon="9.363104060991773"><ele>466.0</ele><time>2026-03-28T10:53:25.999Z</time></trkpt><trkpt lat="40.74086553159496" lon="9.363299019791791"><ele>466.0</ele><time>2026-03-28T10:53:26.999Z</time></trkpt><trkpt lat="40.74080063290808" lon="9.363501786202786"><ele>466.0</ele><time>2026-03-28T10:53:27.999Z</time></trkpt><trkpt lat="40.740727138832625" lon="9.363721657621813"><ele>465.0</ele><time>2026-03-28T10:53:28.999Z</time></trkpt><trkpt lat="40.74065068768538" lon="9.363947763822754"><ele>464.0</ele><time>2026-03-28T10:53:29.999Z</time></trkpt><trkpt lat="40.74057520952161" lon="9.364189251316173"><ele>463.0</ele><time>2026-03-28T10:53:30.999Z</time></trkpt><trkpt lat="40.74049609668722" lon="9.364428687393076"><ele>463.0</ele><time>2026-03-28T10:53:31.999Z</time></trkpt><trkpt lat="40.74041641635123" lon="9.364656391837205"><ele>463.0</ele><time>2026-03-28T10:53:32.999Z</time></trkpt><trkpt lat="40.74034831302588" lon="9.36485669383407"><ele>463.0</ele><time>2026-03-28T10:53:33.999Z</time></trkpt><trkpt lat="40.74028991773581" lon="9.36502779658844"><ele>463.2</ele><time>2026-03-28T10:53:34.999Z</time></trkpt><trkpt lat="40.74023788343317" lon="9.365181359272462"><ele>463.4</ele><time>2026-03-28T10:53:35.999Z</time></trkpt><trkpt lat="40.740194631117866" lon="9.365298894059675"><ele>463.59999999999997</ele><time>2026-03-28T10:53:36.999Z</time></trkpt><trkpt lat="40.74016148638399" lon="9.365374077454712"><ele>463.79999999999995</ele><time>2026-03-28T10:53:37.999Z</time></trkpt><trkpt lat="40.74014201583902" lon="9.365466384742167"><ele>464.0</ele><time>2026-03-28T10:54:01Z</time></trkpt><trkpt lat="40.7401765153319" lon="9.365596270164483"><ele>464.16666666666663</ele><time>2026-03-28T10:54:03Z</time></trkpt><trkpt lat="40.740237573417495" lon="9.365691143411349"><ele>464.3333333333333</ele><time>2026-03-28T10:54:05Z</time></trkpt><trkpt lat="40.740310859116164" lon="9.365757652817363"><ele>464.5</ele><time>2026-03-28T11:05:13Z</time></trkpt><trkpt lat="40.74034304843526" lon="9.365848540787061"><ele>464.66666666666663</ele><time>2026-03-28T11:05:16Z</time></trkpt><trkpt lat="40.740271340155694" lon="9.36594908611256"><ele>464.8333333333333</ele><time>2026-03-28T11:05:18Z</time></trkpt><trkpt lat="40.740215711751254" lon="9.366020378148468"><ele>465.0</ele><time>2026-03-28T11:05:19Z</time></trkpt><trkpt lat="40.74014695887141" lon="9.366094001509365"><ele>466.0</ele><time>2026-03-28T11:05:20Z</time></trkpt><trkpt lat="40.74006396971838" lon="9.366161332875135"><ele>467.0</ele><time>2026-03-28T11:05:21Z</time></trkpt><trkpt lat="40.739988325668136" lon="9.366195088376363"><ele>468.0</ele><time>2026-03-28T11:05:22Z</time></trkpt><trkpt lat="40.73989413327266" lon="9.366215914889445"><ele>469.0</ele><time>2026-03-28T11:05:23Z</time></trkpt><trkpt lat="40.739793312080735" lon="9.366242534675676"><ele>470.0</ele><time>2026-03-28T11:05:24Z</time></trkpt><trkpt lat="40.739712652656884" lon="9.36629189747923"><ele>469.99999999999994</ele><time>2026-03-28T11:05:25Z</time></trkpt><trkpt lat="40.73965336842272" lon="9.366361339979228"><ele>470.0</ele><time>2026-03-28T11:05:26Z</time></trkpt><trkpt lat="40.73960247667933" lon="9.366452334129582"><ele>470.0</ele><time>2026-03-28T11:05:27Z</time></trkpt><trkpt lat="40.739570547180435" lon="9.366554033842686"><ele>470.0</ele><time>2026-03-28T11:05:28Z</time></trkpt><trkpt lat="40.739538423906005" lon="9.366640499918908"><ele>469.99999999999994</ele><time>2026-03-28T11:05:29Z</time></trkpt><trkpt lat="40.73950142657249" lon="9.366710563766262"><ele>470.0</ele><time>2026-03-28T11:05:30Z</time></trkpt><trkpt lat="40.73943899507847" lon="9.366793556153167"><ele>471.0</ele><time>2026-03-28T11:05:31Z</time></trkpt><trkpt lat="40.73937264824242" lon="9.366853322129206"><ele>472.0</ele><time>2026-03-28T11:05:32Z</time></trkpt><trkpt lat="40.73920147854036" lon="9.366868059388485"><ele>473.0</ele><time>2026-03-28T11:05:34Z</time></trkpt><trkpt lat="40.739074762690734" lon="9.366866707828954"><ele>474.0</ele><time>2026-03-28T11:05:35Z</time></trkpt><trkpt lat="40.73896088968351" lon="9.366880313979179"><ele>474.0</ele><time>2026-03-28T11:05:36Z</time></trkpt><trkpt lat="40.73886210076099" lon="9.366913036477666"><ele>474.0</ele><time>2026-03-28T11:05:37Z</time></trkpt><trkpt lat="40.73877056083714" lon="9.366948312922558"><ele>474.0</ele><time>2026-03-28T11:05:38Z</time></trkpt><trkpt lat="40.738691290130404" lon="9.366977306665973"><ele>474.0</ele><time>2026-03-28T11:05:39Z</time></trkpt><trkpt lat="40.738628138714155" lon="9.367023387907674"><ele>474.0</ele><time>2026-03-28T11:05:40Z</time></trkpt><trkpt lat="40.738577441518" lon="9.367092167452677"><ele>474.0</ele><time>2026-03-28T11:05:40.999Z</time></trkpt><trkpt lat="40.738550569060095" lon="9.367186271171507"><ele>474.25</ele><time>2026-03-28T11:05:41.999Z</time></trkpt><trkpt lat="40.738553321558456" lon="9.367319453195536"><ele>474.5</ele><time>2026-03-28T11:05:42.999Z</time></trkpt><trkpt lat="40.738567006672575" lon="9.367472034423239"><ele>474.75</ele><time>2026-03-28T11:05:43.999Z</time></trkpt><trkpt lat="40.73858446424157" lon="9.367658765087263"><ele>475.0</ele><time>2026-03-28T11:05:44.999Z</time></trkpt><trkpt lat="40.738592234786246" lon="9.367805241921056"><ele>475.0</ele><time>2026-03-28T11:05:45.999Z</time></trkpt><trkpt lat="40.73860103771398" lon="9.367923452559323"><ele>475.0</ele><time>2026-03-28T11:05:46.999Z</time></trkpt><trkpt lat="40.738596075864905" lon="9.36807754644717"><ele>475.0</ele><time>2026-03-28T11:05:47.999Z</time></trkpt><trkpt lat="40.73858080094192" lon="9.368290894530197"><ele>475.0</ele><time>2026-03-28T11:05:48.999Z</time></trkpt><trkpt lat="40.73855494197937" lon="9.36849026355912"><ele>477.0</ele><time>2026-03-28T11:05:49.999Z</time></trkpt><trkpt lat="40.73854366948213" lon="9.368674516000002"><ele>479.0</ele><time>2026-03-28T11:05:50.999Z</time></trkpt><trkpt lat="40.73854544417952" lon="9.368875322491371"><ele>481.0</ele><time>2026-03-28T11:05:51.999Z</time></trkpt><trkpt lat="40.73854445999322" lon="9.369061920467164"><ele>483.0</ele><time>2026-03-28T11:05:52.999Z</time></trkpt><trkpt lat="40.73854777205749" lon="9.369222795116894"><ele>483.0</ele><time>2026-03-28T11:05:53.999Z</time></trkpt><trkpt lat="40.7385512277653" lon="9.369375743377564"><ele>482.99999999999994</ele><time>2026-03-28T11:05:54.999Z</time></trkpt><trkpt lat="40.738571358570205" lon="9.369509575488715"><ele>482.99999999999994</ele><time>2026-03-28T11:05:55.999Z</time></trkpt><trkpt lat="40.73858710297242" lon="9.369620450530304"><ele>483.0</ele><time>2026-03-28T11:05:56.999Z</time></trkpt><trkpt lat="40.73858383582048" lon="9.369742014984155"><ele>483.0</ele><time>2026-03-28T11:05:57.999Z</time></trkpt><trkpt lat="40.73856811775484" lon="9.369885982983623"><ele>483.2</ele><time>2026-03-28T11:05:58.999Z</time></trkpt><trkpt lat="40.73854930559213" lon="9.370036627480482"><ele>483.4</ele><time>2026-03-28T11:05:59.999Z</time></trkpt><trkpt lat="40.73853479830831" lon="9.370168605112378"><ele>483.59999999999997</ele><time>2026-03-28T11:06:00.999Z</time></trkpt><trkpt lat="40.738506987091945" lon="9.370249841287782"><ele>483.79999999999995</ele><time>2026-03-28T11:06:01.999Z</time></trkpt><trkpt lat="40.738395377066624" lon="9.370347319152906"><ele>484.0</ele><time>2026-03-28T11:06:03.999Z</time></trkpt><trkpt lat="40.73829366622085" lon="9.370389421458484"><ele>484.00000000000006</ele><time>2026-03-28T11:06:04.999Z</time></trkpt><trkpt lat="40.738203688793114" lon="9.370445187383483"><ele>484.0</ele><time>2026-03-28T11:06:05.999Z</time></trkpt><trkpt lat="40.73813911518642" lon="9.370538950161666"><ele>484.0</ele><time>2026-03-28T11:06:06.999Z</time></trkpt><trkpt lat="40.73809846719023" lon="9.370638611900503"><ele>484.0</ele><time>2026-03-28T11:06:07.999Z</time></trkpt><trkpt lat="40.73807482425645" lon="9.37074029662287"><ele>484.00000000000006</ele><time>2026-03-28T11:06:08.999Z</time></trkpt><trkpt lat="40.73806447343549" lon="9.370853655691237"><ele>484.0</ele><time>2026-03-28T11:06:09.999Z</time></trkpt><trkpt lat="40.73806467522088" lon="9.370975359536494"><ele>483.0</ele><time>2026-03-28T11:06:10.999Z</time></trkpt><trkpt lat="40.73807101156354" lon="9.371100548033928"><ele>482.0</ele><time>2026-03-28T11:06:11.999Z</time></trkpt><trkpt lat="40.738082400390866" lon="9.371237408675029"><ele>481.0</ele><time>2026-03-28T11:06:12.999Z</time></trkpt><trkpt lat="40.73810320243441" lon="9.371367159714094"><ele>480.0</ele><time>2026-03-28T11:06:13.999Z</time></trkpt><trkpt lat="40.738116056503266" lon="9.371498286430866"><ele>479.0</ele><time>2026-03-28T11:06:14.999Z</time></trkpt><trkpt lat="40.738137245510515" lon="9.371624392620195"><ele>478.2</ele><time>2026-03-28T11:06:15.999Z</time></trkpt><trkpt lat="40.73815134817498" lon="9.371748743749183"><ele>477.4</ele><time>2026-03-28T11:06:16.999Z</time></trkpt><trkpt lat="40.738174121168136" lon="9.371875277335933"><ele>476.6</ele><time>2026-03-28T11:06:17.999Z</time></trkpt><trkpt lat="40.73820590110217" lon="9.372015196662241"><ele>475.8</ele><time>2026-03-28T11:06:18.999Z</time></trkpt><trkpt lat="40.73822344426463" lon="9.372126527146072"><ele>475.0</ele><time>2026-03-28T11:06:19.999Z</time></trkpt><trkpt lat="40.738252508619674" lon="9.37220895028657"><ele>475.00000000000006</ele><time>2026-03-28T11:06:21.999Z</time></trkpt><trkpt lat="40.738239413630964" lon="9.372349603441194"><ele>475.0</ele><time>2026-03-28T11:06:43Z</time></trkpt><trkpt lat="40.73825240610334" lon="9.372459572187665"><ele>475.0</ele><time>2026-03-28T11:06:44Z</time></trkpt><trkpt lat="40.7382664694543" lon="9.372567818097483"><ele>475.0</ele><time>2026-03-28T11:06:45Z</time></trkpt><trkpt lat="40.738284659776824" lon="9.372676225628297"><ele>475.00000000000006</ele><time>2026-03-28T11:06:46Z</time></trkpt><trkpt lat="40.7382992567776" lon="9.372782472141369"><ele>475.0</ele><time>2026-03-28T11:06:47Z</time></trkpt><trkpt lat="40.73831073655576" lon="9.372909321889402"><ele>476.75</ele><time>2026-03-28T11:06:48Z</time></trkpt><trkpt lat="40.73832968314491" lon="9.373054436478155"><ele>478.5</ele><time>2026-03-28T11:06:49Z</time></trkpt><trkpt lat="40.738368657935766" lon="9.37317419572889"><ele>480.25</ele><time>2026-03-28T11:06:50Z</time></trkpt><trkpt lat="40.73842570494312" lon="9.373315931007731"><ele>482.0</ele><time>2026-03-28T11:06:51Z</time></trkpt><trkpt lat="40.73849982676153" lon="9.373501017691579"><ele>480.25</ele><time>2026-03-28T11:06:52Z</time></trkpt><trkpt lat="40.7385519279108" lon="9.3736931093681"><ele>478.5</ele><time>2026-03-28T11:06:53Z</time></trkpt><trkpt lat="40.738602636532335" lon="9.373855100007537"><ele>476.75</ele><time>2026-03-28T11:06:54Z</time></trkpt><trkpt lat="40.73865648419156" lon="9.374032051781558"><ele>475.0</ele><time>2026-03-28T11:06:55Z</time></trkpt><trkpt lat="40.73872197998193" lon="9.374241021655635"><ele>475.0</ele><time>2026-03-28T11:06:56Z</time></trkpt><trkpt lat="40.73877904678907" lon="9.374431916530062"><ele>475.0</ele><time>2026-03-28T11:06:57Z</time></trkpt><trkpt lat="40.738830387722146" lon="9.374614819009881"><ele>475.0</ele><time>2026-03-28T11:06:58Z</time></trkpt><trkpt lat="40.738877575939924" lon="9.374775974403594"><ele>475.0</ele><time>2026-03-28T11:06:59Z</time></trkpt><trkpt lat="40.73892437269936" lon="9.374955461209188"><ele>476.0</ele><time>2026-03-28T11:07:00Z</time></trkpt><trkpt lat="40.73895843436478" lon="9.375110589294236"><ele>477.0</ele><time>2026-03-28T11:07:01Z</time></trkpt><trkpt lat="40.73898020992728" lon="9.37528802500026"><ele>478.0</ele><time>2026-03-28T11:07:02Z</time></trkpt><trkpt lat="40.73899010181638" lon="9.375456334921761"><ele>479.0</ele><time>2026-03-28T11:07:03Z</time></trkpt><trkpt lat="40.73898666105315" lon="9.375589583575794"><ele>480.25</ele><time>2026-03-28T11:07:04Z</time></trkpt><trkpt lat="40.73899909135047" lon="9.375725017424523"><ele>481.5</ele><time>2026-03-28T11:07:05Z</time></trkpt><trkpt lat="40.739017429320086" lon="9.375902232700334"><ele>482.75</ele><time>2026-03-28T11:07:06Z</time></trkpt><trkpt lat="40.739045111921584" lon="9.376100545222132"><ele>484.0</ele><time>2026-03-28T11:07:07Z</time></trkpt><trkpt lat="40.73907266736271" lon="9.37628287765804"><ele>486.25</ele><time>2026-03-28T11:07:08Z</time></trkpt><trkpt lat="40.739103974460996" lon="9.376434758737387"><ele>488.5</ele><time>2026-03-28T11:07:09Z</time></trkpt><trkpt lat="40.73914024385478" lon="9.376591367644245"><ele>490.75</ele><time>2026-03-28T11:07:10Z</time></trkpt><trkpt lat="40.73915391308863" lon="9.37676301918722"><ele>493.0</ele><time>2026-03-28T11:07:11Z</time></trkpt><trkpt lat="40.739146915060275" lon="9.376920462421909"><ele>493.0</ele><time>2026-03-28T11:07:12Z</time></trkpt><trkpt lat="40.739135017338945" lon="9.37709918248832"><ele>493.0</ele><time>2026-03-28T11:07:13Z</time></trkpt><trkpt lat="40.73911615515607" lon="9.37728253893724"><ele>493.0</ele><time>2026-03-28T11:07:14Z</time></trkpt><trkpt lat="40.73910755575425" lon="9.377445262096868"><ele>493.0</ele><time>2026-03-28T11:07:15Z</time></trkpt><trkpt lat="40.7391121064962" lon="9.377584675864876"><ele>494.00000000000006</ele><time>2026-03-28T11:07:16Z</time></trkpt><trkpt lat="40.73913711531162" lon="9.37770493936601"><ele>495.0</ele><time>2026-03-28T11:07:17Z</time></trkpt><trkpt lat="40.739166857094936" lon="9.377809621274439"><ele>496.0</ele><time>2026-03-28T11:07:18Z</time></trkpt><trkpt lat="40.73912297596718" lon="9.377871914950267"><ele>497.0</ele><time>2026-03-28T11:07:20Z</time></trkpt><trkpt lat="40.739055060640425" lon="9.377836675676669"><ele>498.00000000000006</ele><time>2026-03-28T11:07:22Z</time></trkpt><trkpt lat="40.739025943123934" lon="9.37771050628444"><ele>499.0</ele><time>2026-03-28T11:07:24Z</time></trkpt><trkpt lat="40.73900346702885" lon="9.377611189063597"><ele>499.0</ele><time>2026-03-28T11:07:25Z</time></trkpt><trkpt lat="40.73896925542049" lon="9.37752998004396"><ele>499.0</ele><time>2026-03-28T11:07:26Z</time></trkpt><trkpt lat="40.73889742321563" lon="9.377410077089044"><ele>499.0</ele><time>2026-03-28T11:07:27Z</time></trkpt><trkpt lat="40.738808087677214" lon="9.377286834180193"><ele>499.0</ele><time>2026-03-28T11:07:28Z</time></trkpt><trkpt lat="40.738721726569835" lon="9.377167212832864"><ele>499.0</ele><time>2026-03-28T11:07:29Z</time></trkpt><trkpt lat="40.73864889960033" lon="9.377062345948007"><ele>498.00000000000006</ele><time>2026-03-28T11:07:30Z</time></trkpt><trkpt lat="40.738581433494446" lon="9.376969296380864"><ele>497.0</ele><time>2026-03-28T11:07:31Z</time></trkpt><trkpt lat="40.73851369561361" lon="9.376913118828545"><ele>496.0</ele><time>2026-03-28T11:07:32Z</time></trkpt><trkpt lat="40.73843437752328" lon="9.376891346754833"><ele>495.0</ele><time>2026-03-28T11:07:33Z</time></trkpt><trkpt lat="40.73835578040021" lon="9.376920111656066"><ele>494.00000000000006</ele><time>2026-03-28T11:07:34Z</time></trkpt><trkpt lat="40.73828029384694" lon="9.376984285571686"><ele>493.0</ele><time>2026-03-28T11:07:35Z</time></trkpt><trkpt lat="40.73821782522927" lon="9.377066567935865"><ele>497.0</ele><time>2026-03-28T11:07:36Z</time></trkpt><trkpt lat="40.738142145678296" lon="9.37713025309572"><ele>500.99999999999994</ele><time>2026-03-28T11:07:37Z</time></trkpt><trkpt lat="40.738073704387745" lon="9.377127709508535"><ele>504.99999999999994</ele><time>2026-03-28T11:07:38Z</time></trkpt><trkpt lat="40.7379778127399" lon="9.377109213426975"><ele>509.0</ele><time>2026-03-28T11:07:39Z</time></trkpt><trkpt lat="40.737867777075145" lon="9.37707183841014"><ele>513.0</ele><time>2026-03-28T11:07:40Z</time></trkpt><trkpt lat="40.73773988635135" lon="9.377043009082023"><ele>515.75</ele><time>2026-03-28T11:07:41Z</time></trkpt><trkpt lat="40.737598226146325" lon="9.377051754236897"><ele>518.5</ele><time>2026-03-28T11:07:42Z</time></trkpt><trkpt lat="40.737469264386405" lon="9.377072599135563"><ele>521.25</ele><time>2026-03-28T11:07:43Z</time></trkpt><trkpt lat="40.73733871509663" lon="9.37707188673725"><ele>524.0</ele><time>2026-03-28T11:07:44Z</time></trkpt><trkpt lat="40.73723714129728" lon="9.377060265653421"><ele>524.0</ele><time>2026-03-28T11:07:44.999Z</time></trkpt><trkpt lat="40.737150109961284" lon="9.377071551755936"><ele>524.0</ele><time>2026-03-28T11:07:45.999Z</time></trkpt><trkpt lat="40.7370509132859" lon="9.377138415872066"><ele>524.0</ele><time>2026-03-28T11:07:46.999Z</time></trkpt><trkpt lat="40.73696795732327" lon="9.377229843803915"><ele>524.0</ele><time>2026-03-28T11:07:47.999Z</time></trkpt><trkpt lat="40.73688816887824" lon="9.377353290550351"><ele>524.0</ele><time>2026-03-28T11:07:48.999Z</time></trkpt><trkpt lat="40.736798660422544" lon="9.377499610967064"><ele>527.0</ele><time>2026-03-28T11:07:49.999Z</time></trkpt><trkpt lat="40.73670099795606" lon="9.377615424225747"><ele>530.0</ele><time>2026-03-28T11:07:50.999Z</time></trkpt><trkpt lat="40.73659538443791" lon="9.377732657294032"><ele>533.0</ele><time>2026-03-28T11:07:51.999Z</time></trkpt><trkpt lat="40.73650714800527" lon="9.377823052968914"><ele>536.0</ele><time>2026-03-28T11:07:52.999Z</time></trkpt><trkpt lat="40.73642279833425" lon="9.377909837083733"><ele>536.0</ele><time>2026-03-28T11:07:53.999Z</time></trkpt><trkpt lat="40.73634869770378" lon="9.377965457508374"><ele>536.0</ele><time>2026-03-28T11:07:54.999Z</time></trkpt><trkpt lat="40.736270069134015" lon="9.378018776754324"><ele>536.0</ele><time>2026-03-28T11:07:55.999Z</time></trkpt><trkpt lat="40.73618606270501" lon="9.378089011597948"><ele>536.0</ele><time>2026-03-28T11:07:56.999Z</time></trkpt><trkpt lat="40.736106592443356" lon="9.378145091508433"><ele>536.0</ele><time>2026-03-28T11:07:57.999Z</time></trkpt><trkpt lat="40.73602810413255" lon="9.378199528250029"><ele>535.0</ele><time>2026-03-28T11:07:58.999Z</time></trkpt><trkpt lat="40.73595636196335" lon="9.378245378904573"><ele>534.0</ele><time>2026-03-28T11:07:59.999Z</time></trkpt><trkpt lat="40.73587212898106" lon="9.378303599066726"><ele>533.0</ele><time>2026-03-28T11:08:00.999Z</time></trkpt><trkpt lat="40.735785968263194" lon="9.378369996955975"><ele>532.0</ele><time>2026-03-28T11:08:01.999Z</time></trkpt><trkpt lat="40.73569074279917" lon="9.378455748396512"><ele>531.0</ele><time>2026-03-28T11:08:02.999Z</time></trkpt><trkpt lat="40.735592854858226" lon="9.378525355958654"><ele>531.0</ele><time>2026-03-28T11:08:03.999Z</time></trkpt><trkpt lat="40.735495032376996" lon="9.378580749857703"><ele>531.0</ele><time>2026-03-28T11:08:04.999Z</time></trkpt><trkpt lat="40.73539630873145" lon="9.378631487862531"><ele>531.0</ele><time>2026-03-28T11:08:05.999Z</time></trkpt><trkpt lat="40.73531621142501" lon="9.37867925464576"><ele>531.0</ele><time>2026-03-28T11:08:06.999Z</time></trkpt><trkpt lat="40.735239633518866" lon="9.378760506089622"><ele>531.0</ele><time>2026-03-28T11:08:07.999Z</time></trkpt><trkpt lat="40.735165258607395" lon="9.37886458817179"><ele>531.25</ele><time>2026-03-28T11:08:08.999Z</time></trkpt><trkpt lat="40.735083376912016" lon="9.378994042350488"><ele>531.5</ele><time>2026-03-28T11:08:09.999Z</time></trkpt><trkpt lat="40.735009363402874" lon="9.37912701847967"><ele>531.75</ele><time>2026-03-28T11:08:10.999Z</time></trkpt><trkpt lat="40.73493298102926" lon="9.379269608079293"><ele>532.0</ele><time>2026-03-28T11:08:11.999Z</time></trkpt><trkpt lat="40.734857961899515" lon="9.379405355571649"><ele>532.0</ele><time>2026-03-28T11:08:12.999Z</time></trkpt><trkpt lat="40.73478884361383" lon="9.379537700385022"><ele>532.0</ele><time>2026-03-28T11:08:13.999Z</time></trkpt><trkpt lat="40.7346995696905" lon="9.379682309742876"><ele>532.0</ele><time>2026-03-28T11:08:14.999Z</time></trkpt><trkpt lat="40.73459359031104" lon="9.37986876019042"><ele>532.0</ele><time>2026-03-28T11:08:15.999Z</time></trkpt><trkpt lat="40.73450863491041" lon="9.380055634012885"><ele>532.25</ele><time>2026-03-28T11:08:16.999Z</time></trkpt><trkpt lat="40.73441531361483" lon="9.380213623622096"><ele>532.5</ele><time>2026-03-28T11:08:17.999Z</time></trkpt><trkpt lat="40.73433501085492" lon="9.380373223693958"><ele>532.75</ele><time>2026-03-28T11:08:18.999Z</time></trkpt><trkpt lat="40.734272774621516" lon="9.380524963476839"><ele>533.0</ele><time>2026-03-28T11:08:19.999Z</time></trkpt><trkpt lat="40.734221213620664" lon="9.380649538806843"><ele>535.0</ele><time>2026-03-28T11:08:20.999Z</time></trkpt><trkpt lat="40.734152948080975" lon="9.38074301713756"><ele>537.0</ele><time>2026-03-28T11:08:21.999Z</time></trkpt><trkpt lat="40.734070359904784" lon="9.3808259883394"><ele>539.0</ele><time>2026-03-28T11:08:22.999Z</time></trkpt><trkpt lat="40.73396565119044" lon="9.380892708789744"><ele>541.0</ele><time>2026-03-28T11:08:23.999Z</time></trkpt><trkpt lat="40.73381444951405" lon="9.380968027438728"><ele>541.0</ele><time>2026-03-28T11:08:24.999Z</time></trkpt><trkpt lat="40.73368895766865" lon="9.381041460021398"><ele>541.0</ele><time>2026-03-28T11:08:25.999Z</time></trkpt><trkpt lat="40.73359721124955" lon="9.381130185706809"><ele>541.0</ele><time>2026-03-28T11:08:26.999Z</time></trkpt><trkpt lat="40.733526469241774" lon="9.381240007980338"><ele>541.0</ele><time>2026-03-28T11:08:27.999Z</time></trkpt><trkpt lat="40.7334848022731" lon="9.381369348595497"><ele>543.25</ele><time>2026-03-28T11:08:28.999Z</time></trkpt><trkpt lat="40.733440816567175" lon="9.381525857788848"><ele>545.5</ele><time>2026-03-28T11:08:29.999Z</time></trkpt><trkpt lat="40.73340139288391" lon="9.3816469699606"><ele>547.75</ele><time>2026-03-28T11:08:30.999Z</time></trkpt><trkpt lat="40.73333189415813" lon="9.381751898451975"><ele>550.0</ele><time>2026-03-28T11:08:31.999Z</time></trkpt><trkpt lat="40.733228356161305" lon="9.381852058704082"><ele>550.0</ele><time>2026-03-28T11:08:32.999Z</time></trkpt><trkpt lat="40.73309046951498" lon="9.381960439151445"><ele>550.0</ele><time>2026-03-28T11:08:33.999Z</time></trkpt><trkpt lat="40.73294154985471" lon="9.382070747272131"><ele>550.0</ele><time>2026-03-28T11:08:34.999Z</time></trkpt><trkpt lat="40.73279556271038" lon="9.382175679783272"><ele>552.5</ele><time>2026-03-28T11:08:35.999Z</time></trkpt><trkpt lat="40.73267530514358" lon="9.382259684497074"><ele>555.0</ele><time>2026-03-28T11:08:36.999Z</time></trkpt><trkpt lat="40.73255717416966" lon="9.382321766787571"><ele>557.5</ele><time>2026-03-28T11:08:38Z</time></trkpt><trkpt lat="40.732458346214855" lon="9.382366532616444"><ele>560.0</ele><time>2026-03-28T11:08:39Z</time></trkpt><trkpt lat="40.7323536728173" lon="9.382387997791218"><ele>560.0</ele><time>2026-03-28T11:08:40Z</time></trkpt><trkpt lat="40.73227077223297" lon="9.38238013165657"><ele>560.0</ele><time>2026-03-28T11:08:41Z</time></trkpt><trkpt lat="40.73219525151364" lon="9.382338641583413"><ele>560.0</ele><time>2026-03-28T11:08:42Z</time></trkpt><trkpt lat="40.73212219630726" lon="9.382260311783668"><ele>560.0</ele><time>2026-03-28T11:08:43Z</time></trkpt><trkpt lat="40.73202619314731" lon="9.38213967000432"><ele>560.0</ele><time>2026-03-28T11:08:44Z</time></trkpt><trkpt lat="40.73192557976012" lon="9.381990489451374"><ele>562.5</ele><time>2026-03-28T11:08:45Z</time></trkpt><trkpt lat="40.73182844446399" lon="9.381808599880898"><ele>565.0</ele><time>2026-03-28T11:08:46Z</time></trkpt><trkpt lat="40.73174057099008" lon="9.381663773186927"><ele>567.5</ele><time>2026-03-28T11:08:47Z</time></trkpt><trkpt lat="40.73166603210265" lon="9.381547247247742"><ele>570.0</ele><time>2026-03-28T11:08:48Z</time></trkpt><trkpt lat="40.73158803986582" lon="9.381463745590333"><ele>570.0</ele><time>2026-03-28T11:08:49Z</time></trkpt><trkpt lat="40.73151244953008" lon="9.381410872093204"><ele>570.0</ele><time>2026-03-28T11:08:50Z</time></trkpt><trkpt lat="40.73139724684789" lon="9.381365999700096"><ele>570.0</ele><time>2026-03-28T11:08:51Z</time></trkpt><trkpt lat="40.73126018335871" lon="9.38132867753579"><ele>570.0</ele><time>2026-03-28T11:08:52Z</time></trkpt><trkpt lat="40.73113771886009" lon="9.381314595804817"><ele>571.5</ele><time>2026-03-28T11:08:53Z</time></trkpt><trkpt lat="40.73100648401603" lon="9.381331132935363"><ele>573.0</ele><time>2026-03-28T11:08:54Z</time></trkpt><trkpt lat="40.730868048893086" lon="9.381372384313723"><ele>574.5</ele><time>2026-03-28T11:08:55Z</time></trkpt><trkpt lat="40.73072043221307" lon="9.381416983860651"><ele>576.0</ele><time>2026-03-28T11:08:56Z</time></trkpt><trkpt lat="40.730554827886806" lon="9.381495255117976"><ele>576.0</ele><time>2026-03-28T11:08:57Z</time></trkpt><trkpt lat="40.730405593786195" lon="9.381553475361695"><ele>576.0</ele><time>2026-03-28T11:08:58Z</time></trkpt><trkpt lat="40.73029152816303" lon="9.381579803246792"><ele>576.0</ele><time>2026-03-28T11:08:59Z</time></trkpt><trkpt lat="40.73018632538742" lon="9.381600312310391"><ele>576.0</ele><time>2026-03-28T11:09:00Z</time></trkpt><trkpt lat="40.73009872441872" lon="9.381608651063955"><ele>575.6</ele><time>2026-03-28T11:09:01Z</time></trkpt><trkpt lat="40.73002451331305" lon="9.381592504421315"><ele>575.2</ele><time>2026-03-28T11:09:02Z</time></trkpt><trkpt lat="40.729937769100935" lon="9.381554367125883"><ele>574.8</ele><time>2026-03-28T11:09:03Z</time></trkpt><trkpt lat="40.7298694649214" lon="9.38147825961128"><ele>574.4</ele><time>2026-03-28T11:09:04Z</time></trkpt><trkpt lat="40.729796153103024" lon="9.381355246044798"><ele>574.0</ele><time>2026-03-28T11:09:05Z</time></trkpt><trkpt lat="40.72971162716222" lon="9.381258077072072"><ele>575.0</ele><time>2026-03-28T11:09:06Z</time></trkpt><trkpt lat="40.72964064814146" lon="9.381187464776476"><ele>576.0</ele><time>2026-03-28T11:09:07Z</time></trkpt><trkpt lat="40.729562490199854" lon="9.3811204040783"><ele>577.0</ele><time>2026-03-28T11:09:08Z</time></trkpt><trkpt lat="40.72943996746856" lon="9.381096464787207"><ele>578.0</ele><time>2026-03-28T11:09:09Z</time></trkpt><trkpt lat="40.72927918820088" lon="9.381081262636151"><ele>578.0</ele><time>2026-03-28T11:09:10Z</time></trkpt><trkpt lat="40.729098752934476" lon="9.381059002788955"><ele>578.0</ele><time>2026-03-28T11:09:11Z</time></trkpt><trkpt lat="40.72892025429162" lon="9.381034731772205"><ele>578.0</ele><time>2026-03-28T11:09:12Z</time></trkpt><trkpt lat="40.7287929838963" lon="9.38102773980369"><ele>578.0</ele><time>2026-03-28T11:09:13Z</time></trkpt><trkpt lat="40.72863526167767" lon="9.381007510274953"><ele>578.0</ele><time>2026-03-28T11:09:14Z</time></trkpt><trkpt lat="40.728523958551264" lon="9.380992011516982"><ele>578.0</ele><time>2026-03-28T11:09:15Z</time></trkpt><trkpt lat="40.72842585785234" lon="9.380988419517807"><ele>578.0</ele><time>2026-03-28T11:09:16Z</time></trkpt><trkpt lat="40.728315496916956" lon="9.380999670373246"><ele>579.75</ele><time>2026-03-28T11:09:17Z</time></trkpt><trkpt lat="40.728210262814216" lon="9.381040485729269"><ele>581.5</ele><time>2026-03-28T11:09:18Z</time></trkpt><trkpt lat="40.72809227886016" lon="9.381102639537716"><ele>583.25</ele><time>2026-03-28T11:09:19Z</time></trkpt><trkpt lat="40.72796791753527" lon="9.381189885468316"><ele>585.0</ele><time>2026-03-28T11:09:20Z</time></trkpt><trkpt lat="40.72783636447079" lon="9.381268910634851"><ele>587.0</ele><time>2026-03-28T11:09:21Z</time></trkpt><trkpt lat="40.72768528452401" lon="9.38136521632964"><ele>589.0</ele><time>2026-03-28T11:09:22Z</time></trkpt><trkpt lat="40.72755695414499" lon="9.38145391784637"><ele>591.0</ele><time>2026-03-28T11:09:23Z</time></trkpt><trkpt lat="40.72742921826638" lon="9.381549528253487"><ele>591.0</ele><time>2026-03-28T11:09:24Z</time></trkpt><trkpt lat="40.7273270060605" lon="9.38161631221219"><ele>591.0</ele><time>2026-03-28T11:09:25Z</time></trkpt><trkpt lat="40.72725210898729" lon="9.381650782459788"><ele>591.0</ele><time>2026-03-28T11:09:26Z</time></trkpt><trkpt lat="40.72716491001806" lon="9.381615790082659"><ele>591.0</ele><time>2026-03-28T11:09:28Z</time></trkpt><trkpt lat="40.72712072547373" lon="9.381461743775263"><ele>591.0</ele><time>2026-03-28T11:09:30Z</time></trkpt><trkpt lat="40.72709042143374" lon="9.381317553408186"><ele>592.0</ele><time>2026-03-28T11:09:31Z</time></trkpt><trkpt lat="40.727057196900375" lon="9.381181767802788"><ele>593.0</ele><time>2026-03-28T11:09:32Z</time></trkpt><trkpt lat="40.72702529906375" lon="9.38102479786428"><ele>594.0</ele><time>2026-03-28T11:09:33Z</time></trkpt><trkpt lat="40.72698379270869" lon="9.380869361520979"><ele>595.0</ele><time>2026-03-28T11:09:34Z</time></trkpt><trkpt lat="40.72694458589449" lon="9.380682321588656"><ele>595.0</ele><time>2026-03-28T11:09:35Z</time></trkpt><trkpt lat="40.7269173146748" lon="9.38053988004929"><ele>595.0</ele><time>2026-03-28T11:09:36Z</time></trkpt><trkpt lat="40.726901268961676" lon="9.380439810045571"><ele>595.0</ele><time>2026-03-28T11:09:37Z</time></trkpt><trkpt lat="40.72688193868467" lon="9.380337391309032"><ele>595.0</ele><time>2026-03-28T11:09:38Z</time></trkpt><trkpt lat="40.726858641135365" lon="9.380249279892187"><ele>595.0</ele><time>2026-03-28T11:09:39Z</time></trkpt><trkpt lat="40.72682679517955" lon="9.380157946639388"><ele>595.0</ele><time>2026-03-28T11:09:41Z</time></trkpt><trkpt lat="40.72677686555061" lon="9.380046382953477"><ele>597.0</ele><time>2026-03-28T11:10:02.999Z</time></trkpt><trkpt lat="40.726742467924794" lon="9.379949443874487"><ele>599.0</ele><time>2026-03-28T11:10:03.999Z</time></trkpt><trkpt lat="40.726706078407446" lon="9.379816074681884"><ele>601.0</ele><time>2026-03-28T11:10:04.999Z</time></trkpt><trkpt lat="40.72664321806742" lon="9.379652642063892"><ele>603.0</ele><time>2026-03-28T11:10:05.999Z</time></trkpt><trkpt lat="40.726605212912126" lon="9.379515196797716"><ele>605.0</ele><time>2026-03-28T11:10:06.999Z</time></trkpt><trkpt lat="40.726593433174706" lon="9.37938857190752"><ele>608.0</ele><time>2026-03-28T11:10:07.999Z</time></trkpt><trkpt lat="40.72659244708641" lon="9.37926188856818"><ele>611.0</ele><time>2026-03-28T11:10:08.999Z</time></trkpt><trkpt lat="40.726586565947095" lon="9.379089209087823"><ele>614.0</ele><time>2026-03-28T11:10:09.999Z</time></trkpt><trkpt lat="40.726601714251736" lon="9.378897900210264"><ele>617.0</ele><time>2026-03-28T11:10:10.999Z</time></trkpt><trkpt lat="40.72661493056732" lon="9.37872047007341"><ele>618.6</ele><time>2026-03-28T11:10:11.999Z</time></trkpt><trkpt lat="40.726614647526794" lon="9.378561381841578"><ele>620.2</ele><time>2026-03-28T11:10:12.999Z</time></trkpt><trkpt lat="40.72660709201723" lon="9.378419396175731"><ele>621.8</ele><time>2026-03-28T11:10:13.999Z</time></trkpt><trkpt lat="40.726600220514214" lon="9.378306668049882"><ele>623.4</ele><time>2026-03-28T11:10:14.999Z</time></trkpt><trkpt lat="40.726584176993796" lon="9.378213014608619"><ele>625.0</ele><time>2026-03-28T11:10:15.999Z</time></trkpt><trkpt lat="40.726507644501346" lon="9.378157195998378"><ele>625.0</ele><time>2026-03-28T11:10:17.999Z</time></trkpt><trkpt lat="40.72644564717696" lon="9.378177135657486"><ele>625.0</ele><time>2026-03-28T11:10:18.999Z</time></trkpt><trkpt lat="40.7263685180298" lon="9.37823695212219"><ele>625.0</ele><time>2026-03-28T11:10:19.999Z</time></trkpt><trkpt lat="40.72627648325247" lon="9.378336665015373"><ele>625.0</ele><time>2026-03-28T11:10:20.999Z</time></trkpt><trkpt lat="40.726178826755245" lon="9.378473531995283"><ele>625.0</ele><time>2026-03-28T11:10:21.999Z</time></trkpt><trkpt lat="40.72607561012689" lon="9.378634721773857"><ele>626.4</ele><time>2026-03-28T11:10:22.999Z</time></trkpt><trkpt lat="40.72599368509623" lon="9.378761616033891"><ele>627.8</ele><time>2026-03-28T11:10:23.999Z</time></trkpt><trkpt lat="40.72592770176283" lon="9.37882684442834"><ele>629.2</ele><time>2026-03-28T11:10:24.999Z</time></trkpt><trkpt lat="40.72580983406638" lon="9.378779146413606"><ele>630.6</ele><time>2026-03-28T11:10:26.999Z</time></trkpt><trkpt lat="40.72576338798336" lon="9.378698020035698"><ele>632.0</ele><time>2026-03-28T11:10:27.999Z</time></trkpt><trkpt lat="40.72572969590776" lon="9.378586321909117"><ele>632.0</ele><time>2026-03-28T11:10:28.999Z</time></trkpt><trkpt lat="40.72566048162533" lon="9.378460073763796"><ele>632.0</ele><time>2026-03-28T11:10:29.999Z</time></trkpt><trkpt lat="40.72556428139924" lon="9.378350038054473"><ele>632.0</ele><time>2026-03-28T11:10:30.999Z</time></trkpt><trkpt lat="40.72549700883804" lon="9.378253392533596"><ele>632.0</ele><time>2026-03-28T11:10:31.999Z</time></trkpt><trkpt lat="40.725468506000475" lon="9.378150720790368"><ele>632.0</ele><time>2026-03-28T11:10:32.999Z</time></trkpt><trkpt lat="40.72546050318121" lon="9.378032987742658"><ele>634.6</ele><time>2026-03-28T11:10:33.999Z</time></trkpt><trkpt lat="40.72547173877524" lon="9.377892675219673"><ele>637.2</ele><time>2026-03-28T11:10:34.999Z</time></trkpt><trkpt lat="40.72548749376557" lon="9.377746939109427"><ele>639.8</ele><time>2026-03-28T11:10:35.999Z</time></trkpt><trkpt lat="40.72550168762195" lon="9.377581942502559"><ele>642.4</ele><time>2026-03-28T11:10:36.999Z</time></trkpt><trkpt lat="40.725479602038895" lon="9.377478824864317"><ele>645.0</ele><time>2026-03-28T11:10:37.999Z</time></trkpt><trkpt lat="40.725438123296584" lon="9.377361807476104"><ele>645.0</ele><time>2026-03-28T11:10:38.999Z</time></trkpt><trkpt lat="40.725378797755326" lon="9.37728069467118"><ele>645.0</ele><time>2026-03-28T11:10:39.999Z</time></trkpt><trkpt lat="40.7252946053613" lon="9.377233615487176"><ele>645.0</ele><time>2026-03-28T11:10:40.999Z</time></trkpt><trkpt lat="40.72519131929409" lon="9.377211225691939"><ele>645.0</ele><time>2026-03-28T11:10:41.999Z</time></trkpt><trkpt lat="40.72509490451046" lon="9.377221849347395"><ele>645.0</ele><time>2026-03-28T11:10:42.999Z</time></trkpt><trkpt lat="40.72497120481657" lon="9.377253785222067"><ele>646.3333333333334</ele><time>2026-03-28T11:10:44Z</time></trkpt><trkpt lat="40.7248409189094" lon="9.377246721712117"><ele>647.6666666666667</ele><time>2026-03-28T11:10:45Z</time></trkpt><trkpt lat="40.72468298486861" lon="9.377198045965674"><ele>649.0</ele><time>2026-03-28T11:10:46Z</time></trkpt><trkpt lat="40.72451040662642" lon="9.377140632174283"><ele>648.3333333333334</ele><time>2026-03-28T11:10:47Z</time></trkpt><trkpt lat="40.72432404411878" lon="9.37704605187318"><ele>647.6666666666666</ele><time>2026-03-28T11:10:48Z</time></trkpt><trkpt lat="40.72417256767932" lon="9.376968488938779"><ele>647.0</ele><time>2026-03-28T11:10:49Z</time></trkpt><trkpt lat="40.724027829048744" lon="9.376911838755921"><ele>647.0</ele><time>2026-03-28T11:10:50Z</time></trkpt><trkpt lat="40.72387509836446" lon="9.376871763533146"><ele>647.0</ele><time>2026-03-28T11:10:51Z</time></trkpt><trkpt lat="40.723744967099094" lon="9.376813869198571"><ele>647.0</ele><time>2026-03-28T11:10:52Z</time></trkpt><trkpt lat="40.723615851201835" lon="9.376761981963947"><ele>647.0</ele><time>2026-03-28T11:10:53Z</time></trkpt><trkpt lat="40.723488505938434" lon="9.376714149464684"><ele>645.25</ele><time>2026-03-28T11:10:54Z</time></trkpt><trkpt lat="40.723361047858035" lon="9.376681420535231"><ele>643.5</ele><time>2026-03-28T11:10:55Z</time></trkpt><trkpt lat="40.723248999246806" lon="9.376665291281952"><ele>641.75</ele><time>2026-03-28T11:10:56Z</time></trkpt><trkpt lat="40.723141240803365" lon="9.376653138713397"><ele>640.0</ele><time>2026-03-28T11:10:57Z</time></trkpt><trkpt lat="40.72303064518501" lon="9.376631394652293"><ele>640.0</ele><time>2026-03-28T11:10:58Z</time></trkpt><trkpt lat="40.722927524773446" lon="9.376610166715798"><ele>640.0</ele><time>2026-03-28T11:10:59Z</time></trkpt><trkpt lat="40.722828077341504" lon="9.37655071807498"><ele>640.0</ele><time>2026-03-28T11:11:00Z</time></trkpt><trkpt lat="40.72271090684402" lon="9.376439701156828"><ele>640.0</ele><time>2026-03-28T11:11:01Z</time></trkpt><trkpt lat="40.72260710154731" lon="9.376317649379953"><ele>638.75</ele><time>2026-03-28T11:11:02Z</time></trkpt><trkpt lat="40.7224943703381" lon="9.376216361801728"><ele>637.5</ele><time>2026-03-28T11:11:03Z</time></trkpt><trkpt lat="40.72238371806247" lon="9.3761296066588"><ele>636.25</ele><time>2026-03-28T11:11:04Z</time></trkpt><trkpt lat="40.7222844928444" lon="9.37604632745853"><ele>635.0</ele><time>2026-03-28T11:11:05Z</time></trkpt><trkpt lat="40.722198015470994" lon="9.375950258677793"><ele>635.0</ele><time>2026-03-28T11:11:06Z</time></trkpt><trkpt lat="40.72210385288789" lon="9.375817468736829"><ele>635.0</ele><time>2026-03-28T11:11:07Z</time></trkpt><trkpt lat="40.722007155247184" lon="9.375677083568382"><ele>635.0</ele><time>2026-03-28T11:11:08Z</time></trkpt><trkpt lat="40.7219082243756" lon="9.375554951190553"><ele>635.0</ele><time>2026-03-28T11:11:09Z</time></trkpt><trkpt lat="40.72182114107628" lon="9.375440612744262"><ele>633.75</ele><time>2026-03-28T11:11:10Z</time></trkpt><trkpt lat="40.72173904029299" lon="9.375306821430408"><ele>632.5</ele><time>2026-03-28T11:11:11Z</time></trkpt><trkpt lat="40.72166255327131" lon="9.375188816919065"><ele>631.25</ele><time>2026-03-28T11:11:12Z</time></trkpt><trkpt lat="40.72158787031836" lon="9.375076022768964"><ele>630.0</ele><time>2026-03-28T11:11:13Z</time></trkpt><trkpt lat="40.72151788872083" lon="9.374976555816449"><ele>630.0</ele><time>2026-03-28T11:11:14Z</time></trkpt><trkpt lat="40.7214578871994" lon="9.374893500028131"><ele>630.0</ele><time>2026-03-28T11:11:15Z</time></trkpt><trkpt lat="40.721388871809886" lon="9.374830280425915"><ele>630.0</ele><time>2026-03-28T11:11:16Z</time></trkpt><trkpt lat="40.7213011588123" lon="9.374797620470682"><ele>630.0</ele><time>2026-03-28T11:11:17Z</time></trkpt><trkpt lat="40.721222491717164" lon="9.374790988252029"><ele>630.0</ele><time>2026-03-28T11:11:18Z</time></trkpt><trkpt lat="40.72110854364868" lon="9.374745839428375"><ele>628.2</ele><time>2026-03-28T11:11:19Z</time></trkpt><trkpt lat="40.721021411719796" lon="9.374745631619032"><ele>626.4</ele><time>2026-03-28T11:11:20Z</time></trkpt><trkpt lat="40.72093090963978" lon="9.374782749352446"><ele>624.6</ele><time>2026-03-28T11:11:21Z</time></trkpt><trkpt lat="40.72082638053937" lon="9.374857753450055"><ele>622.8</ele><time>2026-03-28T11:11:22Z</time></trkpt><trkpt lat="40.720741002583566" lon="9.374937354202968"><ele>621.0</ele><time>2026-03-28T11:11:23Z</time></trkpt><trkpt lat="40.72067519435617" lon="9.375037731361068"><ele>621.0</ele><time>2026-03-28T11:11:24Z</time></trkpt><trkpt lat="40.720592516519666" lon="9.375153394557978"><ele>621.0</ele><time>2026-03-28T11:11:25Z</time></trkpt><trkpt lat="40.72051163806033" lon="9.375245480448891"><ele>621.0</ele><time>2026-03-28T11:11:26Z</time></trkpt><trkpt lat="40.72042807533535" lon="9.375313108228188"><ele>621.0</ele><time>2026-03-28T11:11:27Z</time></trkpt><trkpt lat="40.72033936050137" lon="9.375354955569025"><ele>621.0</ele><time>2026-03-28T11:11:28Z</time></trkpt><trkpt lat="40.720226638638984" lon="9.37539377953166"><ele>620.0</ele><time>2026-03-28T11:11:29Z</time></trkpt><trkpt lat="40.72009552990278" lon="9.375427574930741"><ele>619.0</ele><time>2026-03-28T11:11:30Z</time></trkpt><trkpt lat="40.719977961518246" lon="9.375467136624485"><ele>618.0</ele><time>2026-03-28T11:11:31Z</time></trkpt><trkpt lat="40.71986559059887" lon="9.375516171487751"><ele>617.0</ele><time>2026-03-28T11:11:32Z</time></trkpt><trkpt lat="40.71974524903397" lon="9.375554072338339"><ele>616.0</ele><time>2026-03-28T11:11:33Z</time></trkpt><trkpt lat="40.719639090115635" lon="9.3755851835833"><ele>615.0</ele><time>2026-03-28T11:11:34Z</time></trkpt><trkpt lat="40.71954123790885" lon="9.375615112410479"><ele>614.0</ele><time>2026-03-28T11:11:35Z</time></trkpt><trkpt lat="40.71946149607704" lon="9.375662752550323"><ele>613.0</ele><time>2026-03-28T11:11:36Z</time></trkpt><trkpt lat="40.71939468280723" lon="9.375747828228839"><ele>612.0</ele><time>2026-03-28T11:11:37Z</time></trkpt><trkpt lat="40.71932670770106" lon="9.375856218259555"><ele>610.0</ele><time>2026-03-28T11:11:38Z</time></trkpt><trkpt lat="40.719257234321134" lon="9.375935602905974"><ele>608.0</ele><time>2026-03-28T11:11:39Z</time></trkpt><trkpt lat="40.71916394607004" lon="9.3760074496423"><ele>606.0</ele><time>2026-03-28T11:11:40Z</time></trkpt><trkpt lat="40.71908974964876" lon="9.37604777135667"><ele>604.0</ele><time>2026-03-28T11:11:41Z</time></trkpt><trkpt lat="40.71900133348111" lon="9.3761230769406"><ele>602.0</ele><time>2026-03-28T11:11:42Z</time></trkpt><trkpt lat="40.718905343335855" lon="9.37619050123221"><ele>602.0</ele><time>2026-03-28T11:11:43Z</time></trkpt><trkpt lat="40.718809222063015" lon="9.37624704565103"><ele>602.0</ele><time>2026-03-28T11:11:44Z</time></trkpt><trkpt lat="40.718709700088105" lon="9.376295226108207"><ele>602.0</ele><time>2026-03-28T11:11:45Z</time></trkpt><trkpt lat="40.71861740833108" lon="9.376342986652737"><ele>602.0</ele><time>2026-03-28T11:11:46Z</time></trkpt><trkpt lat="40.71852748119201" lon="9.376399208813696"><ele>602.0</ele><time>2026-03-28T11:11:47Z</time></trkpt><trkpt lat="40.71843206295029" lon="9.376459824047405"><ele>601.6666666666666</ele><time>2026-03-28T11:11:48Z</time></trkpt><trkpt lat="40.71831740448197" lon="9.376552226482456"><ele>601.3333333333334</ele><time>2026-03-28T11:11:49Z</time></trkpt><trkpt lat="40.718162964958324" lon="9.37665193450494"><ele>601.0</ele><time>2026-03-28T11:11:49.999Z</time></trkpt><trkpt lat="40.717988911408156" lon="9.376758753803017"><ele>601.0</ele><time>2026-03-28T11:11:50.999Z</time></trkpt><trkpt lat="40.71781163875209" lon="9.376873032536976"><ele>601.0</ele><time>2026-03-28T11:11:51.999Z</time></trkpt><trkpt lat="40.7176359229036" lon="9.376980825262002"><ele>601.0</ele><time>2026-03-28T11:11:52.999Z</time></trkpt><trkpt lat="40.717483077469275" lon="9.377067903361393"><ele>603.0</ele><time>2026-03-28T11:11:53.999Z</time></trkpt><trkpt lat="40.71732604096321" lon="9.377176069389723"><ele>605.0</ele><time>2026-03-28T11:11:54.999Z</time></trkpt><trkpt lat="40.71720032420942" lon="9.377257659443366"><ele>607.0</ele><time>2026-03-28T11:11:55.999Z</time></trkpt><trkpt lat="40.7170571085941" lon="9.377325125205905"><ele>608.6666666666667</ele><time>2026-03-28T11:11:56.999Z</time></trkpt><trkpt lat="40.71689826649176" lon="9.377388841868951"><ele>610.3333333333334</ele><time>2026-03-28T11:11:57.999Z</time></trkpt><trkpt lat="40.716752134214104" lon="9.3774373690573"><ele>612.0</ele><time>2026-03-28T11:11:58.999Z</time></trkpt><trkpt lat="40.71662305397003" lon="9.37748516800381"><ele>612.0</ele><time>2026-03-28T11:11:59.999Z</time></trkpt><trkpt lat="40.71650572291468" lon="9.377528480000883"><ele>612.0</ele><time>2026-03-28T11:12:00.999Z</time></trkpt><trkpt lat="40.716422914267795" lon="9.377570286003355"><ele>612.0</ele><time>2026-03-28T11:12:01.999Z</time></trkpt><trkpt lat="40.716356171370435" lon="9.377662231915908"><ele>612.0</ele><time>2026-03-28T11:12:02.999Z</time></trkpt><trkpt lat="40.71631141406693" lon="9.377801527436537"><ele>612.0</ele><time>2026-03-28T11:12:03.999Z</time></trkpt><trkpt lat="40.71628316669245" lon="9.377933962905876"><ele>611.5</ele><time>2026-03-28T11:12:04.999Z</time></trkpt><trkpt lat="40.71622658949879" lon="9.378059323865267"><ele>611.0</ele><time>2026-03-28T11:12:05.999Z</time></trkpt><trkpt lat="40.716123730409066" lon="9.378169798771472"><ele>610.5</ele><time>2026-03-28T11:12:06.999Z</time></trkpt><trkpt lat="40.71603562335698" lon="9.378271109126443"><ele>610.0</ele><time>2026-03-28T11:12:07.999Z</time></trkpt><trkpt lat="40.715993501481606" lon="9.378378129962991"><ele>610.0</ele><time>2026-03-28T11:12:08.999Z</time></trkpt><trkpt lat="40.71597391409429" lon="9.378537383183751"><ele>610.0</ele><time>2026-03-28T11:12:09.999Z</time></trkpt><trkpt lat="40.71596266489978" lon="9.378709960425768"><ele>610.0</ele><time>2026-03-28T11:12:10.999Z</time></trkpt><trkpt lat="40.715932629856866" lon="9.378852518075655"><ele>610.0</ele><time>2026-03-28T11:12:11.999Z</time></trkpt><trkpt lat="40.71588482908096" lon="9.378957368757998"><ele>608.4</ele><time>2026-03-28T11:12:12.999Z</time></trkpt><trkpt lat="40.7158217872275" lon="9.379051127329491"><ele>606.8</ele><time>2026-03-28T11:12:13.999Z</time></trkpt><trkpt lat="40.71573923105889" lon="9.379105033752278"><ele>605.2</ele><time>2026-03-28T11:12:14.999Z</time></trkpt><trkpt lat="40.71567464205075" lon="9.379103574797423"><ele>603.6</ele><time>2026-03-28T11:12:15.999Z</time></trkpt><trkpt lat="40.7155820221816" lon="9.379090930871378"><ele>602.0</ele><time>2026-03-28T11:12:16.999Z</time></trkpt><trkpt lat="40.715460796700796" lon="9.379067261792622"><ele>602.0</ele><time>2026-03-28T11:12:17.999Z</time></trkpt><trkpt lat="40.715340986541975" lon="9.37901121518542"><ele>602.0</ele><time>2026-03-28T11:12:18.999Z</time></trkpt><trkpt lat="40.71521267706575" lon="9.378945096713197"><ele>602.0</ele><time>2026-03-28T11:12:19.999Z</time></trkpt><trkpt lat="40.71507964517092" lon="9.378932785751111"><ele>602.0</ele><time>2026-03-28T11:12:20.999Z</time></trkpt><trkpt lat="40.71490712814052" lon="9.378922044276178"><ele>601.75</ele><time>2026-03-28T11:12:21.999Z</time></trkpt><trkpt lat="40.71476192331334" lon="9.378914328380873"><ele>601.5</ele><time>2026-03-28T11:12:22.999Z</time></trkpt><trkpt lat="40.71462771186522" lon="9.378933272876608"><ele>601.25</ele><time>2026-03-28T11:12:23.999Z</time></trkpt><trkpt lat="40.71449170164303" lon="9.378966218408168"><ele>601.0</ele><time>2026-03-28T11:12:24.999Z</time></trkpt><trkpt lat="40.71436572133427" lon="9.37899320657728"><ele>600.8</ele><time>2026-03-28T11:12:25.999Z</time></trkpt><trkpt lat="40.71426179622591" lon="9.379016012841195"><ele>600.6</ele><time>2026-03-28T11:12:26.999Z</time></trkpt><trkpt lat="40.71416629531231" lon="9.379045291278196"><ele>600.4</ele><time>2026-03-28T11:12:27.999Z</time></trkpt><trkpt lat="40.71407379397925" lon="9.379067685044005"><ele>600.2</ele><time>2026-03-28T11:12:28.999Z</time></trkpt><trkpt lat="40.71398382039153" lon="9.37908201913757"><ele>600.0</ele><time>2026-03-28T11:12:29.999Z</time></trkpt><trkpt lat="40.713909160762825" lon="9.379087024190175"><ele>600.0</ele><time>2026-03-28T11:12:30.999Z</time></trkpt><trkpt lat="40.71380824246804" lon="9.379089973453341"><ele>600.0</ele><time>2026-03-28T11:12:32.999Z</time></trkpt><trkpt lat="40.713738127798834" lon="9.379105309978067"><ele>600.0</ele><time>2026-03-28T11:13:19Z</time></trkpt><trkpt lat="40.713666128802636" lon="9.37912117638045"><ele>600.0</ele><time>2026-03-28T11:14:09.999Z</time></trkpt><trkpt lat="40.71359696305191" lon="9.379163166176353"><ele>600.0</ele><time>2026-03-28T11:14:12.999Z</time></trkpt><trkpt lat="40.71361232980955" lon="9.379260607236386"><ele>600.0</ele><time>2026-03-28T11:14:16.999Z</time></trkpt><trkpt lat="40.71367947499272" lon="9.37932248636551"><ele>600.0</ele><time>2026-03-28T11:14:19.999Z</time></trkpt><trkpt lat="40.71378318737364" lon="9.379374218680162"><ele>600.0</ele><time>2026-03-28T11:14:21.999Z</time></trkpt><trkpt lat="40.71385595226564" lon="9.379407119049658"><ele>600.0</ele><time>2026-03-28T11:14:22.999Z</time></trkpt><trkpt lat="40.713937122289366" lon="9.379455909444763"><ele>600.0</ele><time>2026-03-28T11:14:23.999Z</time></trkpt><trkpt lat="40.714018594242496" lon="9.379504775651641"><ele>600.0</ele><time>2026-03-28T11:14:24.999Z</time></trkpt><trkpt lat="40.71410683809535" lon="9.379557914040172"><ele>600.0</ele><time>2026-03-28T11:14:25.999Z</time></trkpt><trkpt lat="40.71420186313264" lon="9.379611125713895"><ele>600.0</ele><time>2026-03-28T11:14:26.999Z</time></trkpt><trkpt lat="40.71429951280531" lon="9.379665118206622"><ele>600.0</ele><time>2026-03-28T11:14:27.999Z</time></trkpt><trkpt lat="40.71449810735875" lon="9.379778563080453"><ele>600.0</ele><time>2026-03-28T11:14:28.999Z</time></trkpt><trkpt lat="40.71462693697508" lon="9.379852659639868"><ele>599.25</ele><time>2026-03-28T11:14:29.999Z</time></trkpt><trkpt lat="40.714754884076996" lon="9.379942750450011"><ele>598.5</ele><time>2026-03-28T11:14:30.999Z</time></trkpt><trkpt lat="40.714861940365076" lon="9.380033269899004"><ele>597.75</ele><time>2026-03-28T11:14:31.999Z</time></trkpt><trkpt lat="40.71498743872725" lon="9.380133698946876"><ele>597.0</ele><time>2026-03-28T11:14:32.999Z</time></trkpt><trkpt lat="40.71511879485944" lon="9.380236467911335"><ele>595.6666666666666</ele><time>2026-03-28T11:14:33.999Z</time></trkpt><trkpt lat="40.71525724900739" lon="9.380345120519126"><ele>594.3333333333333</ele><time>2026-03-28T11:14:34.999Z</time></trkpt><trkpt lat="40.71538467877627" lon="9.380443802440501"><ele>593.0</ele><time>2026-03-28T11:14:35.999Z</time></trkpt><trkpt lat="40.715517569963296" lon="9.380555970453164"><ele>593.0</ele><time>2026-03-28T11:14:36.999Z</time></trkpt><trkpt lat="40.71565352053097" lon="9.380672459578856"><ele>593.0</ele><time>2026-03-28T11:14:37.999Z</time></trkpt><trkpt lat="40.715788324359636" lon="9.380789382936664"><ele>593.0</ele><time>2026-03-28T11:14:38.999Z</time></trkpt><trkpt lat="40.71592123168798" lon="9.380902020034858"><ele>593.0</ele><time>2026-03-28T11:14:39.999Z</time></trkpt><trkpt lat="40.71606376884573" lon="9.381017200134224"><ele>593.0</ele><time>2026-03-28T11:14:40.999Z</time></trkpt><trkpt lat="40.71620033599893" lon="9.381127044255539"><ele>593.0</ele><time>2026-03-28T11:14:41.999Z</time></trkpt><trkpt lat="40.716330965385225" lon="9.381226828631904"><ele>591.3333333333333</ele><time>2026-03-28T11:14:42.999Z</time></trkpt><trkpt lat="40.71645733684335" lon="9.381320838778601"><ele>589.6666666666666</ele><time>2026-03-28T11:14:43.999Z</time></trkpt><trkpt lat="40.716601161861554" lon="9.381419508351636"><ele>588.0</ele><time>2026-03-28T11:14:44.999Z</time></trkpt><trkpt lat="40.71675617450193" lon="9.381507403056927"><ele>586.3333333333334</ele><time>2026-03-28T11:14:45.999Z</time></trkpt><trkpt lat="40.71692809605705" lon="9.38155939271597"><ele>584.6666666666667</ele><time>2026-03-28T11:14:46.999Z</time></trkpt><trkpt lat="40.717107304881075" lon="9.38157131217913"><ele>583.0</ele><time>2026-03-28T11:14:47.999Z</time></trkpt><trkpt lat="40.71728375776719" lon="9.381588494332256"><ele>583.0</ele><time>2026-03-28T11:14:48.999Z</time></trkpt><trkpt lat="40.71743846511571" lon="9.381615547744675"><ele>583.0</ele><time>2026-03-28T11:14:49.999Z</time></trkpt><trkpt lat="40.71758450327065" lon="9.38163790793117"><ele>583.0</ele><time>2026-03-28T11:14:50.999Z</time></trkpt><trkpt lat="40.71772994957691" lon="9.381644322476326"><ele>583.0</ele><time>2026-03-28T11:14:51.999Z</time></trkpt><trkpt lat="40.71789145810123" lon="9.381648393134828"><ele>581.0</ele><time>2026-03-28T11:14:52.999Z</time></trkpt><trkpt lat="40.71806987813126" lon="9.381646057525595"><ele>579.0</ele><time>2026-03-28T11:14:53.999Z</time></trkpt><trkpt lat="40.718239970471174" lon="9.381633911442387"><ele>577.0</ele><time>2026-03-28T11:14:55Z</time></trkpt><trkpt lat="40.71838935377351" lon="9.381639064108505"><ele>577.0</ele><time>2026-03-28T11:14:56Z</time></trkpt><trkpt lat="40.718540009826434" lon="9.381658035770688"><ele>577.0</ele><time>2026-03-28T11:14:57Z</time></trkpt><trkpt lat="40.718686375723514" lon="9.38169764553545"><ele>577.0</ele><time>2026-03-28T11:14:58Z</time></trkpt><trkpt lat="40.718837151961274" lon="9.381769299422748"><ele>573.6666666666667</ele><time>2026-03-28T11:14:59Z</time></trkpt><trkpt lat="40.71898693854306" lon="9.381868858722857"><ele>570.3333333333334</ele><time>2026-03-28T11:15:00Z</time></trkpt><trkpt lat="40.71914619510625" lon="9.381986215184378"><ele>567.0</ele><time>2026-03-28T11:15:01Z</time></trkpt><trkpt lat="40.719305894942764" lon="9.382098247034907"><ele>564.6666666666666</ele><time>2026-03-28T11:15:02Z</time></trkpt><trkpt lat="40.719482288254426" lon="9.382225574896964"><ele>562.3333333333333</ele><time>2026-03-28T11:15:03Z</time></trkpt><trkpt lat="40.719657890973835" lon="9.382356227713373"><ele>560.0</ele><time>2026-03-28T11:15:04Z</time></trkpt><trkpt lat="40.719819435058405" lon="9.382473567320098"><ele>560.0</ele><time>2026-03-28T11:15:05Z</time></trkpt><trkpt lat="40.71999445314489" lon="9.38259467052734"><ele>560.0</ele><time>2026-03-28T11:15:06Z</time></trkpt><trkpt lat="40.72017924427327" lon="9.382713664388922"><ele>560.0</ele><time>2026-03-28T11:15:07Z</time></trkpt><trkpt lat="40.72035894787037" lon="9.382829004142353"><ele>561.3333333333333</ele><time>2026-03-28T11:15:08Z</time></trkpt><trkpt lat="40.72054285830771" lon="9.382942073240397"><ele>562.6666666666666</ele><time>2026-03-28T11:15:09Z</time></trkpt><trkpt lat="40.72073744088954" lon="9.383060122599332"><ele>564.0</ele><time>2026-03-28T11:15:10Z</time></trkpt><trkpt lat="40.720915037985314" lon="9.383154169222816"><ele>561.0</ele><time>2026-03-28T11:15:11Z</time></trkpt><trkpt lat="40.721081532126696" lon="9.383239326809127"><ele>558.0</ele><time>2026-03-28T11:15:12Z</time></trkpt><trkpt lat="40.72124113427029" lon="9.383322930290188"><ele>555.0</ele><time>2026-03-28T11:15:13Z</time></trkpt><trkpt lat="40.721393014694854" lon="9.383399823231818"><ele>555.0</ele><time>2026-03-28T11:15:14Z</time></trkpt><trkpt lat="40.721536608974525" lon="9.383463651203666"><ele>555.0</ele><time>2026-03-28T11:15:15Z</time></trkpt><trkpt lat="40.72168583131508" lon="9.38352826498275"><ele>555.0</ele><time>2026-03-28T11:15:16Z</time></trkpt><trkpt lat="40.72185632810025" lon="9.383590157812169"><ele>553.0</ele><time>2026-03-28T11:15:17Z</time></trkpt><trkpt lat="40.72203849586097" lon="9.383653530796911"><ele>551.0</ele><time>2026-03-28T11:15:18Z</time></trkpt><trkpt lat="40.722218308186974" lon="9.383717042359638"><ele>549.0</ele><time>2026-03-28T11:15:19Z</time></trkpt><trkpt lat="40.72239172092446" lon="9.383774081869161"><ele>549.0</ele><time>2026-03-28T11:15:20Z</time></trkpt><trkpt lat="40.72257944392301" lon="9.38381096364237"><ele>549.0</ele><time>2026-03-28T11:15:21Z</time></trkpt><trkpt lat="40.72279270984302" lon="9.383821793283179"><ele>549.0</ele><time>2026-03-28T11:15:22Z</time></trkpt><trkpt lat="40.723020956120244" lon="9.383802872347486"><ele>546.0</ele><time>2026-03-28T11:15:23Z</time></trkpt><trkpt lat="40.72325675639464" lon="9.383775638766032"><ele>543.0</ele><time>2026-03-28T11:15:24Z</time></trkpt><trkpt lat="40.72350678441991" lon="9.38375068155888"><ele>545.0</ele><time>2026-03-28T11:15:25Z</time></trkpt><trkpt lat="40.72373527793685" lon="9.383725808418088"><ele>547.0</ele><time>2026-03-28T11:15:26Z</time></trkpt><trkpt lat="40.72394503998235" lon="9.383710092007378"><ele>549.0</ele><time>2026-03-28T11:15:27Z</time></trkpt><trkpt lat="40.72413466781276" lon="9.383700450857617"><ele>549.0</ele><time>2026-03-28T11:15:28Z</time></trkpt><trkpt lat="40.72431371539187" lon="9.383701668980422"><ele>549.0</ele><time>2026-03-28T11:15:29Z</time></trkpt><trkpt lat="40.724483695788074" lon="9.383725162955486"><ele>549.0</ele><time>2026-03-28T11:15:30Z</time></trkpt><trkpt lat="40.724663455432406" lon="9.383764507603745"><ele>549.6666666666666</ele><time>2026-03-28T11:15:31Z</time></trkpt><trkpt lat="40.72485080271433" lon="9.383796259983232"><ele>550.3333333333333</ele><time>2026-03-28T11:15:32Z</time></trkpt><trkpt lat="40.725027549608335" lon="9.383827717796914"><ele>551.0</ele><time>2026-03-28T11:15:33Z</time></trkpt><trkpt lat="40.725191683081796" lon="9.383870549955276"><ele>548.75</ele><time>2026-03-28T11:15:34Z</time></trkpt><trkpt lat="40.725349690872235" lon="9.383905922757977"><ele>546.5</ele><time>2026-03-28T11:15:35Z</time></trkpt><trkpt lat="40.725496246352996" lon="9.383945368028156"><ele>544.25</ele><time>2026-03-28T11:15:36Z</time></trkpt><trkpt lat="40.72561652518778" lon="9.384016674512258"><ele>542.0</ele><time>2026-03-28T11:15:37Z</time></trkpt><trkpt lat="40.72569769862545" lon="9.384132528277037"><ele>542.0</ele><time>2026-03-28T11:15:38Z</time></trkpt><trkpt lat="40.72576105402801" lon="9.384283554651544"><ele>542.0</ele><time>2026-03-28T11:15:39Z</time></trkpt><trkpt lat="40.725847685027745" lon="9.3844578454495"><ele>542.0</ele><time>2026-03-28T11:15:40Z</time></trkpt><trkpt lat="40.72593539445666" lon="9.384629171722622"><ele>542.0</ele><time>2026-03-28T11:15:41Z</time></trkpt><trkpt lat="40.72602121345673" lon="9.384777366824727"><ele>541.0</ele><time>2026-03-28T11:15:42Z</time></trkpt><trkpt lat="40.726138145545036" lon="9.384892622839086"><ele>540.0</ele><time>2026-03-28T11:15:43Z</time></trkpt><trkpt lat="40.72629211865453" lon="9.384992054152036"><ele>539.0</ele><time>2026-03-28T11:15:44Z</time></trkpt><trkpt lat="40.72648310358304" lon="9.385083425456639"><ele>539.0</ele><time>2026-03-28T11:15:45Z</time></trkpt><trkpt lat="40.72667264227266" lon="9.385168633355615"><ele>539.0</ele><time>2026-03-28T11:15:46Z</time></trkpt><trkpt lat="40.72684791182347" lon="9.38524993590116"><ele>539.0</ele><time>2026-03-28T11:15:47Z</time></trkpt><trkpt lat="40.72701584453466" lon="9.385332766374765"><ele>538.25</ele><time>2026-03-28T11:15:48Z</time></trkpt><trkpt lat="40.72716588519241" lon="9.385406832003325"><ele>537.5</ele><time>2026-03-28T11:15:49Z</time></trkpt><trkpt lat="40.727303410526034" lon="9.385484852355367"><ele>536.75</ele><time>2026-03-28T11:15:50Z</time></trkpt><trkpt lat="40.727411653949176" lon="9.385572263616064"><ele>536.0</ele><time>2026-03-28T11:15:51Z</time></trkpt><trkpt lat="40.727503399696985" lon="9.385673962762148"><ele>536.0</ele><time>2026-03-28T11:15:52Z</time></trkpt><trkpt lat="40.727588410476834" lon="9.38580038760109"><ele>536.0</ele><time>2026-03-28T11:15:53Z</time></trkpt><trkpt lat="40.72765548721573" lon="9.385941977924542"><ele>536.0</ele><time>2026-03-28T11:15:54Z</time></trkpt><trkpt lat="40.72770138987402" lon="9.386107238765016"><ele>536.0</ele><time>2026-03-28T11:15:55Z</time></trkpt><trkpt lat="40.72773535964098" lon="9.386292519608588"><ele>539.0</ele><time>2026-03-28T11:15:56Z</time></trkpt><trkpt lat="40.727775611349564" lon="9.386494521003103"><ele>542.0</ele><time>2026-03-28T11:15:57Z</time></trkpt><trkpt lat="40.72782081581965" lon="9.386695052403983"><ele>545.0</ele><time>2026-03-28T11:15:58Z</time></trkpt><trkpt lat="40.72786036795103" lon="9.38688434244915"><ele>545.0</ele><time>2026-03-28T11:15:59Z</time></trkpt><trkpt lat="40.727893587195034" lon="9.387058454370827"><ele>545.0</ele><time>2026-03-28T11:16:00Z</time></trkpt><trkpt lat="40.727930485547425" lon="9.387213370264737"><ele>545.0</ele><time>2026-03-28T11:16:01Z</time></trkpt><trkpt lat="40.72799218928099" lon="9.387360669739172"><ele>545.0</ele><time>2026-03-28T11:16:02Z</time></trkpt><trkpt lat="40.728089550343604" lon="9.38751512407272"><ele>540.3333333333333</ele><time>2026-03-28T11:16:03Z</time></trkpt><trkpt lat="40.72822205365413" lon="9.387677621573404"><ele>535.6666666666666</ele><time>2026-03-28T11:16:04Z</time></trkpt><trkpt lat="40.72837186511914" lon="9.387844253326353"><ele>531.0</ele><time>2026-03-28T11:16:05Z</time></trkpt><trkpt lat="40.72852617008082" lon="9.388021709969333"><ele>530.6666666666666</ele><time>2026-03-28T11:16:06Z</time></trkpt><trkpt lat="40.728689356790426" lon="9.388209893273647"><ele>530.3333333333333</ele><time>2026-03-28T11:16:07Z</time></trkpt><trkpt lat="40.72885430837197" lon="9.388396277043118"><ele>530.0</ele><time>2026-03-28T11:16:08Z</time></trkpt><trkpt lat="40.72901008312261" lon="9.388561296741864"><ele>530.0</ele><time>2026-03-28T11:16:09Z</time></trkpt><trkpt lat="40.72916600065856" lon="9.388716584839472"><ele>530.0</ele><time>2026-03-28T11:16:10Z</time></trkpt><trkpt lat="40.72933239135171" lon="9.388861405829415"><ele>530.0</ele><time>2026-03-28T11:16:11Z</time></trkpt><trkpt lat="40.72950426131687" lon="9.389000828558387"><ele>528.6666666666666</ele><time>2026-03-28T11:16:12Z</time></trkpt><trkpt lat="40.72966028732964" lon="9.389140264619218"><ele>527.3333333333334</ele><time>2026-03-28T11:16:13Z</time></trkpt><trkpt lat="40.72979866614504" lon="9.389269309969887"><ele>526.0</ele><time>2026-03-28T11:16:14Z</time></trkpt><trkpt lat="40.72993314023819" lon="9.389374307103772"><ele>526.0</ele><time>2026-03-28T11:16:15Z</time></trkpt><trkpt lat="40.730067627293664" lon="9.389448037176892"><ele>526.0</ele><time>2026-03-28T11:16:16Z</time></trkpt><trkpt lat="40.73022863297442" lon="9.389485110943749"><ele>526.0</ele><time>2026-03-28T11:16:17Z</time></trkpt><trkpt lat="40.73042827001382" lon="9.38949269552971"><ele>526.3333333333334</ele><time>2026-03-28T11:16:18Z</time></trkpt><trkpt lat="40.730637268172515" lon="9.389486113878831"><ele>526.6666666666666</ele><time>2026-03-28T11:16:19Z</time></trkpt><trkpt lat="40.73084401238569" lon="9.389481913529918"><ele>527.0</ele><time>2026-03-28T11:16:20Z</time></trkpt><trkpt lat="40.73104683383508" lon="9.38948658956479"><ele>528.3333333333333</ele><time>2026-03-28T11:16:21Z</time></trkpt><trkpt lat="40.731229499883334" lon="9.38949674247798"><ele>529.6666666666666</ele><time>2026-03-28T11:16:22Z</time></trkpt><trkpt lat="40.73139438468975" lon="9.3895131057716"><ele>531.0</ele><time>2026-03-28T11:16:23Z</time></trkpt><trkpt lat="40.73153156418049" lon="9.389543764974468"><ele>531.0</ele><time>2026-03-28T11:16:24Z</time></trkpt><trkpt lat="40.73164731813457" lon="9.389603691598593"><ele>531.0</ele><time>2026-03-28T11:16:25Z</time></trkpt><trkpt lat="40.73173814615329" lon="9.38969672534184"><ele>531.0</ele><time>2026-03-28T11:16:26Z</time></trkpt><trkpt lat="40.73181469616035" lon="9.389854620818534"><ele>531.0</ele><time>2026-03-28T11:16:27Z</time></trkpt><trkpt lat="40.731884539429764" lon="9.390058585214454"><ele>532.3333333333334</ele><time>2026-03-28T11:16:28Z</time></trkpt><trkpt lat="40.731951691256825" lon="9.390284576306907"><ele>533.6666666666667</ele><time>2026-03-28T11:16:29Z</time></trkpt><trkpt lat="40.73201902982841" lon="9.390506380438142"><ele>535.0</ele><time>2026-03-28T11:16:30Z</time></trkpt><trkpt lat="40.73208596162329" lon="9.390720806360388"><ele>531.0</ele><time>2026-03-28T11:16:31Z</time></trkpt><trkpt lat="40.732147957952144" lon="9.390923500817108"><ele>527.0</ele><time>2026-03-28T11:16:32Z</time></trkpt><trkpt lat="40.732218790035645" lon="9.391145806723031"><ele>523.0</ele><time>2026-03-28T11:16:33Z</time></trkpt><trkpt lat="40.732301127433" lon="9.391391353795761"><ele>519.6666666666667</ele><time>2026-03-28T11:16:34Z</time></trkpt><trkpt lat="40.732387849792694" lon="9.39164503376756"><ele>516.3333333333334</ele><time>2026-03-28T11:16:34.999Z</time></trkpt><trkpt lat="40.73246804719798" lon="9.391889645298962"><ele>513.0</ele><time>2026-03-28T11:16:35.999Z</time></trkpt><trkpt lat="40.73255375297527" lon="9.39211729683504"><ele>512.3333333333334</ele><time>2026-03-28T11:16:36.999Z</time></trkpt><trkpt lat="40.732650296841776" lon="9.392339151404183"><ele>511.6666666666667</ele><time>2026-03-28T11:16:37.999Z</time></trkpt><trkpt lat="40.73275978817261" lon="9.392567844952898"><ele>511.0</ele><time>2026-03-28T11:16:38.999Z</time></trkpt><trkpt lat="40.73287558928474" lon="9.392786225781238"><ele>511.33333333333337</ele><time>2026-03-28T11:16:39.999Z</time></trkpt><trkpt lat="40.73301082275362" lon="9.393001652940612"><ele>511.66666666666663</ele><time>2026-03-28T11:16:40.999Z</time></trkpt><trkpt lat="40.73316368451257" lon="9.393211679998318"><ele>512.0</ele><time>2026-03-28T11:16:41.999Z</time></trkpt><trkpt lat="40.733329414716536" lon="9.393416465779637"><ele>512.0</ele><time>2026-03-28T11:16:42.999Z</time></trkpt><trkpt lat="40.73348537284908" lon="9.393608722693456"><ele>512.0</ele><time>2026-03-28T11:16:43.999Z</time></trkpt><trkpt lat="40.733629650963785" lon="9.39378284546382"><ele>512.0</ele><time>2026-03-28T11:16:44.999Z</time></trkpt><trkpt lat="40.733771237072304" lon="9.393944421081336"><ele>511.66666666666663</ele><time>2026-03-28T11:16:45.999Z</time></trkpt><trkpt lat="40.73391805136727" lon="9.394091685214782"><ele>511.33333333333337</ele><time>2026-03-28T11:16:46.999Z</time></trkpt><trkpt lat="40.7340771999181" lon="9.39422602715782"><ele>511.0</ele><time>2026-03-28T11:16:47.999Z</time></trkpt><trkpt lat="40.73424171457277" lon="9.394366426964353"><ele>510.0</ele><time>2026-03-28T11:16:48.999Z</time></trkpt><trkpt lat="40.734402662104834" lon="9.394502241203632"><ele>509.0</ele><time>2026-03-28T11:16:49.999Z</time></trkpt><trkpt lat="40.73456319759059" lon="9.394628761733227"><ele>508.0</ele><time>2026-03-28T11:16:50.999Z</time></trkpt><trkpt lat="40.73473747044529" lon="9.39476613328723"><ele>506.6666666666667</ele><time>2026-03-28T11:16:51.999Z</time></trkpt><trkpt lat="40.73492111370587" lon="9.39491303863038"><ele>505.33333333333337</ele><time>2026-03-28T11:16:52.999Z</time></trkpt><trkpt lat="40.73509943259722" lon="9.39504943465685"><ele>504.0</ele><time>2026-03-28T11:16:53.999Z</time></trkpt><trkpt lat="40.73527978840865" lon="9.395178453252539"><ele>503.33333333333337</ele><time>2026-03-28T11:16:54.999Z</time></trkpt><trkpt lat="40.7354593314273" lon="9.395295163098002"><ele>502.6666666666667</ele><time>2026-03-28T11:16:55.999Z</time></trkpt><trkpt lat="40.73562879242446" lon="9.395398027741377"><ele>502.0</ele><time>2026-03-28T11:16:56.999Z</time></trkpt><trkpt lat="40.73579610043447" lon="9.395503567360375"><ele>502.33333333333337</ele><time>2026-03-28T11:16:57.999Z</time></trkpt><trkpt lat="40.735970674682896" lon="9.39561634880334"><ele>502.66666666666663</ele><time>2026-03-28T11:16:58.999Z</time></trkpt><trkpt lat="40.73613529295556" lon="9.395731328827768"><ele>503.0</ele><time>2026-03-28T11:16:59.999Z</time></trkpt><trkpt lat="40.73628395042053" lon="9.395841272596748"><ele>503.0</ele><time>2026-03-28T11:17:01Z</time></trkpt><trkpt lat="40.73643853467823" lon="9.39595208188264"><ele>503.0</ele><time>2026-03-28T11:17:02Z</time></trkpt><trkpt lat="40.73660995430881" lon="9.39606946603377"><ele>503.0</ele><time>2026-03-28T11:17:03Z</time></trkpt><trkpt lat="40.73679228888903" lon="9.39619447277347"><ele>502.66666666666663</ele><time>2026-03-28T11:17:04Z</time></trkpt><trkpt lat="40.73697204643186" lon="9.396328012262673"><ele>502.33333333333337</ele><time>2026-03-28T11:17:05Z</time></trkpt><trkpt lat="40.73717072660193" lon="9.396494111057917"><ele>502.0</ele><time>2026-03-28T11:17:06Z</time></trkpt><trkpt lat="40.73736850236844" lon="9.396670797398594"><ele>502.0</ele><time>2026-03-28T11:17:07Z</time></trkpt><trkpt lat="40.737562901241745" lon="9.396847629351534"><ele>502.0</ele><time>2026-03-28T11:17:08Z</time></trkpt><trkpt lat="40.73775272661896" lon="9.39701862298486"><ele>501.33333333333337</ele><time>2026-03-28T11:17:09Z</time></trkpt><trkpt lat="40.737935400524265" lon="9.39718377655225"><ele>500.66666666666663</ele><time>2026-03-28T11:17:10Z</time></trkpt><trkpt lat="40.73811771213266" lon="9.397344724525942"><ele>500.0</ele><time>2026-03-28T11:17:11Z</time></trkpt><trkpt lat="40.73829811592774" lon="9.397503196522608"><ele>500.0</ele><time>2026-03-28T11:17:12Z</time></trkpt><trkpt lat="40.73847344852073" lon="9.397655645565282"><ele>500.0</ele><time>2026-03-28T11:17:13Z</time></trkpt><trkpt lat="40.73864193606861" lon="9.397806593489577"><ele>500.0</ele><time>2026-03-28T11:17:14Z</time></trkpt><trkpt lat="40.73882066895866" lon="9.397977036550476"><ele>498.0</ele><time>2026-03-28T11:17:15Z</time></trkpt><trkpt lat="40.73901886120033" lon="9.398159072586475"><ele>496.0</ele><time>2026-03-28T11:17:16Z</time></trkpt><trkpt lat="40.739213688847414" lon="9.398322948753005"><ele>495.6666666666667</ele><time>2026-03-28T11:17:17Z</time></trkpt><trkpt lat="40.739397569706576" lon="9.398468388723506"><ele>495.33333333333337</ele><time>2026-03-28T11:17:18Z</time></trkpt><trkpt lat="40.73957923544187" lon="9.398606187747136"><ele>495.0</ele><time>2026-03-28T11:17:19Z</time></trkpt><trkpt lat="40.73977064860284" lon="9.398748665398484"><ele>495.0</ele><time>2026-03-28T11:17:20Z</time></trkpt><trkpt lat="40.73997689783478" lon="9.398894985260593"><ele>495.0</ele><time>2026-03-28T11:17:21Z</time></trkpt><trkpt lat="40.740191888394506" lon="9.399039234119883"><ele>494.5</ele><time>2026-03-28T11:17:22Z</time></trkpt><trkpt lat="40.740423057181644" lon="9.399182987014077"><ele>494.0</ele><time>2026-03-28T11:17:23Z</time></trkpt><trkpt lat="40.740667238234344" lon="9.399324046077387"><ele>494.0</ele><time>2026-03-28T11:17:24Z</time></trkpt><trkpt lat="40.740897956177506" lon="9.399456495743715"><ele>494.0</ele><time>2026-03-28T11:17:25Z</time></trkpt><trkpt lat="40.741112223492244" lon="9.399581301892706"><ele>494.0</ele><time>2026-03-28T11:17:26Z</time></trkpt><trkpt lat="40.74131299711091" lon="9.399699058219777"><ele>494.0</ele><time>2026-03-28T11:17:27Z</time></trkpt><trkpt lat="40.74151458088601" lon="9.399818298247482"><ele>494.0</ele><time>2026-03-28T11:17:28Z</time></trkpt><trkpt lat="40.74171518452417" lon="9.399940333317751"><ele>493.66666666666663</ele><time>2026-03-28T11:17:29Z</time></trkpt><trkpt lat="40.74190869541379" lon="9.400055650932206"><ele>493.33333333333337</ele><time>2026-03-28T11:17:30Z</time></trkpt><trkpt lat="40.742118804849156" lon="9.400182080712023"><ele>493.0</ele><time>2026-03-28T11:17:31Z</time></trkpt><trkpt lat="40.74232963919793" lon="9.40031226316933"><ele>493.0</ele><time>2026-03-28T11:17:32Z</time></trkpt><trkpt lat="40.74254212022162" lon="9.400443020962046"><ele>493.0</ele><time>2026-03-28T11:17:33Z</time></trkpt><trkpt lat="40.74275323980708" lon="9.400569900579505"><ele>493.0</ele><time>2026-03-28T11:17:34Z</time></trkpt><trkpt lat="40.74295902905492" lon="9.400691525091592"><ele>493.0</ele><time>2026-03-28T11:17:35Z</time></trkpt><trkpt lat="40.743154945021665" lon="9.400809390303436"><ele>493.0</ele><time>2026-03-28T11:17:36Z</time></trkpt><trkpt lat="40.74333671016587" lon="9.400923678782169"><ele>493.0</ele><time>2026-03-28T11:17:37Z</time></trkpt><trkpt lat="40.743526536392" lon="9.401047176466722"><ele>493.0</ele><time>2026-03-28T11:17:38Z</time></trkpt><trkpt lat="40.7437128498168" lon="9.40117499345632"><ele>493.0</ele><time>2026-03-28T11:17:39Z</time></trkpt><trkpt lat="40.74388650409699" lon="9.401300794737526"><ele>493.33333333333337</ele><time>2026-03-28T11:17:40Z</time></trkpt><trkpt lat="40.74405975479923" lon="9.401433151331297"><ele>493.66666666666663</ele><time>2026-03-28T11:17:41Z</time></trkpt><trkpt lat="40.744224047443325" lon="9.401586258912744"><ele>494.0</ele><time>2026-03-28T11:17:42Z</time></trkpt><trkpt lat="40.74438912714087" lon="9.401777835873826"><ele>499.0</ele><time>2026-03-28T11:17:43Z</time></trkpt><trkpt lat="40.744540340460325" lon="9.402009008832296"><ele>504.0</ele><time>2026-03-28T11:17:44Z</time></trkpt><trkpt lat="40.74468469888544" lon="9.402251420682434"><ele>504.0</ele><time>2026-03-28T11:17:45Z</time></trkpt><trkpt lat="40.74482927535004" lon="9.402516868808464"><ele>504.0</ele><time>2026-03-28T11:17:46Z</time></trkpt><trkpt lat="40.74496265621727" lon="9.40276991836548"><ele>503.66666666666663</ele><time>2026-03-28T11:17:47Z</time></trkpt><trkpt lat="40.74508658126456" lon="9.403000469290614"><ele>503.3333333333333</ele><time>2026-03-28T11:17:48Z</time></trkpt><trkpt lat="40.74517949303186" lon="9.403188243574723"><ele>503.0</ele><time>2026-03-28T11:17:49Z</time></trkpt><trkpt lat="40.74528589361072" lon="9.403371085783789"><ele>502.3333333333333</ele><time>2026-03-28T11:17:50Z</time></trkpt><trkpt lat="40.74542742548754" lon="9.403559395171236"><ele>501.66666666666663</ele><time>2026-03-28T11:17:51Z</time></trkpt><trkpt lat="40.745593927523245" lon="9.403736724021547"><ele>501.0</ele><time>2026-03-28T11:17:52Z</time></trkpt><trkpt lat="40.74574915944315" lon="9.403908131607714"><ele>501.0</ele><time>2026-03-28T11:17:53Z</time></trkpt><trkpt lat="40.745886540834576" lon="9.4040730651912"><ele>501.0</ele><time>2026-03-28T11:17:54Z</time></trkpt><trkpt lat="40.74609442100728" lon="9.404287655286693"><ele>502.33333333333337</ele><time>2026-03-28T11:17:55Z</time></trkpt><trkpt lat="40.746232328862234" lon="9.40444524349596"><ele>503.6666666666667</ele><time>2026-03-28T11:17:56Z</time></trkpt><trkpt lat="40.746365073234905" lon="9.404601670275012"><ele>505.0</ele><time>2026-03-28T11:17:57Z</time></trkpt><trkpt lat="40.746491445206225" lon="9.40474775229129"><ele>505.0</ele><time>2026-03-28T11:17:58Z</time></trkpt><trkpt lat="40.746618082073134" lon="9.404874709634539"><ele>505.0</ele><time>2026-03-28T11:17:59Z</time></trkpt><trkpt lat="40.74678298963033" lon="9.40499296307506"><ele>505.0</ele><time>2026-03-28T11:18:00Z</time></trkpt><trkpt lat="40.74697678882084" lon="9.405102020369572"><ele>505.33333333333337</ele><time>2026-03-28T11:18:01Z</time></trkpt><trkpt lat="40.747176099013394" lon="9.405215148750406"><ele>505.66666666666663</ele><time>2026-03-28T11:18:02Z</time></trkpt><trkpt lat="40.74734798669652" lon="9.40533591982183"><ele>506.0</ele><time>2026-03-28T11:18:03Z</time></trkpt><trkpt lat="40.74749407443254" lon="9.405476171020652"><ele>507.0</ele><time>2026-03-28T11:18:04Z</time></trkpt><trkpt lat="40.74761263159498" lon="9.405639642375652"><ele>508.0</ele><time>2026-03-28T11:18:05Z</time></trkpt><trkpt lat="40.7477046131344" lon="9.405819450681749"><ele>509.0</ele><time>2026-03-28T11:18:06Z</time></trkpt><trkpt lat="40.74776011454058" lon="9.40600833685753"><ele>509.0</ele><time>2026-03-28T11:18:07Z</time></trkpt><trkpt lat="40.74779628865764" lon="9.406229460049275"><ele>509.0</ele><time>2026-03-28T11:18:08Z</time></trkpt><trkpt lat="40.74783806555224" lon="9.406433384980344"><ele>509.0</ele><time>2026-03-28T11:18:09Z</time></trkpt><trkpt lat="40.747908335705304" lon="9.40661401993377"><ele>508.66666666666663</ele><time>2026-03-28T11:18:10Z</time></trkpt><trkpt lat="40.748009270721525" lon="9.406781627923964"><ele>508.33333333333337</ele><time>2026-03-28T11:18:11Z</time></trkpt><trkpt lat="40.748150287685434" lon="9.406931044645628"><ele>508.0</ele><time>2026-03-28T11:18:12Z</time></trkpt><trkpt lat="40.74832938424118" lon="9.407075718152386"><ele>507.6666666666667</ele><time>2026-03-28T11:18:13Z</time></trkpt><trkpt lat="40.748521897471875" lon="9.407208341666482"><ele>507.33333333333337</ele><time>2026-03-28T11:18:14Z</time></trkpt><trkpt lat="40.74872638768933" lon="9.407330315859928"><ele>507.0</ele><time>2026-03-28T11:18:15Z</time></trkpt><trkpt lat="40.74890505231454" lon="9.40742143953803"><ele>507.0</ele><time>2026-03-28T11:18:16Z</time></trkpt><trkpt lat="40.749079597392466" lon="9.40748840718108"><ele>507.0</ele><time>2026-03-28T11:18:17Z</time></trkpt><trkpt lat="40.74927090095248" lon="9.407561403434075"><ele>507.0</ele><time>2026-03-28T11:18:18Z</time></trkpt><trkpt lat="40.74945550837053" lon="9.40759706527573"><ele>507.0</ele><time>2026-03-28T11:18:19Z</time></trkpt><trkpt lat="40.74962310346426" lon="9.407617581364235"><ele>507.0</ele><time>2026-03-28T11:18:20Z</time></trkpt><trkpt lat="40.749799689217745" lon="9.40763497568514"><ele>507.0</ele><time>2026-03-28T11:18:21Z</time></trkpt><trkpt lat="40.75000342373639" lon="9.407643088123418"><ele>508.0</ele><time>2026-03-28T11:18:22Z</time></trkpt><trkpt lat="40.75021546352377" lon="9.407642882105481"><ele>509.0</ele><time>2026-03-28T11:18:23Z</time></trkpt><trkpt lat="40.75041352416848" lon="9.407628194756505"><ele>510.0</ele><time>2026-03-28T11:18:24Z</time></trkpt><trkpt lat="40.75057629178711" lon="9.40761949687973"><ele>510.0</ele><time>2026-03-28T11:18:25Z</time></trkpt><trkpt lat="40.75070673103911" lon="9.407620441675494"><ele>510.0</ele><time>2026-03-28T11:18:26Z</time></trkpt><trkpt lat="40.75080291075333" lon="9.407632159610504"><ele>510.0</ele><time>2026-03-28T11:18:27Z</time></trkpt><trkpt lat="40.75087915544713" lon="9.407646786192904"><ele>510.0</ele><time>2026-03-28T11:18:28Z</time></trkpt><trkpt lat="40.75094685675983" lon="9.407662189385025"><ele>510.0</ele><time>2026-03-28T11:18:29Z</time></trkpt><trkpt lat="40.75104649679586" lon="9.407690727952126"><ele>510.0</ele><time>2026-03-28T11:18:31Z</time></trkpt><trkpt lat="40.7510833258961" lon="9.407767913833741"><ele>510.0</ele><time>2026-03-28T11:18:35Z</time></trkpt><trkpt lat="40.75106547930273" lon="9.407676897228386"><ele>510.0</ele><time>2026-03-28T11:18:44Z</time></trkpt><trkpt lat="40.75097183639471" lon="9.40767090918193"><ele>510.0</ele><time>2026-03-28T11:18:45Z</time></trkpt><trkpt lat="40.750845061151246" lon="9.407659840627893"><ele>510.0</ele><time>2026-03-28T11:18:45.999Z</time></trkpt><trkpt lat="40.75070189751662" lon="9.407633588726911"><ele>510.0</ele><time>2026-03-28T11:18:46.999Z</time></trkpt><trkpt lat="40.75055068830014" lon="9.407620425993041"><ele>510.0</ele><time>2026-03-28T11:18:47.999Z</time></trkpt><trkpt lat="40.75038413429301" lon="9.407616278099242"><ele>510.0</ele><time>2026-03-28T11:18:48.999Z</time></trkpt><trkpt lat="40.75023195070344" lon="9.40762572302446"><ele>509.4</ele><time>2026-03-28T11:18:49.999Z</time></trkpt><trkpt lat="40.75009780228699" lon="9.407634393602066"><ele>508.8</ele><time>2026-03-28T11:18:50.999Z</time></trkpt><trkpt lat="40.74997970750817" lon="9.407637424113398"><ele>508.20000000000005</ele><time>2026-03-28T11:18:51.999Z</time></trkpt><trkpt lat="40.74988410552775" lon="9.407631463055134"><ele>507.6</ele><time>2026-03-28T11:18:52.999Z</time></trkpt><trkpt lat="40.74980911856303" lon="9.40763319674685"><ele>507.0</ele><time>2026-03-28T11:18:53.999Z</time></trkpt><trkpt lat="40.74973483193866" lon="9.407694468029026"><ele>507.0</ele><time>2026-03-28T11:18:55.999Z</time></trkpt><trkpt lat="40.74972972258461" lon="9.407786773041417"><ele>507.0</ele><time>2026-03-28T11:18:58.999Z</time></trkpt><trkpt lat="40.74978099224653" lon="9.407847811545283"><ele>507.0</ele><time>2026-03-28T11:19:02.999Z</time></trkpt><trkpt lat="40.74984365068051" lon="9.407824975050815"><ele>507.0</ele><time>2026-03-28T11:19:14Z</time></trkpt><trkpt lat="40.74998343529017" lon="9.407797264700722"><ele>507.0</ele><time>2026-03-28T11:19:16Z</time></trkpt><trkpt lat="40.75007769569421" lon="9.407779575715287"><ele>507.0</ele><time>2026-03-28T11:19:17Z</time></trkpt><trkpt lat="40.7501536519435" lon="9.407766559866488"><ele>507.6</ele><time>2026-03-28T11:19:18Z</time></trkpt><trkpt lat="40.750254439478276" lon="9.407753786377441"><ele>508.20000000000005</ele><time>2026-03-28T11:19:19Z</time></trkpt><trkpt lat="40.750364818781655" lon="9.407746369097366"><ele>508.8</ele><time>2026-03-28T11:19:20Z</time></trkpt><trkpt lat="40.750468730111635" lon="9.407751939335562"><ele>509.4</ele><time>2026-03-28T11:19:21Z</time></trkpt><trkpt lat="40.750588086864276" lon="9.407764215561178"><ele>510.0</ele><time>2026-03-28T11:19:22Z</time></trkpt><trkpt lat="40.75071083944927" lon="9.407788148355769"><ele>510.0</ele><time>2026-03-28T11:19:23Z</time></trkpt><trkpt lat="40.750835332534606" lon="9.407812208645954"><ele>510.0</ele><time>2026-03-28T11:19:24Z</time></trkpt><trkpt lat="40.75094430619494" lon="9.40784218169499"><ele>510.0</ele><time>2026-03-28T11:19:25Z</time></trkpt><trkpt lat="40.75101077074979" lon="9.407867679802633"><ele>510.0</ele><time>2026-03-28T11:19:26Z</time></trkpt><trkpt lat="40.75108481439684" lon="9.407899683649303"><ele>510.0</ele><time>2026-03-28T11:19:28Z</time></trkpt><trkpt lat="40.75115092333744" lon="9.40795695118244"><ele>509.4</ele><time>2026-03-28T11:19:30Z</time></trkpt><trkpt lat="40.75120764864514" lon="9.408014401561031"><ele>508.8</ele><time>2026-03-28T11:19:31Z</time></trkpt><trkpt lat="40.751272799129325" lon="9.408057486098551"><ele>508.20000000000005</ele><time>2026-03-28T11:19:32Z</time></trkpt><trkpt lat="40.751345985069534" lon="9.408128760471138"><ele>507.6</ele><time>2026-03-28T11:19:33Z</time></trkpt><trkpt lat="40.75141180892041" lon="9.408222725959966"><ele>507.0</ele><time>2026-03-28T11:19:34Z</time></trkpt><trkpt lat="40.75148508946581" lon="9.408357705876682"><ele>507.0</ele><time>2026-03-28T11:19:35Z</time></trkpt><trkpt lat="40.75155059387588" lon="9.408524401606945"><ele>507.0</ele><time>2026-03-28T11:19:36Z</time></trkpt><trkpt lat="40.751630299102196" lon="9.408704501190805"><ele>507.0</ele><time>2026-03-28T11:19:37Z</time></trkpt><trkpt lat="40.75169966364467" lon="9.408844688560217"><ele>507.0</ele><time>2026-03-28T11:19:38Z</time></trkpt><trkpt lat="40.751752768013716" lon="9.408930789978276"><ele>506.8</ele><time>2026-03-28T11:19:39Z</time></trkpt><trkpt lat="40.75180881223402" lon="9.40899025010853"><ele>506.6</ele><time>2026-03-28T11:19:40Z</time></trkpt><trkpt lat="40.7519359310275" lon="9.409046558754774"><ele>506.40000000000003</ele><time>2026-03-28T11:19:42Z</time></trkpt><trkpt lat="40.75204468633466" lon="9.409056343951212"><ele>506.20000000000005</ele><time>2026-03-28T11:19:43Z</time></trkpt><trkpt lat="40.75215304680029" lon="9.409028568427733"><ele>506.0</ele><time>2026-03-28T11:19:44Z</time></trkpt><trkpt lat="40.75226588530059" lon="9.409002477289155"><ele>505.99999999999994</ele><time>2026-03-28T11:19:45Z</time></trkpt><trkpt lat="40.752336409245586" lon="9.409009234210679"><ele>506.0</ele><time>2026-03-28T11:19:46Z</time></trkpt><trkpt lat="40.75240725633069" lon="9.409060093029503"><ele>506.0</ele><time>2026-03-28T11:19:48Z</time></trkpt><trkpt lat="40.75243686616169" lon="9.409141214583153"><ele>506.0</ele><time>2026-03-28T11:19:51Z</time></trkpt><trkpt lat="40.75243161855369" lon="9.40922440347907"><ele>505.99999999999994</ele><time>2026-03-28T11:19:52Z</time></trkpt><trkpt lat="40.75239675431117" lon="9.409369077802195"><ele>506.0</ele><time>2026-03-28T11:19:53Z</time></trkpt><trkpt lat="40.75238278354514" lon="9.409459520145179"><ele>505.99999999999994</ele><time>2026-03-28T11:19:54Z</time></trkpt><trkpt lat="40.75240500498463" lon="9.409540496347702"><ele>506.0</ele><time>2026-03-28T11:19:55Z</time></trkpt><trkpt lat="40.75246131674372" lon="9.409631134070219"><ele>506.0</ele><time>2026-03-28T11:19:56Z</time></trkpt><trkpt lat="40.75253751804923" lon="9.409737567147888"><ele>506.0</ele><time>2026-03-28T11:19:57Z</time></trkpt><trkpt lat="40.75257780066259" lon="9.409817345555533"><ele>505.99999999999994</ele><time>2026-03-28T11:19:58Z</time></trkpt><trkpt lat="40.75259644434363" lon="9.409907949680884"><ele>506.0</ele><time>2026-03-28T11:20:00Z</time></trkpt><trkpt lat="40.75264374357028" lon="9.409966370119992"><ele>506.0</ele><time>2026-03-28T11:20:05Z</time></trkpt><trkpt lat="40.752727012636996" lon="9.409909516093013"><ele>506.0</ele><time>2026-03-28T11:20:08Z</time></trkpt><trkpt lat="40.75276592058487" lon="9.409796319318707"><ele>506.0</ele><time>2026-03-28T11:20:09Z</time></trkpt><trkpt lat="40.7528127783449" lon="9.409687345615913"><ele>506.0</ele><time>2026-03-28T11:20:10Z</time></trkpt><trkpt lat="40.752881018111204" lon="9.409559495872246"><ele>506.0</ele><time>2026-03-28T11:20:11Z</time></trkpt><trkpt lat="40.75295105439835" lon="9.40943361361261"><ele>507.4</ele><time>2026-03-28T11:20:12Z</time></trkpt><trkpt lat="40.75299303475578" lon="9.409362456039936"><ele>508.8</ele><time>2026-03-28T11:20:13Z</time></trkpt><trkpt lat="40.75307113064983" lon="9.409283069311352"><ele>510.19999999999993</ele><time>2026-03-28T11:20:15Z</time></trkpt><trkpt lat="40.75318612413644" lon="9.409344165556826"><ele>511.59999999999997</ele><time>2026-03-28T11:20:17Z</time></trkpt><trkpt lat="40.75326892386099" lon="9.409439906085947"><ele>513.0</ele><time>2026-03-28T11:20:18Z</time></trkpt><trkpt lat="40.753355162674744" lon="9.40958018370125"><ele>513.5</ele><time>2026-03-28T11:20:19Z</time></trkpt><trkpt lat="40.75342983984358" lon="9.409736270848878"><ele>514.0</ele><time>2026-03-28T11:20:20Z</time></trkpt><trkpt lat="40.75350686690693" lon="9.409864089743387"><ele>514.5</ele><time>2026-03-28T11:20:21Z</time></trkpt><trkpt lat="40.753586511027684" lon="9.409978679172383"><ele>515.0</ele><time>2026-03-28T11:20:22Z</time></trkpt><trkpt lat="40.75365251582966" lon="9.410101062993887"><ele>515.0</ele><time>2026-03-28T11:20:23Z</time></trkpt><trkpt lat="40.753710673183654" lon="9.410221911008684"><ele>515.0</ele><time>2026-03-28T11:20:24Z</time></trkpt><trkpt lat="40.75374445701138" lon="9.410311625118853"><ele>515.0</ele><time>2026-03-28T11:20:25Z</time></trkpt><trkpt lat="40.75379501165645" lon="9.41037303277405"><ele>515.0</ele><time>2026-03-28T11:20:27Z</time></trkpt><trkpt lat="40.75386395531347" lon="9.410437512420652"><ele>515.0</ele><time>2026-03-28T11:20:29Z</time></trkpt><trkpt lat="40.75395079358371" lon="9.410529368799752"><ele>515.0</ele><time>2026-03-28T11:20:30Z</time></trkpt><trkpt lat="40.75403105440936" lon="9.410636011477198"><ele>513.5</ele><time>2026-03-28T11:20:31Z</time></trkpt><trkpt lat="40.75411512244996" lon="9.410743252524256"><ele>512.0</ele><time>2026-03-28T11:20:32Z</time></trkpt><trkpt lat="40.75419548649997" lon="9.410827177410333"><ele>510.5</ele><time>2026-03-28T11:20:33Z</time></trkpt><trkpt lat="40.75427525035451" lon="9.410894019594492"><ele>509.0</ele><time>2026-03-28T11:20:35Z</time></trkpt><trkpt lat="40.75433098849116" lon="9.411059769582982"><ele>508.99999999999994</ele><time>2026-03-28T11:20:37Z</time></trkpt><trkpt lat="40.754366682211504" lon="9.411146096766455"><ele>509.0</ele><time>2026-03-28T11:20:37.999Z</time></trkpt><trkpt lat="40.75442317954151" lon="9.411195120143084"><ele>509.0</ele><time>2026-03-28T11:20:39.999Z</time></trkpt><trkpt lat="40.75454415958408" lon="9.411198974799596"><ele>509.0</ele><time>2026-03-28T11:20:41.999Z</time></trkpt><trkpt lat="40.754633204989105" lon="9.411223884851536"><ele>508.99999999999994</ele><time>2026-03-28T11:20:42.999Z</time></trkpt><trkpt lat="40.75468776708458" lon="9.411280179269323"><ele>509.0</ele><time>2026-03-28T11:20:43.999Z</time></trkpt><trkpt lat="40.75472562533543" lon="9.411361477754754"><ele>510.4</ele><time>2026-03-28T11:20:44.999Z</time></trkpt><trkpt lat="40.75475708619786" lon="9.411497034244606"><ele>511.79999999999995</ele><time>2026-03-28T11:20:46.999Z</time></trkpt><trkpt lat="40.75482639093641" lon="9.411530741576506"><ele>513.2</ele><time>2026-03-28T11:20:50.999Z</time></trkpt><trkpt lat="40.75491111706711" lon="9.411523621147893"><ele>514.6</ele><time>2026-03-28T11:20:52.999Z</time></trkpt><trkpt lat="40.755027734127346" lon="9.41168871269865"><ele>516.0</ele><time>2026-03-28T11:20:54.999Z</time></trkpt><trkpt lat="40.75511270152831" lon="9.411821280328851"><ele>516.0</ele><time>2026-03-28T11:20:55.999Z</time></trkpt><trkpt lat="40.75518082412923" lon="9.411942703082527"><ele>516.0</ele><time>2026-03-28T11:20:56.999Z</time></trkpt><trkpt lat="40.75520958457473" lon="9.412039053512924"><ele>516.0</ele><time>2026-03-28T11:20:57.999Z</time></trkpt><trkpt lat="40.75522141538707" lon="9.412126294328345"><ele>516.0</ele><time>2026-03-28T11:20:58.999Z</time></trkpt><trkpt lat="40.75523228101945" lon="9.412238692384602"><ele>516.0</ele><time>2026-03-28T11:20:59.999Z</time></trkpt><trkpt lat="40.75525464245484" lon="9.412385050460223"><ele>516.8</ele><time>2026-03-28T11:21:00.999Z</time></trkpt><trkpt lat="40.75528831847713" lon="9.412526301108874"><ele>517.6</ele><time>2026-03-28T11:21:01.999Z</time></trkpt><trkpt lat="40.755322443531675" lon="9.412688389129361"><ele>518.4</ele><time>2026-03-28T11:21:02.999Z</time></trkpt><trkpt lat="40.75533300011698" lon="9.412804255425764"><ele>519.2</ele><time>2026-03-28T11:21:03.999Z</time></trkpt><trkpt lat="40.75535189432587" lon="9.412895145187928"><ele>520.0</ele><time>2026-03-28T11:21:04.999Z</time></trkpt><trkpt lat="40.75538616665301" lon="9.4130239260123"><ele>520.0</ele><time>2026-03-28T11:21:05.999Z</time></trkpt><trkpt lat="40.755378616323654" lon="9.413111575963379"><ele>520.0</ele><time>2026-03-28T11:21:06.999Z</time></trkpt><trkpt lat="40.755333940053774" lon="9.413277183545631"><ele>520.0</ele><time>2026-03-28T11:21:08.999Z</time></trkpt><trkpt lat="40.755322032447836" lon="9.413402297799244"><ele>520.0</ele><time>2026-03-28T11:21:09.999Z</time></trkpt><trkpt lat="40.75531231501355" lon="9.413546138563747"><ele>520.0</ele><time>2026-03-28T11:21:10.999Z</time></trkpt><trkpt lat="40.755300238641006" lon="9.413683816241026"><ele>520.0</ele><time>2026-03-28T11:21:11.999Z</time></trkpt><trkpt lat="40.75528846171306" lon="9.41381012272995"><ele>520.0</ele><time>2026-03-28T11:21:13Z</time></trkpt><trkpt lat="40.75527379853817" lon="9.413943233028123"><ele>520.0</ele><time>2026-03-28T11:21:14Z</time></trkpt><trkpt lat="40.75526076677349" lon="9.414051165632696"><ele>520.0</ele><time>2026-03-28T11:21:15Z</time></trkpt><trkpt lat="40.75522935363687" lon="9.414180891048336"><ele>520.0</ele><time>2026-03-28T11:21:17Z</time></trkpt><trkpt lat="40.755254986807834" lon="9.414307667810142"><ele>519.5</ele><time>2026-03-28T11:21:19Z</time></trkpt><trkpt lat="40.75529128997885" lon="9.414378378076393"><ele>519.0</ele><time>2026-03-28T11:21:20Z</time></trkpt><trkpt lat="40.75534289878815" lon="9.414461632284524"><ele>518.5</ele><time>2026-03-28T11:21:21Z</time></trkpt><trkpt lat="40.755396993943215" lon="9.41453299952061"><ele>518.0</ele><time>2026-03-28T11:21:22Z</time></trkpt><trkpt lat="40.755461528704465" lon="9.414606514274718"><ele>517.5</ele><time>2026-03-28T11:21:23Z</time></trkpt><trkpt lat="40.75553690750952" lon="9.41468264921883"><ele>517.0</ele><time>2026-03-28T11:21:24Z</time></trkpt><trkpt lat="40.75558606671969" lon="9.414757823309907"><ele>515.75</ele><time>2026-03-28T11:21:25Z</time></trkpt><trkpt lat="40.755603676462755" lon="9.41486841890661"><ele>514.5</ele><time>2026-03-28T11:21:26Z</time></trkpt><trkpt lat="40.75563597420191" lon="9.415041943629664"><ele>513.25</ele><time>2026-03-28T11:21:27Z</time></trkpt><trkpt lat="40.75568074760455" lon="9.415267878423522"><ele>512.0</ele><time>2026-03-28T11:21:28Z</time></trkpt><trkpt lat="40.75572166145838" lon="9.415473995745458"><ele>510.66666666666663</ele><time>2026-03-28T11:21:29Z</time></trkpt><trkpt lat="40.75575775795126" lon="9.415680863569195"><ele>509.33333333333337</ele><time>2026-03-28T11:21:30Z</time></trkpt><trkpt lat="40.75579258159942" lon="9.415880130353996"><ele>508.0</ele><time>2026-03-28T11:21:31Z</time></trkpt><trkpt lat="40.7558205877109" lon="9.416056672644793"><ele>508.0</ele><time>2026-03-28T11:21:32Z</time></trkpt><trkpt lat="40.755856359907256" lon="9.416183265753144"><ele>508.0</ele><time>2026-03-28T11:21:33Z</time></trkpt><trkpt lat="40.75588069794233" lon="9.416303651802517"><ele>508.0</ele><time>2026-03-28T11:21:34Z</time></trkpt><trkpt lat="40.75591524196505" lon="9.416501298132067"><ele>508.0</ele><time>2026-03-28T11:21:35Z</time></trkpt><trkpt lat="40.75596002001506" lon="9.416735260085503"><ele>507.75</ele><time>2026-03-28T11:21:36Z</time></trkpt><trkpt lat="40.75600254172073" lon="9.416929778833225"><ele>507.5</ele><time>2026-03-28T11:21:37Z</time></trkpt><trkpt lat="40.75602917421416" lon="9.417089322999882"><ele>507.25</ele><time>2026-03-28T11:21:38Z</time></trkpt><trkpt lat="40.7560495483044" lon="9.41720821857762"><ele>507.0</ele><time>2026-03-28T11:21:39Z</time></trkpt><trkpt lat="40.756087535906" lon="9.41731943906211"><ele>507.8333333333333</ele><time>2026-03-28T11:21:40Z</time></trkpt><trkpt lat="40.75613649337492" lon="9.417465604669554"><ele>508.66666666666663</ele><time>2026-03-28T11:21:41Z</time></trkpt><trkpt lat="40.75617315559755" lon="9.417590434657798"><ele>509.5</ele><time>2026-03-28T11:21:42Z</time></trkpt><trkpt lat="40.75620947760651" lon="9.417670858943184"><ele>510.3333333333333</ele><time>2026-03-28T11:21:43Z</time></trkpt><trkpt lat="40.75625771310834" lon="9.417762126551183"><ele>511.16666666666663</ele><time>2026-03-28T11:21:44Z</time></trkpt><trkpt lat="40.75629375610596" lon="9.417832782999813"><ele>512.0</ele><time>2026-03-28T11:21:46Z</time></trkpt><trkpt lat="40.756339578685726" lon="9.417894752965118"><ele>511.99999999999994</ele><time>2026-03-28T11:21:50Z</time></trkpt><trkpt lat="40.756399752222656" lon="9.417999056284934"><ele>512.0</ele><time>2026-03-28T11:21:53Z</time></trkpt><trkpt lat="40.7564991343387" lon="9.417976680117453"><ele>512.0</ele><time>2026-03-28T11:25:18.999Z</time></trkpt><trkpt lat="40.75650279550274" lon="9.418066886354229"><ele>512.0</ele><time>2026-03-28T11:25:22.999Z</time></trkpt><trkpt lat="40.75656485974794" lon="9.418177534874784"><ele>511.99999999999994</ele><time>2026-03-28T11:28:38Z</time></trkpt><trkpt lat="40.75661244532149" lon="9.418235533647545"><ele>512.0</ele><time>2026-03-28T11:28:39Z</time></trkpt><trkpt lat="40.75673123435454" lon="9.418463973687102"><ele>512.0</ele><time>2026-03-28T11:28:41Z</time></trkpt><trkpt lat="40.756793593305495" lon="9.418577468301544"><ele>512.0</ele><time>2026-03-28T11:28:42Z</time></trkpt><trkpt lat="40.756849001770036" lon="9.41869651680722"><ele>512.0</ele><time>2026-03-28T11:28:43Z</time></trkpt><trkpt lat="40.756911089856004" lon="9.418818955106026"><ele>512.0</ele><time>2026-03-28T11:28:44Z</time></trkpt><trkpt lat="40.75696747917669" lon="9.418929293544052"><ele>512.0</ele><time>2026-03-28T11:28:45Z</time></trkpt><trkpt lat="40.75701642734046" lon="9.41902069956688"><ele>512.8000000000001</ele><time>2026-03-28T11:28:46Z</time></trkpt><trkpt lat="40.757062929367414" lon="9.419102093420543"><ele>513.6</ele><time>2026-03-28T11:28:47Z</time></trkpt><trkpt lat="40.757110319198794" lon="9.419198890717004"><ele>514.4000000000001</ele><time>2026-03-28T11:28:48Z</time></trkpt><trkpt lat="40.757163669702585" lon="9.419305171004211"><ele>515.2</ele><time>2026-03-28T11:28:49Z</time></trkpt><trkpt lat="40.757219127221184" lon="9.419429603277186"><ele>516.0</ele><time>2026-03-28T11:28:50Z</time></trkpt><trkpt lat="40.757284967360896" lon="9.419567729218759"><ele>514.75</ele><time>2026-03-28T11:28:51Z</time></trkpt><trkpt lat="40.75735810468134" lon="9.419708280946052"><ele>513.5</ele><time>2026-03-28T11:28:52Z</time></trkpt><trkpt lat="40.757431760990734" lon="9.419849731913652"><ele>512.25</ele><time>2026-03-28T11:28:53Z</time></trkpt><trkpt lat="40.75748815381241" lon="9.419980377912259"><ele>511.0</ele><time>2026-03-28T11:28:54Z</time></trkpt><trkpt lat="40.75753727063151" lon="9.420092917033593"><ele>511.00000000000006</ele><time>2026-03-28T11:28:55Z</time></trkpt><trkpt lat="40.757571975566165" lon="9.420190816954634"><ele>511.0</ele><time>2026-03-28T11:28:56Z</time></trkpt><trkpt lat="40.75758241989742" lon="9.420287980871105"><ele>511.0</ele><time>2026-03-28T11:28:57Z</time></trkpt><trkpt lat="40.757588858390356" lon="9.42038042245249"><ele>511.0</ele><time>2026-03-28T11:28:58Z</time></trkpt><trkpt lat="40.75758977809719" lon="9.42046645303684"><ele>511.00000000000006</ele><time>2026-03-28T11:28:59Z</time></trkpt><trkpt lat="40.7576082343353" lon="9.420630016711462"><ele>511.0</ele><time>2026-03-28T11:29:01Z</time></trkpt><trkpt lat="40.75762512675911" lon="9.420744702893943"><ele>510.75</ele><time>2026-03-28T11:29:01.999Z</time></trkpt><trkpt lat="40.75764524525843" lon="9.420881189958457"><ele>510.5</ele><time>2026-03-28T11:29:03.999Z</time></trkpt><trkpt lat="40.757732705558006" lon="9.421030131423572"><ele>510.25</ele><time>2026-03-28T11:29:20.999Z</time></trkpt><trkpt lat="40.757796296664004" lon="9.421115888528135"><ele>510.0</ele><time>2026-03-28T11:29:21.999Z</time></trkpt><trkpt lat="40.75787514130064" lon="9.42123486100613"><ele>510.75</ele><time>2026-03-28T11:29:22.999Z</time></trkpt><trkpt lat="40.75794924583683" lon="9.42137027527027"><ele>511.5</ele><time>2026-03-28T11:29:23.999Z</time></trkpt><trkpt lat="40.7580126162801" lon="9.421525286417578"><ele>512.25</ele><time>2026-03-28T11:29:24.999Z</time></trkpt><trkpt lat="40.75807465663252" lon="9.421689317779466"><ele>513.0</ele><time>2026-03-28T11:29:25.999Z</time></trkpt><trkpt lat="40.75813897298637" lon="9.421859579711144"><ele>513.0</ele><time>2026-03-28T11:29:26.999Z</time></trkpt><trkpt lat="40.758218992533415" lon="9.422031566822296"><ele>513.0</ele><time>2026-03-28T11:29:27.999Z</time></trkpt><trkpt lat="40.758314445749185" lon="9.422196143588744"><ele>513.0</ele><time>2026-03-28T11:29:28.999Z</time></trkpt><trkpt lat="40.75842320466618" lon="9.422349507813152"><ele>513.6666666666666</ele><time>2026-03-28T11:29:29.999Z</time></trkpt><trkpt lat="40.75855299045584" lon="9.422519975106631"><ele>514.3333333333333</ele><time>2026-03-28T11:29:30.999Z</time></trkpt><trkpt lat="40.75869005409707" lon="9.422702028315225"><ele>515.0</ele><time>2026-03-28T11:29:31.999Z</time></trkpt><trkpt lat="40.75883072200145" lon="9.422896926699046"><ele>515.0</ele><time>2026-03-28T11:29:32.999Z</time></trkpt><trkpt lat="40.75896765598778" lon="9.423095154867081"><ele>515.0</ele><time>2026-03-28T11:29:33.999Z</time></trkpt><trkpt lat="40.7590809034632" lon="9.423283164371497"><ele>515.0</ele><time>2026-03-28T11:29:34.999Z</time></trkpt><trkpt lat="40.7591751005073" lon="9.423491962322476"><ele>515.0</ele><time>2026-03-28T11:29:36Z</time></trkpt><trkpt lat="40.75926491089713" lon="9.423715108724698"><ele>515.0</ele><time>2026-03-28T11:29:37Z</time></trkpt><trkpt lat="40.75932241932638" lon="9.423904983076035"><ele>515.0</ele><time>2026-03-28T11:29:38Z</time></trkpt><trkpt lat="40.75934649357733" lon="9.424097987210164"><ele>515.3333333333333</ele><time>2026-03-28T11:29:39Z</time></trkpt><trkpt lat="40.75934612538786" lon="9.424319248856877"><ele>515.6666666666666</ele><time>2026-03-28T11:29:40Z</time></trkpt><trkpt lat="40.759346103374796" lon="9.424526808825911"><ele>516.0</ele><time>2026-03-28T11:29:41Z</time></trkpt><trkpt lat="40.75937419100907" lon="9.424725503886378"><ele>516.0</ele><time>2026-03-28T11:29:42Z</time></trkpt><trkpt lat="40.75944313219317" lon="9.424944401845329"><ele>516.0</ele><time>2026-03-28T11:29:43Z</time></trkpt><trkpt lat="40.75953053564149" lon="9.425126339276432"><ele>516.0</ele><time>2026-03-28T11:29:44Z</time></trkpt><trkpt lat="40.75963013195625" lon="9.425228540631561"><ele>516.0</ele><time>2026-03-28T11:29:45Z</time></trkpt><trkpt lat="40.759725784930716" lon="9.425309674594828"><ele>516.0</ele><time>2026-03-28T11:29:46Z</time></trkpt><trkpt lat="40.759844692793976" lon="9.42546459308804"><ele>516.0</ele><time>2026-03-28T11:29:47Z</time></trkpt><trkpt lat="40.760006029935354" lon="9.425550781683828"><ele>516.5</ele><time>2026-03-28T11:29:48Z</time></trkpt><trkpt lat="40.76014144551229" lon="9.425617572174733"><ele>517.0</ele><time>2026-03-28T11:29:49Z</time></trkpt><trkpt lat="40.760236054233246" lon="9.425695808627204"><ele>517.5</ele><time>2026-03-28T11:29:50Z</time></trkpt><trkpt lat="40.76030821554934" lon="9.425829708936819"><ele>518.0</ele><time>2026-03-28T11:29:51Z</time></trkpt><trkpt lat="40.76038481691425" lon="9.426021985767578"><ele>520.0</ele><time>2026-03-28T11:29:52Z</time></trkpt><trkpt lat="40.76046761912214" lon="9.42623879276206"><ele>522.0</ele><time>2026-03-28T11:29:53Z</time></trkpt><trkpt lat="40.76055672750073" lon="9.426441302015192"><ele>524.0</ele><time>2026-03-28T11:29:54Z</time></trkpt><trkpt lat="40.76065020754983" lon="9.426635057021775"><ele>524.0</ele><time>2026-03-28T11:29:55Z</time></trkpt><trkpt lat="40.760746794967545" lon="9.426826484867213"><ele>524.0</ele><time>2026-03-28T11:29:56Z</time></trkpt><trkpt lat="40.76084984398905" lon="9.427000681099656"><ele>524.0</ele><time>2026-03-28T11:29:57Z</time></trkpt><trkpt lat="40.76097595377038" lon="9.427181657169177"><ele>524.3333333333333</ele><time>2026-03-28T11:29:58Z</time></trkpt><trkpt lat="40.761100007540186" lon="9.427353314689855"><ele>524.6666666666666</ele><time>2026-03-28T11:29:59Z</time></trkpt><trkpt lat="40.76121481156309" lon="9.427505209674264"><ele>525.0</ele><time>2026-03-28T11:30:00Z</time></trkpt><trkpt lat="40.76133313429661" lon="9.427630429291186"><ele>525.0</ele><time>2026-03-28T11:30:01Z</time></trkpt><trkpt lat="40.76148665825704" lon="9.427743495082913"><ele>525.0</ele><time>2026-03-28T11:30:02Z</time></trkpt><trkpt lat="40.76166733216786" lon="9.427831386703973"><ele>525.0</ele><time>2026-03-28T11:30:03Z</time></trkpt><trkpt lat="40.76184409674319" lon="9.427894186531976"><ele>524.6666666666666</ele><time>2026-03-28T11:30:04Z</time></trkpt><trkpt lat="40.7620338312507" lon="9.427925855393092"><ele>524.3333333333333</ele><time>2026-03-28T11:30:05Z</time></trkpt><trkpt lat="40.76224763921817" lon="9.427929427600898"><ele>524.0</ele><time>2026-03-28T11:30:06Z</time></trkpt><trkpt lat="40.76247915042582" lon="9.427920762280042"><ele>524.0</ele><time>2026-03-28T11:30:07Z</time></trkpt><trkpt lat="40.7626857146563" lon="9.427912234303285"><ele>524.0</ele><time>2026-03-28T11:30:08Z</time></trkpt><trkpt lat="40.76285979289131" lon="9.427886649581101"><ele>524.0</ele><time>2026-03-28T11:30:09Z</time></trkpt><trkpt lat="40.763044889023625" lon="9.427836710718932"><ele>522.6666666666666</ele><time>2026-03-28T11:30:10Z</time></trkpt><trkpt lat="40.76323173636931" lon="9.427767760730163"><ele>521.3333333333334</ele><time>2026-03-28T11:30:11Z</time></trkpt><trkpt lat="40.76340137700291" lon="9.427695588132845"><ele>520.0</ele><time>2026-03-28T11:30:12Z</time></trkpt><trkpt lat="40.763557632737054" lon="9.427637406318109"><ele>520.0</ele><time>2026-03-28T11:30:13Z</time></trkpt><trkpt lat="40.763715191940584" lon="9.427623192338487"><ele>520.0</ele><time>2026-03-28T11:30:14Z</time></trkpt><trkpt lat="40.76386725820225" lon="9.427662442659964"><ele>520.0</ele><time>2026-03-28T11:30:15Z</time></trkpt><trkpt lat="40.76402719360879" lon="9.427733126376992"><ele>520.0</ele><time>2026-03-28T11:30:16Z</time></trkpt><trkpt lat="40.764179178418395" lon="9.427773605553593"><ele>520.0</ele><time>2026-03-28T11:30:17Z</time></trkpt><trkpt lat="40.76434123534528" lon="9.427755506513185"><ele>520.0</ele><time>2026-03-28T11:30:18Z</time></trkpt><trkpt lat="40.764525482811" lon="9.427702920032818"><ele>521.3333333333334</ele><time>2026-03-28T11:30:19Z</time></trkpt><trkpt lat="40.764714148986776" lon="9.427621443363806"><ele>522.6666666666666</ele><time>2026-03-28T11:30:20Z</time></trkpt><trkpt lat="40.764865285577436" lon="9.427527469694645"><ele>524.0</ele><time>2026-03-28T11:30:21Z</time></trkpt><trkpt lat="40.76501092432595" lon="9.427387093197916"><ele>524.0</ele><time>2026-03-28T11:30:22Z</time></trkpt><trkpt lat="40.76515369977585" lon="9.427218507234379"><ele>524.0</ele><time>2026-03-28T11:30:23Z</time></trkpt><trkpt lat="40.765267359088064" lon="9.427073144543327"><ele>524.0</ele><time>2026-03-28T11:30:24Z</time></trkpt><trkpt lat="40.76535935322774" lon="9.426982484002355"><ele>524.3333333333333</ele><time>2026-03-28T11:30:25Z</time></trkpt><trkpt lat="40.76544402617237" lon="9.426965287041453"><ele>524.6666666666666</ele><time>2026-03-28T11:30:26Z</time></trkpt><trkpt lat="40.765530603418284" lon="9.426993349030415"><ele>525.0</ele><time>2026-03-28T11:30:27Z</time></trkpt><trkpt lat="40.7656098262591" lon="9.42703815034831"><ele>525.3333333333334</ele><time>2026-03-28T11:30:28Z</time></trkpt><trkpt lat="40.76568174940635" lon="9.427092381211644"><ele>525.6666666666667</ele><time>2026-03-28T11:30:29Z</time></trkpt><trkpt lat="40.765761482656366" lon="9.427153407293249"><ele>526.0</ele><time>2026-03-28T11:30:30Z</time></trkpt><trkpt lat="40.76586367280798" lon="9.427217259593581"><ele>526.0</ele><time>2026-03-28T11:30:31Z</time></trkpt><trkpt lat="40.76598185750565" lon="9.427296897750177"><ele>526.0</ele><time>2026-03-28T11:30:32Z</time></trkpt><trkpt lat="40.76612630794164" lon="9.427406091212232"><ele>526.0</ele><time>2026-03-28T11:30:33Z</time></trkpt><trkpt lat="40.76626675174311" lon="9.427520953561055"><ele>528.3333333333334</ele><time>2026-03-28T11:30:34Z</time></trkpt><trkpt lat="40.76639446377818" lon="9.42762357410246"><ele>530.6666666666666</ele><time>2026-03-28T11:30:35Z</time></trkpt><trkpt lat="40.76651774312965" lon="9.427732162913284"><ele>533.0</ele><time>2026-03-28T11:30:36Z</time></trkpt><trkpt lat="40.76665443289454" lon="9.427871364188059"><ele>531.6666666666666</ele><time>2026-03-28T11:30:37Z</time></trkpt><trkpt lat="40.766816312597" lon="9.428046473559258"><ele>530.3333333333334</ele><time>2026-03-28T11:30:38Z</time></trkpt><trkpt lat="40.766989704247315" lon="9.428232912232117"><ele>529.0</ele><time>2026-03-28T11:30:39Z</time></trkpt><trkpt lat="40.76717892762447" lon="9.428427584477248"><ele>529.0</ele><time>2026-03-28T11:30:40Z</time></trkpt><trkpt lat="40.76738243378289" lon="9.428628030237837"><ele>529.0</ele><time>2026-03-28T11:30:41Z</time></trkpt><trkpt lat="40.76758856521426" lon="9.428818805963232"><ele>531.0</ele><time>2026-03-28T11:30:42Z</time></trkpt><trkpt lat="40.767780201706955" lon="9.428988270663261"><ele>533.0</ele><time>2026-03-28T11:30:43Z</time></trkpt><trkpt lat="40.767953400768945" lon="9.429143945327896"><ele>535.0</ele><time>2026-03-28T11:30:44Z</time></trkpt><trkpt lat="40.76811640490583" lon="9.429293898213043"><ele>535.0</ele><time>2026-03-28T11:30:45Z</time></trkpt><trkpt lat="40.76825034121434" lon="9.429413394086724"><ele>535.0</ele><time>2026-03-28T11:30:46Z</time></trkpt><trkpt lat="40.76838188222077" lon="9.429522844881774"><ele>535.0</ele><time>2026-03-28T11:30:47Z</time></trkpt><trkpt lat="40.76851770537691" lon="9.429622551872749"><ele>532.0</ele><time>2026-03-28T11:30:48Z</time></trkpt><trkpt lat="40.76863977300504" lon="9.429703742367325"><ele>529.0</ele><time>2026-03-28T11:30:49Z</time></trkpt><trkpt lat="40.768748153718015" lon="9.429756642936157"><ele>526.0</ele><time>2026-03-28T11:30:50Z</time></trkpt><trkpt lat="40.76885944952837" lon="9.429776830326963"><ele>523.0</ele><time>2026-03-28T11:30:51Z</time></trkpt><trkpt lat="40.768992885726334" lon="9.429777214391589"><ele>523.0</ele><time>2026-03-28T11:30:52Z</time></trkpt><trkpt lat="40.76913286868398" lon="9.429774205568702"><ele>523.0</ele><time>2026-03-28T11:30:53Z</time></trkpt><trkpt lat="40.76926416499621" lon="9.429748446008583"><ele>523.0</ele><time>2026-03-28T11:30:54Z</time></trkpt><trkpt lat="40.76938067968205" lon="9.4296884455531"><ele>523.0</ele><time>2026-03-28T11:30:55Z</time></trkpt><trkpt lat="40.76948848644352" lon="9.429598047684545"><ele>520.75</ele><time>2026-03-28T11:30:55.999Z</time></trkpt><trkpt lat="40.76956797060177" lon="9.429498181377248"><ele>518.5</ele><time>2026-03-28T11:30:56.999Z</time></trkpt><trkpt lat="40.76961935973977" lon="9.429365514299121"><ele>516.25</ele><time>2026-03-28T11:30:57.999Z</time></trkpt><trkpt lat="40.76966847116847" lon="9.429181192219165"><ele>514.0</ele><time>2026-03-28T11:30:58.999Z</time></trkpt><trkpt lat="40.76973610662808" lon="9.429009212960965"><ele>514.0</ele><time>2026-03-28T11:30:59.999Z</time></trkpt><trkpt lat="40.7698415653933" lon="9.428858520234403"><ele>514.0</ele><time>2026-03-28T11:31:00.999Z</time></trkpt><trkpt lat="40.76995743061046" lon="9.428738270947871"><ele>514.0</ele><time>2026-03-28T11:31:01.999Z</time></trkpt><trkpt lat="40.7700538330071" lon="9.428647096460143"><ele>514.0</ele><time>2026-03-28T11:31:02.999Z</time></trkpt><trkpt lat="40.77013782441973" lon="9.428589695234171"><ele>514.0</ele><time>2026-03-28T11:31:03.999Z</time></trkpt><trkpt lat="40.77021830158963" lon="9.428582591920803"><ele>514.0</ele><time>2026-03-28T11:31:04.999Z</time></trkpt><trkpt lat="40.77028903160415" lon="9.428633901876696"><ele>514.0</ele><time>2026-03-28T11:31:05.999Z</time></trkpt><trkpt lat="40.77031277947076" lon="9.428735673584997"><ele>514.0</ele><time>2026-03-28T11:31:06.999Z</time></trkpt><trkpt lat="40.7702865742819" lon="9.428864092909382"><ele>514.0</ele><time>2026-03-28T11:31:07.999Z</time></trkpt><trkpt lat="40.77022190431058" lon="9.42901095189845"><ele>514.0</ele><time>2026-03-28T11:31:08.999Z</time></trkpt><trkpt lat="40.770132182018884" lon="9.429153612900565"><ele>514.0</ele><time>2026-03-28T11:31:09.999Z</time></trkpt><trkpt lat="40.77005365305862" lon="9.42926463607202"><ele>514.0</ele><time>2026-03-28T11:31:10.999Z</time></trkpt><trkpt lat="40.770022008352264" lon="9.429399122399074"><ele>514.0</ele><time>2026-03-28T11:31:11.999Z</time></trkpt><trkpt lat="40.77001866247029" lon="9.42957251769968"><ele>510.0</ele><time>2026-03-28T11:31:12.999Z</time></trkpt><trkpt lat="40.77001054971749" lon="9.429752352183764"><ele>506.0</ele><time>2026-03-28T11:31:13.999Z</time></trkpt><trkpt lat="40.76997895232975" lon="9.429917936364461"><ele>502.0</ele><time>2026-03-28T11:31:14.999Z</time></trkpt><trkpt lat="40.76992169998576" lon="9.430052202370161"><ele>498.0</ele><time>2026-03-28T11:31:15.999Z</time></trkpt><trkpt lat="40.769857563575115" lon="9.430164395514709"><ele>498.0</ele><time>2026-03-28T11:31:16.999Z</time></trkpt><trkpt lat="40.769816400207624" lon="9.43025651508646"><ele>498.0</ele><time>2026-03-28T11:31:17.999Z</time></trkpt><trkpt lat="40.7698168219623" lon="9.430345858035642"><ele>498.0</ele><time>2026-03-28T11:31:18.999Z</time></trkpt><trkpt lat="40.76985320997918" lon="9.430427460524022"><ele>498.0</ele><time>2026-03-28T11:31:19.999Z</time></trkpt><trkpt lat="40.76992290276188" lon="9.430483112095798"><ele>498.0</ele><time>2026-03-28T11:31:20.999Z</time></trkpt><trkpt lat="40.770038006156554" lon="9.430531032412528"><ele>498.0</ele><time>2026-03-28T11:31:21.999Z</time></trkpt><trkpt lat="40.77018318280062" lon="9.430579060459708"><ele>489.66666666666663</ele><time>2026-03-28T11:31:22.999Z</time></trkpt><trkpt lat="40.7703420094573" lon="9.430649073411724"><ele>481.3333333333333</ele><time>2026-03-28T11:31:23.999Z</time></trkpt><trkpt lat="40.77048431394044" lon="9.430737578842717"><ele>473.0</ele><time>2026-03-28T11:31:24.999Z</time></trkpt><trkpt lat="40.770606633919186" lon="9.430840627293806"><ele>473.0</ele><time>2026-03-28T11:31:25.999Z</time></trkpt><trkpt lat="40.77069624982124" lon="9.43095469845039"><ele>473.0</ele><time>2026-03-28T11:31:26.999Z</time></trkpt><trkpt lat="40.77076325522712" lon="9.431098933799788"><ele>473.0</ele><time>2026-03-28T11:31:27.999Z</time></trkpt><trkpt lat="40.77081939181176" lon="9.431267720725165"><ele>473.0</ele><time>2026-03-28T11:31:28.999Z</time></trkpt><trkpt lat="40.77086973474927" lon="9.431473502358731"><ele>472.0</ele><time>2026-03-28T11:31:29.999Z</time></trkpt><trkpt lat="40.77091117697486" lon="9.431685510992798"><ele>471.0</ele><time>2026-03-28T11:31:30.999Z</time></trkpt><trkpt lat="40.77093978569831" lon="9.431886353261046"><ele>470.0</ele><time>2026-03-28T11:31:31.999Z</time></trkpt><trkpt lat="40.770954207691474" lon="9.432043288584481"><ele>469.0</ele><time>2026-03-28T11:31:32.999Z</time></trkpt><trkpt lat="40.770965043032824" lon="9.432161703310921"><ele>468.5</ele><time>2026-03-28T11:31:33.999Z</time></trkpt><trkpt lat="40.77099927942524" lon="9.432260021845842"><ele>468.0</ele><time>2026-03-28T11:31:34.999Z</time></trkpt><trkpt lat="40.77107647708128" lon="9.4323430854907"><ele>467.5</ele><time>2026-03-28T11:31:35.999Z</time></trkpt><trkpt lat="40.771215550610464" lon="9.432424783512086"><ele>467.0</ele><time>2026-03-28T11:31:36.999Z</time></trkpt><trkpt lat="40.7713828846131" lon="9.432526339171362"><ele>460.0</ele><time>2026-03-28T11:31:37.999Z</time></trkpt><trkpt lat="40.771546814789126" lon="9.432638754342358"><ele>453.0</ele><time>2026-03-28T11:31:38.999Z</time></trkpt><trkpt lat="40.77169154283637" lon="9.432756595826966"><ele>446.0</ele><time>2026-03-28T11:31:39.999Z</time></trkpt><trkpt lat="40.77182516323298" lon="9.432882467958745"><ele>440.66666666666663</ele><time>2026-03-28T11:31:40.999Z</time></trkpt><trkpt lat="40.77195213525829" lon="9.4330258020833"><ele>435.33333333333337</ele><time>2026-03-28T11:31:42Z</time></trkpt><trkpt lat="40.77206743058958" lon="9.433185391992557"><ele>430.0</ele><time>2026-03-28T11:31:43Z</time></trkpt><trkpt lat="40.7721783151193" lon="9.43334935132831"><ele>430.0</ele><time>2026-03-28T11:31:44Z</time></trkpt><trkpt lat="40.77228173324915" lon="9.433518393053074"><ele>430.0</ele><time>2026-03-28T11:31:45Z</time></trkpt><trkpt lat="40.77238688755364" lon="9.433675902435855"><ele>430.0</ele><time>2026-03-28T11:31:46Z</time></trkpt><trkpt lat="40.77249736824572" lon="9.433815631900595"><ele>429.75</ele><time>2026-03-28T11:31:47Z</time></trkpt><trkpt lat="40.77260704109949" lon="9.433936606575067"><ele>429.5</ele><time>2026-03-28T11:31:48Z</time></trkpt><trkpt lat="40.77271977586209" lon="9.434055455170068"><ele>429.25</ele><time>2026-03-28T11:31:49Z</time></trkpt><trkpt lat="40.772834199644706" lon="9.434173225082697"><ele>429.0</ele><time>2026-03-28T11:31:50Z</time></trkpt><trkpt lat="40.77296305592215" lon="9.434295372924556"><ele>422.66666666666663</ele><time>2026-03-28T11:31:51Z</time></trkpt><trkpt lat="40.773091547449376" lon="9.434412561287848"><ele>416.3333333333333</ele><time>2026-03-28T11:31:52Z</time></trkpt><trkpt lat="40.77322560210694" lon="9.434542901181333"><ele>410.0</ele><time>2026-03-28T11:31:53Z</time></trkpt><trkpt lat="40.77334857191183" lon="9.434675906149899"><ele>409.5</ele><time>2026-03-28T11:31:54Z</time></trkpt><trkpt lat="40.77347210016949" lon="9.434808827890956"><ele>409.0</ele><time>2026-03-28T11:31:55Z</time></trkpt><trkpt lat="40.77359206532731" lon="9.434906216057932"><ele>408.5</ele><time>2026-03-28T11:31:56Z</time></trkpt><trkpt lat="40.773717870092916" lon="9.434980616655047"><ele>408.0</ele><time>2026-03-28T11:31:57Z</time></trkpt><trkpt lat="40.773853702351055" lon="9.435033680443482"><ele>402.33333333333337</ele><time>2026-03-28T11:31:58Z</time></trkpt><trkpt lat="40.77400551474629" lon="9.435064157607892"><ele>396.6666666666667</ele><time>2026-03-28T11:31:59Z</time></trkpt><trkpt lat="40.77416850206225" lon="9.435077577854328"><ele>391.0</ele><time>2026-03-28T11:32:00Z</time></trkpt><trkpt lat="40.77431203715006" lon="9.435090392338298"><ele>387.75</ele><time>2026-03-28T11:32:01Z</time></trkpt><trkpt lat="40.77442608870733" lon="9.4351221189831"><ele>384.5</ele><time>2026-03-28T11:32:02Z</time></trkpt><trkpt lat="40.77452343437223" lon="9.435196219804718"><ele>381.25</ele><time>2026-03-28T11:32:03Z</time></trkpt><trkpt lat="40.774604027504814" lon="9.435317124044404"><ele>378.0</ele><time>2026-03-28T11:32:04Z</time></trkpt><trkpt lat="40.77465490672697" lon="9.43547041694997"><ele>372.3333333333333</ele><time>2026-03-28T11:32:05Z</time></trkpt><trkpt lat="40.77466356849757" lon="9.43565140024154"><ele>366.66666666666663</ele><time>2026-03-28T11:32:06Z</time></trkpt><trkpt lat="40.77465175490052" lon="9.435866116190223"><ele>361.0</ele><time>2026-03-28T11:32:07Z</time></trkpt><trkpt lat="40.77464871569107" lon="9.436093095845495"><ele>357.3333333333333</ele><time>2026-03-28T11:32:08Z</time></trkpt><trkpt lat="40.77466435465878" lon="9.436332322221796"><ele>353.6666666666667</ele><time>2026-03-28T11:32:09Z</time></trkpt><trkpt lat="40.77468504657431" lon="9.436558424401422"><ele>350.0</ele><time>2026-03-28T11:32:10Z</time></trkpt><trkpt lat="40.77470370928362" lon="9.43676163001066"><ele>350.0</ele><time>2026-03-28T11:32:11Z</time></trkpt><trkpt lat="40.774736032201446" lon="9.436977716589965"><ele>350.0</ele><time>2026-03-28T11:32:12Z</time></trkpt><trkpt lat="40.77479056904624" lon="9.437194590817723"><ele>350.0</ele><time>2026-03-28T11:32:13Z</time></trkpt><trkpt lat="40.77485256368152" lon="9.437433618599295"><ele>350.33333333333337</ele><time>2026-03-28T11:32:14Z</time></trkpt><trkpt lat="40.77491158876778" lon="9.437682660697371"><ele>350.6666666666667</ele><time>2026-03-28T11:32:15Z</time></trkpt><trkpt lat="40.77497225480979" lon="9.437921020053901"><ele>351.0</ele><time>2026-03-28T11:32:16Z</time></trkpt><trkpt lat="40.77504850673983" lon="9.438142312063913"><ele>353.3333333333333</ele><time>2026-03-28T11:32:17Z</time></trkpt><trkpt lat="40.775154305005636" lon="9.438368686604056"><ele>355.66666666666663</ele><time>2026-03-28T11:32:18Z</time></trkpt><trkpt lat="40.7752800489797" lon="9.438610281969712"><ele>358.0</ele><time>2026-03-28T11:32:19Z</time></trkpt><trkpt lat="40.77539441541168" lon="9.438850017730008"><ele>352.3333333333333</ele><time>2026-03-28T11:32:20Z</time></trkpt><trkpt lat="40.775484936130766" lon="9.439077222858007"><ele>346.6666666666667</ele><time>2026-03-28T11:32:21Z</time></trkpt><trkpt lat="40.77555446467809" lon="9.439304190101705"><ele>341.0</ele><time>2026-03-28T11:32:22Z</time></trkpt><trkpt lat="40.77561202641294" lon="9.439543726466553"><ele>339.0</ele><time>2026-03-28T11:32:23Z</time></trkpt><trkpt lat="40.77566479951564" lon="9.439786841674566"><ele>337.0</ele><time>2026-03-28T11:32:24Z</time></trkpt><trkpt lat="40.77571755023114" lon="9.440013475526468"><ele>335.0</ele><time>2026-03-28T11:32:25Z</time></trkpt><trkpt lat="40.775770686089324" lon="9.44021800286696"><ele>335.0</ele><time>2026-03-28T11:32:26Z</time></trkpt><trkpt lat="40.77584373396204" lon="9.44041171547926"><ele>335.0</ele><time>2026-03-28T11:32:27Z</time></trkpt><trkpt lat="40.775949054524794" lon="9.440604259154583"><ele>335.0</ele><time>2026-03-28T11:32:28Z</time></trkpt><trkpt lat="40.77607609198725" lon="9.44078896482982"><ele>328.33333333333337</ele><time>2026-03-28T11:32:29Z</time></trkpt><trkpt lat="40.7761969927989" lon="9.44096410321559"><ele>321.6666666666667</ele><time>2026-03-28T11:32:30Z</time></trkpt><trkpt lat="40.77629852082938" lon="9.441150916158625"><ele>315.0</ele><time>2026-03-28T11:32:31Z</time></trkpt><trkpt lat="40.77637298300613" lon="9.441358231422287"><ele>315.0</ele><time>2026-03-28T11:32:32Z</time></trkpt><trkpt lat="40.77645598144137" lon="9.441572389309098"><ele>315.0</ele><time>2026-03-28T11:32:33Z</time></trkpt><trkpt lat="40.77655193035586" lon="9.44178861338897"><ele>315.0</ele><time>2026-03-28T11:32:34Z</time></trkpt><trkpt lat="40.77665402361035" lon="9.441998911208954"><ele>315.0</ele><time>2026-03-28T11:32:35Z</time></trkpt><trkpt lat="40.77677426586942" lon="9.442213245049787"><ele>315.0</ele><time>2026-03-28T11:32:36Z</time></trkpt><trkpt lat="40.77691500049829" lon="9.442439505937092"><ele>315.0</ele><time>2026-03-28T11:32:37Z</time></trkpt><trkpt lat="40.77705971320699" lon="9.442665472144157"><ele>311.0</ele><time>2026-03-28T11:32:38Z</time></trkpt><trkpt lat="40.77719087911317" lon="9.442888621886366"><ele>307.0</ele><time>2026-03-28T11:32:39Z</time></trkpt><trkpt lat="40.77734724328168" lon="9.443127310568702"><ele>306.0</ele><time>2026-03-28T11:32:40Z</time></trkpt><trkpt lat="40.777477331631964" lon="9.443341719608174"><ele>305.0</ele><time>2026-03-28T11:32:41Z</time></trkpt><trkpt lat="40.77759528649023" lon="9.443538147475174"><ele>304.0</ele><time>2026-03-28T11:32:42Z</time></trkpt><trkpt lat="40.77770080880222" lon="9.443712789170444"><ele>301.3333333333333</ele><time>2026-03-28T11:32:43Z</time></trkpt><trkpt lat="40.777809581087766" lon="9.443880944002236"><ele>298.6666666666667</ele><time>2026-03-28T11:32:44Z</time></trkpt><trkpt lat="40.77791370900263" lon="9.444038412894812"><ele>296.0</ele><time>2026-03-28T11:32:45Z</time></trkpt><trkpt lat="40.77802951599647" lon="9.444175591532822"><ele>296.0</ele><time>2026-03-28T11:32:46Z</time></trkpt><trkpt lat="40.77818402196277" lon="9.444296007497465"><ele>296.0</ele><time>2026-03-28T11:32:47Z</time></trkpt><trkpt lat="40.77834410422023" lon="9.444393781276673"><ele>296.0</ele><time>2026-03-28T11:32:48Z</time></trkpt><trkpt lat="40.77848265664743" lon="9.444478622299942"><ele>293.25</ele><time>2026-03-28T11:32:49Z</time></trkpt><trkpt lat="40.77861356342122" lon="9.44456909667395"><ele>290.5</ele><time>2026-03-28T11:32:50Z</time></trkpt><trkpt lat="40.77874075173347" lon="9.444664695493296"><ele>287.75</ele><time>2026-03-28T11:32:51Z</time></trkpt><trkpt lat="40.77886273212849" lon="9.4447693062068"><ele>285.0</ele><time>2026-03-28T11:32:52Z</time></trkpt><trkpt lat="40.77898745848205" lon="9.44488661030212"><ele>285.0</ele><time>2026-03-28T11:32:53Z</time></trkpt><trkpt lat="40.77910833602982" lon="9.445013227912158"><ele>285.0</ele><time>2026-03-28T11:32:54Z</time></trkpt><trkpt lat="40.77922398308485" lon="9.445132672753566"><ele>285.0</ele><time>2026-03-28T11:32:55Z</time></trkpt><trkpt lat="40.77933199230441" lon="9.445242831240302"><ele>285.0</ele><time>2026-03-28T11:32:56Z</time></trkpt><trkpt lat="40.77943916494554" lon="9.445344469326104"><ele>282.75</ele><time>2026-03-28T11:32:57Z</time></trkpt><trkpt lat="40.779539465557605" lon="9.44544327172185"><ele>280.5</ele><time>2026-03-28T11:32:58Z</time></trkpt><trkpt lat="40.7796368843895" lon="9.445541000638238"><ele>278.25</ele><time>2026-03-28T11:32:59Z</time></trkpt><trkpt lat="40.779736663867304" lon="9.445642049249072"><ele>276.0</ele><time>2026-03-28T11:33:00Z</time></trkpt><trkpt lat="40.77982484758099" lon="9.445731152615592"><ele>276.0</ele><time>2026-03-28T11:33:01Z</time></trkpt><trkpt lat="40.77989854481246" lon="9.445809102293962"><ele>276.0</ele><time>2026-03-28T11:33:02Z</time></trkpt><trkpt lat="40.779951871290095" lon="9.445862350735949"><ele>276.0</ele><time>2026-03-28T11:33:03Z</time></trkpt><trkpt lat="40.780002996107854" lon="9.445914155298487"><ele>276.0</ele><time>2026-03-28T11:33:03.999Z</time></trkpt><trkpt lat="40.780052996692376" lon="9.445972000948974"><ele>276.0</ele><time>2026-03-28T11:33:04.999Z</time></trkpt><trkpt lat="40.780107458131155" lon="9.446028123877909"><ele>276.0</ele><time>2026-03-28T11:33:05.999Z</time></trkpt><trkpt lat="40.78017810895359" lon="9.446144296159371"><ele>274.2</ele><time>2026-03-28T11:33:08.999Z</time></trkpt><trkpt lat="40.78023392963056" lon="9.44624680139895"><ele>272.40000000000003</ele><time>2026-03-28T11:33:09.999Z</time></trkpt><trkpt lat="40.78028142388778" lon="9.44637478204655"><ele>270.6</ele><time>2026-03-28T11:33:10.999Z</time></trkpt><trkpt lat="40.78031175934223" lon="9.446493756470781"><ele>268.8</ele><time>2026-03-28T11:33:11.999Z</time></trkpt><trkpt lat="40.78034353979798" lon="9.44660130500916"><ele>267.0</ele><time>2026-03-28T11:33:12.999Z</time></trkpt><trkpt lat="40.78038279935304" lon="9.446702551335683"><ele>267.0</ele><time>2026-03-28T11:33:13.999Z</time></trkpt><trkpt lat="40.780425004694244" lon="9.446788204900063"><ele>267.0</ele><time>2026-03-28T11:33:14.999Z</time></trkpt><trkpt lat="40.78049849188005" lon="9.446890905946622"><ele>267.0</ele><time>2026-03-28T11:33:15.999Z</time></trkpt><trkpt lat="40.78061970132238" lon="9.447006034142872"><ele>267.0</ele><time>2026-03-28T11:33:16.999Z</time></trkpt><trkpt lat="40.78073286890001" lon="9.447136310418834"><ele>265.25</ele><time>2026-03-28T11:33:17.999Z</time></trkpt><trkpt lat="40.78085783066141" lon="9.447243829232223"><ele>263.5</ele><time>2026-03-28T11:33:18.999Z</time></trkpt><trkpt lat="40.78097563086502" lon="9.447355433292433"><ele>261.75</ele><time>2026-03-28T11:33:19.999Z</time></trkpt><trkpt lat="40.7810859733722" lon="9.447462889066063"><ele>260.0</ele><time>2026-03-28T11:33:20.999Z</time></trkpt><trkpt lat="40.781185404441416" lon="9.447561814565939"><ele>257.8</ele><time>2026-03-28T11:33:21.999Z</time></trkpt><trkpt lat="40.78126549257668" lon="9.447648899220177"><ele>255.6</ele><time>2026-03-28T11:33:22.999Z</time></trkpt><trkpt lat="40.78132817687829" lon="9.447751835750772"><ele>253.39999999999998</ele><time>2026-03-28T11:33:23.999Z</time></trkpt><trkpt lat="40.78136954094015" lon="9.447891157149959"><ele>251.2</ele><time>2026-03-28T11:33:24.999Z</time></trkpt><trkpt lat="40.78139191287434" lon="9.448037892279752"><ele>249.0</ele><time>2026-03-28T11:33:25.999Z</time></trkpt><trkpt lat="40.781420860691455" lon="9.448161173274276"><ele>249.0</ele><time>2026-03-28T11:33:26.999Z</time></trkpt><trkpt lat="40.78147674222791" lon="9.44826539048038"><ele>249.0</ele><time>2026-03-28T11:33:27.999Z</time></trkpt><trkpt lat="40.781568655917475" lon="9.448361542150034"><ele>249.0</ele><time>2026-03-28T11:33:28.999Z</time></trkpt><trkpt lat="40.78169002455847" lon="9.448450962959926"><ele>249.0</ele><time>2026-03-28T11:33:29.999Z</time></trkpt><trkpt lat="40.78181891811117" lon="9.448530660905268"><ele>246.25</ele><time>2026-03-28T11:33:30.999Z</time></trkpt><trkpt lat="40.78194625361614" lon="9.448597929847768"><ele>243.5</ele><time>2026-03-28T11:33:31.999Z</time></trkpt><trkpt lat="40.782063639590625" lon="9.448654108134402"><ele>240.75</ele><time>2026-03-28T11:33:32.999Z</time></trkpt><trkpt lat="40.78216804029626" lon="9.448708826419303"><ele>238.0</ele><time>2026-03-28T11:33:33.999Z</time></trkpt><trkpt lat="40.78227505976003" lon="9.448769463085494"><ele>237.25</ele><time>2026-03-28T11:33:34.999Z</time></trkpt><trkpt lat="40.78240409253018" lon="9.448842030468633"><ele>236.5</ele><time>2026-03-28T11:33:35.999Z</time></trkpt><trkpt lat="40.78255294911378" lon="9.448914792544926"><ele>235.75</ele><time>2026-03-28T11:33:36.999Z</time></trkpt><trkpt lat="40.782680855728536" lon="9.448974335523515"><ele>235.0</ele><time>2026-03-28T11:33:37.999Z</time></trkpt><trkpt lat="40.782789297971405" lon="9.449010855233375"><ele>234.8</ele><time>2026-03-28T11:33:38.999Z</time></trkpt><trkpt lat="40.78288773801273" lon="9.449009572304687"><ele>234.6</ele><time>2026-03-28T11:33:39.999Z</time></trkpt><trkpt lat="40.78297007931101" lon="9.448964499765115"><ele>234.39999999999998</ele><time>2026-03-28T11:33:40.999Z</time></trkpt><trkpt lat="40.78303573693757" lon="9.448867870174768"><ele>234.2</ele><time>2026-03-28T11:33:41.999Z</time></trkpt><trkpt lat="40.7830965024561" lon="9.448719514589211"><ele>234.0</ele><time>2026-03-28T11:33:42.999Z</time></trkpt><trkpt lat="40.783173425921156" lon="9.44858050694974"><ele>234.0</ele><time>2026-03-28T11:33:43.999Z</time></trkpt><trkpt lat="40.78327113181724" lon="9.448514961151938"><ele>233.99999999999997</ele><time>2026-03-28T11:33:44.999Z</time></trkpt><trkpt lat="40.78338797442238" lon="9.44851009602359"><ele>233.99999999999997</ele><time>2026-03-28T11:33:45.999Z</time></trkpt><trkpt lat="40.783484478454945" lon="9.448558335201414"><ele>234.0</ele><time>2026-03-28T11:33:46.999Z</time></trkpt><trkpt lat="40.78356657747813" lon="9.448662848960723"><ele>234.0</ele><time>2026-03-28T11:33:48Z</time></trkpt><trkpt lat="40.783656524880996" lon="9.448801008929415"><ele>237.33333333333331</ele><time>2026-03-28T11:33:49Z</time></trkpt><trkpt lat="40.78375643558402" lon="9.448945167911788"><ele>240.66666666666666</ele><time>2026-03-28T11:33:50Z</time></trkpt><trkpt lat="40.783868463826124" lon="9.449076740567117"><ele>244.0</ele><time>2026-03-28T11:33:51Z</time></trkpt><trkpt lat="40.78399593410566" lon="9.44919130373184"><ele>244.0</ele><time>2026-03-28T11:33:52Z</time></trkpt><trkpt lat="40.784121646792826" lon="9.449288069526323"><ele>244.0</ele><time>2026-03-28T11:33:53Z</time></trkpt><trkpt lat="40.78424017856022" lon="9.449392114102453"><ele>244.0</ele><time>2026-03-28T11:33:54Z</time></trkpt><trkpt lat="40.7843479923112" lon="9.449490606251706"><ele>244.0</ele><time>2026-03-28T11:33:55Z</time></trkpt><trkpt lat="40.784455218220884" lon="9.449569438309299"><ele>244.99999999999997</ele><time>2026-03-28T11:33:56Z</time></trkpt><trkpt lat="40.78455533478924" lon="9.44962754456643"><ele>246.0</ele><time>2026-03-28T11:33:57Z</time></trkpt><trkpt lat="40.78464316431832" lon="9.44966853267541"><ele>247.0</ele><time>2026-03-28T11:33:58Z</time></trkpt><trkpt lat="40.78471165980526" lon="9.449696752909224"><ele>248.0</ele><time>2026-03-28T11:33:59Z</time></trkpt><trkpt lat="40.784784830490814" lon="9.44973060593428"><ele>248.99999999999997</ele><time>2026-03-28T11:34:01Z</time></trkpt><trkpt lat="40.78487012066322" lon="9.44977320223288"><ele>250.0</ele><time>2026-03-28T11:34:05Z</time></trkpt><trkpt lat="40.78493015442064" lon="9.449735658279652"><ele>250.25</ele><time>2026-03-28T11:34:06Z</time></trkpt><trkpt lat="40.7849986057063" lon="9.449621132170119"><ele>250.5</ele><time>2026-03-28T11:34:07Z</time></trkpt><trkpt lat="40.785074581383775" lon="9.449549279461817"><ele>250.75</ele><time>2026-03-28T11:34:08Z</time></trkpt><trkpt lat="40.785180791636826" lon="9.4494830158745"><ele>251.0</ele><time>2026-03-28T11:34:09Z</time></trkpt><trkpt lat="40.785313145667935" lon="9.449414978230477"><ele>251.0</ele><time>2026-03-28T11:34:10Z</time></trkpt><trkpt lat="40.78546550778971" lon="9.449330066510306"><ele>251.0</ele><time>2026-03-28T11:34:11Z</time></trkpt><trkpt lat="40.78562841126934" lon="9.449222956514832"><ele>251.0</ele><time>2026-03-28T11:34:12Z</time></trkpt><trkpt lat="40.78579309028782" lon="9.449092270897806"><ele>251.0</ele><time>2026-03-28T11:34:13Z</time></trkpt><trkpt lat="40.78595596819837" lon="9.448927683603495"><ele>251.0</ele><time>2026-03-28T11:34:14Z</time></trkpt><trkpt lat="40.786127195699216" lon="9.448725230599498"><ele>251.0</ele><time>2026-03-28T11:34:15Z</time></trkpt><trkpt lat="40.78629373646449" lon="9.448509475885219"><ele>249.0</ele><time>2026-03-28T11:34:16Z</time></trkpt><trkpt lat="40.786465808090185" lon="9.448277322662165"><ele>247.0</ele><time>2026-03-28T11:34:17Z</time></trkpt><trkpt lat="40.78664365742566" lon="9.448051812428767"><ele>247.5</ele><time>2026-03-28T11:34:18Z</time></trkpt><trkpt lat="40.78683336235755" lon="9.447842599083543"><ele>248.0</ele><time>2026-03-28T11:34:19Z</time></trkpt><trkpt lat="40.787024203160136" lon="9.447638905582856"><ele>248.0</ele><time>2026-03-28T11:34:20Z</time></trkpt><trkpt lat="40.78722571227333" lon="9.447421208961591"><ele>248.0</ele><time>2026-03-28T11:34:21Z</time></trkpt><trkpt lat="40.78743272489858" lon="9.447196872865907"><ele>247.5</ele><time>2026-03-28T11:34:22Z</time></trkpt><trkpt lat="40.78763694372241" lon="9.44697649984077"><ele>247.0</ele><time>2026-03-28T11:34:23Z</time></trkpt><trkpt lat="40.78783628259943" lon="9.446755654236405"><ele>247.0</ele><time>2026-03-28T11:34:24Z</time></trkpt><trkpt lat="40.78804070119032" lon="9.446524602622207"><ele>247.0</ele><time>2026-03-28T11:34:25Z</time></trkpt><trkpt lat="40.78825512177962" lon="9.446281286469025"><ele>245.5</ele><time>2026-03-28T11:34:26Z</time></trkpt><trkpt lat="40.788473185721124" lon="9.44603749037966"><ele>244.0</ele><time>2026-03-28T11:34:27Z</time></trkpt><trkpt lat="40.788672548499385" lon="9.445815345717303"><ele>250.5</ele><time>2026-03-28T11:34:28Z</time></trkpt><trkpt lat="40.78885539930967" lon="9.445613073186026"><ele>257.0</ele><time>2026-03-28T11:34:29Z</time></trkpt><trkpt lat="40.789028143439104" lon="9.445421658123145"><ele>257.0</ele><time>2026-03-28T11:34:30Z</time></trkpt><trkpt lat="40.78920334777996" lon="9.445229697007102"><ele>257.0</ele><time>2026-03-28T11:34:31Z</time></trkpt><trkpt lat="40.7893776210102" lon="9.445046581141268"><ele>258.33333333333337</ele><time>2026-03-28T11:34:32Z</time></trkpt><trkpt lat="40.7895629230459" lon="9.44488747847967"><ele>259.6666666666667</ele><time>2026-03-28T11:34:33Z</time></trkpt><trkpt lat="40.789766285808646" lon="9.4447570497678"><ele>261.0</ele><time>2026-03-28T11:34:34Z</time></trkpt><trkpt lat="40.789987954932165" lon="9.4446511569608"><ele>255.0</ele><time>2026-03-28T11:34:35Z</time></trkpt><trkpt lat="40.79021984187681" lon="9.444553221292166"><ele>249.0</ele><time>2026-03-28T11:34:36Z</time></trkpt><trkpt lat="40.79046012861757" lon="9.444453012924763"><ele>249.0</ele><time>2026-03-28T11:34:37Z</time></trkpt><trkpt lat="40.79069776028152" lon="9.444355635627948"><ele>249.0</ele><time>2026-03-28T11:34:38Z</time></trkpt><trkpt lat="40.79092504854939" lon="9.444258944298664"><ele>246.66666666666669</ele><time>2026-03-28T11:34:39Z</time></trkpt><trkpt lat="40.79113051752242" lon="9.444162927954286"><ele>244.33333333333334</ele><time>2026-03-28T11:34:40Z</time></trkpt><trkpt lat="40.79134165945948" lon="9.444078929288771"><ele>242.0</ele><time>2026-03-28T11:34:41Z</time></trkpt><trkpt lat="40.79157127843426" lon="9.444023488715763"><ele>242.0</ele><time>2026-03-28T11:34:42Z</time></trkpt><trkpt lat="40.791829086462855" lon="9.443983753339277"><ele>242.0</ele><time>2026-03-28T11:34:43Z</time></trkpt><trkpt lat="40.79210142394056" lon="9.44394089012369"><ele>237.0</ele><time>2026-03-28T11:34:44Z</time></trkpt><trkpt lat="40.79239605413287" lon="9.443887606894437"><ele>232.0</ele><time>2026-03-28T11:34:45Z</time></trkpt><trkpt lat="40.792701533152034" lon="9.443826229470224"><ele>223.5</ele><time>2026-03-28T11:34:46Z</time></trkpt><trkpt lat="40.79298998594644" lon="9.4437731023663"><ele>215.0</ele><time>2026-03-28T11:34:47Z</time></trkpt><trkpt lat="40.793258019616765" lon="9.44372593463477"><ele>214.0</ele><time>2026-03-28T11:34:48Z</time></trkpt><trkpt lat="40.7935189041675" lon="9.44368113802367"><ele>213.0</ele><time>2026-03-28T11:34:49Z</time></trkpt><trkpt lat="40.79378315161457" lon="9.443633283727666"><ele>213.0</ele><time>2026-03-28T11:34:50Z</time></trkpt><trkpt lat="40.79404451464355" lon="9.443587043418793"><ele>213.0</ele><time>2026-03-28T11:34:51Z</time></trkpt><trkpt lat="40.79430568017485" lon="9.443543907832218"><ele>213.5</ele><time>2026-03-28T11:34:52Z</time></trkpt><trkpt lat="40.79457116098561" lon="9.443498316279495"><ele>214.0</ele><time>2026-03-28T11:34:53Z</time></trkpt><trkpt lat="40.79483207242239" lon="9.443453916005428"><ele>214.0</ele><time>2026-03-28T11:34:54Z</time></trkpt><trkpt lat="40.79509860929263" lon="9.443410993985774"><ele>214.0</ele><time>2026-03-28T11:34:55Z</time></trkpt><trkpt lat="40.7953588893492" lon="9.44336731861879"><ele>212.5</ele><time>2026-03-28T11:34:56Z</time></trkpt><trkpt lat="40.79562195369582" lon="9.44332413072793"><ele>211.0</ele><time>2026-03-28T11:34:57Z</time></trkpt><trkpt lat="40.795881134669486" lon="9.443281054945565"><ele>212.0</ele><time>2026-03-28T11:34:58Z</time></trkpt><trkpt lat="40.79612077633112" lon="9.443237816490646"><ele>213.0</ele><time>2026-03-28T11:34:59Z</time></trkpt><trkpt lat="40.7963536064326" lon="9.443191336201723"><ele>213.0</ele><time>2026-03-28T11:35:00Z</time></trkpt><trkpt lat="40.796572476074466" lon="9.443147832114214"><ele>213.0</ele><time>2026-03-28T11:35:01Z</time></trkpt><trkpt lat="40.796777830674074" lon="9.443114638623133"><ele>213.0</ele><time>2026-03-28T11:35:02Z</time></trkpt><trkpt lat="40.79697061084202" lon="9.443091572324958"><ele>212.0</ele><time>2026-03-28T11:35:03Z</time></trkpt><trkpt lat="40.79716280571617" lon="9.443080185573777"><ele>211.0</ele><time>2026-03-28T11:35:04Z</time></trkpt><trkpt lat="40.797350760072426" lon="9.443098509356485"><ele>210.0</ele><time>2026-03-28T11:35:05Z</time></trkpt><trkpt lat="40.79754871680655" lon="9.44315449510678"><ele>208.0</ele><time>2026-03-28T11:35:05.999Z</time></trkpt><trkpt lat="40.797761190221365" lon="9.443253979581192"><ele>206.0</ele><time>2026-03-28T11:35:06.999Z</time></trkpt><trkpt lat="40.79797444725066" lon="9.443389983355564"><ele>206.0</ele><time>2026-03-28T11:35:07.999Z</time></trkpt><trkpt lat="40.79817596133722" lon="9.443556848253472"><ele>206.0</ele><time>2026-03-28T11:35:08.999Z</time></trkpt><trkpt lat="40.798345155172285" lon="9.443721633837304"><ele>206.0</ele><time>2026-03-28T11:35:09.999Z</time></trkpt><trkpt lat="40.798476333373344" lon="9.443882310998761"><ele>209.33333333333334</ele><time>2026-03-28T11:35:10.999Z</time></trkpt><trkpt lat="40.79858082158499" lon="9.444059147264749"><ele>212.66666666666669</ele><time>2026-03-28T11:35:11.999Z</time></trkpt><trkpt lat="40.79867437762152" lon="9.444272601249049"><ele>216.0</ele><time>2026-03-28T11:35:12.999Z</time></trkpt><trkpt lat="40.79876628805296" lon="9.444517241342506"><ele>218.0</ele><time>2026-03-28T11:35:13.999Z</time></trkpt><trkpt lat="40.798867803006864" lon="9.444763086180759"><ele>220.0</ele><time>2026-03-28T11:35:14.999Z</time></trkpt><trkpt lat="40.7990003361538" lon="9.444992848365324"><ele>222.0</ele><time>2026-03-28T11:35:15.999Z</time></trkpt><trkpt lat="40.799161116548596" lon="9.445195954693151"><ele>225.0</ele><time>2026-03-28T11:35:16.999Z</time></trkpt><trkpt lat="40.79934719356771" lon="9.445372817057912"><ele>228.0</ele><time>2026-03-28T11:35:17.999Z</time></trkpt><trkpt lat="40.7995535548139" lon="9.445525002847333"><ele>231.5</ele><time>2026-03-28T11:35:18.999Z</time></trkpt><trkpt lat="40.79977748030936" lon="9.445665862963436"><ele>235.0</ele><time>2026-03-28T11:35:19.999Z</time></trkpt><trkpt lat="40.80000449180351" lon="9.445796131373195"><ele>235.0</ele><time>2026-03-28T11:35:20.999Z</time></trkpt><trkpt lat="40.8002162769644" lon="9.445894791329772"><ele>235.0</ele><time>2026-03-28T11:35:21.999Z</time></trkpt><trkpt lat="40.80043364545688" lon="9.445980444315623"><ele>235.0</ele><time>2026-03-28T11:35:22.999Z</time></trkpt><trkpt lat="40.80065209224196" lon="9.446073283684303"><ele>235.0</ele><time>2026-03-28T11:35:23.999Z</time></trkpt><trkpt lat="40.80083780144417" lon="9.446175139505751"><ele>235.0</ele><time>2026-03-28T11:35:24.999Z</time></trkpt><trkpt lat="40.80099482414756" lon="9.446303701805512"><ele>238.0</ele><time>2026-03-28T11:35:25.999Z</time></trkpt><trkpt lat="40.80114224397286" lon="9.446415318780138"><ele>241.0</ele><time>2026-03-28T11:35:26.999Z</time></trkpt><trkpt lat="40.801305675679345" lon="9.446487826567553"><ele>244.0</ele><time>2026-03-28T11:35:27.999Z</time></trkpt><trkpt lat="40.8015047240553" lon="9.446517044251147"><ele>244.0</ele><time>2026-03-28T11:35:28.999Z</time></trkpt><trkpt lat="40.80170347954132" lon="9.446523808286516"><ele>244.0</ele><time>2026-03-28T11:35:29.999Z</time></trkpt><trkpt lat="40.80186321423074" lon="9.446515705618404"><ele>244.0</ele><time>2026-03-28T11:35:30.999Z</time></trkpt><trkpt lat="40.80199002652438" lon="9.446521516696993"><ele>245.39999999999998</ele><time>2026-03-28T11:35:31.999Z</time></trkpt><trkpt lat="40.802084461644625" lon="9.446565148332397"><ele>246.79999999999998</ele><time>2026-03-28T11:35:32.999Z</time></trkpt><trkpt lat="40.802136784921615" lon="9.446655938120575"><ele>248.20000000000002</ele><time>2026-03-28T11:35:33.999Z</time></trkpt><trkpt lat="40.802168324145406" lon="9.446786069295838"><ele>249.60000000000002</ele><time>2026-03-28T11:35:34.999Z</time></trkpt><trkpt lat="40.802172132341255" lon="9.446957848158187"><ele>251.0</ele><time>2026-03-28T11:35:35.999Z</time></trkpt><trkpt lat="40.80215066541819" lon="9.44715793770675"><ele>251.0</ele><time>2026-03-28T11:35:36.999Z</time></trkpt><trkpt lat="40.80211281069841" lon="9.447373791985186"><ele>251.0</ele><time>2026-03-28T11:35:37.999Z</time></trkpt><trkpt lat="40.802065590897705" lon="9.447609762749382"><ele>251.0</ele><time>2026-03-28T11:35:38.999Z</time></trkpt><trkpt lat="40.80202072331246" lon="9.447843187976979"><ele>252.0</ele><time>2026-03-28T11:35:39.999Z</time></trkpt><trkpt lat="40.801983555924956" lon="9.448054747422798"><ele>253.0</ele><time>2026-03-28T11:35:40.999Z</time></trkpt><trkpt lat="40.801976606747616" lon="9.44825149458637"><ele>254.0</ele><time>2026-03-28T11:35:41.999Z</time></trkpt><trkpt lat="40.80200926548318" lon="9.448428451541597"><ele>254.0</ele><time>2026-03-28T11:35:42.999Z</time></trkpt><trkpt lat="40.802041325303804" lon="9.448600763845695"><ele>253.99999999999997</ele><time>2026-03-28T11:35:43.999Z</time></trkpt><trkpt lat="40.802040124117" lon="9.448732638264495"><ele>253.99999999999997</ele><time>2026-03-28T11:35:44.999Z</time></trkpt><trkpt lat="40.80202191839509" lon="9.44882633151528"><ele>254.0</ele><time>2026-03-28T11:35:45.999Z</time></trkpt><trkpt lat="40.802074749941916" lon="9.448964185767757"><ele>254.0</ele><time>2026-03-28T11:35:47.999Z</time></trkpt><trkpt lat="40.80217732718587" lon="9.449046973140357"><ele>254.75</ele><time>2026-03-28T11:35:48.999Z</time></trkpt><trkpt lat="40.802307309358255" lon="9.449134316007742"><ele>255.5</ele><time>2026-03-28T11:35:49.999Z</time></trkpt><trkpt lat="40.80243396165097" lon="9.449232930614954"><ele>256.25</ele><time>2026-03-28T11:35:50.999Z</time></trkpt><trkpt lat="40.8025349613684" lon="9.449318464001484"><ele>257.0</ele><time>2026-03-28T11:35:51.999Z</time></trkpt><trkpt lat="40.802620050117305" lon="9.4493906402756"><ele>257.0</ele><time>2026-03-28T11:35:52.999Z</time></trkpt><trkpt lat="40.80266229051679" lon="9.449460619437257"><ele>257.0</ele><time>2026-03-28T11:35:54Z</time></trkpt><trkpt lat="40.8027031484867" lon="9.449583416449528"><ele>257.0</ele><time>2026-03-28T11:35:55Z</time></trkpt><trkpt lat="40.80271059741685" lon="9.449716250441172"><ele>257.0</ele><time>2026-03-28T11:35:56Z</time></trkpt><trkpt lat="40.802692573254596" lon="9.449873108749463"><ele>257.0</ele><time>2026-03-28T11:35:57Z</time></trkpt><trkpt lat="40.80268431529758" lon="9.450033761045606"><ele>257.33333333333337</ele><time>2026-03-28T11:35:58Z</time></trkpt><trkpt lat="40.802720183466135" lon="9.45021572389661"><ele>257.6666666666667</ele><time>2026-03-28T11:35:59Z</time></trkpt><trkpt lat="40.802797557179" lon="9.45041658252344"><ele>258.0</ele><time>2026-03-28T11:36:00Z</time></trkpt><trkpt lat="40.80290937719234" lon="9.45064225653666"><ele>258.0</ele><time>2026-03-28T11:36:01Z</time></trkpt><trkpt lat="40.80305489911536" lon="9.450875193931962"><ele>258.0</ele><time>2026-03-28T11:36:02Z</time></trkpt><trkpt lat="40.80322095839876" lon="9.45109616471202"><ele>260.0</ele><time>2026-03-28T11:36:03Z</time></trkpt><trkpt lat="40.80341166529675" lon="9.451316757489343"><ele>262.0</ele><time>2026-03-28T11:36:04Z</time></trkpt><trkpt lat="40.80359486757482" lon="9.451496541979296"><ele>262.0</ele><time>2026-03-28T11:36:05Z</time></trkpt><trkpt lat="40.80379177389551" lon="9.451650343560349"><ele>262.0</ele><time>2026-03-28T11:36:06Z</time></trkpt><trkpt lat="40.80401224996952" lon="9.45179703874343"><ele>262.0</ele><time>2026-03-28T11:36:07Z</time></trkpt><trkpt lat="40.80425063565429" lon="9.451924780840619"><ele>262.0</ele><time>2026-03-28T11:36:08Z</time></trkpt><trkpt lat="40.80451477775608" lon="9.452037634492138"><ele>263.0</ele><time>2026-03-28T11:36:09Z</time></trkpt><trkpt lat="40.80478132721279" lon="9.452142286248476"><ele>264.0</ele><time>2026-03-28T11:36:10Z</time></trkpt><trkpt lat="40.80504654720384" lon="9.452254525060601"><ele>269.0</ele><time>2026-03-28T11:36:11Z</time></trkpt><trkpt lat="40.80531690077573" lon="9.452372234533897"><ele>274.0</ele><time>2026-03-28T11:36:12Z</time></trkpt><trkpt lat="40.805554993075376" lon="9.452476811138814"><ele>274.0</ele><time>2026-03-28T11:36:13Z</time></trkpt><trkpt lat="40.805768358159" lon="9.452570168922414"><ele>274.0</ele><time>2026-03-28T11:36:14Z</time></trkpt><trkpt lat="40.80595907827737" lon="9.452664251925823"><ele>274.0</ele><time>2026-03-28T11:36:15Z</time></trkpt><trkpt lat="40.80613998755888" lon="9.452784775644593"><ele>278.3333333333333</ele><time>2026-03-28T11:36:16Z</time></trkpt><trkpt lat="40.80631710899442" lon="9.452945853262074"><ele>282.6666666666667</ele><time>2026-03-28T11:36:17Z</time></trkpt><trkpt lat="40.8064708186125" lon="9.453142715286852"><ele>287.0</ele><time>2026-03-28T11:36:18Z</time></trkpt><trkpt lat="40.80659403431083" lon="9.453368583632127"><ele>287.0</ele><time>2026-03-28T11:36:19Z</time></trkpt><trkpt lat="40.80669106170719" lon="9.453616372234483"><ele>287.0</ele><time>2026-03-28T11:36:20Z</time></trkpt><trkpt lat="40.80678213886655" lon="9.453876123171174"><ele>287.0</ele><time>2026-03-28T11:36:21Z</time></trkpt><trkpt lat="40.806885820593564" lon="9.45409635214104"><ele>290.6666666666667</ele><time>2026-03-28T11:36:22Z</time></trkpt><trkpt lat="40.80701962769074" lon="9.454279707039001"><ele>294.3333333333333</ele><time>2026-03-28T11:36:23Z</time></trkpt><trkpt lat="40.80719153412596" lon="9.454459748784396"><ele>298.0</ele><time>2026-03-28T11:36:24Z</time></trkpt><trkpt lat="40.80738001325132" lon="9.454637799060437"><ele>298.0</ele><time>2026-03-28T11:36:25Z</time></trkpt><trkpt lat="40.80757507191555" lon="9.454824627539184"><ele>298.0</ele><time>2026-03-28T11:36:26Z</time></trkpt><trkpt lat="40.80777372440233" lon="9.455019946413627"><ele>301.0</ele><time>2026-03-28T11:36:27Z</time></trkpt><trkpt lat="40.80798087436912" lon="9.455227098390582"><ele>304.0</ele><time>2026-03-28T11:36:28Z</time></trkpt><trkpt lat="40.80816643563735" lon="9.455421681588446"><ele>305.0</ele><time>2026-03-28T11:36:29Z</time></trkpt><trkpt lat="40.808332908798775" lon="9.455606761540352"><ele>306.0</ele><time>2026-03-28T11:36:30Z</time></trkpt><trkpt lat="40.808491269140696" lon="9.455788838235673"><ele>307.0</ele><time>2026-03-28T11:36:31Z</time></trkpt><trkpt lat="40.8086421639408" lon="9.455967392648393"><ele>305.0</ele><time>2026-03-28T11:36:32Z</time></trkpt><trkpt lat="40.80880644234853" lon="9.456153010050537"><ele>303.0</ele><time>2026-03-28T11:36:33Z</time></trkpt><trkpt lat="40.80899714974832" lon="9.456360385279547"><ele>303.0</ele><time>2026-03-28T11:36:34Z</time></trkpt><trkpt lat="40.80918910876829" lon="9.456574225051998"><ele>303.0</ele><time>2026-03-28T11:36:35Z</time></trkpt><trkpt lat="40.80939078280254" lon="9.456801984505187"><ele>300.0</ele><time>2026-03-28T11:36:36Z</time></trkpt><trkpt lat="40.80959079603172" lon="9.457028494301584"><ele>297.0</ele><time>2026-03-28T11:36:37Z</time></trkpt><trkpt lat="40.809772220336285" lon="9.457229744484343"><ele>297.0</ele><time>2026-03-28T11:36:38Z</time></trkpt><trkpt lat="40.80994272679033" lon="9.457421611774688"><ele>297.0</ele><time>2026-03-28T11:36:39Z</time></trkpt><trkpt lat="40.810104313337376" lon="9.457608160779673"><ele>297.0</ele><time>2026-03-28T11:36:40Z</time></trkpt><trkpt lat="40.81025578561298" lon="9.457781890252187"><ele>297.0</ele><time>2026-03-28T11:36:41Z</time></trkpt><trkpt lat="40.81040331652113" lon="9.45795821412788"><ele>297.0</ele><time>2026-03-28T11:36:42Z</time></trkpt><trkpt lat="40.81055205565298" lon="9.458156043776071"><ele>297.0</ele><time>2026-03-28T11:36:43Z</time></trkpt><trkpt lat="40.81069424061629" lon="9.45838260858502"><ele>297.0</ele><time>2026-03-28T11:36:44Z</time></trkpt><trkpt lat="40.81082982155134" lon="9.45862331146089"><ele>297.0</ele><time>2026-03-28T11:36:45Z</time></trkpt><trkpt lat="40.81096006868841" lon="9.458880310136218"><ele>296.0</ele><time>2026-03-28T11:36:46Z</time></trkpt><trkpt lat="40.81109557258114" lon="9.45915389050062"><ele>295.0</ele><time>2026-03-28T11:36:47Z</time></trkpt><trkpt lat="40.8112325122688" lon="9.459424824457065"><ele>291.5</ele><time>2026-03-28T11:36:48Z</time></trkpt><trkpt lat="40.811373757334096" lon="9.45969654284127"><ele>288.0</ele><time>2026-03-28T11:36:49Z</time></trkpt><trkpt lat="40.81151905059943" lon="9.459974419290425"><ele>288.0</ele><time>2026-03-28T11:36:50Z</time></trkpt><trkpt lat="40.81166842579525" lon="9.460259399603682"><ele>288.0</ele><time>2026-03-28T11:36:51Z</time></trkpt><trkpt lat="40.81181479112327" lon="9.46054573322478"><ele>282.5</ele><time>2026-03-28T11:36:52Z</time></trkpt><trkpt lat="40.8119573497065" lon="9.460834549361886"><ele>277.0</ele><time>2026-03-28T11:36:53Z</time></trkpt><trkpt lat="40.81209113721214" lon="9.46110589371042"><ele>277.5</ele><time>2026-03-28T11:36:54Z</time></trkpt><trkpt lat="40.81222433172066" lon="9.461364537613369"><ele>278.0</ele><time>2026-03-28T11:36:55Z</time></trkpt><trkpt lat="40.81235485126565" lon="9.461611675840652"><ele>278.0</ele><time>2026-03-28T11:36:56Z</time></trkpt><trkpt lat="40.81248801317662" lon="9.46186932713383"><ele>278.0</ele><time>2026-03-28T11:36:57Z</time></trkpt><trkpt lat="40.812619478968664" lon="9.462127860248374"><ele>279.6666666666667</ele><time>2026-03-28T11:36:58Z</time></trkpt><trkpt lat="40.8127373063067" lon="9.46236544424035"><ele>281.3333333333333</ele><time>2026-03-28T11:36:59Z</time></trkpt><trkpt lat="40.81285012479255" lon="9.462593217397343"><ele>283.0</ele><time>2026-03-28T11:37:00Z</time></trkpt><trkpt lat="40.81296346332358" lon="9.462818632070006"><ele>284.66666666666663</ele><time>2026-03-28T11:37:01Z</time></trkpt><trkpt lat="40.81307093172065" lon="9.463017459318388"><ele>286.3333333333333</ele><time>2026-03-28T11:37:02Z</time></trkpt><trkpt lat="40.81318253222188" lon="9.463182447667874"><ele>288.0</ele><time>2026-03-28T11:37:03Z</time></trkpt><trkpt lat="40.813316938165784" lon="9.463312408705388"><ele>287.3333333333333</ele><time>2026-03-28T11:37:04Z</time></trkpt><trkpt lat="40.81348910986456" lon="9.463422566337082"><ele>286.66666666666663</ele><time>2026-03-28T11:37:05Z</time></trkpt><trkpt lat="40.81369520154133" lon="9.463511290043868"><ele>286.0</ele><time>2026-03-28T11:37:06Z</time></trkpt><trkpt lat="40.81390985434953" lon="9.463604015419316"><ele>286.0</ele><time>2026-03-28T11:37:07Z</time></trkpt><trkpt lat="40.81413786925909" lon="9.4636965704396"><ele>286.0</ele><time>2026-03-28T11:37:08Z</time></trkpt><trkpt lat="40.81435251463739" lon="9.463798413347332"><ele>286.3333333333333</ele><time>2026-03-28T11:37:09Z</time></trkpt><trkpt lat="40.81453889571336" lon="9.463908047312774"><ele>286.6666666666667</ele><time>2026-03-28T11:37:10Z</time></trkpt><trkpt lat="40.81473483017967" lon="9.464051131047123"><ele>287.0</ele><time>2026-03-28T11:37:11Z</time></trkpt><trkpt lat="40.81493655642993" lon="9.464225807682112"><ele>287.0</ele><time>2026-03-28T11:37:12Z</time></trkpt><trkpt lat="40.81512275226733" lon="9.464403995148219"><ele>287.0</ele><time>2026-03-28T11:37:13Z</time></trkpt><trkpt lat="40.815297701348214" lon="9.464564319324891"><ele>287.0</ele><time>2026-03-28T11:37:14Z</time></trkpt><trkpt lat="40.815483723760586" lon="9.464711274226692"><ele>287.5</ele><time>2026-03-28T11:37:15Z</time></trkpt><trkpt lat="40.81569589814631" lon="9.464860818195405"><ele>288.0</ele><time>2026-03-28T11:37:16Z</time></trkpt><trkpt lat="40.8159023236825" lon="9.46499190958882"><ele>287.3333333333333</ele><time>2026-03-28T11:37:17Z</time></trkpt><trkpt lat="40.81610039457833" lon="9.465092388850767"><ele>286.66666666666663</ele><time>2026-03-28T11:37:18Z</time></trkpt><trkpt lat="40.8163168900999" lon="9.465163957929178"><ele>286.0</ele><time>2026-03-28T11:37:19Z</time></trkpt><trkpt lat="40.816543570970964" lon="9.465218798187859"><ele>286.0</ele><time>2026-03-28T11:37:20Z</time></trkpt><trkpt lat="40.816746884885056" lon="9.465259525733586"><ele>286.0</ele><time>2026-03-28T11:37:21Z</time></trkpt><trkpt lat="40.816954954657255" lon="9.465306766969315"><ele>286.0</ele><time>2026-03-28T11:37:22Z</time></trkpt><trkpt lat="40.81715798788917" lon="9.46535272647545"><ele>286.0</ele><time>2026-03-28T11:37:23Z</time></trkpt><trkpt lat="40.817372014241094" lon="9.46540581929715"><ele>286.0</ele><time>2026-03-28T11:37:24Z</time></trkpt><trkpt lat="40.81756334997543" lon="9.465455060057044"><ele>286.0</ele><time>2026-03-28T11:37:25Z</time></trkpt><trkpt lat="40.81776306396614" lon="9.465497658901334"><ele>284.0</ele><time>2026-03-28T11:37:26Z</time></trkpt><trkpt lat="40.81797945925125" lon="9.465514381965974"><ele>282.0</ele><time>2026-03-28T11:37:27Z</time></trkpt><trkpt lat="40.8182239223708" lon="9.465504021901273"><ele>282.0</ele><time>2026-03-28T11:37:28Z</time></trkpt><trkpt lat="40.81847831671484" lon="9.465472056411171"><ele>282.0</ele><time>2026-03-28T11:37:29Z</time></trkpt><trkpt lat="40.81872750731681" lon="9.465443640760723"><ele>280.6666666666667</ele><time>2026-03-28T11:37:30Z</time></trkpt><trkpt lat="40.81895114071574" lon="9.465426486513781"><ele>279.33333333333337</ele><time>2026-03-28T11:37:31Z</time></trkpt><trkpt lat="40.81915481814176" lon="9.465409771283547"><ele>278.0</ele><time>2026-03-28T11:37:32Z</time></trkpt><trkpt lat="40.819337423283386" lon="9.465392617220498"><ele>278.0</ele><time>2026-03-28T11:37:33Z</time></trkpt><trkpt lat="40.81950677903511" lon="9.465371372719874"><ele>278.0</ele><time>2026-03-28T11:37:34Z</time></trkpt><trkpt lat="40.81967916237995" lon="9.465344604846525"><ele>278.0</ele><time>2026-03-28T11:37:35Z</time></trkpt><trkpt lat="40.8198456474623" lon="9.465293557784758"><ele>278.0</ele><time>2026-03-28T11:37:36Z</time></trkpt><trkpt lat="40.820000815206846" lon="9.465224278316036"><ele>278.0</ele><time>2026-03-28T11:37:37Z</time></trkpt><trkpt lat="40.82015983571174" lon="9.465144800840116"><ele>278.0</ele><time>2026-03-28T11:37:38Z</time></trkpt><trkpt lat="40.82031965892634" lon="9.465049896304835"><ele>279.0</ele><time>2026-03-28T11:37:39Z</time></trkpt><trkpt lat="40.8204602915681" lon="9.464948138327452"><ele>280.0</ele><time>2026-03-28T11:37:40Z</time></trkpt><trkpt lat="40.82058975916424" lon="9.46484041868578"><ele>281.0</ele><time>2026-03-28T11:37:41Z</time></trkpt><trkpt lat="40.820699076890875" lon="9.464740494488307"><ele>282.0</ele><time>2026-03-28T11:37:42Z</time></trkpt><trkpt lat="40.82079213404793" lon="9.464644788964035"><ele>282.2</ele><time>2026-03-28T11:37:42.999Z</time></trkpt><trkpt lat="40.82087502701667" lon="9.464558701502531"><ele>282.4</ele><time>2026-03-28T11:37:43.999Z</time></trkpt><trkpt lat="40.82094161046419" lon="9.464484571996403"><ele>282.6</ele><time>2026-03-28T11:37:44.999Z</time></trkpt><trkpt lat="40.82097378962376" lon="9.464334801411958"><ele>282.8</ele><time>2026-03-28T11:37:46.999Z</time></trkpt><trkpt lat="40.820952144008004" lon="9.464211903518695"><ele>283.0</ele><time>2026-03-28T11:37:47.999Z</time></trkpt><trkpt lat="40.820933722092136" lon="9.464071643059816"><ele>283.0</ele><time>2026-03-28T11:37:48.999Z</time></trkpt><trkpt lat="40.82094468407405" lon="9.463917124274078"><ele>283.0</ele><time>2026-03-28T11:37:49.999Z</time></trkpt><trkpt lat="40.82098263935706" lon="9.463777358676955"><ele>283.0</ele><time>2026-03-28T11:37:50.999Z</time></trkpt><trkpt lat="40.82103408059206" lon="9.463679155176116"><ele>283.0</ele><time>2026-03-28T11:37:51.999Z</time></trkpt><trkpt lat="40.82105640481406" lon="9.463597047210927"><ele>283.0</ele><time>2026-03-28T11:37:52.999Z</time></trkpt><trkpt lat="40.82104553694242" lon="9.463472228140983"><ele>285.6</ele><time>2026-03-28T11:37:53.999Z</time></trkpt><trkpt lat="40.82100587643802" lon="9.463312588654103"><ele>288.20000000000005</ele><time>2026-03-28T11:37:54.999Z</time></trkpt><trkpt lat="40.82099769088828" lon="9.463182441147934"><ele>290.8</ele><time>2026-03-28T11:37:55.999Z</time></trkpt><trkpt lat="40.821029688359786" lon="9.46309219520703"><ele>293.40000000000003</ele><time>2026-03-28T11:37:56.999Z</time></trkpt><trkpt lat="40.82110111061771" lon="9.463016814815132"><ele>296.0</ele><time>2026-03-28T11:37:57.999Z</time></trkpt><trkpt lat="40.82120433509686" lon="9.4629504242737"><ele>295.40000000000003</ele><time>2026-03-28T11:37:58.999Z</time></trkpt><trkpt lat="40.82130859060376" lon="9.462891044382628"><ele>294.8</ele><time>2026-03-28T11:38:00Z</time></trkpt><trkpt lat="40.821415572321904" lon="9.46283153100529"><ele>294.20000000000005</ele><time>2026-03-28T11:38:01Z</time></trkpt><trkpt lat="40.82151959680038" lon="9.46278004173738"><ele>293.6</ele><time>2026-03-28T11:38:02Z</time></trkpt><trkpt lat="40.82162273082274" lon="9.462737867395186"><ele>293.0</ele><time>2026-03-28T11:38:03Z</time></trkpt><trkpt lat="40.82173628058782" lon="9.46269602508809"><ele>291.75</ele><time>2026-03-28T11:38:04Z</time></trkpt><trkpt lat="40.821856308038555" lon="9.462656523048715"><ele>290.5</ele><time>2026-03-28T11:38:05Z</time></trkpt><trkpt lat="40.82197388800021" lon="9.462631027872517"><ele>289.25</ele><time>2026-03-28T11:38:06Z</time></trkpt><trkpt lat="40.82208981511815" lon="9.462619986573111"><ele>288.0</ele><time>2026-03-28T11:38:07Z</time></trkpt><trkpt lat="40.82223170956242" lon="9.462632562546071"><ele>288.0</ele><time>2026-03-28T11:38:08Z</time></trkpt><trkpt lat="40.82238041171122" lon="9.462673707695183"><ele>288.0</ele><time>2026-03-28T11:38:09Z</time></trkpt><trkpt lat="40.8225439141336" lon="9.46274182794521"><ele>288.0</ele><time>2026-03-28T11:38:10Z</time></trkpt><trkpt lat="40.82270567899873" lon="9.462800552992114"><ele>286.6666666666667</ele><time>2026-03-28T11:38:11Z</time></trkpt><trkpt lat="40.82287145667254" lon="9.462836054833588"><ele>285.33333333333337</ele><time>2026-03-28T11:38:12Z</time></trkpt><trkpt lat="40.82304744047846" lon="9.462838771469455"><ele>284.0</ele><time>2026-03-28T11:38:13Z</time></trkpt><trkpt lat="40.82322042888857" lon="9.462796659675478"><ele>284.0</ele><time>2026-03-28T11:38:14Z</time></trkpt><trkpt lat="40.82337485414828" lon="9.462746346605027"><ele>284.0</ele><time>2026-03-28T11:38:15Z</time></trkpt><trkpt lat="40.82350414606045" lon="9.462733554272361"><ele>284.0</ele><time>2026-03-28T11:38:16Z</time></trkpt><trkpt lat="40.823631699107935" lon="9.462784396480725"><ele>284.0</ele><time>2026-03-28T11:38:17Z</time></trkpt><trkpt lat="40.82376959699144" lon="9.462900373550251"><ele>285.0</ele><time>2026-03-28T11:38:18Z</time></trkpt><trkpt lat="40.82391180428317" lon="9.463027636994171"><ele>286.0</ele><time>2026-03-28T11:38:19Z</time></trkpt><trkpt lat="40.824042269306425" lon="9.463102360964788"><ele>287.0</ele><time>2026-03-28T11:38:20Z</time></trkpt><trkpt lat="40.82419175749388" lon="9.463130433483222"><ele>285.6666666666667</ele><time>2026-03-28T11:38:21Z</time></trkpt><trkpt lat="40.82435850550407" lon="9.463117016537462"><ele>284.3333333333333</ele><time>2026-03-28T11:38:22Z</time></trkpt><trkpt lat="40.82452254756354" lon="9.463073046877897"><ele>283.0</ele><time>2026-03-28T11:38:23Z</time></trkpt><trkpt lat="40.82466147063055" lon="9.463011319949034"><ele>282.25</ele><time>2026-03-28T11:38:24Z</time></trkpt><trkpt lat="40.82477836284161" lon="9.46293068242148"><ele>281.5</ele><time>2026-03-28T11:38:25Z</time></trkpt><trkpt lat="40.824862705618536" lon="9.462808642492424"><ele>280.75</ele><time>2026-03-28T11:38:26Z</time></trkpt><trkpt lat="40.82492516874389" lon="9.462644076288885"><ele>280.0</ele><time>2026-03-28T11:38:27Z</time></trkpt><trkpt lat="40.824958175157356" lon="9.462451529097166"><ele>280.0</ele><time>2026-03-28T11:38:28Z</time></trkpt><trkpt lat="40.824971457910436" lon="9.462233430437601"><ele>280.0</ele><time>2026-03-28T11:38:29Z</time></trkpt><trkpt lat="40.8249812713551" lon="9.461970086855771"><ele>280.0</ele><time>2026-03-28T11:38:30Z</time></trkpt><trkpt lat="40.824999810870615" lon="9.461696326146633"><ele>278.66666666666663</ele><time>2026-03-28T11:38:31Z</time></trkpt><trkpt lat="40.82501689068772" lon="9.461419216431253"><ele>277.3333333333333</ele><time>2026-03-28T11:38:32Z</time></trkpt><trkpt lat="40.82502254656013" lon="9.461144514860951"><ele>276.0</ele><time>2026-03-28T11:38:33Z</time></trkpt><trkpt lat="40.82502082245313" lon="9.460887509199871"><ele>274.0</ele><time>2026-03-28T11:38:34Z</time></trkpt><trkpt lat="40.82501590095094" lon="9.460643695614637"><ele>272.0</ele><time>2026-03-28T11:38:35Z</time></trkpt><trkpt lat="40.82500937136767" lon="9.460402262859878"><ele>270.0</ele><time>2026-03-28T11:38:36Z</time></trkpt><trkpt lat="40.824991527942025" lon="9.460162719307002"><ele>269.3333333333333</ele><time>2026-03-28T11:38:37Z</time></trkpt><trkpt lat="40.82494682864101" lon="9.459916258622492"><ele>268.66666666666663</ele><time>2026-03-28T11:38:38Z</time></trkpt><trkpt lat="40.82486942957893" lon="9.459664288364069"><ele>268.0</ele><time>2026-03-28T11:38:39Z</time></trkpt><trkpt lat="40.824759253040796" lon="9.459403564143832"><ele>268.0</ele><time>2026-03-28T11:38:40Z</time></trkpt><trkpt lat="40.824643484908314" lon="9.459182751360029"><ele>268.0</ele><time>2026-03-28T11:38:41Z</time></trkpt><trkpt lat="40.82454608108331" lon="9.458980324003198"><ele>268.0</ele><time>2026-03-28T11:38:42Z</time></trkpt><trkpt lat="40.82447164575985" lon="9.458796873079859"><ele>268.66666666666663</ele><time>2026-03-28T11:38:43Z</time></trkpt><trkpt lat="40.82440276156254" lon="9.458603524138338"><ele>269.3333333333333</ele><time>2026-03-28T11:38:44Z</time></trkpt><trkpt lat="40.824347199983" lon="9.458386717430484"><ele>270.0</ele><time>2026-03-28T11:38:45Z</time></trkpt><trkpt lat="40.82431931744689" lon="9.458135574913324"><ele>269.0</ele><time>2026-03-28T11:38:46Z</time></trkpt><trkpt lat="40.82431845550249" lon="9.457861671516048"><ele>268.0</ele><time>2026-03-28T11:38:47Z</time></trkpt><trkpt lat="40.82433456505656" lon="9.457570785675154"><ele>267.0</ele><time>2026-03-28T11:38:48Z</time></trkpt><trkpt lat="40.82435123940719" lon="9.457287290282375"><ele>264.6666666666667</ele><time>2026-03-28T11:38:49Z</time></trkpt><trkpt lat="40.82437047359553" lon="9.457029291960083"><ele>262.33333333333337</ele><time>2026-03-28T11:38:50Z</time></trkpt><trkpt lat="40.82439456486049" lon="9.456789914038245"><ele>260.0</ele><time>2026-03-28T11:38:51Z</time></trkpt><trkpt lat="40.824417743929786" lon="9.456587753351899"><ele>260.0</ele><time>2026-03-28T11:38:52Z</time></trkpt><trkpt lat="40.82447845732087" lon="9.456390520641396"><ele>260.0</ele><time>2026-03-28T11:38:53Z</time></trkpt><trkpt lat="40.824576672297894" lon="9.456147301389025"><ele>260.0</ele><time>2026-03-28T11:38:54Z</time></trkpt><trkpt lat="40.82469390030661" lon="9.455969880652647"><ele>257.33333333333337</ele><time>2026-03-28T11:38:55Z</time></trkpt><trkpt lat="40.82482159943202" lon="9.45584993160255"><ele>254.66666666666669</ele><time>2026-03-28T11:38:56Z</time></trkpt><trkpt lat="40.824965278509225" lon="9.455780973359543"><ele>252.0</ele><time>2026-03-28T11:38:57Z</time></trkpt><trkpt lat="40.82513247449773" lon="9.455746325128283"><ele>251.33333333333331</ele><time>2026-03-28T11:38:58Z</time></trkpt><trkpt lat="40.82531873244982" lon="9.45573949540442"><ele>250.66666666666666</ele><time>2026-03-28T11:38:59Z</time></trkpt><trkpt lat="40.82549435490452" lon="9.455757556274591"><ele>250.0</ele><time>2026-03-28T11:39:00Z</time></trkpt><trkpt lat="40.82564992779252" lon="9.455816510362196"><ele>250.0</ele><time>2026-03-28T11:39:01Z</time></trkpt><trkpt lat="40.825805522117875" lon="9.45592568254105"><ele>250.0</ele><time>2026-03-28T11:39:02Z</time></trkpt><trkpt lat="40.8259794976935" lon="9.45607849626149"><ele>250.0</ele><time>2026-03-28T11:39:03Z</time></trkpt><trkpt lat="40.82616566615397" lon="9.456233836151883"><ele>248.0</ele><time>2026-03-28T11:39:04Z</time></trkpt><trkpt lat="40.826360582450135" lon="9.456378204366192"><ele>246.0</ele><time>2026-03-28T11:39:05Z</time></trkpt><trkpt lat="40.826552965983474" lon="9.456522720627142"><ele>244.0</ele><time>2026-03-28T11:39:06Z</time></trkpt><trkpt lat="40.82673609487099" lon="9.456674027857328"><ele>240.66666666666666</ele><time>2026-03-28T11:39:07Z</time></trkpt><trkpt lat="40.826901320385204" lon="9.456826245391154"><ele>237.33333333333331</ele><time>2026-03-28T11:39:08Z</time></trkpt><trkpt lat="40.82705247208271" lon="9.456967113750457"><ele>234.0</ele><time>2026-03-28T11:39:09Z</time></trkpt><trkpt lat="40.827188350749914" lon="9.45708588905817"><ele>235.25</ele><time>2026-03-28T11:39:10Z</time></trkpt><trkpt lat="40.82730941679384" lon="9.457186010578017"><ele>236.5</ele><time>2026-03-28T11:39:11Z</time></trkpt><trkpt lat="40.82743008935886" lon="9.457253593793752"><ele>237.75</ele><time>2026-03-28T11:39:12Z</time></trkpt><trkpt lat="40.82755904526445" lon="9.457301208026017"><ele>239.0</ele><time>2026-03-28T11:39:13Z</time></trkpt><trkpt lat="40.82770196060893" lon="9.457280874860176"><ele>235.75</ele><time>2026-03-28T11:39:14Z</time></trkpt><trkpt lat="40.82783092083455" lon="9.457222966333875"><ele>232.5</ele><time>2026-03-28T11:39:15Z</time></trkpt><trkpt lat="40.82794554627593" lon="9.457122043712966"><ele>229.25</ele><time>2026-03-28T11:39:16Z</time></trkpt><trkpt lat="40.82804655215895" lon="9.456977422158173"><ele>226.0</ele><time>2026-03-28T11:39:17Z</time></trkpt><trkpt lat="40.82811758196452" lon="9.456822637463521"><ele>226.0</ele><time>2026-03-28T11:39:18Z</time></trkpt><trkpt lat="40.82815200565877" lon="9.456659403340815"><ele>226.0</ele><time>2026-03-28T11:39:19Z</time></trkpt><trkpt lat="40.82816357798211" lon="9.456464494127143"><ele>226.0</ele><time>2026-03-28T11:39:20Z</time></trkpt><trkpt lat="40.82816730457325" lon="9.456257442716707"><ele>226.0</ele><time>2026-03-28T11:39:21Z</time></trkpt><trkpt lat="40.82820017281496" lon="9.456090135802258"><ele>226.0</ele><time>2026-03-28T11:39:22Z</time></trkpt><trkpt lat="40.82827793222754" lon="9.455986449621385"><ele>226.0</ele><time>2026-03-28T11:39:23Z</time></trkpt><trkpt lat="40.828388221361244" lon="9.455932914421712"><ele>226.0</ele><time>2026-03-28T11:39:24Z</time></trkpt><trkpt lat="40.82850577914946" lon="9.455935237848697"><ele>226.0</ele><time>2026-03-28T11:39:25Z</time></trkpt><trkpt lat="40.828607363342186" lon="9.455994575299743"><ele>226.0</ele><time>2026-03-28T11:39:26Z</time></trkpt><trkpt lat="40.82866734905612" lon="9.456127005038448"><ele>226.0</ele><time>2026-03-28T11:39:27Z</time></trkpt><trkpt lat="40.82868501982278" lon="9.456311130575166"><ele>226.0</ele><time>2026-03-28T11:39:28Z</time></trkpt><trkpt lat="40.828682309440005" lon="9.456532881753285"><ele>226.0</ele><time>2026-03-28T11:39:29Z</time></trkpt><trkpt lat="40.82868815412025" lon="9.456720891257676"><ele>221.33333333333331</ele><time>2026-03-28T11:39:30Z</time></trkpt><trkpt lat="40.82875331948093" lon="9.456899282330316"><ele>216.66666666666669</ele><time>2026-03-28T11:39:31Z</time></trkpt><trkpt lat="40.8288495116853" lon="9.457091169590203"><ele>212.0</ele><time>2026-03-28T11:39:32Z</time></trkpt><trkpt lat="40.8289265301109" lon="9.457254206397156"><ele>210.75</ele><time>2026-03-28T11:39:33Z</time></trkpt><trkpt lat="40.82895359940155" lon="9.457414131992367"><ele>209.5</ele><time>2026-03-28T11:39:34Z</time></trkpt><trkpt lat="40.82893967200566" lon="9.457615407744628"><ele>208.25</ele><time>2026-03-28T11:39:35Z</time></trkpt><trkpt lat="40.82890468441939" lon="9.45783218551016"><ele>207.0</ele><time>2026-03-28T11:39:36Z</time></trkpt><trkpt lat="40.828899470957076" lon="9.458025210981415"><ele>207.0</ele><time>2026-03-28T11:39:37Z</time></trkpt><trkpt lat="40.828939677570126" lon="9.45818176342312"><ele>207.0</ele><time>2026-03-28T11:39:38Z</time></trkpt><trkpt lat="40.82902930876107" lon="9.458313518398995"><ele>207.0</ele><time>2026-03-28T11:39:39Z</time></trkpt><trkpt lat="40.82915641223058" lon="9.458447799613198"><ele>207.0</ele><time>2026-03-28T11:39:40Z</time></trkpt><trkpt lat="40.82930083894663" lon="9.458562764332498"><ele>207.33333333333331</ele><time>2026-03-28T11:39:41Z</time></trkpt><trkpt lat="40.82949631126257" lon="9.458649350815847"><ele>207.66666666666666</ele><time>2026-03-28T11:39:42Z</time></trkpt><trkpt lat="40.82970481250169" lon="9.458723141136726"><ele>208.0</ele><time>2026-03-28T11:39:43Z</time></trkpt><trkpt lat="40.82991701687365" lon="9.458824565055135"><ele>208.0</ele><time>2026-03-28T11:39:44Z</time></trkpt><trkpt lat="40.830104246585186" lon="9.45893899638622"><ele>208.0</ele><time>2026-03-28T11:39:45Z</time></trkpt><trkpt lat="40.83027339217711" lon="9.459051033013305"><ele>208.0</ele><time>2026-03-28T11:39:46Z</time></trkpt><trkpt lat="40.830421690985084" lon="9.459164662630139"><ele>204.33333333333331</ele><time>2026-03-28T11:39:47Z</time></trkpt><trkpt lat="40.830552938378986" lon="9.459306653419798"><ele>200.66666666666669</ele><time>2026-03-28T11:39:48Z</time></trkpt><trkpt lat="40.830683033134896" lon="9.459490228484373"><ele>197.0</ele><time>2026-03-28T11:39:49Z</time></trkpt><trkpt lat="40.830803230262674" lon="9.459719470905817"><ele>197.0</ele><time>2026-03-28T11:39:50Z</time></trkpt><trkpt lat="40.83091278614051" lon="9.459942220478865"><ele>197.0</ele><time>2026-03-28T11:39:51Z</time></trkpt><trkpt lat="40.83102910193741" lon="9.460128292491309"><ele>197.0</ele><time>2026-03-28T11:39:52Z</time></trkpt><trkpt lat="40.83115664459088" lon="9.460273415893319"><ele>194.33333333333334</ele><time>2026-03-28T11:39:52.999Z</time></trkpt><trkpt lat="40.831312816482445" lon="9.460389266573891"><ele>191.66666666666669</ele><time>2026-03-28T11:39:53.999Z</time></trkpt><trkpt lat="40.831482641104664" lon="9.460488600062021"><ele>189.0</ele><time>2026-03-28T11:39:54.999Z</time></trkpt><trkpt lat="40.83162907065954" lon="9.460590802515135"><ele>189.0</ele><time>2026-03-28T11:39:55.999Z</time></trkpt><trkpt lat="40.831745992395376" lon="9.46074109091734"><ele>189.0</ele><time>2026-03-28T11:39:56.999Z</time></trkpt><trkpt lat="40.831861725596895" lon="9.460964072405975"><ele>189.0</ele><time>2026-03-28T11:39:57.999Z</time></trkpt><trkpt lat="40.83198389457292" lon="9.461211609497227"><ele>179.5</ele><time>2026-03-28T11:39:58.999Z</time></trkpt><trkpt lat="40.83212075564119" lon="9.461468376319345"><ele>170.0</ele><time>2026-03-28T11:39:59.999Z</time></trkpt><trkpt lat="40.83225513763891" lon="9.461719336818057"><ele>170.0</ele><time>2026-03-28T11:40:00.999Z</time></trkpt><trkpt lat="40.83237897128979" lon="9.461953381249748"><ele>170.0</ele><time>2026-03-28T11:40:01.999Z</time></trkpt><trkpt lat="40.832490642162696" lon="9.462164923754731"><ele>170.0</ele><time>2026-03-28T11:40:02.999Z</time></trkpt><trkpt lat="40.832580592595114" lon="9.462366697110943"><ele>161.66666666666666</ele><time>2026-03-28T11:40:03.999Z</time></trkpt><trkpt lat="40.83264178652623" lon="9.462601016026252"><ele>153.33333333333334</ele><time>2026-03-28T11:40:04.999Z</time></trkpt><trkpt lat="40.83268742478146" lon="9.462884419054284"><ele>145.0</ele><time>2026-03-28T11:40:06Z</time></trkpt><trkpt lat="40.83274221541294" lon="9.463182692432373"><ele>143.66666666666669</ele><time>2026-03-28T11:40:07Z</time></trkpt><trkpt lat="40.832803225159374" lon="9.463474666926624"><ele>142.33333333333334</ele><time>2026-03-28T11:40:08Z</time></trkpt><trkpt lat="40.832859940390286" lon="9.463745824537439"><ele>141.0</ele><time>2026-03-28T11:40:09Z</time></trkpt><trkpt lat="40.83291123281324" lon="9.464003549477042"><ele>141.0</ele><time>2026-03-28T11:40:10Z</time></trkpt><trkpt lat="40.83295836928577" lon="9.464264409356934"><ele>141.0</ele><time>2026-03-28T11:40:11Z</time></trkpt><trkpt lat="40.833006511837105" lon="9.464542930299752"><ele>141.0</ele><time>2026-03-28T11:40:12Z</time></trkpt><trkpt lat="40.83305491959811" lon="9.464816793674835"><ele>142.33333333333334</ele><time>2026-03-28T11:40:13Z</time></trkpt><trkpt lat="40.83309653380146" lon="9.465073756428422"><ele>143.66666666666669</ele><time>2026-03-28T11:40:14Z</time></trkpt><trkpt lat="40.833130775070046" lon="9.465325568699063"><ele>145.0</ele><time>2026-03-28T11:40:15Z</time></trkpt><trkpt lat="40.83315917897347" lon="9.465564247120932"><ele>147.0</ele><time>2026-03-28T11:40:16Z</time></trkpt><trkpt lat="40.83318558978271" lon="9.46578777085899"><ele>149.0</ele><time>2026-03-28T11:40:17Z</time></trkpt><trkpt lat="40.833209341287294" lon="9.465981843842009"><ele>151.0</ele><time>2026-03-28T11:40:18Z</time></trkpt><trkpt lat="40.833232964922324" lon="9.4661522093797"><ele>151.2</ele><time>2026-03-28T11:40:19Z</time></trkpt><trkpt lat="40.833262492389366" lon="9.466297710739376"><ele>151.39999999999998</ele><time>2026-03-28T11:40:20Z</time></trkpt><trkpt lat="40.833306511187594" lon="9.466413421303402"><ele>151.6</ele><time>2026-03-28T11:40:21Z</time></trkpt><trkpt lat="40.83339411579078" lon="9.466489646723529"><ele>151.79999999999998</ele><time>2026-03-28T11:40:22Z</time></trkpt><trkpt lat="40.83349729405672" lon="9.46652697934306"><ele>152.0</ele><time>2026-03-28T11:40:23Z</time></trkpt><trkpt lat="40.83362858925673" lon="9.466516371749229"><ele>152.0</ele><time>2026-03-28T11:40:24Z</time></trkpt><trkpt lat="40.83378956845098" lon="9.466478081632234"><ele>152.0</ele><time>2026-03-28T11:40:25Z</time></trkpt><trkpt lat="40.833964602939794" lon="9.466464599659119"><ele>152.0</ele><time>2026-03-28T11:40:26Z</time></trkpt><trkpt lat="40.834161774511735" lon="9.466522417159405"><ele>142.5</ele><time>2026-03-28T11:40:27Z</time></trkpt><trkpt lat="40.83436922460681" lon="9.466623031875056"><ele>133.0</ele><time>2026-03-28T11:40:28Z</time></trkpt><trkpt lat="40.83458385222076" lon="9.466741156571358"><ele>133.0</ele><time>2026-03-28T11:40:29Z</time></trkpt><trkpt lat="40.83478443821785" lon="9.466847374755604"><ele>133.0</ele><time>2026-03-28T11:40:30Z</time></trkpt><trkpt lat="40.83495483882737" lon="9.466932046122306"><ele>133.0</ele><time>2026-03-28T11:40:31Z</time></trkpt><trkpt lat="40.83510598835646" lon="9.46702776079703"><ele>131.0</ele><time>2026-03-28T11:40:32Z</time></trkpt><trkpt lat="40.83523873911277" lon="9.467167304538794"><ele>129.0</ele><time>2026-03-28T11:40:33Z</time></trkpt><trkpt lat="40.83535082541257" lon="9.46735739174158"><ele>127.0</ele><time>2026-03-28T11:40:34Z</time></trkpt><trkpt lat="40.83547018991031" lon="9.467596537250945"><ele>127.0</ele><time>2026-03-28T11:40:35Z</time></trkpt><trkpt lat="40.835588984515056" lon="9.467862016014303"><ele>127.0</ele><time>2026-03-28T11:40:36Z</time></trkpt><trkpt lat="40.835698106067206" lon="9.468097611097503"><ele>127.0</ele><time>2026-03-28T11:40:37Z</time></trkpt><trkpt lat="40.83579536494262" lon="9.468303279575625"><ele>128.0</ele><time>2026-03-28T11:40:38Z</time></trkpt><trkpt lat="40.83586776786332" lon="9.46849563517043"><ele>129.0</ele><time>2026-03-28T11:40:39Z</time></trkpt><trkpt lat="40.83591884749533" lon="9.468713914623823"><ele>130.0</ele><time>2026-03-28T11:40:40Z</time></trkpt><trkpt lat="40.835941780238976" lon="9.4689642365589"><ele>124.66666666666667</ele><time>2026-03-28T11:40:41Z</time></trkpt><trkpt lat="40.83598535969305" lon="9.469183751020966"><ele>119.33333333333334</ele><time>2026-03-28T11:40:42Z</time></trkpt><trkpt lat="40.836069013784396" lon="9.469397435139358"><ele>114.0</ele><time>2026-03-28T11:40:43Z</time></trkpt><trkpt lat="40.836172807820816" lon="9.469627618335325"><ele>114.0</ele><time>2026-03-28T11:40:44Z</time></trkpt><trkpt lat="40.836263916649216" lon="9.469853047935661"><ele>114.0</ele><time>2026-03-28T11:40:45Z</time></trkpt><trkpt lat="40.8363235114171" lon="9.470082393476426"><ele>114.0</ele><time>2026-03-28T11:40:46Z</time></trkpt><trkpt lat="40.83636244919365" lon="9.470350116663784"><ele>113.0</ele><time>2026-03-28T11:40:47Z</time></trkpt><trkpt lat="40.83639339821178" lon="9.470651044900908"><ele>112.0</ele><time>2026-03-28T11:40:48Z</time></trkpt><trkpt lat="40.836426443600864" lon="9.470954042759528"><ele>112.0</ele><time>2026-03-28T11:40:49Z</time></trkpt><trkpt lat="40.836459125266884" lon="9.471238851288959"><ele>112.0</ele><time>2026-03-28T11:40:50Z</time></trkpt><trkpt lat="40.83648932132309" lon="9.471504531430176"><ele>112.0</ele><time>2026-03-28T11:40:51Z</time></trkpt><trkpt lat="40.83652230604571" lon="9.471762370181297"><ele>112.33333333333334</ele><time>2026-03-28T11:40:52Z</time></trkpt><trkpt lat="40.83655644110456" lon="9.472002057551114"><ele>112.66666666666666</ele><time>2026-03-28T11:40:53Z</time></trkpt><trkpt lat="40.83658525097976" lon="9.472209418107862"><ele>113.0</ele><time>2026-03-28T11:40:54Z</time></trkpt><trkpt lat="40.83661422566923" lon="9.472447143102704"><ele>111.75</ele><time>2026-03-28T11:40:55Z</time></trkpt><trkpt lat="40.836644180198284" lon="9.472617497626292"><ele>110.5</ele><time>2026-03-28T11:40:56Z</time></trkpt><trkpt lat="40.8366739321172" lon="9.47276860177714"><ele>109.25</ele><time>2026-03-28T11:40:57Z</time></trkpt><trkpt lat="40.83669433546555" lon="9.472921429500174"><ele>108.0</ele><time>2026-03-28T11:40:58Z</time></trkpt><trkpt lat="40.83669303826294" lon="9.473075933524312"><ele>107.25</ele><time>2026-03-28T11:40:59Z</time></trkpt><trkpt lat="40.83668401748368" lon="9.473227602710555"><ele>106.5</ele><time>2026-03-28T11:41:00Z</time></trkpt><trkpt lat="40.83670762094713" lon="9.473380998308308"><ele>105.75</ele><time>2026-03-28T11:41:01Z</time></trkpt><trkpt lat="40.83675549477845" lon="9.473571796790237"><ele>105.0</ele><time>2026-03-28T11:41:02Z</time></trkpt><trkpt lat="40.83678332847955" lon="9.47377847182784"><ele>105.0</ele><time>2026-03-28T11:41:03Z</time></trkpt><trkpt lat="40.836789912836814" lon="9.47396503138233"><ele>105.0</ele><time>2026-03-28T11:41:04Z</time></trkpt><trkpt lat="40.83680370716321" lon="9.474142945506612"><ele>105.0</ele><time>2026-03-28T11:41:05Z</time></trkpt><trkpt lat="40.836830554062246" lon="9.474317430886869"><ele>105.0</ele><time>2026-03-28T11:41:06Z</time></trkpt><trkpt lat="40.83687449647708" lon="9.474506124347874"><ele>99.66666666666667</ele><time>2026-03-28T11:41:07Z</time></trkpt><trkpt lat="40.83693553418077" lon="9.474726790683718"><ele>94.33333333333334</ele><time>2026-03-28T11:41:08Z</time></trkpt><trkpt lat="40.83701224898748" lon="9.474968273176989"><ele>89.0</ele><time>2026-03-28T11:41:09Z</time></trkpt><trkpt lat="40.83708375524151" lon="9.475177101291507"><ele>89.0</ele><time>2026-03-28T11:41:10Z</time></trkpt><trkpt lat="40.83713892059681" lon="9.475345646621715"><ele>89.0</ele><time>2026-03-28T11:41:11Z</time></trkpt><trkpt lat="40.837196942086315" lon="9.475524855744455"><ele>89.0</ele><time>2026-03-28T11:41:12Z</time></trkpt><trkpt lat="40.837261405485364" lon="9.475710752724638"><ele>89.0</ele><time>2026-03-28T11:41:13Z</time></trkpt><trkpt lat="40.83732159327776" lon="9.475891152093523"><ele>89.25</ele><time>2026-03-28T11:41:14Z</time></trkpt><trkpt lat="40.837379087865045" lon="9.476067870443924"><ele>89.5</ele><time>2026-03-28T11:41:15Z</time></trkpt><trkpt lat="40.8374353908712" lon="9.476240295496622"><ele>89.75</ele><time>2026-03-28T11:41:16Z</time></trkpt><trkpt lat="40.83749200637035" lon="9.476408695875994"><ele>90.0</ele><time>2026-03-28T11:41:17Z</time></trkpt><trkpt lat="40.837558096282656" lon="9.476570774293833"><ele>87.75</ele><time>2026-03-28T11:41:18Z</time></trkpt><trkpt lat="40.837658386221214" lon="9.476733342142676"><ele>85.5</ele><time>2026-03-28T11:41:19Z</time></trkpt><trkpt lat="40.83775521082299" lon="9.476868006856872"><ele>83.25</ele><time>2026-03-28T11:41:20Z</time></trkpt><trkpt lat="40.837865240875075" lon="9.477001858050006"><ele>81.0</ele><time>2026-03-28T11:41:21Z</time></trkpt><trkpt lat="40.837978247496345" lon="9.477140251844972"><ele>81.0</ele><time>2026-03-28T11:41:22Z</time></trkpt><trkpt lat="40.83809692266394" lon="9.477284025383598"><ele>81.0</ele><time>2026-03-28T11:41:22.999Z</time></trkpt><trkpt lat="40.838206834812716" lon="9.477420144838966"><ele>81.0</ele><time>2026-03-28T11:41:23.999Z</time></trkpt><trkpt lat="40.838322068462645" lon="9.477556965525512"><ele>81.0</ele><time>2026-03-28T11:41:24.999Z</time></trkpt><trkpt lat="40.83844210094774" lon="9.477707331820442"><ele>81.0</ele><time>2026-03-28T11:41:25.999Z</time></trkpt><trkpt lat="40.83855926227386" lon="9.477847466977442"><ele>81.0</ele><time>2026-03-28T11:41:26.999Z</time></trkpt><trkpt lat="40.838676098780816" lon="9.477987226056444"><ele>79.66666666666667</ele><time>2026-03-28T11:41:27.999Z</time></trkpt><trkpt lat="40.83880321773302" lon="9.478141704508364"><ele>78.33333333333334</ele><time>2026-03-28T11:41:28.999Z</time></trkpt><trkpt lat="40.83893351124263" lon="9.478289896783242"><ele>77.0</ele><time>2026-03-28T11:41:29.999Z</time></trkpt><trkpt lat="40.839067408806116" lon="9.47844587326055"><ele>77.0</ele><time>2026-03-28T11:41:30.999Z</time></trkpt><trkpt lat="40.83921409203485" lon="9.478627334887888"><ele>77.0</ele><time>2026-03-28T11:41:31.999Z</time></trkpt><trkpt lat="40.839375509270255" lon="9.478825635525327"><ele>77.0</ele><time>2026-03-28T11:41:32.999Z</time></trkpt><trkpt lat="40.83946052423093" lon="9.479072861248502"><ele>75.0</ele><time>2026-03-28T11:41:34.999Z</time></trkpt><trkpt lat="40.839522721041" lon="9.479278041175066"><ele>73.0</ele><time>2026-03-28T11:41:35.999Z</time></trkpt><trkpt lat="40.83956357319466" lon="9.47949925751685"><ele>71.0</ele><time>2026-03-28T11:41:36.999Z</time></trkpt><trkpt lat="40.83959459432183" lon="9.479735307307777"><ele>69.0</ele><time>2026-03-28T11:41:37.999Z</time></trkpt><trkpt lat="40.839626855747696" lon="9.480022504327145"><ele>67.0</ele><time>2026-03-28T11:41:38.999Z</time></trkpt><trkpt lat="40.83965273809941" lon="9.480343758231486"><ele>66.0</ele><time>2026-03-28T11:41:39.999Z</time></trkpt><trkpt lat="40.839667312368526" lon="9.480698243523285"><ele>65.0</ele><time>2026-03-28T11:41:40.999Z</time></trkpt><trkpt lat="40.8396804492087" lon="9.481067680360963"><ele>65.0</ele><time>2026-03-28T11:41:41.999Z</time></trkpt><trkpt lat="40.839706307095334" lon="9.481455411317608"><ele>65.0</ele><time>2026-03-28T11:41:42.999Z</time></trkpt><trkpt lat="40.83974124886464" lon="9.48185071717212"><ele>64.0</ele><time>2026-03-28T11:41:43.999Z</time></trkpt><trkpt lat="40.839778180677634" lon="9.482252405762775"><ele>63.0</ele><time>2026-03-28T11:41:44.999Z</time></trkpt><trkpt lat="40.83981381792891" lon="9.482664621052713"><ele>63.0</ele><time>2026-03-28T11:41:45.999Z</time></trkpt><trkpt lat="40.83984871089563" lon="9.48308685914573"><ele>63.0</ele><time>2026-03-28T11:41:46.999Z</time></trkpt><trkpt lat="40.83988043833659" lon="9.483513861280173"><ele>63.0</ele><time>2026-03-28T11:41:47.999Z</time></trkpt><trkpt lat="40.83991725114243" lon="9.483951306136897"><ele>63.0</ele><time>2026-03-28T11:41:48.999Z</time></trkpt><trkpt lat="40.83995073541799" lon="9.484355537921527"><ele>62.5</ele><time>2026-03-28T11:41:49.999Z</time></trkpt><trkpt lat="40.8399812700578" lon="9.484725279133723"><ele>62.0</ele><time>2026-03-28T11:41:50.999Z</time></trkpt><trkpt lat="40.84001225381688" lon="9.485057418012133"><ele>62.0</ele><time>2026-03-28T11:41:51.999Z</time></trkpt><trkpt lat="40.84003838100265" lon="9.485375480185315"><ele>62.0</ele><time>2026-03-28T11:41:52.999Z</time></trkpt><trkpt lat="40.840063973488334" lon="9.485705364487519"><ele>62.5</ele><time>2026-03-28T11:41:53.999Z</time></trkpt><trkpt lat="40.84008647525697" lon="9.48603028635673"><ele>63.0</ele><time>2026-03-28T11:41:54.999Z</time></trkpt><trkpt lat="40.840106415515336" lon="9.486331626626695"><ele>62.33333333333333</ele><time>2026-03-28T11:41:55.999Z</time></trkpt><trkpt lat="40.84013288962299" lon="9.486609568427102"><ele>61.666666666666664</ele><time>2026-03-28T11:41:56.999Z</time></trkpt><trkpt lat="40.84015793577447" lon="9.486877454014135"><ele>61.0</ele><time>2026-03-28T11:41:57.999Z</time></trkpt><trkpt lat="40.840179273642434" lon="9.487157634588346"><ele>60.666666666666664</ele><time>2026-03-28T11:41:58.999Z</time></trkpt><trkpt lat="40.84020380246373" lon="9.487422898695232"><ele>60.33333333333333</ele><time>2026-03-28T11:41:59.999Z</time></trkpt><trkpt lat="40.84024003832995" lon="9.487673273614229"><ele>60.0</ele><time>2026-03-28T11:42:00.999Z</time></trkpt><trkpt lat="40.84030938450213" lon="9.487903716701847"><ele>60.0</ele><time>2026-03-28T11:42:01.999Z</time></trkpt><trkpt lat="40.84041537916933" lon="9.48809682193339"><ele>60.0</ele><time>2026-03-28T11:42:02.999Z</time></trkpt><trkpt lat="40.84054976981771" lon="9.488266278781673"><ele>60.0</ele><time>2026-03-28T11:42:03.999Z</time></trkpt><trkpt lat="40.84072587642145" lon="9.48844298599925"><ele>60.0</ele><time>2026-03-28T11:42:04.999Z</time></trkpt><trkpt lat="40.840921084317806" lon="9.48861326260673"><ele>60.0</ele><time>2026-03-28T11:42:05.999Z</time></trkpt><trkpt lat="40.84112773119424" lon="9.488797440303259"><ele>60.5</ele><time>2026-03-28T11:42:06.999Z</time></trkpt><trkpt lat="40.84134156719103" lon="9.488996463959086"><ele>61.0</ele><time>2026-03-28T11:42:07.999Z</time></trkpt><trkpt lat="40.841544005813475" lon="9.489192913746182"><ele>61.0</ele><time>2026-03-28T11:42:08.999Z</time></trkpt><trkpt lat="40.84172459179705" lon="9.489364221979153"><ele>61.0</ele><time>2026-03-28T11:42:09.999Z</time></trkpt><trkpt lat="40.84189925998546" lon="9.489526463487955"><ele>61.0</ele><time>2026-03-28T11:42:11Z</time></trkpt><trkpt lat="40.842078908738586" lon="9.48969085261013"><ele>62.0</ele><time>2026-03-28T11:42:12Z</time></trkpt><trkpt lat="40.84227763705362" lon="9.489841603268998"><ele>63.0</ele><time>2026-03-28T11:42:13Z</time></trkpt><trkpt lat="40.84250291448575" lon="9.4899654984025"><ele>67.5</ele><time>2026-03-28T11:42:14Z</time></trkpt><trkpt lat="40.84272776068431" lon="9.490073544008052"><ele>72.0</ele><time>2026-03-28T11:42:15Z</time></trkpt><trkpt lat="40.84293026241528" lon="9.490172869309413"><ele>72.0</ele><time>2026-03-28T11:42:16Z</time></trkpt><trkpt lat="40.84311530170704" lon="9.490265144515137"><ele>72.0</ele><time>2026-03-28T11:42:17Z</time></trkpt><trkpt lat="40.84330520993493" lon="9.49035329993857"><ele>72.0</ele><time>2026-03-28T11:42:18Z</time></trkpt><trkpt lat="40.84347984409006" lon="9.490446685897526"><ele>73.66666666666667</ele><time>2026-03-28T11:42:19Z</time></trkpt><trkpt lat="40.843626512730076" lon="9.490551491728384"><ele>75.33333333333334</ele><time>2026-03-28T11:42:20Z</time></trkpt><trkpt lat="40.84375255917235" lon="9.490665118107776"><ele>77.0</ele><time>2026-03-28T11:42:21Z</time></trkpt><trkpt lat="40.843844576660466" lon="9.49080489094947"><ele>77.0</ele><time>2026-03-28T11:42:22Z</time></trkpt><trkpt lat="40.84390678631195" lon="9.490965985576834"><ele>77.0</ele><time>2026-03-28T11:42:23Z</time></trkpt><trkpt lat="40.84393461185672" lon="9.491146871964952"><ele>77.0</ele><time>2026-03-28T11:42:24Z</time></trkpt><trkpt lat="40.84395632303817" lon="9.491360490104789"><ele>77.0</ele><time>2026-03-28T11:42:25Z</time></trkpt><trkpt lat="40.843991888810386" lon="9.491578882542235"><ele>77.66666666666667</ele><time>2026-03-28T11:42:26Z</time></trkpt><trkpt lat="40.84403694781458" lon="9.491800075141677"><ele>78.33333333333333</ele><time>2026-03-28T11:42:27Z</time></trkpt><trkpt lat="40.84408291808908" lon="9.49202384477786"><ele>79.0</ele><time>2026-03-28T11:42:28Z</time></trkpt><trkpt lat="40.84413265240757" lon="9.492242704888657"><ele>79.0</ele><time>2026-03-28T11:42:29Z</time></trkpt><trkpt lat="40.84417397213164" lon="9.492439399901798"><ele>79.0</ele><time>2026-03-28T11:42:30Z</time></trkpt><trkpt lat="40.844213166287204" lon="9.492630898781126"><ele>79.0</ele><time>2026-03-28T11:42:31Z</time></trkpt><trkpt lat="40.84425258997527" lon="9.49282039976731"><ele>80.0</ele><time>2026-03-28T11:42:32Z</time></trkpt><trkpt lat="40.84429084462947" lon="9.493016470405124"><ele>81.0</ele><time>2026-03-28T11:42:33Z</time></trkpt><trkpt lat="40.844329155179096" lon="9.493205288462487"><ele>82.0</ele><time>2026-03-28T11:42:34Z</time></trkpt><trkpt lat="40.84436055469374" lon="9.493373859541117"><ele>83.0</ele><time>2026-03-28T11:42:35Z</time></trkpt><trkpt lat="40.84439373280642" lon="9.493519273978137"><ele>84.2</ele><time>2026-03-28T11:42:36Z</time></trkpt><trkpt lat="40.84442495833083" lon="9.493626500830397"><ele>85.4</ele><time>2026-03-28T11:42:37Z</time></trkpt><trkpt lat="40.84446163110469" lon="9.493726105294442"><ele>86.60000000000001</ele><time>2026-03-28T11:42:38Z</time></trkpt><trkpt lat="40.84449530872202" lon="9.493802178102843"><ele>87.80000000000001</ele><time>2026-03-28T11:42:39Z</time></trkpt><trkpt lat="40.84456630868398" lon="9.493903688697465"><ele>89.0</ele><time>2026-03-28T11:42:41Z</time></trkpt><trkpt lat="40.84466111519994" lon="9.494011956825258"><ele>89.0</ele><time>2026-03-28T11:42:43Z</time></trkpt><trkpt lat="40.84475548152202" lon="9.494079125903669"><ele>89.0</ele><time>2026-03-28T11:42:45Z</time></trkpt><trkpt lat="40.844839857167095" lon="9.494140801100206"><ele>89.0</ele><time>2026-03-28T11:42:47Z</time></trkpt><trkpt lat="40.84492730963451" lon="9.494210766654913"><ele>89.0</ele><time>2026-03-28T11:42:49Z</time></trkpt><trkpt lat="40.84498794787269" lon="9.494267190874968"><ele>89.0</ele><time>2026-03-28T11:42:51Z</time></trkpt><trkpt lat="40.845044662247574" lon="9.494320436124642"><ele>89.0</ele><time>2026-03-28T11:42:54Z</time></trkpt><trkpt lat="40.845107505699055" lon="9.49437428598468"><ele>89.0</ele><time>2026-03-28T11:42:59Z</time></trkpt><trkpt lat="40.84508303792446" lon="9.494486277343183"><ele>89.0</ele><time>2026-03-28T11:43:02Z</time></trkpt><trkpt lat="40.84499628649737" lon="9.4946324637309"><ele>89.0</ele><time>2026-03-28T11:43:04Z</time></trkpt><trkpt lat="40.84492768907613" lon="9.49476327788212"><ele>89.0</ele><time>2026-03-28T11:43:05Z</time></trkpt><trkpt lat="40.84485140170895" lon="9.494919379451336"><ele>88.75</ele><time>2026-03-28T11:43:06Z</time></trkpt><trkpt lat="40.844779589330486" lon="9.495059721007818"><ele>88.5</ele><time>2026-03-28T11:43:07Z</time></trkpt><trkpt lat="40.84471195135341" lon="9.495192787370513"><ele>88.25</ele><time>2026-03-28T11:43:08Z</time></trkpt><trkpt lat="40.84463983488841" lon="9.495330391599904"><ele>88.0</ele><time>2026-03-28T11:43:09Z</time></trkpt><trkpt lat="40.84455636840022" lon="9.495478224654835"><ele>88.0</ele><time>2026-03-28T11:43:10Z</time></trkpt><trkpt lat="40.844471338059115" lon="9.495609874476239"><ele>88.0</ele><time>2026-03-28T11:43:11Z</time></trkpt><trkpt lat="40.844383545047506" lon="9.495709811419546"><ele>88.0</ele><time>2026-03-28T11:43:12Z</time></trkpt><trkpt lat="40.844282055112366" lon="9.495761132365978"><ele>88.0</ele><time>2026-03-28T11:43:13Z</time></trkpt><trkpt lat="40.84414496159637" lon="9.495796022612533"><ele>85.75</ele><time>2026-03-28T11:43:14Z</time></trkpt><trkpt lat="40.84398717733323" lon="9.49583521729137"><ele>83.5</ele><time>2026-03-28T11:43:15Z</time></trkpt><trkpt lat="40.84384798113155" lon="9.495882211429223"><ele>81.25</ele><time>2026-03-28T11:43:16Z</time></trkpt><trkpt lat="40.843729793869095" lon="9.495946257925427"><ele>79.0</ele><time>2026-03-28T11:43:17Z</time></trkpt><trkpt lat="40.84363503545299" lon="9.496040202834442"><ele>79.0</ele><time>2026-03-28T11:43:18Z</time></trkpt><trkpt lat="40.84355083726758" lon="9.496184330734428"><ele>79.0</ele><time>2026-03-28T11:43:19Z</time></trkpt><trkpt lat="40.843479348159306" lon="9.496369786345694"><ele>79.0</ele><time>2026-03-28T11:43:20Z</time></trkpt><trkpt lat="40.84340783822577" lon="9.496561160743124"><ele>78.75</ele><time>2026-03-28T11:43:21Z</time></trkpt><trkpt lat="40.84333762563936" lon="9.496727094428303"><ele>78.5</ele><time>2026-03-28T11:43:22Z</time></trkpt><trkpt lat="40.84325491728024" lon="9.496869224437209"><ele>78.25</ele><time>2026-03-28T11:43:23Z</time></trkpt><trkpt lat="40.8431431999811" lon="9.497004134121608"><ele>78.0</ele><time>2026-03-28T11:43:24Z</time></trkpt><trkpt lat="40.843012201580976" lon="9.497148414938819"><ele>79.33333333333333</ele><time>2026-03-28T11:43:25Z</time></trkpt><trkpt lat="40.84287853433261" lon="9.497293664860882"><ele>80.66666666666666</ele><time>2026-03-28T11:43:26Z</time></trkpt><trkpt lat="40.842761648440025" lon="9.49742613785941"><ele>82.0</ele><time>2026-03-28T11:43:27Z</time></trkpt><trkpt lat="40.84265318634045" lon="9.497553971732088"><ele>81.66666666666666</ele><time>2026-03-28T11:43:28Z</time></trkpt><trkpt lat="40.84253440186" lon="9.497693845797695"><ele>81.33333333333333</ele><time>2026-03-28T11:43:29Z</time></trkpt><trkpt lat="40.842406104919824" lon="9.497839974387468"><ele>81.0</ele><time>2026-03-28T11:43:30Z</time></trkpt><trkpt lat="40.842258349220074" lon="9.498005440452618"><ele>82.66666666666667</ele><time>2026-03-28T11:43:31Z</time></trkpt><trkpt lat="40.842133009594946" lon="9.498128068216069"><ele>84.33333333333334</ele><time>2026-03-28T11:43:32Z</time></trkpt><trkpt lat="40.841992844932435" lon="9.498263441711103"><ele>86.0</ele><time>2026-03-28T11:43:33Z</time></trkpt><trkpt lat="40.84184340513102" lon="9.498396769005161"><ele>86.33333333333334</ele><time>2026-03-28T11:43:34Z</time></trkpt><trkpt lat="40.84168989038204" lon="9.498527413217204"><ele>86.66666666666667</ele><time>2026-03-28T11:43:35Z</time></trkpt><trkpt lat="40.84153370389483" lon="9.498660813098097"><ele>87.0</ele><time>2026-03-28T11:43:36Z</time></trkpt><trkpt lat="40.84136304064787" lon="9.498808536246242"><ele>87.0</ele><time>2026-03-28T11:43:37Z</time></trkpt><trkpt lat="40.841180410376545" lon="9.498969299104186"><ele>87.0</ele><time>2026-03-28T11:43:38Z</time></trkpt><trkpt lat="40.84098413050814" lon="9.499142930006258"><ele>86.5</ele><time>2026-03-28T11:43:39Z</time></trkpt><trkpt lat="40.84077976766681" lon="9.499317134963771"><ele>86.0</ele><time>2026-03-28T11:43:40Z</time></trkpt><trkpt lat="40.84057508685215" lon="9.499491987133531"><ele>89.0</ele><time>2026-03-28T11:43:41Z</time></trkpt><trkpt lat="40.84036192630526" lon="9.499669373776221"><ele>92.0</ele><time>2026-03-28T11:43:42Z</time></trkpt><trkpt lat="40.84016377738219" lon="9.499834490949736"><ele>91.0</ele><time>2026-03-28T11:43:43Z</time></trkpt><trkpt lat="40.83997697542988" lon="9.499992369424469"><ele>90.0</ele><time>2026-03-28T11:43:44Z</time></trkpt><trkpt lat="40.839787078794956" lon="9.500150406675901"><ele>89.0</ele><time>2026-03-28T11:43:45Z</time></trkpt><trkpt lat="40.83958863680885" lon="9.500312165158626"><ele>90.5</ele><time>2026-03-28T11:43:46Z</time></trkpt><trkpt lat="40.839373722455264" lon="9.500482809598958"><ele>92.0</ele><time>2026-03-28T11:43:47Z</time></trkpt><trkpt lat="40.839174380279154" lon="9.500646118832247"><ele>92.0</ele><time>2026-03-28T11:43:48Z</time></trkpt><trkpt lat="40.83898979199955" lon="9.500796970256493"><ele>92.0</ele><time>2026-03-28T11:43:49Z</time></trkpt><trkpt lat="40.83881891610439" lon="9.500938712881283"><ele>92.0</ele><time>2026-03-28T11:43:50Z</time></trkpt><trkpt lat="40.83865512593927" lon="9.50107509478392"><ele>92.0</ele><time>2026-03-28T11:43:51Z</time></trkpt><trkpt lat="40.838502166817456" lon="9.501196661186196"><ele>92.0</ele><time>2026-03-28T11:43:52Z</time></trkpt><trkpt lat="40.83833828966669" lon="9.50132601452523"><ele>92.0</ele><time>2026-03-28T11:43:53Z</time></trkpt><trkpt lat="40.838167510921586" lon="9.501453130582506"><ele>93.33333333333334</ele><time>2026-03-28T11:43:54Z</time></trkpt><trkpt lat="40.83801737629002" lon="9.501563884342966"><ele>94.66666666666667</ele><time>2026-03-28T11:43:55Z</time></trkpt><trkpt lat="40.83788480007105" lon="9.501647231758586"><ele>96.0</ele><time>2026-03-28T11:43:56Z</time></trkpt><trkpt lat="40.83775184922305" lon="9.501695770018989"><ele>93.66666666666667</ele><time>2026-03-28T11:43:57Z</time></trkpt><trkpt lat="40.83759793162694" lon="9.501704626559796"><ele>91.33333333333334</ele><time>2026-03-28T11:43:58Z</time></trkpt><trkpt lat="40.83744292596624" lon="9.50167016670835"><ele>89.0</ele><time>2026-03-28T11:43:59Z</time></trkpt><trkpt lat="40.8372957536673" lon="9.501608862518799"><ele>89.0</ele><time>2026-03-28T11:44:00Z</time></trkpt><trkpt lat="40.83716213526841" lon="9.50156395444991"><ele>89.0</ele><time>2026-03-28T11:44:01Z</time></trkpt><trkpt lat="40.83702524724827" lon="9.501566601592375"><ele>89.0</ele><time>2026-03-28T11:44:02Z</time></trkpt><trkpt lat="40.83689374147987" lon="9.50162670677405"><ele>89.0</ele><time>2026-03-28T11:44:03Z</time></trkpt><trkpt lat="40.836756110588695" lon="9.501745856413498"><ele>87.33333333333334</ele><time>2026-03-28T11:44:04Z</time></trkpt><trkpt lat="40.83662218678756" lon="9.501912042002234"><ele>85.66666666666667</ele><time>2026-03-28T11:44:04.999Z</time></trkpt><trkpt lat="40.83649861192229" lon="9.502091287627369"><ele>84.0</ele><time>2026-03-28T11:44:05.999Z</time></trkpt><trkpt lat="40.8363952317211" lon="9.50225965985156"><ele>82.66666666666667</ele><time>2026-03-28T11:44:06.999Z</time></trkpt><trkpt lat="40.83632054370115" lon="9.502428571629043"><ele>81.33333333333334</ele><time>2026-03-28T11:44:07.999Z</time></trkpt><trkpt lat="40.836265375617174" lon="9.50264237552316"><ele>80.0</ele><time>2026-03-28T11:44:08.999Z</time></trkpt><trkpt lat="40.83621576317253" lon="9.502852866052745"><ele>78.66666666666667</ele><time>2026-03-28T11:44:09.999Z</time></trkpt><trkpt lat="40.83622244556915" lon="9.503067363613663"><ele>77.33333333333333</ele><time>2026-03-28T11:44:10.999Z</time></trkpt><trkpt lat="40.836264951637645" lon="9.503240636218171"><ele>76.0</ele><time>2026-03-28T11:44:11.999Z</time></trkpt><trkpt lat="40.836308015569834" lon="9.503482359723904"><ele>74.5</ele><time>2026-03-28T11:44:12.999Z</time></trkpt><trkpt lat="40.836390082776255" lon="9.503780359661514"><ele>73.0</ele><time>2026-03-28T11:44:13.999Z</time></trkpt><trkpt lat="40.83648950869723" lon="9.504071160373337"><ele>73.0</ele><time>2026-03-28T11:44:14.999Z</time></trkpt><trkpt lat="40.836589159571226" lon="9.504387522793598"><ele>73.0</ele><time>2026-03-28T11:44:15.999Z</time></trkpt><trkpt lat="40.836688296752726" lon="9.50471207843251"><ele>71.0</ele><time>2026-03-28T11:44:17Z</time></trkpt><trkpt lat="40.83677865707479" lon="9.505022831244272"><ele>69.0</ele><time>2026-03-28T11:44:18Z</time></trkpt><trkpt lat="40.836860438489765" lon="9.50530970922093"><ele>69.66666666666667</ele><time>2026-03-28T11:44:19Z</time></trkpt><trkpt lat="40.83693421640815" lon="9.505581418536881"><ele>70.33333333333334</ele><time>2026-03-28T11:44:20Z</time></trkpt><trkpt lat="40.8369941002655" lon="9.505854250159986"><ele>71.0</ele><time>2026-03-28T11:44:21Z</time></trkpt><trkpt lat="40.83703511756704" lon="9.506129783397562"><ele>69.33333333333334</ele><time>2026-03-28T11:44:22Z</time></trkpt><trkpt lat="40.83706874040508" lon="9.506387879120746"><ele>67.66666666666667</ele><time>2026-03-28T11:44:23Z</time></trkpt><trkpt lat="40.83712005435258" lon="9.506621761902062"><ele>66.0</ele><time>2026-03-28T11:44:24Z</time></trkpt><trkpt lat="40.837186202730024" lon="9.506830069087343"><ele>67.5</ele><time>2026-03-28T11:44:25Z</time></trkpt><trkpt lat="40.83731071133974" lon="9.507117401701569"><ele>69.0</ele><time>2026-03-28T11:44:26Z</time></trkpt><trkpt lat="40.837444395203" lon="9.507377448293054"><ele>69.0</ele><time>2026-03-28T11:44:27Z</time></trkpt><trkpt lat="40.837556022266696" lon="9.507629757060373"><ele>69.0</ele><time>2026-03-28T11:44:28Z</time></trkpt><trkpt lat="40.83765188772863" lon="9.507892805060873"><ele>69.0</ele><time>2026-03-28T11:44:29Z</time></trkpt><trkpt lat="40.83774242418676" lon="9.508153366469793"><ele>67.33333333333333</ele><time>2026-03-28T11:44:30Z</time></trkpt><trkpt lat="40.83782175392767" lon="9.508395152626004"><ele>65.66666666666666</ele><time>2026-03-28T11:44:31Z</time></trkpt><trkpt lat="40.83789111379207" lon="9.508638968944465"><ele>64.0</ele><time>2026-03-28T11:44:32Z</time></trkpt><trkpt lat="40.83794098456416" lon="9.508934845380955"><ele>64.0</ele><time>2026-03-28T11:44:33Z</time></trkpt><trkpt lat="40.83798035230759" lon="9.509257961766286"><ele>64.0</ele><time>2026-03-28T11:44:34Z</time></trkpt><trkpt lat="40.83801882056746" lon="9.509572784039168"><ele>64.0</ele><time>2026-03-28T11:44:35Z</time></trkpt><trkpt lat="40.83805180610907" lon="9.509846966127792"><ele>64.0</ele><time>2026-03-28T11:44:36Z</time></trkpt><trkpt lat="40.83806863086984" lon="9.510114681323353"><ele>64.0</ele><time>2026-03-28T11:44:37Z</time></trkpt><trkpt lat="40.83806308178332" lon="9.510394363664815"><ele>65.0</ele><time>2026-03-28T11:44:38Z</time></trkpt><trkpt lat="40.838031054229305" lon="9.510663172588274"><ele>66.0</ele><time>2026-03-28T11:44:39Z</time></trkpt><trkpt lat="40.837957975784384" lon="9.51094211353215"><ele>67.0</ele><time>2026-03-28T11:44:40Z</time></trkpt><trkpt lat="40.837913290270976" lon="9.511202426880034"><ele>67.66666666666666</ele><time>2026-03-28T11:44:41Z</time></trkpt><trkpt lat="40.83785075832258" lon="9.511417456555069"><ele>68.33333333333333</ele><time>2026-03-28T11:44:42Z</time></trkpt><trkpt lat="40.83779010630721" lon="9.511612880186231"><ele>69.0</ele><time>2026-03-28T11:44:43Z</time></trkpt><trkpt lat="40.837733453619805" lon="9.511775015190716"><ele>69.0</ele><time>2026-03-28T11:44:44Z</time></trkpt><trkpt lat="40.837670426863504" lon="9.511920059654061"><ele>69.0</ele><time>2026-03-28T11:44:45Z</time></trkpt><trkpt lat="40.837584988750436" lon="9.512025403395667"><ele>69.0</ele><time>2026-03-28T11:44:46Z</time></trkpt><trkpt lat="40.83751084798454" lon="9.512105408903887"><ele>69.0</ele><time>2026-03-28T11:44:47Z</time></trkpt><trkpt lat="40.83743830206742" lon="9.512174922213426"><ele>69.0</ele><time>2026-03-28T11:44:48Z</time></trkpt><trkpt lat="40.837379540531224" lon="9.512222789246382"><ele>70.25</ele><time>2026-03-28T11:44:49Z</time></trkpt><trkpt lat="40.837309175464405" lon="9.512299038034088"><ele>71.5</ele><time>2026-03-28T11:44:51Z</time></trkpt><trkpt lat="40.837441080247544" lon="9.512455578482522"><ele>72.75</ele><time>2026-03-28T11:44:52Z</time></trkpt><trkpt lat="40.837493068494226" lon="9.512551682084577"><ele>74.0</ele><time>2026-03-28T11:44:53Z</time></trkpt><trkpt lat="40.83758184696144" lon="9.512668667075117"><ele>72.66666666666667</ele><time>2026-03-28T11:44:54Z</time></trkpt><trkpt lat="40.83761469439922" lon="9.512907224358374"><ele>71.33333333333333</ele><time>2026-03-28T11:44:55Z</time></trkpt><trkpt lat="40.83768980860756" lon="9.513138517568457"><ele>70.0</ele><time>2026-03-28T11:44:56Z</time></trkpt><trkpt lat="40.83778545410562" lon="9.513373887176979"><ele>70.0</ele><time>2026-03-28T11:44:57Z</time></trkpt><trkpt lat="40.837901608250974" lon="9.513572004770992"><ele>70.0</ele><time>2026-03-28T11:44:58Z</time></trkpt><trkpt lat="40.83802308488563" lon="9.513734317853466"><ele>70.0</ele><time>2026-03-28T11:44:59Z</time></trkpt><trkpt lat="40.83813103636952" lon="9.51388107257545"><ele>67.5</ele><time>2026-03-28T11:45:00Z</time></trkpt><trkpt lat="40.83819396406483" lon="9.514022507401803"><ele>65.0</ele><time>2026-03-28T11:45:01Z</time></trkpt><trkpt lat="40.83817914847574" lon="9.51417859186201"><ele>62.5</ele><time>2026-03-28T11:45:02Z</time></trkpt><trkpt lat="40.83816660530794" lon="9.514364631796317"><ele>60.0</ele><time>2026-03-28T11:45:03Z</time></trkpt><trkpt lat="40.83812137409201" lon="9.51457510756681"><ele>57.5</ele><time>2026-03-28T11:45:04Z</time></trkpt><trkpt lat="40.83794043997061" lon="9.514819142052266"><ele>55.0</ele><time>2026-03-28T11:45:05Z</time></trkpt><trkpt lat="40.83783858723408" lon="9.51507362228162"><ele>55.0</ele><time>2026-03-28T11:45:06Z</time></trkpt><trkpt lat="40.837731572323044" lon="9.515342529354655"><ele>55.0</ele><time>2026-03-28T11:45:07Z</time></trkpt><trkpt lat="40.83763001308703" lon="9.515604124214448"><ele>55.666666666666664</ele><time>2026-03-28T11:45:08Z</time></trkpt><trkpt lat="40.837542372398055" lon="9.515840968241429"><ele>56.33333333333333</ele><time>2026-03-28T11:45:09Z</time></trkpt><trkpt lat="40.83747059097493" lon="9.51605247912817"><ele>57.0</ele><time>2026-03-28T11:45:10Z</time></trkpt><trkpt lat="40.83742902082194" lon="9.516250327996941"><ele>58.0</ele><time>2026-03-28T11:45:11Z</time></trkpt><trkpt lat="40.837416268142945" lon="9.516467362196753"><ele>59.0</ele><time>2026-03-28T11:45:12Z</time></trkpt><trkpt lat="40.837424918008665" lon="9.516717739039763"><ele>60.0</ele><time>2026-03-28T11:45:13Z</time></trkpt><trkpt lat="40.837461128779" lon="9.51694657399636"><ele>59.33333333333333</ele><time>2026-03-28T11:45:14Z</time></trkpt><trkpt lat="40.83752780432491" lon="9.517170969907946"><ele>58.666666666666664</ele><time>2026-03-28T11:45:15Z</time></trkpt><trkpt lat="40.837637651032566" lon="9.517408560798131"><ele>58.0</ele><time>2026-03-28T11:45:16Z</time></trkpt><trkpt lat="40.83777404198641" lon="9.517660577297969"><ele>57.5</ele><time>2026-03-28T11:45:17Z</time></trkpt><trkpt lat="40.83791169070552" lon="9.517927295069844"><ele>57.0</ele><time>2026-03-28T11:45:18Z</time></trkpt><trkpt lat="40.83804502336422" lon="9.518205387210996"><ele>57.0</ele><time>2026-03-28T11:45:19Z</time></trkpt><trkpt lat="40.83818254919935" lon="9.518494582873796"><ele>57.0</ele><time>2026-03-28T11:45:20Z</time></trkpt><trkpt lat="40.838324956231894" lon="9.51879183933405"><ele>57.0</ele><time>2026-03-28T11:45:21Z</time></trkpt><trkpt lat="40.838469670333275" lon="9.519092055496241"><ele>57.0</ele><time>2026-03-28T11:45:22Z</time></trkpt><trkpt lat="40.8386062873237" lon="9.519375261127882"><ele>58.5</ele><time>2026-03-28T11:45:23Z</time></trkpt><trkpt lat="40.838732445710214" lon="9.519632525903699"><ele>60.0</ele><time>2026-03-28T11:45:24Z</time></trkpt><trkpt lat="40.8388553839952" lon="9.519881908948351"><ele>60.0</ele><time>2026-03-28T11:45:25Z</time></trkpt><trkpt lat="40.83897574818862" lon="9.520122246755896"><ele>60.0</ele><time>2026-03-28T11:45:26Z</time></trkpt><trkpt lat="40.839082542537255" lon="9.52033184232884"><ele>60.0</ele><time>2026-03-28T11:45:27Z</time></trkpt><trkpt lat="40.83919352560458" lon="9.520520593121574"><ele>61.0</ele><time>2026-03-28T11:45:28Z</time></trkpt><trkpt lat="40.83932130472583" lon="9.520699849762726"><ele>62.0</ele><time>2026-03-28T11:45:29Z</time></trkpt><trkpt lat="40.839479822860234" lon="9.520863942618416"><ele>63.0</ele><time>2026-03-28T11:45:30Z</time></trkpt><trkpt lat="40.83966932506706" lon="9.521024948052935"><ele>63.0</ele><time>2026-03-28T11:45:31Z</time></trkpt><trkpt lat="40.83986973711859" lon="9.521200763535242"><ele>63.0</ele><time>2026-03-28T11:45:32Z</time></trkpt><trkpt lat="40.840069752522076" lon="9.521386681443888"><ele>62.66666666666667</ele><time>2026-03-28T11:45:33Z</time></trkpt><trkpt lat="40.84024387937899" lon="9.521552011520505"><ele>62.333333333333336</ele><time>2026-03-28T11:45:34Z</time></trkpt><trkpt lat="40.84040106278383" lon="9.521717495871288"><ele>62.0</ele><time>2026-03-28T11:45:35Z</time></trkpt><trkpt lat="40.84055440109666" lon="9.521911795479129"><ele>64.0</ele><time>2026-03-28T11:45:36Z</time></trkpt><trkpt lat="40.840703416633886" lon="9.522141240561854"><ele>66.0</ele><time>2026-03-28T11:45:37Z</time></trkpt><trkpt lat="40.84084067478351" lon="9.522401327950895"><ele>66.0</ele><time>2026-03-28T11:45:38Z</time></trkpt><trkpt lat="40.840962768003116" lon="9.522641266151654"><ele>66.0</ele><time>2026-03-28T11:45:39Z</time></trkpt><trkpt lat="40.841075723605144" lon="9.5228534953014"><ele>66.0</ele><time>2026-03-28T11:45:40Z</time></trkpt><trkpt lat="40.84118898357474" lon="9.523062071656264"><ele>64.33333333333333</ele><time>2026-03-28T11:45:41Z</time></trkpt><trkpt lat="40.841298712521144" lon="9.523258967973357"><ele>62.666666666666664</ele><time>2026-03-28T11:45:42Z</time></trkpt><trkpt lat="40.84140621992412" lon="9.523441350785795"><ele>61.0</ele><time>2026-03-28T11:45:43Z</time></trkpt><trkpt lat="40.841522308495776" lon="9.523591253880873"><ele>61.0</ele><time>2026-03-28T11:45:44Z</time></trkpt><trkpt lat="40.841657375096254" lon="9.523688902054456"><ele>61.0</ele><time>2026-03-28T11:45:45Z</time></trkpt><trkpt lat="40.84180206160243" lon="9.523732949769105"><ele>61.0</ele><time>2026-03-28T11:45:46Z</time></trkpt><trkpt lat="40.8419674482775" lon="9.523753034283608"><ele>63.0</ele><time>2026-03-28T11:45:47Z</time></trkpt><trkpt lat="40.842152336830125" lon="9.523763787131395"><ele>65.0</ele><time>2026-03-28T11:45:48Z</time></trkpt><trkpt lat="40.84232918403161" lon="9.523786786460139"><ele>67.0</ele><time>2026-03-28T11:45:49Z</time></trkpt><trkpt lat="40.84247650095788" lon="9.523848959865006"><ele>67.0</ele><time>2026-03-28T11:45:50Z</time></trkpt><trkpt lat="40.842599004083624" lon="9.523959011210854"><ele>67.0</ele><time>2026-03-28T11:45:51Z</time></trkpt><trkpt lat="40.84273721699388" lon="9.524129156554627"><ele>67.0</ele><time>2026-03-28T11:45:52Z</time></trkpt><trkpt lat="40.84287708999245" lon="9.52433573367964"><ele>67.0</ele><time>2026-03-28T11:45:53Z</time></trkpt><trkpt lat="40.843020433697546" lon="9.52457131897322"><ele>67.0</ele><time>2026-03-28T11:45:54Z</time></trkpt><trkpt lat="40.84316759449966" lon="9.52481346015269"><ele>67.0</ele><time>2026-03-28T11:45:55Z</time></trkpt><trkpt lat="40.84330520321951" lon="9.525036608790117"><ele>67.0</ele><time>2026-03-28T11:45:56Z</time></trkpt><trkpt lat="40.84344522748403" lon="9.52525757915657"><ele>67.0</ele><time>2026-03-28T11:45:57Z</time></trkpt><trkpt lat="40.84358102451802" lon="9.525472457701408"><ele>68.0</ele><time>2026-03-28T11:45:58Z</time></trkpt><trkpt lat="40.84370377053854" lon="9.525668926684357"><ele>69.0</ele><time>2026-03-28T11:45:59Z</time></trkpt><trkpt lat="40.84382085779271" lon="9.525859217834514"><ele>70.0</ele><time>2026-03-28T11:46:00Z</time></trkpt><trkpt lat="40.84393190859986" lon="9.526051256440851"><ele>70.33333333333333</ele><time>2026-03-28T11:46:01Z</time></trkpt><trkpt lat="40.84401970034721" lon="9.526236128696342"><ele>70.66666666666667</ele><time>2026-03-28T11:46:02Z</time></trkpt><trkpt lat="40.84409534152102" lon="9.526452914195566"><ele>71.0</ele><time>2026-03-28T11:46:03Z</time></trkpt><trkpt lat="40.84415968117513" lon="9.52670255729033"><ele>71.0</ele><time>2026-03-28T11:46:04Z</time></trkpt><trkpt lat="40.84421863302858" lon="9.526966330139375"><ele>71.0</ele><time>2026-03-28T11:46:05Z</time></trkpt><trkpt lat="40.84428573953572" lon="9.527242193778994"><ele>71.0</ele><time>2026-03-28T11:46:06Z</time></trkpt><trkpt lat="40.844356651051285" lon="9.527521898626192"><ele>66.0</ele><time>2026-03-28T11:46:07Z</time></trkpt><trkpt lat="40.84442933723615" lon="9.527805414782938"><ele>61.0</ele><time>2026-03-28T11:46:08Z</time></trkpt><trkpt lat="40.84450305080005" lon="9.528085749761168"><ele>61.0</ele><time>2026-03-28T11:46:09Z</time></trkpt><trkpt lat="40.844572804574845" lon="9.528364014301767"><ele>61.0</ele><time>2026-03-28T11:46:09.999Z</time></trkpt><trkpt lat="40.84464365643875" lon="9.528642069124304"><ele>61.0</ele><time>2026-03-28T11:46:10.999Z</time></trkpt><trkpt lat="40.84471427448152" lon="9.528917414932495"><ele>62.666666666666664</ele><time>2026-03-28T11:46:11.999Z</time></trkpt><trkpt lat="40.844783161216235" lon="9.52918125778127"><ele>64.33333333333333</ele><time>2026-03-28T11:46:12.999Z</time></trkpt><trkpt lat="40.84484668346963" lon="9.529390647320687"><ele>66.0</ele><time>2026-03-28T11:46:13.999Z</time></trkpt><trkpt lat="40.844897130240426" lon="9.529677436814653"><ele>67.33333333333333</ele><time>2026-03-28T11:46:14.999Z</time></trkpt><trkpt lat="40.84494429198039" lon="9.529946252149635"><ele>68.66666666666666</ele><time>2026-03-28T11:46:15.999Z</time></trkpt><trkpt lat="40.84492859603587" lon="9.530185833648819"><ele>70.0</ele><time>2026-03-28T11:46:16.999Z</time></trkpt><trkpt lat="40.84492195566831" lon="9.530459974898553"><ele>71.66666666666666</ele><time>2026-03-28T11:46:17.999Z</time></trkpt><trkpt lat="40.84491009807142" lon="9.53073640893594"><ele>73.33333333333333</ele><time>2026-03-28T11:46:18.999Z</time></trkpt><trkpt lat="40.84490673199365" lon="9.531024347700184"><ele>75.0</ele><time>2026-03-28T11:46:19.999Z</time></trkpt><trkpt lat="40.84491179413143" lon="9.531283375181598"><ele>78.66666666666667</ele><time>2026-03-28T11:46:20.999Z</time></trkpt><trkpt lat="40.844931809572856" lon="9.531503157334472"><ele>82.33333333333334</ele><time>2026-03-28T11:46:21.999Z</time></trkpt><trkpt lat="40.8449770291855" lon="9.531699530824271"><ele>86.0</ele><time>2026-03-28T11:46:23Z</time></trkpt><trkpt lat="40.84506255658071" lon="9.531883684668209"><ele>86.66666666666667</ele><time>2026-03-28T11:46:24Z</time></trkpt><trkpt lat="40.845174060045515" lon="9.53205716375846"><ele>87.33333333333333</ele><time>2026-03-28T11:46:25Z</time></trkpt><trkpt lat="40.845297725645594" lon="9.532254517557389"><ele>88.0</ele><time>2026-03-28T11:46:26Z</time></trkpt><trkpt lat="40.84539353673356" lon="9.532446045979512"><ele>88.0</ele><time>2026-03-28T11:46:27Z</time></trkpt><trkpt lat="40.84544873073169" lon="9.532635144270204"><ele>88.0</ele><time>2026-03-28T11:46:28Z</time></trkpt><trkpt lat="40.84545654777353" lon="9.532826574771542"><ele>88.0</ele><time>2026-03-28T11:46:29Z</time></trkpt><trkpt lat="40.84541495631716" lon="9.53302335395579"><ele>89.0</ele><time>2026-03-28T11:46:30Z</time></trkpt><trkpt lat="40.84533360018289" lon="9.53320535684638"><ele>90.0</ele><time>2026-03-28T11:46:31Z</time></trkpt><trkpt lat="40.84521752609893" lon="9.533378576613918"><ele>91.0</ele><time>2026-03-28T11:46:32Z</time></trkpt><trkpt lat="40.84508492817881" lon="9.53355879060349"><ele>96.0</ele><time>2026-03-28T11:46:33Z</time></trkpt><trkpt lat="40.84495636098997" lon="9.533762898563603"><ele>101.0</ele><time>2026-03-28T11:46:34Z</time></trkpt><trkpt lat="40.844832037752056" lon="9.534004050538988"><ele>106.0</ele><time>2026-03-28T11:46:35Z</time></trkpt><trkpt lat="40.84471726878264" lon="9.53425095228438"><ele>106.0</ele><time>2026-03-28T11:46:36Z</time></trkpt><trkpt lat="40.8446020166927" lon="9.534526754374212"><ele>106.0</ele><time>2026-03-28T11:46:37Z</time></trkpt><trkpt lat="40.84449466450929" lon="9.534807298431344"><ele>110.33333333333334</ele><time>2026-03-28T11:46:38Z</time></trkpt><trkpt lat="40.84439311841556" lon="9.53508105245316"><ele>114.66666666666666</ele><time>2026-03-28T11:46:39Z</time></trkpt><trkpt lat="40.8443008703885" lon="9.53533951334889"><ele>119.0</ele><time>2026-03-28T11:46:40Z</time></trkpt><trkpt lat="40.84421915735928" lon="9.535629409170554"><ele>125.0</ele><time>2026-03-28T11:46:41Z</time></trkpt><trkpt lat="40.844153409859246" lon="9.535938003567516"><ele>131.0</ele><time>2026-03-28T11:46:42Z</time></trkpt><trkpt lat="40.844100126282726" lon="9.536234851139897"><ele>132.0</ele><time>2026-03-28T11:46:43Z</time></trkpt><trkpt lat="40.84405642373058" lon="9.53649595993611"><ele>133.0</ele><time>2026-03-28T11:46:44Z</time></trkpt><trkpt lat="40.84401047168787" lon="9.536720730768343"><ele>134.0</ele><time>2026-03-28T11:46:45Z</time></trkpt><trkpt lat="40.8439490910105" lon="9.536927553034957"><ele>132.66666666666666</ele><time>2026-03-28T11:46:46Z</time></trkpt><trkpt lat="40.84384982693816" lon="9.537111535085867"><ele>131.33333333333334</ele><time>2026-03-28T11:46:47Z</time></trkpt><trkpt lat="40.84372550474333" lon="9.537263847919522"><ele>130.0</ele><time>2026-03-28T11:46:48Z</time></trkpt><trkpt lat="40.84356695679763" lon="9.537384063700928"><ele>127.66666666666667</ele><time>2026-03-28T11:46:49Z</time></trkpt><trkpt lat="40.84340085816539" lon="9.537502912236594"><ele>125.33333333333334</ele><time>2026-03-28T11:46:50Z</time></trkpt><trkpt lat="40.843251901972856" lon="9.537590530346781"><ele>123.0</ele><time>2026-03-28T11:46:51Z</time></trkpt><trkpt lat="40.84311249834846" lon="9.537636286105718"><ele>123.0</ele><time>2026-03-28T11:46:52Z</time></trkpt><trkpt lat="40.842963624206455" lon="9.537618201360704"><ele>123.0</ele><time>2026-03-28T11:46:53Z</time></trkpt><trkpt lat="40.84279845208833" lon="9.537554683160211"><ele>123.0</ele><time>2026-03-28T11:46:54Z</time></trkpt><trkpt lat="40.84268155006252" lon="9.537491674107057"><ele>123.0</ele><time>2026-03-28T11:46:55Z</time></trkpt><trkpt lat="40.84256350244124" lon="9.537478473520098"><ele>121.0</ele><time>2026-03-28T11:46:56Z</time></trkpt><trkpt lat="40.8424653157286" lon="9.53754001601624"><ele>119.0</ele><time>2026-03-28T11:46:57Z</time></trkpt><trkpt lat="40.84236829448256" lon="9.53766251457391"><ele>117.0</ele><time>2026-03-28T11:46:58Z</time></trkpt><trkpt lat="40.84229167656952" lon="9.537845140437943"><ele>115.0</ele><time>2026-03-28T11:46:59Z</time></trkpt><trkpt lat="40.8422387622518" lon="9.538075445934044"><ele>110.66666666666667</ele><time>2026-03-28T11:47:00Z</time></trkpt><trkpt lat="40.842177168143486" lon="9.538302562779432"><ele>106.33333333333334</ele><time>2026-03-28T11:47:01Z</time></trkpt><trkpt lat="40.84210436153864" lon="9.538506152095984"><ele>102.0</ele><time>2026-03-28T11:47:02Z</time></trkpt><trkpt lat="40.842007948757555" lon="9.538692928097454"><ele>97.33333333333333</ele><time>2026-03-28T11:47:03Z</time></trkpt><trkpt lat="40.84188175461765" lon="9.538854616282414"><ele>92.66666666666666</ele><time>2026-03-28T11:47:04Z</time></trkpt><trkpt lat="40.84171880706239" lon="9.539030549584242"><ele>88.0</ele><time>2026-03-28T11:47:05Z</time></trkpt><trkpt lat="40.841542181878374" lon="9.539244999069222"><ele>88.0</ele><time>2026-03-28T11:47:06Z</time></trkpt><trkpt lat="40.841370527546104" lon="9.53946907537527"><ele>88.0</ele><time>2026-03-28T11:47:07Z</time></trkpt><trkpt lat="40.84121421439194" lon="9.53967563294987"><ele>83.66666666666666</ele><time>2026-03-28T11:47:08Z</time></trkpt><trkpt lat="40.841072357986945" lon="9.539860397796332"><ele>79.33333333333333</ele><time>2026-03-28T11:47:09Z</time></trkpt><trkpt lat="40.84094353258507" lon="9.540024385726035"><ele>75.0</ele><time>2026-03-28T11:47:10Z</time></trkpt><trkpt lat="40.84082235590994" lon="9.540174403996033"><ele>75.0</ele><time>2026-03-28T11:47:11Z</time></trkpt><trkpt lat="40.84071454830996" lon="9.540304673373525"><ele>75.0</ele><time>2026-03-28T11:47:12Z</time></trkpt><trkpt lat="40.84061651899559" lon="9.540407511311992"><ele>75.0</ele><time>2026-03-28T11:47:13Z</time></trkpt><trkpt lat="40.84050882767718" lon="9.540472804121556"><ele>75.0</ele><time>2026-03-28T11:47:14Z</time></trkpt><trkpt lat="40.84036284212583" lon="9.540497812777678"><ele>71.5</ele><time>2026-03-28T11:47:15Z</time></trkpt><trkpt lat="40.84020242382691" lon="9.540493030535062"><ele>68.0</ele><time>2026-03-28T11:47:16Z</time></trkpt><trkpt lat="40.84006666404659" lon="9.540512365595006"><ele>64.5</ele><time>2026-03-28T11:47:17Z</time></trkpt><trkpt lat="40.83995900779142" lon="9.540586172738877"><ele>61.0</ele><time>2026-03-28T11:47:18Z</time></trkpt><trkpt lat="40.839881742924554" lon="9.540716383791192"><ele>61.0</ele><time>2026-03-28T11:47:19Z</time></trkpt><trkpt lat="40.83983899251977" lon="9.540877984873768"><ele>61.0</ele><time>2026-03-28T11:47:20Z</time></trkpt><trkpt lat="40.839841066308324" lon="9.541049630561496"><ele>61.0</ele><time>2026-03-28T11:47:21Z</time></trkpt><trkpt lat="40.83988469627279" lon="9.54122204001982"><ele>61.0</ele><time>2026-03-28T11:47:22Z</time></trkpt><trkpt lat="40.83996556304573" lon="9.541364662171166"><ele>58.33333333333333</ele><time>2026-03-28T11:47:23Z</time></trkpt><trkpt lat="40.84009063861987" lon="9.541485152512298"><ele>55.66666666666667</ele><time>2026-03-28T11:47:24Z</time></trkpt><trkpt lat="40.8402571272713" lon="9.54159147357199"><ele>53.0</ele><time>2026-03-28T11:47:25Z</time></trkpt><trkpt lat="40.84045757934891" lon="9.541698542429955"><ele>53.0</ele><time>2026-03-28T11:47:26Z</time></trkpt><trkpt lat="40.840675932975024" lon="9.541815453720153"><ele>53.0</ele><time>2026-03-28T11:47:27Z</time></trkpt><trkpt lat="40.840902893149654" lon="9.541957229992088"><ele>51.5</ele><time>2026-03-28T11:47:28Z</time></trkpt><trkpt lat="40.84113519558923" lon="9.542122445568808"><ele>50.0</ele><time>2026-03-28T11:47:29Z</time></trkpt><trkpt lat="40.84137908972826" lon="9.542314225963805"><ele>50.0</ele><time>2026-03-28T11:47:30Z</time></trkpt><trkpt lat="40.84160623095128" lon="9.542509860155226"><ele>50.0</ele><time>2026-03-28T11:47:31Z</time></trkpt><trkpt lat="40.841800107486996" lon="9.542684060676322"><ele>51.333333333333336</ele><time>2026-03-28T11:47:32Z</time></trkpt><trkpt lat="40.84198278235707" lon="9.542846024807329"><ele>52.66666666666667</ele><time>2026-03-28T11:47:33Z</time></trkpt><trkpt lat="40.842159108735615" lon="9.54299821225303"><ele>54.0</ele><time>2026-03-28T11:47:34Z</time></trkpt><trkpt lat="40.8423364024709" lon="9.543163797101634"><ele>54.0</ele><time>2026-03-28T11:47:35Z</time></trkpt><trkpt lat="40.84247026464517" lon="9.543331253512685"><ele>54.0</ele><time>2026-03-28T11:47:36Z</time></trkpt><trkpt lat="40.84260862777654" lon="9.543539758792399"><ele>54.0</ele><time>2026-03-28T11:47:37Z</time></trkpt><trkpt lat="40.84273447267902" lon="9.543783781404825"><ele>52.5</ele><time>2026-03-28T11:47:38Z</time></trkpt><trkpt lat="40.842868321231414" lon="9.544049903776324"><ele>51.0</ele><time>2026-03-28T11:47:39Z</time></trkpt><trkpt lat="40.84300710941257" lon="9.54431946436464"><ele>47.0</ele><time>2026-03-28T11:47:40Z</time></trkpt><trkpt lat="40.84315773122266" lon="9.54460095377569"><ele>43.0</ele><time>2026-03-28T11:47:41Z</time></trkpt><trkpt lat="40.843316309749575" lon="9.544888434767813"><ele>43.5</ele><time>2026-03-28T11:47:42Z</time></trkpt><trkpt lat="40.843484971264274" lon="9.545190572771268"><ele>44.0</ele><time>2026-03-28T11:47:43Z</time></trkpt><trkpt lat="40.843657053648236" lon="9.545511988269471"><ele>42.5</ele><time>2026-03-28T11:47:44Z</time></trkpt><trkpt lat="40.84382887757343" lon="9.545831220023215"><ele>41.0</ele><time>2026-03-28T11:47:45Z</time></trkpt><trkpt lat="40.844000996552914" lon="9.546150439063867"><ele>39.5</ele><time>2026-03-28T11:47:46Z</time></trkpt><trkpt lat="40.8441706929002" lon="9.546468969779736"><ele>38.0</ele><time>2026-03-28T11:47:47Z</time></trkpt><trkpt lat="40.84432488098179" lon="9.546764411100702"><ele>37.0</ele><time>2026-03-28T11:47:48Z</time></trkpt><trkpt lat="40.8444695168802" lon="9.547044061740392"><ele>36.0</ele><time>2026-03-28T11:47:49Z</time></trkpt><trkpt lat="40.84461817168552" lon="9.547322467417649"><ele>36.0</ele><time>2026-03-28T11:47:50Z</time></trkpt><trkpt lat="40.84476914162032" lon="9.547603726993593"><ele>36.0</ele><time>2026-03-28T11:47:51Z</time></trkpt><trkpt lat="40.844919240946574" lon="9.547880332117424"><ele>34.5</ele><time>2026-03-28T11:47:52Z</time></trkpt><trkpt lat="40.845060563194" lon="9.548146364351725"><ele>33.0</ele><time>2026-03-28T11:47:52.999Z</time></trkpt><trkpt lat="40.84520039916293" lon="9.54840635173915"><ele>32.0</ele><time>2026-03-28T11:47:53.999Z</time></trkpt><trkpt lat="40.845337880986044" lon="9.548656455180485"><ele>31.0</ele><time>2026-03-28T11:47:54.999Z</time></trkpt><trkpt lat="40.84547548657872" lon="9.548889850025516"><ele>30.333333333333336</ele><time>2026-03-28T11:47:55.999Z</time></trkpt><trkpt lat="40.845625586899956" lon="9.549101946258036"><ele>29.666666666666664</ele><time>2026-03-28T11:47:56.999Z</time></trkpt><trkpt lat="40.845779796434705" lon="9.549272501122479"><ele>29.0</ele><time>2026-03-28T11:47:57.999Z</time></trkpt><trkpt lat="40.845938460909125" lon="9.549424558243826"><ele>28.333333333333332</ele><time>2026-03-28T11:47:58.999Z</time></trkpt><trkpt lat="40.84610414731173" lon="9.549553943061499"><ele>27.666666666666664</ele><time>2026-03-28T11:47:59.999Z</time></trkpt><trkpt lat="40.84626744951786" lon="9.54966338967935"><ele>27.0</ele><time>2026-03-28T11:48:00.999Z</time></trkpt><trkpt lat="40.84645473887036" lon="9.549754135549142"><ele>27.0</ele><time>2026-03-28T11:48:01.999Z</time></trkpt><trkpt lat="40.846662184824986" lon="9.54980054776223"><ele>27.0</ele><time>2026-03-28T11:48:02.999Z</time></trkpt><trkpt lat="40.846891080222285" lon="9.549821462087923"><ele>27.0</ele><time>2026-03-28T11:48:03.999Z</time></trkpt><trkpt lat="40.84714231644662" lon="9.549800104825342"><ele>27.0</ele><time>2026-03-28T11:48:04.999Z</time></trkpt><trkpt lat="40.84740684692676" lon="9.54975504522013"><ele>27.0</ele><time>2026-03-28T11:48:05.999Z</time></trkpt><trkpt lat="40.84766881713348" lon="9.549721849356992"><ele>27.0</ele><time>2026-03-28T11:48:06.999Z</time></trkpt><trkpt lat="40.84794177236727" lon="9.549677127459557"><ele>27.0</ele><time>2026-03-28T11:48:07.999Z</time></trkpt><trkpt lat="40.84820861504462" lon="9.549625509095984"><ele>27.0</ele><time>2026-03-28T11:48:08.999Z</time></trkpt><trkpt lat="40.848454145416866" lon="9.549567533549267"><ele>27.0</ele><time>2026-03-28T11:48:09.999Z</time></trkpt><trkpt lat="40.84868702058191" lon="9.549504120618172"><ele>27.0</ele><time>2026-03-28T11:48:10.999Z</time></trkpt><trkpt lat="40.84890769479072" lon="9.54942921891471"><ele>27.0</ele><time>2026-03-28T11:48:11.999Z</time></trkpt><trkpt lat="40.84912073747698" lon="9.549315556703412"><ele>26.5</ele><time>2026-03-28T11:48:12.999Z</time></trkpt><trkpt lat="40.84933513880655" lon="9.54915275916909"><ele>26.0</ele><time>2026-03-28T11:48:13.999Z</time></trkpt><trkpt lat="40.849555300771065" lon="9.54896550995855"><ele>26.0</ele><time>2026-03-28T11:48:14.999Z</time></trkpt><trkpt lat="40.84978166129196" lon="9.54877618378792"><ele>26.0</ele><time>2026-03-28T11:48:15.999Z</time></trkpt><trkpt lat="40.85001432320716" lon="9.548586962166173"><ele>26.5</ele><time>2026-03-28T11:48:16.999Z</time></trkpt><trkpt lat="40.850251742651004" lon="9.548397148852702"><ele>27.0</ele><time>2026-03-28T11:48:17.999Z</time></trkpt><trkpt lat="40.850489894937446" lon="9.548211809037072"><ele>27.0</ele><time>2026-03-28T11:48:18.999Z</time></trkpt><trkpt lat="40.85073033805275" lon="9.548029924178449"><ele>27.0</ele><time>2026-03-28T11:48:19.999Z</time></trkpt><trkpt lat="40.85097248689881" lon="9.547856844912854"><ele>27.0</ele><time>2026-03-28T11:48:20.999Z</time></trkpt><trkpt lat="40.851213147625955" lon="9.547695733300404"><ele>27.0</ele><time>2026-03-28T11:48:21.999Z</time></trkpt><trkpt lat="40.851441074775835" lon="9.547551886543102"><ele>27.0</ele><time>2026-03-28T11:48:22.999Z</time></trkpt><trkpt lat="40.851664222296336" lon="9.547413592556598"><ele>27.0</ele><time>2026-03-28T11:48:23.999Z</time></trkpt><trkpt lat="40.851888041971094" lon="9.547281240749838"><ele>27.0</ele><time>2026-03-28T11:48:24.999Z</time></trkpt><trkpt lat="40.85212430271551" lon="9.547160305782594"><ele>27.0</ele><time>2026-03-28T11:48:25.999Z</time></trkpt><trkpt lat="40.852372952411706" lon="9.54704595664817"><ele>27.5</ele><time>2026-03-28T11:48:26.999Z</time></trkpt><trkpt lat="40.85260276906286" lon="9.54693823904776"><ele>28.0</ele><time>2026-03-28T11:48:27.999Z</time></trkpt><trkpt lat="40.85280897725757" lon="9.546825836386818"><ele>27.333333333333336</ele><time>2026-03-28T11:48:29Z</time></trkpt><trkpt lat="40.85299519693444" lon="9.54670747092037"><ele>26.666666666666664</ele><time>2026-03-28T11:48:30Z</time></trkpt><trkpt lat="40.853174964803124" lon="9.54659351830529"><ele>26.0</ele><time>2026-03-28T11:48:31Z</time></trkpt><trkpt lat="40.85335105034963" lon="9.546501036719043"><ele>26.0</ele><time>2026-03-28T11:48:32Z</time></trkpt><trkpt lat="40.85353597380396" lon="9.546424945511458"><ele>26.0</ele><time>2026-03-28T11:48:33Z</time></trkpt><trkpt lat="40.853730563238905" lon="9.546371832690614"><ele>26.0</ele><time>2026-03-28T11:48:34Z</time></trkpt><trkpt lat="40.853928001068816" lon="9.546362484171567"><ele>26.0</ele><time>2026-03-28T11:48:35Z</time></trkpt><trkpt lat="40.85412111371029" lon="9.546404852095643"><ele>26.0</ele><time>2026-03-28T11:48:36Z</time></trkpt><trkpt lat="40.85432911596293" lon="9.54649146008462"><ele>26.0</ele><time>2026-03-28T11:48:37Z</time></trkpt><trkpt lat="40.85455011975319" lon="9.546601380032579"><ele>25.0</ele><time>2026-03-28T11:48:38Z</time></trkpt><trkpt lat="40.85477906863858" lon="9.546710370161676"><ele>24.0</ele><time>2026-03-28T11:48:39Z</time></trkpt><trkpt lat="40.85501128299733" lon="9.546814252540974"><ele>24.5</ele><time>2026-03-28T11:48:40Z</time></trkpt><trkpt lat="40.855259028612004" lon="9.546918494651315"><ele>25.0</ele><time>2026-03-28T11:48:41Z</time></trkpt><trkpt lat="40.855509161034426" lon="9.547023746093103"><ele>24.5</ele><time>2026-03-28T11:48:42Z</time></trkpt><trkpt lat="40.85576319955168" lon="9.547132575412705"><ele>24.0</ele><time>2026-03-28T11:48:43Z</time></trkpt><trkpt lat="40.85600348997193" lon="9.54723707182266"><ele>24.0</ele><time>2026-03-28T11:48:44Z</time></trkpt><trkpt lat="40.8562245934801" lon="9.547331245037938"><ele>24.0</ele><time>2026-03-28T11:48:45Z</time></trkpt><trkpt lat="40.85643184901686" lon="9.547418073207645"><ele>24.0</ele><time>2026-03-28T11:48:46Z</time></trkpt><trkpt lat="40.85662840200038" lon="9.547502477700359"><ele>24.0</ele><time>2026-03-28T11:48:47Z</time></trkpt><trkpt lat="40.85682297059338" lon="9.547572806449457"><ele>24.0</ele><time>2026-03-28T11:48:48Z</time></trkpt><trkpt lat="40.85702963283311" lon="9.54761336839607"><ele>23.0</ele><time>2026-03-28T11:48:49Z</time></trkpt><trkpt lat="40.85724566266805" lon="9.547622563643896"><ele>22.0</ele><time>2026-03-28T11:48:50Z</time></trkpt><trkpt lat="40.857462935435436" lon="9.547615907213723"><ele>21.0</ele><time>2026-03-28T11:48:51Z</time></trkpt><trkpt lat="40.85766617981201" lon="9.54759661068855"><ele>20.666666666666668</ele><time>2026-03-28T11:48:52Z</time></trkpt><trkpt lat="40.857855625469526" lon="9.547575196822534"><ele>20.333333333333336</ele><time>2026-03-28T11:48:53Z</time></trkpt><trkpt lat="40.85803151272337" lon="9.547563089570588"><ele>20.0</ele><time>2026-03-28T11:48:54Z</time></trkpt><trkpt lat="40.85820943262214" lon="9.547576721422601"><ele>20.0</ele><time>2026-03-28T11:48:55Z</time></trkpt><trkpt lat="40.85839055555916" lon="9.547638444287976"><ele>20.0</ele><time>2026-03-28T11:48:56Z</time></trkpt><trkpt lat="40.85858171690247" lon="9.547753396487412"><ele>20.0</ele><time>2026-03-28T11:48:57Z</time></trkpt><trkpt lat="40.85878511962349" lon="9.54789013255503"><ele>19.333333333333336</ele><time>2026-03-28T11:48:58Z</time></trkpt><trkpt lat="40.858976464626366" lon="9.548016570785077"><ele>18.666666666666668</ele><time>2026-03-28T11:48:59Z</time></trkpt><trkpt lat="40.85915509804961" lon="9.548127833094458"><ele>18.0</ele><time>2026-03-28T11:49:00Z</time></trkpt><trkpt lat="40.859349753374794" lon="9.548232518448291"><ele>17.0</ele><time>2026-03-28T11:49:01Z</time></trkpt><trkpt lat="40.859571400862286" lon="9.54833384500294"><ele>16.0</ele><time>2026-03-28T11:49:02Z</time></trkpt><trkpt lat="40.85980149333867" lon="9.548418583736199"><ele>16.0</ele><time>2026-03-28T11:49:03Z</time></trkpt><trkpt lat="40.860015119569205" lon="9.548480415538835"><ele>16.0</ele><time>2026-03-28T11:49:04Z</time></trkpt><trkpt lat="40.860228528452225" lon="9.548510301152527"><ele>16.0</ele><time>2026-03-28T11:49:05Z</time></trkpt><trkpt lat="40.860434206404726" lon="9.548511142817087"><ele>16.0</ele><time>2026-03-28T11:49:06Z</time></trkpt><trkpt lat="40.86062441283363" lon="9.548486195948197"><ele>16.0</ele><time>2026-03-28T11:49:07Z</time></trkpt><trkpt lat="40.860809802962024" lon="9.548434059376396"><ele>16.0</ele><time>2026-03-28T11:49:08Z</time></trkpt><trkpt lat="40.86098107411819" lon="9.54837173075883"><ele>15.666666666666666</ele><time>2026-03-28T11:49:09Z</time></trkpt><trkpt lat="40.861134413943724" lon="9.548344208579948"><ele>15.333333333333332</ele><time>2026-03-28T11:49:10Z</time></trkpt><trkpt lat="40.861285402935344" lon="9.548369000452302"><ele>15.0</ele><time>2026-03-28T11:49:11Z</time></trkpt><trkpt lat="40.861447207394384" lon="9.548450509129186"><ele>15.0</ele><time>2026-03-28T11:49:12Z</time></trkpt><trkpt lat="40.8616255893485" lon="9.548574521198624"><ele>15.0</ele><time>2026-03-28T11:49:13Z</time></trkpt><trkpt lat="40.86181854194797" lon="9.54869327159894"><ele>15.0</ele><time>2026-03-28T11:49:14Z</time></trkpt><trkpt lat="40.862025620733704" lon="9.548781056013116"><ele>17.0</ele><time>2026-03-28T11:49:15Z</time></trkpt><trkpt lat="40.86225667811305" lon="9.548846416901037"><ele>19.0</ele><time>2026-03-28T11:49:16Z</time></trkpt><trkpt lat="40.86248984369039" lon="9.548890054866115"><ele>19.5</ele><time>2026-03-28T11:49:17Z</time></trkpt><trkpt lat="40.86273957122262" lon="9.548918609018449"><ele>20.0</ele><time>2026-03-28T11:49:18Z</time></trkpt><trkpt lat="40.86299603301824" lon="9.548935275898721"><ele>20.0</ele><time>2026-03-28T11:49:19Z</time></trkpt><trkpt lat="40.86325816921488" lon="9.548953159662677"><ele>20.0</ele><time>2026-03-28T11:49:20Z</time></trkpt><trkpt lat="40.863522124506325" lon="9.548975584109797"><ele>20.5</ele><time>2026-03-28T11:49:21Z</time></trkpt><trkpt lat="40.863782664445154" lon="9.548998491163815"><ele>21.0</ele><time>2026-03-28T11:49:22Z</time></trkpt><trkpt lat="40.86404040913613" lon="9.54902568824473"><ele>20.5</ele><time>2026-03-28T11:49:23Z</time></trkpt><trkpt lat="40.864293147565526" lon="9.549055867185615"><ele>20.0</ele><time>2026-03-28T11:49:24Z</time></trkpt><trkpt lat="40.8645508281243" lon="9.549088620061957"><ele>20.0</ele><time>2026-03-28T11:49:25Z</time></trkpt><trkpt lat="40.864804904399776" lon="9.549123632619681"><ele>20.0</ele><time>2026-03-28T11:49:26Z</time></trkpt><trkpt lat="40.865060115399515" lon="9.549160406773463"><ele>21.0</ele><time>2026-03-28T11:49:27Z</time></trkpt><trkpt lat="40.865313697463854" lon="9.54921061526597"><ele>22.0</ele><time>2026-03-28T11:49:28Z</time></trkpt><trkpt lat="40.86556070349867" lon="9.549279287578925"><ele>22.0</ele><time>2026-03-28T11:49:29Z</time></trkpt><trkpt lat="40.865802771328916" lon="9.549362740107092"><ele>22.0</ele><time>2026-03-28T11:49:30Z</time></trkpt><trkpt lat="40.86604582065119" lon="9.549445466153191"><ele>22.0</ele><time>2026-03-28T11:49:31Z</time></trkpt><trkpt lat="40.866297020282296" lon="9.549527680906552"><ele>22.0</ele><time>2026-03-28T11:49:32Z</time></trkpt><trkpt lat="40.86654816120693" lon="9.549614852574148"><ele>22.0</ele><time>2026-03-28T11:49:33Z</time></trkpt><trkpt lat="40.866772056456746" lon="9.549710577508451"><ele>22.0</ele><time>2026-03-28T11:49:34Z</time></trkpt><trkpt lat="40.86700070147182" lon="9.549823849902962"><ele>22.0</ele><time>2026-03-28T11:49:35Z</time></trkpt><trkpt lat="40.86724113291652" lon="9.549961625264638"><ele>22.0</ele><time>2026-03-28T11:49:36Z</time></trkpt><trkpt lat="40.86748685239322" lon="9.550113195695388"><ele>22.0</ele><time>2026-03-28T11:49:37Z</time></trkpt><trkpt lat="40.867739921320364" lon="9.55027350368639"><ele>22.0</ele><time>2026-03-28T11:49:38Z</time></trkpt><trkpt lat="40.867994934989795" lon="9.550442163558817"><ele>23.0</ele><time>2026-03-28T11:49:39Z</time></trkpt><trkpt lat="40.868224557572205" lon="9.550601160580777"><ele>24.0</ele><time>2026-03-28T11:49:40Z</time></trkpt><trkpt lat="40.86843374995618" lon="9.550744927416721"><ele>24.5</ele><time>2026-03-28T11:49:41Z</time></trkpt><trkpt lat="40.86864602622492" lon="9.550886647927939"><ele>25.0</ele><time>2026-03-28T11:49:42Z</time></trkpt><trkpt lat="40.86886189491929" lon="9.551022695749863"><ele>25.0</ele><time>2026-03-28T11:49:43Z</time></trkpt><trkpt lat="40.86908741233952" lon="9.551140294310944"><ele>25.0</ele><time>2026-03-28T11:49:44Z</time></trkpt><trkpt lat="40.86931696214139" lon="9.5512348123318"><ele>25.0</ele><time>2026-03-28T11:49:45Z</time></trkpt><trkpt lat="40.86955857696084" lon="9.551320754603744"><ele>25.0</ele><time>2026-03-28T11:49:46Z</time></trkpt><trkpt lat="40.86979059644868" lon="9.55140494620616"><ele>25.0</ele><time>2026-03-28T11:49:47Z</time></trkpt><trkpt lat="40.87001639603328" lon="9.551489541025386"><ele>25.0</ele><time>2026-03-28T11:49:48Z</time></trkpt><trkpt lat="40.870241182697846" lon="9.551566644344271"><ele>24.5</ele><time>2026-03-28T11:49:49Z</time></trkpt><trkpt lat="40.87047327155672" lon="9.551630917553231"><ele>24.0</ele><time>2026-03-28T11:49:50Z</time></trkpt><trkpt lat="40.87070843554975" lon="9.551677744837708"><ele>22.0</ele><time>2026-03-28T11:49:51Z</time></trkpt><trkpt lat="40.87095908015446" lon="9.551710542475943"><ele>20.0</ele><time>2026-03-28T11:49:52Z</time></trkpt><trkpt lat="40.87121964276769" lon="9.551742803755738"><ele>20.0</ele><time>2026-03-28T11:49:53Z</time></trkpt><trkpt lat="40.87146676443741" lon="9.551772968058211"><ele>20.0</ele><time>2026-03-28T11:49:54Z</time></trkpt><trkpt lat="40.87170420376494" lon="9.551793007858233"><ele>20.5</ele><time>2026-03-28T11:49:55Z</time></trkpt><trkpt lat="40.871954210259354" lon="9.551794306137895"><ele>21.0</ele><time>2026-03-28T11:49:56Z</time></trkpt><trkpt lat="40.87220487370685" lon="9.551782743338492"><ele>21.0</ele><time>2026-03-28T11:49:57Z</time></trkpt><trkpt lat="40.87243821866304" lon="9.55177063630601"><ele>21.0</ele><time>2026-03-28T11:49:58Z</time></trkpt><trkpt lat="40.87265774072158" lon="9.551758888520807"><ele>20.666666666666668</ele><time>2026-03-28T11:49:59Z</time></trkpt><trkpt lat="40.872879026395914" lon="9.551745504476646"><ele>20.333333333333336</ele><time>2026-03-28T11:50:00Z</time></trkpt><trkpt lat="40.87310527447035" lon="9.551736580894849"><ele>20.0</ele><time>2026-03-28T11:50:01Z</time></trkpt><trkpt lat="40.87334150500303" lon="9.551738033946195"><ele>20.0</ele><time>2026-03-28T11:50:02Z</time></trkpt><trkpt lat="40.87358646852301" lon="9.551752233138906"><ele>20.0</ele><time>2026-03-28T11:50:03Z</time></trkpt><trkpt lat="40.87383759663564" lon="9.551794447524015"><ele>20.0</ele><time>2026-03-28T11:50:04Z</time></trkpt><trkpt lat="40.87410392325133" lon="9.551867635291202"><ele>20.0</ele><time>2026-03-28T11:50:05Z</time></trkpt><trkpt lat="40.87437292413875" lon="9.551960933780236"><ele>21.0</ele><time>2026-03-28T11:50:06Z</time></trkpt><trkpt lat="40.87464393747852" lon="9.552064824351"><ele>22.0</ele><time>2026-03-28T11:50:07Z</time></trkpt><trkpt lat="40.8749210605781" lon="9.552174459308604"><ele>22.0</ele><time>2026-03-28T11:50:08Z</time></trkpt><trkpt lat="40.875191419735536" lon="9.552282224106854"><ele>22.0</ele><time>2026-03-28T11:50:09Z</time></trkpt><trkpt lat="40.87545357179034" lon="9.5523880245907"><ele>22.0</ele><time>2026-03-28T11:50:10Z</time></trkpt><trkpt lat="40.87570528901125" lon="9.552488497348344"><ele>22.0</ele><time>2026-03-28T11:50:11Z</time></trkpt><trkpt lat="40.87594616231832" lon="9.552583800505742"><ele>20.5</ele><time>2026-03-28T11:50:12Z</time></trkpt><trkpt lat="40.87617487230608" lon="9.552673866220362"><ele>19.0</ele><time>2026-03-28T11:50:13Z</time></trkpt><trkpt lat="40.876391031358146" lon="9.552756269336113"><ele>19.0</ele><time>2026-03-28T11:50:14Z</time></trkpt><trkpt lat="40.876610031677245" lon="9.552844426200599"><ele>19.0</ele><time>2026-03-28T11:50:15Z</time></trkpt><trkpt lat="40.87683441488062" lon="9.552936152795063"><ele>19.0</ele><time>2026-03-28T11:50:15.999Z</time></trkpt><trkpt lat="40.87705705925607" lon="9.55302898565377"><ele>19.0</ele><time>2026-03-28T11:50:16.999Z</time></trkpt><trkpt lat="40.87728152878884" lon="9.553123134097792"><ele>19.0</ele><time>2026-03-28T11:50:17.999Z</time></trkpt><trkpt lat="40.87750711475677" lon="9.553216248037211"><ele>19.0</ele><time>2026-03-28T11:50:18.999Z</time></trkpt><trkpt lat="40.87773278567145" lon="9.553307129028079"><ele>19.5</ele><time>2026-03-28T11:50:19.999Z</time></trkpt><trkpt lat="40.87797188726314" lon="9.553398633367605"><ele>20.0</ele><time>2026-03-28T11:50:20.999Z</time></trkpt><trkpt lat="40.878220446186546" lon="9.553483485561252"><ele>20.0</ele><time>2026-03-28T11:50:21.999Z</time></trkpt><trkpt lat="40.87845571901576" lon="9.553557280870336"><ele>20.0</ele><time>2026-03-28T11:50:22.999Z</time></trkpt><trkpt lat="40.87867286468061" lon="9.553642022677561"><ele>22.0</ele><time>2026-03-28T11:50:23.999Z</time></trkpt><trkpt lat="40.87889179691302" lon="9.553766548510472"><ele>24.0</ele><time>2026-03-28T11:50:24.999Z</time></trkpt><trkpt lat="40.879108224091034" lon="9.553914670290629"><ele>22.666666666666668</ele><time>2026-03-28T11:50:25.999Z</time></trkpt><trkpt lat="40.87930043899105" lon="9.554042365860614"><ele>21.333333333333336</ele><time>2026-03-28T11:50:26.999Z</time></trkpt><trkpt lat="40.879476925373666" lon="9.554160597625621"><ele>20.0</ele><time>2026-03-28T11:50:27.999Z</time></trkpt><trkpt lat="40.879638229925845" lon="9.554291625005153"><ele>20.0</ele><time>2026-03-28T11:50:28.999Z</time></trkpt><trkpt lat="40.879795363745686" lon="9.554478210749483"><ele>20.0</ele><time>2026-03-28T11:50:29.999Z</time></trkpt><trkpt lat="40.879945875652695" lon="9.55471734527197"><ele>20.0</ele><time>2026-03-28T11:50:30.999Z</time></trkpt><trkpt lat="40.88008992892648" lon="9.554975946213279"><ele>19.5</ele><time>2026-03-28T11:50:31.999Z</time></trkpt><trkpt lat="40.88024462365345" lon="9.555241777788979"><ele>19.0</ele><time>2026-03-28T11:50:32.999Z</time></trkpt><trkpt lat="40.88041028642197" lon="9.555509339498245"><ele>20.5</ele><time>2026-03-28T11:50:33.999Z</time></trkpt><trkpt lat="40.880598213433295" lon="9.555778662149276"><ele>22.0</ele><time>2026-03-28T11:50:35Z</time></trkpt><trkpt lat="40.880798110712924" lon="9.556044693118626"><ele>19.5</ele><time>2026-03-28T11:50:36Z</time></trkpt><trkpt lat="40.88099784608915" lon="9.556299777034413"><ele>17.0</ele><time>2026-03-28T11:50:37Z</time></trkpt><trkpt lat="40.881200025916044" lon="9.55655830822581"><ele>17.0</ele><time>2026-03-28T11:50:38Z</time></trkpt><trkpt lat="40.88138884740151" lon="9.556799495382922"><ele>17.0</ele><time>2026-03-28T11:50:39Z</time></trkpt><trkpt lat="40.88156518589527" lon="9.557024391440367"><ele>17.0</ele><time>2026-03-28T11:50:40Z</time></trkpt><trkpt lat="40.881725623682435" lon="9.557231044322267"><ele>17.0</ele><time>2026-03-28T11:50:41Z</time></trkpt><trkpt lat="40.881886909884926" lon="9.557433343846611"><ele>17.0</ele><time>2026-03-28T11:50:42Z</time></trkpt><trkpt lat="40.8820423583251" lon="9.557628199042963"><ele>17.0</ele><time>2026-03-28T11:50:43Z</time></trkpt><trkpt lat="40.88218850510754" lon="9.557816424370845"><ele>17.0</ele><time>2026-03-28T11:50:44Z</time></trkpt><trkpt lat="40.88232857155416" lon="9.558013333192857"><ele>17.0</ele><time>2026-03-28T11:50:45Z</time></trkpt><trkpt lat="40.88245976811072" lon="9.558247304893325"><ele>17.5</ele><time>2026-03-28T11:50:46Z</time></trkpt><trkpt lat="40.882578206484084" lon="9.558515130335516"><ele>18.0</ele><time>2026-03-28T11:50:47Z</time></trkpt><trkpt lat="40.882690089584344" lon="9.558822733997488"><ele>16.5</ele><time>2026-03-28T11:50:48Z</time></trkpt><trkpt lat="40.88281230740544" lon="9.55912471664197"><ele>15.0</ele><time>2026-03-28T11:50:49Z</time></trkpt><trkpt lat="40.88293740110314" lon="9.559400320250136"><ele>15.333333333333332</ele><time>2026-03-28T11:50:50Z</time></trkpt><trkpt lat="40.88305541708615" lon="9.559636480496392"><ele>15.666666666666666</ele><time>2026-03-28T11:50:51Z</time></trkpt><trkpt lat="40.88316263852835" lon="9.559837160038022"><ele>16.0</ele><time>2026-03-28T11:50:52Z</time></trkpt><trkpt lat="40.88325173580538" lon="9.560009382492673"><ele>16.0</ele><time>2026-03-28T11:50:53Z</time></trkpt><trkpt lat="40.88332467367559" lon="9.560177950459488"><ele>16.0</ele><time>2026-03-28T11:50:54Z</time></trkpt><trkpt lat="40.883370410289494" lon="9.560319229195906"><ele>16.0</ele><time>2026-03-28T11:50:55Z</time></trkpt><trkpt lat="40.883411173065426" lon="9.560433013219411"><ele>16.0</ele><time>2026-03-28T11:50:56Z</time></trkpt><trkpt lat="40.88347199549669" lon="9.560500898873796"><ele>16.0</ele><time>2026-03-28T11:50:57Z</time></trkpt><trkpt lat="40.88357037089326" lon="9.560533240146084"><ele>15.333333333333332</ele><time>2026-03-28T11:50:58Z</time></trkpt><trkpt lat="40.88371808628732" lon="9.560557977993465"><ele>14.666666666666668</ele><time>2026-03-28T11:50:59Z</time></trkpt><trkpt lat="40.88387308655835" lon="9.560611755525478"><ele>14.0</ele><time>2026-03-28T11:51:00Z</time></trkpt><trkpt lat="40.884039903622806" lon="9.560726852064128"><ele>14.0</ele><time>2026-03-28T11:51:01Z</time></trkpt><trkpt lat="40.884231856896825" lon="9.56086771320256"><ele>14.0</ele><time>2026-03-28T11:51:02Z</time></trkpt><trkpt lat="40.8844324463476" lon="9.56100954870891"><ele>14.0</ele><time>2026-03-28T11:51:03Z</time></trkpt><trkpt lat="40.88465153098902" lon="9.56115348531592"><ele>13.0</ele><time>2026-03-28T11:51:04Z</time></trkpt><trkpt lat="40.884876092189245" lon="9.561305197190611"><ele>12.0</ele><time>2026-03-28T11:51:05Z</time></trkpt><trkpt lat="40.88509999090476" lon="9.561461607577646"><ele>11.5</ele><time>2026-03-28T11:51:06Z</time></trkpt><trkpt lat="40.885334157514976" lon="9.561621742383329"><ele>11.0</ele><time>2026-03-28T11:51:07Z</time></trkpt><trkpt lat="40.88556590697698" lon="9.561777828729634"><ele>11.0</ele><time>2026-03-28T11:51:08Z</time></trkpt><trkpt lat="40.885778671466824" lon="9.561917574249533"><ele>11.0</ele><time>2026-03-28T11:51:09Z</time></trkpt><trkpt lat="40.88599277051269" lon="9.56205891128713"><ele>11.0</ele><time>2026-03-28T11:51:10Z</time></trkpt><trkpt lat="40.88621211391314" lon="9.562190661194618"><ele>11.0</ele><time>2026-03-28T11:51:11Z</time></trkpt><trkpt lat="40.88643609364823" lon="9.562302361557329"><ele>11.0</ele><time>2026-03-28T11:51:12Z</time></trkpt><trkpt lat="40.886660420907226" lon="9.562395471365225"><ele>11.0</ele><time>2026-03-28T11:51:13Z</time></trkpt><trkpt lat="40.886889436822976" lon="9.562482010493849"><ele>10.5</ele><time>2026-03-28T11:51:14Z</time></trkpt><trkpt lat="40.88711533739852" lon="9.562568583103781"><ele>10.0</ele><time>2026-03-28T11:51:15Z</time></trkpt><trkpt lat="40.887356134539665" lon="9.56265696171181"><ele>9.0</ele><time>2026-03-28T11:51:16Z</time></trkpt><trkpt lat="40.887609253170034" lon="9.562746933222236"><ele>8.0</ele><time>2026-03-28T11:51:17Z</time></trkpt><trkpt lat="40.88786314014107" lon="9.562833541907334"><ele>8.0</ele><time>2026-03-28T11:51:18Z</time></trkpt><trkpt lat="40.88811749415621" lon="9.562921281943073"><ele>8.0</ele><time>2026-03-28T11:51:19Z</time></trkpt><trkpt lat="40.88836580668331" lon="9.563013022092745"><ele>7.0</ele><time>2026-03-28T11:51:20Z</time></trkpt><trkpt lat="40.88860717101206" lon="9.56310698107678"><ele>6.0</ele><time>2026-03-28T11:51:21Z</time></trkpt><trkpt lat="40.88884370398282" lon="9.563200224280344"><ele>6.0</ele><time>2026-03-28T11:51:22Z</time></trkpt><trkpt lat="40.88907897188426" lon="9.563291487201319"><ele>6.0</ele><time>2026-03-28T11:51:23Z</time></trkpt><trkpt lat="40.889307281290094" lon="9.563378739259633"><ele>7.0</ele><time>2026-03-28T11:51:24Z</time></trkpt><trkpt lat="40.88952028541116" lon="9.563455899032407"><ele>8.0</ele><time>2026-03-28T11:51:25Z</time></trkpt><trkpt lat="40.88973047955462" lon="9.56352806392616"><ele>9.0</ele><time>2026-03-28T11:51:26Z</time></trkpt><trkpt lat="40.889945634305434" lon="9.56361629393684"><ele>9.5</ele><time>2026-03-28T11:51:27Z</time></trkpt><trkpt lat="40.89015627457421" lon="9.563744087513149"><ele>10.0</ele><time>2026-03-28T11:51:28Z</time></trkpt><trkpt lat="40.89036387315423" lon="9.563903619694514"><ele>10.0</ele><time>2026-03-28T11:51:29Z</time></trkpt><trkpt lat="40.89057429018148" lon="9.564089990830244"><ele>10.0</ele><time>2026-03-28T11:51:30Z</time></trkpt><trkpt lat="40.89079156854396" lon="9.564284262389481"><ele>8.5</ele><time>2026-03-28T11:51:31Z</time></trkpt><trkpt lat="40.891010822142505" lon="9.56447580383548"><ele>7.0</ele><time>2026-03-28T11:51:32Z</time></trkpt><trkpt lat="40.891230324853325" lon="9.564668976583071"><ele>7.0</ele><time>2026-03-28T11:51:33Z</time></trkpt><trkpt lat="40.891447863865416" lon="9.564857852452116"><ele>7.0</ele><time>2026-03-28T11:51:34Z</time></trkpt><trkpt lat="40.89166370258839" lon="9.565041320799198"><ele>6.5</ele><time>2026-03-28T11:51:35Z</time></trkpt><trkpt lat="40.891876117861955" lon="9.565225273841977"><ele>6.0</ele><time>2026-03-28T11:51:36Z</time></trkpt><trkpt lat="40.89208091937008" lon="9.565402805320316"><ele>6.0</ele><time>2026-03-28T11:51:37Z</time></trkpt><trkpt lat="40.89228376614596" lon="9.56557357903856"><ele>6.0</ele><time>2026-03-28T11:51:38Z</time></trkpt><trkpt lat="40.89248027182035" lon="9.565740094850543"><ele>5.5</ele><time>2026-03-28T11:51:39Z</time></trkpt><trkpt lat="40.892672973489795" lon="9.565905064495684"><ele>5.0</ele><time>2026-03-28T11:51:40Z</time></trkpt><trkpt lat="40.89286302088206" lon="9.566067499150593"><ele>6.0</ele><time>2026-03-28T11:51:41Z</time></trkpt><trkpt lat="40.893050649752915" lon="9.56622930408234"><ele>7.0</ele><time>2026-03-28T11:51:42Z</time></trkpt><trkpt lat="40.89324198084573" lon="9.566390764910585"><ele>7.0</ele><time>2026-03-28T11:51:43Z</time></trkpt><trkpt lat="40.893418261097445" lon="9.56654062014229"><ele>7.0</ele><time>2026-03-28T11:51:44Z</time></trkpt><trkpt lat="40.8935841907183" lon="9.566678338159187"><ele>7.0</ele><time>2026-03-28T11:51:45Z</time></trkpt><trkpt lat="40.893752466897205" lon="9.566822443712022"><ele>6.333333333333334</ele><time>2026-03-28T11:51:46Z</time></trkpt><trkpt lat="40.89391125439068" lon="9.566962166198934"><ele>5.666666666666667</ele><time>2026-03-28T11:51:47Z</time></trkpt><trkpt lat="40.89406075525133" lon="9.56709326090102"><ele>5.0</ele><time>2026-03-28T11:51:48Z</time></trkpt><trkpt lat="40.89419116917439" lon="9.567215813554002"><ele>4.6</ele><time>2026-03-28T11:51:49Z</time></trkpt><trkpt lat="40.89429620355104" lon="9.567329029448945"><ele>4.2</ele><time>2026-03-28T11:51:50Z</time></trkpt><trkpt lat="40.894366464865115" lon="9.567430374941388"><ele>3.8</ele><time>2026-03-28T11:51:51Z</time></trkpt><trkpt lat="40.89440649923049" lon="9.56752882582709"><ele>3.4</ele><time>2026-03-28T11:51:52Z</time></trkpt><trkpt lat="40.89441103770811" lon="9.567641102598266"><ele>3.0</ele><time>2026-03-28T11:51:53Z</time></trkpt><trkpt lat="40.89438099720038" lon="9.56778216202746"><ele>3.0</ele><time>2026-03-28T11:51:54Z</time></trkpt><trkpt lat="40.89431975035187" lon="9.56791878851996"><ele>3.0</ele><time>2026-03-28T11:51:55Z</time></trkpt><trkpt lat="40.89423026747474" lon="9.568062178079577"><ele>3.0</ele><time>2026-03-28T11:51:56Z</time></trkpt><trkpt lat="40.894125207056774" lon="9.568242313262934"><ele>3.0</ele><time>2026-03-28T11:51:57Z</time></trkpt><trkpt lat="40.89402179217896" lon="9.568448589142255"><ele>3.0</ele><time>2026-03-28T11:51:58Z</time></trkpt><trkpt lat="40.89392676052573" lon="9.568675967735272"><ele>3.0</ele><time>2026-03-28T11:51:59Z</time></trkpt><trkpt lat="40.893834572959825" lon="9.568932639151905"><ele>3.0</ele><time>2026-03-28T11:52:00Z</time></trkpt><trkpt lat="40.89374871147941" lon="9.569212120748132"><ele>3.0</ele><time>2026-03-28T11:52:01Z</time></trkpt><trkpt lat="40.89367177970631" lon="9.569508793823267"><ele>3.0</ele><time>2026-03-28T11:52:02Z</time></trkpt><trkpt lat="40.89359964623842" lon="9.569803745059264"><ele>1.5</ele><time>2026-03-28T11:52:03Z</time></trkpt><trkpt lat="40.89352841349562" lon="9.570107038397172"><ele>0.0</ele><time>2026-03-28T11:52:04Z</time></trkpt><trkpt lat="40.89345489495573" lon="9.570426602129606"><ele>0.0</ele><time>2026-03-28T11:52:05Z</time></trkpt><trkpt lat="40.8933841535946" lon="9.570733092987682"><ele>0.0</ele><time>2026-03-28T11:52:06Z</time></trkpt><trkpt lat="40.893314330789075" lon="9.571045819839524"><ele>-1.0</ele><time>2026-03-28T11:52:07Z</time></trkpt><trkpt lat="40.8932441695629" lon="9.571353884628536"><ele>-2.0</ele><time>2026-03-28T11:52:08Z</time></trkpt><trkpt lat="40.89316966126744" lon="9.571679996786001"><ele>-1.5</ele><time>2026-03-28T11:52:09Z</time></trkpt><trkpt lat="40.89308900568758" lon="9.57203381640101"><ele>-1.0</ele><time>2026-03-28T11:52:10Z</time></trkpt><trkpt lat="40.89300484081128" lon="9.572391111719432"><ele>-1.0</ele><time>2026-03-28T11:52:11Z</time></trkpt><trkpt lat="40.89291936647537" lon="9.572758286140422"><ele>-1.0</ele><time>2026-03-28T11:52:12Z</time></trkpt><trkpt lat="40.89283235482918" lon="9.573131381427505"><ele>0.0</ele><time>2026-03-28T11:52:13Z</time></trkpt><trkpt lat="40.89274435138635" lon="9.573515467758883"><ele>1.0</ele><time>2026-03-28T11:52:14Z</time></trkpt><trkpt lat="40.89265714352945" lon="9.573898199095847"><ele>2.0</ele><time>2026-03-28T11:52:15Z</time></trkpt><trkpt lat="40.892577445031016" lon="9.574240905394278"><ele>3.0</ele><time>2026-03-28T11:52:16Z</time></trkpt><trkpt lat="40.892500874091624" lon="9.574580099922668"><ele>3.0</ele><time>2026-03-28T11:52:17Z</time></trkpt><trkpt lat="40.89242516391887" lon="9.574904456986406"><ele>3.0</ele><time>2026-03-28T11:52:18Z</time></trkpt><trkpt lat="40.8923555018989" lon="9.57520057163874"><ele>3.0</ele><time>2026-03-28T11:52:19Z</time></trkpt><trkpt lat="40.892290454854965" lon="9.575482482249107"><ele>3.0</ele><time>2026-03-28T11:52:20Z</time></trkpt><trkpt lat="40.892224106001414" lon="9.575774070844691"><ele>3.0</ele><time>2026-03-28T11:52:21Z</time></trkpt><trkpt lat="40.89215466326158" lon="9.57607035778387"><ele>3.0</ele><time>2026-03-28T11:52:22Z</time></trkpt><trkpt lat="40.89209211732983" lon="9.576337086301471"><ele>3.0</ele><time>2026-03-28T11:52:23Z</time></trkpt><trkpt lat="40.89203416397685" lon="9.576586732305993"><ele>2.6666666666666665</ele><time>2026-03-28T11:52:24Z</time></trkpt><trkpt lat="40.89197889489084" lon="9.576829734062256"><ele>2.333333333333333</ele><time>2026-03-28T11:52:25Z</time></trkpt><trkpt lat="40.89192432200067" lon="9.577064627389772"><ele>2.0</ele><time>2026-03-28T11:52:26Z</time></trkpt><trkpt lat="40.89187220706396" lon="9.577289388661015"><ele>2.0</ele><time>2026-03-28T11:52:26.999Z</time></trkpt><trkpt lat="40.8918197265227" lon="9.577513309879029"><ele>2.0</ele><time>2026-03-28T11:52:27.999Z</time></trkpt><trkpt lat="40.891769452791685" lon="9.577730762555987"><ele>2.0</ele><time>2026-03-28T11:52:28.999Z</time></trkpt><trkpt lat="40.89171930983358" lon="9.577956699198928"><ele>3.0</ele><time>2026-03-28T11:52:29.999Z</time></trkpt><trkpt lat="40.89167451737795" lon="9.578177956529085"><ele>4.0</ele><time>2026-03-28T11:52:30.999Z</time></trkpt><trkpt lat="40.8916414855116" lon="9.578416530469429"><ele>5.0</ele><time>2026-03-28T11:52:31.999Z</time></trkpt><trkpt lat="40.89162958928037" lon="9.578666908589247"><ele>5.0</ele><time>2026-03-28T11:52:32.999Z</time></trkpt><trkpt lat="40.891633498704806" lon="9.578936354168201"><ele>5.0</ele><time>2026-03-28T11:52:33.999Z</time></trkpt><trkpt lat="40.89162840281952" lon="9.579237761930953"><ele>5.0</ele><time>2026-03-28T11:52:34.999Z</time></trkpt><trkpt lat="40.89160561587002" lon="9.579558584397232"><ele>4.0</ele><time>2026-03-28T11:52:35.999Z</time></trkpt><trkpt lat="40.89157843712227" lon="9.579882240075486"><ele>3.0</ele><time>2026-03-28T11:52:36.999Z</time></trkpt><trkpt lat="40.891553861744434" lon="9.580214489769673"><ele>3.0</ele><time>2026-03-28T11:52:37.999Z</time></trkpt><trkpt lat="40.891535000923014" lon="9.580551285284042"><ele>3.0</ele><time>2026-03-28T11:52:38.999Z</time></trkpt><trkpt lat="40.8915185737776" lon="9.580898297653874"><ele>3.5</ele><time>2026-03-28T11:52:39.999Z</time></trkpt><trkpt lat="40.89150376120957" lon="9.581250501930187"><ele>4.0</ele><time>2026-03-28T11:52:41Z</time></trkpt><trkpt lat="40.89148910673037" lon="9.581576128330122"><ele>4.0</ele><time>2026-03-28T11:52:42Z</time></trkpt><trkpt lat="40.89147529966222" lon="9.581875918259765"><ele>4.0</ele><time>2026-03-28T11:52:43Z</time></trkpt><trkpt lat="40.891459080699775" lon="9.582169783538083"><ele>4.333333333333333</ele><time>2026-03-28T11:52:44Z</time></trkpt><trkpt lat="40.89144472229444" lon="9.58244838024522"><ele>4.666666666666667</ele><time>2026-03-28T11:52:45Z</time></trkpt><trkpt lat="40.89142730724075" lon="9.58271401934534"><ele>5.0</ele><time>2026-03-28T11:52:46Z</time></trkpt><trkpt lat="40.89139284101494" lon="9.582993676568147"><ele>5.666666666666667</ele><time>2026-03-28T11:52:47Z</time></trkpt><trkpt lat="40.89133107447021" lon="9.583274095853964"><ele>6.333333333333334</ele><time>2026-03-28T11:52:48Z</time></trkpt><trkpt lat="40.89123420932014" lon="9.583539060576522"><ele>7.0</ele><time>2026-03-28T11:52:49Z</time></trkpt><trkpt lat="40.89111827355741" lon="9.583810324068073"><ele>7.666666666666667</ele><time>2026-03-28T11:52:50Z</time></trkpt><trkpt lat="40.89101157901113" lon="9.584075877345965"><ele>8.333333333333334</ele><time>2026-03-28T11:52:51Z</time></trkpt><trkpt lat="40.89092708473518" lon="9.584299041385"><ele>9.0</ele><time>2026-03-28T11:52:52Z</time></trkpt><trkpt lat="40.890826639157524" lon="9.584558887893714"><ele>9.0</ele><time>2026-03-28T11:52:53Z</time></trkpt><trkpt lat="40.89074141010459" lon="9.584785027960173"><ele>9.0</ele><time>2026-03-28T11:52:54Z</time></trkpt><trkpt lat="40.89065843045519" lon="9.585002477793932"><ele>9.0</ele><time>2026-03-28T11:52:55Z</time></trkpt><trkpt lat="40.89057110552246" lon="9.585227355923358"><ele>9.0</ele><time>2026-03-28T11:52:56Z</time></trkpt><trkpt lat="40.890480792884524" lon="9.585461257018803"><ele>9.0</ele><time>2026-03-28T11:52:57Z</time></trkpt><trkpt lat="40.89039023811503" lon="9.585693576084466"><ele>9.0</ele><time>2026-03-28T11:52:58Z</time></trkpt><trkpt lat="40.89029323637652" lon="9.585933830546272"><ele>9.0</ele><time>2026-03-28T11:52:59Z</time></trkpt><trkpt lat="40.89018963024907" lon="9.586177715075682"><ele>9.0</ele><time>2026-03-28T11:53:00Z</time></trkpt><trkpt lat="40.890086058852184" lon="9.586410219404721"><ele>9.0</ele><time>2026-03-28T11:53:01Z</time></trkpt><trkpt lat="40.88998547840856" lon="9.58662641270038"><ele>9.0</ele><time>2026-03-28T11:53:02Z</time></trkpt><trkpt lat="40.88989010203269" lon="9.586832306799515"><ele>9.0</ele><time>2026-03-28T11:53:03Z</time></trkpt><trkpt lat="40.88980526074149" lon="9.587028290026653"><ele>9.0</ele><time>2026-03-28T11:53:04Z</time></trkpt><trkpt lat="40.889720538102196" lon="9.58722382995199"><ele>9.333333333333334</ele><time>2026-03-28T11:53:05Z</time></trkpt><trkpt lat="40.889626512558515" lon="9.587429662224872"><ele>9.666666666666668</ele><time>2026-03-28T11:53:06Z</time></trkpt><trkpt lat="40.889524609804496" lon="9.587628843746064"><ele>10.0</ele><time>2026-03-28T11:53:07Z</time></trkpt><trkpt lat="40.88942049734393" lon="9.587810178517776"><ele>10.0</ele><time>2026-03-28T11:53:08Z</time></trkpt><trkpt lat="40.88931793795982" lon="9.587968366914932"><ele>10.0</ele><time>2026-03-28T11:53:09Z</time></trkpt><trkpt lat="40.88921722476383" lon="9.588114827393433"><ele>10.0</ele><time>2026-03-28T11:53:10Z</time></trkpt><trkpt lat="40.88912526244107" lon="9.588251385145455"><ele>10.0</ele><time>2026-03-28T11:53:11Z</time></trkpt><trkpt lat="40.88904409277628" lon="9.58837587865153"><ele>10.0</ele><time>2026-03-28T11:53:12Z</time></trkpt><trkpt lat="40.88897655582027" lon="9.58847630200825"><ele>10.0</ele><time>2026-03-28T11:53:13Z</time></trkpt><trkpt lat="40.88890983731481" lon="9.588553032672896"><ele>10.0</ele><time>2026-03-28T11:53:14Z</time></trkpt><trkpt lat="40.88883134785352" lon="9.588585159301047"><ele>10.0</ele><time>2026-03-28T11:53:15Z</time></trkpt><trkpt lat="40.8887360436355" lon="9.588600665373308"><ele>10.0</ele><time>2026-03-28T11:53:16Z</time></trkpt><trkpt lat="40.88865993332442" lon="9.588652994359887"><ele>10.0</ele><time>2026-03-28T11:53:17Z</time></trkpt><trkpt lat="40.8886118694364" lon="9.588764139768312"><ele>10.0</ele><time>2026-03-28T11:53:18Z</time></trkpt><trkpt lat="40.88860240087241" lon="9.588907200527675"><ele>10.0</ele><time>2026-03-28T11:53:19Z</time></trkpt><trkpt lat="40.88858791989876" lon="9.589054324879912"><ele>10.0</ele><time>2026-03-28T11:53:20Z</time></trkpt><trkpt lat="40.8885375103708" lon="9.589166649995331"><ele>10.0</ele><time>2026-03-28T11:53:21Z</time></trkpt><trkpt lat="40.88845933871076" lon="9.589259526119248"><ele>10.0</ele><time>2026-03-28T11:53:22Z</time></trkpt><trkpt lat="40.88837612471244" lon="9.58936346070182"><ele>10.0</ele><time>2026-03-28T11:53:23Z</time></trkpt><trkpt lat="40.888293760378346" lon="9.589479246366784"><ele>10.0</ele><time>2026-03-28T11:53:24Z</time></trkpt><trkpt lat="40.88822133493502" lon="9.589578556545137"><ele>10.0</ele><time>2026-03-28T11:53:25Z</time></trkpt><trkpt lat="40.888153355011184" lon="9.589680366122789"><ele>10.0</ele><time>2026-03-28T11:53:26Z</time></trkpt><trkpt lat="40.88808898549488" lon="9.58978693617157"><ele>10.0</ele><time>2026-03-28T11:53:27Z</time></trkpt><trkpt lat="40.8880082969642" lon="9.589921849481616"><ele>10.0</ele><time>2026-03-28T11:53:28Z</time></trkpt><trkpt lat="40.887898980819514" lon="9.590092255631602"><ele>10.0</ele><time>2026-03-28T11:53:29Z</time></trkpt><trkpt lat="40.88777576180697" lon="9.590251383967408"><ele>10.0</ele><time>2026-03-28T11:53:30Z</time></trkpt><trkpt lat="40.88764930435288" lon="9.59042955600458"><ele>10.0</ele><time>2026-03-28T11:53:31Z</time></trkpt><trkpt lat="40.88753987691548" lon="9.590625586979918"><ele>10.0</ele><time>2026-03-28T11:53:32Z</time></trkpt><trkpt lat="40.88744981948179" lon="9.590812810194935"><ele>10.666666666666668</ele><time>2026-03-28T11:53:33Z</time></trkpt><trkpt lat="40.887359951241955" lon="9.591005079476734"><ele>11.333333333333334</ele><time>2026-03-28T11:53:34Z</time></trkpt><trkpt lat="40.8872569297881" lon="9.591215201038395"><ele>12.0</ele><time>2026-03-28T11:53:35Z</time></trkpt><trkpt lat="40.88715252709432" lon="9.591432291812431"><ele>12.0</ele><time>2026-03-28T11:53:36Z</time></trkpt><trkpt lat="40.88704174874891" lon="9.5916700216875"><ele>12.0</ele><time>2026-03-28T11:53:37Z</time></trkpt><trkpt lat="40.886921239255386" lon="9.591920403189471"><ele>12.0</ele><time>2026-03-28T11:53:38Z</time></trkpt><trkpt lat="40.88679773738136" lon="9.592171628659322"><ele>12.5</ele><time>2026-03-28T11:53:39Z</time></trkpt><trkpt lat="40.8866679632981" lon="9.592433953062034"><ele>13.0</ele><time>2026-03-28T11:53:40Z</time></trkpt><trkpt lat="40.886535865360266" lon="9.592705219354558"><ele>13.5</ele><time>2026-03-28T11:53:41Z</time></trkpt><trkpt lat="40.88640065946213" lon="9.592983103629557"><ele>14.0</ele><time>2026-03-28T11:53:42Z</time></trkpt><trkpt lat="40.886255170240325" lon="9.593281709590695"><ele>14.0</ele><time>2026-03-28T11:53:43Z</time></trkpt><trkpt lat="40.88609994203171" lon="9.593594480005441"><ele>14.0</ele><time>2026-03-28T11:53:44Z</time></trkpt><trkpt lat="40.88594920895023" lon="9.593900854983792"><ele>13.5</ele><time>2026-03-28T11:53:45Z</time></trkpt><trkpt lat="40.88581459681982" lon="9.59417827848603"><ele>13.0</ele><time>2026-03-28T11:53:46Z</time></trkpt><trkpt lat="40.88568371956283" lon="9.594455499100961"><ele>12.0</ele><time>2026-03-28T11:53:47Z</time></trkpt><trkpt lat="40.885559616813225" lon="9.594716577729258"><ele>11.0</ele><time>2026-03-28T11:53:48Z</time></trkpt><trkpt lat="40.88544225154314" lon="9.594966134828178"><ele>11.0</ele><time>2026-03-28T11:53:49Z</time></trkpt><trkpt lat="40.88534255253017" lon="9.595210377283955"><ele>11.0</ele><time>2026-03-28T11:53:50Z</time></trkpt><trkpt lat="40.88525756188641" lon="9.59548680319234"><ele>11.0</ele><time>2026-03-28T11:53:51Z</time></trkpt><trkpt lat="40.885199353990416" lon="9.595744249779697"><ele>11.666666666666666</ele><time>2026-03-28T11:53:52Z</time></trkpt><trkpt lat="40.88514316106772" lon="9.595981372029293"><ele>12.333333333333332</ele><time>2026-03-28T11:53:53Z</time></trkpt><trkpt lat="40.8850735182945" lon="9.596176915474059"><ele>13.0</ele><time>2026-03-28T11:53:54Z</time></trkpt><trkpt lat="40.884983326261036" lon="9.596316358957244"><ele>14.0</ele><time>2026-03-28T11:53:55Z</time></trkpt><trkpt lat="40.88486248838445" lon="9.596421642271775"><ele>15.0</ele><time>2026-03-28T11:53:56Z</time></trkpt><trkpt lat="40.884695754405094" lon="9.596501959031778"><ele>16.0</ele><time>2026-03-28T11:53:57Z</time></trkpt><trkpt lat="40.88450992932219" lon="9.596579353970744"><ele>16.0</ele><time>2026-03-28T11:53:58Z</time></trkpt><trkpt lat="40.884322024099724" lon="9.596670326388761"><ele>16.0</ele><time>2026-03-28T11:53:59Z</time></trkpt><trkpt lat="40.884145361131836" lon="9.59674495808931"><ele>16.0</ele><time>2026-03-28T11:54:00Z</time></trkpt><trkpt lat="40.88397606338322" lon="9.596784047916714"><ele>17.0</ele><time>2026-03-28T11:54:01Z</time></trkpt><trkpt lat="40.883794560051236" lon="9.596799789164669"><ele>18.0</ele><time>2026-03-28T11:54:02Z</time></trkpt><trkpt lat="40.883608659528136" lon="9.596833635185984"><ele>19.0</ele><time>2026-03-28T11:54:03Z</time></trkpt><trkpt lat="40.88342445542948" lon="9.596917169381655"><ele>23.0</ele><time>2026-03-28T11:54:04Z</time></trkpt><trkpt lat="40.883252759942984" lon="9.597011887467978"><ele>27.0</ele><time>2026-03-28T11:54:05Z</time></trkpt><trkpt lat="40.88309701418968" lon="9.59707287694098"><ele>31.0</ele><time>2026-03-28T11:54:06Z</time></trkpt><trkpt lat="40.88295153819468" lon="9.597078218685088"><ele>31.0</ele><time>2026-03-28T11:54:07Z</time></trkpt><trkpt lat="40.882808671662985" lon="9.59701832935116"><ele>31.0</ele><time>2026-03-28T11:54:08Z</time></trkpt><trkpt lat="40.88267085760938" lon="9.59690730897539"><ele>31.0</ele><time>2026-03-28T11:54:09Z</time></trkpt><trkpt lat="40.88254590718148" lon="9.596829032250197"><ele>31.0</ele><time>2026-03-28T11:54:10Z</time></trkpt><trkpt lat="40.88243657656654" lon="9.596846197871711"><ele>31.666666666666668</ele><time>2026-03-28T11:54:11Z</time></trkpt><trkpt lat="40.88232934038246" lon="9.59695008841052"><ele>32.333333333333336</ele><time>2026-03-28T11:54:12Z</time></trkpt><trkpt lat="40.88221284658372" lon="9.597119948339767"><ele>33.0</ele><time>2026-03-28T11:54:13Z</time></trkpt><trkpt lat="40.88209048137123" lon="9.597322355354548"><ele>33.0</ele><time>2026-03-28T11:54:14Z</time></trkpt><trkpt lat="40.881947390126776" lon="9.597539136001242"><ele>33.0</ele><time>2026-03-28T11:54:15Z</time></trkpt><trkpt lat="40.88180006529969" lon="9.597750799782276"><ele>33.0</ele><time>2026-03-28T11:54:16Z</time></trkpt><trkpt lat="40.881645078141005" lon="9.597976401852938"><ele>33.5</ele><time>2026-03-28T11:54:17Z</time></trkpt><trkpt lat="40.881478629108486" lon="9.598218394773339"><ele>34.0</ele><time>2026-03-28T11:54:18Z</time></trkpt><trkpt lat="40.8813056063625" lon="9.598468929416232"><ele>34.0</ele><time>2026-03-28T11:54:19Z</time></trkpt><trkpt lat="40.88113300639391" lon="9.598718680628348"><ele>34.0</ele><time>2026-03-28T11:54:20Z</time></trkpt><trkpt lat="40.88097036160225" lon="9.598958443215388"><ele>33.0</ele><time>2026-03-28T11:54:21Z</time></trkpt><trkpt lat="40.88082288338298" lon="9.599179644287084"><ele>32.0</ele><time>2026-03-28T11:54:22Z</time></trkpt><trkpt lat="40.88069660694196" lon="9.599392153555096"><ele>31.0</ele><time>2026-03-28T11:54:23Z</time></trkpt><trkpt lat="40.88059825104736" lon="9.599638632639106"><ele>31.0</ele><time>2026-03-28T11:54:24Z</time></trkpt><trkpt lat="40.88052809270162" lon="9.599936071138169"><ele>31.0</ele><time>2026-03-28T11:54:25Z</time></trkpt><trkpt lat="40.88046757241576" lon="9.6002553665272"><ele>31.666666666666668</ele><time>2026-03-28T11:54:26Z</time></trkpt><trkpt lat="40.88041988177798" lon="9.600539200950694"><ele>32.333333333333336</ele><time>2026-03-28T11:54:27Z</time></trkpt><trkpt lat="40.880395711124486" lon="9.600817793119697"><ele>33.0</ele><time>2026-03-28T11:54:28Z</time></trkpt><trkpt lat="40.880394221695056" lon="9.601142439761064"><ele>33.5</ele><time>2026-03-28T11:54:28.999Z</time></trkpt><trkpt lat="40.88040502506458" lon="9.60147213017836"><ele>34.0</ele><time>2026-03-28T11:54:29.999Z</time></trkpt><trkpt lat="40.88041400381544" lon="9.60178540831572"><ele>34.0</ele><time>2026-03-28T11:54:30.999Z</time></trkpt><trkpt lat="40.880415329353234" lon="9.60211685941202"><ele>34.0</ele><time>2026-03-28T11:54:31.999Z</time></trkpt><trkpt lat="40.8804118547278" lon="9.602439220648435"><ele>34.0</ele><time>2026-03-28T11:54:32.999Z</time></trkpt><trkpt lat="40.8804136095443" lon="9.602724233147711"><ele>34.0</ele><time>2026-03-28T11:54:33.999Z</time></trkpt><trkpt lat="40.8804238268454" lon="9.603001158337305"><ele>34.0</ele><time>2026-03-28T11:54:34.999Z</time></trkpt><trkpt lat="40.88045172196156" lon="9.603300864490679"><ele>34.0</ele><time>2026-03-28T11:54:35.999Z</time></trkpt><trkpt lat="40.88052685640441" lon="9.603602375526226"><ele>34.0</ele><time>2026-03-28T11:54:36.999Z</time></trkpt><trkpt lat="40.88062579357177" lon="9.603889074272688"><ele>34.0</ele><time>2026-03-28T11:54:37.999Z</time></trkpt><trkpt lat="40.88071001945105" lon="9.604157104451502"><ele>34.0</ele><time>2026-03-28T11:54:38.999Z</time></trkpt><trkpt lat="40.88075462081266" lon="9.604433493130394"><ele>34.0</ele><time>2026-03-28T11:54:39.999Z</time></trkpt><trkpt lat="40.880761073929925" lon="9.604743537929362"><ele>35.0</ele><time>2026-03-28T11:54:40.999Z</time></trkpt><trkpt lat="40.88074828828405" lon="9.605082639600731"><ele>36.0</ele><time>2026-03-28T11:54:41.999Z</time></trkpt><trkpt lat="40.88073502592603" lon="9.605430963257222"><ele>37.5</ele><time>2026-03-28T11:54:42.999Z</time></trkpt><trkpt lat="40.880730058781964" lon="9.605775188306529"><ele>39.0</ele><time>2026-03-28T11:54:43.999Z</time></trkpt><trkpt lat="40.88072778661498" lon="9.606088142878836"><ele>39.666666666666664</ele><time>2026-03-28T11:54:44.999Z</time></trkpt><trkpt lat="40.88072657039" lon="9.60637887992655"><ele>40.33333333333333</ele><time>2026-03-28T11:54:46Z</time></trkpt><trkpt lat="40.880725927839165" lon="9.606655726806128"><ele>41.0</ele><time>2026-03-28T11:54:47Z</time></trkpt><trkpt lat="40.88072580690036" lon="9.606917113405263"><ele>41.33333333333333</ele><time>2026-03-28T11:54:48Z</time></trkpt><trkpt lat="40.88071519531136" lon="9.607160493047655"><ele>41.666666666666664</ele><time>2026-03-28T11:54:49Z</time></trkpt><trkpt lat="40.88068528899727" lon="9.607387829789602"><ele>42.0</ele><time>2026-03-28T11:54:50Z</time></trkpt><trkpt lat="40.88063314194328" lon="9.607592298085674"><ele>42.0</ele><time>2026-03-28T11:54:51Z</time></trkpt><trkpt lat="40.88056653970834" lon="9.607755863489507"><ele>42.0</ele><time>2026-03-28T11:54:52Z</time></trkpt><trkpt lat="40.88049476620305" lon="9.607912972308215"><ele>42.0</ele><time>2026-03-28T11:54:53Z</time></trkpt><trkpt lat="40.88042790983233" lon="9.608065698107085"><ele>42.0</ele><time>2026-03-28T11:54:54Z</time></trkpt><trkpt lat="40.88036249629583" lon="9.608216624050135"><ele>42.25</ele><time>2026-03-28T11:54:55Z</time></trkpt><trkpt lat="40.88029556300477" lon="9.608373765245213"><ele>42.5</ele><time>2026-03-28T11:54:56Z</time></trkpt><trkpt lat="40.880226407505006" lon="9.608538098257613"><ele>42.75</ele><time>2026-03-28T11:54:57Z</time></trkpt><trkpt lat="40.880163866765415" lon="9.60870679087333"><ele>43.0</ele><time>2026-03-28T11:54:58Z</time></trkpt><trkpt lat="40.88011286970258" lon="9.608895096401863"><ele>44.66666666666667</ele><time>2026-03-28T11:54:59Z</time></trkpt><trkpt lat="40.88007268798725" lon="9.609088141032453"><ele>46.333333333333336</ele><time>2026-03-28T11:55:00Z</time></trkpt><trkpt lat="40.88002382476241" lon="9.609297973062326"><ele>48.0</ele><time>2026-03-28T11:55:01Z</time></trkpt><trkpt lat="40.8799777077148" lon="9.609496367788703"><ele>49.0</ele><time>2026-03-28T11:55:02Z</time></trkpt><trkpt lat="40.87993361963743" lon="9.609699671154777"><ele>50.0</ele><time>2026-03-28T11:55:03Z</time></trkpt><trkpt lat="40.879891926836855" lon="9.609898988629778"><ele>51.0</ele><time>2026-03-28T11:55:04Z</time></trkpt><trkpt lat="40.87984729953946" lon="9.610122232776911"><ele>50.66666666666667</ele><time>2026-03-28T11:55:05Z</time></trkpt><trkpt lat="40.87980379106978" lon="9.610337569542597"><ele>50.333333333333336</ele><time>2026-03-28T11:55:06Z</time></trkpt><trkpt lat="40.87976311587871" lon="9.610528680053998"><ele>50.0</ele><time>2026-03-28T11:55:07Z</time></trkpt><trkpt lat="40.87972468730615" lon="9.61069424922378"><ele>50.0</ele><time>2026-03-28T11:55:08Z</time></trkpt><trkpt lat="40.87969125154158" lon="9.610846156859242"><ele>50.0</ele><time>2026-03-28T11:55:09Z</time></trkpt><trkpt lat="40.879657273249656" lon="9.611003464877438"><ele>50.0</ele><time>2026-03-28T11:55:10Z</time></trkpt><trkpt lat="40.8796175852663" lon="9.611177674659823"><ele>50.0</ele><time>2026-03-28T11:55:11Z</time></trkpt><trkpt lat="40.87958120341404" lon="9.611339941896917"><ele>50.25</ele><time>2026-03-28T11:55:12Z</time></trkpt><trkpt lat="40.8795468724093" lon="9.611506487540725"><ele>50.5</ele><time>2026-03-28T11:55:13Z</time></trkpt><trkpt lat="40.87950972404289" lon="9.611670072968582"><ele>50.75</ele><time>2026-03-28T11:55:14Z</time></trkpt><trkpt lat="40.87947075700767" lon="9.611839639845401"><ele>51.0</ele><time>2026-03-28T11:55:15Z</time></trkpt><trkpt lat="40.87943496851679" lon="9.612010870078045"><ele>51.75</ele><time>2026-03-28T11:55:16Z</time></trkpt><trkpt lat="40.879400854408246" lon="9.61217245291922"><ele>52.5</ele><time>2026-03-28T11:55:17Z</time></trkpt><trkpt lat="40.8793745625746" lon="9.612331341177741"><ele>53.25</ele><time>2026-03-28T11:55:18Z</time></trkpt><trkpt lat="40.879356800182535" lon="9.61249002528763"><ele>54.0</ele><time>2026-03-28T11:55:19Z</time></trkpt><trkpt lat="40.87934128790367" lon="9.612670961696061"><ele>54.0</ele><time>2026-03-28T11:55:20Z</time></trkpt><trkpt lat="40.87932227457411" lon="9.612855086428286"><ele>54.0</ele><time>2026-03-28T11:55:21Z</time></trkpt><trkpt lat="40.87929838063422" lon="9.613031806919503"><ele>54.0</ele><time>2026-03-28T11:55:22Z</time></trkpt><trkpt lat="40.87926360105819" lon="9.61322359989211"><ele>54.0</ele><time>2026-03-28T11:55:23Z</time></trkpt><trkpt lat="40.87921603973324" lon="9.613420582818604"><ele>53.25</ele><time>2026-03-28T11:55:24Z</time></trkpt><trkpt lat="40.87916789344492" lon="9.61361994933931"><ele>52.5</ele><time>2026-03-28T11:55:25Z</time></trkpt><trkpt lat="40.87912411825342" lon="9.613818225016226"><ele>51.75</ele><time>2026-03-28T11:55:26Z</time></trkpt><trkpt lat="40.87909606308864" lon="9.613985976531268"><ele>51.0</ele><time>2026-03-28T11:55:27Z</time></trkpt><trkpt lat="40.879077672695644" lon="9.614129844859116"><ele>50.33333333333333</ele><time>2026-03-28T11:55:28Z</time></trkpt><trkpt lat="40.879063110181235" lon="9.614255725790791"><ele>49.666666666666664</ele><time>2026-03-28T11:55:29Z</time></trkpt><trkpt lat="40.87905228853868" lon="9.614364394858278"><ele>49.0</ele><time>2026-03-28T11:55:30Z</time></trkpt><trkpt lat="40.87888143467812" lon="9.614718132539952"><ele>47.75</ele><time>2026-03-28T11:55:31Z</time></trkpt><trkpt lat="40.8787789526315" lon="9.614854239832328"><ele>46.5</ele><time>2026-03-28T11:55:32Z</time></trkpt><trkpt lat="40.87866435502947" lon="9.614958148448611"><ele>45.25</ele><time>2026-03-28T11:55:33Z</time></trkpt><trkpt lat="40.878549680053105" lon="9.615064533536913"><ele>44.0</ele><time>2026-03-28T11:55:34Z</time></trkpt><trkpt lat="40.87844825636791" lon="9.615170563876378"><ele>43.5</ele><time>2026-03-28T11:55:35Z</time></trkpt><trkpt lat="40.878361982931374" lon="9.615291278203982"><ele>43.0</ele><time>2026-03-28T11:55:36Z</time></trkpt><trkpt lat="40.878303970548345" lon="9.61545196616159"><ele>42.5</ele><time>2026-03-28T11:55:37Z</time></trkpt><trkpt lat="40.8782823449131" lon="9.6156484956728"><ele>42.0</ele><time>2026-03-28T11:55:38Z</time></trkpt><trkpt lat="40.87828109634916" lon="9.615874992732065"><ele>41.0</ele><time>2026-03-28T11:55:39Z</time></trkpt><trkpt lat="40.878274487041175" lon="9.616081956649012"><ele>40.0</ele><time>2026-03-28T11:55:40Z</time></trkpt><trkpt lat="40.878265682342736" lon="9.616267061688859"><ele>39.0</ele><time>2026-03-28T11:55:41Z</time></trkpt><trkpt lat="40.878251458834704" lon="9.616446117213519"><ele>38.0</ele><time>2026-03-28T11:55:42Z</time></trkpt><trkpt lat="40.878228574105655" lon="9.61664253948075"><ele>37.25</ele><time>2026-03-28T11:55:43Z</time></trkpt><trkpt lat="40.87819773300531" lon="9.616829735764242"><ele>36.5</ele><time>2026-03-28T11:55:44Z</time></trkpt><trkpt lat="40.878149278740004" lon="9.617004519339112"><ele>35.75</ele><time>2026-03-28T11:55:45Z</time></trkpt><trkpt lat="40.878087147611424" lon="9.6171723319028"><ele>35.0</ele><time>2026-03-28T11:55:46Z</time></trkpt><trkpt lat="40.87802303240685" lon="9.617361712659713"><ele>34.666666666666664</ele><time>2026-03-28T11:55:47Z</time></trkpt><trkpt lat="40.877966097453466" lon="9.61754260800173"><ele>34.333333333333336</ele><time>2026-03-28T11:55:48Z</time></trkpt><trkpt lat="40.8778985298489" lon="9.617707956968667"><ele>34.0</ele><time>2026-03-28T11:55:49Z</time></trkpt><trkpt lat="40.87780890942695" lon="9.617888483409132"><ele>33.66666666666667</ele><time>2026-03-28T11:55:50Z</time></trkpt><trkpt lat="40.87771999355272" lon="9.618067050903575"><ele>33.333333333333336</ele><time>2026-03-28T11:55:51Z</time></trkpt><trkpt lat="40.877650608082554" lon="9.61823779968017"><ele>33.0</ele><time>2026-03-28T11:55:52Z</time></trkpt><trkpt lat="40.877601668512305" lon="9.618431241080748"><ele>31.0</ele><time>2026-03-28T11:55:53Z</time></trkpt><trkpt lat="40.877568194478" lon="9.61863406416705"><ele>29.0</ele><time>2026-03-28T11:55:54Z</time></trkpt><trkpt lat="40.87753197228548" lon="9.618815760161592"><ele>27.0</ele><time>2026-03-28T11:55:55Z</time></trkpt><trkpt lat="40.877497967117066" lon="9.618986194267684"><ele>25.0</ele><time>2026-03-28T11:55:56Z</time></trkpt><trkpt lat="40.87747226390165" lon="9.619155093726897"><ele>25.0</ele><time>2026-03-28T11:55:57Z</time></trkpt><trkpt lat="40.87746698201512" lon="9.619324944034979"><ele>25.0</ele><time>2026-03-28T11:55:58Z</time></trkpt><trkpt lat="40.87749676557489" lon="9.619507448716277"><ele>25.0</ele><time>2026-03-28T11:55:59Z</time></trkpt><trkpt lat="40.8775556883205" lon="9.619692077374127"><ele>25.0</ele><time>2026-03-28T11:56:00Z</time></trkpt><trkpt lat="40.87762717232042" lon="9.619869173972516"><ele>25.0</ele><time>2026-03-28T11:56:01Z</time></trkpt><trkpt lat="40.87770152395369" lon="9.620048929840472"><ele>25.0</ele><time>2026-03-28T11:56:02Z</time></trkpt><trkpt lat="40.87776926475105" lon="9.620237898733201"><ele>25.0</ele><time>2026-03-28T11:56:03Z</time></trkpt><trkpt lat="40.8778303173363" lon="9.620428604096514"><ele>22.666666666666668</ele><time>2026-03-28T11:56:04Z</time></trkpt><trkpt lat="40.87788338045273" lon="9.620615314206693"><ele>20.333333333333336</ele><time>2026-03-28T11:56:05Z</time></trkpt><trkpt lat="40.87791830220104" lon="9.62081632792921"><ele>18.0</ele><time>2026-03-28T11:56:06Z</time></trkpt><trkpt lat="40.87793290320094" lon="9.62103656255125"><ele>17.0</ele><time>2026-03-28T11:56:07Z</time></trkpt><trkpt lat="40.87793437422544" lon="9.621243690865107"><ele>16.0</ele><time>2026-03-28T11:56:08Z</time></trkpt><trkpt lat="40.87792965871106" lon="9.621437070724017"><ele>15.0</ele><time>2026-03-28T11:56:09Z</time></trkpt><trkpt lat="40.877916913305846" lon="9.621639432359968"><ele>15.0</ele><time>2026-03-28T11:56:10Z</time></trkpt><trkpt lat="40.87788974807355" lon="9.621859888057248"><ele>15.0</ele><time>2026-03-28T11:56:11Z</time></trkpt><trkpt lat="40.87785260178799" lon="9.622057056300369"><ele>15.0</ele><time>2026-03-28T11:56:12Z</time></trkpt><trkpt lat="40.87781493971419" lon="9.62224137719586"><ele>14.0</ele><time>2026-03-28T11:56:13Z</time></trkpt><trkpt lat="40.877778428550265" lon="9.622444709224144"><ele>13.0</ele><time>2026-03-28T11:56:14Z</time></trkpt><trkpt lat="40.877744197520315" lon="9.622640118840529"><ele>12.0</ele><time>2026-03-28T11:56:15Z</time></trkpt><trkpt lat="40.87771195234142" lon="9.622818408589008"><ele>11.0</ele><time>2026-03-28T11:56:16Z</time></trkpt><trkpt lat="40.87767974262667" lon="9.62300240530407"><ele>11.0</ele><time>2026-03-28T11:56:17Z</time></trkpt><trkpt lat="40.87764455337055" lon="9.623188783681307"><ele>11.0</ele><time>2026-03-28T11:56:18Z</time></trkpt><trkpt lat="40.877600997687125" lon="9.623362830094466"><ele>11.0</ele><time>2026-03-28T11:56:19Z</time></trkpt><trkpt lat="40.87754149508662" lon="9.623529943364575"><ele>11.0</ele><time>2026-03-28T11:56:20Z</time></trkpt><trkpt lat="40.87747164051761" lon="9.623700897468556"><ele>11.75</ele><time>2026-03-28T11:56:21Z</time></trkpt><trkpt lat="40.87740832667719" lon="9.623858687392216"><ele>12.5</ele><time>2026-03-28T11:56:22Z</time></trkpt><trkpt lat="40.87735474596666" lon="9.624004385481083"><ele>13.25</ele><time>2026-03-28T11:56:23Z</time></trkpt><trkpt lat="40.87729743067752" lon="9.6241632750351"><ele>14.0</ele><time>2026-03-28T11:56:24Z</time></trkpt><trkpt lat="40.87723438089284" lon="9.624329789263951"><ele>14.0</ele><time>2026-03-28T11:56:25Z</time></trkpt><trkpt lat="40.877182811133274" lon="9.624483049967566"><ele>14.0</ele><time>2026-03-28T11:56:26Z</time></trkpt><trkpt lat="40.87713647917456" lon="9.624628079932318"><ele>14.0</ele><time>2026-03-28T11:56:27Z</time></trkpt><trkpt lat="40.87708273015595" lon="9.624781887001843"><ele>14.0</ele><time>2026-03-28T11:56:28Z</time></trkpt><trkpt lat="40.877029120864826" lon="9.624949258737024"><ele>14.0</ele><time>2026-03-28T11:56:29Z</time></trkpt><trkpt lat="40.87696645214593" lon="9.62516009282849"><ele>14.0</ele><time>2026-03-28T11:56:30Z</time></trkpt><trkpt lat="40.876895239240184" lon="9.625361722193926"><ele>14.0</ele><time>2026-03-28T11:56:31Z</time></trkpt><trkpt lat="40.876827081530244" lon="9.625530387122177"><ele>13.5</ele><time>2026-03-28T11:56:32Z</time></trkpt><trkpt lat="40.87677084668499" lon="9.62568800086195"><ele>13.0</ele><time>2026-03-28T11:56:33Z</time></trkpt><trkpt lat="40.87672756264725" lon="9.625842652902355"><ele>12.5</ele><time>2026-03-28T11:56:34Z</time></trkpt><trkpt lat="40.87670140284713" lon="9.625997125711342"><ele>12.0</ele><time>2026-03-28T11:56:35Z</time></trkpt><trkpt lat="40.87670700354955" lon="9.626156057165254"><ele>12.0</ele><time>2026-03-28T11:56:36Z</time></trkpt><trkpt lat="40.87673826258444" lon="9.62631192248326"><ele>12.0</ele><time>2026-03-28T11:56:37Z</time></trkpt><trkpt lat="40.87678526851324" lon="9.62646503406689"><ele>12.0</ele><time>2026-03-28T11:56:38Z</time></trkpt><trkpt lat="40.87683775665145" lon="9.62661360480098"><ele>12.0</ele><time>2026-03-28T11:56:39Z</time></trkpt><trkpt lat="40.87688092088905" lon="9.62676285311795"><ele>12.0</ele><time>2026-03-28T11:56:40Z</time></trkpt><trkpt lat="40.87690807439894" lon="9.626930317652162"><ele>12.0</ele><time>2026-03-28T11:56:41Z</time></trkpt><trkpt lat="40.87691944009948" lon="9.627099399777803"><ele>12.0</ele><time>2026-03-28T11:56:42Z</time></trkpt><trkpt lat="40.87691118977347" lon="9.627267824298716"><ele>12.0</ele><time>2026-03-28T11:56:43Z</time></trkpt><trkpt lat="40.87687669736987" lon="9.62742818930006"><ele>13.25</ele><time>2026-03-28T11:56:44Z</time></trkpt><trkpt lat="40.87681546591636" lon="9.627588906806777"><ele>14.5</ele><time>2026-03-28T11:56:45Z</time></trkpt><trkpt lat="40.87674586654005" lon="9.627730707384732"><ele>15.75</ele><time>2026-03-28T11:56:46Z</time></trkpt><trkpt lat="40.876668319934886" lon="9.6278504103184"><ele>17.0</ele><time>2026-03-28T11:56:46.999Z</time></trkpt><trkpt lat="40.8765793771659" lon="9.627954359223905"><ele>17.0</ele><time>2026-03-28T11:56:47.999Z</time></trkpt><trkpt lat="40.876471328859644" lon="9.628051718369871"><ele>17.0</ele><time>2026-03-28T11:56:48.999Z</time></trkpt><trkpt lat="40.87635983624351" lon="9.628134432757278"><ele>17.0</ele><time>2026-03-28T11:56:49.999Z</time></trkpt><trkpt lat="40.87626104019525" lon="9.628217884468963"><ele>17.0</ele><time>2026-03-28T11:56:50.999Z</time></trkpt><trkpt lat="40.876167493227335" lon="9.628310339518405"><ele>17.0</ele><time>2026-03-28T11:56:52Z</time></trkpt><trkpt lat="40.87607563741806" lon="9.628403194550055"><ele>17.0</ele><time>2026-03-28T11:56:53Z</time></trkpt><trkpt lat="40.87599897904702" lon="9.628487417727131"><ele>17.0</ele><time>2026-03-28T11:56:54Z</time></trkpt><trkpt lat="40.87593641640381" lon="9.628570189353004"><ele>17.0</ele><time>2026-03-28T11:56:55Z</time></trkpt><trkpt lat="40.87588171387897" lon="9.628650461636745"><ele>17.0</ele><time>2026-03-28T11:56:56Z</time></trkpt><trkpt lat="40.87582975040695" lon="9.628724484865815"><ele>16.166666666666668</ele><time>2026-03-28T11:56:57Z</time></trkpt><trkpt lat="40.87572958247966" lon="9.62880745961733"><ele>15.333333333333334</ele><time>2026-03-28T11:56:59Z</time></trkpt><trkpt lat="40.87566724888883" lon="9.62882034572877"><ele>14.5</ele><time>2026-03-28T11:57:00Z</time></trkpt><trkpt lat="40.87559735620749" lon="9.628844002140513"><ele>13.666666666666668</ele><time>2026-03-28T11:57:01Z</time></trkpt><trkpt lat="40.87552935192845" lon="9.628886297952189"><ele>12.833333333333334</ele><time>2026-03-28T11:57:02Z</time></trkpt><trkpt lat="40.87542721642318" lon="9.628877203622418"><ele>12.0</ele><time>2026-03-28T11:57:04Z</time></trkpt><trkpt lat="40.87538355650405" lon="9.628808232472787"><ele>12.0</ele><time>2026-03-28T11:57:07Z</time></trkpt></trkseg></trk></gpx>